<?xml version='1.0' encoding='UTF-8'?><gpx version="1.1" creator="JPX - https://github.com/jenetics/jpx" xmlns="http://www.topografix.com/GPX/1/1"><trk><trkseg><trkpt lat="41.18149670664504" lon="9.385205106652998"><ele>2.0</ele><time>2026-05-02T07:39:46Z</time></trkpt><trkpt lat="41.18149645477188" lon="9.385022501345947"><ele>2.0</ele><time>2026-05-02T07:39:48Z</time></trkpt><trkpt lat="41.181518325556134" lon="9.384941106032608"><ele>2.0</ele><time>2026-05-02T07:39:49Z</time></trkpt><trkpt lat="41.181562347214786" lon="9.38486152310181"><ele>2.0</ele><time>2026-05-02T07:39:50Z</time></trkpt><trkpt lat="41.181615964320734" lon="9.384807061243945"><ele>2.0</ele><time>2026-05-02T07:39:51Z</time></trkpt><trkpt lat="41.1817038576038" lon="9.384694885770816"><ele>3.1666666666666665</ele><time>2026-05-02T07:39:53Z</time></trkpt><trkpt lat="41.181787605466006" lon="9.38464596894162"><ele>4.333333333333333</ele><time>2026-05-02T07:39:54Z</time></trkpt><trkpt lat="41.18187262385654" lon="9.384612195568929"><ele>5.5</ele><time>2026-05-02T07:39:55Z</time></trkpt><trkpt lat="41.18195286888303" lon="9.384576290455968"><ele>6.666666666666667</ele><time>2026-05-02T07:39:56Z</time></trkpt><trkpt lat="41.18203170426049" lon="9.3845389185063"><ele>7.833333333333333</ele><time>2026-05-02T07:39:57Z</time></trkpt><trkpt lat="41.182111049281076" lon="9.384501621679117"><ele>9.0</ele><time>2026-05-02T07:39:58Z</time></trkpt><trkpt lat="41.18218817595626" lon="9.384456655079646"><ele>9.0</ele><time>2026-05-02T07:39:59Z</time></trkpt><trkpt lat="41.18228406087715" lon="9.38439933267348"><ele>9.0</ele><time>2026-05-02T07:40:00Z</time></trkpt><trkpt lat="41.18239067415329" lon="9.384340906922967"><ele>9.0</ele><time>2026-05-02T07:40:01Z</time></trkpt><trkpt lat="41.18249413451612" lon="9.384286996351875"><ele>9.0</ele><time>2026-05-02T07:40:02Z</time></trkpt><trkpt lat="41.18259080852288" lon="9.384238263243127"><ele>9.0</ele><time>2026-05-02T07:40:03Z</time></trkpt><trkpt lat="41.18268156437653" lon="9.384191627856477"><ele>9.0</ele><time>2026-05-02T07:40:04Z</time></trkpt><trkpt lat="41.182756272269266" lon="9.384140409566307"><ele>9.0</ele><time>2026-05-02T07:40:05Z</time></trkpt><trkpt lat="41.18282895985851" lon="9.384115083678894"><ele>9.0</ele><time>2026-05-02T07:40:06Z</time></trkpt><trkpt lat="41.18290966445007" lon="9.384070615295096"><ele>9.0</ele><time>2026-05-02T07:40:07Z</time></trkpt><trkpt lat="41.18299498267065" lon="9.384025696920899"><ele>9.0</ele><time>2026-05-02T07:40:08Z</time></trkpt><trkpt lat="41.183081577861145" lon="9.383980327337627"><ele>9.0</ele><time>2026-05-02T07:40:09Z</time></trkpt><trkpt lat="41.1831642443909" lon="9.383936450361626"><ele>8.6</ele><time>2026-05-02T07:40:10Z</time></trkpt><trkpt lat="41.18324958334978" lon="9.383889605706308"><ele>8.2</ele><time>2026-05-02T07:40:11Z</time></trkpt><trkpt lat="41.18334378919495" lon="9.383838403261914"><ele>7.799999999999999</ele><time>2026-05-02T07:40:12Z</time></trkpt><trkpt lat="41.18343388620979" lon="9.383787121770677"><ele>7.3999999999999995</ele><time>2026-05-02T07:40:13Z</time></trkpt><trkpt lat="41.18351682422065" lon="9.383741848488281"><ele>7.0</ele><time>2026-05-02T07:40:14Z</time></trkpt><trkpt lat="41.183593689331964" lon="9.383700143867067"><ele>7.500000000000001</ele><time>2026-05-02T07:40:15Z</time></trkpt><trkpt lat="41.18368024557562" lon="9.383647945570281"><ele>8.0</ele><time>2026-05-02T07:40:16Z</time></trkpt><trkpt lat="41.18376766689869" lon="9.383586688988284"><ele>8.5</ele><time>2026-05-02T07:40:17Z</time></trkpt><trkpt lat="41.18385274999913" lon="9.383527884326357"><ele>9.0</ele><time>2026-05-02T07:40:18Z</time></trkpt><trkpt lat="41.183930143499204" lon="9.383487071491349"><ele>9.5</ele><time>2026-05-02T07:40:19Z</time></trkpt><trkpt lat="41.18399283945791" lon="9.383453135822679"><ele>10.0</ele><time>2026-05-02T07:40:20Z</time></trkpt><trkpt lat="41.18410965273251" lon="9.383369437499272"><ele>10.0</ele><time>2026-05-02T07:40:22Z</time></trkpt><trkpt lat="41.184182671373414" lon="9.383271953156184"><ele>10.0</ele><time>2026-05-02T07:40:24Z</time></trkpt><trkpt lat="41.18422076375757" lon="9.383123184797597"><ele>10.0</ele><time>2026-05-02T07:40:26Z</time></trkpt><trkpt lat="41.184226121893786" lon="9.382993285754978"><ele>10.0</ele><time>2026-05-02T07:40:26.999Z</time></trkpt><trkpt lat="41.184238693172595" lon="9.382841427323653"><ele>10.0</ele><time>2026-05-02T07:40:27.999Z</time></trkpt><trkpt lat="41.184241083552045" lon="9.382688031342092"><ele>12.25</ele><time>2026-05-02T07:40:28.999Z</time></trkpt><trkpt lat="41.184254173543785" lon="9.382513324508189"><ele>14.5</ele><time>2026-05-02T07:40:29.999Z</time></trkpt><trkpt lat="41.18426164964567" lon="9.382332483784879"><ele>16.75</ele><time>2026-05-02T07:40:30.999Z</time></trkpt><trkpt lat="41.184273216194356" lon="9.382180235356712"><ele>19.0</ele><time>2026-05-02T07:40:31.999Z</time></trkpt><trkpt lat="41.184278812839786" lon="9.382054300678776"><ele>19.833333333333332</ele><time>2026-05-02T07:40:32.999Z</time></trkpt><trkpt lat="41.18427193822451" lon="9.38192017681769"><ele>20.666666666666664</ele><time>2026-05-02T07:40:33.999Z</time></trkpt><trkpt lat="41.18426160468554" lon="9.381791287422196"><ele>21.5</ele><time>2026-05-02T07:40:34.999Z</time></trkpt><trkpt lat="41.184250076565405" lon="9.381678243628015"><ele>22.333333333333332</ele><time>2026-05-02T07:40:35.999Z</time></trkpt><trkpt lat="41.1842196807385" lon="9.381594450616241"><ele>23.166666666666668</ele><time>2026-05-02T07:40:36.999Z</time></trkpt><trkpt lat="41.18418267456003" lon="9.381503176270956"><ele>24.0</ele><time>2026-05-02T07:40:37.999Z</time></trkpt><trkpt lat="41.184136820096484" lon="9.381415406184603"><ele>23.833333333333332</ele><time>2026-05-02T07:40:38.999Z</time></trkpt><trkpt lat="41.184083586345636" lon="9.381338030929014"><ele>23.666666666666668</ele><time>2026-05-02T07:40:39.999Z</time></trkpt><trkpt lat="41.18402815346816" lon="9.38126558483489"><ele>23.5</ele><time>2026-05-02T07:40:40.999Z</time></trkpt><trkpt lat="41.183984256258434" lon="9.381201374360975"><ele>23.333333333333336</ele><time>2026-05-02T07:40:41.999Z</time></trkpt><trkpt lat="41.18393410343311" lon="9.381067585398629"><ele>23.166666666666668</ele><time>2026-05-02T07:40:43.999Z</time></trkpt><trkpt lat="41.18391470338475" lon="9.380921031980774"><ele>23.0</ele><time>2026-05-02T07:40:45.999Z</time></trkpt><trkpt lat="41.183902069365494" lon="9.38083379474105"><ele>22.799999999999997</ele><time>2026-05-02T07:40:46.999Z</time></trkpt><trkpt lat="41.18381192908699" lon="9.380753425362489"><ele>22.6</ele><time>2026-05-02T07:40:48.999Z</time></trkpt><trkpt lat="41.18374453224402" lon="9.380771840862215"><ele>22.4</ele><time>2026-05-02T07:40:49.999Z</time></trkpt><trkpt lat="41.18366928147992" lon="9.380819051436536"><ele>22.200000000000003</ele><time>2026-05-02T07:40:50.999Z</time></trkpt><trkpt lat="41.183574792786615" lon="9.3808675632208"><ele>22.0</ele><time>2026-05-02T07:40:51.999Z</time></trkpt><trkpt lat="41.18347010739123" lon="9.380901662421982"><ele>22.0</ele><time>2026-05-02T07:40:52.999Z</time></trkpt><trkpt lat="41.18334947577753" lon="9.380925204063985"><ele>22.0</ele><time>2026-05-02T07:40:53.999Z</time></trkpt><trkpt lat="41.18322718510124" lon="9.3809398922119"><ele>22.0</ele><time>2026-05-02T07:40:54.999Z</time></trkpt><trkpt lat="41.18311278355781" lon="9.380954631846276"><ele>22.0</ele><time>2026-05-02T07:40:55.999Z</time></trkpt><trkpt lat="41.18300272032809" lon="9.380968703846271"><ele>21.6</ele><time>2026-05-02T07:40:56.999Z</time></trkpt><trkpt lat="41.18290114448003" lon="9.380986977561582"><ele>21.200000000000003</ele><time>2026-05-02T07:40:57.999Z</time></trkpt><trkpt lat="41.18280407349174" lon="9.381006180341112"><ele>20.8</ele><time>2026-05-02T07:40:58.999Z</time></trkpt><trkpt lat="41.182708593842065" lon="9.381017756217888"><ele>20.4</ele><time>2026-05-02T07:40:59.999Z</time></trkpt><trkpt lat="41.182622120312615" lon="9.381030211880121"><ele>20.0</ele><time>2026-05-02T07:41:00.999Z</time></trkpt><trkpt lat="41.182537315248496" lon="9.381046348683741"><ele>20.0</ele><time>2026-05-02T07:41:01.999Z</time></trkpt><trkpt lat="41.18245434497577" lon="9.381062921067555"><ele>20.0</ele><time>2026-05-02T07:41:02.999Z</time></trkpt><trkpt lat="41.18236692017096" lon="9.38107666905555"><ele>20.0</ele><time>2026-05-02T07:41:03.999Z</time></trkpt><trkpt lat="41.18227431459214" lon="9.381094560113057"><ele>20.0</ele><time>2026-05-02T07:41:04.999Z</time></trkpt><trkpt lat="41.18218021272439" lon="9.381123430693396"><ele>20.0</ele><time>2026-05-02T07:41:05.999Z</time></trkpt><trkpt lat="41.182091736736886" lon="9.381161858608301"><ele>19.0</ele><time>2026-05-02T07:41:06.999Z</time></trkpt><trkpt lat="41.182008932781685" lon="9.381194965260471"><ele>18.0</ele><time>2026-05-02T07:41:07.999Z</time></trkpt><trkpt lat="41.18194076770491" lon="9.381221612789137"><ele>17.0</ele><time>2026-05-02T07:41:08.999Z</time></trkpt><trkpt lat="41.181879802993016" lon="9.381243558720994"><ele>16.0</ele><time>2026-05-02T07:41:09.999Z</time></trkpt><trkpt lat="41.181803646009605" lon="9.38127000293377"><ele>15.000000000000002</ele><time>2026-05-02T07:41:11.999Z</time></trkpt><trkpt lat="41.18173836746756" lon="9.381203852631709"><ele>14.0</ele><time>2026-05-02T07:41:15.999Z</time></trkpt><trkpt lat="41.181728449034416" lon="9.381080905247753"><ele>14.000000000000002</ele><time>2026-05-02T07:41:17.999Z</time></trkpt><trkpt lat="41.18172979699899" lon="9.38094092767033"><ele>14.0</ele><time>2026-05-02T07:41:19.999Z</time></trkpt><trkpt lat="41.181707818505025" lon="9.380832242829722"><ele>14.0</ele><time>2026-05-02T07:41:21.999Z</time></trkpt><trkpt lat="41.18163134747331" lon="9.380757577850773"><ele>14.0</ele><time>2026-05-02T07:41:23.999Z</time></trkpt><trkpt lat="41.18157380797963" lon="9.380722560569472"><ele>14.000000000000002</ele><time>2026-05-02T07:41:24.999Z</time></trkpt><trkpt lat="41.181511084439144" lon="9.380684298518107"><ele>14.0</ele><time>2026-05-02T07:41:25.999Z</time></trkpt><trkpt lat="41.181450058707384" lon="9.380641961971834"><ele>13.833333333333334</ele><time>2026-05-02T07:41:26.999Z</time></trkpt><trkpt lat="41.18138828154697" lon="9.38059971075738"><ele>13.666666666666668</ele><time>2026-05-02T07:41:27.999Z</time></trkpt><trkpt lat="41.181327383657404" lon="9.380561642731895"><ele>13.5</ele><time>2026-05-02T07:41:28.999Z</time></trkpt><trkpt lat="41.181224480204186" lon="9.380507447237143"><ele>13.333333333333332</ele><time>2026-05-02T07:41:30.997Z</time></trkpt><trkpt lat="41.18116509297025" lon="9.38046492363698"><ele>13.166666666666666</ele><time>2026-05-02T07:41:32.997Z</time></trkpt><trkpt lat="41.18115226969459" lon="9.380368150958475"><ele>13.0</ele><time>2026-05-02T07:41:35.997Z</time></trkpt><trkpt lat="41.18117462532816" lon="9.380259815194913"><ele>13.600000000000001</ele><time>2026-05-02T07:41:37.997Z</time></trkpt><trkpt lat="41.181093382598746" lon="9.380197317707555"><ele>14.200000000000001</ele><time>2026-05-02T07:41:39.997Z</time></trkpt><trkpt lat="41.18102735811706" lon="9.38017501353318"><ele>14.8</ele><time>2026-05-02T07:41:40.998Z</time></trkpt><trkpt lat="41.180912998661746" lon="9.38009843128274"><ele>15.4</ele><time>2026-05-02T07:41:42.998Z</time></trkpt><trkpt lat="41.18080422189145" lon="9.38003947565732"><ele>16.0</ele><time>2026-05-02T07:41:44.998Z</time></trkpt><trkpt lat="41.180693938844726" lon="9.379972102803007"><ele>15.999999999999998</ele><time>2026-05-02T07:41:46.998Z</time></trkpt><trkpt lat="41.18062126261904" lon="9.379919284693315"><ele>16.0</ele><time>2026-05-02T07:41:47.998Z</time></trkpt><trkpt lat="41.180554835288454" lon="9.379866635197407"><ele>16.0</ele><time>2026-05-02T07:41:48.998Z</time></trkpt><trkpt lat="41.180494910947615" lon="9.379817718176144"><ele>16.0</ele><time>2026-05-02T07:41:49.998Z</time></trkpt><trkpt lat="41.180417527051105" lon="9.379755789788884"><ele>15.999999999999998</ele><time>2026-05-02T07:41:51.998Z</time></trkpt><trkpt lat="41.180360619309326" lon="9.379715723690467"><ele>16.0</ele><time>2026-05-02T07:41:54.998Z</time></trkpt><trkpt lat="41.18028760181368" lon="9.379673343635888"><ele>16.333333333333332</ele><time>2026-05-02T07:41:58.998Z</time></trkpt><trkpt lat="41.18020753923783" lon="9.379627486823821"><ele>16.666666666666664</ele><time>2026-05-02T07:42:00.998Z</time></trkpt><trkpt lat="41.18013636879124" lon="9.379580229206686"><ele>17.0</ele><time>2026-05-02T07:42:03.999Z</time></trkpt><trkpt lat="41.18007156059164" lon="9.379541710426862"><ele>17.333333333333332</ele><time>2026-05-02T07:42:07.999Z</time></trkpt><trkpt lat="41.18002364241994" lon="9.379462060641792"><ele>17.666666666666668</ele><time>2026-05-02T07:42:11.999Z</time></trkpt><trkpt lat="41.180047914528515" lon="9.379342675232712"><ele>18.0</ele><time>2026-05-02T07:42:13.999Z</time></trkpt><trkpt lat="41.18009394183074" lon="9.379278353004995"><ele>18.0</ele><time>2026-05-02T07:42:14.999Z</time></trkpt><trkpt lat="41.180107962578866" lon="9.379140709467613"><ele>18.0</ele><time>2026-05-02T07:42:16.999Z</time></trkpt><trkpt lat="41.180051809671134" lon="9.379016392978654"><ele>18.0</ele><time>2026-05-02T07:42:18.999Z</time></trkpt><trkpt lat="41.17998962140893" lon="9.37895933996847"><ele>18.0</ele><time>2026-05-02T07:42:19.999Z</time></trkpt><trkpt lat="41.179912899149514" lon="9.378896209788655"><ele>18.0</ele><time>2026-05-02T07:42:20.999Z</time></trkpt><trkpt lat="41.179809461846155" lon="9.378805821122208"><ele>18.0</ele><time>2026-05-02T07:42:21.999Z</time></trkpt><trkpt lat="41.179698081394484" lon="9.378704705001258"><ele>18.0</ele><time>2026-05-02T07:42:22.999Z</time></trkpt><trkpt lat="41.1795935536289" lon="9.378602062433787"><ele>18.0</ele><time>2026-05-02T07:42:23.999Z</time></trkpt><trkpt lat="41.17949555124335" lon="9.378513051528477"><ele>18.0</ele><time>2026-05-02T07:42:24.999Z</time></trkpt><trkpt lat="41.17940544162428" lon="9.378427956354434"><ele>18.0</ele><time>2026-05-02T07:42:25.999Z</time></trkpt><trkpt lat="41.17931856712534" lon="9.378346963023294"><ele>18.0</ele><time>2026-05-02T07:42:26.999Z</time></trkpt><trkpt lat="41.179240522012385" lon="9.37826354404797"><ele>18.0</ele><time>2026-05-02T07:42:27.999Z</time></trkpt><trkpt lat="41.1791707474576" lon="9.378191089979321"><ele>18.0</ele><time>2026-05-02T07:42:28.999Z</time></trkpt><trkpt lat="41.1791162035865" lon="9.378135830437373"><ele>18.0</ele><time>2026-05-02T07:42:29.999Z</time></trkpt><trkpt lat="41.17906370586066" lon="9.37808927254846"><ele>18.0</ele><time>2026-05-02T07:42:30.999Z</time></trkpt><trkpt lat="41.17895626064183" lon="9.3780071183308"><ele>19.0</ele><time>2026-05-02T07:42:32.999Z</time></trkpt><trkpt lat="41.178882644664654" lon="9.377946829405937"><ele>20.0</ele><time>2026-05-02T07:42:34.999Z</time></trkpt><trkpt lat="41.17881800660144" lon="9.37790509013934"><ele>21.0</ele><time>2026-05-02T07:42:38.999Z</time></trkpt><trkpt lat="41.17876692904402" lon="9.377845979615845"><ele>22.0</ele><time>2026-05-02T07:42:41.999Z</time></trkpt><trkpt lat="41.17874566326867" lon="9.377759124866353"><ele>23.0</ele><time>2026-05-02T07:42:44.999Z</time></trkpt><trkpt lat="41.17866129928397" lon="9.377705672123815"><ele>24.0</ele><time>2026-05-02T07:42:47.999Z</time></trkpt><trkpt lat="41.178562843973644" lon="9.377681420547251"><ele>24.0</ele><time>2026-05-02T07:42:49.999Z</time></trkpt><trkpt lat="41.178451176358166" lon="9.37772709941625"><ele>24.0</ele><time>2026-05-02T07:42:51.999Z</time></trkpt><trkpt lat="41.178379571799454" lon="9.377764063652126"><ele>24.0</ele><time>2026-05-02T07:42:52.999Z</time></trkpt><trkpt lat="41.178292676517806" lon="9.377810401865101"><ele>24.0</ele><time>2026-05-02T07:42:53.999Z</time></trkpt><trkpt lat="41.178194445982754" lon="9.37786290816733"><ele>24.0</ele><time>2026-05-02T07:42:54.999Z</time></trkpt><trkpt lat="41.17808392309133" lon="9.377909843109292"><ele>26.2</ele><time>2026-05-02T07:42:55.999Z</time></trkpt><trkpt lat="41.17797872592928" lon="9.377944775708452"><ele>28.4</ele><time>2026-05-02T07:42:56.999Z</time></trkpt><trkpt lat="41.177869911319235" lon="9.377969518519835"><ele>30.6</ele><time>2026-05-02T07:42:57.999Z</time></trkpt><trkpt lat="41.17776179788062" lon="9.377987939812284"><ele>32.8</ele><time>2026-05-02T07:42:58.999Z</time></trkpt><trkpt lat="41.17766107718489" lon="9.378000862753385"><ele>35.0</ele><time>2026-05-02T07:42:59.999Z</time></trkpt><trkpt lat="41.177576409426315" lon="9.378009398458959"><ele>35.0</ele><time>2026-05-02T07:43:00.999Z</time></trkpt><trkpt lat="41.17750596769733" lon="9.378017418976622"><ele>35.0</ele><time>2026-05-02T07:43:01.999Z</time></trkpt><trkpt lat="41.177403104707054" lon="9.378031238242095"><ele>35.0</ele><time>2026-05-02T07:43:03.999Z</time></trkpt><trkpt lat="41.17733033151768" lon="9.378037915085656"><ele>35.0</ele><time>2026-05-02T07:43:05.999Z</time></trkpt><trkpt lat="41.177236684239354" lon="9.378058944239566"><ele>35.0</ele><time>2026-05-02T07:43:07.999Z</time></trkpt><trkpt lat="41.17709765647349" lon="9.378102389297252"><ele>35.25</ele><time>2026-05-02T07:43:09.999Z</time></trkpt><trkpt lat="41.176997799430296" lon="9.378124539642394"><ele>35.5</ele><time>2026-05-02T07:43:10.999Z</time></trkpt><trkpt lat="41.17688112434631" lon="9.37812879435595"><ele>35.75</ele><time>2026-05-02T07:43:11.999Z</time></trkpt><trkpt lat="41.17675556535419" lon="9.378135927083095"><ele>36.0</ele><time>2026-05-02T07:43:12.999Z</time></trkpt><trkpt lat="41.176621395017165" lon="9.378151511357128"><ele>37.5</ele><time>2026-05-02T07:43:13.999Z</time></trkpt><trkpt lat="41.17648083085121" lon="9.378172156765826"><ele>39.0</ele><time>2026-05-02T07:43:14.999Z</time></trkpt><trkpt lat="41.17634430873231" lon="9.378182823117575"><ele>40.5</ele><time>2026-05-02T07:43:15.999Z</time></trkpt><trkpt lat="41.176222732948744" lon="9.378167298355788"><ele>42.0</ele><time>2026-05-02T07:43:16.999Z</time></trkpt><trkpt lat="41.176107452547065" lon="9.37811950399667"><ele>42.0</ele><time>2026-05-02T07:43:17.999Z</time></trkpt><trkpt lat="41.17599234887572" lon="9.378035251700435"><ele>42.0</ele><time>2026-05-02T07:43:18.999Z</time></trkpt><trkpt lat="41.17587278924804" lon="9.377936179060455"><ele>42.0</ele><time>2026-05-02T07:43:19.999Z</time></trkpt><trkpt lat="41.17574655533378" lon="9.377843485218094"><ele>42.0</ele><time>2026-05-02T07:43:20.999Z</time></trkpt><trkpt lat="41.17561731662167" lon="9.377767083099434"><ele>44.0</ele><time>2026-05-02T07:43:21.999Z</time></trkpt><trkpt lat="41.17548837700649" lon="9.37771559726705"><ele>46.0</ele><time>2026-05-02T07:43:22.999Z</time></trkpt><trkpt lat="41.175360801157474" lon="9.377675802461422"><ele>48.0</ele><time>2026-05-02T07:43:23.999Z</time></trkpt><trkpt lat="41.175243827176814" lon="9.377647101734656"><ele>50.0</ele><time>2026-05-02T07:43:24.999Z</time></trkpt><trkpt lat="41.175127447935594" lon="9.37762687359009"><ele>50.0</ele><time>2026-05-02T07:43:25.999Z</time></trkpt><trkpt lat="41.17500937295247" lon="9.377624180221298"><ele>50.0</ele><time>2026-05-02T07:43:26.999Z</time></trkpt><trkpt lat="41.17489665938311" lon="9.377648376939318"><ele>50.0</ele><time>2026-05-02T07:43:27.999Z</time></trkpt><trkpt lat="41.17479231306517" lon="9.377703293270782"><ele>50.0</ele><time>2026-05-02T07:43:28.999Z</time></trkpt><trkpt lat="41.17469970066425" lon="9.377791657331839"><ele>51.0</ele><time>2026-05-02T07:43:29.999Z</time></trkpt><trkpt lat="41.17461299768763" lon="9.377904227744299"><ele>52.0</ele><time>2026-05-02T07:43:30.999Z</time></trkpt><trkpt lat="41.17453034363096" lon="9.378031207150286"><ele>53.0</ele><time>2026-05-02T07:43:31.999Z</time></trkpt><trkpt lat="41.174437247360835" lon="9.378181706146572"><ele>54.0</ele><time>2026-05-02T07:43:32.999Z</time></trkpt><trkpt lat="41.17433689205447" lon="9.378341336682043"><ele>54.0</ele><time>2026-05-02T07:43:33.999Z</time></trkpt><trkpt lat="41.1742277081754" lon="9.378509875380054"><ele>54.0</ele><time>2026-05-02T07:43:34.999Z</time></trkpt><trkpt lat="41.17413670620384" lon="9.378662711437562"><ele>54.0</ele><time>2026-05-02T07:43:35.999Z</time></trkpt><trkpt lat="41.17405786090073" lon="9.378810997980958"><ele>57.25</ele><time>2026-05-02T07:43:36.996Z</time></trkpt><trkpt lat="41.173994523380706" lon="9.378972601295306"><ele>60.5</ele><time>2026-05-02T07:43:37.996Z</time></trkpt><trkpt lat="41.17395950245667" lon="9.379142909864958"><ele>63.75</ele><time>2026-05-02T07:43:38.996Z</time></trkpt><trkpt lat="41.17395304455287" lon="9.379327534765112"><ele>67.0</ele><time>2026-05-02T07:43:39.996Z</time></trkpt><trkpt lat="41.17397302891086" lon="9.379528878058819"><ele>67.75</ele><time>2026-05-02T07:43:40.996Z</time></trkpt><trkpt lat="41.17400791356927" lon="9.379728505606145"><ele>68.5</ele><time>2026-05-02T07:43:41.996Z</time></trkpt><trkpt lat="41.17402921050587" lon="9.379908934753145"><ele>69.25</ele><time>2026-05-02T07:43:42.996Z</time></trkpt><trkpt lat="41.1740224252446" lon="9.380091403220192"><ele>70.0</ele><time>2026-05-02T07:43:43.996Z</time></trkpt><trkpt lat="41.17398465163485" lon="9.380268890585475"><ele>70.0</ele><time>2026-05-02T07:43:44.997Z</time></trkpt><trkpt lat="41.173935881167075" lon="9.380430092065328"><ele>70.0</ele><time>2026-05-02T07:43:45.997Z</time></trkpt><trkpt lat="41.1739121358459" lon="9.380560906959685"><ele>70.0</ele><time>2026-05-02T07:43:46.997Z</time></trkpt><trkpt lat="41.17392357112833" lon="9.380668015040762"><ele>70.0</ele><time>2026-05-02T07:43:47.997Z</time></trkpt><trkpt lat="41.17397696497757" lon="9.380772760559402"><ele>70.0</ele><time>2026-05-02T07:43:48.997Z</time></trkpt><trkpt lat="41.17405328334701" lon="9.380890022677892"><ele>70.25</ele><time>2026-05-02T07:43:49.997Z</time></trkpt><trkpt lat="41.17411706974595" lon="9.381034619009334"><ele>70.5</ele><time>2026-05-02T07:43:50.997Z</time></trkpt><trkpt lat="41.17415091284245" lon="9.381210243833113"><ele>70.75</ele><time>2026-05-02T07:43:51.997Z</time></trkpt><trkpt lat="41.17416274589827" lon="9.381406975968277"><ele>71.0</ele><time>2026-05-02T07:43:52.997Z</time></trkpt><trkpt lat="41.17415873260335" lon="9.381627270947252"><ele>71.0</ele><time>2026-05-02T07:43:53.997Z</time></trkpt><trkpt lat="41.17415506214353" lon="9.38182234189218"><ele>71.0</ele><time>2026-05-02T07:43:54.997Z</time></trkpt><trkpt lat="41.1741715703524" lon="9.381973612631183"><ele>71.0</ele><time>2026-05-02T07:43:55.998Z</time></trkpt><trkpt lat="41.17421296172986" lon="9.382095383806"><ele>71.0</ele><time>2026-05-02T07:43:56.998Z</time></trkpt><trkpt lat="41.17428986357727" lon="9.382182093563332"><ele>72.6</ele><time>2026-05-02T07:43:57.998Z</time></trkpt><trkpt lat="41.17438566645465" lon="9.382243369797001"><ele>74.19999999999999</ele><time>2026-05-02T07:43:58.998Z</time></trkpt><trkpt lat="41.17448819300827" lon="9.382312246219902"><ele>75.80000000000001</ele><time>2026-05-02T07:43:59.998Z</time></trkpt><trkpt lat="41.17455190882409" lon="9.382394729113875"><ele>77.4</ele><time>2026-05-02T07:44:00.998Z</time></trkpt><trkpt lat="41.17456747538503" lon="9.382491425771299"><ele>79.0</ele><time>2026-05-02T07:44:01.998Z</time></trkpt><trkpt lat="41.174498602661565" lon="9.38259907368378"><ele>79.0</ele><time>2026-05-02T07:44:03.998Z</time></trkpt><trkpt lat="41.1744280265835" lon="9.382622994318831"><ele>79.0</ele><time>2026-05-02T07:44:04.998Z</time></trkpt><trkpt lat="41.174333693509155" lon="9.382613002418786"><ele>79.0</ele><time>2026-05-02T07:44:05.998Z</time></trkpt><trkpt lat="41.17422362124988" lon="9.382580018361377"><ele>79.0</ele><time>2026-05-02T07:44:06.998Z</time></trkpt><trkpt lat="41.174116026341316" lon="9.382543341838051"><ele>79.0</ele><time>2026-05-02T07:44:07.998Z</time></trkpt><trkpt lat="41.173997915353205" lon="9.382510542075229"><ele>79.75</ele><time>2026-05-02T07:44:08.998Z</time></trkpt><trkpt lat="41.17386566652732" lon="9.382471771353835"><ele>80.5</ele><time>2026-05-02T07:44:09.998Z</time></trkpt><trkpt lat="41.17371792949852" lon="9.382429925363821"><ele>81.25</ele><time>2026-05-02T07:44:10.998Z</time></trkpt><trkpt lat="41.17356832041367" lon="9.382387978748618"><ele>82.0</ele><time>2026-05-02T07:44:11.998Z</time></trkpt><trkpt lat="41.17340762230206" lon="9.382340252777155"><ele>82.0</ele><time>2026-05-02T07:44:12.998Z</time></trkpt><trkpt lat="41.17323577631366" lon="9.382290596486024"><ele>82.0</ele><time>2026-05-02T07:44:13.999Z</time></trkpt><trkpt lat="41.173074291442326" lon="9.382244127496296"><ele>82.0</ele><time>2026-05-02T07:44:14.999Z</time></trkpt><trkpt lat="41.17293053629499" lon="9.382200673325045"><ele>82.75</ele><time>2026-05-02T07:44:15.999Z</time></trkpt><trkpt lat="41.172796815916506" lon="9.382167645756333"><ele>83.5</ele><time>2026-05-02T07:44:16.999Z</time></trkpt><trkpt lat="41.172668999190364" lon="9.38215588292769"><ele>84.25</ele><time>2026-05-02T07:44:17.999Z</time></trkpt><trkpt lat="41.17254340473408" lon="9.382187354797312"><ele>85.0</ele><time>2026-05-02T07:44:18.999Z</time></trkpt><trkpt lat="41.17241543211446" lon="9.38225804848286"><ele>86.66666666666666</ele><time>2026-05-02T07:44:19.999Z</time></trkpt><trkpt lat="41.17228132541398" lon="9.382340605935708"><ele>88.33333333333333</ele><time>2026-05-02T07:44:20.999Z</time></trkpt><trkpt lat="41.17213647435002" lon="9.382431959489358"><ele>90.0</ele><time>2026-05-02T07:44:21.999Z</time></trkpt><trkpt lat="41.17197945712015" lon="9.38252679474512"><ele>90.0</ele><time>2026-05-02T07:44:22.999Z</time></trkpt><trkpt lat="41.17181339585566" lon="9.382620773932434"><ele>90.0</ele><time>2026-05-02T07:44:23.999Z</time></trkpt><trkpt lat="41.17164274016859" lon="9.382718074837058"><ele>90.0</ele><time>2026-05-02T07:44:24.999Z</time></trkpt><trkpt lat="41.17147999617066" lon="9.382810977586235"><ele>90.5</ele><time>2026-05-02T07:44:25.999Z</time></trkpt><trkpt lat="41.17133659594992" lon="9.38289461774552"><ele>91.0</ele><time>2026-05-02T07:44:26.999Z</time></trkpt><trkpt lat="41.171215738269794" lon="9.382975144884389"><ele>91.5</ele><time>2026-05-02T07:44:27.999Z</time></trkpt><trkpt lat="41.17112319210998" lon="9.383069896349342"><ele>92.0</ele><time>2026-05-02T07:44:28.999Z</time></trkpt><trkpt lat="41.171049593738225" lon="9.383192847601551"><ele>92.0</ele><time>2026-05-02T07:44:29.999Z</time></trkpt><trkpt lat="41.17099368336049" lon="9.383339777027706"><ele>92.0</ele><time>2026-05-02T07:44:30.999Z</time></trkpt><trkpt lat="41.17094640343563" lon="9.383500855444321"><ele>92.0</ele><time>2026-05-02T07:44:31.999Z</time></trkpt><trkpt lat="41.1709096974802" lon="9.383662268070943"><ele>92.0</ele><time>2026-05-02T07:44:32.999Z</time></trkpt><trkpt lat="41.170891331402295" lon="9.383813710084848"><ele>92.6</ele><time>2026-05-02T07:44:33.999Z</time></trkpt><trkpt lat="41.17089799216368" lon="9.38395426423486"><ele>93.19999999999999</ele><time>2026-05-02T07:44:34.999Z</time></trkpt><trkpt lat="41.17093282481385" lon="9.384084302562362"><ele>93.8</ele><time>2026-05-02T07:44:35.999Z</time></trkpt><trkpt lat="41.1709961829795" lon="9.384202083772518"><ele>94.4</ele><time>2026-05-02T07:44:36.999Z</time></trkpt><trkpt lat="41.1710909673079" lon="9.384303567782682"><ele>95.0</ele><time>2026-05-02T07:44:37.999Z</time></trkpt><trkpt lat="41.17120505456831" lon="9.38439345895503"><ele>95.0</ele><time>2026-05-02T07:44:38.999Z</time></trkpt><trkpt lat="41.17133401126639" lon="9.384489407260235"><ele>95.0</ele><time>2026-05-02T07:44:39.999Z</time></trkpt><trkpt lat="41.171463040791764" lon="9.384595022722426"><ele>95.0</ele><time>2026-05-02T07:44:40.999Z</time></trkpt><trkpt lat="41.17158816577408" lon="9.384717862565802"><ele>97.66666666666667</ele><time>2026-05-02T07:44:41.999Z</time></trkpt><trkpt lat="41.171703296627456" lon="9.384863977259236"><ele>100.33333333333334</ele><time>2026-05-02T07:44:42.999Z</time></trkpt><trkpt lat="41.17180365147927" lon="9.385027079428088"><ele>103.0</ele><time>2026-05-02T07:44:43.999Z</time></trkpt><trkpt lat="41.171884640587955" lon="9.385190232121168"><ele>103.0</ele><time>2026-05-02T07:44:44.999Z</time></trkpt><trkpt lat="41.17194533394556" lon="9.385370165977582"><ele>103.0</ele><time>2026-05-02T07:44:45.999Z</time></trkpt><trkpt lat="41.1719771949919" lon="9.385566732929261"><ele>103.0</ele><time>2026-05-02T07:44:46.999Z</time></trkpt><trkpt lat="41.171987754964206" lon="9.385784666575706"><ele>105.0</ele><time>2026-05-02T07:44:47.999Z</time></trkpt><trkpt lat="41.17199603184049" lon="9.385978386933333"><ele>107.0</ele><time>2026-05-02T07:44:48.999Z</time></trkpt><trkpt lat="41.17200040338775" lon="9.38615400181044"><ele>109.0</ele><time>2026-05-02T07:44:49.999Z</time></trkpt><trkpt lat="41.17200690731326" lon="9.38631843530924"><ele>111.0</ele><time>2026-05-02T07:44:50.999Z</time></trkpt><trkpt lat="41.172015476213126" lon="9.386472979529678"><ele>111.19999999999999</ele><time>2026-05-02T07:44:51.999Z</time></trkpt><trkpt lat="41.17202159451032" lon="9.386617197649937"><ele>111.39999999999999</ele><time>2026-05-02T07:44:52.999Z</time></trkpt><trkpt lat="41.17202497792216" lon="9.386759358056073"><ele>111.6</ele><time>2026-05-02T07:44:53.999Z</time></trkpt><trkpt lat="41.17202749017647" lon="9.386891044303766"><ele>111.8</ele><time>2026-05-02T07:44:54.999Z</time></trkpt><trkpt lat="41.17202526020377" lon="9.387003395449902"><ele>112.0</ele><time>2026-05-02T07:44:55.999Z</time></trkpt><trkpt lat="41.17202013117158" lon="9.387111599878642"><ele>111.8</ele><time>2026-05-02T07:44:56.999Z</time></trkpt><trkpt lat="41.171999108735115" lon="9.387225843796022"><ele>111.6</ele><time>2026-05-02T07:44:57.999Z</time></trkpt><trkpt lat="41.17195824478577" lon="9.38734491399115"><ele>111.39999999999999</ele><time>2026-05-02T07:44:58.999Z</time></trkpt><trkpt lat="41.171896196198226" lon="9.387473833246196"><ele>111.19999999999999</ele><time>2026-05-02T07:44:59.999Z</time></trkpt><trkpt lat="41.171813465251596" lon="9.387594811587263"><ele>111.0</ele><time>2026-05-02T07:45:00.999Z</time></trkpt><trkpt lat="41.17170845033297" lon="9.387720172731578"><ele>111.0</ele><time>2026-05-02T07:45:01.999Z</time></trkpt><trkpt lat="41.171592203523005" lon="9.387856718471065"><ele>111.0</ele><time>2026-05-02T07:45:02.999Z</time></trkpt><trkpt lat="41.171475521075315" lon="9.388004122565635"><ele>111.0</ele><time>2026-05-02T07:45:03.999Z</time></trkpt><trkpt lat="41.17136254782837" lon="9.3881622094765"><ele>112.33333333333334</ele><time>2026-05-02T07:45:04.999Z</time></trkpt><trkpt lat="41.171270108122386" lon="9.388323105776049"><ele>113.66666666666667</ele><time>2026-05-02T07:45:05.999Z</time></trkpt><trkpt lat="41.17119693080741" lon="9.388506282304393"><ele>115.0</ele><time>2026-05-02T07:45:06.999Z</time></trkpt><trkpt lat="41.1711428774447" lon="9.388702330588707"><ele>116.0</ele><time>2026-05-02T07:45:07.999Z</time></trkpt><trkpt lat="41.17110132901092" lon="9.38889989249539"><ele>117.0</ele><time>2026-05-02T07:45:08.999Z</time></trkpt><trkpt lat="41.17105975802668" lon="9.389110912980545"><ele>118.0</ele><time>2026-05-02T07:45:10Z</time></trkpt><trkpt lat="41.171010839551386" lon="9.389326640307045"><ele>118.0</ele><time>2026-05-02T07:45:11Z</time></trkpt><trkpt lat="41.17094157265977" lon="9.389543844155897"><ele>118.0</ele><time>2026-05-02T07:45:12Z</time></trkpt><trkpt lat="41.17086402250106" lon="9.389748165671028"><ele>118.0</ele><time>2026-05-02T07:45:13Z</time></trkpt><trkpt lat="41.17078909819724" lon="9.389930221816162"><ele>117.25</ele><time>2026-05-02T07:45:14Z</time></trkpt><trkpt lat="41.170716352787544" lon="9.390109472749359"><ele>116.5</ele><time>2026-05-02T07:45:15Z</time></trkpt><trkpt lat="41.170644501867514" lon="9.390257519363463"><ele>115.75</ele><time>2026-05-02T07:45:16Z</time></trkpt><trkpt lat="41.17056547631659" lon="9.39040236292406"><ele>115.0</ele><time>2026-05-02T07:45:17Z</time></trkpt><trkpt lat="41.17048947046349" lon="9.39053226438615"><ele>116.4</ele><time>2026-05-02T07:45:18Z</time></trkpt><trkpt lat="41.170409828334705" lon="9.390651958689372"><ele>117.8</ele><time>2026-05-02T07:45:19Z</time></trkpt><trkpt lat="41.1703372826954" lon="9.390747392545489"><ele>119.19999999999999</ele><time>2026-05-02T07:45:20Z</time></trkpt><trkpt lat="41.17026716976062" lon="9.390836488079003"><ele>120.6</ele><time>2026-05-02T07:45:21Z</time></trkpt><trkpt lat="41.170196621635434" lon="9.390927299441685"><ele>122.0</ele><time>2026-05-02T07:45:22Z</time></trkpt><trkpt lat="41.17012913683271" lon="9.391020894327145"><ele>122.0</ele><time>2026-05-02T07:45:23Z</time></trkpt><trkpt lat="41.17005774119766" lon="9.39111610656979"><ele>121.99999999999999</ele><time>2026-05-02T07:45:24Z</time></trkpt><trkpt lat="41.16998217827687" lon="9.391211320435637"><ele>121.99999999999999</ele><time>2026-05-02T07:45:25Z</time></trkpt><trkpt lat="41.16990728586175" lon="9.391307345143964"><ele>122.0</ele><time>2026-05-02T07:45:26Z</time></trkpt><trkpt lat="41.16983099648781" lon="9.391407833550746"><ele>122.0</ele><time>2026-05-02T07:45:27Z</time></trkpt><trkpt lat="41.16975076721367" lon="9.391512048551395"><ele>121.5</ele><time>2026-05-02T07:45:28Z</time></trkpt><trkpt lat="41.16966695979923" lon="9.391621575394925"><ele>121.0</ele><time>2026-05-02T07:45:29Z</time></trkpt><trkpt lat="41.1695861530638" lon="9.391726163012951"><ele>120.5</ele><time>2026-05-02T07:45:30Z</time></trkpt><trkpt lat="41.16950690296305" lon="9.39183000477298"><ele>120.0</ele><time>2026-05-02T07:45:31Z</time></trkpt><trkpt lat="41.16942347500688" lon="9.391936580088394"><ele>120.0</ele><time>2026-05-02T07:45:32Z</time></trkpt><trkpt lat="41.16933830362103" lon="9.392046002032949"><ele>120.0</ele><time>2026-05-02T07:45:33Z</time></trkpt><trkpt lat="41.16924847388961" lon="9.392159200640492"><ele>120.0</ele><time>2026-05-02T07:45:34Z</time></trkpt><trkpt lat="41.169155516453344" lon="9.392275087567546"><ele>120.0</ele><time>2026-05-02T07:45:35Z</time></trkpt><trkpt lat="41.16908540307164" lon="9.392388205654916"><ele>118.75</ele><time>2026-05-02T07:45:36Z</time></trkpt><trkpt lat="41.169037626603455" lon="9.3925205228406"><ele>117.5</ele><time>2026-05-02T07:45:37Z</time></trkpt><trkpt lat="41.16901137337739" lon="9.392683943900815"><ele>116.25</ele><time>2026-05-02T07:45:38Z</time></trkpt><trkpt lat="41.1689979446229" lon="9.392868674240859"><ele>115.0</ele><time>2026-05-02T07:45:39Z</time></trkpt><trkpt lat="41.1689916196444" lon="9.393054503190772"><ele>113.5</ele><time>2026-05-02T07:45:40Z</time></trkpt><trkpt lat="41.16898503200705" lon="9.39322979505293"><ele>112.0</ele><time>2026-05-02T07:45:41Z</time></trkpt><trkpt lat="41.16897366869394" lon="9.393406529566708"><ele>110.5</ele><time>2026-05-02T07:45:42Z</time></trkpt><trkpt lat="41.16896323123788" lon="9.393564589634943"><ele>109.0</ele><time>2026-05-02T07:45:42.998Z</time></trkpt><trkpt lat="41.16894687873098" lon="9.393721594734105"><ele>108.25</ele><time>2026-05-02T07:45:43.998Z</time></trkpt><trkpt lat="41.168923402791755" lon="9.393868855031403"><ele>107.5</ele><time>2026-05-02T07:45:44.998Z</time></trkpt><trkpt lat="41.16888439916373" lon="9.394010611357887"><ele>106.75</ele><time>2026-05-02T07:45:45.998Z</time></trkpt><trkpt lat="41.168835021772125" lon="9.394149850409121"><ele>106.0</ele><time>2026-05-02T07:45:46.998Z</time></trkpt><trkpt lat="41.16876856127582" lon="9.394293805483784"><ele>106.0</ele><time>2026-05-02T07:45:47.998Z</time></trkpt><trkpt lat="41.168692856386464" lon="9.39444331846918"><ele>106.0</ele><time>2026-05-02T07:45:48.998Z</time></trkpt><trkpt lat="41.16860936084074" lon="9.394605246592942"><ele>106.0</ele><time>2026-05-02T07:45:49.998Z</time></trkpt><trkpt lat="41.16852720303113" lon="9.394770281048094"><ele>106.0</ele><time>2026-05-02T07:45:50.998Z</time></trkpt><trkpt lat="41.16844067365911" lon="9.394942093761589"><ele>104.5</ele><time>2026-05-02T07:45:51.998Z</time></trkpt><trkpt lat="41.168356715778025" lon="9.395116748842465"><ele>103.0</ele><time>2026-05-02T07:45:52.998Z</time></trkpt><trkpt lat="41.16827680808472" lon="9.395277215931111"><ele>101.5</ele><time>2026-05-02T07:45:53.998Z</time></trkpt><trkpt lat="41.168196284124726" lon="9.395434250456066"><ele>100.0</ele><time>2026-05-02T07:45:54.998Z</time></trkpt><trkpt lat="41.16813098992536" lon="9.395582993295497"><ele>98.0</ele><time>2026-05-02T07:45:55.998Z</time></trkpt><trkpt lat="41.16808221771125" lon="9.395731254106424"><ele>96.0</ele><time>2026-05-02T07:45:56.998Z</time></trkpt><trkpt lat="41.16806745561416" lon="9.395885836276506"><ele>94.0</ele><time>2026-05-02T07:45:57.998Z</time></trkpt><trkpt lat="41.16808596985228" lon="9.396043460778225"><ele>92.0</ele><time>2026-05-02T07:45:58.998Z</time></trkpt><trkpt lat="41.168129461314855" lon="9.396215754304327"><ele>91.0</ele><time>2026-05-02T07:45:59.998Z</time></trkpt><trkpt lat="41.16818635536008" lon="9.396396030242903"><ele>90.0</ele><time>2026-05-02T07:46:00.999Z</time></trkpt><trkpt lat="41.16825233488442" lon="9.396595137318567"><ele>89.0</ele><time>2026-05-02T07:46:01.999Z</time></trkpt><trkpt lat="41.16832414756149" lon="9.396811556196157"><ele>89.0</ele><time>2026-05-02T07:46:02.999Z</time></trkpt><trkpt lat="41.168399298676206" lon="9.397044292554606"><ele>89.0</ele><time>2026-05-02T07:46:03.999Z</time></trkpt><trkpt lat="41.16847720085051" lon="9.397290816418632"><ele>89.0</ele><time>2026-05-02T07:46:04.999Z</time></trkpt><trkpt lat="41.16855838294801" lon="9.397541103935493"><ele>87.33333333333334</ele><time>2026-05-02T07:46:05.999Z</time></trkpt><trkpt lat="41.168641545070194" lon="9.397798478369978"><ele>85.66666666666667</ele><time>2026-05-02T07:46:06.999Z</time></trkpt><trkpt lat="41.16872554705927" lon="9.398055986687051"><ele>84.0</ele><time>2026-05-02T07:46:07.999Z</time></trkpt><trkpt lat="41.16880835190674" lon="9.398301797774455"><ele>83.0</ele><time>2026-05-02T07:46:08.999Z</time></trkpt><trkpt lat="41.16888829909066" lon="9.398541791353082"><ele>82.0</ele><time>2026-05-02T07:46:09.999Z</time></trkpt><trkpt lat="41.16896183715772" lon="9.398776132503354"><ele>81.0</ele><time>2026-05-02T07:46:10.999Z</time></trkpt><trkpt lat="41.169029006848504" lon="9.399012689080783"><ele>81.0</ele><time>2026-05-02T07:46:11.999Z</time></trkpt><trkpt lat="41.16908863977822" lon="9.399261662277778"><ele>81.0</ele><time>2026-05-02T07:46:12.999Z</time></trkpt><trkpt lat="41.16914154151315" lon="9.399530803841778"><ele>81.0</ele><time>2026-05-02T07:46:13.999Z</time></trkpt><trkpt lat="41.16919193044099" lon="9.39980330114658"><ele>79.66666666666667</ele><time>2026-05-02T07:46:14.999Z</time></trkpt><trkpt lat="41.16923837079749" lon="9.400066713480845"><ele>78.33333333333334</ele><time>2026-05-02T07:46:15.999Z</time></trkpt><trkpt lat="41.16928408439165" lon="9.400323982879835"><ele>77.0</ele><time>2026-05-02T07:46:16.999Z</time></trkpt><trkpt lat="41.1693301031011" lon="9.400581019987222"><ele>75.66666666666667</ele><time>2026-05-02T07:46:17.999Z</time></trkpt><trkpt lat="41.16937364880034" lon="9.400822881460696"><ele>74.33333333333333</ele><time>2026-05-02T07:46:18.999Z</time></trkpt><trkpt lat="41.169413790633016" lon="9.40104828903418"><ele>73.0</ele><time>2026-05-02T07:46:19.999Z</time></trkpt><trkpt lat="41.16944782742512" lon="9.401259877429567"><ele>72.0</ele><time>2026-05-02T07:46:20.999Z</time></trkpt><trkpt lat="41.169478228276745" lon="9.401449711493948"><ele>71.0</ele><time>2026-05-02T07:46:22Z</time></trkpt><trkpt lat="41.16950609944257" lon="9.401624430601192"><ele>70.0</ele><time>2026-05-02T07:46:23Z</time></trkpt><trkpt lat="41.16953081482995" lon="9.40177197296571"><ele>69.0</ele><time>2026-05-02T07:46:24Z</time></trkpt><trkpt lat="41.16955221727905" lon="9.401908806596396"><ele>69.0</ele><time>2026-05-02T07:46:25Z</time></trkpt><trkpt lat="41.16957061330277" lon="9.402027717051974"><ele>69.0</ele><time>2026-05-02T07:46:26Z</time></trkpt><trkpt lat="41.1695821830462" lon="9.402120140637406"><ele>69.0</ele><time>2026-05-02T07:46:27Z</time></trkpt><trkpt lat="41.16956873642122" lon="9.402222797239666"><ele>69.0</ele><time>2026-05-02T07:46:29Z</time></trkpt><trkpt lat="41.16951853164894" lon="9.40230776694996"><ele>69.0</ele><time>2026-05-02T07:46:32Z</time></trkpt><trkpt lat="41.16938251375505" lon="9.402287893345092"><ele>69.0</ele><time>2026-05-02T07:46:34Z</time></trkpt><trkpt lat="41.1693008475328" lon="9.402230420962395"><ele>69.0</ele><time>2026-05-02T07:46:35Z</time></trkpt><trkpt lat="41.16920727910921" lon="9.402153553381005"><ele>69.0</ele><time>2026-05-02T07:46:36Z</time></trkpt><trkpt lat="41.16910847492339" lon="9.402063672828982"><ele>69.0</ele><time>2026-05-02T07:46:37Z</time></trkpt><trkpt lat="41.16898795212178" lon="9.40196431679123"><ele>69.0</ele><time>2026-05-02T07:46:38Z</time></trkpt><trkpt lat="41.168857634206326" lon="9.401861046236226"><ele>69.0</ele><time>2026-05-02T07:46:39Z</time></trkpt><trkpt lat="41.16871667811258" lon="9.40177232144019"><ele>69.0</ele><time>2026-05-02T07:46:40Z</time></trkpt><trkpt lat="41.168567559122984" lon="9.401697348581587"><ele>69.0</ele><time>2026-05-02T07:46:41Z</time></trkpt><trkpt lat="41.16840769014174" lon="9.401624685219991"><ele>69.0</ele><time>2026-05-02T07:46:42Z</time></trkpt><trkpt lat="41.16825101093315" lon="9.401555152620086"><ele>69.0</ele><time>2026-05-02T07:46:43Z</time></trkpt><trkpt lat="41.16810094340269" lon="9.401489008242226"><ele>67.0</ele><time>2026-05-02T07:46:44Z</time></trkpt><trkpt lat="41.16795998055433" lon="9.401430655257785"><ele>65.0</ele><time>2026-05-02T07:46:45Z</time></trkpt><trkpt lat="41.16782531451812" lon="9.401377609891242"><ele>63.0</ele><time>2026-05-02T07:46:46Z</time></trkpt><trkpt lat="41.16770593436484" lon="9.40134899634395"><ele>61.0</ele><time>2026-05-02T07:46:47Z</time></trkpt><trkpt lat="41.16760010904527" lon="9.401356499703054"><ele>61.0</ele><time>2026-05-02T07:46:48Z</time></trkpt><trkpt lat="41.1675002637336" lon="9.401396845147396"><ele>60.99999999999999</ele><time>2026-05-02T07:46:49Z</time></trkpt><trkpt lat="41.16741833074653" lon="9.401478720001752"><ele>60.99999999999999</ele><time>2026-05-02T07:46:50Z</time></trkpt><trkpt lat="41.16735807708429" lon="9.401593044176131"><ele>61.0</ele><time>2026-05-02T07:46:51Z</time></trkpt><trkpt lat="41.16732036248686" lon="9.401734347687203"><ele>61.0</ele><time>2026-05-02T07:46:52Z</time></trkpt><trkpt lat="41.16728684070354" lon="9.401899535393142"><ele>57.5</ele><time>2026-05-02T07:46:53Z</time></trkpt><trkpt lat="41.167236377041526" lon="9.402067393535201"><ele>54.0</ele><time>2026-05-02T07:46:54Z</time></trkpt><trkpt lat="41.16716395260916" lon="9.402217922047567"><ele>50.5</ele><time>2026-05-02T07:46:55Z</time></trkpt><trkpt lat="41.167065774222806" lon="9.402365574477658"><ele>47.0</ele><time>2026-05-02T07:46:56Z</time></trkpt><trkpt lat="41.16695797583353" lon="9.402525444989832"><ele>46.33333333333333</ele><time>2026-05-02T07:46:57Z</time></trkpt><trkpt lat="41.166841228023706" lon="9.40269617064346"><ele>45.666666666666664</ele><time>2026-05-02T07:46:58Z</time></trkpt><trkpt lat="41.1667330760177" lon="9.402859704750782"><ele>45.0</ele><time>2026-05-02T07:46:59Z</time></trkpt><trkpt lat="41.16662496971899" lon="9.403002916379036"><ele>45.0</ele><time>2026-05-02T07:47:00Z</time></trkpt><trkpt lat="41.166502495537664" lon="9.403151840253544"><ele>45.0</ele><time>2026-05-02T07:47:01Z</time></trkpt><trkpt lat="41.16643453407791" lon="9.403192087653535"><ele>45.0</ele><time>2026-05-02T07:47:03Z</time></trkpt><trkpt lat="41.16632282338213" lon="9.403204989565381"><ele>45.0</ele><time>2026-05-02T07:47:04Z</time></trkpt><trkpt lat="41.166201157856825" lon="9.403168373803865"><ele>45.0</ele><time>2026-05-02T07:47:05Z</time></trkpt><trkpt lat="41.16608242259189" lon="9.403085246821574"><ele>45.0</ele><time>2026-05-02T07:47:06Z</time></trkpt><trkpt lat="41.16596445150386" lon="9.40297146114488"><ele>45.0</ele><time>2026-05-02T07:47:07.001Z</time></trkpt><trkpt lat="41.16583485368887" lon="9.402848579187442"><ele>45.0</ele><time>2026-05-02T07:47:08.001Z</time></trkpt><trkpt lat="41.165699985209244" lon="9.40272121706692"><ele>43.0</ele><time>2026-05-02T07:47:09.001Z</time></trkpt><trkpt lat="41.16557002678642" lon="9.402601251136486"><ele>41.0</ele><time>2026-05-02T07:47:10.001Z</time></trkpt><trkpt lat="41.165438076890666" lon="9.402500223598086"><ele>39.0</ele><time>2026-05-02T07:47:11.001Z</time></trkpt><trkpt lat="41.165299496594514" lon="9.402393947384828"><ele>39.0</ele><time>2026-05-02T07:47:12.001Z</time></trkpt><trkpt lat="41.16516835246695" lon="9.40227797853051"><ele>39.0</ele><time>2026-05-02T07:47:13.001Z</time></trkpt><trkpt lat="41.165053726806505" lon="9.40215392497638"><ele>39.0</ele><time>2026-05-02T07:47:14.001Z</time></trkpt><trkpt lat="41.16494921664572" lon="9.4020250963746"><ele>39.0</ele><time>2026-05-02T07:47:15.001Z</time></trkpt><trkpt lat="41.16485551061453" lon="9.401897482428655"><ele>36.2</ele><time>2026-05-02T07:47:16.001Z</time></trkpt><trkpt lat="41.16477341829871" lon="9.401781312632158"><ele>33.4</ele><time>2026-05-02T07:47:17.001Z</time></trkpt><trkpt lat="41.164681679305396" lon="9.401695309276613"><ele>30.6</ele><time>2026-05-02T07:47:18.001Z</time></trkpt><trkpt lat="41.16458783454431" lon="9.401652052033498"><ele>27.8</ele><time>2026-05-02T07:47:19.001Z</time></trkpt><trkpt lat="41.16448611268687" lon="9.401652365968223"><ele>25.0</ele><time>2026-05-02T07:47:20.001Z</time></trkpt><trkpt lat="41.16439421602287" lon="9.401687828305892"><ele>25.0</ele><time>2026-05-02T07:47:21.001Z</time></trkpt><trkpt lat="41.16430721838166" lon="9.401770846286546"><ele>25.0</ele><time>2026-05-02T07:47:22.001Z</time></trkpt><trkpt lat="41.16422952139031" lon="9.40187736078419"><ele>25.0</ele><time>2026-05-02T07:47:23.001Z</time></trkpt><trkpt lat="41.16414090404575" lon="9.401978440363026"><ele>25.0</ele><time>2026-05-02T07:47:24.001Z</time></trkpt><trkpt lat="41.16405256904236" lon="9.402078025949303"><ele>22.6</ele><time>2026-05-02T07:47:25.001Z</time></trkpt><trkpt lat="41.16396865785168" lon="9.402161802475833"><ele>20.2</ele><time>2026-05-02T07:47:26.001Z</time></trkpt><trkpt lat="41.16387237314511" lon="9.402205024877007"><ele>17.8</ele><time>2026-05-02T07:47:27.001Z</time></trkpt><trkpt lat="41.163792600842505" lon="9.402210190653417"><ele>15.4</ele><time>2026-05-02T07:47:28.001Z</time></trkpt><trkpt lat="41.1637095891729" lon="9.40218254034615"><ele>13.0</ele><time>2026-05-02T07:47:29.001Z</time></trkpt><trkpt lat="41.16363581321436" lon="9.402118747971702"><ele>13.0</ele><time>2026-05-02T07:47:30.001Z</time></trkpt><trkpt lat="41.16357322995462" lon="9.402028343741714"><ele>13.0</ele><time>2026-05-02T07:47:31.001Z</time></trkpt><trkpt lat="41.16350531112403" lon="9.401909978146687"><ele>13.0</ele><time>2026-05-02T07:47:32.001Z</time></trkpt><trkpt lat="41.16339670401294" lon="9.401715932277185"><ele>13.0</ele><time>2026-05-02T07:47:33.001Z</time></trkpt><trkpt lat="41.16328221943106" lon="9.401557596956586"><ele>12.333333333333332</ele><time>2026-05-02T07:47:34.001Z</time></trkpt><trkpt lat="41.16314497193616" lon="9.401416684712538"><ele>11.666666666666666</ele><time>2026-05-02T07:47:35.001Z</time></trkpt><trkpt lat="41.16299335286225" lon="9.401280244924578"><ele>11.0</ele><time>2026-05-02T07:47:36.001Z</time></trkpt><trkpt lat="41.16283876047438" lon="9.401161042337833"><ele>11.0</ele><time>2026-05-02T07:47:37.001Z</time></trkpt><trkpt lat="41.16267913451426" lon="9.401036666470954"><ele>11.0</ele><time>2026-05-02T07:47:38.001Z</time></trkpt><trkpt lat="41.16252524502246" lon="9.40091662614979"><ele>11.0</ele><time>2026-05-02T07:47:39.001Z</time></trkpt><trkpt lat="41.16237837360697" lon="9.400792263647627"><ele>11.0</ele><time>2026-05-02T07:47:40.001Z</time></trkpt><trkpt lat="41.16223808344573" lon="9.400669229269905"><ele>11.0</ele><time>2026-05-02T07:47:41.001Z</time></trkpt><trkpt lat="41.16209828385673" lon="9.4005447899558"><ele>11.0</ele><time>2026-05-02T07:47:42.001Z</time></trkpt><trkpt lat="41.16196423953172" lon="9.400420294982425"><ele>11.333333333333332</ele><time>2026-05-02T07:47:43.001Z</time></trkpt><trkpt lat="41.16182981254194" lon="9.400317657669367"><ele>11.666666666666666</ele><time>2026-05-02T07:47:44.001Z</time></trkpt><trkpt lat="41.16171495020913" lon="9.400182193619939"><ele>12.0</ele><time>2026-05-02T07:47:45.001Z</time></trkpt><trkpt lat="41.161584132806276" lon="9.40008238724339"><ele>11.666666666666666</ele><time>2026-05-02T07:47:46.001Z</time></trkpt><trkpt lat="41.161462607519" lon="9.39996061002246"><ele>11.333333333333332</ele><time>2026-05-02T07:47:47.001Z</time></trkpt><trkpt lat="41.16133262051721" lon="9.399832850309075"><ele>11.0</ele><time>2026-05-02T07:47:48.001Z</time></trkpt><trkpt lat="41.16119150923679" lon="9.399709586028592"><ele>11.75</ele><time>2026-05-02T07:47:49Z</time></trkpt><trkpt lat="41.16107316847565" lon="9.399570629363524"><ele>12.5</ele><time>2026-05-02T07:47:50Z</time></trkpt><trkpt lat="41.16095850271601" lon="9.399461838579503"><ele>13.25</ele><time>2026-05-02T07:47:51Z</time></trkpt><trkpt lat="41.16084709036927" lon="9.399347247701412"><ele>14.0</ele><time>2026-05-02T07:47:52Z</time></trkpt><trkpt lat="41.16073817067359" lon="9.39922892655943"><ele>12.333333333333334</ele><time>2026-05-02T07:47:53Z</time></trkpt><trkpt lat="41.16062510578797" lon="9.399101011411597"><ele>10.666666666666668</ele><time>2026-05-02T07:47:54Z</time></trkpt><trkpt lat="41.16051269318118" lon="9.39897383422294"><ele>9.0</ele><time>2026-05-02T07:47:55Z</time></trkpt><trkpt lat="41.16039587725644" lon="9.398841675391791"><ele>9.666666666666666</ele><time>2026-05-02T07:47:56Z</time></trkpt><trkpt lat="41.160277529416895" lon="9.398712302307908"><ele>10.333333333333332</ele><time>2026-05-02T07:47:57Z</time></trkpt><trkpt lat="41.1601483014282" lon="9.398599159230672"><ele>11.0</ele><time>2026-05-02T07:47:58Z</time></trkpt><trkpt lat="41.160036447441804" lon="9.398447381436524"><ele>11.0</ele><time>2026-05-02T07:47:59Z</time></trkpt><trkpt lat="41.15991525443713" lon="9.398311172971844"><ele>11.0</ele><time>2026-05-02T07:48:00Z</time></trkpt><trkpt lat="41.159787019656385" lon="9.39819061783368"><ele>11.0</ele><time>2026-05-02T07:48:01Z</time></trkpt><trkpt lat="41.15967603496452" lon="9.39805949044074"><ele>10.5</ele><time>2026-05-02T07:48:02Z</time></trkpt><trkpt lat="41.1595698605892" lon="9.39792970281821"><ele>10.0</ele><time>2026-05-02T07:48:03Z</time></trkpt><trkpt lat="41.15947198327635" lon="9.397808484697505"><ele>9.5</ele><time>2026-05-02T07:48:04Z</time></trkpt><trkpt lat="41.15937504448388" lon="9.39769753504754"><ele>9.0</ele><time>2026-05-02T07:48:05Z</time></trkpt><trkpt lat="41.15929164824755" lon="9.397590420815678"><ele>9.0</ele><time>2026-05-02T07:48:06Z</time></trkpt><trkpt lat="41.159212442617196" lon="9.39749241640694"><ele>9.0</ele><time>2026-05-02T07:48:07Z</time></trkpt><trkpt lat="41.15914736727378" lon="9.397403037219005"><ele>9.0</ele><time>2026-05-02T07:48:08Z</time></trkpt><trkpt lat="41.159102150917825" lon="9.397309905476146"><ele>9.0</ele><time>2026-05-02T07:48:09Z</time></trkpt><trkpt lat="41.15907530539089" lon="9.397198161375426"><ele>9.0</ele><time>2026-05-02T07:48:10Z</time></trkpt><trkpt lat="41.159041926683486" lon="9.397091774401144"><ele>10.8</ele><time>2026-05-02T07:48:11Z</time></trkpt><trkpt lat="41.158975391891076" lon="9.397018058673737"><ele>12.600000000000001</ele><time>2026-05-02T07:48:12Z</time></trkpt><trkpt lat="41.15889048833503" lon="9.39698576579875"><ele>14.4</ele><time>2026-05-02T07:48:13Z</time></trkpt><trkpt lat="41.15879457638198" lon="9.396964033604247"><ele>16.2</ele><time>2026-05-02T07:48:14Z</time></trkpt><trkpt lat="41.158695875616274" lon="9.396919360212776"><ele>18.0</ele><time>2026-05-02T07:48:15Z</time></trkpt><trkpt lat="41.15859859980932" lon="9.396834011395448"><ele>18.0</ele><time>2026-05-02T07:48:16Z</time></trkpt><trkpt lat="41.158509683008184" lon="9.396711826172844"><ele>18.0</ele><time>2026-05-02T07:48:17Z</time></trkpt><trkpt lat="41.15840351051255" lon="9.396596048239545"><ele>18.0</ele><time>2026-05-02T07:48:18Z</time></trkpt><trkpt lat="41.158294566605356" lon="9.396473010553082"><ele>18.0</ele><time>2026-05-02T07:48:19Z</time></trkpt><trkpt lat="41.15817419513535" lon="9.396331314744037"><ele>22.0</ele><time>2026-05-02T07:48:20Z</time></trkpt><trkpt lat="41.1580452502241" lon="9.396179637295521"><ele>26.0</ele><time>2026-05-02T07:48:21Z</time></trkpt><trkpt lat="41.157910451449325" lon="9.396021447871615"><ele>30.0</ele><time>2026-05-02T07:48:22Z</time></trkpt><trkpt lat="41.15777267643645" lon="9.395859765763296"><ele>30.0</ele><time>2026-05-02T07:48:23Z</time></trkpt><trkpt lat="41.157646387403105" lon="9.395709770819701"><ele>30.0</ele><time>2026-05-02T07:48:24Z</time></trkpt><trkpt lat="41.157530587134715" lon="9.395567083859362"><ele>30.0</ele><time>2026-05-02T07:48:25Z</time></trkpt><trkpt lat="41.1574151447714" lon="9.395427055407122"><ele>36.33333333333333</ele><time>2026-05-02T07:48:26Z</time></trkpt><trkpt lat="41.157290984468425" lon="9.39529359884042"><ele>42.666666666666664</ele><time>2026-05-02T07:48:27Z</time></trkpt><trkpt lat="41.157155139907246" lon="9.395164045213807"><ele>49.0</ele><time>2026-05-02T07:48:28Z</time></trkpt><trkpt lat="41.157009819619866" lon="9.395050522885475"><ele>49.0</ele><time>2026-05-02T07:48:29Z</time></trkpt><trkpt lat="41.15687320026155" lon="9.394957017292793"><ele>49.0</ele><time>2026-05-02T07:48:30.001Z</time></trkpt><trkpt lat="41.15674150358593" lon="9.3948700938077"><ele>49.0</ele><time>2026-05-02T07:48:31.001Z</time></trkpt><trkpt lat="41.156616087355424" lon="9.394790936376527"><ele>49.0</ele><time>2026-05-02T07:48:32.001Z</time></trkpt><trkpt lat="41.156491820424954" lon="9.394712426915884"><ele>50.0</ele><time>2026-05-02T07:48:33.001Z</time></trkpt><trkpt lat="41.1563659895686" lon="9.394632346349171"><ele>51.0</ele><time>2026-05-02T07:48:34.001Z</time></trkpt><trkpt lat="41.15624064263401" lon="9.394551210119703"><ele>52.0</ele><time>2026-05-02T07:48:35.001Z</time></trkpt><trkpt lat="41.15611445691752" lon="9.39446851801041"><ele>53.0</ele><time>2026-05-02T07:48:36.001Z</time></trkpt><trkpt lat="41.15600211136828" lon="9.394394895691287"><ele>53.0</ele><time>2026-05-02T07:48:37.001Z</time></trkpt><trkpt lat="41.15590342584472" lon="9.394331418966896"><ele>53.0</ele><time>2026-05-02T07:48:38.001Z</time></trkpt><trkpt lat="41.15580724780407" lon="9.394302878557966"><ele>53.0</ele><time>2026-05-02T07:48:39.001Z</time></trkpt><trkpt lat="41.155734262082454" lon="9.394264482851037"><ele>53.0</ele><time>2026-05-02T07:48:40.001Z</time></trkpt><trkpt lat="41.15563574397105" lon="9.394280337016077"><ele>53.0</ele><time>2026-05-02T07:48:41.001Z</time></trkpt><trkpt lat="41.15552435262053" lon="9.394315089902628"><ele>53.75</ele><time>2026-05-02T07:48:42.001Z</time></trkpt><trkpt lat="41.155403342391" lon="9.394351976524089"><ele>54.5</ele><time>2026-05-02T07:48:43.001Z</time></trkpt><trkpt lat="41.15528561580341" lon="9.394380635779394"><ele>55.25</ele><time>2026-05-02T07:48:44.001Z</time></trkpt><trkpt lat="41.1551739638166" lon="9.394373446866885"><ele>56.0</ele><time>2026-05-02T07:48:45.001Z</time></trkpt><trkpt lat="41.15506413212387" lon="9.394338779350328"><ele>56.0</ele><time>2026-05-02T07:48:46.001Z</time></trkpt><trkpt lat="41.15492907623613" lon="9.394284021125518"><ele>56.0</ele><time>2026-05-02T07:48:47.001Z</time></trkpt><trkpt lat="41.154786819441625" lon="9.394228135084745"><ele>56.0</ele><time>2026-05-02T07:48:48.001Z</time></trkpt><trkpt lat="41.15462775660813" lon="9.394176318438895"><ele>57.4</ele><time>2026-05-02T07:48:49.001Z</time></trkpt><trkpt lat="41.154480378430996" lon="9.394136821383867"><ele>58.8</ele><time>2026-05-02T07:48:50.001Z</time></trkpt><trkpt lat="41.15436499819101" lon="9.394097912997916"><ele>60.199999999999996</ele><time>2026-05-02T07:48:51.001Z</time></trkpt><trkpt lat="41.1542768217196" lon="9.394077807587177"><ele>61.599999999999994</ele><time>2026-05-02T07:48:52.001Z</time></trkpt><trkpt lat="41.154188107203886" lon="9.394079434031006"><ele>63.0</ele><time>2026-05-02T07:48:53.001Z</time></trkpt><trkpt lat="41.15408676147407" lon="9.394117492022152"><ele>63.75</ele><time>2026-05-02T07:48:54.001Z</time></trkpt><trkpt lat="41.15398577480788" lon="9.39419401972967"><ele>64.5</ele><time>2026-05-02T07:48:55.001Z</time></trkpt><trkpt lat="41.1538825147229" lon="9.394293516934267"><ele>65.25</ele><time>2026-05-02T07:48:56.001Z</time></trkpt><trkpt lat="41.15377802735205" lon="9.394363867194043"><ele>66.0</ele><time>2026-05-02T07:48:57.001Z</time></trkpt><trkpt lat="41.15366148929131" lon="9.394387201749014"><ele>66.0</ele><time>2026-05-02T07:48:58.001Z</time></trkpt><trkpt lat="41.15354151457035" lon="9.394400892521908"><ele>66.0</ele><time>2026-05-02T07:48:59.001Z</time></trkpt><trkpt lat="41.15343449025712" lon="9.394419720970793"><ele>66.0</ele><time>2026-05-02T07:49:00.001Z</time></trkpt><trkpt lat="41.1533221111182" lon="9.39447083569865"><ele>66.0</ele><time>2026-05-02T07:49:01.001Z</time></trkpt><trkpt lat="41.15320624994047" lon="9.394572007596778"><ele>66.8</ele><time>2026-05-02T07:49:02.001Z</time></trkpt><trkpt lat="41.15309974990233" lon="9.394685887903472"><ele>67.6</ele><time>2026-05-02T07:49:03.001Z</time></trkpt><trkpt lat="41.15301731796306" lon="9.394764834655007"><ele>68.4</ele><time>2026-05-02T07:49:04.001Z</time></trkpt><trkpt lat="41.152920407764434" lon="9.394819061268834"><ele>69.2</ele><time>2026-05-02T07:49:05.001Z</time></trkpt><trkpt lat="41.15283452721614" lon="9.394818545731786"><ele>70.0</ele><time>2026-05-02T07:49:06.001Z</time></trkpt><trkpt lat="41.15276118893135" lon="9.394755869691158"><ele>70.0</ele><time>2026-05-02T07:49:08.001Z</time></trkpt><trkpt lat="41.15268383313219" lon="9.394705287410067"><ele>70.0</ele><time>2026-05-02T07:49:09.001Z</time></trkpt><trkpt lat="41.15258271802596" lon="9.394658033228556"><ele>70.0</ele><time>2026-05-02T07:49:10.001Z</time></trkpt><trkpt lat="41.15246272216478" lon="9.394648848324824"><ele>70.0</ele><time>2026-05-02T07:49:11.001Z</time></trkpt><trkpt lat="41.15233976190148" lon="9.394641732763004"><ele>70.0</ele><time>2026-05-02T07:49:12.001Z</time></trkpt><trkpt lat="41.152207641435524" lon="9.394634851686837"><ele>70.0</ele><time>2026-05-02T07:49:13.001Z</time></trkpt><trkpt lat="41.152072531070054" lon="9.394644297679708"><ele>70.0</ele><time>2026-05-02T07:49:14.001Z</time></trkpt><trkpt lat="41.15194814049643" lon="9.394659675678867"><ele>70.0</ele><time>2026-05-02T07:49:15.001Z</time></trkpt><trkpt lat="41.15182501254444" lon="9.394651025578135"><ele>70.0</ele><time>2026-05-02T07:49:16.001Z</time></trkpt><trkpt lat="41.151702514981125" lon="9.394621753604987"><ele>70.0</ele><time>2026-05-02T07:49:17.001Z</time></trkpt><trkpt lat="41.15159045010112" lon="9.394595575317075"><ele>70.0</ele><time>2026-05-02T07:49:18.001Z</time></trkpt><trkpt lat="41.151468157548244" lon="9.39458180245119"><ele>70.0</ele><time>2026-05-02T07:49:19.001Z</time></trkpt><trkpt lat="41.15135348577356" lon="9.39458754645569"><ele>70.0</ele><time>2026-05-02T07:49:20.001Z</time></trkpt><trkpt lat="41.15124579872897" lon="9.394603535427352"><ele>71.2</ele><time>2026-05-02T07:49:21.001Z</time></trkpt><trkpt lat="41.15115532194926" lon="9.394614912968928"><ele>72.4</ele><time>2026-05-02T07:49:22.001Z</time></trkpt><trkpt lat="41.15107817589659" lon="9.39461193753611"><ele>73.6</ele><time>2026-05-02T07:49:23.002Z</time></trkpt><trkpt lat="41.15099254020971" lon="9.394586540535759"><ele>74.8</ele><time>2026-05-02T07:49:24.002Z</time></trkpt><trkpt lat="41.150902356791484" lon="9.394545651542852"><ele>76.0</ele><time>2026-05-02T07:49:25.002Z</time></trkpt><trkpt lat="41.15079826915306" lon="9.39449806980415"><ele>78.0</ele><time>2026-05-02T07:49:26.002Z</time></trkpt><trkpt lat="41.15069197381023" lon="9.394449692576343"><ele>80.0</ele><time>2026-05-02T07:49:27.002Z</time></trkpt><trkpt lat="41.15058242294831" lon="9.39440353230678"><ele>82.0</ele><time>2026-05-02T07:49:28.002Z</time></trkpt><trkpt lat="41.15046767130433" lon="9.394361874557818"><ele>84.0</ele><time>2026-05-02T07:49:29.002Z</time></trkpt><trkpt lat="41.15034355708608" lon="9.394333097665642"><ele>84.0</ele><time>2026-05-02T07:49:30.002Z</time></trkpt><trkpt lat="41.150203653652184" lon="9.394331581005604"><ele>84.0</ele><time>2026-05-02T07:49:31.002Z</time></trkpt><trkpt lat="41.15004913710458" lon="9.394352067286345"><ele>84.0</ele><time>2026-05-02T07:49:32.002Z</time></trkpt><trkpt lat="41.14988735836586" lon="9.394407999037226"><ele>85.33333333333333</ele><time>2026-05-02T07:49:33.002Z</time></trkpt><trkpt lat="41.14972110329976" lon="9.39446890747728"><ele>86.66666666666666</ele><time>2026-05-02T07:49:34.002Z</time></trkpt><trkpt lat="41.14954951630717" lon="9.394530180335284"><ele>88.0</ele><time>2026-05-02T07:49:35.002Z</time></trkpt><trkpt lat="41.14938463474719" lon="9.394589898698861"><ele>88.0</ele><time>2026-05-02T07:49:36.002Z</time></trkpt><trkpt lat="41.14923403169886" lon="9.394652774360251"><ele>88.0</ele><time>2026-05-02T07:49:37.002Z</time></trkpt><trkpt lat="41.14909602162793" lon="9.394723966345122"><ele>88.0</ele><time>2026-05-02T07:49:38.002Z</time></trkpt><trkpt lat="41.14896496497204" lon="9.394796351820382"><ele>88.0</ele><time>2026-05-02T07:49:39.002Z</time></trkpt><trkpt lat="41.14884026047126" lon="9.39486985728162"><ele>91.0</ele><time>2026-05-02T07:49:40.002Z</time></trkpt><trkpt lat="41.148724138213296" lon="9.394939835761889"><ele>94.0</ele><time>2026-05-02T07:49:41.002Z</time></trkpt><trkpt lat="41.14861522183728" lon="9.395005471989228"><ele>97.0</ele><time>2026-05-02T07:49:42.002Z</time></trkpt><trkpt lat="41.14852314793105" lon="9.39506140885608"><ele>100.0</ele><time>2026-05-02T07:49:43.002Z</time></trkpt><trkpt lat="41.14843539809673" lon="9.395117909394214"><ele>103.0</ele><time>2026-05-02T07:49:44.002Z</time></trkpt><trkpt lat="41.14834823287301" lon="9.395182807734058"><ele>103.0</ele><time>2026-05-02T07:49:45.002Z</time></trkpt><trkpt lat="41.14826175565832" lon="9.395254750783156"><ele>103.0</ele><time>2026-05-02T07:49:46.002Z</time></trkpt><trkpt lat="41.148176435417646" lon="9.395328796699625"><ele>103.0</ele><time>2026-05-02T07:49:47.002Z</time></trkpt><trkpt lat="41.14809366158871" lon="9.395403250785812"><ele>103.0</ele><time>2026-05-02T07:49:48.002Z</time></trkpt><trkpt lat="41.148000186872224" lon="9.395491543507747"><ele>103.0</ele><time>2026-05-02T07:49:49.002Z</time></trkpt><trkpt lat="41.14791380383578" lon="9.39559998927536"><ele>105.2</ele><time>2026-05-02T07:49:50.002Z</time></trkpt><trkpt lat="41.14781673337669" lon="9.395684637910406"><ele>107.4</ele><time>2026-05-02T07:49:51.002Z</time></trkpt><trkpt lat="41.14771771193454" lon="9.39574907055218"><ele>109.60000000000001</ele><time>2026-05-02T07:49:52.002Z</time></trkpt><trkpt lat="41.147628918056" lon="9.395828434633275"><ele>111.80000000000001</ele><time>2026-05-02T07:49:53.002Z</time></trkpt><trkpt lat="41.14754628642581" lon="9.39590356374613"><ele>114.0</ele><time>2026-05-02T07:49:54.002Z</time></trkpt><trkpt lat="41.147465068506165" lon="9.39597740751107"><ele>114.0</ele><time>2026-05-02T07:49:55.001Z</time></trkpt><trkpt lat="41.147391038117995" lon="9.396040876329382"><ele>114.0</ele><time>2026-05-02T07:49:56.001Z</time></trkpt><trkpt lat="41.147320593948756" lon="9.39609545690796"><ele>114.0</ele><time>2026-05-02T07:49:57.001Z</time></trkpt><trkpt lat="41.14724297235431" lon="9.396099837426476"><ele>114.0</ele><time>2026-05-02T07:49:58.001Z</time></trkpt><trkpt lat="41.147166704865676" lon="9.396045218944852"><ele>114.0</ele><time>2026-05-02T07:49:59.001Z</time></trkpt><trkpt lat="41.1470786471703" lon="9.396003049308828"><ele>114.0</ele><time>2026-05-02T07:50:00.001Z</time></trkpt><trkpt lat="41.14697608552976" lon="9.395953405078481"><ele>115.75</ele><time>2026-05-02T07:50:01.001Z</time></trkpt><trkpt lat="41.146858914975034" lon="9.395904535789748"><ele>117.5</ele><time>2026-05-02T07:50:02.001Z</time></trkpt><trkpt lat="41.14675883122363" lon="9.395861936844998"><ele>119.25</ele><time>2026-05-02T07:50:03.001Z</time></trkpt><trkpt lat="41.14664416765319" lon="9.395815099772202"><ele>121.0</ele><time>2026-05-02T07:50:04.001Z</time></trkpt><trkpt lat="41.14653574673832" lon="9.395771964167428"><ele>121.0</ele><time>2026-05-02T07:50:05.001Z</time></trkpt><trkpt lat="41.14643201181892" lon="9.395729187359652"><ele>121.0</ele><time>2026-05-02T07:50:06.001Z</time></trkpt><trkpt lat="41.14633120742216" lon="9.395692265543556"><ele>121.0</ele><time>2026-05-02T07:50:07.001Z</time></trkpt><trkpt lat="41.14624819659985" lon="9.395620835771712"><ele>121.0</ele><time>2026-05-02T07:50:08.001Z</time></trkpt><trkpt lat="41.1461790140619" lon="9.39552292378679"><ele>121.0</ele><time>2026-05-02T07:50:09.001Z</time></trkpt><trkpt lat="41.14612716642632" lon="9.39538420433364"><ele>122.33333333333334</ele><time>2026-05-02T07:50:10.001Z</time></trkpt><trkpt lat="41.14605761027512" lon="9.395219616431302"><ele>123.66666666666666</ele><time>2026-05-02T07:50:11.001Z</time></trkpt><trkpt lat="41.14597878942441" lon="9.395039461900456"><ele>125.0</ele><time>2026-05-02T07:50:12.001Z</time></trkpt><trkpt lat="41.14588519645463" lon="9.394867547157054"><ele>125.0</ele><time>2026-05-02T07:50:13.001Z</time></trkpt><trkpt lat="41.14581914969647" lon="9.394705326932815"><ele>125.0</ele><time>2026-05-02T07:50:14.001Z</time></trkpt><trkpt lat="41.14575494789075" lon="9.394554081759061"><ele>125.0</ele><time>2026-05-02T07:50:15.001Z</time></trkpt><trkpt lat="41.145692001721926" lon="9.39440450529735"><ele>125.0</ele><time>2026-05-02T07:50:16.001Z</time></trkpt><trkpt lat="41.145631734126326" lon="9.39426006655928"><ele>125.75</ele><time>2026-05-02T07:50:17.001Z</time></trkpt><trkpt lat="41.14556890327873" lon="9.394119387735271"><ele>126.5</ele><time>2026-05-02T07:50:18.001Z</time></trkpt><trkpt lat="41.14549666016947" lon="9.393980716610129"><ele>127.25</ele><time>2026-05-02T07:50:19.001Z</time></trkpt><trkpt lat="41.14541661201261" lon="9.393848744217555"><ele>128.0</ele><time>2026-05-02T07:50:20.001Z</time></trkpt><trkpt lat="41.14533376813182" lon="9.393727173826415"><ele>129.0</ele><time>2026-05-02T07:50:21.001Z</time></trkpt><trkpt lat="41.14525852063566" lon="9.39361290378298"><ele>130.0</ele><time>2026-05-02T07:50:22.001Z</time></trkpt><trkpt lat="41.14518946237303" lon="9.393510080067687"><ele>131.0</ele><time>2026-05-02T07:50:23.001Z</time></trkpt><trkpt lat="41.14512091288754" lon="9.393431198611616"><ele>132.0</ele><time>2026-05-02T07:50:24.001Z</time></trkpt><trkpt lat="41.145049183315685" lon="9.393381522045267"><ele>133.0</ele><time>2026-05-02T07:50:25.001Z</time></trkpt><trkpt lat="41.14497116688076" lon="9.393345229087547"><ele>133.0</ele><time>2026-05-02T07:50:26.001Z</time></trkpt><trkpt lat="41.144888128678346" lon="9.393308907219017"><ele>133.0</ele><time>2026-05-02T07:50:27.001Z</time></trkpt><trkpt lat="41.144801983060425" lon="9.393271244737406"><ele>133.0</ele><time>2026-05-02T07:50:28.001Z</time></trkpt><trkpt lat="41.14471738035274" lon="9.393236902871474"><ele>133.0</ele><time>2026-05-02T07:50:29.001Z</time></trkpt><trkpt lat="41.14464173844847" lon="9.393205665873424"><ele>133.0</ele><time>2026-05-02T07:50:30.001Z</time></trkpt><trkpt lat="41.144568609234206" lon="9.393177129020726"><ele>133.0</ele><time>2026-05-02T07:50:31.001Z</time></trkpt><trkpt lat="41.14450101158611" lon="9.39314654362838"><ele>133.16666666666669</ele><time>2026-05-02T07:50:32.001Z</time></trkpt><trkpt lat="41.14443497275815" lon="9.393109383287127"><ele>133.33333333333334</ele><time>2026-05-02T07:50:33.001Z</time></trkpt><trkpt lat="41.14436788202058" lon="9.39304442600842"><ele>133.5</ele><time>2026-05-02T07:50:34.001Z</time></trkpt><trkpt lat="41.1443013926887" lon="9.392965330429444"><ele>133.66666666666666</ele><time>2026-05-02T07:50:35.001Z</time></trkpt><trkpt lat="41.144239533533025" lon="9.39287392629574"><ele>133.83333333333331</ele><time>2026-05-02T07:50:36.001Z</time></trkpt><trkpt lat="41.14417361631394" lon="9.392770484869905"><ele>134.0</ele><time>2026-05-02T07:50:37.001Z</time></trkpt><trkpt lat="41.14410913838346" lon="9.392665591378252"><ele>134.0</ele><time>2026-05-02T07:50:38.001Z</time></trkpt><trkpt lat="41.14404966529384" lon="9.392559984104155"><ele>134.0</ele><time>2026-05-02T07:50:39.001Z</time></trkpt><trkpt lat="41.14399806350359" lon="9.392449963834695"><ele>134.0</ele><time>2026-05-02T07:50:40.001Z</time></trkpt><trkpt lat="41.14395041468714" lon="9.392348664542949"><ele>134.0</ele><time>2026-05-02T07:50:41.001Z</time></trkpt><trkpt lat="41.143907783317125" lon="9.392255032644576"><ele>134.0</ele><time>2026-05-02T07:50:42.001Z</time></trkpt><trkpt lat="41.14385986494677" lon="9.392182047324436"><ele>134.0</ele><time>2026-05-02T07:50:43.001Z</time></trkpt><trkpt lat="41.143803628689525" lon="9.392126893019386"><ele>133.83333333333331</ele><time>2026-05-02T07:50:44.001Z</time></trkpt><trkpt lat="41.143739528610965" lon="9.392079933891877"><ele>133.66666666666666</ele><time>2026-05-02T07:50:45.001Z</time></trkpt><trkpt lat="41.1436667500425" lon="9.392066076458386"><ele>133.5</ele><time>2026-05-02T07:50:46.001Z</time></trkpt><trkpt lat="41.143601047863555" lon="9.39208241523581"><ele>133.33333333333334</ele><time>2026-05-02T07:50:47.001Z</time></trkpt><trkpt lat="41.14353989292096" lon="9.392133645515003"><ele>133.16666666666669</ele><time>2026-05-02T07:50:48.001Z</time></trkpt><trkpt lat="41.143483264195346" lon="9.392220962731633"><ele>133.0</ele><time>2026-05-02T07:50:49.001Z</time></trkpt><trkpt lat="41.14341510152383" lon="9.392330667417648"><ele>133.0</ele><time>2026-05-02T07:50:50.001Z</time></trkpt><trkpt lat="41.14334939756514" lon="9.392446708301094"><ele>133.0</ele><time>2026-05-02T07:50:51.001Z</time></trkpt><trkpt lat="41.14327777095444" lon="9.392576647731884"><ele>133.0</ele><time>2026-05-02T07:50:52.001Z</time></trkpt><trkpt lat="41.14321413974127" lon="9.39269423850481"><ele>133.0</ele><time>2026-05-02T07:50:53.001Z</time></trkpt><trkpt lat="41.14315231353931" lon="9.392804100173796"><ele>133.0</ele><time>2026-05-02T07:50:54.001Z</time></trkpt><trkpt lat="41.143089583893826" lon="9.39291126299265"><ele>132.16666666666669</ele><time>2026-05-02T07:50:55.001Z</time></trkpt><trkpt lat="41.143034920596946" lon="9.393011673050863"><ele>131.33333333333334</ele><time>2026-05-02T07:50:56.001Z</time></trkpt><trkpt lat="41.14298521961018" lon="9.393105525128403"><ele>130.5</ele><time>2026-05-02T07:50:57.001Z</time></trkpt><trkpt lat="41.14293172933059" lon="9.393191295142136"><ele>129.66666666666666</ele><time>2026-05-02T07:50:58.001Z</time></trkpt><trkpt lat="41.14287614430861" lon="9.393270324425844"><ele>128.83333333333331</ele><time>2026-05-02T07:50:59.001Z</time></trkpt><trkpt lat="41.14281209538898" lon="9.393326414257674"><ele>128.0</ele><time>2026-05-02T07:51:00.001Z</time></trkpt><trkpt lat="41.142743954967735" lon="9.393365941325783"><ele>127.99999999999999</ele><time>2026-05-02T07:51:01.001Z</time></trkpt><trkpt lat="41.14267500936498" lon="9.39339549235271"><ele>128.0</ele><time>2026-05-02T07:51:02.001Z</time></trkpt><trkpt lat="41.142609109501116" lon="9.393417399186688"><ele>128.0</ele><time>2026-05-02T07:51:03.001Z</time></trkpt><trkpt lat="41.14249187426626" lon="9.393436787354807"><ele>128.0</ele><time>2026-05-02T07:51:05.001Z</time></trkpt><trkpt lat="41.14237890382933" lon="9.393454779446342"><ele>127.99999999999999</ele><time>2026-05-02T07:51:07.001Z</time></trkpt><trkpt lat="41.142315900653976" lon="9.393468004369728"><ele>128.0</ele><time>2026-05-02T07:51:08.002Z</time></trkpt><trkpt lat="41.14225277900237" lon="9.393481570649884"><ele>128.42857142857142</ele><time>2026-05-02T07:51:09.002Z</time></trkpt><trkpt lat="41.1421898014949" lon="9.393495884212415"><ele>128.85714285714283</ele><time>2026-05-02T07:51:10.002Z</time></trkpt><trkpt lat="41.142117064861885" lon="9.393517703579597"><ele>129.28571428571428</ele><time>2026-05-02T07:51:11.002Z</time></trkpt><trkpt lat="41.14205260249734" lon="9.393528777869951"><ele>129.71428571428572</ele><time>2026-05-02T07:51:12.002Z</time></trkpt><trkpt lat="41.141978423033066" lon="9.393538118650417"><ele>130.14285714285717</ele><time>2026-05-02T07:51:13.002Z</time></trkpt><trkpt lat="41.14190619930258" lon="9.393548135325679"><ele>130.57142857142858</ele><time>2026-05-02T07:51:14.002Z</time></trkpt><trkpt lat="41.14183661555236" lon="9.393555224850386"><ele>131.0</ele><time>2026-05-02T07:51:15.002Z</time></trkpt><trkpt lat="41.14172045486349" lon="9.393592179322601"><ele>131.0</ele><time>2026-05-02T07:51:17.002Z</time></trkpt><trkpt lat="41.14163530811285" lon="9.39369877793973"><ele>131.0</ele><time>2026-05-02T07:51:19.002Z</time></trkpt><trkpt lat="41.14158263679904" lon="9.393785307105222"><ele>131.0</ele><time>2026-05-02T07:51:21.002Z</time></trkpt><trkpt lat="41.14151798234528" lon="9.39388461760969"><ele>131.0</ele><time>2026-05-02T07:51:23.002Z</time></trkpt><trkpt lat="41.14146324486342" lon="9.393960586359496"><ele>131.0</ele><time>2026-05-02T07:51:46.002Z</time></trkpt><trkpt lat="41.141406214314706" lon="9.394049464996714"><ele>133.2</ele><time>2026-05-02T07:51:48.002Z</time></trkpt><trkpt lat="41.14132257764913" lon="9.39418784245656"><ele>135.39999999999998</ele><time>2026-05-02T07:51:50.002Z</time></trkpt><trkpt lat="41.14126738325895" lon="9.394278775784699"><ele>137.6</ele><time>2026-05-02T07:51:51.002Z</time></trkpt><trkpt lat="41.141222393926626" lon="9.394351638479995"><ele>139.79999999999998</ele><time>2026-05-02T07:51:52.002Z</time></trkpt><trkpt lat="41.14115124788418" lon="9.394473563675867"><ele>142.0</ele><time>2026-05-02T07:51:54.002Z</time></trkpt><trkpt lat="41.14109820837937" lon="9.394615687941286"><ele>142.5</ele><time>2026-05-02T07:51:56.002Z</time></trkpt><trkpt lat="41.14109332208182" lon="9.394777578816827"><ele>143.0</ele><time>2026-05-02T07:51:58.002Z</time></trkpt><trkpt lat="41.141093077649025" lon="9.394862864479691"><ele>143.5</ele><time>2026-05-02T07:51:59.002Z</time></trkpt><trkpt lat="41.14108792141266" lon="9.394950401989378"><ele>144.0</ele><time>2026-05-02T07:52:00.002Z</time></trkpt><trkpt lat="41.14109398241497" lon="9.395101101847171"><ele>144.5</ele><time>2026-05-02T07:52:02.001Z</time></trkpt><trkpt lat="41.1410972631262" lon="9.39519864534197"><ele>145.0</ele><time>2026-05-02T07:52:04.001Z</time></trkpt><trkpt lat="41.14113728709303" lon="9.395264197165016"><ele>145.0</ele><time>2026-05-02T07:52:07.001Z</time></trkpt><trkpt lat="41.14114029921541" lon="9.395176179046791"><ele>145.0</ele><time>2026-05-02T07:53:29.001Z</time></trkpt><trkpt lat="41.141109964157685" lon="9.395088480651134"><ele>145.0</ele><time>2026-05-02T07:53:31.002Z</time></trkpt><trkpt lat="41.14110147077901" lon="9.39499911741055"><ele>145.0</ele><time>2026-05-02T07:53:32.002Z</time></trkpt><trkpt lat="41.14108774876281" lon="9.39483290532457"><ele>145.0</ele><time>2026-05-02T07:53:33.002Z</time></trkpt><trkpt lat="41.141084502250635" lon="9.394732758602295"><ele>145.0</ele><time>2026-05-02T07:53:34.002Z</time></trkpt><trkpt lat="41.141089451088995" lon="9.39464049622091"><ele>144.4</ele><time>2026-05-02T07:53:35.002Z</time></trkpt><trkpt lat="41.14111566932423" lon="9.394542953404528"><ele>143.8</ele><time>2026-05-02T07:53:36.002Z</time></trkpt><trkpt lat="41.14117427345478" lon="9.394435592071616"><ele>143.2</ele><time>2026-05-02T07:53:37.002Z</time></trkpt><trkpt lat="41.14123742577296" lon="9.394327131301514"><ele>142.6</ele><time>2026-05-02T07:53:38.002Z</time></trkpt><trkpt lat="41.14130615910078" lon="9.394219180479183"><ele>142.0</ele><time>2026-05-02T07:53:39.002Z</time></trkpt><trkpt lat="41.141372848459554" lon="9.39411732312904"><ele>142.0</ele><time>2026-05-02T07:53:40.002Z</time></trkpt><trkpt lat="41.141438210335814" lon="9.394023828078616"><ele>142.0</ele><time>2026-05-02T07:53:41.002Z</time></trkpt><trkpt lat="41.14149050828668" lon="9.393949908738406"><ele>142.0</ele><time>2026-05-02T07:53:42.002Z</time></trkpt><trkpt lat="41.14153428839566" lon="9.393844877859728"><ele>142.0</ele><time>2026-05-02T07:53:44.002Z</time></trkpt><trkpt lat="41.14148341821336" lon="9.393720342355657"><ele>142.0</ele><time>2026-05-02T07:53:46.002Z</time></trkpt><trkpt lat="41.141434492954815" lon="9.393635948017087"><ele>141.4</ele><time>2026-05-02T07:53:47.002Z</time></trkpt><trkpt lat="41.141372846521755" lon="9.393547830046597"><ele>140.79999999999998</ele><time>2026-05-02T07:53:48.002Z</time></trkpt><trkpt lat="41.141292943180694" lon="9.393454716826923"><ele>140.2</ele><time>2026-05-02T07:53:49.002Z</time></trkpt><trkpt lat="41.14119572675857" lon="9.393368729997341"><ele>139.6</ele><time>2026-05-02T07:53:50.002Z</time></trkpt><trkpt lat="41.14108376014369" lon="9.393293130878897"><ele>139.0</ele><time>2026-05-02T07:53:51.002Z</time></trkpt><trkpt lat="41.14096359517784" lon="9.39322480842049"><ele>139.0</ele><time>2026-05-02T07:53:52.002Z</time></trkpt><trkpt lat="41.140829008880566" lon="9.393151404114931"><ele>139.0</ele><time>2026-05-02T07:53:53.002Z</time></trkpt><trkpt lat="41.14069452610103" lon="9.393076011265679"><ele>139.0</ele><time>2026-05-02T07:53:54.002Z</time></trkpt><trkpt lat="41.14054576012833" lon="9.392990118306395"><ele>138.33333333333334</ele><time>2026-05-02T07:53:55.002Z</time></trkpt><trkpt lat="41.14039918626256" lon="9.392906577759332"><ele>137.66666666666666</ele><time>2026-05-02T07:53:56.002Z</time></trkpt><trkpt lat="41.14023820161451" lon="9.392816858521172"><ele>137.0</ele><time>2026-05-02T07:53:57.002Z</time></trkpt><trkpt lat="41.14005780774278" lon="9.39271679552334"><ele>137.0</ele><time>2026-05-02T07:53:58.002Z</time></trkpt><trkpt lat="41.13988552731751" lon="9.3926177055375"><ele>137.0</ele><time>2026-05-02T07:53:59.002Z</time></trkpt><trkpt lat="41.139720270249825" lon="9.392522542474763"><ele>137.0</ele><time>2026-05-02T07:54:00.002Z</time></trkpt><trkpt lat="41.13956139824362" lon="9.392431719868664"><ele>135.66666666666666</ele><time>2026-05-02T07:54:01.002Z</time></trkpt><trkpt lat="41.139409492286966" lon="9.392338973091121"><ele>134.33333333333334</ele><time>2026-05-02T07:54:02.002Z</time></trkpt><trkpt lat="41.13926007221563" lon="9.392248718148473"><ele>133.0</ele><time>2026-05-02T07:54:03.002Z</time></trkpt><trkpt lat="41.13911542173173" lon="9.392165620594549"><ele>131.0</ele><time>2026-05-02T07:54:04.002Z</time></trkpt><trkpt lat="41.13897872773036" lon="9.392084596514854"><ele>129.0</ele><time>2026-05-02T07:54:05.002Z</time></trkpt><trkpt lat="41.13885163189922" lon="9.39200705109723"><ele>127.0</ele><time>2026-05-02T07:54:06.002Z</time></trkpt><trkpt lat="41.138743500424056" lon="9.391918811577652"><ele>125.0</ele><time>2026-05-02T07:54:06.999Z</time></trkpt><trkpt lat="41.13865233242539" lon="9.391821911482792"><ele>125.0</ele><time>2026-05-02T07:54:07.999Z</time></trkpt><trkpt lat="41.138590972324494" lon="9.391713288687795"><ele>125.0</ele><time>2026-05-02T07:54:08.999Z</time></trkpt><trkpt lat="41.13855034315436" lon="9.39158754847621"><ele>125.0</ele><time>2026-05-02T07:54:09.999Z</time></trkpt><trkpt lat="41.13852050936682" lon="9.391440464353332"><ele>125.0</ele><time>2026-05-02T07:54:10.999Z</time></trkpt><trkpt lat="41.138498679316434" lon="9.391262696140334"><ele>124.0</ele><time>2026-05-02T07:54:11.999Z</time></trkpt><trkpt lat="41.13847528994639" lon="9.39106397926454"><ele>123.0</ele><time>2026-05-02T07:54:12.999Z</time></trkpt><trkpt lat="41.13844834520572" lon="9.390864648130648"><ele>122.0</ele><time>2026-05-02T07:54:13.999Z</time></trkpt><trkpt lat="41.13842241997364" lon="9.39067353057211"><ele>121.25</ele><time>2026-05-02T07:54:14.999Z</time></trkpt><trkpt lat="41.138400793304925" lon="9.39050442178748"><ele>120.5</ele><time>2026-05-02T07:54:15.999Z</time></trkpt><trkpt lat="41.138390898352114" lon="9.390357835234814"><ele>119.75</ele><time>2026-05-02T07:54:16.999Z</time></trkpt><trkpt lat="41.1384051209509" lon="9.390215698319853"><ele>119.0</ele><time>2026-05-02T07:54:17.999Z</time></trkpt><trkpt lat="41.1384491403979" lon="9.390072850808092"><ele>119.0</ele><time>2026-05-02T07:54:19Z</time></trkpt><trkpt lat="41.13851650746918" lon="9.389920871327718"><ele>119.0</ele><time>2026-05-02T07:54:20Z</time></trkpt><trkpt lat="41.13859671773784" lon="9.389757843221114"><ele>119.0</ele><time>2026-05-02T07:54:21Z</time></trkpt><trkpt lat="41.138669570536486" lon="9.389617712908956"><ele>119.0</ele><time>2026-05-02T07:54:22Z</time></trkpt><trkpt lat="41.138738303253746" lon="9.389497636276534"><ele>118.6</ele><time>2026-05-02T07:54:23Z</time></trkpt><trkpt lat="41.138809589041145" lon="9.389376015475433"><ele>118.2</ele><time>2026-05-02T07:54:24Z</time></trkpt><trkpt lat="41.13886478952784" lon="9.389268958592915"><ele>117.79999999999998</ele><time>2026-05-02T07:54:25Z</time></trkpt><trkpt lat="41.13890655250698" lon="9.389165068367841"><ele>117.39999999999999</ele><time>2026-05-02T07:54:26Z</time></trkpt><trkpt lat="41.13892398549172" lon="9.38906234242026"><ele>117.0</ele><time>2026-05-02T07:54:27Z</time></trkpt><trkpt lat="41.13892169251043" lon="9.388956292376934"><ele>117.0</ele><time>2026-05-02T07:54:28Z</time></trkpt><trkpt lat="41.13888822207034" lon="9.388844179606895"><ele>117.0</ele><time>2026-05-02T07:54:29Z</time></trkpt><trkpt lat="41.13882120397782" lon="9.3887145343415"><ele>117.0</ele><time>2026-05-02T07:54:30Z</time></trkpt><trkpt lat="41.138739082657914" lon="9.38856034969809"><ele>117.0</ele><time>2026-05-02T07:54:31Z</time></trkpt><trkpt lat="41.138649332744656" lon="9.38838866581733"><ele>116.66666666666666</ele><time>2026-05-02T07:54:32Z</time></trkpt><trkpt lat="41.13854726555664" lon="9.388209621260623"><ele>116.33333333333333</ele><time>2026-05-02T07:54:33Z</time></trkpt><trkpt lat="41.13844615237904" lon="9.388049187811074"><ele>116.0</ele><time>2026-05-02T07:54:34Z</time></trkpt><trkpt lat="41.138356400586844" lon="9.387901034587319"><ele>116.0</ele><time>2026-05-02T07:54:35Z</time></trkpt><trkpt lat="41.13828672894148" lon="9.387781619406214"><ele>116.0</ele><time>2026-05-02T07:54:36Z</time></trkpt><trkpt lat="41.138233622831876" lon="9.387670889256942"><ele>116.0</ele><time>2026-05-02T07:54:37Z</time></trkpt><trkpt lat="41.13819698459511" lon="9.387548242069649"><ele>116.0</ele><time>2026-05-02T07:54:38Z</time></trkpt><trkpt lat="41.138173429351305" lon="9.38739715053074"><ele>116.0</ele><time>2026-05-02T07:54:39Z</time></trkpt><trkpt lat="41.138156603613965" lon="9.387219478415426"><ele>115.0</ele><time>2026-05-02T07:54:40Z</time></trkpt><trkpt lat="41.13812932231118" lon="9.387030521271301"><ele>114.0</ele><time>2026-05-02T07:54:41Z</time></trkpt><trkpt lat="41.13810127730633" lon="9.386842120320601"><ele>113.0</ele><time>2026-05-02T07:54:42Z</time></trkpt><trkpt lat="41.13807336267329" lon="9.386655136131791"><ele>112.0</ele><time>2026-05-02T07:54:43Z</time></trkpt><trkpt lat="41.138050117807275" lon="9.386482651529738"><ele>112.25</ele><time>2026-05-02T07:54:44Z</time></trkpt><trkpt lat="41.13802228774458" lon="9.386323434805666"><ele>112.5</ele><time>2026-05-02T07:54:45Z</time></trkpt><trkpt lat="41.13798766069875" lon="9.386178362297708"><ele>112.75</ele><time>2026-05-02T07:54:46Z</time></trkpt><trkpt lat="41.137941147395914" lon="9.38603686599722"><ele>113.0</ele><time>2026-05-02T07:54:47Z</time></trkpt><trkpt lat="41.137879629910735" lon="9.385911190329182"><ele>113.0</ele><time>2026-05-02T07:54:48Z</time></trkpt><trkpt lat="41.13780663845736" lon="9.385799629649286"><ele>113.00000000000001</ele><time>2026-05-02T07:54:49Z</time></trkpt><trkpt lat="41.137726405811925" lon="9.385706596456792"><ele>113.00000000000001</ele><time>2026-05-02T07:54:50Z</time></trkpt><trkpt lat="41.13763412010903" lon="9.385639296920193"><ele>113.0</ele><time>2026-05-02T07:54:51Z</time></trkpt><trkpt lat="41.13752061480827" lon="9.385595283091904"><ele>113.0</ele><time>2026-05-02T07:54:52Z</time></trkpt><trkpt lat="41.137391235888764" lon="9.385557336575497"><ele>112.2</ele><time>2026-05-02T07:54:53Z</time></trkpt><trkpt lat="41.13728928533442" lon="9.385509005490272"><ele>111.4</ele><time>2026-05-02T07:54:54Z</time></trkpt><trkpt lat="41.137214109772415" lon="9.38544970079086"><ele>110.60000000000001</ele><time>2026-05-02T07:54:55Z</time></trkpt><trkpt lat="41.13716191077962" lon="9.385364377544182"><ele>109.80000000000001</ele><time>2026-05-02T07:54:56Z</time></trkpt><trkpt lat="41.137129153599865" lon="9.385245040379573"><ele>109.0</ele><time>2026-05-02T07:54:57Z</time></trkpt><trkpt lat="41.13711057872288" lon="9.385100299339637"><ele>109.0</ele><time>2026-05-02T07:54:58Z</time></trkpt><trkpt lat="41.13709258540019" lon="9.38495374903347"><ele>109.0</ele><time>2026-05-02T07:54:59Z</time></trkpt><trkpt lat="41.13706064543482" lon="9.384818054055318"><ele>109.0</ele><time>2026-05-02T07:55:00Z</time></trkpt><trkpt lat="41.137021847179206" lon="9.384690691952189"><ele>109.0</ele><time>2026-05-02T07:55:01Z</time></trkpt><trkpt lat="41.136980816573264" lon="9.38457851327954"><ele>109.0</ele><time>2026-05-02T07:55:02Z</time></trkpt><trkpt lat="41.13692922528857" lon="9.384468838465118"><ele>109.4</ele><time>2026-05-02T07:55:03Z</time></trkpt><trkpt lat="41.136856592280914" lon="9.384364798994325"><ele>109.80000000000001</ele><time>2026-05-02T07:55:04Z</time></trkpt><trkpt lat="41.13677940798501" lon="9.384273696972869"><ele>110.19999999999999</ele><time>2026-05-02T07:55:05Z</time></trkpt><trkpt lat="41.136703661937794" lon="9.384182541413105"><ele>110.6</ele><time>2026-05-02T07:55:06Z</time></trkpt><trkpt lat="41.13663512874186" lon="9.384061670902062"><ele>111.0</ele><time>2026-05-02T07:55:07Z</time></trkpt><trkpt lat="41.13657294175332" lon="9.38390908122998"><ele>110.4</ele><time>2026-05-02T07:55:08Z</time></trkpt><trkpt lat="41.13651761806169" lon="9.383753820775052"><ele>109.8</ele><time>2026-05-02T07:55:09Z</time></trkpt><trkpt lat="41.13646439693821" lon="9.383620601995549"><ele>109.20000000000002</ele><time>2026-05-02T07:55:10Z</time></trkpt><trkpt lat="41.13639980399401" lon="9.383512319819864"><ele>108.60000000000001</ele><time>2026-05-02T07:55:11.001Z</time></trkpt><trkpt lat="41.13632264366295" lon="9.38342327250337"><ele>108.0</ele><time>2026-05-02T07:55:12.001Z</time></trkpt><trkpt lat="41.13622554771375" lon="9.383344462086065"><ele>108.0</ele><time>2026-05-02T07:55:13.001Z</time></trkpt><trkpt lat="41.13611225260269" lon="9.38326266491042"><ele>108.0</ele><time>2026-05-02T07:55:14.001Z</time></trkpt><trkpt lat="41.135999181168636" lon="9.383181483942037"><ele>108.0</ele><time>2026-05-02T07:55:15.001Z</time></trkpt><trkpt lat="41.13587959481757" lon="9.38309435025928"><ele>108.0</ele><time>2026-05-02T07:55:16.001Z</time></trkpt><trkpt lat="41.135763162075776" lon="9.383006680568203"><ele>106.75</ele><time>2026-05-02T07:55:17.001Z</time></trkpt><trkpt lat="41.13564982923844" lon="9.382917165701937"><ele>105.5</ele><time>2026-05-02T07:55:18.001Z</time></trkpt><trkpt lat="41.13553553130425" lon="9.382836068871184"><ele>104.25</ele><time>2026-05-02T07:55:19.001Z</time></trkpt><trkpt lat="41.13541906670766" lon="9.38276253818118"><ele>103.0</ele><time>2026-05-02T07:55:20.001Z</time></trkpt><trkpt lat="41.13529727498061" lon="9.382691504391014"><ele>103.0</ele><time>2026-05-02T07:55:21.001Z</time></trkpt><trkpt lat="41.135150192896354" lon="9.38262662820315"><ele>103.0</ele><time>2026-05-02T07:55:22.001Z</time></trkpt><trkpt lat="41.134992144820345" lon="9.382559442221455"><ele>103.0</ele><time>2026-05-02T07:55:23.001Z</time></trkpt><trkpt lat="41.13483928044009" lon="9.382482779545327"><ele>102.5</ele><time>2026-05-02T07:55:24.001Z</time></trkpt><trkpt lat="41.134710532767485" lon="9.382409406493089"><ele>102.0</ele><time>2026-05-02T07:55:25.001Z</time></trkpt><trkpt lat="41.13458637741014" lon="9.382333473470077"><ele>101.5</ele><time>2026-05-02T07:55:26.001Z</time></trkpt><trkpt lat="41.134453803598596" lon="9.382247113206201"><ele>101.0</ele><time>2026-05-02T07:55:27.001Z</time></trkpt><trkpt lat="41.134315579651506" lon="9.382156710348275"><ele>101.0</ele><time>2026-05-02T07:55:28.001Z</time></trkpt><trkpt lat="41.13417566510316" lon="9.38206918006102"><ele>101.0</ele><time>2026-05-02T07:55:29.001Z</time></trkpt><trkpt lat="41.13403111998067" lon="9.381990572196713"><ele>101.0</ele><time>2026-05-02T07:55:30.001Z</time></trkpt><trkpt lat="41.13388239073277" lon="9.381921272939282"><ele>101.0</ele><time>2026-05-02T07:55:31.001Z</time></trkpt><trkpt lat="41.13373151064189" lon="9.381847572632314"><ele>101.0</ele><time>2026-05-02T07:55:32.001Z</time></trkpt><trkpt lat="41.13358927779352" lon="9.381778652555225"><ele>101.0</ele><time>2026-05-02T07:55:33.001Z</time></trkpt><trkpt lat="41.13346744311991" lon="9.381720978536702"><ele>101.0</ele><time>2026-05-02T07:55:34.001Z</time></trkpt><trkpt lat="41.133356991511356" lon="9.38167374180398"><ele>101.0</ele><time>2026-05-02T07:55:35.001Z</time></trkpt><trkpt lat="41.133250640139615" lon="9.381632330320901"><ele>101.0</ele><time>2026-05-02T07:55:36.001Z</time></trkpt><trkpt lat="41.1331479727486" lon="9.38159319552513"><ele>101.0</ele><time>2026-05-02T07:55:37.001Z</time></trkpt><trkpt lat="41.13304159037751" lon="9.381557991472333"><ele>101.0</ele><time>2026-05-02T07:55:38.001Z</time></trkpt><trkpt lat="41.13292535838932" lon="9.381532492770173"><ele>101.0</ele><time>2026-05-02T07:55:39.001Z</time></trkpt><trkpt lat="41.13280487835306" lon="9.381512593934335"><ele>100.5</ele><time>2026-05-02T07:55:40.001Z</time></trkpt><trkpt lat="41.13268086910725" lon="9.381500288132845"><ele>100.0</ele><time>2026-05-02T07:55:41.001Z</time></trkpt><trkpt lat="41.13255454606816" lon="9.381492855067316"><ele>99.5</ele><time>2026-05-02T07:55:42.001Z</time></trkpt><trkpt lat="41.13243533324004" lon="9.3814822521207"><ele>99.0</ele><time>2026-05-02T07:55:43.001Z</time></trkpt><trkpt lat="41.13232011755247" lon="9.381450784714065"><ele>98.25</ele><time>2026-05-02T07:55:44.001Z</time></trkpt><trkpt lat="41.132206326201946" lon="9.381394030886728"><ele>97.5</ele><time>2026-05-02T07:55:45.001Z</time></trkpt><trkpt lat="41.13208728295681" lon="9.381310476185917"><ele>96.75</ele><time>2026-05-02T07:55:46.001Z</time></trkpt><trkpt lat="41.131957560070965" lon="9.381196155053988"><ele>96.0</ele><time>2026-05-02T07:55:47.001Z</time></trkpt><trkpt lat="41.13182901113681" lon="9.381063361502283"><ele>96.0</ele><time>2026-05-02T07:55:48.001Z</time></trkpt><trkpt lat="41.13170298068295" lon="9.380926500243682"><ele>96.0</ele><time>2026-05-02T07:55:49.001Z</time></trkpt><trkpt lat="41.131583759735825" lon="9.380800149174606"><ele>96.0</ele><time>2026-05-02T07:55:50.001Z</time></trkpt><trkpt lat="41.13147248653572" lon="9.380683956579851"><ele>94.25</ele><time>2026-05-02T07:55:51.001Z</time></trkpt><trkpt lat="41.131361332909464" lon="9.380573846167524"><ele>92.5</ele><time>2026-05-02T07:55:52.001Z</time></trkpt><trkpt lat="41.131245824238064" lon="9.380468210686873"><ele>90.75</ele><time>2026-05-02T07:55:53.001Z</time></trkpt><trkpt lat="41.13112813319008" lon="9.380382810626738"><ele>89.0</ele><time>2026-05-02T07:55:54.001Z</time></trkpt><trkpt lat="41.131000942363706" lon="9.380307786632857"><ele>88.75</ele><time>2026-05-02T07:55:55.001Z</time></trkpt><trkpt lat="41.1308653015395" lon="9.380233256303425"><ele>88.5</ele><time>2026-05-02T07:55:56.001Z</time></trkpt><trkpt lat="41.130727011720026" lon="9.380161404645603"><ele>88.25</ele><time>2026-05-02T07:55:57.001Z</time></trkpt><trkpt lat="41.130590504360526" lon="9.38009570761314"><ele>88.0</ele><time>2026-05-02T07:55:58.001Z</time></trkpt><trkpt lat="41.13045365504351" lon="9.380040173557529"><ele>88.4</ele><time>2026-05-02T07:55:59.001Z</time></trkpt><trkpt lat="41.13032985787719" lon="9.380000050880565"><ele>88.80000000000001</ele><time>2026-05-02T07:56:00.001Z</time></trkpt><trkpt lat="41.13023093777718" lon="9.37996397269461"><ele>89.2</ele><time>2026-05-02T07:56:01.001Z</time></trkpt><trkpt lat="41.13014734009396" lon="9.379914329148356"><ele>89.6</ele><time>2026-05-02T07:56:02.001Z</time></trkpt><trkpt lat="41.13006741195218" lon="9.379838818790805"><ele>90.0</ele><time>2026-05-02T07:56:03.001Z</time></trkpt><trkpt lat="41.12998861903072" lon="9.379731785151364"><ele>90.25</ele><time>2026-05-02T07:56:04.001Z</time></trkpt><trkpt lat="41.12991256240531" lon="9.379610481434266"><ele>90.5</ele><time>2026-05-02T07:56:05.001Z</time></trkpt><trkpt lat="41.1298359700842" lon="9.379476682749374"><ele>90.75</ele><time>2026-05-02T07:56:06.001Z</time></trkpt><trkpt lat="41.129751463140735" lon="9.379344253060482"><ele>91.0</ele><time>2026-05-02T07:56:07.001Z</time></trkpt><trkpt lat="41.129659816284196" lon="9.379230338439573"><ele>91.0</ele><time>2026-05-02T07:56:08.001Z</time></trkpt><trkpt lat="41.12955569084216" lon="9.37913088025245"><ele>91.0</ele><time>2026-05-02T07:56:09.001Z</time></trkpt><trkpt lat="41.12943474231525" lon="9.379034924344232"><ele>91.0</ele><time>2026-05-02T07:56:10.001Z</time></trkpt><trkpt lat="41.12930355492887" lon="9.37893947224371"><ele>91.0</ele><time>2026-05-02T07:56:11.001Z</time></trkpt><trkpt lat="41.129164423078116" lon="9.378841224479947"><ele>90.5</ele><time>2026-05-02T07:56:12.001Z</time></trkpt><trkpt lat="41.12903495189847" lon="9.37875046534675"><ele>90.0</ele><time>2026-05-02T07:56:13Z</time></trkpt><trkpt lat="41.12891483691368" lon="9.378666130537201"><ele>89.5</ele><time>2026-05-02T07:56:14Z</time></trkpt><trkpt lat="41.12879478598161" lon="9.378579059133758"><ele>89.0</ele><time>2026-05-02T07:56:15Z</time></trkpt><trkpt lat="41.12868140010437" lon="9.37849325955378"><ele>89.0</ele><time>2026-05-02T07:56:16Z</time></trkpt><trkpt lat="41.12857177781982" lon="9.37841912902481"><ele>89.0</ele><time>2026-05-02T07:56:17Z</time></trkpt><trkpt lat="41.12845498587349" lon="9.378356835552966"><ele>89.0</ele><time>2026-05-02T07:56:18Z</time></trkpt><trkpt lat="41.12832429041214" lon="9.378313995335908"><ele>89.0</ele><time>2026-05-02T07:56:19Z</time></trkpt><trkpt lat="41.12816868802445" lon="9.378288493429691"><ele>89.5</ele><time>2026-05-02T07:56:20Z</time></trkpt><trkpt lat="41.12800318467992" lon="9.378278856500001"><ele>90.0</ele><time>2026-05-02T07:56:21Z</time></trkpt><trkpt lat="41.127861772842955" lon="9.378268354753517"><ele>90.5</ele><time>2026-05-02T07:56:22Z</time></trkpt><trkpt lat="41.12773934633508" lon="9.378250057204555"><ele>91.0</ele><time>2026-05-02T07:56:23Z</time></trkpt><trkpt lat="41.12765012706927" lon="9.378229819083034"><ele>91.0</ele><time>2026-05-02T07:56:24Z</time></trkpt><trkpt lat="41.127585548040884" lon="9.378198704420383"><ele>91.0</ele><time>2026-05-02T07:56:25Z</time></trkpt><trkpt lat="41.12750563886889" lon="9.378121784373741"><ele>91.0</ele><time>2026-05-02T07:56:27Z</time></trkpt><trkpt lat="41.127462207577" lon="9.37803770196491"><ele>91.0</ele><time>2026-05-02T07:56:28Z</time></trkpt><trkpt lat="41.127417302962535" lon="9.377916059633387"><ele>91.0</ele><time>2026-05-02T07:56:29Z</time></trkpt><trkpt lat="41.127365017963335" lon="9.377770817196877"><ele>90.33333333333333</ele><time>2026-05-02T07:56:30Z</time></trkpt><trkpt lat="41.127297360688566" lon="9.377609325173102"><ele>89.66666666666667</ele><time>2026-05-02T07:56:31Z</time></trkpt><trkpt lat="41.12721258788555" lon="9.377434437926604"><ele>89.0</ele><time>2026-05-02T07:56:32Z</time></trkpt><trkpt lat="41.12711553529941" lon="9.377250322040286"><ele>88.0</ele><time>2026-05-02T07:56:33Z</time></trkpt><trkpt lat="41.1270087448413" lon="9.377053742237772"><ele>87.0</ele><time>2026-05-02T07:56:34Z</time></trkpt><trkpt lat="41.12689966320929" lon="9.37685753795577"><ele>86.0</ele><time>2026-05-02T07:56:35Z</time></trkpt><trkpt lat="41.126793234918864" lon="9.376683006975641"><ele>86.0</ele><time>2026-05-02T07:56:36Z</time></trkpt><trkpt lat="41.126689101846736" lon="9.376517430261211"><ele>86.0</ele><time>2026-05-02T07:56:37Z</time></trkpt><trkpt lat="41.12659424286951" lon="9.376354668792102"><ele>86.0</ele><time>2026-05-02T07:56:38Z</time></trkpt><trkpt lat="41.12651331777353" lon="9.376192434664302"><ele>84.75</ele><time>2026-05-02T07:56:39Z</time></trkpt><trkpt lat="41.12643956519991" lon="9.376032962651252"><ele>83.5</ele><time>2026-05-02T07:56:40Z</time></trkpt><trkpt lat="41.126370073256616" lon="9.375884722807822"><ele>82.25</ele><time>2026-05-02T07:56:41Z</time></trkpt><trkpt lat="41.126300623609495" lon="9.375748233681197"><ele>81.0</ele><time>2026-05-02T07:56:42Z</time></trkpt><trkpt lat="41.12621841760899" lon="9.375629998608582"><ele>81.0</ele><time>2026-05-02T07:56:43Z</time></trkpt><trkpt lat="41.12612606348688" lon="9.375526071127643"><ele>81.0</ele><time>2026-05-02T07:56:44Z</time></trkpt><trkpt lat="41.12601180741892" lon="9.375433017580658"><ele>81.0</ele><time>2026-05-02T07:56:45Z</time></trkpt><trkpt lat="41.12587711615672" lon="9.37535340373217"><ele>81.0</ele><time>2026-05-02T07:56:46Z</time></trkpt><trkpt lat="41.12572906665162" lon="9.375262279387636"><ele>78.33333333333333</ele><time>2026-05-02T07:56:47.001Z</time></trkpt><trkpt lat="41.125585898821974" lon="9.375157028928944"><ele>75.66666666666666</ele><time>2026-05-02T07:56:48.001Z</time></trkpt><trkpt lat="41.12542697517749" lon="9.375045837163771"><ele>73.0</ele><time>2026-05-02T07:56:49.001Z</time></trkpt><trkpt lat="41.125271775068626" lon="9.374938526148437"><ele>73.0</ele><time>2026-05-02T07:56:50.001Z</time></trkpt><trkpt lat="41.125130735097024" lon="9.37483753166502"><ele>73.0</ele><time>2026-05-02T07:56:51.001Z</time></trkpt><trkpt lat="41.12500245850283" lon="9.374746142534022"><ele>73.0</ele><time>2026-05-02T07:56:52.001Z</time></trkpt><trkpt lat="41.12489336613165" lon="9.374668909757162"><ele>73.0</ele><time>2026-05-02T07:56:53.001Z</time></trkpt><trkpt lat="41.12479458541876" lon="9.374591055643554"><ele>71.75</ele><time>2026-05-02T07:56:54.001Z</time></trkpt><trkpt lat="41.12470414904319" lon="9.374499039927915"><ele>70.5</ele><time>2026-05-02T07:56:55.001Z</time></trkpt><trkpt lat="41.12461731273702" lon="9.374393923317374"><ele>69.25</ele><time>2026-05-02T07:56:56.001Z</time></trkpt><trkpt lat="41.124523861518" lon="9.37427852710515"><ele>68.0</ele><time>2026-05-02T07:56:57.001Z</time></trkpt><trkpt lat="41.12442237014754" lon="9.374156625956715"><ele>68.0</ele><time>2026-05-02T07:56:58.001Z</time></trkpt><trkpt lat="41.12431676302646" lon="9.374035880587108"><ele>68.0</ele><time>2026-05-02T07:56:59.001Z</time></trkpt><trkpt lat="41.124209000663754" lon="9.373910933883758"><ele>68.0</ele><time>2026-05-02T07:57:00.001Z</time></trkpt><trkpt lat="41.124097971056734" lon="9.373782602271396"><ele>68.0</ele><time>2026-05-02T07:57:01.001Z</time></trkpt><trkpt lat="41.12398632141793" lon="9.37364890351026"><ele>69.0</ele><time>2026-05-02T07:57:02.001Z</time></trkpt><trkpt lat="41.12388104711775" lon="9.37352575105893"><ele>70.0</ele><time>2026-05-02T07:57:03.001Z</time></trkpt><trkpt lat="41.12378062165826" lon="9.37340661869908"><ele>71.0</ele><time>2026-05-02T07:57:04.001Z</time></trkpt><trkpt lat="41.123687362594346" lon="9.373288920396474"><ele>72.0</ele><time>2026-05-02T07:57:05.001Z</time></trkpt><trkpt lat="41.12359861653755" lon="9.37318211191922"><ele>72.0</ele><time>2026-05-02T07:57:06.001Z</time></trkpt><trkpt lat="41.12350799630126" lon="9.373085321080818"><ele>72.0</ele><time>2026-05-02T07:57:07.001Z</time></trkpt><trkpt lat="41.12341906757324" lon="9.372996304342987"><ele>72.0</ele><time>2026-05-02T07:57:08.001Z</time></trkpt><trkpt lat="41.12333259101677" lon="9.372909072120953"><ele>72.0</ele><time>2026-05-02T07:57:09.001Z</time></trkpt><trkpt lat="41.12325267518264" lon="9.372828536916945"><ele>72.0</ele><time>2026-05-02T07:57:10.001Z</time></trkpt><trkpt lat="41.12316737953804" lon="9.372737998494895"><ele>71.25</ele><time>2026-05-02T07:57:11.001Z</time></trkpt><trkpt lat="41.123080605756265" lon="9.37262982272341"><ele>70.5</ele><time>2026-05-02T07:57:12.001Z</time></trkpt><trkpt lat="41.122988487732655" lon="9.372507958114467"><ele>69.75</ele><time>2026-05-02T07:57:13.001Z</time></trkpt><trkpt lat="41.12288424106113" lon="9.372376886126457"><ele>69.0</ele><time>2026-05-02T07:57:14.001Z</time></trkpt><trkpt lat="41.12276938629134" lon="9.372244515666587"><ele>68.66666666666667</ele><time>2026-05-02T07:57:15.001Z</time></trkpt><trkpt lat="41.12264236545818" lon="9.372111370013734"><ele>68.33333333333334</ele><time>2026-05-02T07:57:16.001Z</time></trkpt><trkpt lat="41.12250646473486" lon="9.37197917987336"><ele>68.0</ele><time>2026-05-02T07:57:17.001Z</time></trkpt><trkpt lat="41.12236394003813" lon="9.371845609836106"><ele>66.66666666666667</ele><time>2026-05-02T07:57:18.001Z</time></trkpt><trkpt lat="41.12221603555877" lon="9.371706288448193"><ele>65.33333333333333</ele><time>2026-05-02T07:57:19.001Z</time></trkpt><trkpt lat="41.12205978858133" lon="9.371555897814408"><ele>64.0</ele><time>2026-05-02T07:57:20.001Z</time></trkpt><trkpt lat="41.12190202360493" lon="9.37140308330673"><ele>64.66666666666666</ele><time>2026-05-02T07:57:21.001Z</time></trkpt><trkpt lat="41.121747581709364" lon="9.371259641856126"><ele>65.33333333333333</ele><time>2026-05-02T07:57:22.001Z</time></trkpt><trkpt lat="41.121599988828535" lon="9.371124148256106"><ele>66.0</ele><time>2026-05-02T07:57:23.001Z</time></trkpt><trkpt lat="41.12145778274651" lon="9.370990663862948"><ele>64.66666666666667</ele><time>2026-05-02T07:57:24.001Z</time></trkpt><trkpt lat="41.121322911174346" lon="9.370862194722816"><ele>63.333333333333336</ele><time>2026-05-02T07:57:25.001Z</time></trkpt><trkpt lat="41.12119099130312" lon="9.370737138174773"><ele>62.0</ele><time>2026-05-02T07:57:26.001Z</time></trkpt><trkpt lat="41.12106209753474" lon="9.370620923502743"><ele>61.75</ele><time>2026-05-02T07:57:27.001Z</time></trkpt><trkpt lat="41.120935670235795" lon="9.370508498138646"><ele>61.5</ele><time>2026-05-02T07:57:28.001Z</time></trkpt><trkpt lat="41.1208137758852" lon="9.370403474449466"><ele>61.25</ele><time>2026-05-02T07:57:29.001Z</time></trkpt><trkpt lat="41.120699055910805" lon="9.370306629385544"><ele>61.0</ele><time>2026-05-02T07:57:30.001Z</time></trkpt><trkpt lat="41.12058348851997" lon="9.370208604281416"><ele>61.0</ele><time>2026-05-02T07:57:31.001Z</time></trkpt><trkpt lat="41.12047233656276" lon="9.370102583119765"><ele>61.0</ele><time>2026-05-02T07:57:32.001Z</time></trkpt><trkpt lat="41.12036024137432" lon="9.369983016732712"><ele>61.0</ele><time>2026-05-02T07:57:33.001Z</time></trkpt><trkpt lat="41.120244425307746" lon="9.369854454628891"><ele>61.0</ele><time>2026-05-02T07:57:34.001Z</time></trkpt><trkpt lat="41.120131576602645" lon="9.369735034096047"><ele>61.0</ele><time>2026-05-02T07:57:35.001Z</time></trkpt><trkpt lat="41.12002750733141" lon="9.369623045291668"><ele>61.0</ele><time>2026-05-02T07:57:36.001Z</time></trkpt><trkpt lat="41.11992102177326" lon="9.369513028977094"><ele>61.0</ele><time>2026-05-02T07:57:37.001Z</time></trkpt><trkpt lat="41.11980067283687" lon="9.369420085342147"><ele>61.0</ele><time>2026-05-02T07:57:38.001Z</time></trkpt><trkpt lat="41.1196702824835" lon="9.369338178312573"><ele>61.0</ele><time>2026-05-02T07:57:39.001Z</time></trkpt><trkpt lat="41.119530313789745" lon="9.369268113249365"><ele>61.0</ele><time>2026-05-02T07:57:40.001Z</time></trkpt><trkpt lat="41.11938927051643" lon="9.36919769697625"><ele>61.0</ele><time>2026-05-02T07:57:41.001Z</time></trkpt><trkpt lat="41.119256213201304" lon="9.369129531788529"><ele>61.0</ele><time>2026-05-02T07:57:42.001Z</time></trkpt><trkpt lat="41.11913521078485" lon="9.369057570675222"><ele>62.0</ele><time>2026-05-02T07:57:43.001Z</time></trkpt><trkpt lat="41.11903393503046" lon="9.36898337179917"><ele>63.0</ele><time>2026-05-02T07:57:44.001Z</time></trkpt><trkpt lat="41.1189441723453" lon="9.368883415682996"><ele>64.0</ele><time>2026-05-02T07:57:45.001Z</time></trkpt><trkpt lat="41.118862160716965" lon="9.368749951610246"><ele>65.0</ele><time>2026-05-02T07:57:46.001Z</time></trkpt><trkpt lat="41.118791823456355" lon="9.368594498069873"><ele>65.0</ele><time>2026-05-02T07:57:47.001Z</time></trkpt><trkpt lat="41.118734082943526" lon="9.368420384015705"><ele>65.0</ele><time>2026-05-02T07:57:48.001Z</time></trkpt><trkpt lat="41.118685771379475" lon="9.368260022956003"><ele>65.0</ele><time>2026-05-02T07:57:49.001Z</time></trkpt><trkpt lat="41.11862801836458" lon="9.368119591738678"><ele>65.0</ele><time>2026-05-02T07:57:50.001Z</time></trkpt><trkpt lat="41.11855049202523" lon="9.36798926654449"><ele>65.75</ele><time>2026-05-02T07:57:51.001Z</time></trkpt><trkpt lat="41.11845602515731" lon="9.367862334439264"><ele>66.5</ele><time>2026-05-02T07:57:52.001Z</time></trkpt><trkpt lat="41.1183505874951" lon="9.367736602395933"><ele>67.25</ele><time>2026-05-02T07:57:53.001Z</time></trkpt><trkpt lat="41.11824032755427" lon="9.367612498702478"><ele>68.0</ele><time>2026-05-02T07:57:54.001Z</time></trkpt><trkpt lat="41.118128841539196" lon="9.367484099233486"><ele>69.0</ele><time>2026-05-02T07:57:55.001Z</time></trkpt><trkpt lat="41.11801732753273" lon="9.367341248289623"><ele>70.0</ele><time>2026-05-02T07:57:56.001Z</time></trkpt><trkpt lat="41.11789848763631" lon="9.367179818071262"><ele>71.0</ele><time>2026-05-02T07:57:57.001Z</time></trkpt><trkpt lat="41.11778380601172" lon="9.367018536754543"><ele>71.0</ele><time>2026-05-02T07:57:58.002Z</time></trkpt><trkpt lat="41.11767006510777" lon="9.366857728950897"><ele>71.0</ele><time>2026-05-02T07:57:59.002Z</time></trkpt><trkpt lat="41.11757508114991" lon="9.366714410143505"><ele>71.0</ele><time>2026-05-02T07:58:00.002Z</time></trkpt><trkpt lat="41.117495103448135" lon="9.36659853358748"><ele>71.0</ele><time>2026-05-02T07:58:01.002Z</time></trkpt><trkpt lat="41.11742382472597" lon="9.366513358975231"><ele>71.5</ele><time>2026-05-02T07:58:02.002Z</time></trkpt><trkpt lat="41.11735348237528" lon="9.366442394856142"><ele>72.0</ele><time>2026-05-02T07:58:03.002Z</time></trkpt><trkpt lat="41.11727791127909" lon="9.366397499970272"><ele>72.5</ele><time>2026-05-02T07:58:04.002Z</time></trkpt><trkpt lat="41.11719281857623" lon="9.366355819659281"><ele>73.0</ele><time>2026-05-02T07:58:05.002Z</time></trkpt><trkpt lat="41.11712498348739" lon="9.36630546528012"><ele>73.5</ele><time>2026-05-02T07:58:06.002Z</time></trkpt><trkpt lat="41.117071414815435" lon="9.366216016678889"><ele>74.0</ele><time>2026-05-02T07:58:08.002Z</time></trkpt><trkpt lat="41.11702072448842" lon="9.366118997574318"><ele>74.4</ele><time>2026-05-02T07:58:15.002Z</time></trkpt><trkpt lat="41.116957138423686" lon="9.366091935348164"><ele>74.80000000000001</ele><time>2026-05-02T07:58:16.002Z</time></trkpt><trkpt lat="41.11687550842622" lon="9.366081211999363"><ele>75.19999999999999</ele><time>2026-05-02T07:58:17.002Z</time></trkpt><trkpt lat="41.11677355320623" lon="9.36607146148161"><ele>75.6</ele><time>2026-05-02T07:58:18.002Z</time></trkpt><trkpt lat="41.11665658659439" lon="9.36605867148187"><ele>76.0</ele><time>2026-05-02T07:58:19.001Z</time></trkpt><trkpt lat="41.11652653764157" lon="9.366041976076644"><ele>77.0</ele><time>2026-05-02T07:58:20.001Z</time></trkpt><trkpt lat="41.11638540185554" lon="9.366018136052661"><ele>78.0</ele><time>2026-05-02T07:58:21.001Z</time></trkpt><trkpt lat="41.116229404759565" lon="9.365985460081694"><ele>79.0</ele><time>2026-05-02T07:58:22.001Z</time></trkpt><trkpt lat="41.11606507451359" lon="9.365950264742366"><ele>79.0</ele><time>2026-05-02T07:58:23.001Z</time></trkpt><trkpt lat="41.11590894257701" lon="9.365917907249866"><ele>79.0</ele><time>2026-05-02T07:58:24.001Z</time></trkpt><trkpt lat="41.11575681932532" lon="9.365887929687014"><ele>79.0</ele><time>2026-05-02T07:58:25.001Z</time></trkpt><trkpt lat="41.115596969948925" lon="9.365853884311823"><ele>79.0</ele><time>2026-05-02T07:58:26.001Z</time></trkpt><trkpt lat="41.115440830640814" lon="9.365819735139656"><ele>79.0</ele><time>2026-05-02T07:58:27.001Z</time></trkpt><trkpt lat="41.115286845049035" lon="9.365785980643084"><ele>79.0</ele><time>2026-05-02T07:58:28.001Z</time></trkpt><trkpt lat="41.11513190941943" lon="9.36575170348729"><ele>79.0</ele><time>2026-05-02T07:58:29.001Z</time></trkpt><trkpt lat="41.114984525505406" lon="9.36571758848736"><ele>79.0</ele><time>2026-05-02T07:58:30.001Z</time></trkpt><trkpt lat="41.11483589330858" lon="9.365679856641005"><ele>79.0</ele><time>2026-05-02T07:58:31.001Z</time></trkpt><trkpt lat="41.11468782263693" lon="9.365647890907988"><ele>79.66666666666666</ele><time>2026-05-02T07:58:32.001Z</time></trkpt><trkpt lat="41.11453868562143" lon="9.36561751701547"><ele>80.33333333333333</ele><time>2026-05-02T07:58:33.001Z</time></trkpt><trkpt lat="41.11438822292276" lon="9.365587671606017"><ele>81.0</ele><time>2026-05-02T07:58:34.001Z</time></trkpt><trkpt lat="41.114239787105774" lon="9.36555700984224"><ele>81.75</ele><time>2026-05-02T07:58:35.001Z</time></trkpt><trkpt lat="41.114094994667774" lon="9.365528509416423"><ele>82.5</ele><time>2026-05-02T07:58:36.001Z</time></trkpt><trkpt lat="41.11394837206895" lon="9.365498864922506"><ele>83.25</ele><time>2026-05-02T07:58:37.001Z</time></trkpt><trkpt lat="41.11379774622062" lon="9.365468040615177"><ele>84.0</ele><time>2026-05-02T07:58:38.001Z</time></trkpt><trkpt lat="41.11364534478716" lon="9.365433393660279"><ele>85.0</ele><time>2026-05-02T07:58:39.001Z</time></trkpt><trkpt lat="41.11349275382811" lon="9.365402641187101"><ele>86.0</ele><time>2026-05-02T07:58:40.001Z</time></trkpt><trkpt lat="41.11333765308255" lon="9.36538328072552"><ele>87.0</ele><time>2026-05-02T07:58:41.001Z</time></trkpt><trkpt lat="41.113188874048696" lon="9.365389014039405"><ele>88.0</ele><time>2026-05-02T07:58:42.001Z</time></trkpt><trkpt lat="41.11303524346099" lon="9.36541233889685"><ele>89.0</ele><time>2026-05-02T07:58:43.001Z</time></trkpt><trkpt lat="41.112883856998714" lon="9.36546031492995"><ele>90.0</ele><time>2026-05-02T07:58:44.001Z</time></trkpt><trkpt lat="41.11272239827431" lon="9.365520887252517"><ele>89.0</ele><time>2026-05-02T07:58:45.001Z</time></trkpt><trkpt lat="41.11254934930959" lon="9.365582156717473"><ele>88.0</ele><time>2026-05-02T07:58:46.001Z</time></trkpt><trkpt lat="41.11237136178279" lon="9.365648389428957"><ele>87.0</ele><time>2026-05-02T07:58:47.001Z</time></trkpt><trkpt lat="41.112186047958524" lon="9.36572067000548"><ele>86.0</ele><time>2026-05-02T07:58:48.001Z</time></trkpt><trkpt lat="41.11199546441195" lon="9.365796895685564"><ele>85.0</ele><time>2026-05-02T07:58:49.001Z</time></trkpt><trkpt lat="41.11180087777006" lon="9.365875534769463"><ele>84.0</ele><time>2026-05-02T07:58:50.001Z</time></trkpt><trkpt lat="41.11159460363564" lon="9.365957182717194"><ele>84.0</ele><time>2026-05-02T07:58:51.001Z</time></trkpt><trkpt lat="41.11139298284343" lon="9.366034839852597"><ele>84.0</ele><time>2026-05-02T07:58:52.001Z</time></trkpt><trkpt lat="41.11120118183848" lon="9.366111267178743"><ele>84.0</ele><time>2026-05-02T07:58:53.001Z</time></trkpt><trkpt lat="41.111015360803776" lon="9.366185386056689"><ele>84.0</ele><time>2026-05-02T07:58:54.001Z</time></trkpt><trkpt lat="41.11083355040144" lon="9.366257813895237"><ele>84.0</ele><time>2026-05-02T07:58:55.001Z</time></trkpt><trkpt lat="41.11065101411099" lon="9.366334076555809"><ele>84.0</ele><time>2026-05-02T07:58:56.001Z</time></trkpt><trkpt lat="41.110472463349176" lon="9.366412450588655"><ele>83.33333333333333</ele><time>2026-05-02T07:58:57.001Z</time></trkpt><trkpt lat="41.11030114455302" lon="9.36649683294593"><ele>82.66666666666666</ele><time>2026-05-02T07:58:58.001Z</time></trkpt><trkpt lat="41.11013203244335" lon="9.36658973427433"><ele>82.0</ele><time>2026-05-02T07:58:59.001Z</time></trkpt><trkpt lat="41.1099654096665" lon="9.366688437338578"><ele>83.66666666666666</ele><time>2026-05-02T07:59:00.001Z</time></trkpt><trkpt lat="41.10980032329717" lon="9.36678828924649"><ele>85.33333333333333</ele><time>2026-05-02T07:59:01.001Z</time></trkpt><trkpt lat="41.10963779354562" lon="9.36688273438716"><ele>87.0</ele><time>2026-05-02T07:59:02.001Z</time></trkpt><trkpt lat="41.109480734136326" lon="9.366971061890528"><ele>87.0</ele><time>2026-05-02T07:59:03.001Z</time></trkpt><trkpt lat="41.109325530941334" lon="9.367057746674138"><ele>87.0</ele><time>2026-05-02T07:59:04.001Z</time></trkpt><trkpt lat="41.10916720720561" lon="9.367129452264882"><ele>87.0</ele><time>2026-05-02T07:59:05.001Z</time></trkpt><trkpt lat="41.10900391531462" lon="9.367192108153956"><ele>85.66666666666667</ele><time>2026-05-02T07:59:06.001Z</time></trkpt><trkpt lat="41.10883897217084" lon="9.367253340334097"><ele>84.33333333333334</ele><time>2026-05-02T07:59:07.001Z</time></trkpt><trkpt lat="41.10867896967633" lon="9.36730885556432"><ele>83.0</ele><time>2026-05-02T07:59:08.001Z</time></trkpt><trkpt lat="41.1085208056961" lon="9.367365176301847"><ele>83.0</ele><time>2026-05-02T07:59:09.001Z</time></trkpt><trkpt lat="41.1083639843811" lon="9.367422395820286"><ele>83.0</ele><time>2026-05-02T07:59:10.001Z</time></trkpt><trkpt lat="41.10820860697628" lon="9.367481810680745"><ele>83.0</ele><time>2026-05-02T07:59:11.001Z</time></trkpt><trkpt lat="41.10805530200057" lon="9.36754164013336"><ele>83.66666666666667</ele><time>2026-05-02T07:59:12.001Z</time></trkpt><trkpt lat="41.10790333248857" lon="9.367606388428428"><ele>84.33333333333333</ele><time>2026-05-02T07:59:13.001Z</time></trkpt><trkpt lat="41.107751294458126" lon="9.367684753015999"><ele>85.0</ele><time>2026-05-02T07:59:14.001Z</time></trkpt><trkpt lat="41.107597424797156" lon="9.367781319895728"><ele>85.0</ele><time>2026-05-02T07:59:15.001Z</time></trkpt><trkpt lat="41.10744194570596" lon="9.367885450050732"><ele>85.0</ele><time>2026-05-02T07:59:16.001Z</time></trkpt><trkpt lat="41.10728665948705" lon="9.367998103105416"><ele>85.0</ele><time>2026-05-02T07:59:17.001Z</time></trkpt><trkpt lat="41.107129547475004" lon="9.368112162732174"><ele>85.0</ele><time>2026-05-02T07:59:18.001Z</time></trkpt><trkpt lat="41.106965078624775" lon="9.368233045256758"><ele>85.0</ele><time>2026-05-02T07:59:19.001Z</time></trkpt><trkpt lat="41.10678809507938" lon="9.368359490860184"><ele>85.0</ele><time>2026-05-02T07:59:20.001Z</time></trkpt><trkpt lat="41.106613986791054" lon="9.368490217075164"><ele>85.66666666666666</ele><time>2026-05-02T07:59:21.001Z</time></trkpt><trkpt lat="41.106434869769735" lon="9.368622983130756"><ele>86.33333333333333</ele><time>2026-05-02T07:59:22.001Z</time></trkpt><trkpt lat="41.10625443178492" lon="9.368755082414394"><ele>87.0</ele><time>2026-05-02T07:59:23.001Z</time></trkpt><trkpt lat="41.106084631470964" lon="9.36887990647295"><ele>87.0</ele><time>2026-05-02T07:59:24.001Z</time></trkpt><trkpt lat="41.10592064836187" lon="9.36900171578098"><ele>87.0</ele><time>2026-05-02T07:59:25.001Z</time></trkpt><trkpt lat="41.10576648459162" lon="9.369116495904485"><ele>87.0</ele><time>2026-05-02T07:59:26.001Z</time></trkpt><trkpt lat="41.10562166880633" lon="9.369225637027597"><ele>89.0</ele><time>2026-05-02T07:59:27.001Z</time></trkpt><trkpt lat="41.10548635993289" lon="9.369328739204924"><ele>91.0</ele><time>2026-05-02T07:59:28.001Z</time></trkpt><trkpt lat="41.1053465038507" lon="9.369424615013205"><ele>93.0</ele><time>2026-05-02T07:59:29.001Z</time></trkpt><trkpt lat="41.105202245548895" lon="9.369510583351813"><ele>93.0</ele><time>2026-05-02T07:59:30.001Z</time></trkpt><trkpt lat="41.10504496169747" lon="9.369577045311447"><ele>93.0</ele><time>2026-05-02T07:59:31.001Z</time></trkpt><trkpt lat="41.10488380206336" lon="9.369628604328303"><ele>93.0</ele><time>2026-05-02T07:59:32.001Z</time></trkpt><trkpt lat="41.10471720655678" lon="9.369667535206"><ele>92.66666666666667</ele><time>2026-05-02T07:59:33.001Z</time></trkpt><trkpt lat="41.10455071773668" lon="9.36970764179155"><ele>92.33333333333334</ele><time>2026-05-02T07:59:34.001Z</time></trkpt><trkpt lat="41.104396192706105" lon="9.369752522985312"><ele>92.0</ele><time>2026-05-02T07:59:35.001Z</time></trkpt><trkpt lat="41.10424367435917" lon="9.369793023968427"><ele>92.0</ele><time>2026-05-02T07:59:36.001Z</time></trkpt><trkpt lat="41.10408809939607" lon="9.369838436775689"><ele>92.0</ele><time>2026-05-02T07:59:37.001Z</time></trkpt><trkpt lat="41.103932172171994" lon="9.369893385906513"><ele>92.0</ele><time>2026-05-02T07:59:38.001Z</time></trkpt><trkpt lat="41.10377689202291" lon="9.369965193916656"><ele>93.33333333333334</ele><time>2026-05-02T07:59:39.001Z</time></trkpt><trkpt lat="41.103627375948555" lon="9.370051944145404"><ele>94.66666666666667</ele><time>2026-05-02T07:59:40.001Z</time></trkpt><trkpt lat="41.103479776660286" lon="9.370144911071979"><ele>96.0</ele><time>2026-05-02T07:59:41.001Z</time></trkpt><trkpt lat="41.10333409574024" lon="9.370242297033233"><ele>99.0</ele><time>2026-05-02T07:59:42.001Z</time></trkpt><trkpt lat="41.1031910393333" lon="9.37033533322598"><ele>102.0</ele><time>2026-05-02T07:59:43.001Z</time></trkpt><trkpt lat="41.10304110046546" lon="9.37041810195142"><ele>105.0</ele><time>2026-05-02T07:59:44.001Z</time></trkpt><trkpt lat="41.10288804509645" lon="9.370485479840127"><ele>104.0</ele><time>2026-05-02T07:59:45.001Z</time></trkpt><trkpt lat="41.10273251552192" lon="9.370537007286433"><ele>103.0</ele><time>2026-05-02T07:59:46.001Z</time></trkpt><trkpt lat="41.10257383275153" lon="9.37058194156563"><ele>102.0</ele><time>2026-05-02T07:59:47.001Z</time></trkpt><trkpt lat="41.10241605941168" lon="9.370623429556046"><ele>103.66666666666666</ele><time>2026-05-02T07:59:48.001Z</time></trkpt><trkpt lat="41.102259367636094" lon="9.37067288223503"><ele>105.33333333333333</ele><time>2026-05-02T07:59:49.001Z</time></trkpt><trkpt lat="41.10210118213468" lon="9.37073325709887"><ele>107.0</ele><time>2026-05-02T07:59:50.001Z</time></trkpt><trkpt lat="41.10194098777583" lon="9.370812004692763"><ele>107.0</ele><time>2026-05-02T07:59:51.001Z</time></trkpt><trkpt lat="41.10178445609233" lon="9.3709056009318"><ele>107.0</ele><time>2026-05-02T07:59:52.001Z</time></trkpt><trkpt lat="41.101625843224205" lon="9.371004269435861"><ele>107.0</ele><time>2026-05-02T07:59:53.001Z</time></trkpt><trkpt lat="41.101469741935695" lon="9.371103624487995"><ele>109.0</ele><time>2026-05-02T07:59:54.001Z</time></trkpt><trkpt lat="41.101306815544774" lon="9.371203925674731"><ele>111.0</ele><time>2026-05-02T07:59:55.001Z</time></trkpt><trkpt lat="41.10112899283866" lon="9.371311023646811"><ele>113.0</ele><time>2026-05-02T07:59:56.001Z</time></trkpt><trkpt lat="41.10095378068805" lon="9.371416629403294"><ele>113.33333333333333</ele><time>2026-05-02T07:59:57.001Z</time></trkpt><trkpt lat="41.10077900500922" lon="9.371506040375431"><ele>113.66666666666666</ele><time>2026-05-02T07:59:58.001Z</time></trkpt><trkpt lat="41.10059824169937" lon="9.371571175124485"><ele>114.0</ele><time>2026-05-02T07:59:59.001Z</time></trkpt><trkpt lat="41.100414298929024" lon="9.371607709929703"><ele>116.0</ele><time>2026-05-02T08:00:00.001Z</time></trkpt><trkpt lat="41.10022627823544" lon="9.371624982863594"><ele>118.0</ele><time>2026-05-02T08:00:01.001Z</time></trkpt><trkpt lat="41.100024674408246" lon="9.37161539615046"><ele>120.0</ele><time>2026-05-02T08:00:02.001Z</time></trkpt><trkpt lat="41.099820320572434" lon="9.371585291638171"><ele>122.33333333333334</ele><time>2026-05-02T08:00:03.001Z</time></trkpt><trkpt lat="41.099613250938226" lon="9.371551629052453"><ele>124.66666666666667</ele><time>2026-05-02T08:00:04.002Z</time></trkpt><trkpt lat="41.099408863232966" lon="9.371531202071612"><ele>127.0</ele><time>2026-05-02T08:00:05.002Z</time></trkpt><trkpt lat="41.09920658957044" lon="9.371528398014664"><ele>127.66666666666667</ele><time>2026-05-02T08:00:06.002Z</time></trkpt><trkpt lat="41.099008442040414" lon="9.371543639034853"><ele>128.33333333333334</ele><time>2026-05-02T08:00:07.002Z</time></trkpt><trkpt lat="41.098808302703276" lon="9.371571942256113"><ele>129.0</ele><time>2026-05-02T08:00:08.002Z</time></trkpt><trkpt lat="41.09862064513641" lon="9.371601003087507"><ele>129.0</ele><time>2026-05-02T08:00:09.002Z</time></trkpt><trkpt lat="41.098438192510265" lon="9.371621342239195"><ele>129.0</ele><time>2026-05-02T08:00:10.002Z</time></trkpt><trkpt lat="41.09825683765592" lon="9.371623665209201"><ele>129.0</ele><time>2026-05-02T08:00:11.002Z</time></trkpt><trkpt lat="41.09806593076175" lon="9.37162062313122"><ele>130.0</ele><time>2026-05-02T08:00:12.002Z</time></trkpt><trkpt lat="41.097867404867536" lon="9.371632006979391"><ele>131.0</ele><time>2026-05-02T08:00:13.002Z</time></trkpt><trkpt lat="41.097651233790984" lon="9.371667771507182"><ele>132.0</ele><time>2026-05-02T08:00:14.002Z</time></trkpt><trkpt lat="41.097426782435285" lon="9.371722666750609"><ele>134.0</ele><time>2026-05-02T08:00:15.002Z</time></trkpt><trkpt lat="41.09719622786342" lon="9.371779471420721"><ele>136.0</ele><time>2026-05-02T08:00:16.002Z</time></trkpt><trkpt lat="41.09697374597631" lon="9.371832333558027"><ele>136.0</ele><time>2026-05-02T08:00:17.002Z</time></trkpt><trkpt lat="41.09676477102563" lon="9.371887498479936"><ele>136.0</ele><time>2026-05-02T08:00:18.002Z</time></trkpt><trkpt lat="41.096569195455466" lon="9.371941693632738"><ele>136.0</ele><time>2026-05-02T08:00:19.002Z</time></trkpt><trkpt lat="41.09638238592726" lon="9.371996184497942"><ele>135.0</ele><time>2026-05-02T08:00:20.002Z</time></trkpt><trkpt lat="41.096197122162046" lon="9.372051109124483"><ele>134.0</ele><time>2026-05-02T08:00:21.002Z</time></trkpt><trkpt lat="41.09601004961199" lon="9.372108879262269"><ele>133.0</ele><time>2026-05-02T08:00:22.002Z</time></trkpt><trkpt lat="41.09582268048582" lon="9.372165826453237"><ele>133.0</ele><time>2026-05-02T08:00:23.002Z</time></trkpt><trkpt lat="41.09563547825385" lon="9.372225754758427"><ele>133.0</ele><time>2026-05-02T08:00:24.001Z</time></trkpt><trkpt lat="41.095446470145184" lon="9.372288606172987"><ele>133.0</ele><time>2026-05-02T08:00:25.001Z</time></trkpt><trkpt lat="41.0952553727445" lon="9.37235197158249"><ele>133.0</ele><time>2026-05-02T08:00:26.001Z</time></trkpt><trkpt lat="41.09506402250444" lon="9.37241617561095"><ele>133.0</ele><time>2026-05-02T08:00:27.001Z</time></trkpt><trkpt lat="41.0948763726463" lon="9.372479732800635"><ele>133.0</ele><time>2026-05-02T08:00:28.001Z</time></trkpt><trkpt lat="41.09469292583542" lon="9.372542641275048"><ele>132.66666666666669</ele><time>2026-05-02T08:00:29.001Z</time></trkpt><trkpt lat="41.0945170779578" lon="9.372603626324725"><ele>132.33333333333334</ele><time>2026-05-02T08:00:30.001Z</time></trkpt><trkpt lat="41.09434997065456" lon="9.372651221129594"><ele>132.0</ele><time>2026-05-02T08:00:31.001Z</time></trkpt><trkpt lat="41.0941839131525" lon="9.372679038975585"><ele>133.0</ele><time>2026-05-02T08:00:32.001Z</time></trkpt><trkpt lat="41.0940171634188" lon="9.372679738373819"><ele>134.0</ele><time>2026-05-02T08:00:33.001Z</time></trkpt><trkpt lat="41.093849490922594" lon="9.372661842833486"><ele>135.0</ele><time>2026-05-02T08:00:34.001Z</time></trkpt><trkpt lat="41.09368513370507" lon="9.372641276659003"><ele>135.0</ele><time>2026-05-02T08:00:35.001Z</time></trkpt><trkpt lat="41.093533493699205" lon="9.372640359883142"><ele>135.0</ele><time>2026-05-02T08:00:36.001Z</time></trkpt><trkpt lat="41.09339796544216" lon="9.372675696906104"><ele>135.0</ele><time>2026-05-02T08:00:37.001Z</time></trkpt><trkpt lat="41.093274933330115" lon="9.372734298382651"><ele>135.0</ele><time>2026-05-02T08:00:38.001Z</time></trkpt><trkpt lat="41.09316484104142" lon="9.372813499016202"><ele>134.5</ele><time>2026-05-02T08:00:39.001Z</time></trkpt><trkpt lat="41.0930556875526" lon="9.372910054008925"><ele>134.0</ele><time>2026-05-02T08:00:40.001Z</time></trkpt><trkpt lat="41.0929432463752" lon="9.373016244028152"><ele>133.5</ele><time>2026-05-02T08:00:41.001Z</time></trkpt><trkpt lat="41.0928272907225" lon="9.373131565254976"><ele>133.0</ele><time>2026-05-02T08:00:42.001Z</time></trkpt><trkpt lat="41.09270651112762" lon="9.37324461622061"><ele>134.25</ele><time>2026-05-02T08:00:43.001Z</time></trkpt><trkpt lat="41.092579329995615" lon="9.373355497893392"><ele>135.5</ele><time>2026-05-02T08:00:44.001Z</time></trkpt><trkpt lat="41.09245490445635" lon="9.373448930982885"><ele>136.75</ele><time>2026-05-02T08:00:45.001Z</time></trkpt><trkpt lat="41.09232805271726" lon="9.37351413354195"><ele>138.0</ele><time>2026-05-02T08:00:46.001Z</time></trkpt><trkpt lat="41.09218520799296" lon="9.373554438374308"><ele>138.33333333333334</ele><time>2026-05-02T08:00:47.001Z</time></trkpt><trkpt lat="41.09202399824302" lon="9.37356624804408"><ele>138.66666666666669</ele><time>2026-05-02T08:00:48.001Z</time></trkpt><trkpt lat="41.09185576989465" lon="9.37357802730873"><ele>139.0</ele><time>2026-05-02T08:00:49.001Z</time></trkpt><trkpt lat="41.09168225296121" lon="9.373606022299459"><ele>138.33333333333334</ele><time>2026-05-02T08:00:50.001Z</time></trkpt><trkpt lat="41.09150408278317" lon="9.37363934414368"><ele>137.66666666666666</ele><time>2026-05-02T08:00:51.001Z</time></trkpt><trkpt lat="41.09131466435603" lon="9.373680776804104"><ele>137.0</ele><time>2026-05-02T08:00:52.001Z</time></trkpt><trkpt lat="41.09112569681328" lon="9.373726793274546"><ele>137.0</ele><time>2026-05-02T08:00:53.001Z</time></trkpt><trkpt lat="41.09093748535076" lon="9.373774029348763"><ele>137.0</ele><time>2026-05-02T08:00:54.001Z</time></trkpt><trkpt lat="41.09074905350598" lon="9.373820293127793"><ele>137.0</ele><time>2026-05-02T08:00:55.001Z</time></trkpt><trkpt lat="41.09056086445342" lon="9.373864313183873"><ele>135.33333333333331</ele><time>2026-05-02T08:00:56.001Z</time></trkpt><trkpt lat="41.09037619944197" lon="9.373906187591833"><ele>133.66666666666666</ele><time>2026-05-02T08:00:57.001Z</time></trkpt><trkpt lat="41.0901916012683" lon="9.373945996025304"><ele>132.0</ele><time>2026-05-02T08:00:58.001Z</time></trkpt><trkpt lat="41.090007325756055" lon="9.37398696935676"><ele>130.0</ele><time>2026-05-02T08:00:59.001Z</time></trkpt><trkpt lat="41.089824141978646" lon="9.374029143222339"><ele>128.0</ele><time>2026-05-02T08:01:00.001Z</time></trkpt><trkpt lat="41.08964273418385" lon="9.37407488684948"><ele>126.0</ele><time>2026-05-02T08:01:01.001Z</time></trkpt><trkpt lat="41.08945947910266" lon="9.374118774968537"><ele>126.0</ele><time>2026-05-02T08:01:02.001Z</time></trkpt><trkpt lat="41.08927679374785" lon="9.374162768208997"><ele>126.0</ele><time>2026-05-02T08:01:03.001Z</time></trkpt><trkpt lat="41.08909393464854" lon="9.374207305875059"><ele>126.0</ele><time>2026-05-02T08:01:04.001Z</time></trkpt><trkpt lat="41.08891327113091" lon="9.37425016074442"><ele>125.0</ele><time>2026-05-02T08:01:05.001Z</time></trkpt><trkpt lat="41.08873026135831" lon="9.374296380678436"><ele>124.0</ele><time>2026-05-02T08:01:06.001Z</time></trkpt><trkpt lat="41.08855414207433" lon="9.3743388406038"><ele>123.0</ele><time>2026-05-02T08:01:07.001Z</time></trkpt><trkpt lat="41.08837456811231" lon="9.37438149211526"><ele>122.66666666666666</ele><time>2026-05-02T08:01:08.001Z</time></trkpt><trkpt lat="41.08819316600999" lon="9.374425982212172"><ele>122.33333333333333</ele><time>2026-05-02T08:01:09.001Z</time></trkpt><trkpt lat="41.08801114542887" lon="9.374473845278894"><ele>122.0</ele><time>2026-05-02T08:01:10.001Z</time></trkpt><trkpt lat="41.08783008647385" lon="9.374520540443754"><ele>122.0</ele><time>2026-05-02T08:01:11.001Z</time></trkpt><trkpt lat="41.0876493613859" lon="9.374565949465982"><ele>122.0</ele><time>2026-05-02T08:01:12.001Z</time></trkpt><trkpt lat="41.08747098268185" lon="9.374610711196437"><ele>122.0</ele><time>2026-05-02T08:01:13.001Z</time></trkpt><trkpt lat="41.0872904352157" lon="9.374654012743385"><ele>122.0</ele><time>2026-05-02T08:01:14.001Z</time></trkpt><trkpt lat="41.08710797468644" lon="9.374698768094161"><ele>122.0</ele><time>2026-05-02T08:01:15.001Z</time></trkpt><trkpt lat="41.08693019889784" lon="9.374742394809788"><ele>122.0</ele><time>2026-05-02T08:01:16.001Z</time></trkpt><trkpt lat="41.086763701910236" lon="9.374784879277211"><ele>122.0</ele><time>2026-05-02T08:01:17.001Z</time></trkpt><trkpt lat="41.086605086425024" lon="9.374823275279574"><ele>122.0</ele><time>2026-05-02T08:01:18.001Z</time></trkpt><trkpt lat="41.08645065960897" lon="9.374859344891744"><ele>122.0</ele><time>2026-05-02T08:01:19.001Z</time></trkpt><trkpt lat="41.086294794688136" lon="9.374896473176399"><ele>122.5</ele><time>2026-05-02T08:01:20.001Z</time></trkpt><trkpt lat="41.08614737684559" lon="9.374933882004976"><ele>123.0</ele><time>2026-05-02T08:01:21.001Z</time></trkpt><trkpt lat="41.08601256136162" lon="9.374974676248476"><ele>123.5</ele><time>2026-05-02T08:01:22.001Z</time></trkpt><trkpt lat="41.08588317706604" lon="9.375028541398079"><ele>124.0</ele><time>2026-05-02T08:01:23.001Z</time></trkpt><trkpt lat="41.085753584798525" lon="9.3751130126244"><ele>125.66666666666667</ele><time>2026-05-02T08:01:24.001Z</time></trkpt><trkpt lat="41.085624800195376" lon="9.375228560487804"><ele>127.33333333333334</ele><time>2026-05-02T08:01:25.001Z</time></trkpt><trkpt lat="41.085506268047276" lon="9.375366759171335"><ele>129.0</ele><time>2026-05-02T08:01:26.001Z</time></trkpt><trkpt lat="41.085400934237676" lon="9.375512222527824"><ele>125.5</ele><time>2026-05-02T08:01:27.001Z</time></trkpt><trkpt lat="41.085300432850374" lon="9.375649075597213"><ele>122.0</ele><time>2026-05-02T08:01:28.001Z</time></trkpt><trkpt lat="41.08520492213402" lon="9.375766110468463"><ele>118.5</ele><time>2026-05-02T08:01:29.001Z</time></trkpt><trkpt lat="41.08510706846646" lon="9.37584950309548"><ele>115.0</ele><time>2026-05-02T08:01:30.001Z</time></trkpt><trkpt lat="41.0849969334317" lon="9.375889981541224"><ele>114.0</ele><time>2026-05-02T08:01:31.001Z</time></trkpt><trkpt lat="41.08487489081004" lon="9.37588382537425"><ele>113.0</ele><time>2026-05-02T08:01:32.001Z</time></trkpt><trkpt lat="41.084740209828674" lon="9.375842948736384"><ele>112.0</ele><time>2026-05-02T08:01:33.001Z</time></trkpt><trkpt lat="41.08459838935861" lon="9.375831173700133"><ele>111.0</ele><time>2026-05-02T08:01:34.001Z</time></trkpt><trkpt lat="41.0844530305281" lon="9.375843672282981"><ele>111.0</ele><time>2026-05-02T08:01:35.001Z</time></trkpt><trkpt lat="41.0843003034349" lon="9.375887983667353"><ele>111.0</ele><time>2026-05-02T08:01:36.001Z</time></trkpt><trkpt lat="41.08415671452613" lon="9.375939103351959"><ele>111.0</ele><time>2026-05-02T08:01:37.001Z</time></trkpt><trkpt lat="41.08402123532731" lon="9.375978601194115"><ele>111.0</ele><time>2026-05-02T08:01:38.001Z</time></trkpt><trkpt lat="41.08388575388078" lon="9.375996108882122"><ele>109.25</ele><time>2026-05-02T08:01:39.001Z</time></trkpt><trkpt lat="41.083753236537454" lon="9.375967979237391"><ele>107.5</ele><time>2026-05-02T08:01:40.001Z</time></trkpt><trkpt lat="41.08363574932512" lon="9.375888128802194"><ele>105.75</ele><time>2026-05-02T08:01:41.001Z</time></trkpt><trkpt lat="41.083516434095564" lon="9.375767287203868"><ele>104.0</ele><time>2026-05-02T08:01:42.001Z</time></trkpt><trkpt lat="41.083393760390706" lon="9.375641745584335"><ele>104.0</ele><time>2026-05-02T08:01:43.001Z</time></trkpt><trkpt lat="41.08327762180665" lon="9.37552754923815"><ele>104.0</ele><time>2026-05-02T08:01:44.001Z</time></trkpt><trkpt lat="41.083169068032205" lon="9.375439623687035"><ele>104.0</ele><time>2026-05-02T08:01:45.001Z</time></trkpt><trkpt lat="41.083050145096166" lon="9.375384178169115"><ele>104.0</ele><time>2026-05-02T08:01:46.001Z</time></trkpt><trkpt lat="41.08293032225641" lon="9.375371186780605"><ele>102.0</ele><time>2026-05-02T08:01:47.001Z</time></trkpt><trkpt lat="41.0828149013488" lon="9.3754037852574"><ele>100.0</ele><time>2026-05-02T08:01:48.001Z</time></trkpt><trkpt lat="41.08270369543419" lon="9.37548247751287"><ele>98.0</ele><time>2026-05-02T08:01:49.001Z</time></trkpt><trkpt lat="41.08259052465156" lon="9.375586175281029"><ele>96.0</ele><time>2026-05-02T08:01:50.001Z</time></trkpt><trkpt lat="41.08247884203777" lon="9.375689057989959"><ele>93.25</ele><time>2026-05-02T08:01:51.001Z</time></trkpt><trkpt lat="41.08237184520709" lon="9.375795457324761"><ele>90.5</ele><time>2026-05-02T08:01:52.001Z</time></trkpt><trkpt lat="41.08227711602047" lon="9.375902779494808"><ele>87.75</ele><time>2026-05-02T08:01:53.001Z</time></trkpt><trkpt lat="41.08218907051602" lon="9.376015731464499"><ele>85.0</ele><time>2026-05-02T08:01:54.001Z</time></trkpt><trkpt lat="41.08210833394663" lon="9.37613503088084"><ele>85.0</ele><time>2026-05-02T08:01:55.001Z</time></trkpt><trkpt lat="41.08203875708377" lon="9.376261733429388"><ele>85.0</ele><time>2026-05-02T08:01:56.001Z</time></trkpt><trkpt lat="41.08199316791362" lon="9.376393989209763"><ele>85.0</ele><time>2026-05-02T08:01:57.001Z</time></trkpt><trkpt lat="41.08195662400776" lon="9.376534882038136"><ele>85.0</ele><time>2026-05-02T08:01:58.001Z</time></trkpt><trkpt lat="41.08192107746169" lon="9.376681212563575"><ele>85.2</ele><time>2026-05-02T08:01:59.001Z</time></trkpt><trkpt lat="41.08189651415057" lon="9.376813546248798"><ele>85.4</ele><time>2026-05-02T08:02:00.001Z</time></trkpt><trkpt lat="41.08187686414801" lon="9.376941059344722"><ele>85.6</ele><time>2026-05-02T08:02:01.001Z</time></trkpt><trkpt lat="41.08185771941245" lon="9.377057650949794"><ele>85.8</ele><time>2026-05-02T08:02:02.001Z</time></trkpt><trkpt lat="41.08183947230068" lon="9.3771673646657"><ele>86.0</ele><time>2026-05-02T08:02:03.001Z</time></trkpt><trkpt lat="41.08182089456218" lon="9.377276711296458"><ele>86.0</ele><time>2026-05-02T08:02:04.001Z</time></trkpt><trkpt lat="41.081802540472616" lon="9.377377462440608"><ele>86.0</ele><time>2026-05-02T08:02:05.001Z</time></trkpt><trkpt lat="41.08178368190578" lon="9.37747072427874"><ele>86.0</ele><time>2026-05-02T08:02:06.001Z</time></trkpt><trkpt lat="41.08175783153678" lon="9.37761797946444"><ele>86.0</ele><time>2026-05-02T08:02:08.001Z</time></trkpt><trkpt lat="41.0817630865175" lon="9.377720016828711"><ele>86.0</ele><time>2026-05-02T08:04:14.001Z</time></trkpt><trkpt lat="41.08174813316792" lon="9.377803199213298"><ele>86.0</ele><time>2026-05-02T08:04:16.001Z</time></trkpt><trkpt lat="41.0816671477494" lon="9.377784502226143"><ele>86.0</ele><time>2026-05-02T08:04:19.001Z</time></trkpt><trkpt lat="41.081662435690546" lon="9.377685077314785"><ele>86.0</ele><time>2026-05-02T08:04:21.001Z</time></trkpt><trkpt lat="41.081653069248496" lon="9.37756184693616"><ele>86.0</ele><time>2026-05-02T08:04:24.001Z</time></trkpt><trkpt lat="41.08159727980675" lon="9.377419580238866"><ele>86.0</ele><time>2026-05-02T08:04:26.001Z</time></trkpt><trkpt lat="41.08156538136726" lon="9.377334685455127"><ele>86.0</ele><time>2026-05-02T08:04:27.001Z</time></trkpt><trkpt lat="41.081534525440105" lon="9.377231022974476"><ele>86.0</ele><time>2026-05-02T08:04:28.001Z</time></trkpt><trkpt lat="41.08150001101239" lon="9.377111289436131"><ele>84.6</ele><time>2026-05-02T08:04:29.001Z</time></trkpt><trkpt lat="41.08146862965892" lon="9.376991475250795"><ele>83.19999999999999</ele><time>2026-05-02T08:04:30.001Z</time></trkpt><trkpt lat="41.0814346027234" lon="9.376864503237885"><ele>81.80000000000001</ele><time>2026-05-02T08:04:31.001Z</time></trkpt><trkpt lat="41.08140690157349" lon="9.376727248815202"><ele>80.4</ele><time>2026-05-02T08:04:32.001Z</time></trkpt><trkpt lat="41.081381689343715" lon="9.376580393670144"><ele>79.0</ele><time>2026-05-02T08:04:33.001Z</time></trkpt><trkpt lat="41.08135838223953" lon="9.376433685988959"><ele>78.5</ele><time>2026-05-02T08:04:34.001Z</time></trkpt><trkpt lat="41.08133515968398" lon="9.376277472549692"><ele>78.0</ele><time>2026-05-02T08:04:35.001Z</time></trkpt><trkpt lat="41.081315203919424" lon="9.376116229281477"><ele>77.5</ele><time>2026-05-02T08:04:35.998Z</time></trkpt><trkpt lat="41.081292550000626" lon="9.375946611781709"><ele>77.0</ele><time>2026-05-02T08:04:36.998Z</time></trkpt><trkpt lat="41.08127126400723" lon="9.375780833032579"><ele>77.0</ele><time>2026-05-02T08:04:37.998Z</time></trkpt><trkpt lat="41.08124571416595" lon="9.375624248514432"><ele>77.0</ele><time>2026-05-02T08:04:38.998Z</time></trkpt><trkpt lat="41.08122343073973" lon="9.37546480872369"><ele>77.0</ele><time>2026-05-02T08:04:39.998Z</time></trkpt><trkpt lat="41.08120400510023" lon="9.375309402082097"><ele>77.0</ele><time>2026-05-02T08:04:40.998Z</time></trkpt><trkpt lat="41.081186253553994" lon="9.375168068834267"><ele>77.16666666666667</ele><time>2026-05-02T08:04:41.998Z</time></trkpt><trkpt lat="41.08116840944377" lon="9.375037697285268"><ele>77.33333333333334</ele><time>2026-05-02T08:04:42.998Z</time></trkpt><trkpt lat="41.08114982124858" lon="9.374921466302085"><ele>77.5</ele><time>2026-05-02T08:04:43.998Z</time></trkpt><trkpt lat="41.08112762568617" lon="9.374816610259142"><ele>77.66666666666667</ele><time>2026-05-02T08:04:44.998Z</time></trkpt><trkpt lat="41.08109587569629" lon="9.374728258786382"><ele>77.83333333333333</ele><time>2026-05-02T08:04:45.998Z</time></trkpt><trkpt lat="41.08105697273439" lon="9.374661457435149"><ele>78.0</ele><time>2026-05-02T08:04:46.998Z</time></trkpt><trkpt lat="41.08100133910462" lon="9.374602975719553"><ele>78.4</ele><time>2026-05-02T08:04:47.998Z</time></trkpt><trkpt lat="41.080923024577345" lon="9.37457385765939"><ele>78.8</ele><time>2026-05-02T08:04:48.998Z</time></trkpt><trkpt lat="41.08082492778242" lon="9.37456255953774"><ele>79.2</ele><time>2026-05-02T08:04:49.998Z</time></trkpt><trkpt lat="41.08071066083825" lon="9.374542146910047"><ele>79.6</ele><time>2026-05-02T08:04:50.998Z</time></trkpt><trkpt lat="41.08059043987935" lon="9.374501466854648"><ele>80.0</ele><time>2026-05-02T08:04:51.998Z</time></trkpt><trkpt lat="41.080465210386414" lon="9.374451663406537"><ele>80.0</ele><time>2026-05-02T08:04:52.999Z</time></trkpt><trkpt lat="41.08034211020823" lon="9.37440017482148"><ele>80.0</ele><time>2026-05-02T08:04:53.999Z</time></trkpt><trkpt lat="41.08021610512495" lon="9.374345255134177"><ele>80.0</ele><time>2026-05-02T08:04:54.999Z</time></trkpt><trkpt lat="41.0800806216163" lon="9.374283287718287"><ele>80.0</ele><time>2026-05-02T08:04:55.999Z</time></trkpt><trkpt lat="41.079952066594" lon="9.374224865798473"><ele>78.75</ele><time>2026-05-02T08:04:56.999Z</time></trkpt><trkpt lat="41.07981840359189" lon="9.374162349300896"><ele>77.5</ele><time>2026-05-02T08:04:57.999Z</time></trkpt><trkpt lat="41.07967714525926" lon="9.374099494956207"><ele>76.25</ele><time>2026-05-02T08:04:58.999Z</time></trkpt><trkpt lat="41.07953546401332" lon="9.374034314421193"><ele>75.0</ele><time>2026-05-02T08:04:59.999Z</time></trkpt><trkpt lat="41.079392356285645" lon="9.373968457477295"><ele>75.0</ele><time>2026-05-02T08:05:00.999Z</time></trkpt><trkpt lat="41.079235894693284" lon="9.373900920511806"><ele>75.0</ele><time>2026-05-02T08:05:01.999Z</time></trkpt><trkpt lat="41.07906861583491" lon="9.373832007691858"><ele>75.0</ele><time>2026-05-02T08:05:02.999Z</time></trkpt><trkpt lat="41.07890081728504" lon="9.373762400310632"><ele>74.66666666666667</ele><time>2026-05-02T08:05:03.999Z</time></trkpt><trkpt lat="41.07873819604272" lon="9.373695567060206"><ele>74.33333333333334</ele><time>2026-05-02T08:05:04.999Z</time></trkpt><trkpt lat="41.078578922582096" lon="9.373628660076307"><ele>74.0</ele><time>2026-05-02T08:05:05.999Z</time></trkpt><trkpt lat="41.07842799309811" lon="9.373559682041527"><ele>74.0</ele><time>2026-05-02T08:05:06.999Z</time></trkpt><trkpt lat="41.07828038398426" lon="9.373491682189071"><ele>74.0</ele><time>2026-05-02T08:05:07.999Z</time></trkpt><trkpt lat="41.07813558562483" lon="9.37342500898939"><ele>74.0</ele><time>2026-05-02T08:05:08.999Z</time></trkpt><trkpt lat="41.07798705356251" lon="9.373360250804833"><ele>73.0</ele><time>2026-05-02T08:05:09.999Z</time></trkpt><trkpt lat="41.077836363260985" lon="9.373295060717025"><ele>72.0</ele><time>2026-05-02T08:05:10.999Z</time></trkpt><trkpt lat="41.077688843704244" lon="9.373226441523018"><ele>71.0</ele><time>2026-05-02T08:05:11.999Z</time></trkpt><trkpt lat="41.077545750228275" lon="9.373160778930831"><ele>70.5</ele><time>2026-05-02T08:05:12.999Z</time></trkpt><trkpt lat="41.077403554338936" lon="9.373111029433453"><ele>70.0</ele><time>2026-05-02T08:05:13.999Z</time></trkpt><trkpt lat="41.07726532453605" lon="9.373077246156884"><ele>69.5</ele><time>2026-05-02T08:05:14.999Z</time></trkpt><trkpt lat="41.077131326078764" lon="9.373068806003326"><ele>69.0</ele><time>2026-05-02T08:05:15.999Z</time></trkpt><trkpt lat="41.07700023533638" lon="9.373080649400835"><ele>69.0</ele><time>2026-05-02T08:05:16.999Z</time></trkpt><trkpt lat="41.07687617109138" lon="9.37312402841352"><ele>69.0</ele><time>2026-05-02T08:05:17.999Z</time></trkpt><trkpt lat="41.076755951771474" lon="9.3731939214445"><ele>69.0</ele><time>2026-05-02T08:05:18.999Z</time></trkpt><trkpt lat="41.07664305249334" lon="9.373285953097371"><ele>69.0</ele><time>2026-05-02T08:05:20Z</time></trkpt><trkpt lat="41.07653855331314" lon="9.373405569892645"><ele>69.0</ele><time>2026-05-02T08:05:21Z</time></trkpt><trkpt lat="41.076446142042464" lon="9.373545820372234"><ele>69.0</ele><time>2026-05-02T08:05:22Z</time></trkpt><trkpt lat="41.07636833742782" lon="9.37370931967633"><ele>69.0</ele><time>2026-05-02T08:05:23Z</time></trkpt><trkpt lat="41.076302582494584" lon="9.373887678308387"><ele>69.0</ele><time>2026-05-02T08:05:24Z</time></trkpt><trkpt lat="41.07624222515112" lon="9.374075711927004"><ele>69.0</ele><time>2026-05-02T08:05:25Z</time></trkpt><trkpt lat="41.07618476905105" lon="9.374264039160796"><ele>69.0</ele><time>2026-05-02T08:05:26Z</time></trkpt><trkpt lat="41.07612504492583" lon="9.37444592929788"><ele>69.0</ele><time>2026-05-02T08:05:27Z</time></trkpt><trkpt lat="41.07606373206703" lon="9.374623968935465"><ele>69.5</ele><time>2026-05-02T08:05:28Z</time></trkpt><trkpt lat="41.07599265551328" lon="9.374797811881935"><ele>70.0</ele><time>2026-05-02T08:05:29Z</time></trkpt><trkpt lat="41.07591242055243" lon="9.374966467378462"><ele>70.5</ele><time>2026-05-02T08:05:30Z</time></trkpt><trkpt lat="41.0758262417092" lon="9.375123678139236"><ele>71.0</ele><time>2026-05-02T08:05:31Z</time></trkpt><trkpt lat="41.07572870512456" lon="9.375262751397717"><ele>71.0</ele><time>2026-05-02T08:05:32Z</time></trkpt><trkpt lat="41.07562079727478" lon="9.375387630375915"><ele>71.0</ele><time>2026-05-02T08:05:33Z</time></trkpt><trkpt lat="41.07550253784066" lon="9.37549785218764"><ele>71.0</ele><time>2026-05-02T08:05:34Z</time></trkpt><trkpt lat="41.075376043740754" lon="9.37559009359861"><ele>71.0</ele><time>2026-05-02T08:05:35Z</time></trkpt><trkpt lat="41.07524013338602" lon="9.375664189490532"><ele>69.25</ele><time>2026-05-02T08:05:36Z</time></trkpt><trkpt lat="41.07509823928365" lon="9.375711604887814"><ele>67.5</ele><time>2026-05-02T08:05:37Z</time></trkpt><trkpt lat="41.07495234882105" lon="9.375737019647516"><ele>65.75</ele><time>2026-05-02T08:05:38Z</time></trkpt><trkpt lat="41.07480462303559" lon="9.37574600030624"><ele>64.0</ele><time>2026-05-02T08:05:39Z</time></trkpt><trkpt lat="41.07464839505412" lon="9.3757341899713"><ele>62.666666666666664</ele><time>2026-05-02T08:05:40Z</time></trkpt><trkpt lat="41.074486322656206" lon="9.375690724663402"><ele>61.33333333333333</ele><time>2026-05-02T08:05:41Z</time></trkpt><trkpt lat="41.074313279913135" lon="9.37562937037531"><ele>60.0</ele><time>2026-05-02T08:05:42Z</time></trkpt><trkpt lat="41.07414098282457" lon="9.375562131279638"><ele>60.0</ele><time>2026-05-02T08:05:43Z</time></trkpt><trkpt lat="41.07396248600478" lon="9.375488992062651"><ele>60.0</ele><time>2026-05-02T08:05:44Z</time></trkpt><trkpt lat="41.07378571557282" lon="9.375418952770715"><ele>60.0</ele><time>2026-05-02T08:05:45Z</time></trkpt><trkpt lat="41.073613611859145" lon="9.375351032676564"><ele>60.0</ele><time>2026-05-02T08:05:46Z</time></trkpt><trkpt lat="41.07344567022249" lon="9.37528366866906"><ele>60.0</ele><time>2026-05-02T08:05:47Z</time></trkpt><trkpt lat="41.0732818960567" lon="9.37522532402301"><ele>60.0</ele><time>2026-05-02T08:05:48Z</time></trkpt><trkpt lat="41.07312303633784" lon="9.375172023239612"><ele>59.25</ele><time>2026-05-02T08:05:49Z</time></trkpt><trkpt lat="41.07297390967377" lon="9.375136919099392"><ele>58.5</ele><time>2026-05-02T08:05:50Z</time></trkpt><trkpt lat="41.07282996687027" lon="9.375127449644376"><ele>57.75</ele><time>2026-05-02T08:05:51Z</time></trkpt><trkpt lat="41.072690357053645" lon="9.375136394571328"><ele>57.0</ele><time>2026-05-02T08:05:52Z</time></trkpt><trkpt lat="41.07255551181338" lon="9.375161273663124"><ele>56.25</ele><time>2026-05-02T08:05:53Z</time></trkpt><trkpt lat="41.072427074031275" lon="9.37519788506284"><ele>55.5</ele><time>2026-05-02T08:05:54Z</time></trkpt><trkpt lat="41.072304453588586" lon="9.37525423162302"><ele>54.75</ele><time>2026-05-02T08:05:55Z</time></trkpt><trkpt lat="41.07218643655592" lon="9.375328771859243"><ele>54.0</ele><time>2026-05-02T08:05:56Z</time></trkpt><trkpt lat="41.07207392426334" lon="9.37541529603185"><ele>54.0</ele><time>2026-05-02T08:05:57Z</time></trkpt><trkpt lat="41.07196542814936" lon="9.375516560761724"><ele>54.0</ele><time>2026-05-02T08:05:58Z</time></trkpt><trkpt lat="41.071868422170226" lon="9.375626856678819"><ele>54.0</ele><time>2026-05-02T08:05:59Z</time></trkpt><trkpt lat="41.07178703378942" lon="9.375729064376435"><ele>54.0</ele><time>2026-05-02T08:06:00Z</time></trkpt><trkpt lat="41.071720159270185" lon="9.375831866303304"><ele>53.333333333333336</ele><time>2026-05-02T08:06:01Z</time></trkpt><trkpt lat="41.071664226097475" lon="9.375926385112873"><ele>52.66666666666667</ele><time>2026-05-02T08:06:02Z</time></trkpt><trkpt lat="41.07161552251732" lon="9.376014407590473"><ele>52.0</ele><time>2026-05-02T08:06:03Z</time></trkpt><trkpt lat="41.07157241201258" lon="9.37609622054356"><ele>51.333333333333336</ele><time>2026-05-02T08:06:04Z</time></trkpt><trkpt lat="41.07153360440283" lon="9.376174029704352"><ele>50.66666666666667</ele><time>2026-05-02T08:06:05Z</time></trkpt><trkpt lat="41.07148936468151" lon="9.376256042615923"><ele>50.0</ele><time>2026-05-02T08:06:06Z</time></trkpt><trkpt lat="41.07144109266771" lon="9.376345573221544"><ele>49.2</ele><time>2026-05-02T08:06:07Z</time></trkpt><trkpt lat="41.07139201304931" lon="9.376445750410722"><ele>48.4</ele><time>2026-05-02T08:06:08Z</time></trkpt><trkpt lat="41.07134746591818" lon="9.376559664043222"><ele>47.599999999999994</ele><time>2026-05-02T08:06:09Z</time></trkpt><trkpt lat="41.071297679671346" lon="9.376683460143644"><ele>46.8</ele><time>2026-05-02T08:06:10Z</time></trkpt><trkpt lat="41.071233833157585" lon="9.376825209060597"><ele>46.0</ele><time>2026-05-02T08:06:11Z</time></trkpt><trkpt lat="41.07117349073258" lon="9.37695769456518"><ele>46.0</ele><time>2026-05-02T08:06:12Z</time></trkpt><trkpt lat="41.07110753447298" lon="9.377096415652407"><ele>46.0</ele><time>2026-05-02T08:06:13Z</time></trkpt><trkpt lat="41.071038612456015" lon="9.377243623436256"><ele>46.0</ele><time>2026-05-02T08:06:14Z</time></trkpt><trkpt lat="41.07095875881478" lon="9.377412482961608"><ele>46.0</ele><time>2026-05-02T08:06:15Z</time></trkpt><trkpt lat="41.07087262023564" lon="9.377601726299238"><ele>46.0</ele><time>2026-05-02T08:06:16Z</time></trkpt><trkpt lat="41.070776017144745" lon="9.37780877660678"><ele>46.0</ele><time>2026-05-02T08:06:17Z</time></trkpt><trkpt lat="41.070673195857815" lon="9.37802720673899"><ele>46.0</ele><time>2026-05-02T08:06:18Z</time></trkpt><trkpt lat="41.07056443944054" lon="9.3782590478608"><ele>44.66666666666667</ele><time>2026-05-02T08:06:19Z</time></trkpt><trkpt lat="41.070454304168166" lon="9.378495002125005"><ele>43.333333333333336</ele><time>2026-05-02T08:06:20Z</time></trkpt><trkpt lat="41.07034337468679" lon="9.378728562385623"><ele>42.0</ele><time>2026-05-02T08:06:21Z</time></trkpt><trkpt lat="41.07023714750067" lon="9.378957295071066"><ele>41.666666666666664</ele><time>2026-05-02T08:06:22Z</time></trkpt><trkpt lat="41.070135054578884" lon="9.379178157225047"><ele>41.33333333333333</ele><time>2026-05-02T08:06:23.001Z</time></trkpt><trkpt lat="41.07004019398055" lon="9.379383381492374"><ele>41.0</ele><time>2026-05-02T08:06:24.001Z</time></trkpt><trkpt lat="41.06994493987952" lon="9.379580440667372"><ele>39.33333333333333</ele><time>2026-05-02T08:06:25.001Z</time></trkpt><trkpt lat="41.06985175838157" lon="9.37976697390668"><ele>37.666666666666664</ele><time>2026-05-02T08:06:26.001Z</time></trkpt><trkpt lat="41.06976514569016" lon="9.379944907465394"><ele>36.0</ele><time>2026-05-02T08:06:27.001Z</time></trkpt><trkpt lat="41.06968681125084" lon="9.38011523404765"><ele>36.0</ele><time>2026-05-02T08:06:28.001Z</time></trkpt><trkpt lat="41.06961178767478" lon="9.380285881578933"><ele>36.0</ele><time>2026-05-02T08:06:29.001Z</time></trkpt><trkpt lat="41.069545703872826" lon="9.380456596096789"><ele>36.0</ele><time>2026-05-02T08:06:30.001Z</time></trkpt><trkpt lat="41.06949802750369" lon="9.380630154775963"><ele>36.0</ele><time>2026-05-02T08:06:31.001Z</time></trkpt><trkpt lat="41.06946603235516" lon="9.38080107901635"><ele>35.75</ele><time>2026-05-02T08:06:32.001Z</time></trkpt><trkpt lat="41.06944193838251" lon="9.3809688296514"><ele>35.5</ele><time>2026-05-02T08:06:33.001Z</time></trkpt><trkpt lat="41.06942862398775" lon="9.381129400004554"><ele>35.25</ele><time>2026-05-02T08:06:34.001Z</time></trkpt><trkpt lat="41.06941693952872" lon="9.38128218978631"><ele>35.0</ele><time>2026-05-02T08:06:35.001Z</time></trkpt><trkpt lat="41.06940690366476" lon="9.38142669846371"><ele>35.0</ele><time>2026-05-02T08:06:36.001Z</time></trkpt><trkpt lat="41.069385969400145" lon="9.381563767060037"><ele>35.0</ele><time>2026-05-02T08:06:37.001Z</time></trkpt><trkpt lat="41.06935278046167" lon="9.381691720461289"><ele>35.0</ele><time>2026-05-02T08:06:38.001Z</time></trkpt><trkpt lat="41.06931851081405" lon="9.381798947679997"><ele>35.0</ele><time>2026-05-02T08:06:39.001Z</time></trkpt><trkpt lat="41.06928657789127" lon="9.381893249205433"><ele>35.0</ele><time>2026-05-02T08:06:40.001Z</time></trkpt><trkpt lat="41.069254214990984" lon="9.381976363466558"><ele>35.0</ele><time>2026-05-02T08:06:41.001Z</time></trkpt><trkpt lat="41.06920713875836" lon="9.382051593869962"><ele>35.0</ele><time>2026-05-02T08:06:41.998Z</time></trkpt><trkpt lat="41.06914694145052" lon="9.382137764275251"><ele>35.0</ele><time>2026-05-02T08:06:42.998Z</time></trkpt><trkpt lat="41.069090153724304" lon="9.382235720763534"><ele>35.0</ele><time>2026-05-02T08:06:43.998Z</time></trkpt><trkpt lat="41.06906441016662" lon="9.382348785093363"><ele>35.0</ele><time>2026-05-02T08:06:44.998Z</time></trkpt><trkpt lat="41.06905833573673" lon="9.382483864445504"><ele>35.0</ele><time>2026-05-02T08:06:45.998Z</time></trkpt><trkpt lat="41.069086270334786" lon="9.382622351254998"><ele>34.0</ele><time>2026-05-02T08:06:46.998Z</time></trkpt><trkpt lat="41.069139394653305" lon="9.382777780555223"><ele>33.0</ele><time>2026-05-02T08:06:47.998Z</time></trkpt><trkpt lat="41.06919162142619" lon="9.382947116998476"><ele>32.0</ele><time>2026-05-02T08:06:48.998Z</time></trkpt><trkpt lat="41.069223203316184" lon="9.383132231338609"><ele>31.0</ele><time>2026-05-02T08:06:49.999Z</time></trkpt><trkpt lat="41.06923221125309" lon="9.383335626844886"><ele>31.0</ele><time>2026-05-02T08:06:50.999Z</time></trkpt><trkpt lat="41.06922399754442" lon="9.3835626309744"><ele>31.0</ele><time>2026-05-02T08:06:51.999Z</time></trkpt><trkpt lat="41.069204362775025" lon="9.383808294786572"><ele>31.0</ele><time>2026-05-02T08:06:52.999Z</time></trkpt><trkpt lat="41.069186378388295" lon="9.384044100109032"><ele>31.0</ele><time>2026-05-02T08:06:53.999Z</time></trkpt><trkpt lat="41.0691692532463" lon="9.384269219978261"><ele>31.0</ele><time>2026-05-02T08:06:54.999Z</time></trkpt><trkpt lat="41.06915576303922" lon="9.384482070184598"><ele>31.0</ele><time>2026-05-02T08:06:55.999Z</time></trkpt><trkpt lat="41.06914386630774" lon="9.384684573911544"><ele>31.0</ele><time>2026-05-02T08:06:56.999Z</time></trkpt><trkpt lat="41.069127199376446" lon="9.384883532680401"><ele>31.0</ele><time>2026-05-02T08:06:57.999Z</time></trkpt><trkpt lat="41.06910479634734" lon="9.385088827486722"><ele>31.0</ele><time>2026-05-02T08:06:58.999Z</time></trkpt><trkpt lat="41.06908460762071" lon="9.385296127293035"><ele>29.0</ele><time>2026-05-02T08:06:59.999Z</time></trkpt><trkpt lat="41.06906399796818" lon="9.385512171019473"><ele>27.0</ele><time>2026-05-02T08:07:00.999Z</time></trkpt><trkpt lat="41.0690410458436" lon="9.385737290531628"><ele>25.0</ele><time>2026-05-02T08:07:01.999Z</time></trkpt><trkpt lat="41.069013029557865" lon="9.385948294158405"><ele>25.0</ele><time>2026-05-02T08:07:02.999Z</time></trkpt><trkpt lat="41.06897888676047" lon="9.386154147161255"><ele>25.0</ele><time>2026-05-02T08:07:03.999Z</time></trkpt><trkpt lat="41.06894069513461" lon="9.386351987787597"><ele>25.0</ele><time>2026-05-02T08:07:04.999Z</time></trkpt><trkpt lat="41.06890400321119" lon="9.38653551466763"><ele>25.75</ele><time>2026-05-02T08:07:05.999Z</time></trkpt><trkpt lat="41.06886361642645" lon="9.3867152153355"><ele>26.5</ele><time>2026-05-02T08:07:06.999Z</time></trkpt><trkpt lat="41.06882388415345" lon="9.386888763928594"><ele>27.25</ele><time>2026-05-02T08:07:07.999Z</time></trkpt><trkpt lat="41.068783826903626" lon="9.387055666043777"><ele>28.0</ele><time>2026-05-02T08:07:08.999Z</time></trkpt><trkpt lat="41.06874661230848" lon="9.387217861133488"><ele>28.25</ele><time>2026-05-02T08:07:09.999Z</time></trkpt><trkpt lat="41.068710835405334" lon="9.387377553456748"><ele>28.5</ele><time>2026-05-02T08:07:11Z</time></trkpt><trkpt lat="41.06867476611089" lon="9.387537975118125"><ele>28.75</ele><time>2026-05-02T08:07:12Z</time></trkpt><trkpt lat="41.06863466042417" lon="9.387699728792297"><ele>29.0</ele><time>2026-05-02T08:07:13Z</time></trkpt><trkpt lat="41.06859547409732" lon="9.387856852015148"><ele>28.75</ele><time>2026-05-02T08:07:14Z</time></trkpt><trkpt lat="41.068556718649205" lon="9.388012159240938"><ele>28.5</ele><time>2026-05-02T08:07:15Z</time></trkpt><trkpt lat="41.06851773126751" lon="9.388167475152315"><ele>28.25</ele><time>2026-05-02T08:07:16Z</time></trkpt><trkpt lat="41.06848096527544" lon="9.388321215080339"><ele>28.0</ele><time>2026-05-02T08:07:17Z</time></trkpt><trkpt lat="41.06844597884059" lon="9.388469651893567"><ele>28.0</ele><time>2026-05-02T08:07:18Z</time></trkpt><trkpt lat="41.06841069001913" lon="9.38861100745463"><ele>28.0</ele><time>2026-05-02T08:07:19Z</time></trkpt><trkpt lat="41.06836996022355" lon="9.388769841934236"><ele>28.0</ele><time>2026-05-02T08:07:20Z</time></trkpt><trkpt lat="41.06832411387108" lon="9.388945297367579"><ele>28.0</ele><time>2026-05-02T08:07:21Z</time></trkpt><trkpt lat="41.06827099857532" lon="9.389130342359937"><ele>27.666666666666668</ele><time>2026-05-02T08:07:22Z</time></trkpt><trkpt lat="41.06820046650219" lon="9.389318798541058"><ele>27.333333333333336</ele><time>2026-05-02T08:07:23Z</time></trkpt><trkpt lat="41.0681104422211" lon="9.389511118965281"><ele>27.0</ele><time>2026-05-02T08:07:24Z</time></trkpt><trkpt lat="41.06799213562158" lon="9.38970113434488"><ele>27.0</ele><time>2026-05-02T08:07:25Z</time></trkpt><trkpt lat="41.06785928269652" lon="9.38988596001356"><ele>27.0</ele><time>2026-05-02T08:07:26Z</time></trkpt><trkpt lat="41.06772196789341" lon="9.390073534566753"><ele>27.0</ele><time>2026-05-02T08:07:27Z</time></trkpt><trkpt lat="41.067584340430024" lon="9.390266079981075"><ele>27.0</ele><time>2026-05-02T08:07:28Z</time></trkpt><trkpt lat="41.06745514389878" lon="9.390471020270464"><ele>27.0</ele><time>2026-05-02T08:07:29Z</time></trkpt><trkpt lat="41.06733534600897" lon="9.390693186840101"><ele>27.0</ele><time>2026-05-02T08:07:30Z</time></trkpt><trkpt lat="41.0672372518582" lon="9.390919150960922"><ele>26.333333333333336</ele><time>2026-05-02T08:07:31Z</time></trkpt><trkpt lat="41.067155373047655" lon="9.391143384751592"><ele>25.666666666666668</ele><time>2026-05-02T08:07:32Z</time></trkpt><trkpt lat="41.06708873668145" lon="9.391361988999058"><ele>25.0</ele><time>2026-05-02T08:07:33Z</time></trkpt><trkpt lat="41.067039297798466" lon="9.391563335017036"><ele>25.0</ele><time>2026-05-02T08:07:34Z</time></trkpt><trkpt lat="41.06700541134008" lon="9.391739557475505"><ele>25.0</ele><time>2026-05-02T08:07:35Z</time></trkpt><trkpt lat="41.06698749487509" lon="9.39188372627413"><ele>25.0</ele><time>2026-05-02T08:07:36Z</time></trkpt><trkpt lat="41.06697989644875" lon="9.391977036153422"><ele>25.0</ele><time>2026-05-02T08:07:37Z</time></trkpt><trkpt lat="41.0669682875401" lon="9.392089125167617"><ele>25.0</ele><time>2026-05-02T08:07:40Z</time></trkpt><trkpt lat="41.06696325977957" lon="9.392181291011196"><ele>24.2</ele><time>2026-05-02T08:07:41Z</time></trkpt><trkpt lat="41.06696513840504" lon="9.392298408253145"><ele>23.4</ele><time>2026-05-02T08:07:42Z</time></trkpt><trkpt lat="41.06697161826836" lon="9.392435919566594"><ele>22.6</ele><time>2026-05-02T08:07:43Z</time></trkpt><trkpt lat="41.066973142578334" lon="9.392595087843908"><ele>21.8</ele><time>2026-05-02T08:07:44Z</time></trkpt><trkpt lat="41.066968273746596" lon="9.392750620802843"><ele>21.0</ele><time>2026-05-02T08:07:45Z</time></trkpt><trkpt lat="41.0669552821495" lon="9.392919118532472"><ele>20.5</ele><time>2026-05-02T08:07:46Z</time></trkpt><trkpt lat="41.066934904534705" lon="9.3930852953132"><ele>20.0</ele><time>2026-05-02T08:07:47Z</time></trkpt><trkpt lat="41.06690179925094" lon="9.393251137147638"><ele>19.5</ele><time>2026-05-02T08:07:48Z</time></trkpt><trkpt lat="41.06685105930335" lon="9.393425994616141"><ele>19.0</ele><time>2026-05-02T08:07:49Z</time></trkpt><trkpt lat="41.0667876004015" lon="9.393615747721114"><ele>19.0</ele><time>2026-05-02T08:07:50Z</time></trkpt><trkpt lat="41.06671913461186" lon="9.393807325132409"><ele>19.0</ele><time>2026-05-02T08:07:51Z</time></trkpt><trkpt lat="41.06664298783673" lon="9.393999449571856"><ele>19.0</ele><time>2026-05-02T08:07:52Z</time></trkpt><trkpt lat="41.06655340389069" lon="9.394190030721381"><ele>18.666666666666664</ele><time>2026-05-02T08:07:53.001Z</time></trkpt><trkpt lat="41.066438205729305" lon="9.394372166147287"><ele>18.333333333333332</ele><time>2026-05-02T08:07:54.001Z</time></trkpt><trkpt lat="41.06630778137807" lon="9.394530171785307"><ele>18.0</ele><time>2026-05-02T08:07:55.001Z</time></trkpt><trkpt lat="41.066174050239034" lon="9.394665841042457"><ele>18.0</ele><time>2026-05-02T08:07:56.001Z</time></trkpt><trkpt lat="41.066052634421425" lon="9.394805678971515"><ele>18.0</ele><time>2026-05-02T08:07:57.001Z</time></trkpt><trkpt lat="41.06594328426274" lon="9.394966649242846"><ele>18.0</ele><time>2026-05-02T08:07:58.001Z</time></trkpt><trkpt lat="41.065847742039224" lon="9.395146707287946"><ele>17.666666666666668</ele><time>2026-05-02T08:07:59.001Z</time></trkpt><trkpt lat="41.06575888323807" lon="9.395341589001577"><ele>17.333333333333336</ele><time>2026-05-02T08:08:00.001Z</time></trkpt><trkpt lat="41.06567299399234" lon="9.39554994061012"><ele>17.0</ele><time>2026-05-02T08:08:01.001Z</time></trkpt><trkpt lat="41.06559293062674" lon="9.395759684276232"><ele>16.333333333333336</ele><time>2026-05-02T08:08:02.001Z</time></trkpt><trkpt lat="41.06551156269931" lon="9.395976466663626"><ele>15.666666666666668</ele><time>2026-05-02T08:08:03.001Z</time></trkpt><trkpt lat="41.06542761540953" lon="9.396202020450799"><ele>15.0</ele><time>2026-05-02T08:08:04.001Z</time></trkpt><trkpt lat="41.06534235801787" lon="9.396431821507665"><ele>14.666666666666668</ele><time>2026-05-02T08:08:05.001Z</time></trkpt><trkpt lat="41.06526001126978" lon="9.39665242379386"><ele>14.333333333333334</ele><time>2026-05-02T08:08:06.001Z</time></trkpt><trkpt lat="41.065179548944485" lon="9.396866399880572"><ele>14.0</ele><time>2026-05-02T08:08:07.001Z</time></trkpt><trkpt lat="41.065100766352685" lon="9.39707307062165"><ele>14.333333333333334</ele><time>2026-05-02T08:08:08.001Z</time></trkpt><trkpt lat="41.06502436613997" lon="9.397281340344064"><ele>14.666666666666668</ele><time>2026-05-02T08:08:09.001Z</time></trkpt><trkpt lat="41.064950863584855" lon="9.397482025315943"><ele>15.0</ele><time>2026-05-02T08:08:10.001Z</time></trkpt><trkpt lat="41.06488419059235" lon="9.397676140768292"><ele>15.0</ele><time>2026-05-02T08:08:11.001Z</time></trkpt><trkpt lat="41.06481880696024" lon="9.397871105011115"><ele>15.0</ele><time>2026-05-02T08:08:12.001Z</time></trkpt><trkpt lat="41.06475455627541" lon="9.398074435046453"><ele>15.0</ele><time>2026-05-02T08:08:13.001Z</time></trkpt><trkpt lat="41.064689412559815" lon="9.39828577766678"><ele>15.0</ele><time>2026-05-02T08:08:14.001Z</time></trkpt><trkpt lat="41.064626975869054" lon="9.398499202758641"><ele>15.0</ele><time>2026-05-02T08:08:15.001Z</time></trkpt><trkpt lat="41.06456567045909" lon="9.398711360916135"><ele>15.0</ele><time>2026-05-02T08:08:16.001Z</time></trkpt><trkpt lat="41.06450411080654" lon="9.398923767889398"><ele>14.666666666666668</ele><time>2026-05-02T08:08:17.001Z</time></trkpt><trkpt lat="41.06444330664831" lon="9.399139506965117"><ele>14.333333333333334</ele><time>2026-05-02T08:08:18.001Z</time></trkpt><trkpt lat="41.06437878523178" lon="9.39936441360678"><ele>14.0</ele><time>2026-05-02T08:08:19.001Z</time></trkpt><trkpt lat="41.06432385762774" lon="9.399599537015433"><ele>13.666666666666668</ele><time>2026-05-02T08:08:20.001Z</time></trkpt><trkpt lat="41.064287177911154" lon="9.399839871344774"><ele>13.333333333333332</ele><time>2026-05-02T08:08:21.001Z</time></trkpt><trkpt lat="41.06426330177783" lon="9.400092452994784"><ele>13.0</ele><time>2026-05-02T08:08:22.001Z</time></trkpt><trkpt lat="41.06424871782633" lon="9.400353627645044"><ele>13.0</ele><time>2026-05-02T08:08:23.001Z</time></trkpt><trkpt lat="41.06423607765315" lon="9.400619307921387"><ele>13.0</ele><time>2026-05-02T08:08:24.001Z</time></trkpt><trkpt lat="41.064221581033706" lon="9.40087589110392"><ele>13.0</ele><time>2026-05-02T08:08:25.001Z</time></trkpt><trkpt lat="41.06420965470718" lon="9.401088316606566"><ele>13.0</ele><time>2026-05-02T08:08:26.001Z</time></trkpt><trkpt lat="41.06420055302699" lon="9.401251351171782"><ele>13.0</ele><time>2026-05-02T08:08:27.001Z</time></trkpt><trkpt lat="41.06419323442149" lon="9.401364935618554"><ele>13.0</ele><time>2026-05-02T08:08:28.001Z</time></trkpt><trkpt lat="41.06418624909151" lon="9.401460814539107"><ele>13.0</ele><time>2026-05-02T08:08:29.001Z</time></trkpt><trkpt lat="41.06417938031309" lon="9.401577012135526"><ele>13.0</ele><time>2026-05-02T08:08:30.001Z</time></trkpt><trkpt lat="41.06417457797056" lon="9.401703405231505"><ele>13.25</ele><time>2026-05-02T08:08:31.001Z</time></trkpt><trkpt lat="41.06417520681798" lon="9.401839183366084"><ele>13.5</ele><time>2026-05-02T08:08:32.001Z</time></trkpt><trkpt lat="41.06417621819697" lon="9.401982712593206"><ele>13.75</ele><time>2026-05-02T08:08:33.001Z</time></trkpt><trkpt lat="41.06416814412972" lon="9.40213893608303"><ele>14.0</ele><time>2026-05-02T08:08:34.001Z</time></trkpt><trkpt lat="41.064149311447565" lon="9.402314480093914"><ele>14.0</ele><time>2026-05-02T08:08:35.001Z</time></trkpt><trkpt lat="41.06412309683826" lon="9.402500940569897"><ele>14.0</ele><time>2026-05-02T08:08:36.001Z</time></trkpt><trkpt lat="41.06408684077403" lon="9.402676977350831"><ele>14.0</ele><time>2026-05-02T08:08:37.001Z</time></trkpt><trkpt lat="41.06404317204042" lon="9.402859790431174"><ele>14.0</ele><time>2026-05-02T08:08:38.001Z</time></trkpt><trkpt lat="41.063997351339424" lon="9.403042140011108"><ele>14.0</ele><time>2026-05-02T08:08:39.001Z</time></trkpt><trkpt lat="41.06395216063922" lon="9.403220702967452"><ele>14.0</ele><time>2026-05-02T08:08:40.001Z</time></trkpt><trkpt lat="41.063905486066886" lon="9.403412875368186"><ele>14.0</ele><time>2026-05-02T08:08:41.001Z</time></trkpt><trkpt lat="41.06385861278809" lon="9.403604013897258"><ele>14.0</ele><time>2026-05-02T08:08:42.001Z</time></trkpt><trkpt lat="41.06381345677971" lon="9.403786136011723"><ele>13.75</ele><time>2026-05-02T08:08:43.001Z</time></trkpt><trkpt lat="41.06376813874507" lon="9.40396830930937"><ele>13.5</ele><time>2026-05-02T08:08:44.001Z</time></trkpt><trkpt lat="41.063721977641904" lon="9.404146746955707"><ele>13.25</ele><time>2026-05-02T08:08:45.001Z</time></trkpt><trkpt lat="41.06367733125326" lon="9.404320742313885"><ele>13.0</ele><time>2026-05-02T08:08:46.001Z</time></trkpt><trkpt lat="41.06363563379527" lon="9.404490596611138"><ele>13.0</ele><time>2026-05-02T08:08:47.002Z</time></trkpt><trkpt lat="41.06359414477661" lon="9.404656171241047"><ele>13.0</ele><time>2026-05-02T08:08:48Z</time></trkpt><trkpt lat="41.06355321678263" lon="9.404821229862318"><ele>13.0</ele><time>2026-05-02T08:08:49Z</time></trkpt><trkpt lat="41.06351188163513" lon="9.404986003366286"><ele>13.0</ele><time>2026-05-02T08:08:50Z</time></trkpt><trkpt lat="41.06346995041875" lon="9.405147539898595"><ele>13.0</ele><time>2026-05-02T08:08:51Z</time></trkpt><trkpt lat="41.06342692445128" lon="9.405307867036633"><ele>13.0</ele><time>2026-05-02T08:08:52Z</time></trkpt><trkpt lat="41.06338483579122" lon="9.40546706719685"><ele>13.0</ele><time>2026-05-02T08:08:53Z</time></trkpt><trkpt lat="41.06334338275762" lon="9.405628165982963"><ele>13.0</ele><time>2026-05-02T08:08:54Z</time></trkpt><trkpt lat="41.0633018307528" lon="9.405790449194098"><ele>12.75</ele><time>2026-05-02T08:08:55Z</time></trkpt><trkpt lat="41.06325964390187" lon="9.40595036251613"><ele>12.5</ele><time>2026-05-02T08:08:56Z</time></trkpt><trkpt lat="41.06321841837951" lon="9.406105446359204"><ele>12.25</ele><time>2026-05-02T08:08:57Z</time></trkpt><trkpt lat="41.06317565310711" lon="9.406262684241094"><ele>12.0</ele><time>2026-05-02T08:08:58Z</time></trkpt><trkpt lat="41.0631369301488" lon="9.406419913133023"><ele>11.75</ele><time>2026-05-02T08:08:59Z</time></trkpt><trkpt lat="41.06309883383176" lon="9.406574097368743"><ele>11.5</ele><time>2026-05-02T08:09:00Z</time></trkpt><trkpt lat="41.06305681260349" lon="9.406733850610307"><ele>11.25</ele><time>2026-05-02T08:09:01Z</time></trkpt><trkpt lat="41.06301273186912" lon="9.406901284050553"><ele>11.0</ele><time>2026-05-02T08:09:02Z</time></trkpt><trkpt lat="41.062968065967546" lon="9.407071199214704"><ele>11.0</ele><time>2026-05-02T08:09:03Z</time></trkpt><trkpt lat="41.06291878484126" lon="9.407246304728424"><ele>11.0</ele><time>2026-05-02T08:09:04Z</time></trkpt><trkpt lat="41.06286178240928" lon="9.407427595770864"><ele>11.0</ele><time>2026-05-02T08:09:05Z</time></trkpt><trkpt lat="41.06279944047427" lon="9.407617335860833"><ele>11.0</ele><time>2026-05-02T08:09:06Z</time></trkpt><trkpt lat="41.06273137522599" lon="9.407813461159213"><ele>11.333333333333332</ele><time>2026-05-02T08:09:07Z</time></trkpt><trkpt lat="41.0626572000102" lon="9.408021864963667"><ele>11.666666666666666</ele><time>2026-05-02T08:09:08Z</time></trkpt><trkpt lat="41.062578313877566" lon="9.40824775268904"><ele>12.0</ele><time>2026-05-02T08:09:09Z</time></trkpt><trkpt lat="41.06249234325596" lon="9.408490646162338"><ele>11.666666666666666</ele><time>2026-05-02T08:09:10Z</time></trkpt><trkpt lat="41.06239858215701" lon="9.408752585952936"><ele>11.333333333333332</ele><time>2026-05-02T08:09:11Z</time></trkpt><trkpt lat="41.06229961750561" lon="9.409024495820146"><ele>11.0</ele><time>2026-05-02T08:09:12Z</time></trkpt><trkpt lat="41.062195970066355" lon="9.409311485188471"><ele>11.0</ele><time>2026-05-02T08:09:13Z</time></trkpt><trkpt lat="41.062091950519935" lon="9.409602936357066"><ele>11.0</ele><time>2026-05-02T08:09:14Z</time></trkpt><trkpt lat="41.06198951535691" lon="9.409894514766293"><ele>11.0</ele><time>2026-05-02T08:09:15Z</time></trkpt><trkpt lat="41.06188880192103" lon="9.41017554003976"><ele>11.0</ele><time>2026-05-02T08:09:16Z</time></trkpt><trkpt lat="41.061792161353225" lon="9.410440497327876"><ele>11.333333333333332</ele><time>2026-05-02T08:09:17Z</time></trkpt><trkpt lat="41.06169752633057" lon="9.410701497502803"><ele>11.666666666666666</ele><time>2026-05-02T08:09:18Z</time></trkpt><trkpt lat="41.061601490143595" lon="9.410964434744608"><ele>12.0</ele><time>2026-05-02T08:09:19Z</time></trkpt><trkpt lat="41.06150863536775" lon="9.411220746289828"><ele>11.333333333333334</ele><time>2026-05-02T08:09:20Z</time></trkpt><trkpt lat="41.06142455317142" lon="9.411460502619478"><ele>10.666666666666668</ele><time>2026-05-02T08:09:21Z</time></trkpt><trkpt lat="41.061349783865495" lon="9.411679488396494"><ele>10.0</ele><time>2026-05-02T08:09:22Z</time></trkpt><trkpt lat="41.06128361370826" lon="9.411894108863171"><ele>10.0</ele><time>2026-05-02T08:09:23Z</time></trkpt><trkpt lat="41.06122715546418" lon="9.412115307706971"><ele>10.0</ele><time>2026-05-02T08:09:24Z</time></trkpt><trkpt lat="41.06118674958405" lon="9.412350398352517"><ele>10.0</ele><time>2026-05-02T08:09:25Z</time></trkpt><trkpt lat="41.061164828906904" lon="9.41258012884169"><ele>10.0</ele><time>2026-05-02T08:09:26Z</time></trkpt><trkpt lat="41.061161805511624" lon="9.412801561328434"><ele>10.0</ele><time>2026-05-02T08:09:27Z</time></trkpt><trkpt lat="41.06117735666322" lon="9.413022871547408"><ele>10.0</ele><time>2026-05-02T08:09:28Z</time></trkpt><trkpt lat="41.06121158969745" lon="9.413248211303817"><ele>10.0</ele><time>2026-05-02T08:09:29Z</time></trkpt><trkpt lat="41.06125992339239" lon="9.413471479064409"><ele>10.0</ele><time>2026-05-02T08:09:30Z</time></trkpt><trkpt lat="41.06131459836928" lon="9.413692775310095"><ele>10.0</ele><time>2026-05-02T08:09:31Z</time></trkpt><trkpt lat="41.06137018498145" lon="9.41391672041394"><ele>10.0</ele><time>2026-05-02T08:09:32.001Z</time></trkpt><trkpt lat="41.061425554169006" lon="9.41413461102996"><ele>10.0</ele><time>2026-05-02T08:09:33.001Z</time></trkpt><trkpt lat="41.061478571925086" lon="9.41434303004854"><ele>10.0</ele><time>2026-05-02T08:09:34.001Z</time></trkpt><trkpt lat="41.061531907187444" lon="9.41453629784466"><ele>9.75</ele><time>2026-05-02T08:09:35.001Z</time></trkpt><trkpt lat="41.06158454589656" lon="9.414720000016404"><ele>9.5</ele><time>2026-05-02T08:09:36.001Z</time></trkpt><trkpt lat="41.06163350394786" lon="9.414891693394804"><ele>9.25</ele><time>2026-05-02T08:09:37.001Z</time></trkpt><trkpt lat="41.06167833675877" lon="9.41505801533576"><ele>9.0</ele><time>2026-05-02T08:09:38.001Z</time></trkpt><trkpt lat="41.061719556302165" lon="9.41521452955965"><ele>9.2</ele><time>2026-05-02T08:09:39.001Z</time></trkpt><trkpt lat="41.06175856407248" lon="9.415363096797348"><ele>9.4</ele><time>2026-05-02T08:09:40.001Z</time></trkpt><trkpt lat="41.061796036723145" lon="9.415503303499971"><ele>9.6</ele><time>2026-05-02T08:09:41.001Z</time></trkpt><trkpt lat="41.06183187059109" lon="9.415634851686919"><ele>9.8</ele><time>2026-05-02T08:09:42.001Z</time></trkpt><trkpt lat="41.06186734193548" lon="9.415760204633584"><ele>10.0</ele><time>2026-05-02T08:09:43.001Z</time></trkpt><trkpt lat="41.061903560299456" lon="9.415894310389973"><ele>10.0</ele><time>2026-05-02T08:09:44.001Z</time></trkpt><trkpt lat="41.06193787792537" lon="9.416032676532012"><ele>10.0</ele><time>2026-05-02T08:09:45.001Z</time></trkpt><trkpt lat="41.061973092421624" lon="9.416174353253279"><ele>10.0</ele><time>2026-05-02T08:09:46.001Z</time></trkpt><trkpt lat="41.06200702402524" lon="9.416322819685007"><ele>10.0</ele><time>2026-05-02T08:09:47.001Z</time></trkpt><trkpt lat="41.06204227871568" lon="9.416468123502847"><ele>9.75</ele><time>2026-05-02T08:09:48.001Z</time></trkpt><trkpt lat="41.06208076361521" lon="9.416612150546573"><ele>9.5</ele><time>2026-05-02T08:09:49.001Z</time></trkpt><trkpt lat="41.06211917667696" lon="9.416756496885743"><ele>9.25</ele><time>2026-05-02T08:09:50.001Z</time></trkpt><trkpt lat="41.06215923006494" lon="9.416908735696053"><ele>9.0</ele><time>2026-05-02T08:09:51.001Z</time></trkpt><trkpt lat="41.062198926568186" lon="9.41706345853283"><ele>8.75</ele><time>2026-05-02T08:09:52.001Z</time></trkpt><trkpt lat="41.06223725301423" lon="9.417218960059342"><ele>8.5</ele><time>2026-05-02T08:09:53.001Z</time></trkpt><trkpt lat="41.062276549149125" lon="9.417380104355288"><ele>8.25</ele><time>2026-05-02T08:09:54.001Z</time></trkpt><trkpt lat="41.062318114416065" lon="9.417542296388568"><ele>8.0</ele><time>2026-05-02T08:09:55.001Z</time></trkpt><trkpt lat="41.06236097363795" lon="9.417705006175762"><ele>8.0</ele><time>2026-05-02T08:09:56.001Z</time></trkpt><trkpt lat="41.06240438891261" lon="9.417868434934247"><ele>8.0</ele><time>2026-05-02T08:09:57.001Z</time></trkpt><trkpt lat="41.06245188398425" lon="9.418034824188798"><ele>8.0</ele><time>2026-05-02T08:09:58.001Z</time></trkpt><trkpt lat="41.0625020584895" lon="9.418207947710027"><ele>8.0</ele><time>2026-05-02T08:09:59.001Z</time></trkpt><trkpt lat="41.06255289669884" lon="9.418385532449793"><ele>8.0</ele><time>2026-05-02T08:10:00.001Z</time></trkpt><trkpt lat="41.06260086470196" lon="9.41856842221405"><ele>8.0</ele><time>2026-05-02T08:10:01.001Z</time></trkpt><trkpt lat="41.06264638052472" lon="9.418743153973189"><ele>8.0</ele><time>2026-05-02T08:10:02.001Z</time></trkpt><trkpt lat="41.06268951608506" lon="9.418911647071512"><ele>8.0</ele><time>2026-05-02T08:10:03.001Z</time></trkpt><trkpt lat="41.062728459606504" lon="9.419075072595248"><ele>8.0</ele><time>2026-05-02T08:10:04.001Z</time></trkpt><trkpt lat="41.062761457661225" lon="9.419231914227376"><ele>8.0</ele><time>2026-05-02T08:10:05.001Z</time></trkpt><trkpt lat="41.0627878484546" lon="9.419385266861035"><ele>8.0</ele><time>2026-05-02T08:10:06.001Z</time></trkpt><trkpt lat="41.06281414512496" lon="9.41954260177977"><ele>8.0</ele><time>2026-05-02T08:10:07.001Z</time></trkpt><trkpt lat="41.06284084081588" lon="9.419706889194307"><ele>8.0</ele><time>2026-05-02T08:10:08.001Z</time></trkpt><trkpt lat="41.06286707231167" lon="9.419894331839958"><ele>8.0</ele><time>2026-05-02T08:10:09.001Z</time></trkpt><trkpt lat="41.062884281526344" lon="9.420099828926467"><ele>8.0</ele><time>2026-05-02T08:10:10.001Z</time></trkpt><trkpt lat="41.06289855932579" lon="9.42032282198911"><ele>7.666666666666666</ele><time>2026-05-02T08:10:11.001Z</time></trkpt><trkpt lat="41.06291144509359" lon="9.420547101218133"><ele>7.333333333333334</ele><time>2026-05-02T08:10:12.001Z</time></trkpt><trkpt lat="41.062925899949164" lon="9.420762925957986"><ele>7.0</ele><time>2026-05-02T08:10:13.001Z</time></trkpt><trkpt lat="41.06293845948583" lon="9.420989485533433"><ele>7.0</ele><time>2026-05-02T08:10:14.001Z</time></trkpt><trkpt lat="41.062954656117924" lon="9.421213082254756"><ele>7.0</ele><time>2026-05-02T08:10:15.001Z</time></trkpt><trkpt lat="41.062985399317114" lon="9.42143903187992"><ele>7.0</ele><time>2026-05-02T08:10:16.001Z</time></trkpt><trkpt lat="41.06302808079427" lon="9.421671253818777"><ele>7.0</ele><time>2026-05-02T08:10:17.001Z</time></trkpt><trkpt lat="41.0630838270183" lon="9.421902859296427"><ele>7.0</ele><time>2026-05-02T08:10:18.001Z</time></trkpt><trkpt lat="41.063140666238624" lon="9.422123916075625"><ele>7.0</ele><time>2026-05-02T08:10:19.001Z</time></trkpt><trkpt lat="41.063199967510585" lon="9.422335093742419"><ele>7.0</ele><time>2026-05-02T08:10:20.001Z</time></trkpt><trkpt lat="41.06325403615557" lon="9.422542888999502"><ele>7.0</ele><time>2026-05-02T08:10:21.001Z</time></trkpt><trkpt lat="41.06330204890448" lon="9.42274271507786"><ele>7.0</ele><time>2026-05-02T08:10:22.001Z</time></trkpt><trkpt lat="41.063345893166996" lon="9.422932740713714"><ele>7.5</ele><time>2026-05-02T08:10:23.001Z</time></trkpt><trkpt lat="41.06339200522498" lon="9.42311808865402"><ele>8.0</ele><time>2026-05-02T08:10:24.001Z</time></trkpt><trkpt lat="41.06343959432047" lon="9.423306324695478"><ele>8.5</ele><time>2026-05-02T08:10:25.002Z</time></trkpt><trkpt lat="41.06348664986154" lon="9.42349830454326"><ele>9.0</ele><time>2026-05-02T08:10:26.002Z</time></trkpt><trkpt lat="41.063532039995856" lon="9.423689134912136"><ele>9.0</ele><time>2026-05-02T08:10:27.002Z</time></trkpt><trkpt lat="41.0635771766059" lon="9.423882696364254"><ele>9.0</ele><time>2026-05-02T08:10:28.002Z</time></trkpt><trkpt lat="41.06362562121446" lon="9.424078047668637"><ele>9.0</ele><time>2026-05-02T08:10:29.002Z</time></trkpt><trkpt lat="41.06367650192203" lon="9.424275107651294"><ele>9.0</ele><time>2026-05-02T08:10:30.002Z</time></trkpt><trkpt lat="41.06373336029888" lon="9.424489379679764"><ele>9.0</ele><time>2026-05-02T08:10:31.002Z</time></trkpt><trkpt lat="41.06378443934731" lon="9.42469813226589"><ele>9.0</ele><time>2026-05-02T08:10:32.002Z</time></trkpt><trkpt lat="41.06383612985003" lon="9.424902992694017"><ele>8.666666666666666</ele><time>2026-05-02T08:10:33.002Z</time></trkpt><trkpt lat="41.0638962474221" lon="9.425123358229914"><ele>8.333333333333332</ele><time>2026-05-02T08:10:34.002Z</time></trkpt><trkpt lat="41.063965655514934" lon="9.425365923656084"><ele>8.0</ele><time>2026-05-02T08:10:35.002Z</time></trkpt><trkpt lat="41.06403353698487" lon="9.425621728000387"><ele>8.0</ele><time>2026-05-02T08:10:36.002Z</time></trkpt><trkpt lat="41.064094825580604" lon="9.42587320894872"><ele>8.0</ele><time>2026-05-02T08:10:37.002Z</time></trkpt><trkpt lat="41.06416067419785" lon="9.426141654480022"><ele>8.0</ele><time>2026-05-02T08:10:38.002Z</time></trkpt><trkpt lat="41.064224348850104" lon="9.426407190425433"><ele>8.333333333333332</ele><time>2026-05-02T08:10:39.002Z</time></trkpt><trkpt lat="41.064286846937314" lon="9.426661537435344"><ele>8.666666666666666</ele><time>2026-05-02T08:10:40.002Z</time></trkpt><trkpt lat="41.06435209778929" lon="9.42692450236172"><ele>9.0</ele><time>2026-05-02T08:10:41.002Z</time></trkpt><trkpt lat="41.064416074626244" lon="9.427182673912725"><ele>9.666666666666666</ele><time>2026-05-02T08:10:42.002Z</time></trkpt><trkpt lat="41.06447785309902" lon="9.42743297830614"><ele>10.333333333333332</ele><time>2026-05-02T08:10:43.002Z</time></trkpt><trkpt lat="41.06453384719319" lon="9.427675013175918"><ele>11.0</ele><time>2026-05-02T08:10:44.002Z</time></trkpt><trkpt lat="41.06458763441423" lon="9.427895405884863"><ele>10.0</ele><time>2026-05-02T08:10:45.002Z</time></trkpt><trkpt lat="41.06463527491944" lon="9.428100127611604"><ele>9.0</ele><time>2026-05-02T08:10:46.002Z</time></trkpt><trkpt lat="41.06468892180381" lon="9.428300993534437"><ele>8.0</ele><time>2026-05-02T08:10:47.002Z</time></trkpt><trkpt lat="41.064755768817975" lon="9.428527112227975"><ele>8.0</ele><time>2026-05-02T08:10:48.002Z</time></trkpt><trkpt lat="41.064820972380815" lon="9.428737750582673"><ele>8.0</ele><time>2026-05-02T08:10:49.002Z</time></trkpt><trkpt lat="41.0648841486693" lon="9.428933149708298"><ele>8.0</ele><time>2026-05-02T08:10:50.002Z</time></trkpt><trkpt lat="41.06493933655179" lon="9.429114020627082"><ele>8.0</ele><time>2026-05-02T08:10:51.002Z</time></trkpt><trkpt lat="41.06498895413685" lon="9.429275991821937"><ele>8.0</ele><time>2026-05-02T08:10:52.002Z</time></trkpt><trkpt lat="41.065029995582314" lon="9.429419313200874"><ele>8.0</ele><time>2026-05-02T08:10:53.002Z</time></trkpt><trkpt lat="41.06506737800281" lon="9.429555275991097"><ele>8.0</ele><time>2026-05-02T08:10:54.001Z</time></trkpt><trkpt lat="41.06509996293483" lon="9.429674987537066"><ele>8.0</ele><time>2026-05-02T08:10:55.001Z</time></trkpt><trkpt lat="41.06513072759408" lon="9.429779056500964"><ele>7.999999999999999</ele><time>2026-05-02T08:10:56.001Z</time></trkpt><trkpt lat="41.0651597510021" lon="9.429877501738238"><ele>8.0</ele><time>2026-05-02T08:10:57.001Z</time></trkpt><trkpt lat="41.065186277418526" lon="9.42997209765135"><ele>8.0</ele><time>2026-05-02T08:10:58.001Z</time></trkpt><trkpt lat="41.065206930658896" lon="9.430056592308908"><ele>7.999999999999999</ele><time>2026-05-02T08:10:59.001Z</time></trkpt><trkpt lat="41.0652238498582" lon="9.430142572286485"><ele>8.0</ele><time>2026-05-02T08:11:00.001Z</time></trkpt><trkpt lat="41.06523484113258" lon="9.430233647831397"><ele>8.0</ele><time>2026-05-02T08:11:01.001Z</time></trkpt><trkpt lat="41.06524190723557" lon="9.43032269205767"><ele>7.999999999999999</ele><time>2026-05-02T08:11:02.001Z</time></trkpt><trkpt lat="41.065244198278826" lon="9.430414114529237"><ele>8.0</ele><time>2026-05-02T08:11:03.001Z</time></trkpt><trkpt lat="41.06524436914009" lon="9.43051542615931"><ele>8.0</ele><time>2026-05-02T08:11:04.001Z</time></trkpt><trkpt lat="41.06523101596091" lon="9.430637489101537"><ele>8.0</ele><time>2026-05-02T08:11:05.001Z</time></trkpt><trkpt lat="41.06521364966352" lon="9.430755690234413"><ele>7.999999999999999</ele><time>2026-05-02T08:11:06.001Z</time></trkpt><trkpt lat="41.06519361103635" lon="9.430873992700601"><ele>8.0</ele><time>2026-05-02T08:11:07.001Z</time></trkpt><trkpt lat="41.06516584611099" lon="9.43100290207047"><ele>8.4</ele><time>2026-05-02T08:11:08.001Z</time></trkpt><trkpt lat="41.06512468692668" lon="9.431126911175372"><ele>8.8</ele><time>2026-05-02T08:11:09.001Z</time></trkpt><trkpt lat="41.065072366633956" lon="9.431249167291874"><ele>9.2</ele><time>2026-05-02T08:11:10.001Z</time></trkpt><trkpt lat="41.06500777337359" lon="9.43137138594154"><ele>9.6</ele><time>2026-05-02T08:11:11.001Z</time></trkpt><trkpt lat="41.064929144797404" lon="9.431491314148667"><ele>10.0</ele><time>2026-05-02T08:11:12.001Z</time></trkpt><trkpt lat="41.0648370379464" lon="9.431611351752014"><ele>10.0</ele><time>2026-05-02T08:11:13.001Z</time></trkpt><trkpt lat="41.06472724196935" lon="9.431737606514885"><ele>10.0</ele><time>2026-05-02T08:11:14.001Z</time></trkpt><trkpt lat="41.06460026568494" lon="9.431871856268883"><ele>10.0</ele><time>2026-05-02T08:11:15.001Z</time></trkpt><trkpt lat="41.06445981030668" lon="9.432015146052297"><ele>10.333333333333334</ele><time>2026-05-02T08:11:16.001Z</time></trkpt><trkpt lat="41.06430960939817" lon="9.432169105687066"><ele>10.666666666666666</ele><time>2026-05-02T08:11:17.001Z</time></trkpt><trkpt lat="41.06415230963474" lon="9.43232837965212"><ele>11.0</ele><time>2026-05-02T08:11:18.001Z</time></trkpt><trkpt lat="41.06398246675851" lon="9.432500176069382"><ele>11.0</ele><time>2026-05-02T08:11:19.001Z</time></trkpt><trkpt lat="41.06380026946239" lon="9.432683341161232"><ele>11.0</ele><time>2026-05-02T08:11:20.001Z</time></trkpt><trkpt lat="41.063612258008796" lon="9.432871969944696"><ele>11.5</ele><time>2026-05-02T08:11:21.001Z</time></trkpt><trkpt lat="41.06342245631725" lon="9.433052825075606"><ele>12.0</ele><time>2026-05-02T08:11:22.001Z</time></trkpt><trkpt lat="41.06323364069284" lon="9.433230652384667"><ele>12.0</ele><time>2026-05-02T08:11:23.001Z</time></trkpt><trkpt lat="41.06304623659998" lon="9.433418950040148"><ele>12.0</ele><time>2026-05-02T08:11:24.001Z</time></trkpt><trkpt lat="41.062857575158205" lon="9.43360896903328"><ele>12.0</ele><time>2026-05-02T08:11:25.001Z</time></trkpt><trkpt lat="41.06267904127205" lon="9.433793370288974"><ele>12.0</ele><time>2026-05-02T08:11:26.001Z</time></trkpt><trkpt lat="41.06250809297725" lon="9.433966218737151"><ele>12.0</ele><time>2026-05-02T08:11:27.001Z</time></trkpt><trkpt lat="41.062343016142734" lon="9.434134005265658"><ele>12.666666666666668</ele><time>2026-05-02T08:11:28.001Z</time></trkpt><trkpt lat="41.06218119117487" lon="9.434293944946564"><ele>13.333333333333334</ele><time>2026-05-02T08:11:29.001Z</time></trkpt><trkpt lat="41.062022059704404" lon="9.43446606259486"><ele>14.0</ele><time>2026-05-02T08:11:30.001Z</time></trkpt><trkpt lat="41.061846134873115" lon="9.434640069246115"><ele>14.0</ele><time>2026-05-02T08:11:31.001Z</time></trkpt><trkpt lat="41.061675869556005" lon="9.434815124423022"><ele>14.0</ele><time>2026-05-02T08:11:32.001Z</time></trkpt><trkpt lat="41.061513822850536" lon="9.43498101886146"><ele>14.0</ele><time>2026-05-02T08:11:33.001Z</time></trkpt><trkpt lat="41.0613587847686" lon="9.435138445842117"><ele>14.0</ele><time>2026-05-02T08:11:34.001Z</time></trkpt><trkpt lat="41.06120457811064" lon="9.435287936786425"><ele>14.0</ele><time>2026-05-02T08:11:35.001Z</time></trkpt><trkpt lat="41.06104984245036" lon="9.43543542333235"><ele>14.0</ele><time>2026-05-02T08:11:36.001Z</time></trkpt><trkpt lat="41.06089713780119" lon="9.43557205466309"><ele>15.666666666666668</ele><time>2026-05-02T08:11:37.001Z</time></trkpt><trkpt lat="41.060742344327494" lon="9.435694944383417"><ele>17.333333333333332</ele><time>2026-05-02T08:11:38.001Z</time></trkpt><trkpt lat="41.06058694913043" lon="9.435803570278733"><ele>19.0</ele><time>2026-05-02T08:11:39.001Z</time></trkpt><trkpt lat="41.0604275256356" lon="9.435885294179633"><ele>19.0</ele><time>2026-05-02T08:11:40.001Z</time></trkpt><trkpt lat="41.06026015612742" lon="9.43593862588323"><ele>19.0</ele><time>2026-05-02T08:11:41.001Z</time></trkpt><trkpt lat="41.06008110179838" lon="9.435957814712841"><ele>19.0</ele><time>2026-05-02T08:11:42.001Z</time></trkpt><trkpt lat="41.059891030353036" lon="9.43595078622025"><ele>18.666666666666664</ele><time>2026-05-02T08:11:43.001Z</time></trkpt><trkpt lat="41.059693666464824" lon="9.435919885518746"><ele>18.333333333333332</ele><time>2026-05-02T08:11:44.001Z</time></trkpt><trkpt lat="41.05949287197415" lon="9.43587916695316"><ele>18.0</ele><time>2026-05-02T08:11:45.001Z</time></trkpt><trkpt lat="41.05928088097285" lon="9.435836079217754"><ele>20.333333333333336</ele><time>2026-05-02T08:11:46.001Z</time></trkpt><trkpt lat="41.05907190054917" lon="9.43579272902255"><ele>22.666666666666668</ele><time>2026-05-02T08:11:47.001Z</time></trkpt><trkpt lat="41.05887979298399" lon="9.43575404881765"><ele>25.0</ele><time>2026-05-02T08:11:48.001Z</time></trkpt><trkpt lat="41.0586990215033" lon="9.435721642061662"><ele>25.0</ele><time>2026-05-02T08:11:49.001Z</time></trkpt><trkpt lat="41.058533397247146" lon="9.43569237611575"><ele>25.0</ele><time>2026-05-02T08:11:50.001Z</time></trkpt><trkpt lat="41.05838046914564" lon="9.435665131275272"><ele>25.0</ele><time>2026-05-02T08:11:51.001Z</time></trkpt><trkpt lat="41.058223603239526" lon="9.435635269366527"><ele>25.0</ele><time>2026-05-02T08:11:52.001Z</time></trkpt><trkpt lat="41.058067201650886" lon="9.435581652816051"><ele>25.0</ele><time>2026-05-02T08:11:53.001Z</time></trkpt><trkpt lat="41.05792223196482" lon="9.435492419750123"><ele>25.0</ele><time>2026-05-02T08:11:54.001Z</time></trkpt><trkpt lat="41.05776831927401" lon="9.435385400786739"><ele>25.0</ele><time>2026-05-02T08:11:55.001Z</time></trkpt><trkpt lat="41.0576067863358" lon="9.435269194790243"><ele>25.0</ele><time>2026-05-02T08:11:56.001Z</time></trkpt><trkpt lat="41.05744452655734" lon="9.435158101128753"><ele>25.0</ele><time>2026-05-02T08:11:57.001Z</time></trkpt><trkpt lat="41.05728338439673" lon="9.435063993948617"><ele>24.0</ele><time>2026-05-02T08:11:58.001Z</time></trkpt><trkpt lat="41.05711387246797" lon="9.434978657376465"><ele>23.0</ele><time>2026-05-02T08:11:59.001Z</time></trkpt><trkpt lat="41.05693834422109" lon="9.43489478774429"><ele>22.0</ele><time>2026-05-02T08:12:00.001Z</time></trkpt><trkpt lat="41.05677184218185" lon="9.43481674810393"><ele>23.0</ele><time>2026-05-02T08:12:01.001Z</time></trkpt><trkpt lat="41.05661578436307" lon="9.434739767328619"><ele>24.0</ele><time>2026-05-02T08:12:02.001Z</time></trkpt><trkpt lat="41.05646205452752" lon="9.434667369797967"><ele>25.0</ele><time>2026-05-02T08:12:03.001Z</time></trkpt><trkpt lat="41.05631046257336" lon="9.434617127504037"><ele>21.666666666666668</ele><time>2026-05-02T08:12:04.001Z</time></trkpt><trkpt lat="41.05615143082938" lon="9.434598280898456"><ele>18.333333333333336</ele><time>2026-05-02T08:12:05.001Z</time></trkpt><trkpt lat="41.05598539839305" lon="9.434599822247483"><ele>15.0</ele><time>2026-05-02T08:12:06.001Z</time></trkpt><trkpt lat="41.055816523029975" lon="9.434610184338995"><ele>15.333333333333332</ele><time>2026-05-02T08:12:07.001Z</time></trkpt><trkpt lat="41.05564503384493" lon="9.434621915382033"><ele>15.666666666666666</ele><time>2026-05-02T08:12:08.001Z</time></trkpt><trkpt lat="41.05547359192667" lon="9.434631300198065"><ele>16.0</ele><time>2026-05-02T08:12:09.001Z</time></trkpt><trkpt lat="41.05530378359798" lon="9.434637721093033"><ele>16.0</ele><time>2026-05-02T08:12:10.002Z</time></trkpt><trkpt lat="41.05513593238671" lon="9.434636661888304"><ele>16.0</ele><time>2026-05-02T08:12:11.002Z</time></trkpt><trkpt lat="41.05497079856972" lon="9.434628625610832"><ele>16.0</ele><time>2026-05-02T08:12:12.002Z</time></trkpt><trkpt lat="41.05481074531455" lon="9.43462077811652"><ele>16.0</ele><time>2026-05-02T08:12:13.002Z</time></trkpt><trkpt lat="41.054659730380706" lon="9.434610743385427"><ele>16.0</ele><time>2026-05-02T08:12:14.002Z</time></trkpt><trkpt lat="41.054516467043214" lon="9.434602321700579"><ele>16.0</ele><time>2026-05-02T08:12:15.002Z</time></trkpt><trkpt lat="41.0543803079036" lon="9.434594790981425"><ele>16.0</ele><time>2026-05-02T08:12:16.002Z</time></trkpt><trkpt lat="41.05425409309596" lon="9.434586946084584"><ele>16.0</ele><time>2026-05-02T08:12:17.002Z</time></trkpt><trkpt lat="41.054124607785646" lon="9.434581450102689"><ele>16.0</ele><time>2026-05-02T08:12:18.002Z</time></trkpt><trkpt lat="41.05399473527373" lon="9.434573231547633"><ele>16.0</ele><time>2026-05-02T08:12:19.002Z</time></trkpt><trkpt lat="41.05384850923546" lon="9.434562478903802"><ele>16.0</ele><time>2026-05-02T08:12:20.002Z</time></trkpt><trkpt lat="41.053692647750836" lon="9.434542646004571"><ele>16.0</ele><time>2026-05-02T08:12:21.002Z</time></trkpt><trkpt lat="41.05353744021764" lon="9.43451419779024"><ele>16.0</ele><time>2026-05-02T08:12:22.002Z</time></trkpt><trkpt lat="41.05337600626996" lon="9.434475541005497"><ele>16.0</ele><time>2026-05-02T08:12:23.002Z</time></trkpt><trkpt lat="41.05320530933634" lon="9.434437053760062"><ele>16.333333333333332</ele><time>2026-05-02T08:12:24.002Z</time></trkpt><trkpt lat="41.053041121140396" lon="9.434407843379182"><ele>16.666666666666668</ele><time>2026-05-02T08:12:25.002Z</time></trkpt><trkpt lat="41.052872614955746" lon="9.434402132266879"><ele>17.0</ele><time>2026-05-02T08:12:26.002Z</time></trkpt><trkpt lat="41.052697995664936" lon="9.434436587573304"><ele>17.0</ele><time>2026-05-02T08:12:27.002Z</time></trkpt><trkpt lat="41.052519212767805" lon="9.43450263615569"><ele>17.0</ele><time>2026-05-02T08:12:28.002Z</time></trkpt><trkpt lat="41.05233984766149" lon="9.434585960687413"><ele>17.0</ele><time>2026-05-02T08:12:29.002Z</time></trkpt><trkpt lat="41.05216033851525" lon="9.434679141928743"><ele>19.333333333333336</ele><time>2026-05-02T08:12:30.002Z</time></trkpt><trkpt lat="41.05198413689852" lon="9.434769051192593"><ele>21.666666666666668</ele><time>2026-05-02T08:12:31.002Z</time></trkpt><trkpt lat="41.05182708758903" lon="9.434838130680651"><ele>24.0</ele><time>2026-05-02T08:12:32.002Z</time></trkpt><trkpt lat="41.051675673649925" lon="9.434882866064537"><ele>22.0</ele><time>2026-05-02T08:12:33.002Z</time></trkpt><trkpt lat="41.05151449420807" lon="9.434894102872486"><ele>20.0</ele><time>2026-05-02T08:12:34.002Z</time></trkpt><trkpt lat="41.051354206876944" lon="9.434870727905706"><ele>18.0</ele><time>2026-05-02T08:12:35.002Z</time></trkpt><trkpt lat="41.05121166511175" lon="9.434845471777958"><ele>18.0</ele><time>2026-05-02T08:12:36.002Z</time></trkpt><trkpt lat="41.05108267102012" lon="9.434849767488068"><ele>18.0</ele><time>2026-05-02T08:12:37.002Z</time></trkpt><trkpt lat="41.050961755087066" lon="9.434890176166295"><ele>18.0</ele><time>2026-05-02T08:12:38.002Z</time></trkpt><trkpt lat="41.05085240575939" lon="9.434976599395718"><ele>18.0</ele><time>2026-05-02T08:12:39.002Z</time></trkpt><trkpt lat="41.050761675209586" lon="9.435107015087544"><ele>17.666666666666668</ele><time>2026-05-02T08:12:40.002Z</time></trkpt><trkpt lat="41.050683366814425" lon="9.435274576148414"><ele>17.333333333333336</ele><time>2026-05-02T08:12:41.002Z</time></trkpt><trkpt lat="41.05061064387642" lon="9.435471573307426"><ele>17.0</ele><time>2026-05-02T08:12:42.002Z</time></trkpt><trkpt lat="41.050543691884556" lon="9.435679903482512"><ele>17.0</ele><time>2026-05-02T08:12:43.002Z</time></trkpt><trkpt lat="41.0504755865169" lon="9.43586586216534"><ele>17.0</ele><time>2026-05-02T08:12:44.002Z</time></trkpt><trkpt lat="41.05040216067029" lon="9.43601848819397"><ele>17.0</ele><time>2026-05-02T08:12:45.002Z</time></trkpt><trkpt lat="41.05031673996467" lon="9.43613206895398"><ele>17.0</ele><time>2026-05-02T08:12:46.002Z</time></trkpt><trkpt lat="41.05021952836963" lon="9.436203475293274"><ele>17.0</ele><time>2026-05-02T08:12:47.002Z</time></trkpt><trkpt lat="41.0501109994353" lon="9.436231267035414"><ele>17.0</ele><time>2026-05-02T08:12:48.002Z</time></trkpt><trkpt lat="41.04999068657338" lon="9.436223049417661"><ele>17.0</ele><time>2026-05-02T08:12:49.002Z</time></trkpt><trkpt lat="41.04985232008112" lon="9.436185311289048"><ele>17.0</ele><time>2026-05-02T08:12:50.002Z</time></trkpt><trkpt lat="41.04970229057037" lon="9.436139860235572"><ele>17.333333333333336</ele><time>2026-05-02T08:12:51.002Z</time></trkpt><trkpt lat="41.04954098021579" lon="9.436089028063916"><ele>17.666666666666668</ele><time>2026-05-02T08:12:52.002Z</time></trkpt><trkpt lat="41.04937056087685" lon="9.436035952581934"><ele>18.0</ele><time>2026-05-02T08:12:53.002Z</time></trkpt><trkpt lat="41.049188854077705" lon="9.435979903299417"><ele>18.666666666666668</ele><time>2026-05-02T08:12:54.002Z</time></trkpt><trkpt lat="41.04900003048555" lon="9.4359179315674"><ele>19.333333333333336</ele><time>2026-05-02T08:12:55.002Z</time></trkpt><trkpt lat="41.04880897960052" lon="9.435854281906225"><ele>20.0</ele><time>2026-05-02T08:12:56.002Z</time></trkpt><trkpt lat="41.04863362826176" lon="9.435795263563637"><ele>20.0</ele><time>2026-05-02T08:12:57.002Z</time></trkpt><trkpt lat="41.04846920260148" lon="9.435740720441274"><ele>20.0</ele><time>2026-05-02T08:12:58.002Z</time></trkpt><trkpt lat="41.04831742786784" lon="9.435689006734606"><ele>20.0</ele><time>2026-05-02T08:12:59.002Z</time></trkpt><trkpt lat="41.048176952446354" lon="9.435641327560607"><ele>21.0</ele><time>2026-05-02T08:13:00.002Z</time></trkpt><trkpt lat="41.04804613758522" lon="9.435596706007622"><ele>22.0</ele><time>2026-05-02T08:13:01.002Z</time></trkpt><trkpt lat="41.047926113150936" lon="9.435560282932395"><ele>23.0</ele><time>2026-05-02T08:13:02.002Z</time></trkpt><trkpt lat="41.047811419502644" lon="9.435551092159857"><ele>24.0</ele><time>2026-05-02T08:13:03.002Z</time></trkpt><trkpt lat="41.04768986282901" lon="9.435585313134046"><ele>24.0</ele><time>2026-05-02T08:13:04.002Z</time></trkpt><trkpt lat="41.04756710125316" lon="9.435661299552821"><ele>24.0</ele><time>2026-05-02T08:13:05.002Z</time></trkpt><trkpt lat="41.047438782892215" lon="9.435756237843314"><ele>24.0</ele><time>2026-05-02T08:13:06.002Z</time></trkpt><trkpt lat="41.04729750741597" lon="9.435840592235463"><ele>24.0</ele><time>2026-05-02T08:13:07.002Z</time></trkpt><trkpt lat="41.047145717249435" lon="9.43589805075325"><ele>23.25</ele><time>2026-05-02T08:13:08.002Z</time></trkpt><trkpt lat="41.04699116092618" lon="9.435932682378846"><ele>22.5</ele><time>2026-05-02T08:13:09.002Z</time></trkpt><trkpt lat="41.04685022288402" lon="9.435952037572779"><ele>21.75</ele><time>2026-05-02T08:13:10.002Z</time></trkpt><trkpt lat="41.046718352972064" lon="9.43595269442953"><ele>21.0</ele><time>2026-05-02T08:13:11.002Z</time></trkpt><trkpt lat="41.046592893082384" lon="9.435919194756902"><ele>22.75</ele><time>2026-05-02T08:13:12.002Z</time></trkpt><trkpt lat="41.04647540106431" lon="9.4358360889292"><ele>24.5</ele><time>2026-05-02T08:13:13.002Z</time></trkpt><trkpt lat="41.046349525268106" lon="9.435722764318701"><ele>26.25</ele><time>2026-05-02T08:13:14.002Z</time></trkpt><trkpt lat="41.04621034444741" lon="9.435616410170267"><ele>28.0</ele><time>2026-05-02T08:13:15.002Z</time></trkpt><trkpt lat="41.04605370960689" lon="9.435535319899008"><ele>28.0</ele><time>2026-05-02T08:13:16.002Z</time></trkpt><trkpt lat="41.04587840939129" lon="9.435471369976613"><ele>28.0</ele><time>2026-05-02T08:13:17.002Z</time></trkpt><trkpt lat="41.045702437391824" lon="9.435419009198936"><ele>28.0</ele><time>2026-05-02T08:13:18.002Z</time></trkpt><trkpt lat="41.045537335093165" lon="9.435376388291653"><ele>25.0</ele><time>2026-05-02T08:13:19.002Z</time></trkpt><trkpt lat="41.04536819364091" lon="9.435351182379671"><ele>22.0</ele><time>2026-05-02T08:13:20.002Z</time></trkpt><trkpt lat="41.04518535638015" lon="9.435353503541613"><ele>19.0</ele><time>2026-05-02T08:13:21.002Z</time></trkpt><trkpt lat="41.04499291470192" lon="9.43537539509463"><ele>19.333333333333332</ele><time>2026-05-02T08:13:22.002Z</time></trkpt><trkpt lat="41.04481063103388" lon="9.435399568072532"><ele>19.666666666666668</ele><time>2026-05-02T08:13:23.002Z</time></trkpt><trkpt lat="41.044628382305326" lon="9.435423113454968"><ele>20.0</ele><time>2026-05-02T08:13:24.002Z</time></trkpt><trkpt lat="41.04444814355611" lon="9.435444519232947"><ele>20.0</ele><time>2026-05-02T08:13:25.002Z</time></trkpt><trkpt lat="41.0442776973863" lon="9.435451402001494"><ele>20.0</ele><time>2026-05-02T08:13:26.002Z</time></trkpt><trkpt lat="41.04410656621115" lon="9.435440264994147"><ele>20.0</ele><time>2026-05-02T08:13:27.001Z</time></trkpt><trkpt lat="41.043943604856636" lon="9.435432331685087"><ele>19.666666666666668</ele><time>2026-05-02T08:13:28.001Z</time></trkpt><trkpt lat="41.04377598755064" lon="9.435423328471286"><ele>19.333333333333332</ele><time>2026-05-02T08:13:29.001Z</time></trkpt><trkpt lat="41.043608554696135" lon="9.43541229553687"><ele>19.0</ele><time>2026-05-02T08:13:30.001Z</time></trkpt><trkpt lat="41.043436884587315" lon="9.435397688005258"><ele>20.0</ele><time>2026-05-02T08:13:31.001Z</time></trkpt><trkpt lat="41.043265115677094" lon="9.435382090427042"><ele>21.0</ele><time>2026-05-02T08:13:32.001Z</time></trkpt><trkpt lat="41.04310267885706" lon="9.43536566701002"><ele>22.0</ele><time>2026-05-02T08:13:33.001Z</time></trkpt><trkpt lat="41.04294796061328" lon="9.435350382227384"><ele>22.0</ele><time>2026-05-02T08:13:34.001Z</time></trkpt><trkpt lat="41.042792824722355" lon="9.43533807305745"><ele>22.0</ele><time>2026-05-02T08:13:35.001Z</time></trkpt><trkpt lat="41.04263580583775" lon="9.435323560861738"><ele>22.0</ele><time>2026-05-02T08:13:36.001Z</time></trkpt><trkpt lat="41.042479302894534" lon="9.435304079990207"><ele>22.666666666666664</ele><time>2026-05-02T08:13:37.001Z</time></trkpt><trkpt lat="41.0423205097818" lon="9.435285432307955"><ele>23.333333333333332</ele><time>2026-05-02T08:13:38.001Z</time></trkpt><trkpt lat="41.04215865518865" lon="9.435262073709358"><ele>24.0</ele><time>2026-05-02T08:13:39.001Z</time></trkpt><trkpt lat="41.04199224139963" lon="9.435223783988286"><ele>24.0</ele><time>2026-05-02T08:13:40.001Z</time></trkpt><trkpt lat="41.04182484959793" lon="9.435166601493615"><ele>24.0</ele><time>2026-05-02T08:13:41.001Z</time></trkpt><trkpt lat="41.0416547821231" lon="9.43510102685184"><ele>24.0</ele><time>2026-05-02T08:13:42.001Z</time></trkpt><trkpt lat="41.04148801197443" lon="9.435032802963018"><ele>25.0</ele><time>2026-05-02T08:13:43.001Z</time></trkpt><trkpt lat="41.04132198526312" lon="9.434962439191091"><ele>26.0</ele><time>2026-05-02T08:13:44.001Z</time></trkpt><trkpt lat="41.041149918203544" lon="9.43489565328238"><ele>27.0</ele><time>2026-05-02T08:13:45.001Z</time></trkpt><trkpt lat="41.040976493526564" lon="9.434832260975746"><ele>27.0</ele><time>2026-05-02T08:13:46.001Z</time></trkpt><trkpt lat="41.040802048886675" lon="9.434772686626433"><ele>27.0</ele><time>2026-05-02T08:13:47.001Z</time></trkpt><trkpt lat="41.040633743009515" lon="9.434717528176828"><ele>27.0</ele><time>2026-05-02T08:13:48.001Z</time></trkpt><trkpt lat="41.04046682051755" lon="9.43465714651576"><ele>26.0</ele><time>2026-05-02T08:13:49.001Z</time></trkpt><trkpt lat="41.040300667569426" lon="9.434593784324043"><ele>25.0</ele><time>2026-05-02T08:13:50.001Z</time></trkpt><trkpt lat="41.040133727203404" lon="9.434537416307922"><ele>24.0</ele><time>2026-05-02T08:13:51.001Z</time></trkpt><trkpt lat="41.03996044164166" lon="9.434491289986422"><ele>24.0</ele><time>2026-05-02T08:13:52.001Z</time></trkpt><trkpt lat="41.039786695221444" lon="9.434455040361412"><ele>24.0</ele><time>2026-05-02T08:13:53.001Z</time></trkpt><trkpt lat="41.03961512235049" lon="9.434431351638258"><ele>24.0</ele><time>2026-05-02T08:13:54.001Z</time></trkpt><trkpt lat="41.0394411748476" lon="9.434414010476955"><ele>24.0</ele><time>2026-05-02T08:13:55.001Z</time></trkpt><trkpt lat="41.03927531260627" lon="9.434397347621642"><ele>24.0</ele><time>2026-05-02T08:13:56.001Z</time></trkpt><trkpt lat="41.03911646871312" lon="9.434377599680166"><ele>24.0</ele><time>2026-05-02T08:13:57.001Z</time></trkpt><trkpt lat="41.03895897171555" lon="9.434359988306941"><ele>24.666666666666664</ele><time>2026-05-02T08:13:58.001Z</time></trkpt><trkpt lat="41.038802880923974" lon="9.434343756215542"><ele>25.333333333333332</ele><time>2026-05-02T08:13:59.001Z</time></trkpt><trkpt lat="41.038643249733575" lon="9.434326361107855"><ele>26.0</ele><time>2026-05-02T08:14:00.002Z</time></trkpt><trkpt lat="41.038476665721575" lon="9.434308247041471"><ele>26.0</ele><time>2026-05-02T08:14:01.002Z</time></trkpt><trkpt lat="41.0383060275806" lon="9.434275274438408"><ele>26.0</ele><time>2026-05-02T08:14:02.002Z</time></trkpt><trkpt lat="41.03812888853259" lon="9.43422646140598"><ele>26.0</ele><time>2026-05-02T08:14:03.002Z</time></trkpt><trkpt lat="41.03795127090153" lon="9.434174606576812"><ele>26.0</ele><time>2026-05-02T08:14:04.002Z</time></trkpt><trkpt lat="41.03776827760223" lon="9.434115341978403"><ele>26.0</ele><time>2026-05-02T08:14:05.002Z</time></trkpt><trkpt lat="41.037584276558015" lon="9.434055294069557"><ele>26.0</ele><time>2026-05-02T08:14:06.002Z</time></trkpt><trkpt lat="41.03740012883193" lon="9.433994060624126"><ele>26.333333333333332</ele><time>2026-05-02T08:14:07.002Z</time></trkpt><trkpt lat="41.03721311062165" lon="9.43392855971635"><ele>26.666666666666664</ele><time>2026-05-02T08:14:08.002Z</time></trkpt><trkpt lat="41.03702737375191" lon="9.433863154295631"><ele>27.0</ele><time>2026-05-02T08:14:09.002Z</time></trkpt><trkpt lat="41.03684350506464" lon="9.433802572656"><ele>26.666666666666664</ele><time>2026-05-02T08:14:10.002Z</time></trkpt><trkpt lat="41.0366638588774" lon="9.433744136250937"><ele>26.333333333333332</ele><time>2026-05-02T08:14:11.002Z</time></trkpt><trkpt lat="41.03648730798024" lon="9.433686261514488"><ele>26.0</ele><time>2026-05-02T08:14:12.002Z</time></trkpt><trkpt lat="41.03631663991058" lon="9.433629418256324"><ele>26.0</ele><time>2026-05-02T08:14:13.002Z</time></trkpt><trkpt lat="41.03614983215174" lon="9.433570516135278"><ele>26.0</ele><time>2026-05-02T08:14:14.002Z</time></trkpt><trkpt lat="41.03598406349256" lon="9.433513850515137"><ele>26.0</ele><time>2026-05-02T08:14:15.002Z</time></trkpt><trkpt lat="41.03582659315678" lon="9.433459197423957"><ele>25.75</ele><time>2026-05-02T08:14:16.002Z</time></trkpt><trkpt lat="41.035676337298966" lon="9.433415343720704"><ele>25.5</ele><time>2026-05-02T08:14:17.002Z</time></trkpt><trkpt lat="41.035536042338165" lon="9.433394313148218"><ele>25.25</ele><time>2026-05-02T08:14:18.002Z</time></trkpt><trkpt lat="41.03539832321344" lon="9.433405440295424"><ele>25.0</ele><time>2026-05-02T08:14:19.002Z</time></trkpt><trkpt lat="41.03526574129555" lon="9.433456203200768"><ele>25.0</ele><time>2026-05-02T08:14:20.002Z</time></trkpt><trkpt lat="41.035143770563906" lon="9.433539041357816"><ele>25.0</ele><time>2026-05-02T08:14:21.002Z</time></trkpt><trkpt lat="41.03502342423664" lon="9.433621115127902"><ele>25.0</ele><time>2026-05-02T08:14:22.002Z</time></trkpt><trkpt lat="41.03490095018648" lon="9.433669854190695"><ele>25.0</ele><time>2026-05-02T08:14:23.002Z</time></trkpt><trkpt lat="41.034767982489626" lon="9.43368197834627"><ele>26.0</ele><time>2026-05-02T08:14:24.002Z</time></trkpt><trkpt lat="41.034609338731016" lon="9.433661891756648"><ele>27.0</ele><time>2026-05-02T08:14:25.002Z</time></trkpt><trkpt lat="41.03446406633346" lon="9.43363782538125"><ele>28.0</ele><time>2026-05-02T08:14:26.002Z</time></trkpt><trkpt lat="41.03432546575725" lon="9.433601890296291"><ele>29.0</ele><time>2026-05-02T08:14:27.002Z</time></trkpt><trkpt lat="41.03420025808216" lon="9.433525335721336"><ele>31.0</ele><time>2026-05-02T08:14:28.002Z</time></trkpt><trkpt lat="41.03410408647443" lon="9.433406997664193"><ele>33.0</ele><time>2026-05-02T08:14:29.002Z</time></trkpt><trkpt lat="41.03400007776643" lon="9.433263938496733"><ele>35.0</ele><time>2026-05-02T08:14:30.002Z</time></trkpt><trkpt lat="41.03389283193369" lon="9.43313256784902"><ele>37.0</ele><time>2026-05-02T08:14:31.002Z</time></trkpt><trkpt lat="41.03376703256313" lon="9.433022160061642"><ele>35.0</ele><time>2026-05-02T08:14:32.002Z</time></trkpt><trkpt lat="41.03362011675882" lon="9.432922808916343"><ele>33.0</ele><time>2026-05-02T08:14:33.002Z</time></trkpt><trkpt lat="41.03346569305531" lon="9.43283491843331"><ele>31.0</ele><time>2026-05-02T08:14:34.002Z</time></trkpt><trkpt lat="41.03330298319024" lon="9.432752796405175"><ele>31.0</ele><time>2026-05-02T08:14:35.002Z</time></trkpt><trkpt lat="41.03313758425851" lon="9.432668626146196"><ele>31.0</ele><time>2026-05-02T08:14:36.002Z</time></trkpt><trkpt lat="41.03297590251255" lon="9.432581197777486"><ele>31.0</ele><time>2026-05-02T08:14:37.002Z</time></trkpt><trkpt lat="41.03281925340068" lon="9.432496440738197"><ele>31.0</ele><time>2026-05-02T08:14:38.002Z</time></trkpt><trkpt lat="41.03266535185421" lon="9.432420204149722"><ele>31.0</ele><time>2026-05-02T08:14:39.002Z</time></trkpt><trkpt lat="41.032519066524394" lon="9.432350318631277"><ele>31.0</ele><time>2026-05-02T08:14:40.002Z</time></trkpt><trkpt lat="41.03237776707789" lon="9.432287316615303"><ele>30.25</ele><time>2026-05-02T08:14:41.002Z</time></trkpt><trkpt lat="41.03223591279622" lon="9.432234461107313"><ele>29.5</ele><time>2026-05-02T08:14:42.002Z</time></trkpt><trkpt lat="41.03208982063114" lon="9.432194542093125"><ele>28.75</ele><time>2026-05-02T08:14:43.002Z</time></trkpt><trkpt lat="41.03194027031086" lon="9.432161767470584"><ele>28.0</ele><time>2026-05-02T08:14:44.002Z</time></trkpt><trkpt lat="41.03178724716988" lon="9.43211723522594"><ele>30.0</ele><time>2026-05-02T08:14:45.002Z</time></trkpt><trkpt lat="41.03163773260527" lon="9.432055937879388"><ele>32.0</ele><time>2026-05-02T08:14:46.002Z</time></trkpt><trkpt lat="41.03149076569697" lon="9.431979191762538"><ele>34.0</ele><time>2026-05-02T08:14:47.002Z</time></trkpt><trkpt lat="41.03135271449551" lon="9.431887359117404"><ele>34.0</ele><time>2026-05-02T08:14:48.002Z</time></trkpt><trkpt lat="41.031227275166664" lon="9.431773263053586"><ele>34.0</ele><time>2026-05-02T08:14:49.002Z</time></trkpt><trkpt lat="41.0310988344184" lon="9.431649287290982"><ele>34.0</ele><time>2026-05-02T08:14:50.002Z</time></trkpt><trkpt lat="41.030958113782646" lon="9.431545501442143"><ele>34.66666666666667</ele><time>2026-05-02T08:14:51.002Z</time></trkpt><trkpt lat="41.030801106124535" lon="9.431455800594684"><ele>35.333333333333336</ele><time>2026-05-02T08:14:52.002Z</time></trkpt><trkpt lat="41.03064888168429" lon="9.431375849459057"><ele>36.0</ele><time>2026-05-02T08:14:53.002Z</time></trkpt><trkpt lat="41.030495810234804" lon="9.431305636847789"><ele>34.0</ele><time>2026-05-02T08:14:54.002Z</time></trkpt><trkpt lat="41.03033815009488" lon="9.431243559330658"><ele>32.0</ele><time>2026-05-02T08:14:55.002Z</time></trkpt><trkpt lat="41.03017836078983" lon="9.431189754229353"><ele>30.0</ele><time>2026-05-02T08:14:56.002Z</time></trkpt><trkpt lat="41.03001542937184" lon="9.431146008654629"><ele>30.333333333333336</ele><time>2026-05-02T08:14:57.002Z</time></trkpt><trkpt lat="41.02985644772297" lon="9.431109852632893"><ele>30.666666666666668</ele><time>2026-05-02T08:14:58.002Z</time></trkpt><trkpt lat="41.02969677004258" lon="9.431087992502995"><ele>31.0</ele><time>2026-05-02T08:14:59.002Z</time></trkpt><trkpt lat="41.0295379533052" lon="9.431076435667343"><ele>31.0</ele><time>2026-05-02T08:15:00.002Z</time></trkpt><trkpt lat="41.02938607964369" lon="9.431070158496956"><ele>31.0</ele><time>2026-05-02T08:15:01.002Z</time></trkpt><trkpt lat="41.02924545458023" lon="9.431061203243283"><ele>31.0</ele><time>2026-05-02T08:15:02.002Z</time></trkpt><trkpt lat="41.029114485849725" lon="9.431052790423303"><ele>31.0</ele><time>2026-05-02T08:15:03.002Z</time></trkpt><trkpt lat="41.02898167885724" lon="9.43104032086614"><ele>31.666666666666668</ele><time>2026-05-02T08:15:04.002Z</time></trkpt><trkpt lat="41.02883662420632" lon="9.43101521135598"><ele>32.333333333333336</ele><time>2026-05-02T08:15:05.002Z</time></trkpt><trkpt lat="41.02868097692248" lon="9.430966306459824"><ele>33.0</ele><time>2026-05-02T08:15:06.003Z</time></trkpt><trkpt lat="41.028520629776395" lon="9.430873523541813"><ele>33.0</ele><time>2026-05-02T08:15:07.003Z</time></trkpt><trkpt lat="41.028369184799075" lon="9.430790098784843"><ele>33.0</ele><time>2026-05-02T08:15:08.003Z</time></trkpt><trkpt lat="41.02821680957392" lon="9.430742592214756"><ele>33.0</ele><time>2026-05-02T08:15:09.002Z</time></trkpt><trkpt lat="41.028055342890475" lon="9.430732428035915"><ele>33.0</ele><time>2026-05-02T08:15:10.002Z</time></trkpt><trkpt lat="41.02788779052361" lon="9.430720332128866"><ele>33.0</ele><time>2026-05-02T08:15:11.002Z</time></trkpt><trkpt lat="41.02772902397942" lon="9.43068413734015"><ele>33.0</ele><time>2026-05-02T08:15:12.002Z</time></trkpt><trkpt lat="41.027601656394985" lon="9.430607659995067"><ele>33.0</ele><time>2026-05-02T08:15:13.002Z</time></trkpt><trkpt lat="41.02748479108041" lon="9.430514305402676"><ele>33.0</ele><time>2026-05-02T08:15:14.002Z</time></trkpt><trkpt lat="41.027361307351896" lon="9.430394985895349"><ele>33.0</ele><time>2026-05-02T08:15:15.002Z</time></trkpt><trkpt lat="41.02723118505113" lon="9.430272792501668"><ele>33.0</ele><time>2026-05-02T08:15:16.002Z</time></trkpt><trkpt lat="41.027081976397184" lon="9.430171803399922"><ele>33.0</ele><time>2026-05-02T08:15:17.002Z</time></trkpt><trkpt lat="41.026909507920145" lon="9.430087865838498"><ele>33.0</ele><time>2026-05-02T08:15:18.002Z</time></trkpt><trkpt lat="41.026720069197964" lon="9.430006678608812"><ele>33.0</ele><time>2026-05-02T08:15:19.002Z</time></trkpt><trkpt lat="41.026521925043234" lon="9.429921097899523"><ele>34.5</ele><time>2026-05-02T08:15:20.002Z</time></trkpt><trkpt lat="41.026308326974274" lon="9.429821213205704"><ele>36.0</ele><time>2026-05-02T08:15:21.002Z</time></trkpt><trkpt lat="41.02607416775219" lon="9.429716391560413"><ele>33.5</ele><time>2026-05-02T08:15:22.002Z</time></trkpt><trkpt lat="41.025835111357765" lon="9.42960059297689"><ele>31.0</ele><time>2026-05-02T08:15:23.002Z</time></trkpt><trkpt lat="41.0255967835745" lon="9.429468152776918"><ele>31.0</ele><time>2026-05-02T08:15:24.002Z</time></trkpt><trkpt lat="41.02535964687608" lon="9.429328915071872"><ele>31.0</ele><time>2026-05-02T08:15:25.002Z</time></trkpt><trkpt lat="41.025122867341224" lon="9.429187530224711"><ele>34.5</ele><time>2026-05-02T08:15:26.002Z</time></trkpt><trkpt lat="41.024888676496815" lon="9.429048013924225"><ele>38.0</ele><time>2026-05-02T08:15:27.002Z</time></trkpt><trkpt lat="41.02465835646561" lon="9.428909190387204"><ele>35.0</ele><time>2026-05-02T08:15:28.002Z</time></trkpt><trkpt lat="41.02443906935633" lon="9.428778165997375"><ele>32.0</ele><time>2026-05-02T08:15:29.002Z</time></trkpt><trkpt lat="41.02422844767854" lon="9.42864906549062"><ele>33.666666666666664</ele><time>2026-05-02T08:15:30.001Z</time></trkpt><trkpt lat="41.02402741118162" lon="9.428526051859563"><ele>35.333333333333336</ele><time>2026-05-02T08:15:31.001Z</time></trkpt><trkpt lat="41.02383608939831" lon="9.428405098710645"><ele>37.0</ele><time>2026-05-02T08:15:32.001Z</time></trkpt><trkpt lat="41.023649082975936" lon="9.428290875409752"><ele>37.0</ele><time>2026-05-02T08:15:33.001Z</time></trkpt><trkpt lat="41.023462052559374" lon="9.42817620964271"><ele>37.0</ele><time>2026-05-02T08:15:34.001Z</time></trkpt><trkpt lat="41.02327528041123" lon="9.42806415560346"><ele>37.0</ele><time>2026-05-02T08:15:35.001Z</time></trkpt><trkpt lat="41.02308083331034" lon="9.427962485323842"><ele>35.66666666666667</ele><time>2026-05-02T08:15:36.001Z</time></trkpt><trkpt lat="41.02288050458624" lon="9.427873310184628"><ele>34.333333333333336</ele><time>2026-05-02T08:15:37.001Z</time></trkpt><trkpt lat="41.02268856814941" lon="9.427806829775742"><ele>33.0</ele><time>2026-05-02T08:15:38.001Z</time></trkpt><trkpt lat="41.022492191598715" lon="9.427760245241043"><ele>33.333333333333336</ele><time>2026-05-02T08:15:39.001Z</time></trkpt><trkpt lat="41.02229642447229" lon="9.427746328126538"><ele>33.66666666666667</ele><time>2026-05-02T08:15:40.001Z</time></trkpt><trkpt lat="41.02208999883879" lon="9.427762086325595"><ele>34.0</ele><time>2026-05-02T08:15:41.001Z</time></trkpt><trkpt lat="41.02187026791859" lon="9.427799600710129"><ele>34.0</ele><time>2026-05-02T08:15:42.001Z</time></trkpt><trkpt lat="41.02165159188475" lon="9.427839003319738"><ele>34.0</ele><time>2026-05-02T08:15:43.001Z</time></trkpt><trkpt lat="41.021457797435744" lon="9.427872287488478"><ele>34.0</ele><time>2026-05-02T08:15:44.001Z</time></trkpt><trkpt lat="41.0212756484227" lon="9.427901756720315"><ele>34.0</ele><time>2026-05-02T08:15:45.001Z</time></trkpt><trkpt lat="41.02110455433019" lon="9.427939687667415"><ele>34.0</ele><time>2026-05-02T08:15:46.001Z</time></trkpt><trkpt lat="41.02095050761128" lon="9.427996830456566"><ele>34.0</ele><time>2026-05-02T08:15:47.001Z</time></trkpt><trkpt lat="41.020803728148934" lon="9.428081533733005"><ele>35.0</ele><time>2026-05-02T08:15:48.001Z</time></trkpt><trkpt lat="41.020660995677545" lon="9.428187957122127"><ele>36.0</ele><time>2026-05-02T08:15:49.001Z</time></trkpt><trkpt lat="41.020518151340056" lon="9.428296518521895"><ele>37.0</ele><time>2026-05-02T08:15:50.001Z</time></trkpt><trkpt lat="41.02037092898249" lon="9.42841572762814"><ele>37.0</ele><time>2026-05-02T08:15:51.001Z</time></trkpt><trkpt lat="41.020226120928044" lon="9.428541536622555"><ele>37.0</ele><time>2026-05-02T08:15:52.001Z</time></trkpt><trkpt lat="41.0200843031605" lon="9.42866299154069"><ele>37.0</ele><time>2026-05-02T08:15:53.001Z</time></trkpt><trkpt lat="41.0199477708771" lon="9.428770975534578"><ele>39.0</ele><time>2026-05-02T08:15:54.001Z</time></trkpt><trkpt lat="41.01980412872824" lon="9.42886309478143"><ele>41.0</ele><time>2026-05-02T08:15:55.001Z</time></trkpt><trkpt lat="41.019654317098976" lon="9.428926715412631"><ele>43.0</ele><time>2026-05-02T08:15:56.001Z</time></trkpt><trkpt lat="41.019490631944734" lon="9.428963551642283"><ele>43.0</ele><time>2026-05-02T08:15:57.001Z</time></trkpt><trkpt lat="41.01933574316977" lon="9.428963739787346"><ele>43.0</ele><time>2026-05-02T08:15:58.001Z</time></trkpt><trkpt lat="41.01918309468164" lon="9.428931344209643"><ele>43.0</ele><time>2026-05-02T08:15:59.001Z</time></trkpt><trkpt lat="41.019014668286616" lon="9.428890505481329"><ele>43.66666666666667</ele><time>2026-05-02T08:16:00.001Z</time></trkpt><trkpt lat="41.018843125590756" lon="9.428850001546076"><ele>44.333333333333336</ele><time>2026-05-02T08:16:01.001Z</time></trkpt><trkpt lat="41.01866481057943" lon="9.428790723052824"><ele>45.0</ele><time>2026-05-02T08:16:02.001Z</time></trkpt><trkpt lat="41.01848945682045" lon="9.428740734009098"><ele>41.666666666666664</ele><time>2026-05-02T08:16:03.001Z</time></trkpt><trkpt lat="41.01831682168626" lon="9.428717861949167"><ele>38.33333333333333</ele><time>2026-05-02T08:16:04.001Z</time></trkpt><trkpt lat="41.01813110746554" lon="9.42872196384051"><ele>35.0</ele><time>2026-05-02T08:16:05.001Z</time></trkpt><trkpt lat="41.01793138760016" lon="9.42872425683518"><ele>35.0</ele><time>2026-05-02T08:16:06.001Z</time></trkpt><trkpt lat="41.01774024107364" lon="9.428698029850116"><ele>35.0</ele><time>2026-05-02T08:16:07.001Z</time></trkpt><trkpt lat="41.017559624281716" lon="9.42863799586569"><ele>35.0</ele><time>2026-05-02T08:16:08.001Z</time></trkpt><trkpt lat="41.01739793350964" lon="9.428585332021441"><ele>35.0</ele><time>2026-05-02T08:16:09.001Z</time></trkpt><trkpt lat="41.01724473243433" lon="9.428563388711142"><ele>35.0</ele><time>2026-05-02T08:16:10.001Z</time></trkpt><trkpt lat="41.017089908446636" lon="9.42857115624858"><ele>35.0</ele><time>2026-05-02T08:16:11.001Z</time></trkpt><trkpt lat="41.01692702814705" lon="9.428616049707262"><ele>35.0</ele><time>2026-05-02T08:16:12.001Z</time></trkpt><trkpt lat="41.01676013438009" lon="9.428694869811642"><ele>35.0</ele><time>2026-05-02T08:16:13.001Z</time></trkpt><trkpt lat="41.01658568585335" lon="9.428802724072176"><ele>35.0</ele><time>2026-05-02T08:16:14.001Z</time></trkpt><trkpt lat="41.01640316689935" lon="9.428897992427986"><ele>36.0</ele><time>2026-05-02T08:16:15.001Z</time></trkpt><trkpt lat="41.016210465873314" lon="9.428968215654786"><ele>37.0</ele><time>2026-05-02T08:16:16.001Z</time></trkpt><trkpt lat="41.01600313769628" lon="9.429013529070925"><ele>38.0</ele><time>2026-05-02T08:16:17.001Z</time></trkpt><trkpt lat="41.01578694944843" lon="9.429059958147311"><ele>38.0</ele><time>2026-05-02T08:16:18.001Z</time></trkpt><trkpt lat="41.01556242442434" lon="9.429109612281158"><ele>38.0</ele><time>2026-05-02T08:16:19.001Z</time></trkpt><trkpt lat="41.0153507527671" lon="9.429147985312609"><ele>38.0</ele><time>2026-05-02T08:16:20.001Z</time></trkpt><trkpt lat="41.01515173058929" lon="9.429161989614945"><ele>39.33333333333333</ele><time>2026-05-02T08:16:21.001Z</time></trkpt><trkpt lat="41.0149476545365" lon="9.42914511080167"><ele>40.666666666666664</ele><time>2026-05-02T08:16:22.001Z</time></trkpt><trkpt lat="41.0147366142158" lon="9.429099155390375"><ele>42.0</ele><time>2026-05-02T08:16:23.001Z</time></trkpt><trkpt lat="41.01452066633994" lon="9.429039611412655"><ele>42.0</ele><time>2026-05-02T08:16:24.001Z</time></trkpt><trkpt lat="41.01431511349019" lon="9.42897746806994"><ele>42.0</ele><time>2026-05-02T08:16:25.001Z</time></trkpt><trkpt lat="41.01412754417015" lon="9.428921789302409"><ele>42.0</ele><time>2026-05-02T08:16:26.001Z</time></trkpt><trkpt lat="41.01396130868028" lon="9.428874520122584"><ele>43.75</ele><time>2026-05-02T08:16:27.001Z</time></trkpt><trkpt lat="41.013815271965534" lon="9.428852865666357"><ele>45.5</ele><time>2026-05-02T08:16:28.001Z</time></trkpt><trkpt lat="41.01367472574528" lon="9.428870032686461"><ele>47.25</ele><time>2026-05-02T08:16:29.001Z</time></trkpt><trkpt lat="41.01353694807563" lon="9.42893501347456"><ele>49.0</ele><time>2026-05-02T08:16:30.001Z</time></trkpt><trkpt lat="41.01339707185997" lon="9.429026430438629"><ele>48.666666666666664</ele><time>2026-05-02T08:16:31.001Z</time></trkpt><trkpt lat="41.013239504051555" lon="9.429120997990323"><ele>48.33333333333333</ele><time>2026-05-02T08:16:32.001Z</time></trkpt><trkpt lat="41.013068646281575" lon="9.429196920743083"><ele>48.0</ele><time>2026-05-02T08:16:33.001Z</time></trkpt><trkpt lat="41.012892395917376" lon="9.429253401974732"><ele>48.0</ele><time>2026-05-02T08:16:34.001Z</time></trkpt><trkpt lat="41.01271681401812" lon="9.42931180845047"><ele>48.0</ele><time>2026-05-02T08:16:35.001Z</time></trkpt><trkpt lat="41.012546353106245" lon="9.429368357861874"><ele>48.0</ele><time>2026-05-02T08:16:36.001Z</time></trkpt><trkpt lat="41.0123823482174" lon="9.429424618064486"><ele>49.66666666666667</ele><time>2026-05-02T08:16:37.001Z</time></trkpt><trkpt lat="41.012226179868485" lon="9.429479040863257"><ele>51.333333333333336</ele><time>2026-05-02T08:16:38.001Z</time></trkpt><trkpt lat="41.01207752960477" lon="9.429537291942694"><ele>53.0</ele><time>2026-05-02T08:16:39.001Z</time></trkpt><trkpt lat="41.0119386160576" lon="9.42959756532889"><ele>52.75</ele><time>2026-05-02T08:16:40.001Z</time></trkpt><trkpt lat="41.011804823014124" lon="9.42965453472717"><ele>52.5</ele><time>2026-05-02T08:16:41.001Z</time></trkpt><trkpt lat="41.01167808802806" lon="9.429724625273007"><ele>52.25</ele><time>2026-05-02T08:16:42.001Z</time></trkpt><trkpt lat="41.01155588193184" lon="9.429819782759171"><ele>52.0</ele><time>2026-05-02T08:16:43.001Z</time></trkpt><trkpt lat="41.0114437578277" lon="9.429933369348126"><ele>54.5</ele><time>2026-05-02T08:16:44.001Z</time></trkpt><trkpt lat="41.011334202958516" lon="9.430049560377622"><ele>57.0</ele><time>2026-05-02T08:16:45.001Z</time></trkpt><trkpt lat="41.0112203983382" lon="9.430164199331507"><ele>59.5</ele><time>2026-05-02T08:16:46.001Z</time></trkpt><trkpt lat="41.011088622171194" lon="9.430291878420281"><ele>62.0</ele><time>2026-05-02T08:16:47.001Z</time></trkpt><trkpt lat="41.010951587820365" lon="9.430388820231016"><ele>62.0</ele><time>2026-05-02T08:16:48.001Z</time></trkpt><trkpt lat="41.01080625364544" lon="9.430468095407651"><ele>62.0</ele><time>2026-05-02T08:16:49.001Z</time></trkpt><trkpt lat="41.01065254997671" lon="9.43055355950106"><ele>62.0</ele><time>2026-05-02T08:16:50.001Z</time></trkpt><trkpt lat="41.01049838673539" lon="9.430658890185091"><ele>62.0</ele><time>2026-05-02T08:16:51.001Z</time></trkpt><trkpt lat="41.010338876821784" lon="9.430796954736582"><ele>62.0</ele><time>2026-05-02T08:16:52.001Z</time></trkpt><trkpt lat="41.01017232263915" lon="9.430933872968142"><ele>62.0</ele><time>2026-05-02T08:16:53.001Z</time></trkpt><trkpt lat="41.00999006735057" lon="9.431078234695638"><ele>61.66666666666667</ele><time>2026-05-02T08:16:54.001Z</time></trkpt><trkpt lat="41.00981141805458" lon="9.431232217414971"><ele>61.33333333333333</ele><time>2026-05-02T08:16:55.001Z</time></trkpt><trkpt lat="41.00963313150043" lon="9.4313907068543"><ele>61.0</ele><time>2026-05-02T08:16:56.001Z</time></trkpt><trkpt lat="41.00947191301792" lon="9.431557824754085"><ele>61.666666666666664</ele><time>2026-05-02T08:16:57.001Z</time></trkpt><trkpt lat="41.00932236153772" lon="9.431735988415863"><ele>62.33333333333333</ele><time>2026-05-02T08:16:58.001Z</time></trkpt><trkpt lat="41.00920186211737" lon="9.43191164732647"><ele>63.0</ele><time>2026-05-02T08:16:59.001Z</time></trkpt><trkpt lat="41.00909757480264" lon="9.432085552320792"><ele>65.5</ele><time>2026-05-02T08:17:00.001Z</time></trkpt><trkpt lat="41.00899980482353" lon="9.43224273977599"><ele>68.0</ele><time>2026-05-02T08:17:01.001Z</time></trkpt><trkpt lat="41.00889788476626" lon="9.432363077594232"><ele>70.5</ele><time>2026-05-02T08:17:02.001Z</time></trkpt><trkpt lat="41.008771098529714" lon="9.432460798914992"><ele>73.0</ele><time>2026-05-02T08:17:03.001Z</time></trkpt><trkpt lat="41.00862860313798" lon="9.432543753379854"><ele>73.0</ele><time>2026-05-02T08:17:04.001Z</time></trkpt><trkpt lat="41.00847920873342" lon="9.432615794661812"><ele>73.0</ele><time>2026-05-02T08:17:05.001Z</time></trkpt><trkpt lat="41.00832801443801" lon="9.43267940262028"><ele>73.0</ele><time>2026-05-02T08:17:06.001Z</time></trkpt><trkpt lat="41.00817485231516" lon="9.432740984442479"><ele>73.0</ele><time>2026-05-02T08:17:07.001Z</time></trkpt><trkpt lat="41.00801791098769" lon="9.432807552728509"><ele>73.0</ele><time>2026-05-02T08:17:08.001Z</time></trkpt><trkpt lat="41.00786218838856" lon="9.432891764536123"><ele>73.0</ele><time>2026-05-02T08:17:09.001Z</time></trkpt><trkpt lat="41.00771370458818" lon="9.432992389537045"><ele>73.0</ele><time>2026-05-02T08:17:10.001Z</time></trkpt><trkpt lat="41.0075844480615" lon="9.433095500803974"><ele>73.0</ele><time>2026-05-02T08:17:11.001Z</time></trkpt><trkpt lat="41.0074661283178" lon="9.433218943338893"><ele>73.0</ele><time>2026-05-02T08:17:12.002Z</time></trkpt><trkpt lat="41.007370269974366" lon="9.433372619311493"><ele>71.66666666666666</ele><time>2026-05-02T08:17:13.002Z</time></trkpt><trkpt lat="41.00729176047715" lon="9.433554847815868"><ele>70.33333333333333</ele><time>2026-05-02T08:17:14.002Z</time></trkpt><trkpt lat="41.00721960816126" lon="9.433757008343566"><ele>69.0</ele><time>2026-05-02T08:17:15.002Z</time></trkpt><trkpt lat="41.007151190294174" lon="9.433966149583773"><ele>69.0</ele><time>2026-05-02T08:17:16.002Z</time></trkpt><trkpt lat="41.00708175942419" lon="9.434180570125084"><ele>69.0</ele><time>2026-05-02T08:17:17.002Z</time></trkpt><trkpt lat="41.00701256668641" lon="9.43439744805898"><ele>69.0</ele><time>2026-05-02T08:17:18.002Z</time></trkpt><trkpt lat="41.00693832352803" lon="9.434620683840732"><ele>71.66666666666667</ele><time>2026-05-02T08:17:19.002Z</time></trkpt><trkpt lat="41.00686708099897" lon="9.434838345741156"><ele>74.33333333333334</ele><time>2026-05-02T08:17:20.002Z</time></trkpt><trkpt lat="41.006796679151925" lon="9.435047472337601"><ele>77.0</ele><time>2026-05-02T08:17:21.002Z</time></trkpt><trkpt lat="41.006723191332895" lon="9.43525612075266"><ele>76.66666666666667</ele><time>2026-05-02T08:17:22.001Z</time></trkpt><trkpt lat="41.00665588976595" lon="9.43545788854009"><ele>76.33333333333333</ele><time>2026-05-02T08:17:23.001Z</time></trkpt><trkpt lat="41.00659837651692" lon="9.435640169302266"><ele>76.0</ele><time>2026-05-02T08:17:24.001Z</time></trkpt><trkpt lat="41.006539628909714" lon="9.435800373968732"><ele>76.0</ele><time>2026-05-02T08:17:25.001Z</time></trkpt><trkpt lat="41.00647087174778" lon="9.435927205708468"><ele>76.0</ele><time>2026-05-02T08:17:26.001Z</time></trkpt><trkpt lat="41.00638544688638" lon="9.436017962679077"><ele>76.0</ele><time>2026-05-02T08:17:27.001Z</time></trkpt><trkpt lat="41.00628617424008" lon="9.436067184000562"><ele>76.0</ele><time>2026-05-02T08:17:28.001Z</time></trkpt><trkpt lat="41.00618378589172" lon="9.436072206969495"><ele>76.0</ele><time>2026-05-02T08:17:29.001Z</time></trkpt><trkpt lat="41.00606923543959" lon="9.436037560890385"><ele>76.0</ele><time>2026-05-02T08:17:30.001Z</time></trkpt><trkpt lat="41.00593832109732" lon="9.435984842342464"><ele>76.0</ele><time>2026-05-02T08:17:31.001Z</time></trkpt><trkpt lat="41.005816682186556" lon="9.435962637521556"><ele>76.0</ele><time>2026-05-02T08:17:32.001Z</time></trkpt><trkpt lat="41.00569155077754" lon="9.43598209946666"><ele>76.0</ele><time>2026-05-02T08:17:33.001Z</time></trkpt><trkpt lat="41.005564061251015" lon="9.436048493321978"><ele>77.33333333333333</ele><time>2026-05-02T08:17:34.001Z</time></trkpt><trkpt lat="41.005426216280554" lon="9.43615954587316"><ele>78.66666666666667</ele><time>2026-05-02T08:17:35.001Z</time></trkpt><trkpt lat="41.00527905900284" lon="9.436291383788387"><ele>80.0</ele><time>2026-05-02T08:17:36.001Z</time></trkpt><trkpt lat="41.0051269290522" lon="9.436445402168872"><ele>77.0</ele><time>2026-05-02T08:17:37.001Z</time></trkpt><trkpt lat="41.0049756138943" lon="9.436605599049434"><ele>74.0</ele><time>2026-05-02T08:17:38.001Z</time></trkpt><trkpt lat="41.004833576954205" lon="9.436763959655519"><ele>71.0</ele><time>2026-05-02T08:17:39.001Z</time></trkpt><trkpt lat="41.004702373900855" lon="9.43691201722419"><ele>71.0</ele><time>2026-05-02T08:17:40.001Z</time></trkpt><trkpt lat="41.00457793938382" lon="9.437046677087661"><ele>71.0</ele><time>2026-05-02T08:17:41.001Z</time></trkpt><trkpt lat="41.004456068304485" lon="9.437180249173444"><ele>71.0</ele><time>2026-05-02T08:17:42.001Z</time></trkpt><trkpt lat="41.00433403744024" lon="9.437314729819834"><ele>72.33333333333334</ele><time>2026-05-02T08:17:43.001Z</time></trkpt><trkpt lat="41.00421514433795" lon="9.437449384618999"><ele>73.66666666666667</ele><time>2026-05-02T08:17:44.001Z</time></trkpt><trkpt lat="41.00409424056401" lon="9.437587098746013"><ele>75.0</ele><time>2026-05-02T08:17:45.001Z</time></trkpt><trkpt lat="41.003980949585554" lon="9.43773162511075"><ele>75.0</ele><time>2026-05-02T08:17:46.001Z</time></trkpt><trkpt lat="41.00388330503403" lon="9.437887601436612"><ele>75.0</ele><time>2026-05-02T08:17:47.001Z</time></trkpt><trkpt lat="41.003803328033165" lon="9.438081925117643"><ele>75.0</ele><time>2026-05-02T08:17:48.001Z</time></trkpt><trkpt lat="41.003736790582174" lon="9.438280812262956"><ele>75.66666666666667</ele><time>2026-05-02T08:17:49.001Z</time></trkpt><trkpt lat="41.00365655482147" lon="9.438464251403596"><ele>76.33333333333334</ele><time>2026-05-02T08:17:50.001Z</time></trkpt><trkpt lat="41.00355480074921" lon="9.438627966214652"><ele>77.0</ele><time>2026-05-02T08:17:51.001Z</time></trkpt><trkpt lat="41.00342872509456" lon="9.438760302294794"><ele>77.66666666666667</ele><time>2026-05-02T08:17:52.001Z</time></trkpt><trkpt lat="41.003293490419544" lon="9.438907562680711"><ele>78.33333333333333</ele><time>2026-05-02T08:17:53.001Z</time></trkpt><trkpt lat="41.003136241491454" lon="9.439037192218105"><ele>79.0</ele><time>2026-05-02T08:17:54.001Z</time></trkpt><trkpt lat="41.00298013613779" lon="9.439137338777972"><ele>79.0</ele><time>2026-05-02T08:17:55.001Z</time></trkpt><trkpt lat="41.00281706816951" lon="9.439225094114663"><ele>79.0</ele><time>2026-05-02T08:17:56.001Z</time></trkpt><trkpt lat="41.00265548014933" lon="9.439339874446942"><ele>79.0</ele><time>2026-05-02T08:17:57.001Z</time></trkpt><trkpt lat="41.00249475105755" lon="9.439482945984299"><ele>79.33333333333333</ele><time>2026-05-02T08:17:58.001Z</time></trkpt><trkpt lat="41.00234069094397" lon="9.439628400273987"><ele>79.66666666666667</ele><time>2026-05-02T08:17:59.001Z</time></trkpt><trkpt lat="41.00219806067617" lon="9.439760209678084"><ele>80.0</ele><time>2026-05-02T08:18:00.001Z</time></trkpt><trkpt lat="41.00206688597021" lon="9.439881840844889"><ele>80.0</ele><time>2026-05-02T08:18:01.001Z</time></trkpt><trkpt lat="41.001950155930714" lon="9.440010360811904"><ele>80.0</ele><time>2026-05-02T08:18:02.001Z</time></trkpt><trkpt lat="41.001851121285675" lon="9.440160297130724"><ele>80.0</ele><time>2026-05-02T08:18:03.001Z</time></trkpt><trkpt lat="41.001774208828664" lon="9.440345749423596"><ele>82.0</ele><time>2026-05-02T08:18:04.001Z</time></trkpt><trkpt lat="41.001716184604646" lon="9.440558998829344"><ele>84.0</ele><time>2026-05-02T08:18:05.001Z</time></trkpt><trkpt lat="41.00165263591777" lon="9.440781494116637"><ele>86.0</ele><time>2026-05-02T08:18:06.001Z</time></trkpt><trkpt lat="41.001564761715485" lon="9.440985763332167"><ele>86.0</ele><time>2026-05-02T08:18:07.001Z</time></trkpt><trkpt lat="41.00146009166077" lon="9.441166777049382"><ele>86.0</ele><time>2026-05-02T08:18:08.001Z</time></trkpt><trkpt lat="41.001336621963134" lon="9.44131652016623"><ele>86.0</ele><time>2026-05-02T08:18:09.001Z</time></trkpt><trkpt lat="41.001196240943116" lon="9.441457443816029"><ele>88.0</ele><time>2026-05-02T08:18:10.001Z</time></trkpt><trkpt lat="41.00106341481303" lon="9.44159866382824"><ele>90.0</ele><time>2026-05-02T08:18:11.001Z</time></trkpt><trkpt lat="41.000944485734095" lon="9.441732117472533"><ele>92.0</ele><time>2026-05-02T08:18:12.001Z</time></trkpt><trkpt lat="41.000842156414926" lon="9.44187068040826"><ele>93.0</ele><time>2026-05-02T08:18:13.001Z</time></trkpt><trkpt lat="41.00075652228428" lon="9.442043008845504"><ele>94.0</ele><time>2026-05-02T08:18:14.001Z</time></trkpt><trkpt lat="41.0006937170202" lon="9.442248018957121"><ele>95.0</ele><time>2026-05-02T08:18:15.001Z</time></trkpt><trkpt lat="41.000635023472526" lon="9.442492293618109"><ele>95.0</ele><time>2026-05-02T08:18:16.001Z</time></trkpt><trkpt lat="41.000575333069655" lon="9.442751038979614"><ele>95.0</ele><time>2026-05-02T08:18:17.001Z</time></trkpt><trkpt lat="41.000515504685744" lon="9.443009151116208"><ele>95.0</ele><time>2026-05-02T08:18:18.001Z</time></trkpt><trkpt lat="41.000458283744436" lon="9.443253447985084"><ele>95.0</ele><time>2026-05-02T08:18:19.001Z</time></trkpt><trkpt lat="41.00040335561644" lon="9.443494368457104"><ele>95.0</ele><time>2026-05-02T08:18:20.001Z</time></trkpt><trkpt lat="41.000351311615226" lon="9.443729197617028"><ele>95.0</ele><time>2026-05-02T08:18:21.001Z</time></trkpt><trkpt lat="41.000302543337206" lon="9.443964540219213"><ele>95.0</ele><time>2026-05-02T08:18:22.001Z</time></trkpt><trkpt lat="41.00025926491967" lon="9.444202855620706"><ele>95.0</ele><time>2026-05-02T08:18:23.001Z</time></trkpt><trkpt lat="41.00023291168443" lon="9.444445647285258"><ele>95.0</ele><time>2026-05-02T08:18:24.001Z</time></trkpt><trkpt lat="41.000225056009725" lon="9.444703539583577"><ele>96.33333333333334</ele><time>2026-05-02T08:18:25.001Z</time></trkpt><trkpt lat="41.00022894703714" lon="9.444955908058846"><ele>97.66666666666667</ele><time>2026-05-02T08:18:26.001Z</time></trkpt><trkpt lat="41.00022533247567" lon="9.445201059479373"><ele>99.0</ele><time>2026-05-02T08:18:27.001Z</time></trkpt><trkpt lat="41.00019916644048" lon="9.445448055991529"><ele>99.66666666666666</ele><time>2026-05-02T08:18:28.001Z</time></trkpt><trkpt lat="41.00015435211373" lon="9.44570344575294"><ele>100.33333333333333</ele><time>2026-05-02T08:18:29.001Z</time></trkpt><trkpt lat="41.00009563972957" lon="9.445948684061465"><ele>101.0</ele><time>2026-05-02T08:18:30.001Z</time></trkpt><trkpt lat="41.000037318752405" lon="9.44617308247633"><ele>104.66666666666666</ele><time>2026-05-02T08:18:31.001Z</time></trkpt><trkpt lat="40.999978217685964" lon="9.44638216089194"><ele>108.33333333333334</ele><time>2026-05-02T08:18:32.001Z</time></trkpt><trkpt lat="40.99991099449143" lon="9.446566176131874"><ele>112.0</ele><time>2026-05-02T08:18:33.001Z</time></trkpt><trkpt lat="40.999844054775494" lon="9.446735654225645"><ele>112.0</ele><time>2026-05-02T08:18:34.001Z</time></trkpt><trkpt lat="40.999777889314586" lon="9.44689646754799"><ele>112.0</ele><time>2026-05-02T08:18:35.001Z</time></trkpt><trkpt lat="40.999718757462176" lon="9.447059063401678"><ele>112.0</ele><time>2026-05-02T08:18:36.001Z</time></trkpt><trkpt lat="40.999675561864684" lon="9.44722461816519"><ele>112.0</ele><time>2026-05-02T08:18:37.001Z</time></trkpt><trkpt lat="40.99964460833753" lon="9.447390484869839"><ele>114.75</ele><time>2026-05-02T08:18:38.001Z</time></trkpt><trkpt lat="40.99962072417184" lon="9.447553419988862"><ele>117.5</ele><time>2026-05-02T08:18:39.001Z</time></trkpt><trkpt lat="40.999603391816265" lon="9.447714015617562"><ele>120.25</ele><time>2026-05-02T08:18:40.001Z</time></trkpt><trkpt lat="40.99959056396539" lon="9.447867456003943"><ele>123.0</ele><time>2026-05-02T08:18:41.001Z</time></trkpt><trkpt lat="40.99958229339575" lon="9.448021134415121"><ele>123.25</ele><time>2026-05-02T08:18:42.001Z</time></trkpt><trkpt lat="40.9995778961982" lon="9.448175226908369"><ele>123.5</ele><time>2026-05-02T08:18:43.001Z</time></trkpt><trkpt lat="40.99957980751984" lon="9.448326483671426"><ele>123.75</ele><time>2026-05-02T08:18:44.001Z</time></trkpt><trkpt lat="40.999584951714056" lon="9.448474031663372"><ele>124.0</ele><time>2026-05-02T08:18:45.001Z</time></trkpt><trkpt lat="40.99959211656039" lon="9.44861649740249"><ele>124.0</ele><time>2026-05-02T08:18:46.001Z</time></trkpt><trkpt lat="40.99959057656423" lon="9.44875995093192"><ele>124.0</ele><time>2026-05-02T08:18:47.001Z</time></trkpt><trkpt lat="40.999574669132386" lon="9.448891131985906"><ele>124.0</ele><time>2026-05-02T08:18:48.001Z</time></trkpt><trkpt lat="40.99954756186718" lon="9.449026136714737"><ele>124.0</ele><time>2026-05-02T08:18:49.001Z</time></trkpt><trkpt lat="40.99951583294494" lon="9.449162340643555"><ele>124.0</ele><time>2026-05-02T08:18:50.001Z</time></trkpt><trkpt lat="40.99947548291284" lon="9.449298666886353"><ele>125.5</ele><time>2026-05-02T08:18:51.001Z</time></trkpt><trkpt lat="40.999420913535886" lon="9.449436582850092"><ele>127.0</ele><time>2026-05-02T08:18:52.001Z</time></trkpt><trkpt lat="40.99935042766397" lon="9.449568326894815"><ele>128.5</ele><time>2026-05-02T08:18:53.001Z</time></trkpt><trkpt lat="40.99926622104438" lon="9.449691578688117"><ele>130.0</ele><time>2026-05-02T08:18:54.001Z</time></trkpt><trkpt lat="40.99917699790768" lon="9.449822911474113"><ele>129.25</ele><time>2026-05-02T08:18:55.001Z</time></trkpt><trkpt lat="40.99910286541474" lon="9.449972566607142"><ele>128.5</ele><time>2026-05-02T08:18:56.001Z</time></trkpt><trkpt lat="40.99904705114574" lon="9.450135519446752"><ele>127.75</ele><time>2026-05-02T08:18:57.001Z</time></trkpt><trkpt lat="40.99901539463336" lon="9.450311221120435"><ele>127.0</ele><time>2026-05-02T08:18:58.001Z</time></trkpt><trkpt lat="40.999003846610414" lon="9.450509055084686"><ele>127.0</ele><time>2026-05-02T08:18:59.001Z</time></trkpt><trkpt lat="40.99898850276345" lon="9.45072689733827"><ele>127.0</ele><time>2026-05-02T08:19:00.001Z</time></trkpt><trkpt lat="40.998958344696135" lon="9.450941535547567"><ele>127.0</ele><time>2026-05-02T08:19:01.001Z</time></trkpt><trkpt lat="40.99890821810976" lon="9.451153162362987"><ele>126.33333333333334</ele><time>2026-05-02T08:19:02.001Z</time></trkpt><trkpt lat="40.99886425532291" lon="9.451357551116894"><ele>125.66666666666666</ele><time>2026-05-02T08:19:03.001Z</time></trkpt><trkpt lat="40.99884560622853" lon="9.4515751811811"><ele>125.0</ele><time>2026-05-02T08:19:04.001Z</time></trkpt><trkpt lat="40.99885737577007" lon="9.45179988836395"><ele>125.0</ele><time>2026-05-02T08:19:05.001Z</time></trkpt><trkpt lat="40.998878163930705" lon="9.452029983683223"><ele>125.0</ele><time>2026-05-02T08:19:06.001Z</time></trkpt><trkpt lat="40.99888100750275" lon="9.452247684495616"><ele>125.0</ele><time>2026-05-02T08:19:07.001Z</time></trkpt><trkpt lat="40.998860217725266" lon="9.4524674477362"><ele>126.66666666666666</ele><time>2026-05-02T08:19:08.001Z</time></trkpt><trkpt lat="40.99882908840923" lon="9.452700493657876"><ele>128.33333333333334</ele><time>2026-05-02T08:19:09.001Z</time></trkpt><trkpt lat="40.99879654147046" lon="9.452909230604583"><ele>130.0</ele><time>2026-05-02T08:19:10.001Z</time></trkpt><trkpt lat="40.99876177689838" lon="9.45310146952594"><ele>131.5</ele><time>2026-05-02T08:19:11.001Z</time></trkpt><trkpt lat="40.99872769358976" lon="9.45327883841699"><ele>133.0</ele><time>2026-05-02T08:19:12.001Z</time></trkpt><trkpt lat="40.99868484684581" lon="9.453451414002403"><ele>134.5</ele><time>2026-05-02T08:19:13.001Z</time></trkpt><trkpt lat="40.998636099434115" lon="9.45360937346729"><ele>136.0</ele><time>2026-05-02T08:19:14.001Z</time></trkpt><trkpt lat="40.99858935451103" lon="9.453755647630182"><ele>137.0</ele><time>2026-05-02T08:19:15.001Z</time></trkpt><trkpt lat="40.998544834695394" lon="9.453885523072929"><ele>138.0</ele><time>2026-05-02T08:19:16.001Z</time></trkpt><trkpt lat="40.998504001756764" lon="9.454004960963069"><ele>139.0</ele><time>2026-05-02T08:19:17.001Z</time></trkpt><trkpt lat="40.99846735277943" lon="9.454121295474025"><ele>140.0</ele><time>2026-05-02T08:19:18.001Z</time></trkpt><trkpt lat="40.998431873408336" lon="9.454229773569617"><ele>141.0</ele><time>2026-05-02T08:19:19.001Z</time></trkpt><trkpt lat="40.998393268232654" lon="9.454335132048763"><ele>141.0</ele><time>2026-05-02T08:19:20.001Z</time></trkpt><trkpt lat="40.99834226545014" lon="9.454438334544161"><ele>141.0</ele><time>2026-05-02T08:19:21.001Z</time></trkpt><trkpt lat="40.99828381978694" lon="9.454536990797402"><ele>141.0</ele><time>2026-05-02T08:19:22.001Z</time></trkpt><trkpt lat="40.99821474066947" lon="9.454626958335574"><ele>141.0</ele><time>2026-05-02T08:19:23.001Z</time></trkpt><trkpt lat="40.99814018944457" lon="9.454711233449228"><ele>141.0</ele><time>2026-05-02T08:19:24.001Z</time></trkpt><trkpt lat="40.99806291701526" lon="9.454795018833929"><ele>139.2</ele><time>2026-05-02T08:19:25.001Z</time></trkpt><trkpt lat="40.997984533272984" lon="9.454883680229441"><ele>137.39999999999998</ele><time>2026-05-02T08:19:26.001Z</time></trkpt><trkpt lat="40.99790490175558" lon="9.454974285083857"><ele>135.6</ele><time>2026-05-02T08:19:27.001Z</time></trkpt><trkpt lat="40.99782466718749" lon="9.45506986110526"><ele>133.79999999999998</ele><time>2026-05-02T08:19:28.001Z</time></trkpt><trkpt lat="40.99775259260466" lon="9.455176349576492"><ele>132.0</ele><time>2026-05-02T08:19:29.001Z</time></trkpt><trkpt lat="40.997698376550964" lon="9.455289904882024"><ele>132.0</ele><time>2026-05-02T08:19:30.001Z</time></trkpt><trkpt lat="40.99765402036042" lon="9.455415443033743"><ele>132.0</ele><time>2026-05-02T08:19:31.001Z</time></trkpt><trkpt lat="40.99761191138768" lon="9.45555122515959"><ele>132.0</ele><time>2026-05-02T08:19:32.001Z</time></trkpt><trkpt lat="40.99756779235813" lon="9.455688488452891"><ele>132.0</ele><time>2026-05-02T08:19:33.001Z</time></trkpt><trkpt lat="40.99751171634345" lon="9.455826431326416"><ele>132.0</ele><time>2026-05-02T08:19:34.001Z</time></trkpt><trkpt lat="40.99744279857796" lon="9.4559723036641"><ele>132.25</ele><time>2026-05-02T08:19:35.001Z</time></trkpt><trkpt lat="40.997360116289386" lon="9.456121020317006"><ele>132.5</ele><time>2026-05-02T08:19:36.001Z</time></trkpt><trkpt lat="40.99726851717744" lon="9.456275887829758"><ele>132.75</ele><time>2026-05-02T08:19:37.001Z</time></trkpt><trkpt lat="40.99717494919197" lon="9.456442197157978"><ele>133.0</ele><time>2026-05-02T08:19:38.001Z</time></trkpt><trkpt lat="40.99709443298021" lon="9.456626203719441"><ele>133.0</ele><time>2026-05-02T08:19:39Z</time></trkpt><trkpt lat="40.99702677627447" lon="9.45681237780231"><ele>133.0</ele><time>2026-05-02T08:19:40Z</time></trkpt><trkpt lat="40.99698140782534" lon="9.457016217938685"><ele>133.0</ele><time>2026-05-02T08:19:41Z</time></trkpt><trkpt lat="40.99695485172434" lon="9.457209946946595"><ele>132.5</ele><time>2026-05-02T08:19:42Z</time></trkpt><trkpt lat="40.996924228664376" lon="9.457383598740384"><ele>132.0</ele><time>2026-05-02T08:19:43Z</time></trkpt><trkpt lat="40.99686729555229" lon="9.457542137848893"><ele>131.5</ele><time>2026-05-02T08:19:44Z</time></trkpt><trkpt lat="40.99678991291555" lon="9.457675762415587"><ele>131.0</ele><time>2026-05-02T08:19:45Z</time></trkpt><trkpt lat="40.99670661339752" lon="9.457793230491067"><ele>130.0</ele><time>2026-05-02T08:19:46Z</time></trkpt><trkpt lat="40.99661818263135" lon="9.457879243477299"><ele>129.0</ele><time>2026-05-02T08:19:47Z</time></trkpt><trkpt lat="40.99652071567319" lon="9.457923573075359"><ele>128.0</ele><time>2026-05-02T08:19:48Z</time></trkpt><trkpt lat="40.99641347328934" lon="9.457930814586163"><ele>127.0</ele><time>2026-05-02T08:19:49Z</time></trkpt><trkpt lat="40.99631352348911" lon="9.457891269815875"><ele>126.0</ele><time>2026-05-02T08:19:50Z</time></trkpt><trkpt lat="40.99622405562264" lon="9.457828709404074"><ele>126.0</ele><time>2026-05-02T08:19:51Z</time></trkpt><trkpt lat="40.99613799460954" lon="9.457760047759711"><ele>126.0</ele><time>2026-05-02T08:19:52Z</time></trkpt><trkpt lat="40.99605527006909" lon="9.457702879904868"><ele>126.0</ele><time>2026-05-02T08:19:53Z</time></trkpt><trkpt lat="40.9959755327435" lon="9.457672574182297"><ele>126.0</ele><time>2026-05-02T08:19:54Z</time></trkpt><trkpt lat="40.995895135799884" lon="9.457669172091514"><ele>126.0</ele><time>2026-05-02T08:19:55Z</time></trkpt><trkpt lat="40.99581650117597" lon="9.457694284613483"><ele>126.0</ele><time>2026-05-02T08:19:56Z</time></trkpt><trkpt lat="40.995752783419285" lon="9.45776665552399"><ele>126.0</ele><time>2026-05-02T08:19:57Z</time></trkpt><trkpt lat="40.99570406183595" lon="9.457876479330597"><ele>126.0</ele><time>2026-05-02T08:19:58Z</time></trkpt><trkpt lat="40.99567082614105" lon="9.4580193272762"><ele>126.0</ele><time>2026-05-02T08:19:59Z</time></trkpt><trkpt lat="40.99563918790909" lon="9.458193224487909"><ele>126.0</ele><time>2026-05-02T08:20:00Z</time></trkpt><trkpt lat="40.99560293120476" lon="9.458370888918287"><ele>120.66666666666666</ele><time>2026-05-02T08:20:01Z</time></trkpt><trkpt lat="40.9955655570507" lon="9.458547533432672"><ele>115.33333333333333</ele><time>2026-05-02T08:20:02Z</time></trkpt><trkpt lat="40.99552864101509" lon="9.458762418084497"><ele>110.0</ele><time>2026-05-02T08:20:03Z</time></trkpt><trkpt lat="40.99548610935934" lon="9.458971655707836"><ele>108.5</ele><time>2026-05-02T08:20:04Z</time></trkpt><trkpt lat="40.995431274269286" lon="9.459169366210135"><ele>107.0</ele><time>2026-05-02T08:20:05Z</time></trkpt><trkpt lat="40.99538308482815" lon="9.4593551475141"><ele>105.5</ele><time>2026-05-02T08:20:06Z</time></trkpt><trkpt lat="40.99533968428254" lon="9.459531345175451"><ele>104.0</ele><time>2026-05-02T08:20:07Z</time></trkpt><trkpt lat="40.99529825364387" lon="9.45970331487768"><ele>101.75</ele><time>2026-05-02T08:20:08Z</time></trkpt><trkpt lat="40.995257713900216" lon="9.45986698112255"><ele>99.5</ele><time>2026-05-02T08:20:09Z</time></trkpt><trkpt lat="40.99521969748273" lon="9.460020386586796"><ele>97.25</ele><time>2026-05-02T08:20:10Z</time></trkpt><trkpt lat="40.99517159018929" lon="9.460169240370622"><ele>95.0</ele><time>2026-05-02T08:20:11Z</time></trkpt><trkpt lat="40.99510811190367" lon="9.460319665753648"><ele>94.75</ele><time>2026-05-02T08:20:12Z</time></trkpt><trkpt lat="40.9950355574659" lon="9.460470641256792"><ele>94.5</ele><time>2026-05-02T08:20:13Z</time></trkpt><trkpt lat="40.99496347980909" lon="9.46062640262784"><ele>94.25</ele><time>2026-05-02T08:20:14Z</time></trkpt><trkpt lat="40.99491068627284" lon="9.460786141449642"><ele>94.0</ele><time>2026-05-02T08:20:15Z</time></trkpt><trkpt lat="40.99487363502792" lon="9.460947376319078"><ele>94.0</ele><time>2026-05-02T08:20:16Z</time></trkpt><trkpt lat="40.99485135488096" lon="9.461104552118998"><ele>94.0</ele><time>2026-05-02T08:20:17Z</time></trkpt><trkpt lat="40.99482695589762" lon="9.461257612149783"><ele>94.0</ele><time>2026-05-02T08:20:18Z</time></trkpt><trkpt lat="40.994786060835" lon="9.461409003675733"><ele>94.0</ele><time>2026-05-02T08:20:19Z</time></trkpt><trkpt lat="40.994736254227924" lon="9.461551738342571"><ele>92.80000000000001</ele><time>2026-05-02T08:20:20Z</time></trkpt><trkpt lat="40.994690893641575" lon="9.461678723988594"><ele>91.60000000000001</ele><time>2026-05-02T08:20:21Z</time></trkpt><trkpt lat="40.99464735906283" lon="9.46179445817794"><ele>90.4</ele><time>2026-05-02T08:20:22Z</time></trkpt><trkpt lat="40.9946045425895" lon="9.461900876484169"><ele>89.2</ele><time>2026-05-02T08:20:23Z</time></trkpt><trkpt lat="40.994553221281954" lon="9.461996041383673"><ele>88.0</ele><time>2026-05-02T08:20:24Z</time></trkpt><trkpt lat="40.99448579589579" lon="9.46207399084936"><ele>86.80000000000001</ele><time>2026-05-02T08:20:25Z</time></trkpt><trkpt lat="40.994405149659926" lon="9.462127009757983"><ele>85.6</ele><time>2026-05-02T08:20:26Z</time></trkpt><trkpt lat="40.99430278374884" lon="9.462163758332885"><ele>84.4</ele><time>2026-05-02T08:20:27Z</time></trkpt><trkpt lat="40.99420808285981" lon="9.462209839479257"><ele>83.19999999999999</ele><time>2026-05-02T08:20:28Z</time></trkpt><trkpt lat="40.99412804317706" lon="9.462284248504044"><ele>82.0</ele><time>2026-05-02T08:20:29Z</time></trkpt><trkpt lat="40.99407262825821" lon="9.462394654317526"><ele>82.0</ele><time>2026-05-02T08:20:30Z</time></trkpt><trkpt lat="40.99402927927573" lon="9.462543030669627"><ele>82.0</ele><time>2026-05-02T08:20:31Z</time></trkpt><trkpt lat="40.99398724408813" lon="9.46271825030187"><ele>82.0</ele><time>2026-05-02T08:20:32Z</time></trkpt><trkpt lat="40.99394592857316" lon="9.462900462606731"><ele>82.0</ele><time>2026-05-02T08:20:33Z</time></trkpt><trkpt lat="40.99390560187771" lon="9.463084854142254"><ele>81.33333333333333</ele><time>2026-05-02T08:20:34Z</time></trkpt><trkpt lat="40.993860535655216" lon="9.463284477979899"><ele>80.66666666666667</ele><time>2026-05-02T08:20:35Z</time></trkpt><trkpt lat="40.99380681930244" lon="9.463480899896128"><ele>80.0</ele><time>2026-05-02T08:20:36Z</time></trkpt><trkpt lat="40.99374096502308" lon="9.463658241943575"><ele>79.5</ele><time>2026-05-02T08:20:37Z</time></trkpt><trkpt lat="40.99367158978059" lon="9.463815353696372"><ele>79.0</ele><time>2026-05-02T08:20:38Z</time></trkpt><trkpt lat="40.99359831833479" lon="9.463982831138244"><ele>78.5</ele><time>2026-05-02T08:20:39Z</time></trkpt><trkpt lat="40.993540368490606" lon="9.464156823290793"><ele>78.0</ele><time>2026-05-02T08:20:40Z</time></trkpt><trkpt lat="40.993499717485236" lon="9.464323749225075"><ele>78.0</ele><time>2026-05-02T08:20:41Z</time></trkpt><trkpt lat="40.99345701340962" lon="9.464494078118886"><ele>78.0</ele><time>2026-05-02T08:20:42Z</time></trkpt><trkpt lat="40.993407141326315" lon="9.464653316455433"><ele>78.0</ele><time>2026-05-02T08:20:43Z</time></trkpt><trkpt lat="40.99334552400142" lon="9.464808549263502"><ele>78.0</ele><time>2026-05-02T08:20:44Z</time></trkpt><trkpt lat="40.99327373055853" lon="9.464950531079952"><ele>80.0</ele><time>2026-05-02T08:20:45Z</time></trkpt><trkpt lat="40.9931993091177" lon="9.465089741877113"><ele>82.0</ele><time>2026-05-02T08:20:46Z</time></trkpt><trkpt lat="40.993118150954274" lon="9.465226883850711"><ele>84.0</ele><time>2026-05-02T08:20:47Z</time></trkpt><trkpt lat="40.99303460613195" lon="9.465353716593382"><ele>86.0</ele><time>2026-05-02T08:20:48Z</time></trkpt><trkpt lat="40.99294332015702" lon="9.465492285521721"><ele>86.0</ele><time>2026-05-02T08:20:49Z</time></trkpt><trkpt lat="40.99284826627108" lon="9.465633487103727"><ele>86.0</ele><time>2026-05-02T08:20:50Z</time></trkpt><trkpt lat="40.992749752003846" lon="9.465772994715305"><ele>86.0</ele><time>2026-05-02T08:20:51Z</time></trkpt><trkpt lat="40.99265059915629" lon="9.465912361162749"><ele>86.0</ele><time>2026-05-02T08:20:52Z</time></trkpt><trkpt lat="40.99255118050221" lon="9.466045319914766"><ele>88.5</ele><time>2026-05-02T08:20:53Z</time></trkpt><trkpt lat="40.992456358686205" lon="9.46617347252872"><ele>91.0</ele><time>2026-05-02T08:20:54Z</time></trkpt><trkpt lat="40.992367835456406" lon="9.46630802280979"><ele>93.5</ele><time>2026-05-02T08:20:55Z</time></trkpt><trkpt lat="40.992296291099336" lon="9.46644768436415"><ele>96.0</ele><time>2026-05-02T08:20:56Z</time></trkpt><trkpt lat="40.992243513451925" lon="9.466592200938383"><ele>96.0</ele><time>2026-05-02T08:20:57Z</time></trkpt><trkpt lat="40.99220319375691" lon="9.46674140584427"><ele>96.0</ele><time>2026-05-02T08:20:58Z</time></trkpt><trkpt lat="40.99216056295524" lon="9.466887520721327"><ele>96.0</ele><time>2026-05-02T08:20:59Z</time></trkpt><trkpt lat="40.99210988640106" lon="9.467024598743095"><ele>96.0</ele><time>2026-05-02T08:21:00Z</time></trkpt><trkpt lat="40.992046193202086" lon="9.467148656248556"><ele>97.0</ele><time>2026-05-02T08:21:01Z</time></trkpt><trkpt lat="40.991977318025825" lon="9.467260305515458"><ele>98.0</ele><time>2026-05-02T08:21:02Z</time></trkpt><trkpt lat="40.991918144809674" lon="9.467385758088394"><ele>99.0</ele><time>2026-05-02T08:21:03Z</time></trkpt><trkpt lat="40.991877923528754" lon="9.467523358572532"><ele>100.0</ele><time>2026-05-02T08:21:04Z</time></trkpt><trkpt lat="40.99185699080029" lon="9.467662853735964"><ele>101.0</ele><time>2026-05-02T08:21:05Z</time></trkpt><trkpt lat="40.99185578793494" lon="9.467799894211048"><ele>101.0</ele><time>2026-05-02T08:21:06Z</time></trkpt><trkpt lat="40.991858418457916" lon="9.4679385590825"><ele>101.0</ele><time>2026-05-02T08:21:07Z</time></trkpt><trkpt lat="40.99185322029152" lon="9.468092302345983"><ele>101.0</ele><time>2026-05-02T08:21:08Z</time></trkpt><trkpt lat="40.9918291898214" lon="9.46823801388372"><ele>101.0</ele><time>2026-05-02T08:21:09Z</time></trkpt><trkpt lat="40.99179439390639" lon="9.468373594747474"><ele>101.0</ele><time>2026-05-02T08:21:10Z</time></trkpt><trkpt lat="40.99175404671991" lon="9.468497993457358"><ele>102.19999999999999</ele><time>2026-05-02T08:21:11Z</time></trkpt><trkpt lat="40.99171167308589" lon="9.46862309016012"><ele>103.39999999999999</ele><time>2026-05-02T08:21:12Z</time></trkpt><trkpt lat="40.99168165262315" lon="9.468756326015482"><ele>104.6</ele><time>2026-05-02T08:21:13Z</time></trkpt><trkpt lat="40.99167244854358" lon="9.468899459436907"><ele>105.8</ele><time>2026-05-02T08:21:14Z</time></trkpt><trkpt lat="40.99166978386262" lon="9.46904038814457"><ele>107.0</ele><time>2026-05-02T08:21:15Z</time></trkpt><trkpt lat="40.99167801900128" lon="9.469182100232548"><ele>108.39999999999999</ele><time>2026-05-02T08:21:16Z</time></trkpt><trkpt lat="40.991702156421496" lon="9.469320054659386"><ele>109.79999999999998</ele><time>2026-05-02T08:21:17Z</time></trkpt><trkpt lat="40.9917388896227" lon="9.469440916207668"><ele>111.2</ele><time>2026-05-02T08:21:18Z</time></trkpt><trkpt lat="40.9917883033928" lon="9.469557578460375"><ele>112.6</ele><time>2026-05-02T08:21:19Z</time></trkpt><trkpt lat="40.99183980091217" lon="9.469672639722516"><ele>114.0</ele><time>2026-05-02T08:21:20Z</time></trkpt><trkpt lat="40.991894132036" lon="9.469797489827728"><ele>115.0</ele><time>2026-05-02T08:21:21Z</time></trkpt><trkpt lat="40.99194310048401" lon="9.469940257142369"><ele>116.0</ele><time>2026-05-02T08:21:22Z</time></trkpt><trkpt lat="40.99197254418665" lon="9.470093672152366"><ele>117.0</ele><time>2026-05-02T08:21:23Z</time></trkpt><trkpt lat="40.99197857480907" lon="9.47026486032901"><ele>118.0</ele><time>2026-05-02T08:21:24Z</time></trkpt><trkpt lat="40.99195967887474" lon="9.470437645544381"><ele>116.0</ele><time>2026-05-02T08:21:25Z</time></trkpt><trkpt lat="40.99193163036362" lon="9.470623894104063"><ele>114.0</ele><time>2026-05-02T08:21:26Z</time></trkpt><trkpt lat="40.991901112931274" lon="9.470817025511629"><ele>112.0</ele><time>2026-05-02T08:21:27Z</time></trkpt><trkpt lat="40.991865734059125" lon="9.471019072828009"><ele>110.0</ele><time>2026-05-02T08:21:28Z</time></trkpt><trkpt lat="40.99182711678369" lon="9.471252349608736"><ele>107.66666666666666</ele><time>2026-05-02T08:21:29Z</time></trkpt><trkpt lat="40.991787641895414" lon="9.471464434168995"><ele>105.33333333333334</ele><time>2026-05-02T08:21:30Z</time></trkpt><trkpt lat="40.99174544403601" lon="9.471659006695305"><ele>103.0</ele><time>2026-05-02T08:21:31Z</time></trkpt><trkpt lat="40.991705942627505" lon="9.471839892056842"><ele>102.75</ele><time>2026-05-02T08:21:32Z</time></trkpt><trkpt lat="40.991668962257165" lon="9.472011507978907"><ele>102.5</ele><time>2026-05-02T08:21:33Z</time></trkpt><trkpt lat="40.99163020253761" lon="9.4721742548025"><ele>102.25</ele><time>2026-05-02T08:21:34Z</time></trkpt><trkpt lat="40.99159002621233" lon="9.472332088043386"><ele>102.0</ele><time>2026-05-02T08:21:35Z</time></trkpt><trkpt lat="40.991531933778695" lon="9.472497248893497"><ele>101.5</ele><time>2026-05-02T08:21:36Z</time></trkpt><trkpt lat="40.99146153282981" lon="9.472658092313193"><ele>101.0</ele><time>2026-05-02T08:21:37Z</time></trkpt><trkpt lat="40.99138644292586" lon="9.47281333512567"><ele>100.5</ele><time>2026-05-02T08:21:38Z</time></trkpt><trkpt lat="40.99131119048679" lon="9.472964411826792"><ele>100.0</ele><time>2026-05-02T08:21:39Z</time></trkpt><trkpt lat="40.991241375420074" lon="9.473118277202227"><ele>99.5</ele><time>2026-05-02T08:21:40Z</time></trkpt><trkpt lat="40.991170005649614" lon="9.473268362744392"><ele>99.0</ele><time>2026-05-02T08:21:41Z</time></trkpt><trkpt lat="40.99110818956297" lon="9.473418452031794"><ele>98.5</ele><time>2026-05-02T08:21:42Z</time></trkpt><trkpt lat="40.991054011076905" lon="9.473573017284652"><ele>98.0</ele><time>2026-05-02T08:21:43Z</time></trkpt><trkpt lat="40.991021535122314" lon="9.473736147977199"><ele>97.0</ele><time>2026-05-02T08:21:44Z</time></trkpt><trkpt lat="40.991013805933946" lon="9.47389413563537"><ele>96.0</ele><time>2026-05-02T08:21:45Z</time></trkpt><trkpt lat="40.99100983586693" lon="9.47404475939991"><ele>95.0</ele><time>2026-05-02T08:21:46Z</time></trkpt><trkpt lat="40.99100651771658" lon="9.474192038348928"><ele>94.0</ele><time>2026-05-02T08:21:47Z</time></trkpt><trkpt lat="40.991000924538454" lon="9.47434233511972"><ele>94.0</ele><time>2026-05-02T08:21:48Z</time></trkpt><trkpt lat="40.990998955238396" lon="9.47449740177518"><ele>94.0</ele><time>2026-05-02T08:21:49Z</time></trkpt><trkpt lat="40.99099157083679" lon="9.474648550992129"><ele>94.0</ele><time>2026-05-02T08:21:50Z</time></trkpt><trkpt lat="40.99098093837807" lon="9.47480784689751"><ele>94.0</ele><time>2026-05-02T08:21:51Z</time></trkpt><trkpt lat="40.99095286940238" lon="9.474972577897283"><ele>93.75</ele><time>2026-05-02T08:21:52Z</time></trkpt><trkpt lat="40.99090689246438" lon="9.475120182654033"><ele>93.5</ele><time>2026-05-02T08:21:53Z</time></trkpt><trkpt lat="40.990843870964724" lon="9.475266650792774"><ele>93.25</ele><time>2026-05-02T08:21:54Z</time></trkpt><trkpt lat="40.99077582487559" lon="9.475432950612669"><ele>93.0</ele><time>2026-05-02T08:21:55Z</time></trkpt><trkpt lat="40.99070946594138" lon="9.475610572552466"><ele>94.75</ele><time>2026-05-02T08:21:56Z</time></trkpt><trkpt lat="40.99064085759305" lon="9.47577531034987"><ele>96.5</ele><time>2026-05-02T08:21:57Z</time></trkpt><trkpt lat="40.99057428506673" lon="9.47593020543079"><ele>98.25</ele><time>2026-05-02T08:21:58Z</time></trkpt><trkpt lat="40.99051182424237" lon="9.476093083742898"><ele>100.0</ele><time>2026-05-02T08:21:59Z</time></trkpt><trkpt lat="40.990465993192025" lon="9.476287704862393"><ele>101.33333333333334</ele><time>2026-05-02T08:22:00Z</time></trkpt><trkpt lat="40.990428488139365" lon="9.476505522561462"><ele>102.66666666666666</ele><time>2026-05-02T08:22:01Z</time></trkpt><trkpt lat="40.990398060907644" lon="9.476743685431842"><ele>104.0</ele><time>2026-05-02T08:22:02Z</time></trkpt><trkpt lat="40.99036762358466" lon="9.476977574369563"><ele>105.0</ele><time>2026-05-02T08:22:03Z</time></trkpt><trkpt lat="40.990335567679466" lon="9.477203044180245"><ele>106.0</ele><time>2026-05-02T08:22:04Z</time></trkpt><trkpt lat="40.99030057210057" lon="9.477415444024333"><ele>107.0</ele><time>2026-05-02T08:22:05Z</time></trkpt><trkpt lat="40.990262329900766" lon="9.477601928217725"><ele>107.0</ele><time>2026-05-02T08:22:06Z</time></trkpt><trkpt lat="40.99022071283748" lon="9.477783891486043"><ele>107.0</ele><time>2026-05-02T08:22:07Z</time></trkpt><trkpt lat="40.990179297962065" lon="9.477963940723113"><ele>107.0</ele><time>2026-05-02T08:22:08Z</time></trkpt><trkpt lat="40.99013830619853" lon="9.478160598824278"><ele>107.0</ele><time>2026-05-02T08:22:09Z</time></trkpt><trkpt lat="40.99009935069492" lon="9.478343745945509"><ele>108.0</ele><time>2026-05-02T08:22:10Z</time></trkpt><trkpt lat="40.990061260777466" lon="9.478516774476697"><ele>109.0</ele><time>2026-05-02T08:22:11Z</time></trkpt><trkpt lat="40.99002069300402" lon="9.478698261115639"><ele>110.0</ele><time>2026-05-02T08:22:12Z</time></trkpt><trkpt lat="40.989985431930194" lon="9.478879434325078"><ele>111.0</ele><time>2026-05-02T08:22:13Z</time></trkpt><trkpt lat="40.98995357028924" lon="9.479061618305852"><ele>111.5</ele><time>2026-05-02T08:22:14Z</time></trkpt><trkpt lat="40.989928274525155" lon="9.47923311732477"><ele>112.0</ele><time>2026-05-02T08:22:15Z</time></trkpt><trkpt lat="40.98990665310812" lon="9.479406754534365"><ele>112.5</ele><time>2026-05-02T08:22:16Z</time></trkpt><trkpt lat="40.989882139466275" lon="9.479581805202931"><ele>113.0</ele><time>2026-05-02T08:22:17Z</time></trkpt><trkpt lat="40.98985185798522" lon="9.479762748945122"><ele>113.75</ele><time>2026-05-02T08:22:18Z</time></trkpt><trkpt lat="40.989813068284974" lon="9.479937998769746"><ele>114.5</ele><time>2026-05-02T08:22:19Z</time></trkpt><trkpt lat="40.98977103271305" lon="9.480103192663329"><ele>115.25</ele><time>2026-05-02T08:22:20Z</time></trkpt><trkpt lat="40.989726936766225" lon="9.480264950550684"><ele>116.0</ele><time>2026-05-02T08:22:21Z</time></trkpt><trkpt lat="40.989673730687265" lon="9.48042173717248"><ele>117.66666666666666</ele><time>2026-05-02T08:22:22Z</time></trkpt><trkpt lat="40.989602224224186" lon="9.480571067772003"><ele>119.33333333333334</ele><time>2026-05-02T08:22:23Z</time></trkpt><trkpt lat="40.989520608576356" lon="9.480728872023116"><ele>121.0</ele><time>2026-05-02T08:22:24Z</time></trkpt><trkpt lat="40.98942766919558" lon="9.480920792937404"><ele>121.0</ele><time>2026-05-02T08:22:25Z</time></trkpt><trkpt lat="40.98932375569474" lon="9.481139026846353"><ele>121.0</ele><time>2026-05-02T08:22:26Z</time></trkpt><trkpt lat="40.989227010302" lon="9.481333454740478"><ele>121.0</ele><time>2026-05-02T08:22:27Z</time></trkpt><trkpt lat="40.98913811255195" lon="9.481506651172868"><ele>121.0</ele><time>2026-05-02T08:22:28Z</time></trkpt><trkpt lat="40.989055435868146" lon="9.481668138776401"><ele>121.0</ele><time>2026-05-02T08:22:29Z</time></trkpt><trkpt lat="40.98897882934794" lon="9.481815719775843"><ele>121.0</ele><time>2026-05-02T08:22:30Z</time></trkpt><trkpt lat="40.988900181336064" lon="9.481949066304107"><ele>121.0</ele><time>2026-05-02T08:22:31Z</time></trkpt><trkpt lat="40.988815790597975" lon="9.482070018950429"><ele>123.0</ele><time>2026-05-02T08:22:32Z</time></trkpt><trkpt lat="40.98871519098107" lon="9.482196783023912"><ele>125.0</ele><time>2026-05-02T08:22:33Z</time></trkpt><trkpt lat="40.98861027582714" lon="9.482316906538419"><ele>127.0</ele><time>2026-05-02T08:22:34Z</time></trkpt><trkpt lat="40.98849929977882" lon="9.482437549488672"><ele>129.0</ele><time>2026-05-02T08:22:35Z</time></trkpt><trkpt lat="40.98839422600118" lon="9.482556255877427"><ele>128.75</ele><time>2026-05-02T08:22:36Z</time></trkpt><trkpt lat="40.98829234809903" lon="9.482672781296978"><ele>128.5</ele><time>2026-05-02T08:22:37Z</time></trkpt><trkpt lat="40.98818101408429" lon="9.482799235823068"><ele>128.25</ele><time>2026-05-02T08:22:38Z</time></trkpt><trkpt lat="40.98806004442503" lon="9.4829279098655"><ele>128.0</ele><time>2026-05-02T08:22:39Z</time></trkpt><trkpt lat="40.98793691305829" lon="9.483041471021627"><ele>128.0</ele><time>2026-05-02T08:22:40Z</time></trkpt><trkpt lat="40.987812762273514" lon="9.483132293688088"><ele>128.0</ele><time>2026-05-02T08:22:41Z</time></trkpt><trkpt lat="40.98767370057624" lon="9.48321232524556"><ele>128.0</ele><time>2026-05-02T08:22:42Z</time></trkpt><trkpt lat="40.98751931320665" lon="9.483289023364767"><ele>127.33333333333333</ele><time>2026-05-02T08:22:43Z</time></trkpt><trkpt lat="40.98736469809941" lon="9.483355253015013"><ele>126.66666666666666</ele><time>2026-05-02T08:22:44Z</time></trkpt><trkpt lat="40.98720261907256" lon="9.483422261766124"><ele>126.0</ele><time>2026-05-02T08:22:45Z</time></trkpt><trkpt lat="40.987046749076384" lon="9.483488286948292"><ele>126.0</ele><time>2026-05-02T08:22:46Z</time></trkpt><trkpt lat="40.98690474868523" lon="9.483549086281425"><ele>126.0</ele><time>2026-05-02T08:22:47Z</time></trkpt><trkpt lat="40.986770228172105" lon="9.48360369735751"><ele>126.0</ele><time>2026-05-02T08:22:48Z</time></trkpt><trkpt lat="40.98663758408716" lon="9.483660904676322"><ele>126.0</ele><time>2026-05-02T08:22:49Z</time></trkpt><trkpt lat="40.9865158651302" lon="9.483730046212102"><ele>125.75</ele><time>2026-05-02T08:22:50Z</time></trkpt><trkpt lat="40.98640841721614" lon="9.483821395742973"><ele>125.5</ele><time>2026-05-02T08:22:51Z</time></trkpt><trkpt lat="40.986319068109694" lon="9.483909695855942"><ele>125.25</ele><time>2026-05-02T08:22:52Z</time></trkpt><trkpt lat="40.98623070408098" lon="9.48399088218664"><ele>125.0</ele><time>2026-05-02T08:22:53Z</time></trkpt><trkpt lat="40.98613878485903" lon="9.48405867730865"><ele>125.0</ele><time>2026-05-02T08:22:54Z</time></trkpt><trkpt lat="40.98604156702691" lon="9.484115009671976"><ele>125.0</ele><time>2026-05-02T08:22:55Z</time></trkpt><trkpt lat="40.985941281756304" lon="9.484157213218095"><ele>125.0</ele><time>2026-05-02T08:22:56Z</time></trkpt><trkpt lat="40.98584249123857" lon="9.48418949711597"><ele>125.0</ele><time>2026-05-02T08:22:57Z</time></trkpt><trkpt lat="40.98573676528446" lon="9.484231166857578"><ele>125.0</ele><time>2026-05-02T08:22:58Z</time></trkpt><trkpt lat="40.985629436746954" lon="9.484296161289583"><ele>126.5</ele><time>2026-05-02T08:22:59Z</time></trkpt><trkpt lat="40.985532950974346" lon="9.484385512127547"><ele>128.0</ele><time>2026-05-02T08:23:00Z</time></trkpt><trkpt lat="40.98545083721758" lon="9.484501530129323"><ele>129.5</ele><time>2026-05-02T08:23:01Z</time></trkpt><trkpt lat="40.98538343566116" lon="9.484618484600809"><ele>131.0</ele><time>2026-05-02T08:23:02Z</time></trkpt><trkpt lat="40.985322825272895" lon="9.484739618492256"><ele>131.0</ele><time>2026-05-02T08:23:03Z</time></trkpt><trkpt lat="40.98526634509664" lon="9.484858618032687"><ele>131.0</ele><time>2026-05-02T08:23:04Z</time></trkpt><trkpt lat="40.98520928854346" lon="9.48497461343699"><ele>131.0</ele><time>2026-05-02T08:23:05Z</time></trkpt><trkpt lat="40.98515843123918" lon="9.485088726820257"><ele>131.0</ele><time>2026-05-02T08:23:06Z</time></trkpt><trkpt lat="40.9851136167089" lon="9.4852044318961"><ele>131.0</ele><time>2026-05-02T08:23:07Z</time></trkpt><trkpt lat="40.985071890926896" lon="9.485322944827061"><ele>129.8</ele><time>2026-05-02T08:23:08Z</time></trkpt><trkpt lat="40.98502554049423" lon="9.485438362280748"><ele>128.6</ele><time>2026-05-02T08:23:09Z</time></trkpt><trkpt lat="40.98497058597421" lon="9.485557183248629"><ele>127.4</ele><time>2026-05-02T08:23:10Z</time></trkpt><trkpt lat="40.984889759708174" lon="9.485669051022928"><ele>126.2</ele><time>2026-05-02T08:23:11Z</time></trkpt><trkpt lat="40.98478962065545" lon="9.485748832666163"><ele>125.0</ele><time>2026-05-02T08:23:12Z</time></trkpt><trkpt lat="40.984679738227825" lon="9.485809565059073"><ele>123.2</ele><time>2026-05-02T08:23:13Z</time></trkpt><trkpt lat="40.98456694612046" lon="9.485853219176263"><ele>121.4</ele><time>2026-05-02T08:23:14Z</time></trkpt><trkpt lat="40.98445702306709" lon="9.485890444128882"><ele>119.6</ele><time>2026-05-02T08:23:15Z</time></trkpt><trkpt lat="40.984350367253285" lon="9.485922922296353"><ele>117.8</ele><time>2026-05-02T08:23:16Z</time></trkpt><trkpt lat="40.984246352671725" lon="9.48596095020163"><ele>116.0</ele><time>2026-05-02T08:23:17Z</time></trkpt><trkpt lat="40.98413770274238" lon="9.485999118269671"><ele>116.0</ele><time>2026-05-02T08:23:18Z</time></trkpt><trkpt lat="40.98402409346216" lon="9.486023476504705"><ele>116.0</ele><time>2026-05-02T08:23:19Z</time></trkpt><trkpt lat="40.98392403263657" lon="9.486016685737768"><ele>116.0</ele><time>2026-05-02T08:23:20Z</time></trkpt><trkpt lat="40.983832610504" lon="9.48596596412961"><ele>116.0</ele><time>2026-05-02T08:23:21Z</time></trkpt><trkpt lat="40.98376051244538" lon="9.485878247020265"><ele>116.0</ele><time>2026-05-02T08:23:22Z</time></trkpt><trkpt lat="40.98370823728242" lon="9.485759508627547"><ele>116.0</ele><time>2026-05-02T08:23:23Z</time></trkpt><trkpt lat="40.98366932130749" lon="9.485592735715349"><ele>116.0</ele><time>2026-05-02T08:23:24Z</time></trkpt><trkpt lat="40.98363959213338" lon="9.485391098093624"><ele>116.0</ele><time>2026-05-02T08:23:25Z</time></trkpt><trkpt lat="40.98360266801555" lon="9.485183368159962"><ele>116.0</ele><time>2026-05-02T08:23:26Z</time></trkpt><trkpt lat="40.98356431393573" lon="9.484963460231576"><ele>119.66666666666666</ele><time>2026-05-02T08:23:27Z</time></trkpt><trkpt lat="40.983538170612924" lon="9.484751536668872"><ele>123.33333333333334</ele><time>2026-05-02T08:23:28Z</time></trkpt><trkpt lat="40.98352995006174" lon="9.484547458481979"><ele>127.0</ele><time>2026-05-02T08:23:29Z</time></trkpt><trkpt lat="40.98353858705231" lon="9.48435072866234"><ele>127.25</ele><time>2026-05-02T08:23:29.999Z</time></trkpt><trkpt lat="40.98355654111881" lon="9.484158816045563"><ele>127.5</ele><time>2026-05-02T08:23:30.999Z</time></trkpt><trkpt lat="40.98357222765888" lon="9.483981309201413"><ele>127.75</ele><time>2026-05-02T08:23:31.999Z</time></trkpt><trkpt lat="40.98357913783716" lon="9.483833639714879"><ele>128.0</ele><time>2026-05-02T08:23:32.999Z</time></trkpt><trkpt lat="40.98355443795599" lon="9.48369875735411"><ele>128.8</ele><time>2026-05-02T08:23:33.999Z</time></trkpt><trkpt lat="40.98349851768605" lon="9.483586817145758"><ele>129.60000000000002</ele><time>2026-05-02T08:23:34.999Z</time></trkpt><trkpt lat="40.98342346516225" lon="9.483494859013893"><ele>130.39999999999998</ele><time>2026-05-02T08:23:35.999Z</time></trkpt><trkpt lat="40.98333897170728" lon="9.483419693364345"><ele>131.2</ele><time>2026-05-02T08:23:36.999Z</time></trkpt><trkpt lat="40.98325165325936" lon="9.483354510810608"><ele>132.0</ele><time>2026-05-02T08:23:37.999Z</time></trkpt><trkpt lat="40.983162886903145" lon="9.483293951366676"><ele>126.19999999999999</ele><time>2026-05-02T08:23:38.999Z</time></trkpt><trkpt lat="40.98307468161632" lon="9.483231424162424"><ele>120.39999999999999</ele><time>2026-05-02T08:23:39.999Z</time></trkpt><trkpt lat="40.98298264752412" lon="9.483164812775358"><ele>114.6</ele><time>2026-05-02T08:23:40.999Z</time></trkpt><trkpt lat="40.982868893008245" lon="9.483094928917494"><ele>108.80000000000001</ele><time>2026-05-02T08:23:41.999Z</time></trkpt><trkpt lat="40.98275961759818" lon="9.483060871432226"><ele>103.0</ele><time>2026-05-02T08:23:42.999Z</time></trkpt><trkpt lat="40.9826526993879" lon="9.483072133955732"><ele>103.0</ele><time>2026-05-02T08:23:43.999Z</time></trkpt><trkpt lat="40.982559435884674" lon="9.48313448060677"><ele>103.0</ele><time>2026-05-02T08:23:44.999Z</time></trkpt><trkpt lat="40.98247904339355" lon="9.483242613857936"><ele>103.0</ele><time>2026-05-02T08:23:45.999Z</time></trkpt><trkpt lat="40.98240800861609" lon="9.483404607145287"><ele>103.0</ele><time>2026-05-02T08:23:46.999Z</time></trkpt><trkpt lat="40.98232759847995" lon="9.483590515416497"><ele>97.66666666666667</ele><time>2026-05-02T08:23:47.999Z</time></trkpt><trkpt lat="40.982251199603674" lon="9.48378333244408"><ele>92.33333333333334</ele><time>2026-05-02T08:23:48.999Z</time></trkpt><trkpt lat="40.98218184825643" lon="9.483983602117325"><ele>87.0</ele><time>2026-05-02T08:23:49.999Z</time></trkpt><trkpt lat="40.98213168130582" lon="9.484166478365314"><ele>87.0</ele><time>2026-05-02T08:23:50.999Z</time></trkpt><trkpt lat="40.98210499001656" lon="9.484335654175005"><ele>87.0</ele><time>2026-05-02T08:23:51.999Z</time></trkpt><trkpt lat="40.982114032016206" lon="9.48450178193833"><ele>87.0</ele><time>2026-05-02T08:23:52.999Z</time></trkpt><trkpt lat="40.982152353863" lon="9.484682802854184"><ele>87.0</ele><time>2026-05-02T08:23:53.999Z</time></trkpt><trkpt lat="40.98220259099998" lon="9.484865436884032"><ele>86.66666666666667</ele><time>2026-05-02T08:23:54.999Z</time></trkpt><trkpt lat="40.98225365982966" lon="9.4850518500039"><ele>86.33333333333334</ele><time>2026-05-02T08:23:55.999Z</time></trkpt><trkpt lat="40.98230240498774" lon="9.485249609277446"><ele>86.0</ele><time>2026-05-02T08:23:56.999Z</time></trkpt><trkpt lat="40.98232788402128" lon="9.48546658528262"><ele>85.66666666666667</ele><time>2026-05-02T08:23:57.999Z</time></trkpt><trkpt lat="40.9823409922587" lon="9.485699299432108"><ele>85.33333333333333</ele><time>2026-05-02T08:23:58.999Z</time></trkpt><trkpt lat="40.98236502388795" lon="9.485921729301158"><ele>85.0</ele><time>2026-05-02T08:23:59.999Z</time></trkpt><trkpt lat="40.98240607815135" lon="9.486142623240793"><ele>84.66666666666666</ele><time>2026-05-02T08:24:00.999Z</time></trkpt><trkpt lat="40.98245964003506" lon="9.486351832693327"><ele>84.33333333333333</ele><time>2026-05-02T08:24:01.999Z</time></trkpt><trkpt lat="40.98250811444183" lon="9.486550834843326"><ele>84.0</ele><time>2026-05-02T08:24:02.999Z</time></trkpt><trkpt lat="40.98255353045433" lon="9.486737326758867"><ele>83.5</ele><time>2026-05-02T08:24:03.999Z</time></trkpt><trkpt lat="40.98260120591543" lon="9.486927253599335"><ele>83.0</ele><time>2026-05-02T08:24:04.999Z</time></trkpt><trkpt lat="40.9826497041737" lon="9.48711219535652"><ele>82.5</ele><time>2026-05-02T08:24:05.999Z</time></trkpt><trkpt lat="40.98269629298845" lon="9.487300953678217"><ele>82.0</ele><time>2026-05-02T08:24:06.999Z</time></trkpt><trkpt lat="40.98272538661985" lon="9.48748972887433"><ele>79.5</ele><time>2026-05-02T08:24:07.999Z</time></trkpt><trkpt lat="40.98272719185541" lon="9.487671997158426"><ele>77.0</ele><time>2026-05-02T08:24:08.999Z</time></trkpt><trkpt lat="40.98270733213657" lon="9.48785118833"><ele>74.5</ele><time>2026-05-02T08:24:09.999Z</time></trkpt><trkpt lat="40.982661088022525" lon="9.488035894031235"><ele>72.0</ele><time>2026-05-02T08:24:10.999Z</time></trkpt><trkpt lat="40.98260031632808" lon="9.48821704233051"><ele>71.0</ele><time>2026-05-02T08:24:11.999Z</time></trkpt><trkpt lat="40.98253716897936" lon="9.488385982353174"><ele>70.0</ele><time>2026-05-02T08:24:12.999Z</time></trkpt><trkpt lat="40.982466815443175" lon="9.488551678675217"><ele>69.0</ele><time>2026-05-02T08:24:13.999Z</time></trkpt><trkpt lat="40.98238646501731" lon="9.488706904558374"><ele>68.0</ele><time>2026-05-02T08:24:14.999Z</time></trkpt><trkpt lat="40.98229519930872" lon="9.488849766048025"><ele>67.25</ele><time>2026-05-02T08:24:16Z</time></trkpt><trkpt lat="40.982204146620305" lon="9.48898750301462"><ele>66.5</ele><time>2026-05-02T08:24:17Z</time></trkpt><trkpt lat="40.98210540164957" lon="9.489125233415683"><ele>65.75</ele><time>2026-05-02T08:24:18Z</time></trkpt><trkpt lat="40.9819944896993" lon="9.48924398211719"><ele>65.0</ele><time>2026-05-02T08:24:19Z</time></trkpt><trkpt lat="40.981880328252736" lon="9.489345608607026"><ele>65.0</ele><time>2026-05-02T08:24:20Z</time></trkpt><trkpt lat="40.981760476493406" lon="9.489436730011509"><ele>65.0</ele><time>2026-05-02T08:24:21Z</time></trkpt><trkpt lat="40.981642460504474" lon="9.489522732814336"><ele>65.0</ele><time>2026-05-02T08:24:22Z</time></trkpt><trkpt lat="40.981518073669946" lon="9.489609288948934"><ele>65.0</ele><time>2026-05-02T08:24:23Z</time></trkpt><trkpt lat="40.981396328690174" lon="9.489691419696317"><ele>63.75</ele><time>2026-05-02T08:24:24Z</time></trkpt><trkpt lat="40.981277595803235" lon="9.489771132742959"><ele>62.5</ele><time>2026-05-02T08:24:25Z</time></trkpt><trkpt lat="40.98115854320774" lon="9.489835063245948"><ele>61.25</ele><time>2026-05-02T08:24:26Z</time></trkpt><trkpt lat="40.98103043790638" lon="9.489878225583617"><ele>60.0</ele><time>2026-05-02T08:24:27Z</time></trkpt><trkpt lat="40.98089142107096" lon="9.489892267938872"><ele>61.0</ele><time>2026-05-02T08:24:28Z</time></trkpt><trkpt lat="40.98074834377384" lon="9.489901261218723"><ele>62.0</ele><time>2026-05-02T08:24:29Z</time></trkpt><trkpt lat="40.98061547208242" lon="9.48991611051647"><ele>63.0</ele><time>2026-05-02T08:24:30Z</time></trkpt><trkpt lat="40.98049944585738" lon="9.489954993969514"><ele>64.0</ele><time>2026-05-02T08:24:31Z</time></trkpt><trkpt lat="40.980396005493404" lon="9.490028887571565"><ele>64.0</ele><time>2026-05-02T08:24:32Z</time></trkpt><trkpt lat="40.9803150746319" lon="9.490138724272839"><ele>64.0</ele><time>2026-05-02T08:24:33Z</time></trkpt><trkpt lat="40.980235046304" lon="9.490275734677715"><ele>64.0</ele><time>2026-05-02T08:24:34Z</time></trkpt><trkpt lat="40.980153523571026" lon="9.490414469470922"><ele>64.0</ele><time>2026-05-02T08:24:35Z</time></trkpt><trkpt lat="40.9800677241352" lon="9.49053578455897"><ele>63.2</ele><time>2026-05-02T08:24:36Z</time></trkpt><trkpt lat="40.97998364610321" lon="9.49063807846371"><ele>62.400000000000006</ele><time>2026-05-02T08:24:37Z</time></trkpt><trkpt lat="40.97990397094769" lon="9.49073049409683"><ele>61.6</ele><time>2026-05-02T08:24:38Z</time></trkpt><trkpt lat="40.97982451119595" lon="9.49082113129168"><ele>60.8</ele><time>2026-05-02T08:24:39Z</time></trkpt><trkpt lat="40.97974567342187" lon="9.490915946232782"><ele>60.0</ele><time>2026-05-02T08:24:40Z</time></trkpt><trkpt lat="40.97966751890687" lon="9.491009134447506"><ele>60.0</ele><time>2026-05-02T08:24:41Z</time></trkpt><trkpt lat="40.97959672995374" lon="9.49109435573404"><ele>60.0</ele><time>2026-05-02T08:24:42Z</time></trkpt><trkpt lat="40.97953144526862" lon="9.491175966440288"><ele>60.0</ele><time>2026-05-02T08:24:43Z</time></trkpt><trkpt lat="40.979473877130985" lon="9.49124722211248"><ele>60.0</ele><time>2026-05-02T08:24:44Z</time></trkpt><trkpt lat="40.97942544024693" lon="9.491306540070218"><ele>60.0</ele><time>2026-05-02T08:24:45Z</time></trkpt><trkpt lat="40.97934024017136" lon="9.49139772805813"><ele>60.0</ele><time>2026-05-02T08:24:47Z</time></trkpt><trkpt lat="40.9792393205797" lon="9.491455130233359"><ele>59.0</ele><time>2026-05-02T08:24:49Z</time></trkpt><trkpt lat="40.979157202956664" lon="9.491466903915256"><ele>58.0</ele><time>2026-05-02T08:24:50Z</time></trkpt><trkpt lat="40.97907220980747" lon="9.491470324633084"><ele>57.0</ele><time>2026-05-02T08:24:51Z</time></trkpt><trkpt lat="40.97898724257551" lon="9.491473981704994"><ele>56.0</ele><time>2026-05-02T08:24:52Z</time></trkpt><trkpt lat="40.978894899285514" lon="9.491482086497056"><ele>55.0</ele><time>2026-05-02T08:24:53Z</time></trkpt><trkpt lat="40.97878204013595" lon="9.491484433740842"><ele>55.0</ele><time>2026-05-02T08:24:54Z</time></trkpt><trkpt lat="40.9786642011893" lon="9.491468808449909"><ele>55.0</ele><time>2026-05-02T08:24:55Z</time></trkpt><trkpt lat="40.97854736348628" lon="9.491451215970331"><ele>55.0</ele><time>2026-05-02T08:24:56Z</time></trkpt><trkpt lat="40.978431671535496" lon="9.491437943057715"><ele>55.0</ele><time>2026-05-02T08:24:57Z</time></trkpt><trkpt lat="40.97831976698547" lon="9.491430222135993"><ele>54.6</ele><time>2026-05-02T08:24:58Z</time></trkpt><trkpt lat="40.97821562058687" lon="9.491422680558768"><ele>54.2</ele><time>2026-05-02T08:24:59Z</time></trkpt><trkpt lat="40.97811797893481" lon="9.49141447037646"><ele>53.8</ele><time>2026-05-02T08:25:00Z</time></trkpt><trkpt lat="40.97802358651556" lon="9.491406650741325"><ele>53.4</ele><time>2026-05-02T08:25:01Z</time></trkpt><trkpt lat="40.977919704365284" lon="9.49139840966166"><ele>53.0</ele><time>2026-05-02T08:25:02Z</time></trkpt><trkpt lat="40.97781196675925" lon="9.491389638284021"><ele>53.0</ele><time>2026-05-02T08:25:03Z</time></trkpt><trkpt lat="40.97769812490282" lon="9.491381686727578"><ele>53.0</ele><time>2026-05-02T08:25:04Z</time></trkpt><trkpt lat="40.97757657980925" lon="9.491370387356362"><ele>53.0</ele><time>2026-05-02T08:25:05Z</time></trkpt><trkpt lat="40.977445896026005" lon="9.491357713910592"><ele>53.0</ele><time>2026-05-02T08:25:06Z</time></trkpt><trkpt lat="40.9773021057931" lon="9.491346646089537"><ele>53.5</ele><time>2026-05-02T08:25:07Z</time></trkpt><trkpt lat="40.97716129459302" lon="9.491338560728403"><ele>54.0</ele><time>2026-05-02T08:25:08Z</time></trkpt><trkpt lat="40.97701278361111" lon="9.491328230814226"><ele>54.5</ele><time>2026-05-02T08:25:09Z</time></trkpt><trkpt lat="40.976858300458666" lon="9.491315385789116"><ele>55.0</ele><time>2026-05-02T08:25:10Z</time></trkpt><trkpt lat="40.97669742104827" lon="9.491302456639275"><ele>54.666666666666664</ele><time>2026-05-02T08:25:11Z</time></trkpt><trkpt lat="40.976531379322" lon="9.491286997992896"><ele>54.33333333333333</ele><time>2026-05-02T08:25:12Z</time></trkpt><trkpt lat="40.976355439856405" lon="9.491274468789394"><ele>54.0</ele><time>2026-05-02T08:25:13Z</time></trkpt><trkpt lat="40.97618829591923" lon="9.49126251465023"><ele>54.33333333333333</ele><time>2026-05-02T08:25:14Z</time></trkpt><trkpt lat="40.97601889092243" lon="9.491245280264367"><ele>54.666666666666664</ele><time>2026-05-02T08:25:15Z</time></trkpt><trkpt lat="40.97585648631264" lon="9.491214183168799"><ele>55.0</ele><time>2026-05-02T08:25:16Z</time></trkpt><trkpt lat="40.97570481017643" lon="9.491164390089734"><ele>55.666666666666664</ele><time>2026-05-02T08:25:17Z</time></trkpt><trkpt lat="40.97556175750886" lon="9.491093055571888"><ele>56.33333333333333</ele><time>2026-05-02T08:25:18Z</time></trkpt><trkpt lat="40.97542392658846" lon="9.491006289295107"><ele>57.0</ele><time>2026-05-02T08:25:19Z</time></trkpt><trkpt lat="40.97529343470886" lon="9.490904918894762"><ele>57.0</ele><time>2026-05-02T08:25:20Z</time></trkpt><trkpt lat="40.975165947410574" lon="9.490791608867353"><ele>57.0</ele><time>2026-05-02T08:25:21Z</time></trkpt><trkpt lat="40.97503793978612" lon="9.490678039463033"><ele>57.0</ele><time>2026-05-02T08:25:22Z</time></trkpt><trkpt lat="40.97490673458276" lon="9.490568617587506"><ele>57.0</ele><time>2026-05-02T08:25:23Z</time></trkpt><trkpt lat="40.97476942938498" lon="9.490478771289045"><ele>57.0</ele><time>2026-05-02T08:25:24Z</time></trkpt><trkpt lat="40.97462856118874" lon="9.490415202880238"><ele>57.0</ele><time>2026-05-02T08:25:25Z</time></trkpt><trkpt lat="40.97448082607503" lon="9.490375979654715"><ele>56.5</ele><time>2026-05-02T08:25:26Z</time></trkpt><trkpt lat="40.974329248284455" lon="9.490365197349208"><ele>56.0</ele><time>2026-05-02T08:25:27Z</time></trkpt><trkpt lat="40.974179959278594" lon="9.490377251058234"><ele>55.5</ele><time>2026-05-02T08:25:28Z</time></trkpt><trkpt lat="40.974034147020085" lon="9.490402283075674"><ele>55.0</ele><time>2026-05-02T08:25:29Z</time></trkpt><trkpt lat="40.97390854824194" lon="9.490424903900722"><ele>55.0</ele><time>2026-05-02T08:25:30Z</time></trkpt><trkpt lat="40.97378555882329" lon="9.490449323320634"><ele>55.0</ele><time>2026-05-02T08:25:31Z</time></trkpt><trkpt lat="40.9736681585477" lon="9.490474042252147"><ele>55.0</ele><time>2026-05-02T08:25:32Z</time></trkpt><trkpt lat="40.97355242282246" lon="9.490499167312034"><ele>55.0</ele><time>2026-05-02T08:25:33Z</time></trkpt><trkpt lat="40.97342912338224" lon="9.490522691864204"><ele>55.0</ele><time>2026-05-02T08:25:34Z</time></trkpt><trkpt lat="40.97329925431576" lon="9.49054651248599"><ele>55.0</ele><time>2026-05-02T08:25:35Z</time></trkpt><trkpt lat="40.97316929340339" lon="9.490571323287567"><ele>55.0</ele><time>2026-05-02T08:25:35.998Z</time></trkpt><trkpt lat="40.973042233277255" lon="9.49059865989064"><ele>55.0</ele><time>2026-05-02T08:25:36.998Z</time></trkpt><trkpt lat="40.972917410561195" lon="9.490621789087397"><ele>55.0</ele><time>2026-05-02T08:25:37.998Z</time></trkpt><trkpt lat="40.972795206630224" lon="9.490645275065576"><ele>55.0</ele><time>2026-05-02T08:25:38.998Z</time></trkpt><trkpt lat="40.97267015478602" lon="9.490670196760902"><ele>55.0</ele><time>2026-05-02T08:25:39.998Z</time></trkpt><trkpt lat="40.97254963528149" lon="9.49069641723092"><ele>55.0</ele><time>2026-05-02T08:25:40.998Z</time></trkpt><trkpt lat="40.972430503211974" lon="9.4907205932683"><ele>54.75</ele><time>2026-05-02T08:25:41.998Z</time></trkpt><trkpt lat="40.97231355793598" lon="9.490744126143854"><ele>54.5</ele><time>2026-05-02T08:25:42.998Z</time></trkpt><trkpt lat="40.972190984640726" lon="9.490768875575522"><ele>54.25</ele><time>2026-05-02T08:25:43.998Z</time></trkpt><trkpt lat="40.97206273387188" lon="9.490796324669262"><ele>54.0</ele><time>2026-05-02T08:25:44.998Z</time></trkpt><trkpt lat="40.9719330181183" lon="9.490825011339007"><ele>54.0</ele><time>2026-05-02T08:25:45.998Z</time></trkpt><trkpt lat="40.97180834619132" lon="9.49085195377888"><ele>54.0</ele><time>2026-05-02T08:25:46.998Z</time></trkpt><trkpt lat="40.971690672727235" lon="9.490873702406573"><ele>54.0</ele><time>2026-05-02T08:25:47.998Z</time></trkpt><trkpt lat="40.97157678982124" lon="9.490893489061907"><ele>54.0</ele><time>2026-05-02T08:25:48.999Z</time></trkpt><trkpt lat="40.97146065417249" lon="9.490917330747777"><ele>54.25</ele><time>2026-05-02T08:25:49.999Z</time></trkpt><trkpt lat="40.97134883494713" lon="9.49094422065077"><ele>54.5</ele><time>2026-05-02T08:25:50.999Z</time></trkpt><trkpt lat="40.9712383616248" lon="9.490973187002844"><ele>54.75</ele><time>2026-05-02T08:25:51.999Z</time></trkpt><trkpt lat="40.97112098277949" lon="9.49100191430891"><ele>55.0</ele><time>2026-05-02T08:25:52.999Z</time></trkpt><trkpt lat="40.97099894278492" lon="9.491030450668703"><ele>55.0</ele><time>2026-05-02T08:25:53.999Z</time></trkpt><trkpt lat="40.970870885623036" lon="9.491060846014008"><ele>55.0</ele><time>2026-05-02T08:25:54.999Z</time></trkpt><trkpt lat="40.97073893096733" lon="9.491093612235547"><ele>55.0</ele><time>2026-05-02T08:25:55.999Z</time></trkpt><trkpt lat="40.97060054853846" lon="9.491130774337131"><ele>55.0</ele><time>2026-05-02T08:25:56.999Z</time></trkpt><trkpt lat="40.9704596877482" lon="9.491168953357326"><ele>54.75</ele><time>2026-05-02T08:25:57.999Z</time></trkpt><trkpt lat="40.970315357059505" lon="9.49120449703496"><ele>54.5</ele><time>2026-05-02T08:25:58.999Z</time></trkpt><trkpt lat="40.97016976170462" lon="9.491234153166877"><ele>54.25</ele><time>2026-05-02T08:25:59.999Z</time></trkpt><trkpt lat="40.970026174510394" lon="9.491256367988152"><ele>54.0</ele><time>2026-05-02T08:26:00.999Z</time></trkpt><trkpt lat="40.9698881644294" lon="9.49126779608542"><ele>54.0</ele><time>2026-05-02T08:26:01.999Z</time></trkpt><trkpt lat="40.96974814216564" lon="9.491270203099106"><ele>54.0</ele><time>2026-05-02T08:26:02.999Z</time></trkpt><trkpt lat="40.96960410328263" lon="9.491274601149835"><ele>54.0</ele><time>2026-05-02T08:26:03.999Z</time></trkpt><trkpt lat="40.96946870638264" lon="9.491281678312632"><ele>54.0</ele><time>2026-05-02T08:26:04.999Z</time></trkpt><trkpt lat="40.96934080666635" lon="9.49128344063124"><ele>54.0</ele><time>2026-05-02T08:26:05.999Z</time></trkpt><trkpt lat="40.96921032888912" lon="9.491282237036542"><ele>54.0</ele><time>2026-05-02T08:26:06.999Z</time></trkpt><trkpt lat="40.96907442581777" lon="9.491278862788201"><ele>54.0</ele><time>2026-05-02T08:26:07.999Z</time></trkpt><trkpt lat="40.96892290038921" lon="9.491264280147828"><ele>54.0</ele><time>2026-05-02T08:26:08.999Z</time></trkpt><trkpt lat="40.96875817484699" lon="9.491231172821868"><ele>55.0</ele><time>2026-05-02T08:26:09.999Z</time></trkpt><trkpt lat="40.968586197661416" lon="9.491187291221632"><ele>56.0</ele><time>2026-05-02T08:26:10.999Z</time></trkpt><trkpt lat="40.968397729485524" lon="9.491141115850464"><ele>57.0</ele><time>2026-05-02T08:26:11.999Z</time></trkpt><trkpt lat="40.96821693751308" lon="9.491095522363278"><ele>57.0</ele><time>2026-05-02T08:26:12.999Z</time></trkpt><trkpt lat="40.9680255943545" lon="9.491055112780145"><ele>57.0</ele><time>2026-05-02T08:26:13.999Z</time></trkpt><trkpt lat="40.96781977900784" lon="9.491013636485151"><ele>57.0</ele><time>2026-05-02T08:26:14.999Z</time></trkpt><trkpt lat="40.967612493553275" lon="9.490971261617439"><ele>58.33333333333333</ele><time>2026-05-02T08:26:15.999Z</time></trkpt><trkpt lat="40.96740725330112" lon="9.49093121327176"><ele>59.666666666666664</ele><time>2026-05-02T08:26:16.999Z</time></trkpt><trkpt lat="40.9672096204558" lon="9.490898959627232"><ele>61.0</ele><time>2026-05-02T08:26:17.999Z</time></trkpt><trkpt lat="40.96702610809126" lon="9.490879413987065"><ele>61.0</ele><time>2026-05-02T08:26:18.999Z</time></trkpt><trkpt lat="40.96685054350532" lon="9.490868781006323"><ele>61.0</ele><time>2026-05-02T08:26:19.999Z</time></trkpt><trkpt lat="40.966670216207774" lon="9.490867178577423"><ele>61.0</ele><time>2026-05-02T08:26:20.999Z</time></trkpt><trkpt lat="40.966490709348506" lon="9.490875016681485"><ele>61.0</ele><time>2026-05-02T08:26:21.999Z</time></trkpt><trkpt lat="40.96632325450413" lon="9.490881277942817"><ele>61.0</ele><time>2026-05-02T08:26:22.999Z</time></trkpt><trkpt lat="40.966163557613264" lon="9.490898828763257"><ele>61.0</ele><time>2026-05-02T08:26:23.999Z</time></trkpt><trkpt lat="40.96600704691739" lon="9.49092077532253"><ele>61.666666666666664</ele><time>2026-05-02T08:26:24.999Z</time></trkpt><trkpt lat="40.96585153187451" lon="9.490949894816977"><ele>62.33333333333333</ele><time>2026-05-02T08:26:25.999Z</time></trkpt><trkpt lat="40.96569625372489" lon="9.490987121014003"><ele>63.0</ele><time>2026-05-02T08:26:26.999Z</time></trkpt><trkpt lat="40.96554313112448" lon="9.491032508126853"><ele>63.0</ele><time>2026-05-02T08:26:27.999Z</time></trkpt><trkpt lat="40.96538583726771" lon="9.491084825882467"><ele>63.0</ele><time>2026-05-02T08:26:28.999Z</time></trkpt><trkpt lat="40.9652287462841" lon="9.491138905971663"><ele>63.0</ele><time>2026-05-02T08:26:29.999Z</time></trkpt><trkpt lat="40.965068421181925" lon="9.491203409578182"><ele>64.33333333333333</ele><time>2026-05-02T08:26:30.999Z</time></trkpt><trkpt lat="40.964901962757615" lon="9.491277153282578"><ele>65.66666666666666</ele><time>2026-05-02T08:26:31.999Z</time></trkpt><trkpt lat="40.96473252898271" lon="9.491363449769853"><ele>67.0</ele><time>2026-05-02T08:26:32.999Z</time></trkpt><trkpt lat="40.96455810261463" lon="9.491460542385797"><ele>67.0</ele><time>2026-05-02T08:26:33.999Z</time></trkpt><trkpt lat="40.964378803465515" lon="9.491570338386893"><ele>67.0</ele><time>2026-05-02T08:26:35Z</time></trkpt><trkpt lat="40.96419641626284" lon="9.491691747799793"><ele>67.0</ele><time>2026-05-02T08:26:36Z</time></trkpt><trkpt lat="40.964015582635824" lon="9.491824284061499"><ele>67.66666666666666</ele><time>2026-05-02T08:26:37Z</time></trkpt><trkpt lat="40.9638365881137" lon="9.491964104336676"><ele>68.33333333333333</ele><time>2026-05-02T08:26:38Z</time></trkpt><trkpt lat="40.96366238704924" lon="9.49211015315344"><ele>69.0</ele><time>2026-05-02T08:26:39Z</time></trkpt><trkpt lat="40.96348747914106" lon="9.492266736083776"><ele>67.33333333333333</ele><time>2026-05-02T08:26:40Z</time></trkpt><trkpt lat="40.96331040908071" lon="9.492434845603103"><ele>65.66666666666666</ele><time>2026-05-02T08:26:41Z</time></trkpt><trkpt lat="40.96313603825049" lon="9.49260763133491"><ele>64.0</ele><time>2026-05-02T08:26:42Z</time></trkpt><trkpt lat="40.9629657012886" lon="9.492780451627466"><ele>64.33333333333333</ele><time>2026-05-02T08:26:43Z</time></trkpt><trkpt lat="40.96280269985594" lon="9.492946322927455"><ele>64.66666666666667</ele><time>2026-05-02T08:26:44Z</time></trkpt><trkpt lat="40.962646839258866" lon="9.493111487665503"><ele>65.0</ele><time>2026-05-02T08:26:45Z</time></trkpt><trkpt lat="40.962490328482374" lon="9.493277124133876"><ele>63.66666666666667</ele><time>2026-05-02T08:26:46Z</time></trkpt><trkpt lat="40.96233192140339" lon="9.493443760739513"><ele>62.33333333333333</ele><time>2026-05-02T08:26:47Z</time></trkpt><trkpt lat="40.96217552353664" lon="9.493608599020801"><ele>61.0</ele><time>2026-05-02T08:26:48Z</time></trkpt><trkpt lat="40.96202026393182" lon="9.493769003330838"><ele>61.0</ele><time>2026-05-02T08:26:49Z</time></trkpt><trkpt lat="40.96186699562823" lon="9.493927778925753"><ele>61.0</ele><time>2026-05-02T08:26:50Z</time></trkpt><trkpt lat="40.96171679098509" lon="9.494085725960973"><ele>61.0</ele><time>2026-05-02T08:26:51Z</time></trkpt><trkpt lat="40.961569593322004" lon="9.494239841438073"><ele>60.0</ele><time>2026-05-02T08:26:52Z</time></trkpt><trkpt lat="40.96142502579388" lon="9.494395750149202"><ele>59.0</ele><time>2026-05-02T08:26:53Z</time></trkpt><trkpt lat="40.961281864755705" lon="9.49455003915996"><ele>58.0</ele><time>2026-05-02T08:26:54Z</time></trkpt><trkpt lat="40.96113904182223" lon="9.494698443172757"><ele>58.0</ele><time>2026-05-02T08:26:55Z</time></trkpt><trkpt lat="40.9609949519618" lon="9.49484582665426"><ele>58.0</ele><time>2026-05-02T08:26:56Z</time></trkpt><trkpt lat="40.960851414811536" lon="9.494994474932543"><ele>58.0</ele><time>2026-05-02T08:26:57Z</time></trkpt><trkpt lat="40.96070832566396" lon="9.49514290471448"><ele>57.33333333333333</ele><time>2026-05-02T08:26:58Z</time></trkpt><trkpt lat="40.96056490013659" lon="9.495292579599353"><ele>56.66666666666667</ele><time>2026-05-02T08:26:59Z</time></trkpt><trkpt lat="40.96042328238357" lon="9.495442922713796"><ele>56.0</ele><time>2026-05-02T08:27:00Z</time></trkpt><trkpt lat="40.960282705270394" lon="9.495595065969097"><ele>56.0</ele><time>2026-05-02T08:27:01Z</time></trkpt><trkpt lat="40.96014935249038" lon="9.495739321078034"><ele>56.0</ele><time>2026-05-02T08:27:02Z</time></trkpt><trkpt lat="40.96001442143933" lon="9.495880287814883"><ele>56.0</ele><time>2026-05-02T08:27:03Z</time></trkpt><trkpt lat="40.959881925507446" lon="9.496017004344976"><ele>55.333333333333336</ele><time>2026-05-02T08:27:04Z</time></trkpt><trkpt lat="40.95975012015522" lon="9.496151139020204"><ele>54.66666666666667</ele><time>2026-05-02T08:27:05Z</time></trkpt><trkpt lat="40.95961892356096" lon="9.49628138236038"><ele>54.0</ele><time>2026-05-02T08:27:06Z</time></trkpt><trkpt lat="40.959492280676166" lon="9.496408597078117"><ele>54.0</ele><time>2026-05-02T08:27:07Z</time></trkpt><trkpt lat="40.9593706480472" lon="9.496531015213298"><ele>54.0</ele><time>2026-05-02T08:27:08Z</time></trkpt><trkpt lat="40.95925456040259" lon="9.496645271723075"><ele>54.0</ele><time>2026-05-02T08:27:09Z</time></trkpt><trkpt lat="40.959137792938265" lon="9.496758013905298"><ele>54.0</ele><time>2026-05-02T08:27:10Z</time></trkpt><trkpt lat="40.95901928778834" lon="9.496870630025077"><ele>53.75</ele><time>2026-05-02T08:27:11Z</time></trkpt><trkpt lat="40.95890213598859" lon="9.496983501795848"><ele>53.5</ele><time>2026-05-02T08:27:12Z</time></trkpt><trkpt lat="40.958782982540065" lon="9.497094578984962"><ele>53.25</ele><time>2026-05-02T08:27:13Z</time></trkpt><trkpt lat="40.958662193241885" lon="9.497201811964786"><ele>53.0</ele><time>2026-05-02T08:27:14Z</time></trkpt><trkpt lat="40.95853858510624" lon="9.497306538929502"><ele>53.5</ele><time>2026-05-02T08:27:15Z</time></trkpt><trkpt lat="40.95841972306715" lon="9.497402958878887"><ele>54.0</ele><time>2026-05-02T08:27:16Z</time></trkpt><trkpt lat="40.95830230364829" lon="9.497496361045481"><ele>54.5</ele><time>2026-05-02T08:27:17Z</time></trkpt><trkpt lat="40.958181116382114" lon="9.497589906986613"><ele>55.0</ele><time>2026-05-02T08:27:18Z</time></trkpt><trkpt lat="40.95805768841845" lon="9.497681484388394"><ele>55.0</ele><time>2026-05-02T08:27:19Z</time></trkpt><trkpt lat="40.95793250245288" lon="9.497770981151676"><ele>55.0</ele><time>2026-05-02T08:27:20Z</time></trkpt><trkpt lat="40.95780647940063" lon="9.497861296040934"><ele>55.0</ele><time>2026-05-02T08:27:21Z</time></trkpt><trkpt lat="40.957681089582756" lon="9.497946209697176"><ele>55.0</ele><time>2026-05-02T08:27:22Z</time></trkpt><trkpt lat="40.95755489085842" lon="9.498025741056209"><ele>54.25</ele><time>2026-05-02T08:27:23Z</time></trkpt><trkpt lat="40.95742567205554" lon="9.49810495211329"><ele>53.5</ele><time>2026-05-02T08:27:24Z</time></trkpt><trkpt lat="40.95729375877591" lon="9.498181313360213"><ele>52.75</ele><time>2026-05-02T08:27:25Z</time></trkpt><trkpt lat="40.957161509527545" lon="9.498254651704658"><ele>52.0</ele><time>2026-05-02T08:27:26Z</time></trkpt><trkpt lat="40.957028391091235" lon="9.498326640562713"><ele>52.0</ele><time>2026-05-02T08:27:27Z</time></trkpt><trkpt lat="40.956893132369686" lon="9.49839837241652"><ele>52.0</ele><time>2026-05-02T08:27:28Z</time></trkpt><trkpt lat="40.95675348805816" lon="9.49846806675994"><ele>52.0</ele><time>2026-05-02T08:27:29Z</time></trkpt><trkpt lat="40.9566063606302" lon="9.498538106492338"><ele>52.666666666666664</ele><time>2026-05-02T08:27:30Z</time></trkpt><trkpt lat="40.9564577401624" lon="9.498603807147113"><ele>53.33333333333333</ele><time>2026-05-02T08:27:31Z</time></trkpt><trkpt lat="40.956306685575946" lon="9.498666220597594"><ele>54.0</ele><time>2026-05-02T08:27:32Z</time></trkpt><trkpt lat="40.95615177180012" lon="9.498727328270306"><ele>55.66666666666667</ele><time>2026-05-02T08:27:33Z</time></trkpt><trkpt lat="40.95599258369034" lon="9.498790602107789"><ele>57.333333333333336</ele><time>2026-05-02T08:27:34Z</time></trkpt><trkpt lat="40.955829910439185" lon="9.498850395076085"><ele>59.0</ele><time>2026-05-02T08:27:35Z</time></trkpt><trkpt lat="40.95566606845415" lon="9.49890750128704"><ele>59.0</ele><time>2026-05-02T08:27:36Z</time></trkpt><trkpt lat="40.95550235216006" lon="9.498964202875872"><ele>59.0</ele><time>2026-05-02T08:27:37Z</time></trkpt><trkpt lat="40.95534297578384" lon="9.499016853388044"><ele>59.0</ele><time>2026-05-02T08:27:38Z</time></trkpt><trkpt lat="40.9551846283962" lon="9.499066484639604"><ele>56.66666666666667</ele><time>2026-05-02T08:27:39Z</time></trkpt><trkpt lat="40.95502312043088" lon="9.499118043181353"><ele>54.33333333333333</ele><time>2026-05-02T08:27:40Z</time></trkpt><trkpt lat="40.95486595023082" lon="9.49916785705305"><ele>52.0</ele><time>2026-05-02T08:27:41Z</time></trkpt><trkpt lat="40.954712115599314" lon="9.499216186702524"><ele>52.0</ele><time>2026-05-02T08:27:41.999Z</time></trkpt><trkpt lat="40.95455983483425" lon="9.499261871189006"><ele>52.0</ele><time>2026-05-02T08:27:42.999Z</time></trkpt><trkpt lat="40.954410794857104" lon="9.499305084425451"><ele>52.0</ele><time>2026-05-02T08:27:43.999Z</time></trkpt><trkpt lat="40.95426538983034" lon="9.499350416851314"><ele>51.5</ele><time>2026-05-02T08:27:44.999Z</time></trkpt><trkpt lat="40.95412277838145" lon="9.499395533047926"><ele>51.0</ele><time>2026-05-02T08:27:45.999Z</time></trkpt><trkpt lat="40.95398353602489" lon="9.499437729052028"><ele>50.5</ele><time>2026-05-02T08:27:46.999Z</time></trkpt><trkpt lat="40.95384102508299" lon="9.49948504314757"><ele>50.0</ele><time>2026-05-02T08:27:47.999Z</time></trkpt><trkpt lat="40.953699082640824" lon="9.499530881244583"><ele>50.0</ele><time>2026-05-02T08:27:48.999Z</time></trkpt><trkpt lat="40.95354565928911" lon="9.49957619067158"><ele>50.0</ele><time>2026-05-02T08:27:49.999Z</time></trkpt><trkpt lat="40.953388475898215" lon="9.499627462901367"><ele>50.0</ele><time>2026-05-02T08:27:50.999Z</time></trkpt><trkpt lat="40.95322969205752" lon="9.499678156674277"><ele>47.333333333333336</ele><time>2026-05-02T08:27:51.999Z</time></trkpt><trkpt lat="40.953068781685204" lon="9.499729842788273"><ele>44.66666666666667</ele><time>2026-05-02T08:27:52.999Z</time></trkpt><trkpt lat="40.952906573167645" lon="9.499784157137928"><ele>42.0</ele><time>2026-05-02T08:27:53.999Z</time></trkpt><trkpt lat="40.95274343471285" lon="9.499839834740996"><ele>42.0</ele><time>2026-05-02T08:27:54.999Z</time></trkpt><trkpt lat="40.95258508819783" lon="9.499895060341178"><ele>42.0</ele><time>2026-05-02T08:27:55.999Z</time></trkpt><trkpt lat="40.95243031928193" lon="9.49994848470237"><ele>42.0</ele><time>2026-05-02T08:27:56.999Z</time></trkpt><trkpt lat="40.95228359710833" lon="9.499999890553589"><ele>41.25</ele><time>2026-05-02T08:27:57.999Z</time></trkpt><trkpt lat="40.95214235391107" lon="9.500050705424542"><ele>40.5</ele><time>2026-05-02T08:27:58.999Z</time></trkpt><trkpt lat="40.952002918204414" lon="9.500100645692285"><ele>39.75</ele><time>2026-05-02T08:27:59.999Z</time></trkpt><trkpt lat="40.95186544135251" lon="9.500152445696209"><ele>39.0</ele><time>2026-05-02T08:28:00.999Z</time></trkpt><trkpt lat="40.95172688643277" lon="9.500205694909726"><ele>38.75</ele><time>2026-05-02T08:28:01.999Z</time></trkpt><trkpt lat="40.95159450317632" lon="9.500251897543215"><ele>38.5</ele><time>2026-05-02T08:28:02.999Z</time></trkpt><trkpt lat="40.95146660681598" lon="9.500286713890992"><ele>38.25</ele><time>2026-05-02T08:28:03.999Z</time></trkpt><trkpt lat="40.95135077950875" lon="9.500313734190518"><ele>38.0</ele><time>2026-05-02T08:28:04.999Z</time></trkpt><trkpt lat="40.95125405347692" lon="9.500347737883498"><ele>38.0</ele><time>2026-05-02T08:28:05.999Z</time></trkpt><trkpt lat="40.95117460867489" lon="9.500379585296525"><ele>38.0</ele><time>2026-05-02T08:28:06.999Z</time></trkpt><trkpt lat="40.951109380650145" lon="9.500407553736972"><ele>38.0</ele><time>2026-05-02T08:28:07.999Z</time></trkpt><trkpt lat="40.95100230757606" lon="9.500456366089859"><ele>38.0</ele><time>2026-05-02T08:28:10Z</time></trkpt><trkpt lat="40.95094017903971" lon="9.500481692457145"><ele>38.0</ele><time>2026-05-02T08:28:12Z</time></trkpt><trkpt lat="40.95084782584036" lon="9.500535845600435"><ele>38.0</ele><time>2026-05-02T08:30:07.999Z</time></trkpt><trkpt lat="40.950780907238055" lon="9.50056783211835"><ele>37.8</ele><time>2026-05-02T08:30:08.999Z</time></trkpt><trkpt lat="40.950712105039294" lon="9.50059830666621"><ele>37.599999999999994</ele><time>2026-05-02T08:30:09.999Z</time></trkpt><trkpt lat="40.95062829369427" lon="9.500633799106343"><ele>37.400000000000006</ele><time>2026-05-02T08:30:10.999Z</time></trkpt><trkpt lat="40.950529629278066" lon="9.500677533601564"><ele>37.2</ele><time>2026-05-02T08:30:11.999Z</time></trkpt><trkpt lat="40.950434227092444" lon="9.500725585525398"><ele>37.0</ele><time>2026-05-02T08:30:12.999Z</time></trkpt><trkpt lat="40.95032008930171" lon="9.500778867939502"><ele>37.0</ele><time>2026-05-02T08:30:13.999Z</time></trkpt><trkpt lat="40.950209046664774" lon="9.500833994618937"><ele>37.0</ele><time>2026-05-02T08:30:14.999Z</time></trkpt><trkpt lat="40.9501068790248" lon="9.500885717123088"><ele>37.0</ele><time>2026-05-02T08:30:15.999Z</time></trkpt><trkpt lat="40.950009574866826" lon="9.500932255852504"><ele>37.0</ele><time>2026-05-02T08:30:16.999Z</time></trkpt><trkpt lat="40.949915672128455" lon="9.500976230731935"><ele>37.0</ele><time>2026-05-02T08:30:17.999Z</time></trkpt><trkpt lat="40.94982773142346" lon="9.50100085919689"><ele>36.4</ele><time>2026-05-02T08:30:18.999Z</time></trkpt><trkpt lat="40.94973910494811" lon="9.501004265715569"><ele>35.800000000000004</ele><time>2026-05-02T08:30:19.999Z</time></trkpt><trkpt lat="40.949649991644634" lon="9.500978182955704"><ele>35.2</ele><time>2026-05-02T08:30:21Z</time></trkpt><trkpt lat="40.949563763682924" lon="9.50092759792748"><ele>34.6</ele><time>2026-05-02T08:30:22Z</time></trkpt><trkpt lat="40.94947566247503" lon="9.50085950344563"><ele>34.0</ele><time>2026-05-02T08:30:23Z</time></trkpt><trkpt lat="40.94940627044076" lon="9.500764653054839"><ele>34.0</ele><time>2026-05-02T08:30:24Z</time></trkpt><trkpt lat="40.94935495286785" lon="9.500660296897003"><ele>34.0</ele><time>2026-05-02T08:30:25Z</time></trkpt><trkpt lat="40.949319411305154" lon="9.500551601788924"><ele>34.0</ele><time>2026-05-02T08:30:26Z</time></trkpt><trkpt lat="40.949298645671135" lon="9.50043292294729"><ele>34.0</ele><time>2026-05-02T08:30:27Z</time></trkpt><trkpt lat="40.94929711658995" lon="9.500303019255416"><ele>34.0</ele><time>2026-05-02T08:30:28Z</time></trkpt><trkpt lat="40.94931322278761" lon="9.500171101631736"><ele>34.6</ele><time>2026-05-02T08:30:29Z</time></trkpt><trkpt lat="40.94934488198376" lon="9.50004445402669"><ele>35.2</ele><time>2026-05-02T08:30:30Z</time></trkpt><trkpt lat="40.94939714660945" lon="9.49993129673047"><ele>35.800000000000004</ele><time>2026-05-02T08:30:31Z</time></trkpt><trkpt lat="40.9494638634222" lon="9.499838243804458"><ele>36.4</ele><time>2026-05-02T08:30:32Z</time></trkpt><trkpt lat="40.949546504688314" lon="9.499760902295797"><ele>37.0</ele><time>2026-05-02T08:30:33Z</time></trkpt><trkpt lat="40.94963723999458" lon="9.49970156791122"><ele>37.0</ele><time>2026-05-02T08:30:34Z</time></trkpt><trkpt lat="40.949736826566586" lon="9.499669501196538"><ele>37.0</ele><time>2026-05-02T08:30:35Z</time></trkpt><trkpt lat="40.94983955964314" lon="9.499666371975607"><ele>37.0</ele><time>2026-05-02T08:30:36Z</time></trkpt><trkpt lat="40.949937491113204" lon="9.499690337201494"><ele>37.0</ele><time>2026-05-02T08:30:37Z</time></trkpt><trkpt lat="40.95003491574976" lon="9.499736782322454"><ele>37.0</ele><time>2026-05-02T08:30:38Z</time></trkpt><trkpt lat="40.9501223812392" lon="9.499811412008029"><ele>37.25</ele><time>2026-05-02T08:30:39Z</time></trkpt><trkpt lat="40.950203077569455" lon="9.499905719617507"><ele>37.5</ele><time>2026-05-02T08:30:40Z</time></trkpt><trkpt lat="40.95026255285789" lon="9.50002113667519"><ele>37.75</ele><time>2026-05-02T08:30:41Z</time></trkpt><trkpt lat="40.950310146978325" lon="9.500166960741774"><ele>38.0</ele><time>2026-05-02T08:30:42Z</time></trkpt><trkpt lat="40.95035388391888" lon="9.500322566872043"><ele>37.75</ele><time>2026-05-02T08:30:43Z</time></trkpt><trkpt lat="40.95039719101192" lon="9.500477874249967"><ele>37.5</ele><time>2026-05-02T08:30:44Z</time></trkpt><trkpt lat="40.95044429071352" lon="9.500633000189431"><ele>37.25</ele><time>2026-05-02T08:30:45Z</time></trkpt><trkpt lat="40.95049535628371" lon="9.500795199446458"><ele>37.0</ele><time>2026-05-02T08:30:46Z</time></trkpt><trkpt lat="40.95055053273031" lon="9.500966588718661"><ele>37.0</ele><time>2026-05-02T08:30:47Z</time></trkpt><trkpt lat="40.95060242728904" lon="9.501139747288521"><ele>37.0</ele><time>2026-05-02T08:30:48Z</time></trkpt><trkpt lat="40.95065541641585" lon="9.50132216015047"><ele>37.0</ele><time>2026-05-02T08:30:49Z</time></trkpt><trkpt lat="40.95070814897334" lon="9.501499417143709"><ele>37.0</ele><time>2026-05-02T08:30:50Z</time></trkpt><trkpt lat="40.950762896954906" lon="9.501670878677764"><ele>37.0</ele><time>2026-05-02T08:30:51Z</time></trkpt><trkpt lat="40.950814752594795" lon="9.501834862993963"><ele>37.0</ele><time>2026-05-02T08:30:52Z</time></trkpt><trkpt lat="40.950867740209226" lon="9.502007284481094"><ele>37.0</ele><time>2026-05-02T08:30:53Z</time></trkpt><trkpt lat="40.950918531619045" lon="9.502176822116484"><ele>37.0</ele><time>2026-05-02T08:30:54Z</time></trkpt><trkpt lat="40.95096190969233" lon="9.502345707182753"><ele>36.5</ele><time>2026-05-02T08:30:55Z</time></trkpt><trkpt lat="40.95099265643923" lon="9.502512479629832"><ele>36.0</ele><time>2026-05-02T08:30:56Z</time></trkpt><trkpt lat="40.950996711144" lon="9.502676099802233"><ele>35.5</ele><time>2026-05-02T08:30:57Z</time></trkpt><trkpt lat="40.95097186171094" lon="9.502832494863808"><ele>35.0</ele><time>2026-05-02T08:30:58Z</time></trkpt><trkpt lat="40.95092180708412" lon="9.50297087186404"><ele>34.75</ele><time>2026-05-02T08:30:59Z</time></trkpt><trkpt lat="40.95084828968012" lon="9.503100321707949"><ele>34.5</ele><time>2026-05-02T08:31:00Z</time></trkpt><trkpt lat="40.95076440407318" lon="9.503204861329912"><ele>34.25</ele><time>2026-05-02T08:31:01Z</time></trkpt><trkpt lat="40.950671011292215" lon="9.503284552080911"><ele>34.0</ele><time>2026-05-02T08:31:02Z</time></trkpt><trkpt lat="40.950562823852046" lon="9.503340771337472"><ele>34.0</ele><time>2026-05-02T08:31:03Z</time></trkpt><trkpt lat="40.95044631969606" lon="9.503390938371583"><ele>34.0</ele><time>2026-05-02T08:31:04Z</time></trkpt><trkpt lat="40.95031409751013" lon="9.503435610311758"><ele>34.0</ele><time>2026-05-02T08:31:05Z</time></trkpt><trkpt lat="40.950171405348705" lon="9.503477745883062"><ele>34.0</ele><time>2026-05-02T08:31:06Z</time></trkpt><trkpt lat="40.950036638377334" lon="9.50350978445134"><ele>33.75</ele><time>2026-05-02T08:31:07Z</time></trkpt><trkpt lat="40.94989130232952" lon="9.503535503064064"><ele>33.5</ele><time>2026-05-02T08:31:08Z</time></trkpt><trkpt lat="40.94975270398808" lon="9.503541750560679"><ele>33.25</ele><time>2026-05-02T08:31:09Z</time></trkpt><trkpt lat="40.9496212231142" lon="9.503518711180568"><ele>33.0</ele><time>2026-05-02T08:31:10Z</time></trkpt><trkpt lat="40.949502860123886" lon="9.503464804671253"><ele>33.0</ele><time>2026-05-02T08:31:11Z</time></trkpt><trkpt lat="40.94939825301509" lon="9.503392268532433"><ele>33.0</ele><time>2026-05-02T08:31:12Z</time></trkpt><trkpt lat="40.94931314559944" lon="9.503305429391347"><ele>33.0</ele><time>2026-05-02T08:31:13Z</time></trkpt><trkpt lat="40.94924486695125" lon="9.503202444308256"><ele>33.0</ele><time>2026-05-02T08:31:14Z</time></trkpt><trkpt lat="40.94918938503896" lon="9.50308280480832"><ele>33.0</ele><time>2026-05-02T08:31:15Z</time></trkpt><trkpt lat="40.94914518517283" lon="9.502950043884988"><ele>33.5</ele><time>2026-05-02T08:31:16Z</time></trkpt><trkpt lat="40.94911194831779" lon="9.502816831935252"><ele>34.0</ele><time>2026-05-02T08:31:17Z</time></trkpt><trkpt lat="40.94907456411627" lon="9.50266724496495"><ele>34.5</ele><time>2026-05-02T08:31:18Z</time></trkpt><trkpt lat="40.94903093232581" lon="9.50250762008483"><ele>35.0</ele><time>2026-05-02T08:31:19Z</time></trkpt><trkpt lat="40.94898298939169" lon="9.502338503204378"><ele>35.0</ele><time>2026-05-02T08:31:20Z</time></trkpt><trkpt lat="40.948935152323834" lon="9.502149161826404"><ele>35.0</ele><time>2026-05-02T08:31:21Z</time></trkpt><trkpt lat="40.948888579945525" lon="9.501962144364638"><ele>35.0</ele><time>2026-05-02T08:31:22Z</time></trkpt><trkpt lat="40.94884469917579" lon="9.501769905109223"><ele>34.0</ele><time>2026-05-02T08:31:23Z</time></trkpt><trkpt lat="40.94879531147211" lon="9.501575411432098"><ele>33.0</ele><time>2026-05-02T08:31:24Z</time></trkpt><trkpt lat="40.94874839561679" lon="9.501384894747499"><ele>32.0</ele><time>2026-05-02T08:31:25Z</time></trkpt><trkpt lat="40.94869932346879" lon="9.501199140176123"><ele>31.75</ele><time>2026-05-02T08:31:26Z</time></trkpt><trkpt lat="40.948647031879034" lon="9.501013506488883"><ele>31.5</ele><time>2026-05-02T08:31:27Z</time></trkpt><trkpt lat="40.9485966582113" lon="9.500828630965824"><ele>31.25</ele><time>2026-05-02T08:31:28Z</time></trkpt><trkpt lat="40.94854892568276" lon="9.500645543805353"><ele>31.0</ele><time>2026-05-02T08:31:29Z</time></trkpt><trkpt lat="40.94850511315856" lon="9.500470226820259"><ele>31.5</ele><time>2026-05-02T08:31:30Z</time></trkpt><trkpt lat="40.94846088743747" lon="9.500292443398044"><ele>32.0</ele><time>2026-05-02T08:31:31Z</time></trkpt><trkpt lat="40.94841660359345" lon="9.500117596968655"><ele>32.5</ele><time>2026-05-02T08:31:32Z</time></trkpt><trkpt lat="40.94837521052589" lon="9.499952442330345"><ele>33.0</ele><time>2026-05-02T08:31:33Z</time></trkpt><trkpt lat="40.94833307671999" lon="9.4997837133099"><ele>33.0</ele><time>2026-05-02T08:31:34.001Z</time></trkpt><trkpt lat="40.9482957984693" lon="9.499628511087476"><ele>33.0</ele><time>2026-05-02T08:31:35.001Z</time></trkpt><trkpt lat="40.94825844775889" lon="9.499478700843651"><ele>33.0</ele><time>2026-05-02T08:31:36.001Z</time></trkpt><trkpt lat="40.94822451869596" lon="9.499337135268688"><ele>33.0</ele><time>2026-05-02T08:31:37.001Z</time></trkpt><trkpt lat="40.94819077684327" lon="9.499204250725564"><ele>33.0</ele><time>2026-05-02T08:31:38.001Z</time></trkpt><trkpt lat="40.948157485267835" lon="9.499068953958357"><ele>33.0</ele><time>2026-05-02T08:31:39.001Z</time></trkpt><trkpt lat="40.948125751918774" lon="9.498941076636214"><ele>33.0</ele><time>2026-05-02T08:31:40.001Z</time></trkpt><trkpt lat="40.948092723096664" lon="9.498804354912194"><ele>33.0</ele><time>2026-05-02T08:31:41.001Z</time></trkpt><trkpt lat="40.94806128830577" lon="9.498659591028325"><ele>33.0</ele><time>2026-05-02T08:31:42.001Z</time></trkpt><trkpt lat="40.948023321095725" lon="9.49851514792365"><ele>33.25</ele><time>2026-05-02T08:31:43.001Z</time></trkpt><trkpt lat="40.94798863573687" lon="9.498364409750218"><ele>33.5</ele><time>2026-05-02T08:31:44.001Z</time></trkpt><trkpt lat="40.94795082400709" lon="9.498207800627657"><ele>33.75</ele><time>2026-05-02T08:31:45.001Z</time></trkpt><trkpt lat="40.94791306590642" lon="9.498048716734631"><ele>34.0</ele><time>2026-05-02T08:31:46.001Z</time></trkpt><trkpt lat="40.947872689856716" lon="9.497886551511355"><ele>34.5</ele><time>2026-05-02T08:31:47.001Z</time></trkpt><trkpt lat="40.947831316965285" lon="9.497714018514976"><ele>35.0</ele><time>2026-05-02T08:31:48.001Z</time></trkpt><trkpt lat="40.947786095111184" lon="9.497521628680454"><ele>35.5</ele><time>2026-05-02T08:31:49.001Z</time></trkpt><trkpt lat="40.947742837091326" lon="9.497320940318987"><ele>36.0</ele><time>2026-05-02T08:31:50.001Z</time></trkpt><trkpt lat="40.94769413316134" lon="9.497105059762559"><ele>36.333333333333336</ele><time>2026-05-02T08:31:51.001Z</time></trkpt><trkpt lat="40.94764701883045" lon="9.496902106743288"><ele>36.66666666666667</ele><time>2026-05-02T08:31:52.001Z</time></trkpt><trkpt lat="40.94760239409074" lon="9.49670147216892"><ele>37.0</ele><time>2026-05-02T08:31:53.001Z</time></trkpt><trkpt lat="40.94755605409199" lon="9.496494932469643"><ele>37.0</ele><time>2026-05-02T08:31:54Z</time></trkpt><trkpt lat="40.94751008145194" lon="9.496287410353506"><ele>37.0</ele><time>2026-05-02T08:31:55Z</time></trkpt><trkpt lat="40.94746346181017" lon="9.496078087696567"><ele>37.0</ele><time>2026-05-02T08:31:56Z</time></trkpt><trkpt lat="40.947418411111855" lon="9.495867356103181"><ele>37.0</ele><time>2026-05-02T08:31:57Z</time></trkpt><trkpt lat="40.947371257165464" lon="9.495653268340963"><ele>37.0</ele><time>2026-05-02T08:31:58Z</time></trkpt><trkpt lat="40.947325350763855" lon="9.495439945588814"><ele>37.0</ele><time>2026-05-02T08:31:59Z</time></trkpt><trkpt lat="40.94727943118643" lon="9.495222260772781"><ele>37.66666666666667</ele><time>2026-05-02T08:32:00Z</time></trkpt><trkpt lat="40.94723399811324" lon="9.4950067719217"><ele>38.333333333333336</ele><time>2026-05-02T08:32:01Z</time></trkpt><trkpt lat="40.94718735497908" lon="9.494788655839338"><ele>39.0</ele><time>2026-05-02T08:32:02Z</time></trkpt><trkpt lat="40.94714037616528" lon="9.494572074373497"><ele>39.0</ele><time>2026-05-02T08:32:03Z</time></trkpt><trkpt lat="40.9470948238338" lon="9.494352314550698"><ele>39.0</ele><time>2026-05-02T08:32:04Z</time></trkpt><trkpt lat="40.94704661429283" lon="9.494130398942815"><ele>39.0</ele><time>2026-05-02T08:32:05Z</time></trkpt><trkpt lat="40.94699491727172" lon="9.49391022488852"><ele>39.0</ele><time>2026-05-02T08:32:06Z</time></trkpt><trkpt lat="40.946940752591146" lon="9.493689289430256"><ele>39.0</ele><time>2026-05-02T08:32:07Z</time></trkpt><trkpt lat="40.94688209526087" lon="9.493467795001806"><ele>39.0</ele><time>2026-05-02T08:32:08Z</time></trkpt><trkpt lat="40.94681905462762" lon="9.493237905767975"><ele>39.0</ele><time>2026-05-02T08:32:09Z</time></trkpt><trkpt lat="40.94675149680828" lon="9.492996103396349"><ele>39.0</ele><time>2026-05-02T08:32:10Z</time></trkpt><trkpt lat="40.94666973243031" lon="9.49274005391065"><ele>39.0</ele><time>2026-05-02T08:32:11Z</time></trkpt><trkpt lat="40.94658791047598" lon="9.49248115385754"><ele>38.0</ele><time>2026-05-02T08:32:12Z</time></trkpt><trkpt lat="40.94649336252204" lon="9.492205984671072"><ele>37.0</ele><time>2026-05-02T08:32:13Z</time></trkpt><trkpt lat="40.94639804993517" lon="9.4919286575118"><ele>37.0</ele><time>2026-05-02T08:32:14Z</time></trkpt><trkpt lat="40.94630086983461" lon="9.491645990699144"><ele>37.0</ele><time>2026-05-02T08:32:15Z</time></trkpt><trkpt lat="40.94620212596622" lon="9.491360653605943"><ele>38.5</ele><time>2026-05-02T08:32:16Z</time></trkpt><trkpt lat="40.946106928349565" lon="9.491077518389803"><ele>40.0</ele><time>2026-05-02T08:32:17Z</time></trkpt><trkpt lat="40.94600793995561" lon="9.490796483508543"><ele>40.0</ele><time>2026-05-02T08:32:18Z</time></trkpt><trkpt lat="40.945908990029714" lon="9.49051686787126"><ele>40.0</ele><time>2026-05-02T08:32:19Z</time></trkpt><trkpt lat="40.945818641459965" lon="9.490246586331548"><ele>38.333333333333336</ele><time>2026-05-02T08:32:20Z</time></trkpt><trkpt lat="40.945733801551064" lon="9.489985467559421"><ele>36.666666666666664</ele><time>2026-05-02T08:32:21Z</time></trkpt><trkpt lat="40.94564788984558" lon="9.4897151720656"><ele>35.0</ele><time>2026-05-02T08:32:22Z</time></trkpt><trkpt lat="40.94555053451979" lon="9.489445957023696"><ele>35.0</ele><time>2026-05-02T08:32:23Z</time></trkpt><trkpt lat="40.94544374886777" lon="9.489166129228687"><ele>35.0</ele><time>2026-05-02T08:32:24Z</time></trkpt><trkpt lat="40.94533007723653" lon="9.488882928604705"><ele>35.5</ele><time>2026-05-02T08:32:25Z</time></trkpt><trkpt lat="40.94521553915604" lon="9.488596061461642"><ele>36.0</ele><time>2026-05-02T08:32:26Z</time></trkpt><trkpt lat="40.945085122949045" lon="9.488298266880136"><ele>35.5</ele><time>2026-05-02T08:32:27Z</time></trkpt><trkpt lat="40.9449384766336" lon="9.487967493988739"><ele>35.0</ele><time>2026-05-02T08:32:28Z</time></trkpt><trkpt lat="40.944808854821396" lon="9.487681648208664"><ele>35.0</ele><time>2026-05-02T08:32:29Z</time></trkpt><trkpt lat="40.944682043810516" lon="9.487411809139612"><ele>35.0</ele><time>2026-05-02T08:32:30Z</time></trkpt><trkpt lat="40.94455703638894" lon="9.487156910117852"><ele>34.666666666666664</ele><time>2026-05-02T08:32:31Z</time></trkpt><trkpt lat="40.94443476111175" lon="9.486912135520303"><ele>34.333333333333336</ele><time>2026-05-02T08:32:32Z</time></trkpt><trkpt lat="40.94431836215141" lon="9.486679082698926"><ele>34.0</ele><time>2026-05-02T08:32:33Z</time></trkpt><trkpt lat="40.94420351797212" lon="9.486444814253387"><ele>33.66666666666667</ele><time>2026-05-02T08:32:34Z</time></trkpt><trkpt lat="40.944086876777405" lon="9.486213505119307"><ele>33.333333333333336</ele><time>2026-05-02T08:32:35Z</time></trkpt><trkpt lat="40.9439707291145" lon="9.485996229151498"><ele>33.0</ele><time>2026-05-02T08:32:36Z</time></trkpt><trkpt lat="40.94385699213569" lon="9.485790293446662"><ele>33.0</ele><time>2026-05-02T08:32:37Z</time></trkpt><trkpt lat="40.943741335486656" lon="9.485585620302146"><ele>33.0</ele><time>2026-05-02T08:32:38Z</time></trkpt><trkpt lat="40.94363098753512" lon="9.485393685814554"><ele>33.0</ele><time>2026-05-02T08:32:39Z</time></trkpt><trkpt lat="40.94352321768217" lon="9.485211302036973"><ele>34.0</ele><time>2026-05-02T08:32:40Z</time></trkpt><trkpt lat="40.943411196525375" lon="9.4850214012841"><ele>35.0</ele><time>2026-05-02T08:32:41Z</time></trkpt><trkpt lat="40.94329517301514" lon="9.48482023580398"><ele>36.0</ele><time>2026-05-02T08:32:42Z</time></trkpt><trkpt lat="40.943172642569074" lon="9.48461239819638"><ele>34.0</ele><time>2026-05-02T08:32:43Z</time></trkpt><trkpt lat="40.943041331391804" lon="9.48440223070348"><ele>32.0</ele><time>2026-05-02T08:32:44Z</time></trkpt><trkpt lat="40.94290626191294" lon="9.484189099647619"><ele>30.0</ele><time>2026-05-02T08:32:45Z</time></trkpt><trkpt lat="40.94276722846051" lon="9.48397637723955"><ele>30.0</ele><time>2026-05-02T08:32:46Z</time></trkpt><trkpt lat="40.94262949609991" lon="9.483766256536077"><ele>30.0</ele><time>2026-05-02T08:32:47Z</time></trkpt><trkpt lat="40.942492724924485" lon="9.483556925155721"><ele>30.0</ele><time>2026-05-02T08:32:48Z</time></trkpt><trkpt lat="40.94235767864267" lon="9.483352113829127"><ele>28.666666666666664</ele><time>2026-05-02T08:32:49Z</time></trkpt><trkpt lat="40.94222058979554" lon="9.483149134815132"><ele>27.333333333333332</ele><time>2026-05-02T08:32:50Z</time></trkpt><trkpt lat="40.942081052982275" lon="9.482940984155153"><ele>26.0</ele><time>2026-05-02T08:32:51Z</time></trkpt><trkpt lat="40.94194399889784" lon="9.482731374865837"><ele>25.666666666666664</ele><time>2026-05-02T08:32:52Z</time></trkpt><trkpt lat="40.94181353231828" lon="9.482525734393326"><ele>25.333333333333336</ele><time>2026-05-02T08:32:53Z</time></trkpt><trkpt lat="40.941677853043956" lon="9.482319392608042"><ele>25.0</ele><time>2026-05-02T08:32:54Z</time></trkpt><trkpt lat="40.94153924913089" lon="9.482111028322999"><ele>23.333333333333336</ele><time>2026-05-02T08:32:55Z</time></trkpt><trkpt lat="40.94140192990356" lon="9.481904759846232"><ele>21.666666666666668</ele><time>2026-05-02T08:32:56Z</time></trkpt><trkpt lat="40.94126495986254" lon="9.481700605181569"><ele>20.0</ele><time>2026-05-02T08:32:57Z</time></trkpt><trkpt lat="40.9411317872719" lon="9.4815010088486"><ele>20.0</ele><time>2026-05-02T08:32:58Z</time></trkpt><trkpt lat="40.94100256884084" lon="9.481303490950536"><ele>20.0</ele><time>2026-05-02T08:32:59.001Z</time></trkpt><trkpt lat="40.94087686051974" lon="9.481109295181986"><ele>20.0</ele><time>2026-05-02T08:33:00.001Z</time></trkpt><trkpt lat="40.94075162655468" lon="9.480918333464937"><ele>19.333333333333336</ele><time>2026-05-02T08:33:01.001Z</time></trkpt><trkpt lat="40.940618867199184" lon="9.480718883677902"><ele>18.666666666666668</ele><time>2026-05-02T08:33:02.001Z</time></trkpt><trkpt lat="40.94048021152437" lon="9.480512729130016"><ele>18.0</ele><time>2026-05-02T08:33:03.001Z</time></trkpt><trkpt lat="40.940338220317265" lon="9.480300687472878"><ele>18.0</ele><time>2026-05-02T08:33:04.001Z</time></trkpt><trkpt lat="40.94019761575299" lon="9.48008659632182"><ele>18.0</ele><time>2026-05-02T08:33:05.001Z</time></trkpt><trkpt lat="40.94005785263721" lon="9.479873548848786"><ele>18.0</ele><time>2026-05-02T08:33:06.001Z</time></trkpt><trkpt lat="40.93992006648781" lon="9.47966192022375"><ele>19.0</ele><time>2026-05-02T08:33:07.001Z</time></trkpt><trkpt lat="40.939780801206005" lon="9.479451228218123"><ele>20.0</ele><time>2026-05-02T08:33:08.001Z</time></trkpt><trkpt lat="40.939639697446395" lon="9.479244768606637"><ele>21.0</ele><time>2026-05-02T08:33:09.001Z</time></trkpt><trkpt lat="40.93949409911566" lon="9.479029298960716"><ele>21.0</ele><time>2026-05-02T08:33:10.001Z</time></trkpt><trkpt lat="40.93934381602896" lon="9.478804037406148"><ele>21.0</ele><time>2026-05-02T08:33:11.001Z</time></trkpt><trkpt lat="40.93919211282004" lon="9.478574420388066"><ele>19.5</ele><time>2026-05-02T08:33:12.001Z</time></trkpt><trkpt lat="40.9390357093215" lon="9.478336555572499"><ele>18.0</ele><time>2026-05-02T08:33:13.001Z</time></trkpt><trkpt lat="40.93887813067969" lon="9.478094801605176"><ele>17.0</ele><time>2026-05-02T08:33:14.001Z</time></trkpt><trkpt lat="40.93871876525078" lon="9.477847352205105"><ele>16.0</ele><time>2026-05-02T08:33:15.001Z</time></trkpt><trkpt lat="40.93855522211051" lon="9.477592096204361"><ele>16.0</ele><time>2026-05-02T08:33:16.001Z</time></trkpt><trkpt lat="40.93838541081888" lon="9.477332287063792"><ele>16.0</ele><time>2026-05-02T08:33:17.001Z</time></trkpt><trkpt lat="40.93821316573638" lon="9.477071265845654"><ele>15.0</ele><time>2026-05-02T08:33:18.001Z</time></trkpt><trkpt lat="40.93804157638" lon="9.47680953090704"><ele>14.0</ele><time>2026-05-02T08:33:19.001Z</time></trkpt><trkpt lat="40.937870792578686" lon="9.476550067878122"><ele>14.0</ele><time>2026-05-02T08:33:20.001Z</time></trkpt><trkpt lat="40.937708824039085" lon="9.476299317663269"><ele>14.0</ele><time>2026-05-02T08:33:21.001Z</time></trkpt><trkpt lat="40.93755772067933" lon="9.476056176028386"><ele>14.5</ele><time>2026-05-02T08:33:22.001Z</time></trkpt><trkpt lat="40.93741443100835" lon="9.475813883609224"><ele>15.0</ele><time>2026-05-02T08:33:23.001Z</time></trkpt><trkpt lat="40.93727668454931" lon="9.475563342507655"><ele>15.333333333333332</ele><time>2026-05-02T08:33:24.001Z</time></trkpt><trkpt lat="40.93715496293871" lon="9.475310737345762"><ele>15.666666666666666</ele><time>2026-05-02T08:33:25.001Z</time></trkpt><trkpt lat="40.93704330243249" lon="9.475063022254561"><ele>16.0</ele><time>2026-05-02T08:33:26.001Z</time></trkpt><trkpt lat="40.93694361747239" lon="9.47482237274027"><ele>16.333333333333332</ele><time>2026-05-02T08:33:27.001Z</time></trkpt><trkpt lat="40.936850832548956" lon="9.474580438019336"><ele>16.666666666666668</ele><time>2026-05-02T08:33:28.001Z</time></trkpt><trkpt lat="40.93676157716077" lon="9.474335915525653"><ele>17.0</ele><time>2026-05-02T08:33:29.001Z</time></trkpt><trkpt lat="40.93668643730403" lon="9.474096201352218"><ele>17.0</ele><time>2026-05-02T08:33:30.001Z</time></trkpt><trkpt lat="40.93661483812938" lon="9.473855859463631"><ele>17.0</ele><time>2026-05-02T08:33:31.001Z</time></trkpt><trkpt lat="40.93654846598512" lon="9.473616547568554"><ele>17.0</ele><time>2026-05-02T08:33:32.001Z</time></trkpt><trkpt lat="40.93649200031379" lon="9.473377942369169"><ele>17.0</ele><time>2026-05-02T08:33:33.001Z</time></trkpt><trkpt lat="40.936442653667314" lon="9.473137046674914"><ele>17.0</ele><time>2026-05-02T08:33:34.001Z</time></trkpt><trkpt lat="40.93640054511853" lon="9.472894836555646"><ele>17.0</ele><time>2026-05-02T08:33:35.001Z</time></trkpt><trkpt lat="40.93636246090904" lon="9.472652751201508"><ele>17.666666666666668</ele><time>2026-05-02T08:33:36.001Z</time></trkpt><trkpt lat="40.93633034461594" lon="9.472417746581451"><ele>18.333333333333332</ele><time>2026-05-02T08:33:37.001Z</time></trkpt><trkpt lat="40.93629987471567" lon="9.472185442060736"><ele>19.0</ele><time>2026-05-02T08:33:38.001Z</time></trkpt><trkpt lat="40.936270684941334" lon="9.471968823056622"><ele>19.25</ele><time>2026-05-02T08:33:39.001Z</time></trkpt><trkpt lat="40.936242489130045" lon="9.471766109131256"><ele>19.5</ele><time>2026-05-02T08:33:40.001Z</time></trkpt><trkpt lat="40.93621695307519" lon="9.47157667583799"><ele>19.75</ele><time>2026-05-02T08:33:41.001Z</time></trkpt><trkpt lat="40.93619411801839" lon="9.471394465884039"><ele>20.0</ele><time>2026-05-02T08:33:42.001Z</time></trkpt><trkpt lat="40.93617443320105" lon="9.471226706273942"><ele>20.0</ele><time>2026-05-02T08:33:43.001Z</time></trkpt><trkpt lat="40.936153819518275" lon="9.471061506936316"><ele>20.0</ele><time>2026-05-02T08:33:44.001Z</time></trkpt><trkpt lat="40.936132664459635" lon="9.47089082452739"><ele>20.0</ele><time>2026-05-02T08:33:45.001Z</time></trkpt><trkpt lat="40.93610790972006" lon="9.470713766210563"><ele>20.0</ele><time>2026-05-02T08:33:46.001Z</time></trkpt><trkpt lat="40.93608257056263" lon="9.47052595070832"><ele>19.5</ele><time>2026-05-02T08:33:47.001Z</time></trkpt><trkpt lat="40.936057726536845" lon="9.47033665215306"><ele>19.0</ele><time>2026-05-02T08:33:48.001Z</time></trkpt><trkpt lat="40.93603062403691" lon="9.470144601481612"><ele>18.5</ele><time>2026-05-02T08:33:49.001Z</time></trkpt><trkpt lat="40.936004438244204" lon="9.469958772680808"><ele>18.0</ele><time>2026-05-02T08:33:50.001Z</time></trkpt><trkpt lat="40.93597836132191" lon="9.469764401215597"><ele>18.5</ele><time>2026-05-02T08:33:51.001Z</time></trkpt><trkpt lat="40.93595375679808" lon="9.469576323897131"><ele>19.0</ele><time>2026-05-02T08:33:52.001Z</time></trkpt><trkpt lat="40.935932349406244" lon="9.46939928373819"><ele>19.5</ele><time>2026-05-02T08:33:53.001Z</time></trkpt><trkpt lat="40.935911488475476" lon="9.469234371125022"><ele>20.0</ele><time>2026-05-02T08:33:54.001Z</time></trkpt><trkpt lat="40.9358866967542" lon="9.46907143148299"><ele>20.25</ele><time>2026-05-02T08:33:55.001Z</time></trkpt><trkpt lat="40.93586287459715" lon="9.468915052143194"><ele>20.5</ele><time>2026-05-02T08:33:56.001Z</time></trkpt><trkpt lat="40.93583853939109" lon="9.468759539861631"><ele>20.75</ele><time>2026-05-02T08:33:57.001Z</time></trkpt><trkpt lat="40.93581221678863" lon="9.468587233603643"><ele>21.0</ele><time>2026-05-02T08:33:58.001Z</time></trkpt><trkpt lat="40.93577981161126" lon="9.46839655173118"><ele>21.0</ele><time>2026-05-02T08:33:59.001Z</time></trkpt><trkpt lat="40.93574424326875" lon="9.468205803098387"><ele>21.0</ele><time>2026-05-02T08:34:00Z</time></trkpt><trkpt lat="40.9356989982467" lon="9.468006582326005"><ele>21.0</ele><time>2026-05-02T08:34:01Z</time></trkpt><trkpt lat="40.93565590750406" lon="9.467808697303951"><ele>21.0</ele><time>2026-05-02T08:34:02Z</time></trkpt><trkpt lat="40.93560014929019" lon="9.467607819176395"><ele>21.0</ele><time>2026-05-02T08:34:03Z</time></trkpt><trkpt lat="40.935542871049314" lon="9.467408784966898"><ele>21.0</ele><time>2026-05-02T08:34:04Z</time></trkpt><trkpt lat="40.93549409471796" lon="9.467200001833067"><ele>20.666666666666668</ele><time>2026-05-02T08:34:05Z</time></trkpt><trkpt lat="40.935439697818005" lon="9.466982810833203"><ele>20.333333333333336</ele><time>2026-05-02T08:34:06Z</time></trkpt><trkpt lat="40.93538134586439" lon="9.466781594903876"><ele>20.0</ele><time>2026-05-02T08:34:07Z</time></trkpt><trkpt lat="40.93531788230651" lon="9.466583242661677"><ele>20.0</ele><time>2026-05-02T08:34:08Z</time></trkpt><trkpt lat="40.935254522308675" lon="9.466380299959892"><ele>20.0</ele><time>2026-05-02T08:34:09Z</time></trkpt><trkpt lat="40.935182612718656" lon="9.46617110307073"><ele>20.0</ele><time>2026-05-02T08:34:10Z</time></trkpt><trkpt lat="40.93510802472889" lon="9.465971914174172"><ele>19.75</ele><time>2026-05-02T08:34:11Z</time></trkpt><trkpt lat="40.93504288171439" lon="9.465791953677739"><ele>19.5</ele><time>2026-05-02T08:34:12Z</time></trkpt><trkpt lat="40.93498044582964" lon="9.465632222516975"><ele>19.25</ele><time>2026-05-02T08:34:13Z</time></trkpt><trkpt lat="40.934911846254465" lon="9.465471055030171"><ele>19.0</ele><time>2026-05-02T08:34:14Z</time></trkpt><trkpt lat="40.93484231600575" lon="9.465310133609428"><ele>18.75</ele><time>2026-05-02T08:34:15Z</time></trkpt><trkpt lat="40.93476607562569" lon="9.465144824704991"><ele>18.5</ele><time>2026-05-02T08:34:16Z</time></trkpt><trkpt lat="40.93469326304036" lon="9.464988625412389"><ele>18.25</ele><time>2026-05-02T08:34:17Z</time></trkpt><trkpt lat="40.93460444835539" lon="9.464813289495197"><ele>18.0</ele><time>2026-05-02T08:34:18Z</time></trkpt><trkpt lat="40.93450697565736" lon="9.464630068615346"><ele>17.75</ele><time>2026-05-02T08:34:19Z</time></trkpt><trkpt lat="40.934424260961684" lon="9.464458531113275"><ele>17.5</ele><time>2026-05-02T08:34:20Z</time></trkpt><trkpt lat="40.93434569121189" lon="9.464298135581842"><ele>17.25</ele><time>2026-05-02T08:34:21Z</time></trkpt><trkpt lat="40.93426124936272" lon="9.464134371180041"><ele>17.0</ele><time>2026-05-02T08:34:22Z</time></trkpt><trkpt lat="40.934161038605446" lon="9.463966004651027"><ele>17.0</ele><time>2026-05-02T08:34:23Z</time></trkpt><trkpt lat="40.934052787144935" lon="9.463791640320647"><ele>17.0</ele><time>2026-05-02T08:34:24Z</time></trkpt><trkpt lat="40.933935148237666" lon="9.463617187070316"><ele>17.0</ele><time>2026-05-02T08:34:25Z</time></trkpt><trkpt lat="40.93382766259885" lon="9.463445716495649"><ele>17.333333333333336</ele><time>2026-05-02T08:34:26Z</time></trkpt><trkpt lat="40.933715946069945" lon="9.463280053398867"><ele>17.666666666666668</ele><time>2026-05-02T08:34:27Z</time></trkpt><trkpt lat="40.933611551309845" lon="9.463129292431564"><ele>18.0</ele><time>2026-05-02T08:34:28Z</time></trkpt><trkpt lat="40.93351537225343" lon="9.462994082318689"><ele>17.75</ele><time>2026-05-02T08:34:29Z</time></trkpt><trkpt lat="40.933417750409305" lon="9.462856841328724"><ele>17.5</ele><time>2026-05-02T08:34:30Z</time></trkpt><trkpt lat="40.93331661079934" lon="9.462720681460496"><ele>17.25</ele><time>2026-05-02T08:34:31Z</time></trkpt><trkpt lat="40.93320993708353" lon="9.462588505632304"><ele>17.0</ele><time>2026-05-02T08:34:32Z</time></trkpt><trkpt lat="40.93310448320191" lon="9.46245471993984"><ele>17.0</ele><time>2026-05-02T08:34:33Z</time></trkpt><trkpt lat="40.93298161139097" lon="9.4623120430103"><ele>17.0</ele><time>2026-05-02T08:34:34Z</time></trkpt><trkpt lat="40.93284106053847" lon="9.462158755849348"><ele>17.0</ele><time>2026-05-02T08:34:35Z</time></trkpt><trkpt lat="40.93268004769492" lon="9.461999754798715"><ele>17.0</ele><time>2026-05-02T08:34:36Z</time></trkpt><trkpt lat="40.932516286562645" lon="9.46182969352043"><ele>17.0</ele><time>2026-05-02T08:34:37Z</time></trkpt><trkpt lat="40.93234835116021" lon="9.461655674215336"><ele>17.0</ele><time>2026-05-02T08:34:38Z</time></trkpt><trkpt lat="40.932171672426406" lon="9.461483413529113"><ele>17.0</ele><time>2026-05-02T08:34:39Z</time></trkpt><trkpt lat="40.931991574603046" lon="9.46131326321555"><ele>17.0</ele><time>2026-05-02T08:34:40Z</time></trkpt><trkpt lat="40.931806647010895" lon="9.46115553402665"><ele>17.0</ele><time>2026-05-02T08:34:41Z</time></trkpt><trkpt lat="40.93161951120536" lon="9.461012180241704"><ele>17.666666666666668</ele><time>2026-05-02T08:34:42Z</time></trkpt><trkpt lat="40.931435009018145" lon="9.460874540087225"><ele>18.333333333333332</ele><time>2026-05-02T08:34:43Z</time></trkpt><trkpt lat="40.93125347099459" lon="9.460741495308465"><ele>19.0</ele><time>2026-05-02T08:34:44Z</time></trkpt><trkpt lat="40.93106950349724" lon="9.460617229608422"><ele>18.666666666666664</ele><time>2026-05-02T08:34:45Z</time></trkpt><trkpt lat="40.9308807979939" lon="9.460500423788824"><ele>18.333333333333332</ele><time>2026-05-02T08:34:46Z</time></trkpt><trkpt lat="40.93069275564448" lon="9.460385850396447"><ele>18.0</ele><time>2026-05-02T08:34:47Z</time></trkpt><trkpt lat="40.93050039578392" lon="9.460276262904898"><ele>18.0</ele><time>2026-05-02T08:34:48Z</time></trkpt><trkpt lat="40.930302734844226" lon="9.460171248765274"><ele>18.0</ele><time>2026-05-02T08:34:49Z</time></trkpt><trkpt lat="40.93010731738115" lon="9.460074883956754"><ele>18.0</ele><time>2026-05-02T08:34:50Z</time></trkpt><trkpt lat="40.92991450348237" lon="9.459985713488326"><ele>18.0</ele><time>2026-05-02T08:34:51Z</time></trkpt><trkpt lat="40.929723519319296" lon="9.459904995030314"><ele>18.0</ele><time>2026-05-02T08:34:52.001Z</time></trkpt><trkpt lat="40.929528727418955" lon="9.459829774570887"><ele>18.0</ele><time>2026-05-02T08:34:53.001Z</time></trkpt><trkpt lat="40.92933106232696" lon="9.459761554130088"><ele>18.333333333333332</ele><time>2026-05-02T08:34:54.001Z</time></trkpt><trkpt lat="40.92913204315278" lon="9.459697644644514"><ele>18.666666666666664</ele><time>2026-05-02T08:34:55.001Z</time></trkpt><trkpt lat="40.92893220023927" lon="9.45963351973462"><ele>19.0</ele><time>2026-05-02T08:34:56.001Z</time></trkpt><trkpt lat="40.928730117416265" lon="9.459570151255033"><ele>19.0</ele><time>2026-05-02T08:34:57.001Z</time></trkpt><trkpt lat="40.92852665365043" lon="9.459510159218114"><ele>19.0</ele><time>2026-05-02T08:34:58.001Z</time></trkpt><trkpt lat="40.9283187839429" lon="9.459453176121857"><ele>19.0</ele><time>2026-05-02T08:34:59.001Z</time></trkpt><trkpt lat="40.92811293596862" lon="9.459397008991166"><ele>19.666666666666664</ele><time>2026-05-02T08:35:00.001Z</time></trkpt><trkpt lat="40.92791312883856" lon="9.459342676048175"><ele>20.333333333333332</ele><time>2026-05-02T08:35:01.001Z</time></trkpt><trkpt lat="40.92771511158306" lon="9.459287826102678"><ele>21.0</ele><time>2026-05-02T08:35:02.001Z</time></trkpt><trkpt lat="40.92751605217849" lon="9.45923442303034"><ele>21.666666666666668</ele><time>2026-05-02T08:35:03.001Z</time></trkpt><trkpt lat="40.92732390949005" lon="9.45918151905647"><ele>22.333333333333336</ele><time>2026-05-02T08:35:04.001Z</time></trkpt><trkpt lat="40.927130219755874" lon="9.459129409116288"><ele>23.0</ele><time>2026-05-02T08:35:05.001Z</time></trkpt><trkpt lat="40.926941248724596" lon="9.459077479630187"><ele>23.0</ele><time>2026-05-02T08:35:06.001Z</time></trkpt><trkpt lat="40.92675323878865" lon="9.459022437941274"><ele>23.0</ele><time>2026-05-02T08:35:07.001Z</time></trkpt><trkpt lat="40.92656807327497" lon="9.458970192120455"><ele>23.0</ele><time>2026-05-02T08:35:08.001Z</time></trkpt><trkpt lat="40.926383779025905" lon="9.45892034964376"><ele>23.333333333333336</ele><time>2026-05-02T08:35:09.001Z</time></trkpt><trkpt lat="40.92620218653329" lon="9.458874081741865"><ele>23.666666666666668</ele><time>2026-05-02T08:35:10.001Z</time></trkpt><trkpt lat="40.92602630641399" lon="9.45882689392145"><ele>24.0</ele><time>2026-05-02T08:35:11.001Z</time></trkpt><trkpt lat="40.92585194433735" lon="9.458780994219762"><ele>23.0</ele><time>2026-05-02T08:35:12.001Z</time></trkpt><trkpt lat="40.92568194302757" lon="9.458737201497357"><ele>22.0</ele><time>2026-05-02T08:35:13.001Z</time></trkpt><trkpt lat="40.92551127571792" lon="9.458686899583356"><ele>21.0</ele><time>2026-05-02T08:35:14.001Z</time></trkpt><trkpt lat="40.92533923215624" lon="9.458639712934215"><ele>21.0</ele><time>2026-05-02T08:35:15.001Z</time></trkpt><trkpt lat="40.925170299105844" lon="9.458591316490432"><ele>21.0</ele><time>2026-05-02T08:35:16.001Z</time></trkpt><trkpt lat="40.92499993889245" lon="9.458544663200202"><ele>21.0</ele><time>2026-05-02T08:35:17.001Z</time></trkpt><trkpt lat="40.92482803958131" lon="9.458497395645697"><ele>20.666666666666668</ele><time>2026-05-02T08:35:18.001Z</time></trkpt><trkpt lat="40.92465602721139" lon="9.45845790515635"><ele>20.333333333333336</ele><time>2026-05-02T08:35:19.001Z</time></trkpt><trkpt lat="40.92448998612467" lon="9.458414727714128"><ele>20.0</ele><time>2026-05-02T08:35:20.001Z</time></trkpt><trkpt lat="40.92430012448711" lon="9.458358831398083"><ele>19.333333333333336</ele><time>2026-05-02T08:35:21.001Z</time></trkpt><trkpt lat="40.92412247014044" lon="9.458307819858918"><ele>18.666666666666668</ele><time>2026-05-02T08:35:22.001Z</time></trkpt><trkpt lat="40.92394429048573" lon="9.458260449332103"><ele>18.0</ele><time>2026-05-02T08:35:23.001Z</time></trkpt><trkpt lat="40.92376742644143" lon="9.458207486762813"><ele>18.0</ele><time>2026-05-02T08:35:24.001Z</time></trkpt><trkpt lat="40.923590922128874" lon="9.458155624218046"><ele>18.0</ele><time>2026-05-02T08:35:25.001Z</time></trkpt><trkpt lat="40.92341487618235" lon="9.458105196732111"><ele>18.0</ele><time>2026-05-02T08:35:26.001Z</time></trkpt><trkpt lat="40.923239286727096" lon="9.458056640179054"><ele>17.0</ele><time>2026-05-02T08:35:27.001Z</time></trkpt><trkpt lat="40.92306123010753" lon="9.45800521504268"><ele>16.0</ele><time>2026-05-02T08:35:28.001Z</time></trkpt><trkpt lat="40.92288278235638" lon="9.45796091915992"><ele>15.0</ele><time>2026-05-02T08:35:29.001Z</time></trkpt><trkpt lat="40.9227102489389" lon="9.457923550141794"><ele>16.0</ele><time>2026-05-02T08:35:30.001Z</time></trkpt><trkpt lat="40.922535416667515" lon="9.457883267133537"><ele>17.0</ele><time>2026-05-02T08:35:31.001Z</time></trkpt><trkpt lat="40.92236314199442" lon="9.457848253094213"><ele>18.0</ele><time>2026-05-02T08:35:32.001Z</time></trkpt><trkpt lat="40.92219149436388" lon="9.457821123439624"><ele>18.0</ele><time>2026-05-02T08:35:33.001Z</time></trkpt><trkpt lat="40.92202076133772" lon="9.457804418116497"><ele>18.0</ele><time>2026-05-02T08:35:34.001Z</time></trkpt><trkpt lat="40.92186364520558" lon="9.457795846057067"><ele>18.0</ele><time>2026-05-02T08:35:35.001Z</time></trkpt><trkpt lat="40.92171024903383" lon="9.457784716133654"><ele>18.75</ele><time>2026-05-02T08:35:36.001Z</time></trkpt><trkpt lat="40.92156899176017" lon="9.45778111336955"><ele>19.5</ele><time>2026-05-02T08:35:37.001Z</time></trkpt><trkpt lat="40.921443972227365" lon="9.45778226980119"><ele>20.25</ele><time>2026-05-02T08:35:38.001Z</time></trkpt><trkpt lat="40.92132859417395" lon="9.457774943611023"><ele>21.0</ele><time>2026-05-02T08:35:39.001Z</time></trkpt><trkpt lat="40.92123910531749" lon="9.45773794652629"><ele>21.0</ele><time>2026-05-02T08:35:40.001Z</time></trkpt><trkpt lat="40.921163005151506" lon="9.457667218810398"><ele>21.0</ele><time>2026-05-02T08:35:41.001Z</time></trkpt><trkpt lat="40.921093921585246" lon="9.457570350632723"><ele>21.0</ele><time>2026-05-02T08:35:42.001Z</time></trkpt><trkpt lat="40.921050637054485" lon="9.457438251850354"><ele>21.0</ele><time>2026-05-02T08:35:43.001Z</time></trkpt><trkpt lat="40.92102562577299" lon="9.457267925194651"><ele>21.0</ele><time>2026-05-02T08:35:44.001Z</time></trkpt><trkpt lat="40.920972826470894" lon="9.457153702978925"><ele>20.5</ele><time>2026-05-02T08:35:45.001Z</time></trkpt><trkpt lat="40.920896923832856" lon="9.457044111360373"><ele>20.0</ele><time>2026-05-02T08:35:46.001Z</time></trkpt><trkpt lat="40.92078959021242" lon="9.456939278893891"><ele>19.5</ele><time>2026-05-02T08:35:47.001Z</time></trkpt><trkpt lat="40.92067715934711" lon="9.456849910244559"><ele>19.0</ele><time>2026-05-02T08:35:48.001Z</time></trkpt><trkpt lat="40.92055507618417" lon="9.456774579437004"><ele>19.0</ele><time>2026-05-02T08:35:49.001Z</time></trkpt><trkpt lat="40.92043125913794" lon="9.456724635537451"><ele>19.0</ele><time>2026-05-02T08:35:50.001Z</time></trkpt><trkpt lat="40.92030395560497" lon="9.456691339489998"><ele>19.0</ele><time>2026-05-02T08:35:51.001Z</time></trkpt><trkpt lat="40.92018203736006" lon="9.456659001662755"><ele>19.0</ele><time>2026-05-02T08:35:52.001Z</time></trkpt><trkpt lat="40.920071900952124" lon="9.45661564809469"><ele>19.0</ele><time>2026-05-02T08:35:53.001Z</time></trkpt><trkpt lat="40.919979994581844" lon="9.45655971976141"><ele>19.0</ele><time>2026-05-02T08:35:54.001Z</time></trkpt><trkpt lat="40.91991053790653" lon="9.456487118020226"><ele>19.0</ele><time>2026-05-02T08:35:55.001Z</time></trkpt><trkpt lat="40.919871025295976" lon="9.456412420014813"><ele>19.0</ele><time>2026-05-02T08:35:56.001Z</time></trkpt><trkpt lat="40.919865781197785" lon="9.456236787178998"><ele>19.0</ele><time>2026-05-02T08:35:58.001Z</time></trkpt><trkpt lat="40.91988894446239" lon="9.45611793380969"><ele>19.0</ele><time>2026-05-02T08:35:59.001Z</time></trkpt><trkpt lat="40.91990000099214" lon="9.455986735609942"><ele>19.0</ele><time>2026-05-02T08:36:00.001Z</time></trkpt><trkpt lat="40.91990339791502" lon="9.455819604713827"><ele>19.0</ele><time>2026-05-02T08:36:01.001Z</time></trkpt><trkpt lat="40.91991001619479" lon="9.455645097413255"><ele>19.0</ele><time>2026-05-02T08:36:02.001Z</time></trkpt><trkpt lat="40.91991945361027" lon="9.455472344154886"><ele>19.333333333333332</ele><time>2026-05-02T08:36:03.001Z</time></trkpt><trkpt lat="40.91993269385245" lon="9.455276480064645"><ele>19.666666666666668</ele><time>2026-05-02T08:36:04.001Z</time></trkpt><trkpt lat="40.91994250185468" lon="9.455074724364291"><ele>20.0</ele><time>2026-05-02T08:36:05.001Z</time></trkpt><trkpt lat="40.91995801538896" lon="9.454855426320076"><ele>20.666666666666668</ele><time>2026-05-02T08:36:06Z</time></trkpt><trkpt lat="40.91997979099071" lon="9.45461659488811"><ele>21.333333333333332</ele><time>2026-05-02T08:36:07Z</time></trkpt><trkpt lat="40.920004985221865" lon="9.454369477420911"><ele>22.0</ele><time>2026-05-02T08:36:08Z</time></trkpt><trkpt lat="40.920031222750474" lon="9.45412056096467"><ele>22.0</ele><time>2026-05-02T08:36:09Z</time></trkpt><trkpt lat="40.920059359933866" lon="9.453859352614838"><ele>22.0</ele><time>2026-05-02T08:36:10Z</time></trkpt><trkpt lat="40.920088304788116" lon="9.453577169814618"><ele>22.0</ele><time>2026-05-02T08:36:11Z</time></trkpt><trkpt lat="40.92011146843921" lon="9.45332525385172"><ele>21.666666666666664</ele><time>2026-05-02T08:36:12Z</time></trkpt><trkpt lat="40.92014055614067" lon="9.453059575818905"><ele>21.333333333333332</ele><time>2026-05-02T08:36:13Z</time></trkpt><trkpt lat="40.92016748592628" lon="9.452792495073991"><ele>21.0</ele><time>2026-05-02T08:36:14Z</time></trkpt><trkpt lat="40.920194639978966" lon="9.452537329513744"><ele>21.0</ele><time>2026-05-02T08:36:15Z</time></trkpt><trkpt lat="40.92022014218304" lon="9.45228654606261"><ele>21.0</ele><time>2026-05-02T08:36:16Z</time></trkpt><trkpt lat="40.920248490003736" lon="9.45203869270804"><ele>21.0</ele><time>2026-05-02T08:36:17Z</time></trkpt><trkpt lat="40.920274011655586" lon="9.451788225561431"><ele>21.333333333333332</ele><time>2026-05-02T08:36:18Z</time></trkpt><trkpt lat="40.92029887401637" lon="9.451541447463056"><ele>21.666666666666664</ele><time>2026-05-02T08:36:19Z</time></trkpt><trkpt lat="40.92031953118628" lon="9.45130179348949"><ele>22.0</ele><time>2026-05-02T08:36:20Z</time></trkpt><trkpt lat="40.920332332728485" lon="9.45105446821179"><ele>22.0</ele><time>2026-05-02T08:36:21Z</time></trkpt><trkpt lat="40.92034046489039" lon="9.45081006819936"><ele>22.0</ele><time>2026-05-02T08:36:22Z</time></trkpt><trkpt lat="40.92033940949425" lon="9.450565373037529"><ele>22.0</ele><time>2026-05-02T08:36:23Z</time></trkpt><trkpt lat="40.920331726192764" lon="9.450320004636371"><ele>22.333333333333332</ele><time>2026-05-02T08:36:24Z</time></trkpt><trkpt lat="40.92032007328264" lon="9.450070057234738"><ele>22.666666666666668</ele><time>2026-05-02T08:36:25Z</time></trkpt><trkpt lat="40.92030723899389" lon="9.449835942171438"><ele>23.0</ele><time>2026-05-02T08:36:26Z</time></trkpt><trkpt lat="40.92029769895215" lon="9.449593166298238"><ele>23.0</ele><time>2026-05-02T08:36:27Z</time></trkpt><trkpt lat="40.92028639263092" lon="9.449358008974105"><ele>23.0</ele><time>2026-05-02T08:36:28Z</time></trkpt><trkpt lat="40.92027522620702" lon="9.449123109847646"><ele>23.0</ele><time>2026-05-02T08:36:29Z</time></trkpt><trkpt lat="40.92026314824239" lon="9.448893591487261"><ele>23.0</ele><time>2026-05-02T08:36:30Z</time></trkpt><trkpt lat="40.92024672535695" lon="9.448655462706494"><ele>23.0</ele><time>2026-05-02T08:36:31Z</time></trkpt><trkpt lat="40.9202343241271" lon="9.448420730811597"><ele>23.0</ele><time>2026-05-02T08:36:32Z</time></trkpt><trkpt lat="40.92022380430487" lon="9.448179102107005"><ele>23.333333333333336</ele><time>2026-05-02T08:36:33Z</time></trkpt><trkpt lat="40.920212207956986" lon="9.447942942722738"><ele>23.666666666666668</ele><time>2026-05-02T08:36:34Z</time></trkpt><trkpt lat="40.92020495630294" lon="9.447702257053143"><ele>24.0</ele><time>2026-05-02T08:36:35Z</time></trkpt><trkpt lat="40.92019292226941" lon="9.447470114931686"><ele>24.0</ele><time>2026-05-02T08:36:36Z</time></trkpt><trkpt lat="40.92018162822658" lon="9.447227518142038"><ele>24.0</ele><time>2026-05-02T08:36:37Z</time></trkpt><trkpt lat="40.92016816468439" lon="9.44698653343848"><ele>24.0</ele><time>2026-05-02T08:36:38Z</time></trkpt><trkpt lat="40.920156974940184" lon="9.446736142600612"><ele>25.333333333333336</ele><time>2026-05-02T08:36:39Z</time></trkpt><trkpt lat="40.92014820789472" lon="9.44648744993596"><ele>26.666666666666668</ele><time>2026-05-02T08:36:40Z</time></trkpt><trkpt lat="40.920132220203264" lon="9.44623668611877"><ele>28.0</ele><time>2026-05-02T08:36:41Z</time></trkpt><trkpt lat="40.92011767133959" lon="9.445977971334282"><ele>28.0</ele><time>2026-05-02T08:36:42.001Z</time></trkpt><trkpt lat="40.920109924723846" lon="9.44572221403004"><ele>28.0</ele><time>2026-05-02T08:36:43.001Z</time></trkpt><trkpt lat="40.920095634374654" lon="9.445469512196587"><ele>28.0</ele><time>2026-05-02T08:36:44.001Z</time></trkpt><trkpt lat="40.92008891218042" lon="9.445218408379912"><ele>29.333333333333336</ele><time>2026-05-02T08:36:45.001Z</time></trkpt><trkpt lat="40.92007904773183" lon="9.44498037434796"><ele>30.666666666666664</ele><time>2026-05-02T08:36:46.001Z</time></trkpt><trkpt lat="40.92006673028401" lon="9.44475142249113"><ele>32.0</ele><time>2026-05-02T08:36:47.001Z</time></trkpt><trkpt lat="40.920052333563824" lon="9.44454667142903"><ele>32.25</ele><time>2026-05-02T08:36:48.001Z</time></trkpt><trkpt lat="40.92004659886058" lon="9.444372525376892"><ele>32.5</ele><time>2026-05-02T08:36:49.001Z</time></trkpt><trkpt lat="40.92004269917901" lon="9.444209412449952"><ele>32.75</ele><time>2026-05-02T08:36:50.001Z</time></trkpt><trkpt lat="40.9200372230416" lon="9.444069972516965"><ele>33.0</ele><time>2026-05-02T08:36:51.001Z</time></trkpt><trkpt lat="40.92003233418827" lon="9.443946550843036"><ele>33.0</ele><time>2026-05-02T08:36:52.001Z</time></trkpt><trkpt lat="40.92002688644642" lon="9.443829984384633"><ele>33.0</ele><time>2026-05-02T08:36:53.001Z</time></trkpt><trkpt lat="40.92002130849738" lon="9.44370891046319"><ele>33.0</ele><time>2026-05-02T08:36:54.001Z</time></trkpt><trkpt lat="40.920014326367145" lon="9.443572086053432"><ele>33.0</ele><time>2026-05-02T08:36:55.001Z</time></trkpt><trkpt lat="40.92000669742379" lon="9.443418467326426"><ele>33.0</ele><time>2026-05-02T08:36:56.001Z</time></trkpt><trkpt lat="40.91999527602306" lon="9.443259168886751"><ele>33.75</ele><time>2026-05-02T08:36:57.001Z</time></trkpt><trkpt lat="40.91999101374245" lon="9.443086673572298"><ele>34.5</ele><time>2026-05-02T08:36:58.001Z</time></trkpt><trkpt lat="40.91998325780613" lon="9.442905046334639"><ele>35.25</ele><time>2026-05-02T08:36:59.001Z</time></trkpt><trkpt lat="40.91997187696482" lon="9.442695965128433"><ele>36.0</ele><time>2026-05-02T08:37:00.001Z</time></trkpt><trkpt lat="40.919938862445676" lon="9.44245753412027"><ele>36.666666666666664</ele><time>2026-05-02T08:37:01.001Z</time></trkpt><trkpt lat="40.91995377403218" lon="9.442269037272707"><ele>37.33333333333333</ele><time>2026-05-02T08:37:02.001Z</time></trkpt><trkpt lat="40.91994413818243" lon="9.442034912224772"><ele>38.0</ele><time>2026-05-02T08:37:03.001Z</time></trkpt><trkpt lat="40.919932208502445" lon="9.44179126370847"><ele>38.0</ele><time>2026-05-02T08:37:04.001Z</time></trkpt><trkpt lat="40.919921258363594" lon="9.44155067717406"><ele>38.0</ele><time>2026-05-02T08:37:05.001Z</time></trkpt><trkpt lat="40.91990368806746" lon="9.441302935644108"><ele>38.0</ele><time>2026-05-02T08:37:06.001Z</time></trkpt><trkpt lat="40.91987857004988" lon="9.441068729545593"><ele>37.666666666666664</ele><time>2026-05-02T08:37:07.001Z</time></trkpt><trkpt lat="40.919832471413706" lon="9.440849866130224"><ele>37.333333333333336</ele><time>2026-05-02T08:37:08.001Z</time></trkpt><trkpt lat="40.91976200417678" lon="9.440633062770429"><ele>37.0</ele><time>2026-05-02T08:37:09.001Z</time></trkpt><trkpt lat="40.91966652590943" lon="9.44041302532145"><ele>35.66666666666667</ele><time>2026-05-02T08:37:10.001Z</time></trkpt><trkpt lat="40.91955109839524" lon="9.440193654722489"><ele>34.333333333333336</ele><time>2026-05-02T08:37:11.001Z</time></trkpt><trkpt lat="40.91942341418314" lon="9.439980067818205"><ele>33.0</ele><time>2026-05-02T08:37:12.001Z</time></trkpt><trkpt lat="40.91928540703965" lon="9.439758396813048"><ele>33.0</ele><time>2026-05-02T08:37:13.001Z</time></trkpt><trkpt lat="40.919149027214964" lon="9.439537189274878"><ele>33.0</ele><time>2026-05-02T08:37:14.001Z</time></trkpt><trkpt lat="40.91901314819318" lon="9.439317061191646"><ele>33.0</ele><time>2026-05-02T08:37:15.001Z</time></trkpt><trkpt lat="40.918881325691494" lon="9.439096854537336"><ele>33.0</ele><time>2026-05-02T08:37:16.001Z</time></trkpt><trkpt lat="40.91874596919397" lon="9.438865683356923"><ele>33.0</ele><time>2026-05-02T08:37:17.001Z</time></trkpt><trkpt lat="40.91860781702494" lon="9.438634688239555"><ele>33.0</ele><time>2026-05-02T08:37:18.001Z</time></trkpt><trkpt lat="40.91847014651296" lon="9.438402609411972"><ele>33.666666666666664</ele><time>2026-05-02T08:37:19.001Z</time></trkpt><trkpt lat="40.91833268315227" lon="9.438173561095612"><ele>34.33333333333333</ele><time>2026-05-02T08:37:20.001Z</time></trkpt><trkpt lat="40.91819541408304" lon="9.437947735647159"><ele>35.0</ele><time>2026-05-02T08:37:21.001Z</time></trkpt><trkpt lat="40.91805811947457" lon="9.437721461665063"><ele>35.0</ele><time>2026-05-02T08:37:22.001Z</time></trkpt><trkpt lat="40.91791835599507" lon="9.437494711845279"><ele>35.0</ele><time>2026-05-02T08:37:23.001Z</time></trkpt><trkpt lat="40.917776810420314" lon="9.43727167129434"><ele>35.0</ele><time>2026-05-02T08:37:24.001Z</time></trkpt><trkpt lat="40.917641163710115" lon="9.437042289780578"><ele>36.33333333333333</ele><time>2026-05-02T08:37:25.001Z</time></trkpt><trkpt lat="40.91751002014956" lon="9.436820553236867"><ele>37.666666666666664</ele><time>2026-05-02T08:37:26.001Z</time></trkpt><trkpt lat="40.91738386874167" lon="9.436598162677573"><ele>39.0</ele><time>2026-05-02T08:37:27.001Z</time></trkpt><trkpt lat="40.91725760787799" lon="9.436391683360434"><ele>37.666666666666664</ele><time>2026-05-02T08:37:28.001Z</time></trkpt><trkpt lat="40.91713063913162" lon="9.436183106346078"><ele>36.33333333333333</ele><time>2026-05-02T08:37:29.001Z</time></trkpt><trkpt lat="40.91701438315955" lon="9.435965363749975"><ele>35.0</ele><time>2026-05-02T08:37:30.001Z</time></trkpt><trkpt lat="40.91691152623054" lon="9.43574633600228"><ele>35.0</ele><time>2026-05-02T08:37:31.001Z</time></trkpt><trkpt lat="40.91682577938514" lon="9.43550469910283"><ele>35.0</ele><time>2026-05-02T08:37:32.001Z</time></trkpt><trkpt lat="40.916749049483734" lon="9.435251487584456"><ele>35.0</ele><time>2026-05-02T08:37:33.001Z</time></trkpt><trkpt lat="40.91668330341336" lon="9.434988104013936"><ele>35.33333333333333</ele><time>2026-05-02T08:37:34.001Z</time></trkpt><trkpt lat="40.91661612108971" lon="9.434720808892292"><ele>35.666666666666664</ele><time>2026-05-02T08:37:35.001Z</time></trkpt><trkpt lat="40.91655188902555" lon="9.434452101725801"><ele>36.0</ele><time>2026-05-02T08:37:36.001Z</time></trkpt><trkpt lat="40.91648915744306" lon="9.434179206832585"><ele>36.333333333333336</ele><time>2026-05-02T08:37:37.001Z</time></trkpt><trkpt lat="40.91642577180592" lon="9.433909269977837"><ele>36.66666666666667</ele><time>2026-05-02T08:37:38.001Z</time></trkpt><trkpt lat="40.91636257754358" lon="9.433637773522912"><ele>37.0</ele><time>2026-05-02T08:37:39.001Z</time></trkpt><trkpt lat="40.91629470553159" lon="9.433368417588214"><ele>38.0</ele><time>2026-05-02T08:37:40.001Z</time></trkpt><trkpt lat="40.91623527074936" lon="9.433094800104662"><ele>39.0</ele><time>2026-05-02T08:37:41.001Z</time></trkpt><trkpt lat="40.916170922403985" lon="9.432825321567224"><ele>40.0</ele><time>2026-05-02T08:37:42.001Z</time></trkpt><trkpt lat="40.91610802236165" lon="9.43256162601493"><ele>40.0</ele><time>2026-05-02T08:37:43.001Z</time></trkpt><trkpt lat="40.916047107711805" lon="9.432293496708745"><ele>40.0</ele><time>2026-05-02T08:37:44.001Z</time></trkpt><trkpt lat="40.915989200653804" lon="9.432032622168713"><ele>40.0</ele><time>2026-05-02T08:37:45.001Z</time></trkpt><trkpt lat="40.91593009670376" lon="9.431774425302056"><ele>40.0</ele><time>2026-05-02T08:37:46.001Z</time></trkpt><trkpt lat="40.915870267457024" lon="9.43152542874101"><ele>40.0</ele><time>2026-05-02T08:37:47.001Z</time></trkpt><trkpt lat="40.915809348325595" lon="9.43126484186304"><ele>40.0</ele><time>2026-05-02T08:37:48.001Z</time></trkpt><trkpt lat="40.91574893472523" lon="9.43100888339973"><ele>40.66666666666667</ele><time>2026-05-02T08:37:49.001Z</time></trkpt><trkpt lat="40.91568924317545" lon="9.430755911444049"><ele>41.333333333333336</ele><time>2026-05-02T08:37:50.001Z</time></trkpt><trkpt lat="40.91562935939965" lon="9.430505804745556"><ele>42.0</ele><time>2026-05-02T08:37:51.001Z</time></trkpt><trkpt lat="40.91557344569445" lon="9.430254169579698"><ele>42.666666666666664</ele><time>2026-05-02T08:37:52.001Z</time></trkpt><trkpt lat="40.91551463249315" lon="9.430003103907056"><ele>43.33333333333333</ele><time>2026-05-02T08:37:53.001Z</time></trkpt><trkpt lat="40.91545690858783" lon="9.42975785419932"><ele>44.0</ele><time>2026-05-02T08:37:54.001Z</time></trkpt><trkpt lat="40.915400063989146" lon="9.429515718142985"><ele>44.33333333333333</ele><time>2026-05-02T08:37:55.001Z</time></trkpt><trkpt lat="40.91534275486619" lon="9.429273908436013"><ele>44.666666666666664</ele><time>2026-05-02T08:37:56.001Z</time></trkpt><trkpt lat="40.915285676575834" lon="9.429031660628949"><ele>45.0</ele><time>2026-05-02T08:37:57.001Z</time></trkpt><trkpt lat="40.915231698152745" lon="9.428789606781061"><ele>45.333333333333336</ele><time>2026-05-02T08:37:58.001Z</time></trkpt><trkpt lat="40.91517473895061" lon="9.428546895706802"><ele>45.66666666666667</ele><time>2026-05-02T08:37:59.001Z</time></trkpt><trkpt lat="40.91511497427722" lon="9.428309000159995"><ele>46.0</ele><time>2026-05-02T08:38:00.001Z</time></trkpt><trkpt lat="40.915055556686625" lon="9.428068517049145"><ele>48.333333333333336</ele><time>2026-05-02T08:38:01.001Z</time></trkpt><trkpt lat="40.9149985661466" lon="9.427826634897999"><ele>50.66666666666667</ele><time>2026-05-02T08:38:02.001Z</time></trkpt><trkpt lat="40.91494521993418" lon="9.42758835717137"><ele>53.0</ele><time>2026-05-02T08:38:03.001Z</time></trkpt><trkpt lat="40.914887639858044" lon="9.42735031477868"><ele>53.66666666666667</ele><time>2026-05-02T08:38:04.001Z</time></trkpt><trkpt lat="40.91483035300002" lon="9.42710884200205"><ele>54.33333333333333</ele><time>2026-05-02T08:38:05.001Z</time></trkpt><trkpt lat="40.91477408233997" lon="9.426868770780095"><ele>55.0</ele><time>2026-05-02T08:38:06.001Z</time></trkpt><trkpt lat="40.91471879033197" lon="9.426625698958903"><ele>55.0</ele><time>2026-05-02T08:38:07.001Z</time></trkpt><trkpt lat="40.914662062005384" lon="9.426381141679425"><ele>55.0</ele><time>2026-05-02T08:38:08.001Z</time></trkpt><trkpt lat="40.9146055242961" lon="9.426130174444678"><ele>55.0</ele><time>2026-05-02T08:38:09.001Z</time></trkpt><trkpt lat="40.91454694272219" lon="9.425875442082344"><ele>55.33333333333333</ele><time>2026-05-02T08:38:10.001Z</time></trkpt><trkpt lat="40.91448508916368" lon="9.425616918678502"><ele>55.66666666666667</ele><time>2026-05-02T08:38:11.001Z</time></trkpt><trkpt lat="40.91442587805084" lon="9.425366014522904"><ele>56.0</ele><time>2026-05-02T08:38:12Z</time></trkpt><trkpt lat="40.91436405236602" lon="9.425115102940149"><ele>56.0</ele><time>2026-05-02T08:38:13Z</time></trkpt><trkpt lat="40.9143054961573" lon="9.42486962306339"><ele>56.0</ele><time>2026-05-02T08:38:14Z</time></trkpt><trkpt lat="40.9142460400664" lon="9.424623100158785"><ele>56.0</ele><time>2026-05-02T08:38:15Z</time></trkpt><trkpt lat="40.91418968874265" lon="9.424379635753343"><ele>58.0</ele><time>2026-05-02T08:38:16Z</time></trkpt><trkpt lat="40.914134623807676" lon="9.42414059791611"><ele>60.0</ele><time>2026-05-02T08:38:17Z</time></trkpt><trkpt lat="40.91408053010428" lon="9.42391331164158"><ele>62.0</ele><time>2026-05-02T08:38:18Z</time></trkpt><trkpt lat="40.914031638800886" lon="9.4236942700083"><ele>62.333333333333336</ele><time>2026-05-02T08:38:19Z</time></trkpt><trkpt lat="40.913982667724824" lon="9.423465860304827"><ele>62.66666666666667</ele><time>2026-05-02T08:38:20Z</time></trkpt><trkpt lat="40.913922242759526" lon="9.423226827022724"><ele>63.0</ele><time>2026-05-02T08:38:21Z</time></trkpt><trkpt lat="40.91385662401534" lon="9.42298520120272"><ele>63.66666666666667</ele><time>2026-05-02T08:38:22Z</time></trkpt><trkpt lat="40.913792224091445" lon="9.422727051226266"><ele>64.33333333333334</ele><time>2026-05-02T08:38:23Z</time></trkpt><trkpt lat="40.91372750469613" lon="9.42246055426649"><ele>65.0</ele><time>2026-05-02T08:38:24Z</time></trkpt><trkpt lat="40.91366255637476" lon="9.422192658103812"><ele>65.33333333333334</ele><time>2026-05-02T08:38:25Z</time></trkpt><trkpt lat="40.91359943819758" lon="9.421926721140396"><ele>65.66666666666667</ele><time>2026-05-02T08:38:26Z</time></trkpt><trkpt lat="40.91353802304914" lon="9.421665035399315"><ele>66.0</ele><time>2026-05-02T08:38:27Z</time></trkpt><trkpt lat="40.91348508970366" lon="9.421439616928506"><ele>66.33333333333333</ele><time>2026-05-02T08:38:28Z</time></trkpt><trkpt lat="40.913444191136875" lon="9.421242184742846"><ele>66.66666666666666</ele><time>2026-05-02T08:38:29Z</time></trkpt><trkpt lat="40.91341563718453" lon="9.421066624752495"><ele>67.0</ele><time>2026-05-02T08:38:30Z</time></trkpt><trkpt lat="40.91336102405269" lon="9.420825981692222"><ele>65.66666666666666</ele><time>2026-05-02T08:38:31Z</time></trkpt><trkpt lat="40.91330798620412" lon="9.420585167754046"><ele>64.33333333333333</ele><time>2026-05-02T08:38:32Z</time></trkpt><trkpt lat="40.91325670225805" lon="9.420347603104892"><ele>63.0</ele><time>2026-05-02T08:38:33Z</time></trkpt><trkpt lat="40.913201211114014" lon="9.420108357117023"><ele>63.0</ele><time>2026-05-02T08:38:34Z</time></trkpt><trkpt lat="40.9131407293929" lon="9.419860323049058"><ele>63.0</ele><time>2026-05-02T08:38:35Z</time></trkpt><trkpt lat="40.9130839739946" lon="9.41961725114505"><ele>63.0</ele><time>2026-05-02T08:38:36Z</time></trkpt><trkpt lat="40.913027535855264" lon="9.419370880981038"><ele>63.33333333333333</ele><time>2026-05-02T08:38:37Z</time></trkpt><trkpt lat="40.91297233439591" lon="9.41913542699442"><ele>63.666666666666664</ele><time>2026-05-02T08:38:38Z</time></trkpt><trkpt lat="40.91291480222778" lon="9.418902262734926"><ele>64.0</ele><time>2026-05-02T08:38:39Z</time></trkpt><trkpt lat="40.91286328135303" lon="9.418672417547565"><ele>65.33333333333333</ele><time>2026-05-02T08:38:40Z</time></trkpt><trkpt lat="40.91281026288225" lon="9.418447041908387"><ele>66.66666666666667</ele><time>2026-05-02T08:38:41Z</time></trkpt><trkpt lat="40.91275567895285" lon="9.418215629699196"><ele>68.0</ele><time>2026-05-02T08:38:42Z</time></trkpt><trkpt lat="40.912701652014036" lon="9.417984964999286"><ele>68.66666666666667</ele><time>2026-05-02T08:38:43Z</time></trkpt><trkpt lat="40.91264643696834" lon="9.417753472848103"><ele>69.33333333333333</ele><time>2026-05-02T08:38:44Z</time></trkpt><trkpt lat="40.912594951460136" lon="9.417522865159977"><ele>70.0</ele><time>2026-05-02T08:38:45Z</time></trkpt><trkpt lat="40.91254324198675" lon="9.417293947469393"><ele>70.33333333333333</ele><time>2026-05-02T08:38:46Z</time></trkpt><trkpt lat="40.91249001508982" lon="9.417070402151818"><ele>70.66666666666667</ele><time>2026-05-02T08:38:47Z</time></trkpt><trkpt lat="40.912436997176485" lon="9.416853814150036"><ele>71.0</ele><time>2026-05-02T08:38:48Z</time></trkpt><trkpt lat="40.912386400923054" lon="9.416646248110247"><ele>71.0</ele><time>2026-05-02T08:38:49Z</time></trkpt><trkpt lat="40.91233680558034" lon="9.416433610492291"><ele>71.0</ele><time>2026-05-02T08:38:50Z</time></trkpt><trkpt lat="40.91228838654799" lon="9.416220894816801"><ele>71.0</ele><time>2026-05-02T08:38:51.001Z</time></trkpt><trkpt lat="40.91224164552919" lon="9.416012068289678"><ele>72.33333333333334</ele><time>2026-05-02T08:38:52.001Z</time></trkpt><trkpt lat="40.912196075995475" lon="9.415813413698666"><ele>73.66666666666667</ele><time>2026-05-02T08:38:53.001Z</time></trkpt><trkpt lat="40.91214564784812" lon="9.415588770180472"><ele>75.0</ele><time>2026-05-02T08:38:54.001Z</time></trkpt><trkpt lat="40.91209394368873" lon="9.4153579192967"><ele>75.66666666666667</ele><time>2026-05-02T08:38:55.001Z</time></trkpt><trkpt lat="40.91203560306477" lon="9.415116979163724"><ele>76.33333333333334</ele><time>2026-05-02T08:38:56.001Z</time></trkpt><trkpt lat="40.91197092686562" lon="9.414861379259628"><ele>77.0</ele><time>2026-05-02T08:38:57.001Z</time></trkpt><trkpt lat="40.91189169129253" lon="9.41457621896917"><ele>77.66666666666667</ele><time>2026-05-02T08:38:58.001Z</time></trkpt><trkpt lat="40.91185385721564" lon="9.414350422450195"><ele>78.33333333333333</ele><time>2026-05-02T08:38:59.001Z</time></trkpt><trkpt lat="40.911783552477566" lon="9.414054768280197"><ele>79.0</ele><time>2026-05-02T08:39:00.001Z</time></trkpt><trkpt lat="40.9117158829103" lon="9.41376582285244"><ele>80.0</ele><time>2026-05-02T08:39:01.001Z</time></trkpt><trkpt lat="40.91164685821392" lon="9.413474809517412"><ele>81.0</ele><time>2026-05-02T08:39:02.001Z</time></trkpt><trkpt lat="40.91157413968749" lon="9.41316913387227"><ele>81.5</ele><time>2026-05-02T08:39:03.001Z</time></trkpt><trkpt lat="40.91150458589952" lon="9.412864398226999"><ele>82.0</ele><time>2026-05-02T08:39:04.001Z</time></trkpt><trkpt lat="40.91143054660836" lon="9.412536679069799"><ele>82.0</ele><time>2026-05-02T08:39:05.001Z</time></trkpt><trkpt lat="40.91135492486846" lon="9.412218681791938"><ele>82.0</ele><time>2026-05-02T08:39:06.001Z</time></trkpt><trkpt lat="40.91128038403778" lon="9.411917530499721"><ele>82.5</ele><time>2026-05-02T08:39:07.001Z</time></trkpt><trkpt lat="40.911204656722916" lon="9.411620457409764"><ele>83.0</ele><time>2026-05-02T08:39:08.001Z</time></trkpt><trkpt lat="40.911132479589746" lon="9.411316730212452"><ele>83.5</ele><time>2026-05-02T08:39:09.001Z</time></trkpt><trkpt lat="40.91105967709957" lon="9.411007611374874"><ele>84.0</ele><time>2026-05-02T08:39:10.001Z</time></trkpt><trkpt lat="40.91098536179101" lon="9.41069416821576"><ele>84.5</ele><time>2026-05-02T08:39:11.001Z</time></trkpt><trkpt lat="40.91091371289419" lon="9.410354751050193"><ele>85.0</ele><time>2026-05-02T08:39:12.001Z</time></trkpt><trkpt lat="40.91084173775944" lon="9.409993631180475"><ele>86.5</ele><time>2026-05-02T08:39:13.001Z</time></trkpt><trkpt lat="40.91076470974505" lon="9.409651037623341"><ele>88.0</ele><time>2026-05-02T08:39:14.001Z</time></trkpt><trkpt lat="40.91069721131529" lon="9.40932077136612"><ele>88.0</ele><time>2026-05-02T08:39:15.001Z</time></trkpt><trkpt lat="40.91061942208705" lon="9.409010727644292"><ele>88.0</ele><time>2026-05-02T08:39:16.001Z</time></trkpt><trkpt lat="40.91054674701351" lon="9.408709545564593"><ele>88.5</ele><time>2026-05-02T08:39:17.001Z</time></trkpt><trkpt lat="40.91047791985562" lon="9.408412698658609"><ele>89.0</ele><time>2026-05-02T08:39:18.001Z</time></trkpt><trkpt lat="40.91040739008973" lon="9.40811668394721"><ele>89.66666666666667</ele><time>2026-05-02T08:39:19.001Z</time></trkpt><trkpt lat="40.91033981235337" lon="9.407841251340287"><ele>90.33333333333333</ele><time>2026-05-02T08:39:20.001Z</time></trkpt><trkpt lat="40.9102821098092" lon="9.40757591482775"><ele>91.0</ele><time>2026-05-02T08:39:21.001Z</time></trkpt><trkpt lat="40.91023256322315" lon="9.407356298493196"><ele>91.33333333333333</ele><time>2026-05-02T08:39:22.001Z</time></trkpt><trkpt lat="40.91018307214504" lon="9.407122213232729"><ele>91.66666666666667</ele><time>2026-05-02T08:39:23.001Z</time></trkpt><trkpt lat="40.910127162615716" lon="9.406889022701964"><ele>92.0</ele><time>2026-05-02T08:39:24.001Z</time></trkpt><trkpt lat="40.910067894427904" lon="9.406651648147847"><ele>92.0</ele><time>2026-05-02T08:39:25.001Z</time></trkpt><trkpt lat="40.910007418791935" lon="9.406413313592944"><ele>92.0</ele><time>2026-05-02T08:39:26.001Z</time></trkpt><trkpt lat="40.90994917647904" lon="9.406178401032573"><ele>92.0</ele><time>2026-05-02T08:39:27.001Z</time></trkpt><trkpt lat="40.90989177040247" lon="9.405936542109753"><ele>93.0</ele><time>2026-05-02T08:39:28.001Z</time></trkpt><trkpt lat="40.909837178835105" lon="9.405697499310616"><ele>94.0</ele><time>2026-05-02T08:39:29.001Z</time></trkpt><trkpt lat="40.909780645141524" lon="9.405453035745248"><ele>95.0</ele><time>2026-05-02T08:39:30.001Z</time></trkpt><trkpt lat="40.90972560088674" lon="9.405212894871402"><ele>96.33333333333334</ele><time>2026-05-02T08:39:31.001Z</time></trkpt><trkpt lat="40.909667677093644" lon="9.404984590086402"><ele>97.66666666666667</ele><time>2026-05-02T08:39:32.001Z</time></trkpt><trkpt lat="40.90961716478241" lon="9.404755731728272"><ele>99.0</ele><time>2026-05-02T08:39:33.001Z</time></trkpt><trkpt lat="40.90956506414926" lon="9.40453791927729"><ele>99.33333333333334</ele><time>2026-05-02T08:39:34.001Z</time></trkpt><trkpt lat="40.90951073427098" lon="9.404321211255406"><ele>99.66666666666667</ele><time>2026-05-02T08:39:35.001Z</time></trkpt><trkpt lat="40.90945456998915" lon="9.404097605021306"><ele>100.0</ele><time>2026-05-02T08:39:36.001Z</time></trkpt><trkpt lat="40.90937755515346" lon="9.403927527753579"><ele>101.66666666666667</ele><time>2026-05-02T08:39:37.001Z</time></trkpt><trkpt lat="40.909297831792045" lon="9.403700745224015"><ele>103.33333333333334</ele><time>2026-05-02T08:39:38.001Z</time></trkpt><trkpt lat="40.90922174241086" lon="9.403464642476505"><ele>105.0</ele><time>2026-05-02T08:39:39.001Z</time></trkpt><trkpt lat="40.909130852037386" lon="9.403277938226102"><ele>105.0</ele><time>2026-05-02T08:39:40.001Z</time></trkpt><trkpt lat="40.909023209322775" lon="9.403119701724256"><ele>105.0</ele><time>2026-05-02T08:39:41.001Z</time></trkpt><trkpt lat="40.908903106331046" lon="9.402961470996074"><ele>105.0</ele><time>2026-05-02T08:39:42.001Z</time></trkpt><trkpt lat="40.908762525884015" lon="9.402839148297883"><ele>106.66666666666666</ele><time>2026-05-02T08:39:43.001Z</time></trkpt><trkpt lat="40.90862484081959" lon="9.402704831831352"><ele>108.33333333333333</ele><time>2026-05-02T08:39:44.001Z</time></trkpt><trkpt lat="40.9085178221011" lon="9.402546087352276"><ele>110.0</ele><time>2026-05-02T08:39:45.001Z</time></trkpt><trkpt lat="40.908414952033226" lon="9.402379195517021"><ele>111.0</ele><time>2026-05-02T08:39:46.001Z</time></trkpt><trkpt lat="40.90829835767693" lon="9.402220361334422"><ele>112.0</ele><time>2026-05-02T08:39:47.001Z</time></trkpt><trkpt lat="40.90816172246262" lon="9.402087179141983"><ele>113.0</ele><time>2026-05-02T08:39:48.001Z</time></trkpt><trkpt lat="40.90802526152494" lon="9.40192913228198"><ele>113.0</ele><time>2026-05-02T08:39:49.001Z</time></trkpt><trkpt lat="40.90791111010825" lon="9.401746850827259"><ele>113.0</ele><time>2026-05-02T08:39:50.001Z</time></trkpt><trkpt lat="40.90783210449334" lon="9.401536182976056"><ele>113.0</ele><time>2026-05-02T08:39:51.001Z</time></trkpt><trkpt lat="40.90776782006369" lon="9.401305532908907"><ele>113.33333333333333</ele><time>2026-05-02T08:39:52.001Z</time></trkpt><trkpt lat="40.907710173734436" lon="9.401064197617925"><ele>113.66666666666666</ele><time>2026-05-02T08:39:53.001Z</time></trkpt><trkpt lat="40.90761986158188" lon="9.400837602973263"><ele>114.0</ele><time>2026-05-02T08:39:54.001Z</time></trkpt><trkpt lat="40.90750248327615" lon="9.400615310364515"><ele>116.66666666666666</ele><time>2026-05-02T08:39:55.001Z</time></trkpt><trkpt lat="40.90740007665468" lon="9.400417722961915"><ele>119.33333333333333</ele><time>2026-05-02T08:39:56.001Z</time></trkpt><trkpt lat="40.907323826440404" lon="9.400214981600396"><ele>122.0</ele><time>2026-05-02T08:39:57.001Z</time></trkpt><trkpt lat="40.90727942378837" lon="9.399983957967285"><ele>122.0</ele><time>2026-05-02T08:39:58.001Z</time></trkpt><trkpt lat="40.90724377674349" lon="9.399768695582875"><ele>122.0</ele><time>2026-05-02T08:39:59.001Z</time></trkpt><trkpt lat="40.90718985583624" lon="9.399583649113278"><ele>122.0</ele><time>2026-05-02T08:40:00.001Z</time></trkpt><trkpt lat="40.907098587851735" lon="9.3994291652339"><ele>121.66666666666666</ele><time>2026-05-02T08:40:01.001Z</time></trkpt><trkpt lat="40.906970726488005" lon="9.399313773678674"><ele>121.33333333333334</ele><time>2026-05-02T08:40:02.001Z</time></trkpt><trkpt lat="40.90682680374" lon="9.399192800100826"><ele>121.0</ele><time>2026-05-02T08:40:03.001Z</time></trkpt><trkpt lat="40.90670245974212" lon="9.399055055177135"><ele>121.0</ele><time>2026-05-02T08:40:04.001Z</time></trkpt><trkpt lat="40.906609263519435" lon="9.398870079891486"><ele>121.0</ele><time>2026-05-02T08:40:05.001Z</time></trkpt><trkpt lat="40.906511075611895" lon="9.39869624279618"><ele>121.0</ele><time>2026-05-02T08:40:06.001Z</time></trkpt><trkpt lat="40.90641029437837" lon="9.398556145857077"><ele>123.75</ele><time>2026-05-02T08:40:07.001Z</time></trkpt><trkpt lat="40.90633123164308" lon="9.398410559362203"><ele>126.5</ele><time>2026-05-02T08:40:08.001Z</time></trkpt><trkpt lat="40.90628523122788" lon="9.398236536268186"><ele>129.25</ele><time>2026-05-02T08:40:09.001Z</time></trkpt><trkpt lat="40.90624834361007" lon="9.398033333980123"><ele>132.0</ele><time>2026-05-02T08:40:10.001Z</time></trkpt><trkpt lat="40.906224070860844" lon="9.397828073958294"><ele>133.66666666666666</ele><time>2026-05-02T08:40:11.001Z</time></trkpt><trkpt lat="40.90620886567409" lon="9.397604852143592"><ele>135.33333333333331</ele><time>2026-05-02T08:40:12.001Z</time></trkpt><trkpt lat="40.906214735756045" lon="9.397387998361285"><ele>137.0</ele><time>2026-05-02T08:40:13.001Z</time></trkpt><trkpt lat="40.90623552206876" lon="9.397165891483677"><ele>137.66666666666666</ele><time>2026-05-02T08:40:14.001Z</time></trkpt><trkpt lat="40.90626433243298" lon="9.396934503186028"><ele>138.33333333333334</ele><time>2026-05-02T08:40:15.001Z</time></trkpt><trkpt lat="40.9063061989136" lon="9.396717141689303"><ele>139.0</ele><time>2026-05-02T08:40:16.001Z</time></trkpt><trkpt lat="40.9063592459098" lon="9.396539500815718"><ele>139.0</ele><time>2026-05-02T08:40:17.001Z</time></trkpt><trkpt lat="40.906401239610496" lon="9.396372001815797"><ele>139.0</ele><time>2026-05-02T08:40:18Z</time></trkpt><trkpt lat="40.90640632570632" lon="9.396186642361158"><ele>139.0</ele><time>2026-05-02T08:40:19Z</time></trkpt><trkpt lat="40.90636554458413" lon="9.395998513528912"><ele>139.0</ele><time>2026-05-02T08:40:20Z</time></trkpt><trkpt lat="40.90630676271894" lon="9.395813396456859"><ele>140.25</ele><time>2026-05-02T08:40:21Z</time></trkpt><trkpt lat="40.90624748365081" lon="9.39561791228414"><ele>141.5</ele><time>2026-05-02T08:40:22Z</time></trkpt><trkpt lat="40.90617601468809" lon="9.395463650687672"><ele>142.75</ele><time>2026-05-02T08:40:23Z</time></trkpt><trkpt lat="40.906088825811224" lon="9.395341905941939"><ele>144.0</ele><time>2026-05-02T08:40:24Z</time></trkpt><trkpt lat="40.905979151341754" lon="9.395257543195376"><ele>143.0</ele><time>2026-05-02T08:40:25Z</time></trkpt><trkpt lat="40.90585570904427" lon="9.395205791864079"><ele>142.0</ele><time>2026-05-02T08:40:26Z</time></trkpt><trkpt lat="40.90574508433338" lon="9.39511833703334"><ele>141.0</ele><time>2026-05-02T08:40:27Z</time></trkpt><trkpt lat="40.90564222654636" lon="9.395014965261007"><ele>140.0</ele><time>2026-05-02T08:40:28Z</time></trkpt><trkpt lat="40.90555565793073" lon="9.39485419365299"><ele>141.66666666666666</ele><time>2026-05-02T08:40:29Z</time></trkpt><trkpt lat="40.9054879195167" lon="9.394654071231534"><ele>143.33333333333334</ele><time>2026-05-02T08:40:30Z</time></trkpt><trkpt lat="40.90543636387408" lon="9.39444338154373"><ele>145.0</ele><time>2026-05-02T08:40:31Z</time></trkpt><trkpt lat="40.90538591984265" lon="9.394229704119375"><ele>145.0</ele><time>2026-05-02T08:40:32Z</time></trkpt><trkpt lat="40.90533130714527" lon="9.394036215552694"><ele>145.0</ele><time>2026-05-02T08:40:33Z</time></trkpt><trkpt lat="40.90525512448347" lon="9.393878473337969"><ele>145.0</ele><time>2026-05-02T08:40:34Z</time></trkpt><trkpt lat="40.90515084777432" lon="9.393747217487764"><ele>145.0</ele><time>2026-05-02T08:40:35Z</time></trkpt><trkpt lat="40.9050253049812" lon="9.393668311426095"><ele>146.0</ele><time>2026-05-02T08:40:36Z</time></trkpt><trkpt lat="40.90487441405324" lon="9.393638852019967"><ele>147.0</ele><time>2026-05-02T08:40:37Z</time></trkpt><trkpt lat="40.904714166005824" lon="9.393651958430425"><ele>148.0</ele><time>2026-05-02T08:40:38Z</time></trkpt><trkpt lat="40.90454952306643" lon="9.393686306783724"><ele>148.0</ele><time>2026-05-02T08:40:39Z</time></trkpt><trkpt lat="40.90436749912537" lon="9.393724530009655"><ele>148.0</ele><time>2026-05-02T08:40:40Z</time></trkpt><trkpt lat="40.90418598657248" lon="9.393760196107388"><ele>148.0</ele><time>2026-05-02T08:40:41Z</time></trkpt><trkpt lat="40.90401260745893" lon="9.393787354700121"><ele>148.0</ele><time>2026-05-02T08:40:42Z</time></trkpt><trkpt lat="40.90385623917298" lon="9.393788441438279"><ele>148.0</ele><time>2026-05-02T08:40:43Z</time></trkpt><trkpt lat="40.9036971344105" lon="9.39376295837839"><ele>148.0</ele><time>2026-05-02T08:40:44Z</time></trkpt><trkpt lat="40.903559963566394" lon="9.393682774051271"><ele>148.0</ele><time>2026-05-02T08:40:45Z</time></trkpt><trkpt lat="40.903440262124" lon="9.393569741791593"><ele>148.0</ele><time>2026-05-02T08:40:46Z</time></trkpt><trkpt lat="40.90335016212745" lon="9.393414265860317"><ele>148.0</ele><time>2026-05-02T08:40:47Z</time></trkpt><trkpt lat="40.903288223164175" lon="9.393232938765436"><ele>148.0</ele><time>2026-05-02T08:40:48Z</time></trkpt><trkpt lat="40.903266811490916" lon="9.393031913414603"><ele>150.33333333333334</ele><time>2026-05-02T08:40:49Z</time></trkpt><trkpt lat="40.90327700164628" lon="9.392814404853043"><ele>152.66666666666666</ele><time>2026-05-02T08:40:50Z</time></trkpt><trkpt lat="40.9032818040216" lon="9.392591112031814"><ele>155.0</ele><time>2026-05-02T08:40:51Z</time></trkpt><trkpt lat="40.90326302263852" lon="9.392397034623894"><ele>155.0</ele><time>2026-05-02T08:40:52Z</time></trkpt><trkpt lat="40.90320503632608" lon="9.392214525182467"><ele>155.0</ele><time>2026-05-02T08:40:53Z</time></trkpt><trkpt lat="40.90310967802604" lon="9.392038472074496"><ele>155.0</ele><time>2026-05-02T08:40:54Z</time></trkpt><trkpt lat="40.90305357134077" lon="9.391857322784439"><ele>155.5</ele><time>2026-05-02T08:40:55Z</time></trkpt><trkpt lat="40.90304366806123" lon="9.391686801787166"><ele>156.0</ele><time>2026-05-02T08:40:56Z</time></trkpt><trkpt lat="40.90307624607086" lon="9.391497086125902"><ele>156.5</ele><time>2026-05-02T08:40:57Z</time></trkpt><trkpt lat="40.90312828007152" lon="9.391303490141786"><ele>157.0</ele><time>2026-05-02T08:40:58Z</time></trkpt><trkpt lat="40.903216668448856" lon="9.391104865001422"><ele>159.33333333333334</ele><time>2026-05-02T08:40:59Z</time></trkpt><trkpt lat="40.90332070285929" lon="9.390917112217783"><ele>161.66666666666666</ele><time>2026-05-02T08:41:00Z</time></trkpt><trkpt lat="40.9034485122299" lon="9.390718386419989"><ele>164.0</ele><time>2026-05-02T08:41:01Z</time></trkpt><trkpt lat="40.90357465966377" lon="9.390522512110755"><ele>165.66666666666666</ele><time>2026-05-02T08:41:02Z</time></trkpt><trkpt lat="40.90369108645219" lon="9.390314562005882"><ele>167.33333333333334</ele><time>2026-05-02T08:41:03Z</time></trkpt><trkpt lat="40.903801498551026" lon="9.390122049505678"><ele>169.0</ele><time>2026-05-02T08:41:04.001Z</time></trkpt><trkpt lat="40.90388824247779" lon="9.389921936235089"><ele>169.0</ele><time>2026-05-02T08:41:05.001Z</time></trkpt><trkpt lat="40.90395950484708" lon="9.389703687657539"><ele>169.0</ele><time>2026-05-02T08:41:06.001Z</time></trkpt><trkpt lat="40.90400713844332" lon="9.389486346414301"><ele>169.0</ele><time>2026-05-02T08:41:07.001Z</time></trkpt><trkpt lat="40.90402965660726" lon="9.38927370796982"><ele>171.0</ele><time>2026-05-02T08:41:08.001Z</time></trkpt><trkpt lat="40.904021388437734" lon="9.389052671994934"><ele>173.0</ele><time>2026-05-02T08:41:09.001Z</time></trkpt><trkpt lat="40.90398462601683" lon="9.388847208368938"><ele>175.0</ele><time>2026-05-02T08:41:10.001Z</time></trkpt><trkpt lat="40.903922534739436" lon="9.388647039545951"><ele>176.33333333333334</ele><time>2026-05-02T08:41:11.001Z</time></trkpt><trkpt lat="40.903837230503235" lon="9.388476492876283"><ele>177.66666666666666</ele><time>2026-05-02T08:41:12.001Z</time></trkpt><trkpt lat="40.90373097354052" lon="9.388323404337491"><ele>179.0</ele><time>2026-05-02T08:41:13.001Z</time></trkpt><trkpt lat="40.90361443746562" lon="9.38819658240521"><ele>179.0</ele><time>2026-05-02T08:41:14.001Z</time></trkpt><trkpt lat="40.90348946736175" lon="9.388089409341802"><ele>179.0</ele><time>2026-05-02T08:41:15.001Z</time></trkpt><trkpt lat="40.90335626668472" lon="9.387987960907376"><ele>179.0</ele><time>2026-05-02T08:41:16.001Z</time></trkpt><trkpt lat="40.903211760035404" lon="9.387878519095555"><ele>180.0</ele><time>2026-05-02T08:41:17.001Z</time></trkpt><trkpt lat="40.90307198199793" lon="9.387771814289938"><ele>181.0</ele><time>2026-05-02T08:41:18.001Z</time></trkpt><trkpt lat="40.90291915221344" lon="9.387659213860523"><ele>182.0</ele><time>2026-05-02T08:41:19.001Z</time></trkpt><trkpt lat="40.90278421685915" lon="9.387569580546407"><ele>182.0</ele><time>2026-05-02T08:41:20.001Z</time></trkpt><trkpt lat="40.9026035135072" lon="9.387465772064314"><ele>182.0</ele><time>2026-05-02T08:41:21.001Z</time></trkpt><trkpt lat="40.90243242511517" lon="9.387380460922708"><ele>182.0</ele><time>2026-05-02T08:41:22.001Z</time></trkpt><trkpt lat="40.90224658822525" lon="9.387326310081205"><ele>183.0</ele><time>2026-05-02T08:41:23.001Z</time></trkpt><trkpt lat="40.90205600284743" lon="9.387293076778697"><ele>184.0</ele><time>2026-05-02T08:41:24.001Z</time></trkpt><trkpt lat="40.90185878113636" lon="9.387251711738932"><ele>185.0</ele><time>2026-05-02T08:41:25.001Z</time></trkpt><trkpt lat="40.90165666099463" lon="9.38720679705705"><ele>187.33333333333331</ele><time>2026-05-02T08:41:26.001Z</time></trkpt><trkpt lat="40.9014447774994" lon="9.387162749047715"><ele>189.66666666666666</ele><time>2026-05-02T08:41:27.001Z</time></trkpt><trkpt lat="40.90123080687414" lon="9.387115178679327"><ele>192.0</ele><time>2026-05-02T08:41:28.001Z</time></trkpt><trkpt lat="40.901009589055654" lon="9.387068051042728"><ele>192.66666666666669</ele><time>2026-05-02T08:41:29.001Z</time></trkpt><trkpt lat="40.90079784982889" lon="9.38700733305023"><ele>193.33333333333334</ele><time>2026-05-02T08:41:30.001Z</time></trkpt><trkpt lat="40.900591087064406" lon="9.386968127136313"><ele>194.0</ele><time>2026-05-02T08:41:31.001Z</time></trkpt><trkpt lat="40.90039411186029" lon="9.386932007227292"><ele>194.0</ele><time>2026-05-02T08:41:32.001Z</time></trkpt><trkpt lat="40.90020327362164" lon="9.38688674773317"><ele>194.0</ele><time>2026-05-02T08:41:33.001Z</time></trkpt><trkpt lat="40.900005101353635" lon="9.386840194379188"><ele>194.0</ele><time>2026-05-02T08:41:34.001Z</time></trkpt><trkpt lat="40.89979837006191" lon="9.386813579112339"><ele>193.33333333333334</ele><time>2026-05-02T08:41:35.001Z</time></trkpt><trkpt lat="40.899599591416816" lon="9.38676659518356"><ele>192.66666666666669</ele><time>2026-05-02T08:41:36.001Z</time></trkpt><trkpt lat="40.89940811035823" lon="9.386723306479002"><ele>192.0</ele><time>2026-05-02T08:41:37.001Z</time></trkpt><trkpt lat="40.89921725092598" lon="9.38668373534675"><ele>192.0</ele><time>2026-05-02T08:41:38.001Z</time></trkpt><trkpt lat="40.89902235515873" lon="9.386643364511174"><ele>192.0</ele><time>2026-05-02T08:41:39.001Z</time></trkpt><trkpt lat="40.89883159597133" lon="9.386602811852379"><ele>192.0</ele><time>2026-05-02T08:41:40.001Z</time></trkpt><trkpt lat="40.89864249130511" lon="9.386563386687854"><ele>192.0</ele><time>2026-05-02T08:41:41.001Z</time></trkpt><trkpt lat="40.89845446575285" lon="9.386527793698466"><ele>192.0</ele><time>2026-05-02T08:41:42.001Z</time></trkpt><trkpt lat="40.89827022789588" lon="9.386489380353018"><ele>192.0</ele><time>2026-05-02T08:41:43.001Z</time></trkpt><trkpt lat="40.898084332908496" lon="9.386438229451436"><ele>192.0</ele><time>2026-05-02T08:41:44.001Z</time></trkpt><trkpt lat="40.897894944855054" lon="9.386367684096438"><ele>192.0</ele><time>2026-05-02T08:41:45.001Z</time></trkpt><trkpt lat="40.897708917095095" lon="9.386277426647116"><ele>192.0</ele><time>2026-05-02T08:41:46.001Z</time></trkpt><trkpt lat="40.89752443005235" lon="9.386176848348818"><ele>191.33333333333334</ele><time>2026-05-02T08:41:47.001Z</time></trkpt><trkpt lat="40.89734417774699" lon="9.386080624224368"><ele>190.66666666666669</ele><time>2026-05-02T08:41:48.001Z</time></trkpt><trkpt lat="40.89716878280227" lon="9.385989717754772"><ele>190.0</ele><time>2026-05-02T08:41:49.001Z</time></trkpt><trkpt lat="40.89699662669635" lon="9.385897688997991"><ele>190.0</ele><time>2026-05-02T08:41:50.001Z</time></trkpt><trkpt lat="40.89682908338508" lon="9.385809233467334"><ele>190.0</ele><time>2026-05-02T08:41:51.001Z</time></trkpt><trkpt lat="40.896664219367246" lon="9.385722731668299"><ele>190.0</ele><time>2026-05-02T08:41:52.001Z</time></trkpt><trkpt lat="40.89650572554282" lon="9.385644762416183"><ele>190.0</ele><time>2026-05-02T08:41:53.001Z</time></trkpt><trkpt lat="40.89635720483421" lon="9.385563523597353"><ele>190.0</ele><time>2026-05-02T08:41:54.001Z</time></trkpt><trkpt lat="40.89621241126555" lon="9.38546530617082"><ele>190.0</ele><time>2026-05-02T08:41:55.001Z</time></trkpt><trkpt lat="40.89607093805872" lon="9.385333443168912"><ele>189.33333333333334</ele><time>2026-05-02T08:41:56.001Z</time></trkpt><trkpt lat="40.89593754454694" lon="9.385173798432447"><ele>188.66666666666666</ele><time>2026-05-02T08:41:57.001Z</time></trkpt><trkpt lat="40.895801971615036" lon="9.385001721567267"><ele>188.0</ele><time>2026-05-02T08:41:58.001Z</time></trkpt><trkpt lat="40.895660477483375" lon="9.384819244619775"><ele>188.33333333333331</ele><time>2026-05-02T08:41:59.001Z</time></trkpt><trkpt lat="40.89551663102249" lon="9.384631370307629"><ele>188.66666666666666</ele><time>2026-05-02T08:42:00.001Z</time></trkpt><trkpt lat="40.89537049759914" lon="9.384437261630987"><ele>189.0</ele><time>2026-05-02T08:42:01.001Z</time></trkpt><trkpt lat="40.895225766576004" lon="9.384243348678943"><ele>190.33333333333331</ele><time>2026-05-02T08:42:02.001Z</time></trkpt><trkpt lat="40.89507922925908" lon="9.384049777697818"><ele>191.66666666666666</ele><time>2026-05-02T08:42:03.001Z</time></trkpt><trkpt lat="40.894939479090425" lon="9.383856951225848"><ele>193.0</ele><time>2026-05-02T08:42:04.001Z</time></trkpt><trkpt lat="40.89480148009819" lon="9.38367338477166"><ele>194.33333333333331</ele><time>2026-05-02T08:42:05.001Z</time></trkpt><trkpt lat="40.89466495035195" lon="9.38347900766894"><ele>195.66666666666669</ele><time>2026-05-02T08:42:06.001Z</time></trkpt><trkpt lat="40.89452039632065" lon="9.383279901388848"><ele>197.0</ele><time>2026-05-02T08:42:07.001Z</time></trkpt><trkpt lat="40.89439322396353" lon="9.383103493431635"><ele>197.0</ele><time>2026-05-02T08:42:08.001Z</time></trkpt><trkpt lat="40.89426766152872" lon="9.382944742342016"><ele>197.0</ele><time>2026-05-02T08:42:09.001Z</time></trkpt><trkpt lat="40.894152579848594" lon="9.382768247281776"><ele>197.0</ele><time>2026-05-02T08:42:10.001Z</time></trkpt><trkpt lat="40.894072222346125" lon="9.382580531450914"><ele>198.33333333333334</ele><time>2026-05-02T08:42:11.001Z</time></trkpt><trkpt lat="40.89402116234965" lon="9.382375932174167"><ele>199.66666666666669</ele><time>2026-05-02T08:42:12.001Z</time></trkpt><trkpt lat="40.893983875880814" lon="9.382162811013945"><ele>201.0</ele><time>2026-05-02T08:42:13.001Z</time></trkpt><trkpt lat="40.89396637068494" lon="9.381942589246655"><ele>202.33333333333331</ele><time>2026-05-02T08:42:14.001Z</time></trkpt><trkpt lat="40.89395015882207" lon="9.381717922697074"><ele>203.66666666666666</ele><time>2026-05-02T08:42:15.001Z</time></trkpt><trkpt lat="40.8939325837841" lon="9.381490437318986"><ele>205.0</ele><time>2026-05-02T08:42:16.001Z</time></trkpt><trkpt lat="40.89390412322715" lon="9.381271298422059"><ele>206.33333333333331</ele><time>2026-05-02T08:42:17.001Z</time></trkpt><trkpt lat="40.89385730185696" lon="9.381080511998407"><ele>207.66666666666669</ele><time>2026-05-02T08:42:18.001Z</time></trkpt><trkpt lat="40.89378977345413" lon="9.38090284808263"><ele>209.0</ele><time>2026-05-02T08:42:19.001Z</time></trkpt><trkpt lat="40.89369369344579" lon="9.380734112009021"><ele>209.0</ele><time>2026-05-02T08:42:20.001Z</time></trkpt><trkpt lat="40.893576318888286" lon="9.380570543608153"><ele>209.0</ele><time>2026-05-02T08:42:21.001Z</time></trkpt><trkpt lat="40.89344669710853" lon="9.380405521240565"><ele>209.0</ele><time>2026-05-02T08:42:22.001Z</time></trkpt><trkpt lat="40.89331887708195" lon="9.380234976807596"><ele>209.0</ele><time>2026-05-02T08:42:23.001Z</time></trkpt><trkpt lat="40.893188199667996" lon="9.380063880116756"><ele>209.0</ele><time>2026-05-02T08:42:24.001Z</time></trkpt><trkpt lat="40.893048038082306" lon="9.379885289042686"><ele>209.0</ele><time>2026-05-02T08:42:25.001Z</time></trkpt><trkpt lat="40.89292558289387" lon="9.379713716403982"><ele>207.66666666666669</ele><time>2026-05-02T08:42:26.001Z</time></trkpt><trkpt lat="40.8928240200035" lon="9.37954231979315"><ele>206.33333333333331</ele><time>2026-05-02T08:42:27.001Z</time></trkpt><trkpt lat="40.892750355195595" lon="9.379375047063322"><ele>205.0</ele><time>2026-05-02T08:42:28.001Z</time></trkpt><trkpt lat="40.89270850431955" lon="9.37920006622383"><ele>205.0</ele><time>2026-05-02T08:42:29.001Z</time></trkpt><trkpt lat="40.892701214063685" lon="9.379010704547813"><ele>205.0</ele><time>2026-05-02T08:42:30.001Z</time></trkpt><trkpt lat="40.89270123929745" lon="9.378826481841672"><ele>205.0</ele><time>2026-05-02T08:42:31.001Z</time></trkpt><trkpt lat="40.89266847824161" lon="9.378643652895045"><ele>205.0</ele><time>2026-05-02T08:42:32.001Z</time></trkpt><trkpt lat="40.892609958725444" lon="9.37845332943521"><ele>208.0</ele><time>2026-05-02T08:42:33.001Z</time></trkpt><trkpt lat="40.89254213976433" lon="9.378257132102263"><ele>211.0</ele><time>2026-05-02T08:42:34.001Z</time></trkpt><trkpt lat="40.89247007571663" lon="9.378083994191176"><ele>214.0</ele><time>2026-05-02T08:42:35.001Z</time></trkpt><trkpt lat="40.89238927430268" lon="9.377945184134683"><ele>217.0</ele><time>2026-05-02T08:42:36Z</time></trkpt><trkpt lat="40.89228895169737" lon="9.377850251724588"><ele>217.0</ele><time>2026-05-02T08:42:37Z</time></trkpt><trkpt lat="40.892186146011916" lon="9.377826003485564"><ele>217.0</ele><time>2026-05-02T08:42:38Z</time></trkpt><trkpt lat="40.892072067502156" lon="9.37784877517516"><ele>217.0</ele><time>2026-05-02T08:42:39Z</time></trkpt><trkpt lat="40.89196638684807" lon="9.377914064513972"><ele>217.0</ele><time>2026-05-02T08:42:40Z</time></trkpt><trkpt lat="40.8918830125162" lon="9.378029814232098"><ele>217.0</ele><time>2026-05-02T08:42:41Z</time></trkpt><trkpt lat="40.89181555631165" lon="9.37817610948751"><ele>217.0</ele><time>2026-05-02T08:42:42Z</time></trkpt><trkpt lat="40.89176126920573" lon="9.37830751763164"><ele>217.0</ele><time>2026-05-02T08:42:43Z</time></trkpt><trkpt lat="40.891685089579795" lon="9.37840924240057"><ele>217.0</ele><time>2026-05-02T08:42:44Z</time></trkpt><trkpt lat="40.891597706663475" lon="9.378448817846452"><ele>217.0</ele><time>2026-05-02T08:42:45Z</time></trkpt><trkpt lat="40.89150878965035" lon="9.378437410478828"><ele>218.25</ele><time>2026-05-02T08:42:46Z</time></trkpt><trkpt lat="40.89142791925304" lon="9.378368850530116"><ele>219.5</ele><time>2026-05-02T08:42:47Z</time></trkpt><trkpt lat="40.8913604978267" lon="9.378254710086253"><ele>220.75</ele><time>2026-05-02T08:42:48Z</time></trkpt><trkpt lat="40.89130843709681" lon="9.3780986819027"><ele>222.0</ele><time>2026-05-02T08:42:49Z</time></trkpt><trkpt lat="40.89126792922123" lon="9.377914610024874"><ele>222.0</ele><time>2026-05-02T08:42:50Z</time></trkpt><trkpt lat="40.89125230444315" lon="9.377706616555423"><ele>222.0</ele><time>2026-05-02T08:42:51Z</time></trkpt><trkpt lat="40.89123412607629" lon="9.377499783884623"><ele>222.0</ele><time>2026-05-02T08:42:52Z</time></trkpt><trkpt lat="40.89120860129229" lon="9.37728744120081"><ele>222.5</ele><time>2026-05-02T08:42:53Z</time></trkpt><trkpt lat="40.891169503227914" lon="9.377087967599744"><ele>223.0</ele><time>2026-05-02T08:42:54Z</time></trkpt><trkpt lat="40.891126145752864" lon="9.37692587608728"><ele>223.5</ele><time>2026-05-02T08:42:55Z</time></trkpt><trkpt lat="40.89106712849737" lon="9.37680202884447"><ele>224.0</ele><time>2026-05-02T08:42:56Z</time></trkpt><trkpt lat="40.890993495393616" lon="9.37672322073841"><ele>226.0</ele><time>2026-05-02T08:42:57Z</time></trkpt><trkpt lat="40.890906942311304" lon="9.376706955379534"><ele>227.99999999999997</ele><time>2026-05-02T08:42:58Z</time></trkpt><trkpt lat="40.89082162335058" lon="9.376747668739345"><ele>229.99999999999997</ele><time>2026-05-02T08:42:59Z</time></trkpt><trkpt lat="40.89076384574764" lon="9.376846880399127"><ele>232.0</ele><time>2026-05-02T08:43:00Z</time></trkpt><trkpt lat="40.89075182691365" lon="9.376976830257496"><ele>234.0</ele><time>2026-05-02T08:43:01Z</time></trkpt><trkpt lat="40.890777206443715" lon="9.377115202587078"><ele>234.0</ele><time>2026-05-02T08:43:02Z</time></trkpt><trkpt lat="40.89083120601112" lon="9.377276902779968"><ele>234.0</ele><time>2026-05-02T08:43:03Z</time></trkpt><trkpt lat="40.89086515834811" lon="9.377435738839102"><ele>234.0</ele><time>2026-05-02T08:43:04Z</time></trkpt><trkpt lat="40.89085518832548" lon="9.377581253527591"><ele>234.0</ele><time>2026-05-02T08:43:05Z</time></trkpt><trkpt lat="40.89080478383546" lon="9.37769857165056"><ele>234.0</ele><time>2026-05-02T08:43:06Z</time></trkpt><trkpt lat="40.89071895212409" lon="9.377809584752384"><ele>234.0</ele><time>2026-05-02T08:43:07Z</time></trkpt><trkpt lat="40.890606786479744" lon="9.377913242845946"><ele>234.0</ele><time>2026-05-02T08:43:08Z</time></trkpt><trkpt lat="40.890475434247065" lon="9.37801012475691"><ele>234.0</ele><time>2026-05-02T08:43:09Z</time></trkpt><trkpt lat="40.890334000381905" lon="9.3781024274705"><ele>234.33333333333331</ele><time>2026-05-02T08:43:10.001Z</time></trkpt><trkpt lat="40.89017480920977" lon="9.378177435807077"><ele>234.66666666666666</ele><time>2026-05-02T08:43:11.001Z</time></trkpt><trkpt lat="40.8900096117118" lon="9.378215317904676"><ele>235.0</ele><time>2026-05-02T08:43:12.001Z</time></trkpt><trkpt lat="40.88983962317873" lon="9.378227909136118"><ele>237.66666666666666</ele><time>2026-05-02T08:43:13.001Z</time></trkpt><trkpt lat="40.88967741039757" lon="9.378208453620138"><ele>240.33333333333331</ele><time>2026-05-02T08:43:14.001Z</time></trkpt><trkpt lat="40.88951564402022" lon="9.378154023573918"><ele>243.0</ele><time>2026-05-02T08:43:15.001Z</time></trkpt><trkpt lat="40.889346016881916" lon="9.37807042326433"><ele>245.33333333333331</ele><time>2026-05-02T08:43:16.001Z</time></trkpt><trkpt lat="40.88916365680765" lon="9.377970837073502"><ele>247.66666666666666</ele><time>2026-05-02T08:43:17.001Z</time></trkpt><trkpt lat="40.888971865884805" lon="9.377860109670204"><ele>250.0</ele><time>2026-05-02T08:43:18.001Z</time></trkpt><trkpt lat="40.8887743581849" lon="9.377741549375612"><ele>250.0</ele><time>2026-05-02T08:43:19.001Z</time></trkpt><trkpt lat="40.88856924683454" lon="9.377616971073762"><ele>250.0</ele><time>2026-05-02T08:43:20.001Z</time></trkpt><trkpt lat="40.88836305601328" lon="9.377477642486435"><ele>249.5</ele><time>2026-05-02T08:43:21.001Z</time></trkpt><trkpt lat="40.88814455507335" lon="9.377323020847069"><ele>249.0</ele><time>2026-05-02T08:43:22.001Z</time></trkpt><trkpt lat="40.88793345466392" lon="9.377169254866644"><ele>251.0</ele><time>2026-05-02T08:43:23.001Z</time></trkpt><trkpt lat="40.88773929807744" lon="9.377023939431224"><ele>253.0</ele><time>2026-05-02T08:43:24.001Z</time></trkpt><trkpt lat="40.88755728105317" lon="9.376881286391157"><ele>255.0</ele><time>2026-05-02T08:43:25.001Z</time></trkpt><trkpt lat="40.887375900094334" lon="9.376735353363756"><ele>255.0</ele><time>2026-05-02T08:43:26.001Z</time></trkpt><trkpt lat="40.88719412595651" lon="9.376581449833703"><ele>255.0</ele><time>2026-05-02T08:43:27.001Z</time></trkpt><trkpt lat="40.8870200437682" lon="9.37641269059918"><ele>255.0</ele><time>2026-05-02T08:43:28.001Z</time></trkpt><trkpt lat="40.88685271144703" lon="9.376226556288598"><ele>256.0</ele><time>2026-05-02T08:43:29.001Z</time></trkpt><trkpt lat="40.88668645139713" lon="9.37604085110397"><ele>257.0</ele><time>2026-05-02T08:43:30.001Z</time></trkpt><trkpt lat="40.88650804188226" lon="9.375867958922399"><ele>258.0</ele><time>2026-05-02T08:43:31.001Z</time></trkpt><trkpt lat="40.88631221332366" lon="9.375700081416188"><ele>258.0</ele><time>2026-05-02T08:43:32.001Z</time></trkpt><trkpt lat="40.886108972728" lon="9.375532698445241"><ele>258.0</ele><time>2026-05-02T08:43:33.001Z</time></trkpt><trkpt lat="40.88591584113962" lon="9.37535634722668"><ele>259.3333333333333</ele><time>2026-05-02T08:43:34.001Z</time></trkpt><trkpt lat="40.885742976580694" lon="9.37518314818767"><ele>260.66666666666663</ele><time>2026-05-02T08:43:35.001Z</time></trkpt><trkpt lat="40.88558187741698" lon="9.37502357737149"><ele>262.0</ele><time>2026-05-02T08:43:36.001Z</time></trkpt><trkpt lat="40.88541785178867" lon="9.374873565995866"><ele>262.0</ele><time>2026-05-02T08:43:37.001Z</time></trkpt><trkpt lat="40.88525428908598" lon="9.374744670927816"><ele>262.0</ele><time>2026-05-02T08:43:38.001Z</time></trkpt><trkpt lat="40.88507617307129" lon="9.374645470163639"><ele>262.0</ele><time>2026-05-02T08:43:39.001Z</time></trkpt><trkpt lat="40.88488990388339" lon="9.374571185063195"><ele>263.66666666666663</ele><time>2026-05-02T08:43:40.001Z</time></trkpt><trkpt lat="40.88470717607573" lon="9.374488071616542"><ele>265.3333333333333</ele><time>2026-05-02T08:43:41.001Z</time></trkpt><trkpt lat="40.88453806029291" lon="9.374391670611107"><ele>267.0</ele><time>2026-05-02T08:43:42.001Z</time></trkpt><trkpt lat="40.88437307437973" lon="9.37426835696524"><ele>266.6666666666667</ele><time>2026-05-02T08:43:43.001Z</time></trkpt><trkpt lat="40.88421937425019" lon="9.374120192619184"><ele>266.33333333333337</ele><time>2026-05-02T08:43:44.001Z</time></trkpt><trkpt lat="40.884071860575844" lon="9.373957617862537"><ele>266.0</ele><time>2026-05-02T08:43:45.001Z</time></trkpt><trkpt lat="40.88393264496774" lon="9.373782292400367"><ele>265.0</ele><time>2026-05-02T08:43:46.001Z</time></trkpt><trkpt lat="40.883795791887565" lon="9.373596159028843"><ele>264.0</ele><time>2026-05-02T08:43:47.001Z</time></trkpt><trkpt lat="40.8836552710624" lon="9.373406069414926"><ele>263.0</ele><time>2026-05-02T08:43:48.001Z</time></trkpt><trkpt lat="40.88351022565938" lon="9.37321825190923"><ele>265.0</ele><time>2026-05-02T08:43:49.001Z</time></trkpt><trkpt lat="40.88335200725835" lon="9.373032198719038"><ele>267.0</ele><time>2026-05-02T08:43:50.001Z</time></trkpt><trkpt lat="40.88318496112629" lon="9.372862792035093"><ele>269.0</ele><time>2026-05-02T08:43:51.001Z</time></trkpt><trkpt lat="40.88299956740115" lon="9.372700979204609"><ele>269.0</ele><time>2026-05-02T08:43:52.001Z</time></trkpt><trkpt lat="40.88280171664881" lon="9.372545726482086"><ele>269.0</ele><time>2026-05-02T08:43:53.001Z</time></trkpt><trkpt lat="40.88260354835616" lon="9.372386455065147"><ele>270.33333333333337</ele><time>2026-05-02T08:43:54.001Z</time></trkpt><trkpt lat="40.88241566124434" lon="9.372232196713165"><ele>271.6666666666667</ele><time>2026-05-02T08:43:55.001Z</time></trkpt><trkpt lat="40.882238975562586" lon="9.372082666307369"><ele>273.0</ele><time>2026-05-02T08:43:56.001Z</time></trkpt><trkpt lat="40.88205401461124" lon="9.371942005281714"><ele>272.3333333333333</ele><time>2026-05-02T08:43:57.001Z</time></trkpt><trkpt lat="40.88188847747728" lon="9.37180736730462"><ele>271.66666666666663</ele><time>2026-05-02T08:43:58.001Z</time></trkpt><trkpt lat="40.881732708243234" lon="9.37168543813711"><ele>271.0</ele><time>2026-05-02T08:43:59.001Z</time></trkpt><trkpt lat="40.88159893368719" lon="9.37158272624941"><ele>271.0</ele><time>2026-05-02T08:44:00.001Z</time></trkpt><trkpt lat="40.88147090811186" lon="9.371514141951272"><ele>271.0</ele><time>2026-05-02T08:44:01.001Z</time></trkpt><trkpt lat="40.88133777279616" lon="9.371492293976118"><ele>271.0</ele><time>2026-05-02T08:44:02.001Z</time></trkpt><trkpt lat="40.88120111744393" lon="9.371518543263546"><ele>271.0</ele><time>2026-05-02T08:44:03.001Z</time></trkpt><trkpt lat="40.881056457546094" lon="9.371593385853648"><ele>271.66666666666663</ele><time>2026-05-02T08:44:04.001Z</time></trkpt><trkpt lat="40.8809065657903" lon="9.37168304293412"><ele>272.3333333333333</ele><time>2026-05-02T08:44:05.001Z</time></trkpt><trkpt lat="40.880750524189835" lon="9.37173599436467"><ele>273.0</ele><time>2026-05-02T08:44:06.001Z</time></trkpt><trkpt lat="40.88059477264725" lon="9.371740587862845"><ele>273.0</ele><time>2026-05-02T08:44:07.001Z</time></trkpt><trkpt lat="40.88043323183737" lon="9.371701294340712"><ele>273.0</ele><time>2026-05-02T08:44:08.001Z</time></trkpt><trkpt lat="40.88027183724115" lon="9.371621777807043"><ele>273.0</ele><time>2026-05-02T08:44:09.001Z</time></trkpt><trkpt lat="40.88011338183811" lon="9.371513476068317"><ele>272.6666666666667</ele><time>2026-05-02T08:44:10.001Z</time></trkpt><trkpt lat="40.879964561730525" lon="9.371381611176654"><ele>272.33333333333337</ele><time>2026-05-02T08:44:11.001Z</time></trkpt><trkpt lat="40.8798426785198" lon="9.371228350353263"><ele>272.0</ele><time>2026-05-02T08:44:12.001Z</time></trkpt><trkpt lat="40.87975107454964" lon="9.37107103174644"><ele>272.0</ele><time>2026-05-02T08:44:13.001Z</time></trkpt><trkpt lat="40.87964181465517" lon="9.370943415960616"><ele>272.0</ele><time>2026-05-02T08:44:14.001Z</time></trkpt><trkpt lat="40.879516374559984" lon="9.370842552363431"><ele>272.0</ele><time>2026-05-02T08:44:15.001Z</time></trkpt><trkpt lat="40.879362798008074" lon="9.3707851739774"><ele>272.33333333333337</ele><time>2026-05-02T08:44:16.001Z</time></trkpt><trkpt lat="40.879186891681194" lon="9.370747120290668"><ele>272.6666666666667</ele><time>2026-05-02T08:44:17.001Z</time></trkpt><trkpt lat="40.87901641150136" lon="9.370705872369895"><ele>273.0</ele><time>2026-05-02T08:44:18.001Z</time></trkpt><trkpt lat="40.878875932572626" lon="9.370641769114666"><ele>273.0</ele><time>2026-05-02T08:44:19.001Z</time></trkpt><trkpt lat="40.878763079255954" lon="9.370534667939957"><ele>273.0</ele><time>2026-05-02T08:44:20.001Z</time></trkpt><trkpt lat="40.878689819526805" lon="9.370385011942885"><ele>273.0</ele><time>2026-05-02T08:44:21.001Z</time></trkpt><trkpt lat="40.87862706923388" lon="9.370206428666382"><ele>273.0</ele><time>2026-05-02T08:44:22.001Z</time></trkpt><trkpt lat="40.878569429734945" lon="9.370006279435888"><ele>271.5</ele><time>2026-05-02T08:44:23.001Z</time></trkpt><trkpt lat="40.87851709621439" lon="9.369818087353948"><ele>270.0</ele><time>2026-05-02T08:44:24.001Z</time></trkpt><trkpt lat="40.87848432808759" lon="9.369643915100262"><ele>268.5</ele><time>2026-05-02T08:44:25.001Z</time></trkpt><trkpt lat="40.878464846169265" lon="9.369475380010089"><ele>267.0</ele><time>2026-05-02T08:44:26.001Z</time></trkpt><trkpt lat="40.878452523668294" lon="9.369315857761583"><ele>266.5</ele><time>2026-05-02T08:44:27.001Z</time></trkpt><trkpt lat="40.87844555794122" lon="9.369144543716436"><ele>266.0</ele><time>2026-05-02T08:44:28.001Z</time></trkpt><trkpt lat="40.87843406284393" lon="9.36895472843047"><ele>265.5</ele><time>2026-05-02T08:44:29.001Z</time></trkpt><trkpt lat="40.878404465763474" lon="9.368776683096332"><ele>265.0</ele><time>2026-05-02T08:44:30.001Z</time></trkpt><trkpt lat="40.8783677527126" lon="9.368611714576387"><ele>266.5</ele><time>2026-05-02T08:44:31.001Z</time></trkpt><trkpt lat="40.87832763714361" lon="9.368457149125224"><ele>268.0</ele><time>2026-05-02T08:44:32.001Z</time></trkpt><trkpt lat="40.87827802065692" lon="9.368303040166039"><ele>269.5</ele><time>2026-05-02T08:44:33.001Z</time></trkpt><trkpt lat="40.87822275538748" lon="9.368157637003476"><ele>271.0</ele><time>2026-05-02T08:44:34.001Z</time></trkpt><trkpt lat="40.87816172271613" lon="9.368025328727098"><ele>271.0</ele><time>2026-05-02T08:44:35.001Z</time></trkpt><trkpt lat="40.87809771401796" lon="9.367913186194574"><ele>271.0</ele><time>2026-05-02T08:44:36.001Z</time></trkpt><trkpt lat="40.878018661764166" lon="9.36783043121046"><ele>271.0</ele><time>2026-05-02T08:44:37.001Z</time></trkpt><trkpt lat="40.87792849663118" lon="9.367770695193519"><ele>271.0</ele><time>2026-05-02T08:44:38.001Z</time></trkpt><trkpt lat="40.877831725357304" lon="9.367727594457456"><ele>271.0</ele><time>2026-05-02T08:44:39.001Z</time></trkpt><trkpt lat="40.87772400871725" lon="9.367694505216416"><ele>271.0</ele><time>2026-05-02T08:44:40.001Z</time></trkpt><trkpt lat="40.877609763553174" lon="9.36765395041188"><ele>271.0</ele><time>2026-05-02T08:44:41.001Z</time></trkpt><trkpt lat="40.8775128515828" lon="9.367577367060639"><ele>271.0</ele><time>2026-05-02T08:44:42.001Z</time></trkpt><trkpt lat="40.877434871403096" lon="9.367468670028218"><ele>271.0</ele><time>2026-05-02T08:44:43.001Z</time></trkpt><trkpt lat="40.87736055864622" lon="9.367337787805248"><ele>272.2</ele><time>2026-05-02T08:44:44.001Z</time></trkpt><trkpt lat="40.87728006236517" lon="9.367233235456297"><ele>273.40000000000003</ele><time>2026-05-02T08:44:45.001Z</time></trkpt><trkpt lat="40.87718456610555" lon="9.36714446247497"><ele>274.6</ele><time>2026-05-02T08:44:46.001Z</time></trkpt><trkpt lat="40.877081636429814" lon="9.367094812488547"><ele>275.8</ele><time>2026-05-02T08:44:47.001Z</time></trkpt><trkpt lat="40.876977282003814" lon="9.367051607522884"><ele>277.0</ele><time>2026-05-02T08:44:48.001Z</time></trkpt><trkpt lat="40.8768846561174" lon="9.367004679267344"><ele>277.0</ele><time>2026-05-02T08:44:49.001Z</time></trkpt><trkpt lat="40.87679670844914" lon="9.366928710561988"><ele>277.0</ele><time>2026-05-02T08:44:50.001Z</time></trkpt><trkpt lat="40.876717502080886" lon="9.366812326299783"><ele>277.0</ele><time>2026-05-02T08:44:51.001Z</time></trkpt><trkpt lat="40.87666288871486" lon="9.366677720320835"><ele>277.0</ele><time>2026-05-02T08:44:52Z</time></trkpt><trkpt lat="40.87663105008292" lon="9.366531090080686"><ele>278.0</ele><time>2026-05-02T08:44:53Z</time></trkpt><trkpt lat="40.8766139994325" lon="9.366381764973486"><ele>279.0</ele><time>2026-05-02T08:44:54Z</time></trkpt><trkpt lat="40.876596532749296" lon="9.366227381323498"><ele>280.0</ele><time>2026-05-02T08:44:55Z</time></trkpt><trkpt lat="40.876572862828155" lon="9.366070524508794"><ele>281.0</ele><time>2026-05-02T08:44:56Z</time></trkpt><trkpt lat="40.876535337063046" lon="9.365909231058795"><ele>281.25</ele><time>2026-05-02T08:44:57Z</time></trkpt><trkpt lat="40.87648188445678" lon="9.365749411529576"><ele>281.5</ele><time>2026-05-02T08:44:58Z</time></trkpt><trkpt lat="40.87641278827288" lon="9.365598899139915"><ele>281.75</ele><time>2026-05-02T08:44:59Z</time></trkpt><trkpt lat="40.876324927939045" lon="9.36544483241035"><ele>282.0</ele><time>2026-05-02T08:45:00Z</time></trkpt><trkpt lat="40.87621007790599" lon="9.365279730227108"><ele>282.3333333333333</ele><time>2026-05-02T08:45:01Z</time></trkpt><trkpt lat="40.87608086424529" lon="9.36510626361617"><ele>282.66666666666663</ele><time>2026-05-02T08:45:02Z</time></trkpt><trkpt lat="40.87595212972021" lon="9.364925111912218"><ele>283.0</ele><time>2026-05-02T08:45:03Z</time></trkpt><trkpt lat="40.87581907691816" lon="9.364732314274448"><ele>284.0</ele><time>2026-05-02T08:45:04Z</time></trkpt><trkpt lat="40.87567296128036" lon="9.364523807480962"><ele>285.0</ele><time>2026-05-02T08:45:05Z</time></trkpt><trkpt lat="40.87553927337717" lon="9.364336395248534"><ele>286.0</ele><time>2026-05-02T08:45:06Z</time></trkpt><trkpt lat="40.87543105088806" lon="9.364170533037207"><ele>286.0</ele><time>2026-05-02T08:45:07.001Z</time></trkpt><trkpt lat="40.875334008071974" lon="9.364018889458443"><ele>286.0</ele><time>2026-05-02T08:45:08.001Z</time></trkpt><trkpt lat="40.8752341725019" lon="9.363873669500576"><ele>286.0</ele><time>2026-05-02T08:45:09.001Z</time></trkpt><trkpt lat="40.87513124962018" lon="9.363727045365922"><ele>286.3333333333333</ele><time>2026-05-02T08:45:10.001Z</time></trkpt><trkpt lat="40.875024746589915" lon="9.363576683667414"><ele>286.6666666666667</ele><time>2026-05-02T08:45:11.001Z</time></trkpt><trkpt lat="40.874911818283074" lon="9.363422329249047"><ele>287.0</ele><time>2026-05-02T08:45:12.001Z</time></trkpt><trkpt lat="40.87479653272682" lon="9.363260358839169"><ele>287.0</ele><time>2026-05-02T08:45:13.001Z</time></trkpt><trkpt lat="40.87468412453382" lon="9.363095580155939"><ele>287.0</ele><time>2026-05-02T08:45:14.001Z</time></trkpt><trkpt lat="40.87457062587995" lon="9.362931419111426"><ele>287.0</ele><time>2026-05-02T08:45:15.001Z</time></trkpt><trkpt lat="40.87445671919507" lon="9.362768246230932"><ele>286.6666666666667</ele><time>2026-05-02T08:45:16.001Z</time></trkpt><trkpt lat="40.87434544368696" lon="9.36260949852076"><ele>286.3333333333333</ele><time>2026-05-02T08:45:17.001Z</time></trkpt><trkpt lat="40.87423551398738" lon="9.36245346935596"><ele>286.0</ele><time>2026-05-02T08:45:18.001Z</time></trkpt><trkpt lat="40.87412873136485" lon="9.362301324486626"><ele>286.25</ele><time>2026-05-02T08:45:19.001Z</time></trkpt><trkpt lat="40.874024270889045" lon="9.36215918880275"><ele>286.5</ele><time>2026-05-02T08:45:20.001Z</time></trkpt><trkpt lat="40.87392384809907" lon="9.36202428629656"><ele>286.75</ele><time>2026-05-02T08:45:21.001Z</time></trkpt><trkpt lat="40.87383121436789" lon="9.361896976579226"><ele>287.0</ele><time>2026-05-02T08:45:22.001Z</time></trkpt><trkpt lat="40.873744722759085" lon="9.361776844922622"><ele>287.0</ele><time>2026-05-02T08:45:23.001Z</time></trkpt><trkpt lat="40.87366783653069" lon="9.361670784481312"><ele>287.0</ele><time>2026-05-02T08:45:24.001Z</time></trkpt><trkpt lat="40.87360627386766" lon="9.36159033187544"><ele>287.0</ele><time>2026-05-02T08:45:25.001Z</time></trkpt><trkpt lat="40.873517343446885" lon="9.3615266734434"><ele>287.0</ele><time>2026-05-02T08:45:27.001Z</time></trkpt><trkpt lat="40.8734319078641" lon="9.361579171408282"><ele>287.0</ele><time>2026-05-02T08:45:29.001Z</time></trkpt><trkpt lat="40.873345084042704" lon="9.361711256275987"><ele>286.8</ele><time>2026-05-02T08:45:31.001Z</time></trkpt><trkpt lat="40.87328268290784" lon="9.361810453723397"><ele>286.6</ele><time>2026-05-02T08:45:32.001Z</time></trkpt><trkpt lat="40.873213349796224" lon="9.361906181938055"><ele>286.40000000000003</ele><time>2026-05-02T08:45:33.001Z</time></trkpt><trkpt lat="40.87313329298641" lon="9.36200181538256"><ele>286.2</ele><time>2026-05-02T08:45:34.001Z</time></trkpt><trkpt lat="40.873055131521994" lon="9.36208450980261"><ele>286.0</ele><time>2026-05-02T08:45:35.001Z</time></trkpt><trkpt lat="40.872971784378684" lon="9.362145662289645"><ele>286.2</ele><time>2026-05-02T08:45:36.001Z</time></trkpt><trkpt lat="40.87287250549449" lon="9.362200212467114"><ele>286.40000000000003</ele><time>2026-05-02T08:45:37.001Z</time></trkpt><trkpt lat="40.87276593940028" lon="9.36224875308502"><ele>286.6</ele><time>2026-05-02T08:45:38.001Z</time></trkpt><trkpt lat="40.872669396766575" lon="9.362316728158065"><ele>286.8</ele><time>2026-05-02T08:45:39.001Z</time></trkpt><trkpt lat="40.872583067655114" lon="9.362406333658738"><ele>287.0</ele><time>2026-05-02T08:45:40.001Z</time></trkpt><trkpt lat="40.87251100022889" lon="9.36251425850602"><ele>286.25</ele><time>2026-05-02T08:45:41.001Z</time></trkpt><trkpt lat="40.872451890743335" lon="9.36264233798754"><ele>285.5</ele><time>2026-05-02T08:45:42.001Z</time></trkpt><trkpt lat="40.872409059376665" lon="9.362795098005522"><ele>284.75</ele><time>2026-05-02T08:45:43.001Z</time></trkpt><trkpt lat="40.872371907217854" lon="9.362961041847331"><ele>284.0</ele><time>2026-05-02T08:45:44.001Z</time></trkpt><trkpt lat="40.87233022794172" lon="9.363132863995578"><ele>283.75</ele><time>2026-05-02T08:45:45.001Z</time></trkpt><trkpt lat="40.872289822346985" lon="9.363299664238346"><ele>283.5</ele><time>2026-05-02T08:45:46.001Z</time></trkpt><trkpt lat="40.872251312806135" lon="9.363459451929332"><ele>283.25</ele><time>2026-05-02T08:45:47.001Z</time></trkpt><trkpt lat="40.8722086177515" lon="9.363617099890003"><ele>283.0</ele><time>2026-05-02T08:45:48.001Z</time></trkpt><trkpt lat="40.87216121172977" lon="9.363775755945122"><ele>282.25</ele><time>2026-05-02T08:45:49.001Z</time></trkpt><trkpt lat="40.87210567119151" lon="9.363930971169172"><ele>281.5</ele><time>2026-05-02T08:45:50.001Z</time></trkpt><trkpt lat="40.87203993451045" lon="9.364089492904254"><ele>280.75</ele><time>2026-05-02T08:45:51.001Z</time></trkpt><trkpt lat="40.871970616048536" lon="9.36424315654434"><ele>280.0</ele><time>2026-05-02T08:45:52.001Z</time></trkpt><trkpt lat="40.871896721454064" lon="9.364401036651161"><ele>280.0</ele><time>2026-05-02T08:45:53.001Z</time></trkpt><trkpt lat="40.87182118151589" lon="9.364565304236846"><ele>280.0</ele><time>2026-05-02T08:45:54.001Z</time></trkpt><trkpt lat="40.871745599721955" lon="9.36472590137948"><ele>280.0</ele><time>2026-05-02T08:45:55.001Z</time></trkpt><trkpt lat="40.871668295236475" lon="9.364882817705464"><ele>280.0</ele><time>2026-05-02T08:45:56.001Z</time></trkpt><trkpt lat="40.8715938659204" lon="9.365033313549908"><ele>279.0</ele><time>2026-05-02T08:45:57.001Z</time></trkpt><trkpt lat="40.87153443026193" lon="9.36518218014762"><ele>278.0</ele><time>2026-05-02T08:45:58.001Z</time></trkpt><trkpt lat="40.87149163356781" lon="9.36535170686178"><ele>277.0</ele><time>2026-05-02T08:45:59.001Z</time></trkpt><trkpt lat="40.87145793803311" lon="9.365530388586842"><ele>276.0</ele><time>2026-05-02T08:46:00.001Z</time></trkpt><trkpt lat="40.87142381709711" lon="9.365717244095496"><ele>276.0</ele><time>2026-05-02T08:46:01.001Z</time></trkpt><trkpt lat="40.87139438302521" lon="9.365889040527646"><ele>276.0</ele><time>2026-05-02T08:46:02.001Z</time></trkpt><trkpt lat="40.87136594277647" lon="9.366056453092327"><ele>276.0</ele><time>2026-05-02T08:46:03.001Z</time></trkpt><trkpt lat="40.871332033128" lon="9.366217696075603"><ele>276.0</ele><time>2026-05-02T08:46:04.001Z</time></trkpt><trkpt lat="40.87128749695183" lon="9.366370430776229"><ele>275.75</ele><time>2026-05-02T08:46:05.001Z</time></trkpt><trkpt lat="40.871231852519884" lon="9.366522136059578"><ele>275.5</ele><time>2026-05-02T08:46:06.001Z</time></trkpt><trkpt lat="40.87117498205292" lon="9.366671690779954"><ele>275.25</ele><time>2026-05-02T08:46:07.001Z</time></trkpt><trkpt lat="40.871119364602144" lon="9.366827365471467"><ele>275.0</ele><time>2026-05-02T08:46:08.001Z</time></trkpt><trkpt lat="40.871059762319476" lon="9.366983511947431"><ele>275.0</ele><time>2026-05-02T08:46:09.001Z</time></trkpt><trkpt lat="40.87098583927795" lon="9.367136468001718"><ele>275.0</ele><time>2026-05-02T08:46:10.001Z</time></trkpt><trkpt lat="40.870904239828285" lon="9.367275837310885"><ele>275.0</ele><time>2026-05-02T08:46:11.001Z</time></trkpt><trkpt lat="40.87082320840451" lon="9.367397359857295"><ele>275.0</ele><time>2026-05-02T08:46:12.001Z</time></trkpt><trkpt lat="40.87074791912736" lon="9.367516823400479"><ele>274.75</ele><time>2026-05-02T08:46:13.001Z</time></trkpt><trkpt lat="40.870676017746156" lon="9.367640047006137"><ele>274.5</ele><time>2026-05-02T08:46:14.001Z</time></trkpt><trkpt lat="40.870596660541416" lon="9.367766166029922"><ele>274.25</ele><time>2026-05-02T08:46:15.001Z</time></trkpt><trkpt lat="40.870518480562836" lon="9.367896683249098"><ele>274.0</ele><time>2026-05-02T08:46:16.001Z</time></trkpt><trkpt lat="40.870440107357545" lon="9.368036210439325"><ele>273.5</ele><time>2026-05-02T08:46:17.001Z</time></trkpt><trkpt lat="40.870368769412835" lon="9.3681683984877"><ele>273.0</ele><time>2026-05-02T08:46:18.001Z</time></trkpt><trkpt lat="40.87029571754545" lon="9.368292939909646"><ele>272.5</ele><time>2026-05-02T08:46:19.001Z</time></trkpt><trkpt lat="40.87021431653832" lon="9.368417584431837"><ele>272.0</ele><time>2026-05-02T08:46:20.001Z</time></trkpt><trkpt lat="40.87010624815081" lon="9.368554455578236"><ele>271.25</ele><time>2026-05-02T08:46:21.001Z</time></trkpt><trkpt lat="40.87000171792808" lon="9.3686804576778"><ele>270.5</ele><time>2026-05-02T08:46:22.001Z</time></trkpt><trkpt lat="40.869902677622925" lon="9.368807501210005"><ele>269.75</ele><time>2026-05-02T08:46:23.001Z</time></trkpt><trkpt lat="40.869806499346765" lon="9.368940658374648"><ele>269.0</ele><time>2026-05-02T08:46:24.001Z</time></trkpt><trkpt lat="40.869721396430954" lon="9.369083931518722"><ele>268.25</ele><time>2026-05-02T08:46:25.001Z</time></trkpt><trkpt lat="40.869650534671145" lon="9.369228683678434"><ele>267.5</ele><time>2026-05-02T08:46:26.001Z</time></trkpt><trkpt lat="40.869596600745695" lon="9.369380415224688"><ele>266.75</ele><time>2026-05-02T08:46:27.001Z</time></trkpt><trkpt lat="40.869551333347545" lon="9.36954510930742"><ele>266.0</ele><time>2026-05-02T08:46:28.001Z</time></trkpt><trkpt lat="40.869510356954855" lon="9.369736107931528"><ele>265.6666666666667</ele><time>2026-05-02T08:46:29.001Z</time></trkpt><trkpt lat="40.86947461862752" lon="9.369932521989032"><ele>265.3333333333333</ele><time>2026-05-02T08:46:30.001Z</time></trkpt><trkpt lat="40.86944281109266" lon="9.370133899390838"><ele>265.0</ele><time>2026-05-02T08:46:31.001Z</time></trkpt><trkpt lat="40.86939783137035" lon="9.370332031229823"><ele>263.75</ele><time>2026-05-02T08:46:32.001Z</time></trkpt><trkpt lat="40.86935119954583" lon="9.370535317257573"><ele>262.5</ele><time>2026-05-02T08:46:33.001Z</time></trkpt><trkpt lat="40.86930458268452" lon="9.370722430498143"><ele>261.25</ele><time>2026-05-02T08:46:34.001Z</time></trkpt><trkpt lat="40.869261578658154" lon="9.370897944011114"><ele>260.0</ele><time>2026-05-02T08:46:35.001Z</time></trkpt><trkpt lat="40.869215129116476" lon="9.371062926479059"><ele>258.75</ele><time>2026-05-02T08:46:36.001Z</time></trkpt><trkpt lat="40.86916130735218" lon="9.371215827023914"><ele>257.5</ele><time>2026-05-02T08:46:37.001Z</time></trkpt><trkpt lat="40.869095585792465" lon="9.371356791647967"><ele>256.25</ele><time>2026-05-02T08:46:38.001Z</time></trkpt><trkpt lat="40.869014822825825" lon="9.37149364000896"><ele>255.0</ele><time>2026-05-02T08:46:39.001Z</time></trkpt><trkpt lat="40.868932762353445" lon="9.371619252213954"><ele>255.0</ele><time>2026-05-02T08:46:40.001Z</time></trkpt><trkpt lat="40.868856910574486" lon="9.371743757872256"><ele>255.0</ele><time>2026-05-02T08:46:41.001Z</time></trkpt><trkpt lat="40.86877902214871" lon="9.371864810406162"><ele>255.0</ele><time>2026-05-02T08:46:42.001Z</time></trkpt><trkpt lat="40.86870396777901" lon="9.371981945122268"><ele>255.0</ele><time>2026-05-02T08:46:43.001Z</time></trkpt><trkpt lat="40.86862988639811" lon="9.3720970045083"><ele>255.5</ele><time>2026-05-02T08:46:44.001Z</time></trkpt><trkpt lat="40.86856597514876" lon="9.372225364103969"><ele>256.0</ele><time>2026-05-02T08:46:45.001Z</time></trkpt><trkpt lat="40.86851898058235" lon="9.372383331404059"><ele>256.5</ele><time>2026-05-02T08:46:46.001Z</time></trkpt><trkpt lat="40.868480629676846" lon="9.372568616584227"><ele>257.0</ele><time>2026-05-02T08:46:47.001Z</time></trkpt><trkpt lat="40.868444797658654" lon="9.37276376524393"><ele>256.0</ele><time>2026-05-02T08:46:48.001Z</time></trkpt><trkpt lat="40.868412347217074" lon="9.37294071405694"><ele>255.0</ele><time>2026-05-02T08:46:49.001Z</time></trkpt><trkpt lat="40.86838797425292" lon="9.373099345442812"><ele>254.0</ele><time>2026-05-02T08:46:50.001Z</time></trkpt><trkpt lat="40.86837785169929" lon="9.373240668904542"><ele>253.0</ele><time>2026-05-02T08:46:51.001Z</time></trkpt><trkpt lat="40.86838989395468" lon="9.373392482427795"><ele>252.60000000000002</ele><time>2026-05-02T08:46:52.001Z</time></trkpt><trkpt lat="40.86840912913289" lon="9.373545270602751"><ele>252.20000000000002</ele><time>2026-05-02T08:46:53.001Z</time></trkpt><trkpt lat="40.868426347819614" lon="9.37367800326238"><ele>251.8</ele><time>2026-05-02T08:46:54.001Z</time></trkpt><trkpt lat="40.86843066188209" lon="9.373791247371729"><ele>251.4</ele><time>2026-05-02T08:46:55.001Z</time></trkpt><trkpt lat="40.86842149754868" lon="9.373893186553074"><ele>251.0</ele><time>2026-05-02T08:46:56.001Z</time></trkpt><trkpt lat="40.86838891425618" lon="9.373993181845249"><ele>249.4</ele><time>2026-05-02T08:46:57.001Z</time></trkpt><trkpt lat="40.86832698239862" lon="9.37408312103747"><ele>247.8</ele><time>2026-05-02T08:46:58.001Z</time></trkpt><trkpt lat="40.86825133679813" lon="9.374154386049527"><ele>246.20000000000002</ele><time>2026-05-02T08:46:59.001Z</time></trkpt><trkpt lat="40.8681566180667" lon="9.374203840620895"><ele>244.60000000000002</ele><time>2026-05-02T08:47:00.001Z</time></trkpt><trkpt lat="40.86803944047847" lon="9.374234003918414"><ele>243.0</ele><time>2026-05-02T08:47:01.001Z</time></trkpt><trkpt lat="40.86793168340481" lon="9.374254967016867"><ele>243.0</ele><time>2026-05-02T08:47:02.001Z</time></trkpt><trkpt lat="40.86784584438488" lon="9.374306267328842"><ele>243.0</ele><time>2026-05-02T08:47:03.001Z</time></trkpt><trkpt lat="40.8677660504853" lon="9.374395395014009"><ele>243.0</ele><time>2026-05-02T08:47:04Z</time></trkpt><trkpt lat="40.86768553870106" lon="9.374526584756332"><ele>243.0</ele><time>2026-05-02T08:47:05Z</time></trkpt><trkpt lat="40.86762294101388" lon="9.37465823710559"><ele>243.0</ele><time>2026-05-02T08:47:06Z</time></trkpt><trkpt lat="40.8675914801306" lon="9.374793644236734"><ele>241.25</ele><time>2026-05-02T08:47:07Z</time></trkpt><trkpt lat="40.8675891581401" lon="9.374941435729326"><ele>239.5</ele><time>2026-05-02T08:47:08Z</time></trkpt><trkpt lat="40.867612542632465" lon="9.37511973661166"><ele>237.75</ele><time>2026-05-02T08:47:09Z</time></trkpt><trkpt lat="40.86765016761646" lon="9.37532916644262"><ele>236.0</ele><time>2026-05-02T08:47:10Z</time></trkpt><trkpt lat="40.86768304885045" lon="9.375567266499322"><ele>235.25</ele><time>2026-05-02T08:47:11Z</time></trkpt><trkpt lat="40.867709136966326" lon="9.37579827190625"><ele>234.5</ele><time>2026-05-02T08:47:12Z</time></trkpt><trkpt lat="40.86773326302619" lon="9.376027281384484"><ele>233.75</ele><time>2026-05-02T08:47:13.001Z</time></trkpt><trkpt lat="40.867788430657164" lon="9.376095275129517"><ele>233.0</ele><time>2026-05-02T08:47:14.001Z</time></trkpt><trkpt lat="40.86782363542396" lon="9.376255485321895"><ele>233.4</ele><time>2026-05-02T08:47:15.001Z</time></trkpt><trkpt lat="40.86784369002469" lon="9.37637334735886"><ele>233.8</ele><time>2026-05-02T08:47:16.001Z</time></trkpt><trkpt lat="40.867848567898" lon="9.376460998797846"><ele>234.2</ele><time>2026-05-02T08:47:17.001Z</time></trkpt><trkpt lat="40.86779747710815" lon="9.376605303144638"><ele>234.6</ele><time>2026-05-02T08:47:19.001Z</time></trkpt><trkpt lat="40.86769625334758" lon="9.3766586289086"><ele>235.0</ele><time>2026-05-02T08:47:21.001Z</time></trkpt><trkpt lat="40.86761938652677" lon="9.376658240988851"><ele>235.0</ele><time>2026-05-02T08:47:22.001Z</time></trkpt><trkpt lat="40.86751598527922" lon="9.376646061716023"><ele>235.0</ele><time>2026-05-02T08:47:23.001Z</time></trkpt><trkpt lat="40.86739436303177" lon="9.376632181714402"><ele>235.0</ele><time>2026-05-02T08:47:24.001Z</time></trkpt><trkpt lat="40.86727978451715" lon="9.376624957438692"><ele>235.0</ele><time>2026-05-02T08:47:25.001Z</time></trkpt><trkpt lat="40.86714599362876" lon="9.376616108334545"><ele>235.0</ele><time>2026-05-02T08:47:26.001Z</time></trkpt><trkpt lat="40.86699611135273" lon="9.376604024140418"><ele>235.0</ele><time>2026-05-02T08:47:27.001Z</time></trkpt><trkpt lat="40.86684613711526" lon="9.376591389500016"><ele>235.0</ele><time>2026-05-02T08:47:28.001Z</time></trkpt><trkpt lat="40.86671357504643" lon="9.376589186025534"><ele>235.0</ele><time>2026-05-02T08:47:29.001Z</time></trkpt><trkpt lat="40.866579714588326" lon="9.376590268934379"><ele>235.75</ele><time>2026-05-02T08:47:30.001Z</time></trkpt><trkpt lat="40.86643735949202" lon="9.37658719591494"><ele>236.5</ele><time>2026-05-02T08:47:31.001Z</time></trkpt><trkpt lat="40.86629345819937" lon="9.376581110920307"><ele>237.25</ele><time>2026-05-02T08:47:32.001Z</time></trkpt><trkpt lat="40.86615310538941" lon="9.376581940442104"><ele>238.0</ele><time>2026-05-02T08:47:33.001Z</time></trkpt><trkpt lat="40.86602099212914" lon="9.376579125029474"><ele>238.75</ele><time>2026-05-02T08:47:34.001Z</time></trkpt><trkpt lat="40.86589707227964" lon="9.376575588488082"><ele>239.5</ele><time>2026-05-02T08:47:35.001Z</time></trkpt><trkpt lat="40.86577698010751" lon="9.376556199446725"><ele>240.25</ele><time>2026-05-02T08:47:36.001Z</time></trkpt><trkpt lat="40.86565444699335" lon="9.376535097944835"><ele>241.0</ele><time>2026-05-02T08:47:37.001Z</time></trkpt><trkpt lat="40.86552633972839" lon="9.376511152104044"><ele>241.0</ele><time>2026-05-02T08:47:38.001Z</time></trkpt><trkpt lat="40.8653996558991" lon="9.37646438166916"><ele>241.0</ele><time>2026-05-02T08:47:39.001Z</time></trkpt><trkpt lat="40.86526383719158" lon="9.376403743846273"><ele>241.0</ele><time>2026-05-02T08:47:40.001Z</time></trkpt><trkpt lat="40.865143051472636" lon="9.376333716723986"><ele>241.0</ele><time>2026-05-02T08:47:41.001Z</time></trkpt><trkpt lat="40.86503736177808" lon="9.376282247660091"><ele>243.5</ele><time>2026-05-02T08:47:42.001Z</time></trkpt><trkpt lat="40.86492262518919" lon="9.376258306780123"><ele>246.0</ele><time>2026-05-02T08:47:43.001Z</time></trkpt><trkpt lat="40.86478960543195" lon="9.376234986128763"><ele>248.5</ele><time>2026-05-02T08:47:44.001Z</time></trkpt><trkpt lat="40.8646880188884" lon="9.376249002348661"><ele>251.0</ele><time>2026-05-02T08:47:45.001Z</time></trkpt><trkpt lat="40.86457883980498" lon="9.376286303205235"><ele>251.0</ele><time>2026-05-02T08:47:46.001Z</time></trkpt><trkpt lat="40.86446380282628" lon="9.3763485653799"><ele>251.0</ele><time>2026-05-02T08:47:47.001Z</time></trkpt><trkpt lat="40.8643444833976" lon="9.376415583754882"><ele>251.0</ele><time>2026-05-02T08:47:48.001Z</time></trkpt><trkpt lat="40.86422857384818" lon="9.376474614991809"><ele>251.0</ele><time>2026-05-02T08:47:49.001Z</time></trkpt><trkpt lat="40.8641083823759" lon="9.376523659453197"><ele>251.0</ele><time>2026-05-02T08:47:50.001Z</time></trkpt><trkpt lat="40.863987834090175" lon="9.376567187405966"><ele>251.0</ele><time>2026-05-02T08:47:51.001Z</time></trkpt><trkpt lat="40.863864324332376" lon="9.376593402837594"><ele>251.0</ele><time>2026-05-02T08:47:52.001Z</time></trkpt><trkpt lat="40.863733482819086" lon="9.376600063101288"><ele>251.0</ele><time>2026-05-02T08:47:53.001Z</time></trkpt><trkpt lat="40.86361033042295" lon="9.37660569190567"><ele>251.0</ele><time>2026-05-02T08:47:54.001Z</time></trkpt><trkpt lat="40.86347997819062" lon="9.376634260495214"><ele>251.0</ele><time>2026-05-02T08:47:55.001Z</time></trkpt><trkpt lat="40.863358447960955" lon="9.376658960948523"><ele>251.0</ele><time>2026-05-02T08:47:56.001Z</time></trkpt><trkpt lat="40.86325308856383" lon="9.376678588282386"><ele>251.0</ele><time>2026-05-02T08:47:57.001Z</time></trkpt><trkpt lat="40.86315484627379" lon="9.37671194626623"><ele>252.0</ele><time>2026-05-02T08:47:58.001Z</time></trkpt><trkpt lat="40.86306036692181" lon="9.376756518977215"><ele>253.00000000000003</ele><time>2026-05-02T08:47:59.001Z</time></trkpt><trkpt lat="40.86295562115358" lon="9.37681600698506"><ele>254.00000000000003</ele><time>2026-05-02T08:48:00.001Z</time></trkpt><trkpt lat="40.862856772000576" lon="9.3768691532568"><ele>255.0</ele><time>2026-05-02T08:48:01.001Z</time></trkpt><trkpt lat="40.86275086228629" lon="9.376918960859326"><ele>256.0</ele><time>2026-05-02T08:48:02.001Z</time></trkpt><trkpt lat="40.86264266980956" lon="9.37697217555967"><ele>256.40000000000003</ele><time>2026-05-02T08:48:03.001Z</time></trkpt><trkpt lat="40.862538401221194" lon="9.377004937939551"><ele>256.8</ele><time>2026-05-02T08:48:04.001Z</time></trkpt><trkpt lat="40.86244094020316" lon="9.37702324911127"><ele>257.20000000000005</ele><time>2026-05-02T08:48:05.001Z</time></trkpt><trkpt lat="40.862354448901314" lon="9.377029745847189"><ele>257.6</ele><time>2026-05-02T08:48:06.001Z</time></trkpt><trkpt lat="40.862271368415776" lon="9.377025251117315"><ele>258.0</ele><time>2026-05-02T08:48:07.001Z</time></trkpt><trkpt lat="40.86218770022261" lon="9.377027065593028"><ele>258.0</ele><time>2026-05-02T08:48:08.001Z</time></trkpt><trkpt lat="40.86209391342798" lon="9.377026927739784"><ele>258.0</ele><time>2026-05-02T08:48:09.001Z</time></trkpt><trkpt lat="40.861999140010234" lon="9.377029689268502"><ele>258.0</ele><time>2026-05-02T08:48:10.001Z</time></trkpt><trkpt lat="40.861906366128096" lon="9.377065683828834"><ele>258.0</ele><time>2026-05-02T08:48:11.001Z</time></trkpt><trkpt lat="40.86181339655003" lon="9.377136068152128"><ele>258.0</ele><time>2026-05-02T08:48:12.001Z</time></trkpt><trkpt lat="40.8616988588102" lon="9.377222880629352"><ele>256.25</ele><time>2026-05-02T08:48:13.001Z</time></trkpt><trkpt lat="40.86159807641686" lon="9.377332894081471"><ele>254.5</ele><time>2026-05-02T08:48:14.001Z</time></trkpt><trkpt lat="40.86148742339343" lon="9.377453361646008"><ele>252.75</ele><time>2026-05-02T08:48:15.001Z</time></trkpt><trkpt lat="40.861364473998364" lon="9.377589194472291"><ele>251.0</ele><time>2026-05-02T08:48:16.001Z</time></trkpt><trkpt lat="40.86124939592625" lon="9.377724797819774"><ele>251.0</ele><time>2026-05-02T08:48:17.001Z</time></trkpt><trkpt lat="40.86112407710453" lon="9.377863270767216"><ele>251.0</ele><time>2026-05-02T08:48:18.001Z</time></trkpt><trkpt lat="40.861002345128064" lon="9.378009897148813"><ele>251.0</ele><time>2026-05-02T08:48:19.001Z</time></trkpt><trkpt lat="40.86088977214387" lon="9.378133587119326"><ele>250.33333333333334</ele><time>2026-05-02T08:48:20.001Z</time></trkpt><trkpt lat="40.860770121361824" lon="9.378247068331131"><ele>249.66666666666669</ele><time>2026-05-02T08:48:21.001Z</time></trkpt><trkpt lat="40.86063977775414" lon="9.37835893681669"><ele>249.0</ele><time>2026-05-02T08:48:22.001Z</time></trkpt><trkpt lat="40.8604955625294" lon="9.378459715549942"><ele>249.0</ele><time>2026-05-02T08:48:23.001Z</time></trkpt><trkpt lat="40.860344178340014" lon="9.378567152981583"><ele>249.0</ele><time>2026-05-02T08:48:24.001Z</time></trkpt><trkpt lat="40.86021113252218" lon="9.378647997601334"><ele>249.0</ele><time>2026-05-02T08:48:25.001Z</time></trkpt><trkpt lat="40.860090933708975" lon="9.378761757508672"><ele>249.25</ele><time>2026-05-02T08:48:26.001Z</time></trkpt><trkpt lat="40.859995686405476" lon="9.378866642594618"><ele>249.5</ele><time>2026-05-02T08:48:27.001Z</time></trkpt><trkpt lat="40.85991246090851" lon="9.378987533682645"><ele>249.75</ele><time>2026-05-02T08:48:28.001Z</time></trkpt><trkpt lat="40.85982218711566" lon="9.379129472744923"><ele>250.0</ele><time>2026-05-02T08:48:29.001Z</time></trkpt><trkpt lat="40.85973131389607" lon="9.379277029939349"><ele>250.0</ele><time>2026-05-02T08:48:30.001Z</time></trkpt><trkpt lat="40.859639327365585" lon="9.379431012579511"><ele>250.0</ele><time>2026-05-02T08:48:31.001Z</time></trkpt><trkpt lat="40.85955532306002" lon="9.379571144241314"><ele>250.0</ele><time>2026-05-02T08:48:32.001Z</time></trkpt><trkpt lat="40.859482310224045" lon="9.379725943745973"><ele>250.0</ele><time>2026-05-02T08:48:33.001Z</time></trkpt><trkpt lat="40.85943134425048" lon="9.37990420772185"><ele>250.75</ele><time>2026-05-02T08:48:34.001Z</time></trkpt><trkpt lat="40.859380443943785" lon="9.38009194923639"><ele>251.5</ele><time>2026-05-02T08:48:35.001Z</time></trkpt><trkpt lat="40.85934092125747" lon="9.380251369559579"><ele>252.25</ele><time>2026-05-02T08:48:36.001Z</time></trkpt><trkpt lat="40.859326667060984" lon="9.380405695056677"><ele>253.0</ele><time>2026-05-02T08:48:37.001Z</time></trkpt><trkpt lat="40.85933636034606" lon="9.380580459102747"><ele>254.0</ele><time>2026-05-02T08:48:38.001Z</time></trkpt><trkpt lat="40.85934906220176" lon="9.38074288251681"><ele>255.0</ele><time>2026-05-02T08:48:39.001Z</time></trkpt><trkpt lat="40.85933872580813" lon="9.380870720474759"><ele>256.0</ele><time>2026-05-02T08:48:40.001Z</time></trkpt><trkpt lat="40.85929335266169" lon="9.38097355248785"><ele>257.0</ele><time>2026-05-02T08:48:41.001Z</time></trkpt><trkpt lat="40.8592074355514" lon="9.381059486276257"><ele>258.0</ele><time>2026-05-02T08:48:42.001Z</time></trkpt><trkpt lat="40.85911942547526" lon="9.381155879524698"><ele>255.0</ele><time>2026-05-02T08:48:43.001Z</time></trkpt><trkpt lat="40.859070109559575" lon="9.381270095909102"><ele>252.0</ele><time>2026-05-02T08:48:44.001Z</time></trkpt><trkpt lat="40.859036010867655" lon="9.381428437723383"><ele>249.0</ele><time>2026-05-02T08:48:45.001Z</time></trkpt><trkpt lat="40.85900960002373" lon="9.381630170367233"><ele>246.0</ele><time>2026-05-02T08:48:46.001Z</time></trkpt><trkpt lat="40.85897775113014" lon="9.381842643062473"><ele>245.33333333333331</ele><time>2026-05-02T08:48:47.001Z</time></trkpt><trkpt lat="40.85893567475022" lon="9.382064666894554"><ele>244.66666666666666</ele><time>2026-05-02T08:48:48.001Z</time></trkpt><trkpt lat="40.85889132246642" lon="9.38226526659996"><ele>244.0</ele><time>2026-05-02T08:48:49.001Z</time></trkpt><trkpt lat="40.85884983667771" lon="9.38245462673836"><ele>244.0</ele><time>2026-05-02T08:48:50.001Z</time></trkpt><trkpt lat="40.85881718655721" lon="9.382649238174123"><ele>244.0</ele><time>2026-05-02T08:48:51.001Z</time></trkpt><trkpt lat="40.8588022905038" lon="9.382857885915998"><ele>244.0</ele><time>2026-05-02T08:48:52.001Z</time></trkpt><trkpt lat="40.85881195794848" lon="9.383093162560783"><ele>244.0</ele><time>2026-05-02T08:48:53.001Z</time></trkpt><trkpt lat="40.85880858931584" lon="9.383327934146184"><ele>244.0</ele><time>2026-05-02T08:48:54.001Z</time></trkpt><trkpt lat="40.85879449351222" lon="9.383527703493689"><ele>244.0</ele><time>2026-05-02T08:48:55.001Z</time></trkpt><trkpt lat="40.858782159398764" lon="9.383709755856701"><ele>243.75</ele><time>2026-05-02T08:48:56.001Z</time></trkpt><trkpt lat="40.85878520929093" lon="9.383879544601033"><ele>243.5</ele><time>2026-05-02T08:48:57.001Z</time></trkpt><trkpt lat="40.85879677151066" lon="9.384044198327366"><ele>243.25</ele><time>2026-05-02T08:48:58.001Z</time></trkpt><trkpt lat="40.85879919866757" lon="9.384209857880048"><ele>243.0</ele><time>2026-05-02T08:48:59.001Z</time></trkpt><trkpt lat="40.85876678280726" lon="9.384363985075481"><ele>243.0</ele><time>2026-05-02T08:49:00.001Z</time></trkpt><trkpt lat="40.85872249645312" lon="9.38450388072341"><ele>243.0</ele><time>2026-05-02T08:49:01.001Z</time></trkpt><trkpt lat="40.85869613179344" lon="9.384649265727335"><ele>243.0</ele><time>2026-05-02T08:49:02.001Z</time></trkpt><trkpt lat="40.85870945859952" lon="9.384797147121263"><ele>243.0</ele><time>2026-05-02T08:49:03.001Z</time></trkpt><trkpt lat="40.85875688415403" lon="9.384951782152163"><ele>240.66666666666669</ele><time>2026-05-02T08:49:04.001Z</time></trkpt><trkpt lat="40.85883025255416" lon="9.385132025709357"><ele>238.33333333333334</ele><time>2026-05-02T08:49:05.001Z</time></trkpt><trkpt lat="40.85891240635876" lon="9.385340053463379"><ele>236.0</ele><time>2026-05-02T08:49:06.001Z</time></trkpt><trkpt lat="40.858995191324084" lon="9.385535536781148"><ele>234.33333333333334</ele><time>2026-05-02T08:49:07Z</time></trkpt><trkpt lat="40.85909113540762" lon="9.385749719228743"><ele>232.66666666666669</ele><time>2026-05-02T08:49:08Z</time></trkpt><trkpt lat="40.85918914757621" lon="9.385990668234083"><ele>231.0</ele><time>2026-05-02T08:49:09Z</time></trkpt><trkpt lat="40.85929622786219" lon="9.386222681066808"><ele>233.33333333333331</ele><time>2026-05-02T08:49:10Z</time></trkpt><trkpt lat="40.85940861140915" lon="9.386458760304249"><ele>235.66666666666666</ele><time>2026-05-02T08:49:11Z</time></trkpt><trkpt lat="40.85952531129712" lon="9.386698904233516"><ele>238.0</ele><time>2026-05-02T08:49:12Z</time></trkpt><trkpt lat="40.85962903671384" lon="9.386924184145315"><ele>238.0</ele><time>2026-05-02T08:49:13Z</time></trkpt><trkpt lat="40.859726291508494" lon="9.38713015324664"><ele>238.0</ele><time>2026-05-02T08:49:14Z</time></trkpt><trkpt lat="40.85981358346402" lon="9.387324250422038"><ele>238.0</ele><time>2026-05-02T08:49:15Z</time></trkpt><trkpt lat="40.85989776238892" lon="9.387497207056903"><ele>237.75</ele><time>2026-05-02T08:49:16Z</time></trkpt><trkpt lat="40.85997920145554" lon="9.387657974618705"><ele>237.5</ele><time>2026-05-02T08:49:17Z</time></trkpt><trkpt lat="40.86004719678586" lon="9.38780339268042"><ele>237.25</ele><time>2026-05-02T08:49:18Z</time></trkpt><trkpt lat="40.860104061067055" lon="9.387937035057204"><ele>237.0</ele><time>2026-05-02T08:49:19Z</time></trkpt><trkpt lat="40.860145887939" lon="9.388068108113172"><ele>237.5</ele><time>2026-05-02T08:49:20Z</time></trkpt><trkpt lat="40.86016954425864" lon="9.388223446493612"><ele>238.0</ele><time>2026-05-02T08:49:21Z</time></trkpt><trkpt lat="40.86018361679068" lon="9.388413728489141"><ele>238.5</ele><time>2026-05-02T08:49:22Z</time></trkpt><trkpt lat="40.86019200019648" lon="9.388614051013294"><ele>239.0</ele><time>2026-05-02T08:49:23Z</time></trkpt><trkpt lat="40.86020465742296" lon="9.38879474491457"><ele>238.0</ele><time>2026-05-02T08:49:24Z</time></trkpt><trkpt lat="40.860221388643176" lon="9.388966516612541"><ele>237.0</ele><time>2026-05-02T08:49:25Z</time></trkpt><trkpt lat="40.86023471573274" lon="9.389133930915042"><ele>236.0</ele><time>2026-05-02T08:49:26Z</time></trkpt><trkpt lat="40.860251970897295" lon="9.389300908430403"><ele>235.0</ele><time>2026-05-02T08:49:27Z</time></trkpt><trkpt lat="40.86026930547546" lon="9.389462001791916"><ele>235.0</ele><time>2026-05-02T08:49:28Z</time></trkpt><trkpt lat="40.86028432227466" lon="9.389609731805214"><ele>235.0</ele><time>2026-05-02T08:49:29Z</time></trkpt><trkpt lat="40.860304526981466" lon="9.389749858678485"><ele>235.0</ele><time>2026-05-02T08:49:30Z</time></trkpt><trkpt lat="40.86032809992378" lon="9.389914655685184"><ele>235.0</ele><time>2026-05-02T08:49:31Z</time></trkpt><trkpt lat="40.860340455473505" lon="9.390072749032267"><ele>234.75</ele><time>2026-05-02T08:49:32Z</time></trkpt><trkpt lat="40.86034261220633" lon="9.39024410394633"><ele>234.5</ele><time>2026-05-02T08:49:33Z</time></trkpt><trkpt lat="40.860339215013106" lon="9.39043658469784"><ele>234.25</ele><time>2026-05-02T08:49:34Z</time></trkpt><trkpt lat="40.860337557146615" lon="9.390613998597187"><ele>234.0</ele><time>2026-05-02T08:49:35Z</time></trkpt><trkpt lat="40.860350464240476" lon="9.390790805517014"><ele>233.75</ele><time>2026-05-02T08:49:36Z</time></trkpt><trkpt lat="40.860374698811185" lon="9.390964834729402"><ele>233.5</ele><time>2026-05-02T08:49:37Z</time></trkpt><trkpt lat="40.86041237736921" lon="9.39113598082465"><ele>233.25</ele><time>2026-05-02T08:49:38Z</time></trkpt><trkpt lat="40.86047405465194" lon="9.39130359483287"><ele>233.0</ele><time>2026-05-02T08:49:39Z</time></trkpt><trkpt lat="40.86056673695791" lon="9.39148287476359"><ele>233.0</ele><time>2026-05-02T08:49:40Z</time></trkpt><trkpt lat="40.86065758091472" lon="9.391674842804454"><ele>233.0</ele><time>2026-05-02T08:49:41Z</time></trkpt><trkpt lat="40.86074107369307" lon="9.391847135270034"><ele>233.0</ele><time>2026-05-02T08:49:42Z</time></trkpt><trkpt lat="40.86078981834848" lon="9.392000620045302"><ele>233.0</ele><time>2026-05-02T08:49:43Z</time></trkpt><trkpt lat="40.86081941112048" lon="9.392133376432138"><ele>233.0</ele><time>2026-05-02T08:49:44Z</time></trkpt><trkpt lat="40.860832674121944" lon="9.392254714972625"><ele>233.0</ele><time>2026-05-02T08:49:45Z</time></trkpt><trkpt lat="40.86081347365996" lon="9.392392037081066"><ele>233.0</ele><time>2026-05-02T08:49:46Z</time></trkpt><trkpt lat="40.860788226280704" lon="9.392533259514558"><ele>233.0</ele><time>2026-05-02T08:49:47Z</time></trkpt><trkpt lat="40.86078302231034" lon="9.39266366574209"><ele>233.60000000000002</ele><time>2026-05-02T08:49:48Z</time></trkpt><trkpt lat="40.86079897862384" lon="9.392786788545076"><ele>234.20000000000002</ele><time>2026-05-02T08:49:49Z</time></trkpt><trkpt lat="40.860851409252525" lon="9.392915547617447"><ele>234.8</ele><time>2026-05-02T08:49:50Z</time></trkpt><trkpt lat="40.86089907387659" lon="9.393018501516822"><ele>235.4</ele><time>2026-05-02T08:49:51Z</time></trkpt><trkpt lat="40.86094684174774" lon="9.393131333226716"><ele>236.0</ele><time>2026-05-02T08:49:52Z</time></trkpt><trkpt lat="40.86098947908279" lon="9.393249032335513"><ele>236.50000000000003</ele><time>2026-05-02T08:49:53Z</time></trkpt><trkpt lat="40.86102257044109" lon="9.393373375701128"><ele>237.0</ele><time>2026-05-02T08:49:54Z</time></trkpt><trkpt lat="40.86103806267366" lon="9.393498089005767"><ele>237.5</ele><time>2026-05-02T08:49:55Z</time></trkpt><trkpt lat="40.86104785728944" lon="9.39360822891331"><ele>238.0</ele><time>2026-05-02T08:49:56.001Z</time></trkpt><trkpt lat="40.86104951724561" lon="9.393703612286469"><ele>238.50000000000003</ele><time>2026-05-02T08:49:57.001Z</time></trkpt><trkpt lat="40.86106638479251" lon="9.393790205613302"><ele>239.0</ele><time>2026-05-02T08:49:58.001Z</time></trkpt><trkpt lat="40.86109395919669" lon="9.393874662131694"><ele>239.0</ele><time>2026-05-02T08:49:59.001Z</time></trkpt><trkpt lat="40.86113376425727" lon="9.393973999515108"><ele>238.99999999999997</ele><time>2026-05-02T08:50:00.001Z</time></trkpt><trkpt lat="40.86118574304016" lon="9.394079173406013"><ele>238.99999999999997</ele><time>2026-05-02T08:50:01.001Z</time></trkpt><trkpt lat="40.861247862657216" lon="9.39419356290447"><ele>239.0</ele><time>2026-05-02T08:50:02.001Z</time></trkpt><trkpt lat="40.86131613384219" lon="9.394320527690038"><ele>239.0</ele><time>2026-05-02T08:50:03.001Z</time></trkpt><trkpt lat="40.8613837436789" lon="9.394456752120341"><ele>239.0</ele><time>2026-05-02T08:50:04.001Z</time></trkpt><trkpt lat="40.86145034512676" lon="9.394610436540155"><ele>239.0</ele><time>2026-05-02T08:50:05.001Z</time></trkpt><trkpt lat="40.86151622539861" lon="9.394780485157845"><ele>239.0</ele><time>2026-05-02T08:50:06.001Z</time></trkpt><trkpt lat="40.86157228958348" lon="9.394928786706606"><ele>239.0</ele><time>2026-05-02T08:50:07.001Z</time></trkpt><trkpt lat="40.861621098346546" lon="9.395064783842251"><ele>238.79999999999998</ele><time>2026-05-02T08:50:08.001Z</time></trkpt><trkpt lat="40.861655263482064" lon="9.395178747661307"><ele>238.59999999999997</ele><time>2026-05-02T08:50:09.001Z</time></trkpt><trkpt lat="40.86167468146394" lon="9.39528362853878"><ele>238.4</ele><time>2026-05-02T08:50:10.001Z</time></trkpt><trkpt lat="40.86167558784558" lon="9.395389324310875"><ele>238.2</ele><time>2026-05-02T08:50:11.001Z</time></trkpt><trkpt lat="40.86166895679115" lon="9.395516416294694"><ele>238.0</ele><time>2026-05-02T08:50:12.001Z</time></trkpt><trkpt lat="40.861652500036065" lon="9.395664340851258"><ele>237.75</ele><time>2026-05-02T08:50:13.001Z</time></trkpt><trkpt lat="40.861622487732504" lon="9.395838085657374"><ele>237.5</ele><time>2026-05-02T08:50:14.001Z</time></trkpt><trkpt lat="40.861586294768415" lon="9.396025895752386"><ele>237.25</ele><time>2026-05-02T08:50:15.001Z</time></trkpt><trkpt lat="40.86154486777644" lon="9.396211608707638"><ele>237.0</ele><time>2026-05-02T08:50:16.001Z</time></trkpt><trkpt lat="40.86150411663032" lon="9.396413135639182"><ele>237.0</ele><time>2026-05-02T08:50:17.001Z</time></trkpt><trkpt lat="40.86147536502261" lon="9.396605218815974"><ele>237.0</ele><time>2026-05-02T08:50:18.001Z</time></trkpt><trkpt lat="40.86144798962908" lon="9.39679826803667"><ele>237.0</ele><time>2026-05-02T08:50:19.001Z</time></trkpt><trkpt lat="40.8614132040414" lon="9.39698616731362"><ele>237.0</ele><time>2026-05-02T08:50:20.001Z</time></trkpt><trkpt lat="40.861381742586616" lon="9.397174183180235"><ele>237.5</ele><time>2026-05-02T08:50:21.001Z</time></trkpt><trkpt lat="40.86135029559199" lon="9.397366726043744"><ele>238.0</ele><time>2026-05-02T08:50:22.001Z</time></trkpt><trkpt lat="40.86131820668357" lon="9.397560066225275"><ele>238.5</ele><time>2026-05-02T08:50:23.001Z</time></trkpt><trkpt lat="40.86128884785986" lon="9.39775562623483"><ele>239.0</ele><time>2026-05-02T08:50:24.001Z</time></trkpt><trkpt lat="40.861257028138276" lon="9.397941663873004"><ele>239.0</ele><time>2026-05-02T08:50:25.001Z</time></trkpt><trkpt lat="40.86122741925822" lon="9.398119181396671"><ele>239.0</ele><time>2026-05-02T08:50:26.001Z</time></trkpt><trkpt lat="40.86119805095772" lon="9.398295588497428"><ele>239.0</ele><time>2026-05-02T08:50:27.001Z</time></trkpt><trkpt lat="40.8611698403859" lon="9.398464240989286"><ele>239.0</ele><time>2026-05-02T08:50:28.001Z</time></trkpt><trkpt lat="40.86114188582688" lon="9.398622195658994"><ele>239.0</ele><time>2026-05-02T08:50:29.001Z</time></trkpt><trkpt lat="40.86111579951214" lon="9.398777683897494"><ele>239.0</ele><time>2026-05-02T08:50:30.001Z</time></trkpt><trkpt lat="40.86108934763599" lon="9.398934346661939"><ele>239.0</ele><time>2026-05-02T08:50:31.001Z</time></trkpt><trkpt lat="40.861061445498585" lon="9.399093449226116"><ele>239.0</ele><time>2026-05-02T08:50:32.001Z</time></trkpt><trkpt lat="40.86103016437003" lon="9.399259622447182"><ele>238.75</ele><time>2026-05-02T08:50:33.001Z</time></trkpt><trkpt lat="40.8610019970852" lon="9.399423456449219"><ele>238.5</ele><time>2026-05-02T08:50:34.001Z</time></trkpt><trkpt lat="40.86097365544023" lon="9.39958594229781"><ele>238.25</ele><time>2026-05-02T08:50:35.001Z</time></trkpt><trkpt lat="40.86094535690922" lon="9.399744914975754"><ele>238.0</ele><time>2026-05-02T08:50:36.001Z</time></trkpt><trkpt lat="40.86092069109792" lon="9.39989366132408"><ele>238.8</ele><time>2026-05-02T08:50:37.001Z</time></trkpt><trkpt lat="40.86090008811928" lon="9.400035255331488"><ele>239.60000000000002</ele><time>2026-05-02T08:50:38.001Z</time></trkpt><trkpt lat="40.860878903680316" lon="9.400172240398609"><ele>240.39999999999998</ele><time>2026-05-02T08:50:39.001Z</time></trkpt><trkpt lat="40.86085358849938" lon="9.400299154352656"><ele>241.2</ele><time>2026-05-02T08:50:40.001Z</time></trkpt><trkpt lat="40.860821399819685" lon="9.400418000738421"><ele>242.0</ele><time>2026-05-02T08:50:41.001Z</time></trkpt><trkpt lat="40.86078123321264" lon="9.40053083415342"><ele>242.2</ele><time>2026-05-02T08:50:42.001Z</time></trkpt><trkpt lat="40.86073750800529" lon="9.400648550974855"><ele>242.39999999999998</ele><time>2026-05-02T08:50:43.001Z</time></trkpt><trkpt lat="40.86068533206866" lon="9.400760797702212"><ele>242.60000000000002</ele><time>2026-05-02T08:50:44.001Z</time></trkpt><trkpt lat="40.860636021540984" lon="9.400875983406214"><ele>242.8</ele><time>2026-05-02T08:50:45.001Z</time></trkpt><trkpt lat="40.860585184870786" lon="9.400994251301233"><ele>243.0</ele><time>2026-05-02T08:50:46.001Z</time></trkpt><trkpt lat="40.86053173161176" lon="9.401121540049992"><ele>243.0</ele><time>2026-05-02T08:50:47Z</time></trkpt><trkpt lat="40.86047261596399" lon="9.401256201136905"><ele>243.0</ele><time>2026-05-02T08:50:48Z</time></trkpt><trkpt lat="40.860418566705505" lon="9.401395442114806"><ele>243.0</ele><time>2026-05-02T08:50:49Z</time></trkpt><trkpt lat="40.86037084097177" lon="9.4015367029006"><ele>243.0</ele><time>2026-05-02T08:50:50Z</time></trkpt><trkpt lat="40.86032625251892" lon="9.401673845348904"><ele>243.2</ele><time>2026-05-02T08:50:51Z</time></trkpt><trkpt lat="40.86028884046415" lon="9.40180601411058"><ele>243.4</ele><time>2026-05-02T08:50:52Z</time></trkpt><trkpt lat="40.86025792494164" lon="9.401936455799367"><ele>243.59999999999997</ele><time>2026-05-02T08:50:53Z</time></trkpt><trkpt lat="40.860219996706725" lon="9.402057592371603"><ele>243.79999999999998</ele><time>2026-05-02T08:50:54Z</time></trkpt><trkpt lat="40.86018885533774" lon="9.402187153513376"><ele>244.0</ele><time>2026-05-02T08:50:55Z</time></trkpt><trkpt lat="40.86016074935701" lon="9.402351471970071"><ele>242.25</ele><time>2026-05-02T08:50:56Z</time></trkpt><trkpt lat="40.860138536661914" lon="9.402512914697233"><ele>240.5</ele><time>2026-05-02T08:50:57Z</time></trkpt><trkpt lat="40.86012136811466" lon="9.402684971179715"><ele>238.75</ele><time>2026-05-02T08:50:58Z</time></trkpt><trkpt lat="40.86009643820755" lon="9.402855630511747"><ele>237.0</ele><time>2026-05-02T08:50:59Z</time></trkpt><trkpt lat="40.86006292623605" lon="9.403028720507038"><ele>235.25</ele><time>2026-05-02T08:51:00Z</time></trkpt><trkpt lat="40.860024575207376" lon="9.403207607489147"><ele>233.5</ele><time>2026-05-02T08:51:01Z</time></trkpt><trkpt lat="40.85998819927348" lon="9.403379982743479"><ele>231.75</ele><time>2026-05-02T08:51:02Z</time></trkpt><trkpt lat="40.85995120306588" lon="9.403549033452107"><ele>230.0</ele><time>2026-05-02T08:51:03Z</time></trkpt><trkpt lat="40.85991897371456" lon="9.403717575192566"><ele>230.0</ele><time>2026-05-02T08:51:04Z</time></trkpt><trkpt lat="40.85989133826932" lon="9.40388341405595"><ele>230.0</ele><time>2026-05-02T08:51:05Z</time></trkpt><trkpt lat="40.85987216557076" lon="9.40405467953016"><ele>230.0</ele><time>2026-05-02T08:51:06Z</time></trkpt><trkpt lat="40.85985890826887" lon="9.404228057621854"><ele>230.0</ele><time>2026-05-02T08:51:07Z</time></trkpt><trkpt lat="40.85984609421057" lon="9.404403200586236"><ele>230.0</ele><time>2026-05-02T08:51:08Z</time></trkpt><trkpt lat="40.85983320061325" lon="9.404583626534313"><ele>230.0</ele><time>2026-05-02T08:51:09Z</time></trkpt><trkpt lat="40.85981660629887" lon="9.404757624102402"><ele>230.0</ele><time>2026-05-02T08:51:10Z</time></trkpt><trkpt lat="40.859801114357424" lon="9.404936259533057"><ele>230.0</ele><time>2026-05-02T08:51:11Z</time></trkpt><trkpt lat="40.859789793272945" lon="9.405119227085889"><ele>230.0</ele><time>2026-05-02T08:51:12Z</time></trkpt><trkpt lat="40.859773264522225" lon="9.405302553548452"><ele>230.0</ele><time>2026-05-02T08:51:13Z</time></trkpt><trkpt lat="40.85976108503007" lon="9.405479988756397"><ele>230.0</ele><time>2026-05-02T08:51:14Z</time></trkpt><trkpt lat="40.85975614830508" lon="9.405655594816656"><ele>230.0</ele><time>2026-05-02T08:51:15Z</time></trkpt><trkpt lat="40.85975935315964" lon="9.405834809241984"><ele>230.0</ele><time>2026-05-02T08:51:16Z</time></trkpt><trkpt lat="40.859766687312145" lon="9.406020520577846"><ele>230.0</ele><time>2026-05-02T08:51:17Z</time></trkpt><trkpt lat="40.8597726471613" lon="9.406196751724266"><ele>230.0</ele><time>2026-05-02T08:51:18Z</time></trkpt><trkpt lat="40.8597825412583" lon="9.406364919208093"><ele>230.0</ele><time>2026-05-02T08:51:19Z</time></trkpt><trkpt lat="40.859795419224234" lon="9.406518771067587"><ele>230.0</ele><time>2026-05-02T08:51:20Z</time></trkpt><trkpt lat="40.85980870026286" lon="9.406670058417932"><ele>230.0</ele><time>2026-05-02T08:51:21Z</time></trkpt><trkpt lat="40.85982011215526" lon="9.406835062058198"><ele>230.0</ele><time>2026-05-02T08:51:22Z</time></trkpt><trkpt lat="40.8598376186878" lon="9.407005116083228"><ele>230.0</ele><time>2026-05-02T08:51:23Z</time></trkpt><trkpt lat="40.85986043323886" lon="9.407178696774473"><ele>230.0</ele><time>2026-05-02T08:51:24Z</time></trkpt><trkpt lat="40.85988727769932" lon="9.40735833379284"><ele>230.0</ele><time>2026-05-02T08:51:25Z</time></trkpt><trkpt lat="40.85991549385051" lon="9.407544967802995"><ele>230.0</ele><time>2026-05-02T08:51:26Z</time></trkpt><trkpt lat="40.85994651543387" lon="9.407743469059067"><ele>230.0</ele><time>2026-05-02T08:51:27Z</time></trkpt><trkpt lat="40.85997176860275" lon="9.407947665095232"><ele>230.25</ele><time>2026-05-02T08:51:28Z</time></trkpt><trkpt lat="40.85998792727312" lon="9.408139406347308"><ele>230.5</ele><time>2026-05-02T08:51:29Z</time></trkpt><trkpt lat="40.86000192161801" lon="9.40830345463006"><ele>230.75</ele><time>2026-05-02T08:51:30Z</time></trkpt><trkpt lat="40.86001615470924" lon="9.408458629076453"><ele>231.0</ele><time>2026-05-02T08:51:31Z</time></trkpt><trkpt lat="40.86001849160856" lon="9.408609134614224"><ele>231.0</ele><time>2026-05-02T08:51:32Z</time></trkpt><trkpt lat="40.86001949644614" lon="9.40875694126621"><ele>231.0</ele><time>2026-05-02T08:51:33Z</time></trkpt><trkpt lat="40.8600201288317" lon="9.408908584293998"><ele>231.0</ele><time>2026-05-02T08:51:34Z</time></trkpt><trkpt lat="40.86002021640081" lon="9.409062054107865"><ele>231.0</ele><time>2026-05-02T08:51:35Z</time></trkpt><trkpt lat="40.860017961631634" lon="9.409219186159607"><ele>230.75</ele><time>2026-05-02T08:51:36Z</time></trkpt><trkpt lat="40.860014737937824" lon="9.409377487316533"><ele>230.5</ele><time>2026-05-02T08:51:37Z</time></trkpt><trkpt lat="40.86001086322037" lon="9.409531855496677"><ele>230.25</ele><time>2026-05-02T08:51:38Z</time></trkpt><trkpt lat="40.86001332128884" lon="9.409681716088189"><ele>230.0</ele><time>2026-05-02T08:51:39Z</time></trkpt><trkpt lat="40.86002207191299" lon="9.409821675815163"><ele>228.83333333333334</ele><time>2026-05-02T08:51:40Z</time></trkpt><trkpt lat="40.86003759503365" lon="9.409948028939487"><ele>227.66666666666669</ele><time>2026-05-02T08:51:41Z</time></trkpt><trkpt lat="40.860051603284994" lon="9.410061288101758"><ele>226.5</ele><time>2026-05-02T08:51:42Z</time></trkpt><trkpt lat="40.86006015193628" lon="9.410162217802664"><ele>225.33333333333331</ele><time>2026-05-02T08:51:43Z</time></trkpt><trkpt lat="40.860050851254414" lon="9.410253531788848"><ele>224.16666666666666</ele><time>2026-05-02T08:51:44Z</time></trkpt><trkpt lat="40.86002818662258" lon="9.410332071926556"><ele>223.0</ele><time>2026-05-02T08:51:45Z</time></trkpt><trkpt lat="40.85998390227159" lon="9.410402055126655"><ele>222.99999999999997</ele><time>2026-05-02T08:51:46Z</time></trkpt><trkpt lat="40.859926641385364" lon="9.410449164319312"><ele>223.0</ele><time>2026-05-02T08:51:47Z</time></trkpt><trkpt lat="40.85985079022662" lon="9.410483313008926"><ele>223.0</ele><time>2026-05-02T08:51:48Z</time></trkpt><trkpt lat="40.85978540441713" lon="9.410530286086946"><ele>223.0</ele><time>2026-05-02T08:51:49Z</time></trkpt><trkpt lat="40.85973836057518" lon="9.410600794442404"><ele>222.99999999999997</ele><time>2026-05-02T08:51:50Z</time></trkpt><trkpt lat="40.85971131440582" lon="9.41069133659205"><ele>223.0</ele><time>2026-05-02T08:51:51Z</time></trkpt><trkpt lat="40.859714970693226" lon="9.410808197295372"><ele>221.49999999999997</ele><time>2026-05-02T08:51:52Z</time></trkpt><trkpt lat="40.85973739485413" lon="9.4109407691208"><ele>220.0</ele><time>2026-05-02T08:51:53Z</time></trkpt><trkpt lat="40.85974521933276" lon="9.411054681119998"><ele>218.5</ele><time>2026-05-02T08:51:54Z</time></trkpt><trkpt lat="40.85973212486486" lon="9.411155681978567"><ele>217.0</ele><time>2026-05-02T08:51:55Z</time></trkpt><trkpt lat="40.85969912681858" lon="9.411257288605857"><ele>215.49999999999997</ele><time>2026-05-02T08:51:56Z</time></trkpt><trkpt lat="40.85963301227244" lon="9.411348339626352"><ele>214.0</ele><time>2026-05-02T08:51:57Z</time></trkpt><trkpt lat="40.85956111401215" lon="9.411431342259235"><ele>212.6</ele><time>2026-05-02T08:51:58Z</time></trkpt><trkpt lat="40.859505605932625" lon="9.411508123006765"><ele>211.2</ele><time>2026-05-02T08:51:59Z</time></trkpt><trkpt lat="40.85948653082892" lon="9.411613855725053"><ele>209.79999999999998</ele><time>2026-05-02T08:52:00Z</time></trkpt><trkpt lat="40.85948320161388" lon="9.411752228643401"><ele>208.39999999999998</ele><time>2026-05-02T08:52:01Z</time></trkpt><trkpt lat="40.85949084337479" lon="9.411846950609705"><ele>207.0</ele><time>2026-05-02T08:52:02Z</time></trkpt><trkpt lat="40.85941547281986" lon="9.411966224723635"><ele>207.0</ele><time>2026-05-02T08:52:04Z</time></trkpt><trkpt lat="40.8593447968896" lon="9.411981039689216"><ele>207.0</ele><time>2026-05-02T08:52:05Z</time></trkpt><trkpt lat="40.85925911007029" lon="9.411992429055992"><ele>207.0</ele><time>2026-05-02T08:52:06Z</time></trkpt><trkpt lat="40.85918461464765" lon="9.412035112164562"><ele>207.0</ele><time>2026-05-02T08:52:07Z</time></trkpt><trkpt lat="40.85912126231552" lon="9.412058365422386"><ele>207.0</ele><time>2026-05-02T08:52:08Z</time></trkpt><trkpt lat="40.859016672356915" lon="9.412038024622392"><ele>207.0</ele><time>2026-05-02T08:52:10Z</time></trkpt><trkpt lat="40.85896472890066" lon="9.41196471382687"><ele>208.8</ele><time>2026-05-02T08:52:11Z</time></trkpt><trkpt lat="40.858896402173905" lon="9.411867680136204"><ele>210.6</ele><time>2026-05-02T08:52:12Z</time></trkpt><trkpt lat="40.85878940656475" lon="9.41184129535346"><ele>212.40000000000003</ele><time>2026-05-02T08:52:13Z</time></trkpt><trkpt lat="40.85870595274496" lon="9.411793748593144"><ele>214.20000000000002</ele><time>2026-05-02T08:52:14Z</time></trkpt><trkpt lat="40.85863850067867" lon="9.411767178981798"><ele>216.0</ele><time>2026-05-02T08:52:15Z</time></trkpt><trkpt lat="40.85851358988192" lon="9.41179077592324"><ele>215.83333333333334</ele><time>2026-05-02T08:52:17Z</time></trkpt><trkpt lat="40.85843569962913" lon="9.411849681610176"><ele>215.66666666666669</ele><time>2026-05-02T08:52:18Z</time></trkpt><trkpt lat="40.85835774435124" lon="9.411904451197076"><ele>215.5</ele><time>2026-05-02T08:52:19Z</time></trkpt><trkpt lat="40.85826844127479" lon="9.411934955172732"><ele>215.33333333333334</ele><time>2026-05-02T08:52:20Z</time></trkpt><trkpt lat="40.858173395602954" lon="9.41194212693507"><ele>215.16666666666669</ele><time>2026-05-02T08:52:21Z</time></trkpt><trkpt lat="40.85809201869687" lon="9.41195207018813"><ele>215.0</ele><time>2026-05-02T08:52:22Z</time></trkpt><trkpt lat="40.858020963413786" lon="9.411986232431222"><ele>215.00000000000003</ele><time>2026-05-02T08:52:23Z</time></trkpt><trkpt lat="40.857965300408004" lon="9.41203917895078"><ele>215.0</ele><time>2026-05-02T08:52:24Z</time></trkpt><trkpt lat="40.85793407741976" lon="9.412193361603702"><ele>215.0</ele><time>2026-05-02T08:52:26Z</time></trkpt><trkpt lat="40.857955632844096" lon="9.412293597497849"><ele>215.0</ele><time>2026-05-02T08:52:27Z</time></trkpt><trkpt lat="40.85796290983645" lon="9.412399064840324"><ele>215.00000000000003</ele><time>2026-05-02T08:52:28Z</time></trkpt><trkpt lat="40.85797295231065" lon="9.412492496072497"><ele>215.0</ele><time>2026-05-02T08:52:29Z</time></trkpt><trkpt lat="40.857918431366315" lon="9.41264620476675"><ele>214.14285714285714</ele><time>2026-05-02T08:52:31Z</time></trkpt><trkpt lat="40.85787236596764" lon="9.41273066965385"><ele>213.2857142857143</ele><time>2026-05-02T08:52:32Z</time></trkpt><trkpt lat="40.857825944851584" lon="9.412793565748506"><ele>212.42857142857144</ele><time>2026-05-02T08:52:33Z</time></trkpt><trkpt lat="40.85776542061253" lon="9.41284744352121"><ele>211.57142857142856</ele><time>2026-05-02T08:52:34Z</time></trkpt><trkpt lat="40.85770199938627" lon="9.412888018890257"><ele>210.71428571428572</ele><time>2026-05-02T08:52:35Z</time></trkpt><trkpt lat="40.85763537899808" lon="9.412914098985185"><ele>209.85714285714286</ele><time>2026-05-02T08:52:36Z</time></trkpt><trkpt lat="40.85757107160349" lon="9.41292978172475"><ele>209.0</ele><time>2026-05-02T08:52:37Z</time></trkpt><trkpt lat="40.85750115184008" lon="9.412941153906075"><ele>208.50000000000003</ele><time>2026-05-02T08:52:38Z</time></trkpt><trkpt lat="40.85742936697705" lon="9.412957730570112"><ele>208.0</ele><time>2026-05-02T08:52:39Z</time></trkpt><trkpt lat="40.857345052388155" lon="9.412994928129493"><ele>207.5</ele><time>2026-05-02T08:52:40Z</time></trkpt><trkpt lat="40.857261877882934" lon="9.413041744258518"><ele>207.0</ele><time>2026-05-02T08:52:41Z</time></trkpt><trkpt lat="40.857174322834126" lon="9.413090030411862"><ele>206.50000000000003</ele><time>2026-05-02T08:52:42Z</time></trkpt><trkpt lat="40.8570849962057" lon="9.413137819020545"><ele>206.0</ele><time>2026-05-02T08:52:43Z</time></trkpt><trkpt lat="40.856995533497305" lon="9.413186873925788"><ele>204.8</ele><time>2026-05-02T08:52:44Z</time></trkpt><trkpt lat="40.85690269295101" lon="9.413231590044395"><ele>203.60000000000002</ele><time>2026-05-02T08:52:45Z</time></trkpt><trkpt lat="40.85680637489546" lon="9.413275426887662"><ele>202.4</ele><time>2026-05-02T08:52:46Z</time></trkpt><trkpt lat="40.85669559727197" lon="9.413328651485218"><ele>201.2</ele><time>2026-05-02T08:52:47Z</time></trkpt><trkpt lat="40.85658234933753" lon="9.413382238987415"><ele>200.0</ele><time>2026-05-02T08:52:48Z</time></trkpt><trkpt lat="40.85647217596126" lon="9.41342718631924"><ele>198.0</ele><time>2026-05-02T08:52:49Z</time></trkpt><trkpt lat="40.856367735650906" lon="9.413469663346282"><ele>196.0</ele><time>2026-05-02T08:52:50Z</time></trkpt><trkpt lat="40.856272618213914" lon="9.413509816908391"><ele>194.0</ele><time>2026-05-02T08:52:51Z</time></trkpt><trkpt lat="40.85618360174891" lon="9.413542535623334"><ele>192.0</ele><time>2026-05-02T08:52:52Z</time></trkpt><trkpt lat="40.856095358118566" lon="9.41357628572863"><ele>190.0</ele><time>2026-05-02T08:52:53Z</time></trkpt><trkpt lat="40.85600582923757" lon="9.413597835745366"><ele>186.25</ele><time>2026-05-02T08:52:54Z</time></trkpt><trkpt lat="40.85590708283521" lon="9.413598326904731"><ele>182.5</ele><time>2026-05-02T08:52:55Z</time></trkpt><trkpt lat="40.85578945868245" lon="9.41357615122979"><ele>178.75</ele><time>2026-05-02T08:52:56Z</time></trkpt><trkpt lat="40.85566484292049" lon="9.413530590420308"><ele>175.0</ele><time>2026-05-02T08:52:57Z</time></trkpt><trkpt lat="40.85556610722667" lon="9.413484661001695"><ele>175.0</ele><time>2026-05-02T08:52:58Z</time></trkpt><trkpt lat="40.855479672826334" lon="9.413456973359983"><ele>175.0</ele><time>2026-05-02T08:52:59Z</time></trkpt><trkpt lat="40.855401991723205" lon="9.413466659127582"><ele>175.0</ele><time>2026-05-02T08:53:00Z</time></trkpt><trkpt lat="40.85532586945134" lon="9.413513719525811"><ele>175.0</ele><time>2026-05-02T08:53:01Z</time></trkpt><trkpt lat="40.855254457274974" lon="9.413604069900272"><ele>175.0</ele><time>2026-05-02T08:53:02Z</time></trkpt><trkpt lat="40.8551938045588" lon="9.413712668552595"><ele>176.66666666666669</ele><time>2026-05-02T08:53:03Z</time></trkpt><trkpt lat="40.855154842263254" lon="9.413842256898995"><ele>178.33333333333334</ele><time>2026-05-02T08:53:04Z</time></trkpt><trkpt lat="40.8551352820088" lon="9.413973917027118"><ele>180.0</ele><time>2026-05-02T08:53:05Z</time></trkpt><trkpt lat="40.855117696761994" lon="9.414081168542147"><ele>181.66666666666666</ele><time>2026-05-02T08:53:06Z</time></trkpt><trkpt lat="40.85509703586786" lon="9.414174385870641"><ele>183.33333333333331</ele><time>2026-05-02T08:53:07Z</time></trkpt><trkpt lat="40.85506143160454" lon="9.414255700898938"><ele>185.0</ele><time>2026-05-02T08:53:08Z</time></trkpt><trkpt lat="40.85500466903562" lon="9.414311591891463"><ele>179.0</ele><time>2026-05-02T08:53:09Z</time></trkpt><trkpt lat="40.8549244996038" lon="9.414339515966066"><ele>173.0</ele><time>2026-05-02T08:53:10Z</time></trkpt><trkpt lat="40.854839710885784" lon="9.414332431273642"><ele>167.0</ele><time>2026-05-02T08:53:11Z</time></trkpt><trkpt lat="40.85474848083318" lon="9.414307960195426"><ele>161.0</ele><time>2026-05-02T08:53:12Z</time></trkpt><trkpt lat="40.85463308834989" lon="9.414264232104694"><ele>155.0</ele><time>2026-05-02T08:53:13Z</time></trkpt><trkpt lat="40.854499137204186" lon="9.414201159567641"><ele>155.0</ele><time>2026-05-02T08:53:14Z</time></trkpt><trkpt lat="40.85434870039932" lon="9.414135372399242"><ele>155.0</ele><time>2026-05-02T08:53:15Z</time></trkpt><trkpt lat="40.85444419557696" lon="9.41413371951673"><ele>155.0</ele><time>2026-05-02T08:53:16Z</time></trkpt><trkpt lat="40.85437574024068" lon="9.414081450687474"><ele>155.0</ele><time>2026-05-02T08:53:17Z</time></trkpt><trkpt lat="40.85430909617387" lon="9.41407287620557"><ele>155.0</ele><time>2026-05-02T08:53:18Z</time></trkpt><trkpt lat="40.85420686993222" lon="9.414173612332277"><ele>152.0</ele><time>2026-05-02T08:53:20Z</time></trkpt><trkpt lat="40.8541706356376" lon="9.414260912353793"><ele>149.0</ele><time>2026-05-02T08:53:21Z</time></trkpt><trkpt lat="40.85415222418569" lon="9.414356772270539"><ele>146.0</ele><time>2026-05-02T08:53:22Z</time></trkpt><trkpt lat="40.85413764036596" lon="9.414443264168339"><ele>143.0</ele><time>2026-05-02T08:53:23Z</time></trkpt><trkpt lat="40.85404693196919" lon="9.414570947206284"><ele>140.0</ele><time>2026-05-02T08:53:25Z</time></trkpt><trkpt lat="40.85396086021336" lon="9.414600002320876"><ele>137.0</ele><time>2026-05-02T08:53:26Z</time></trkpt><trkpt lat="40.85387910961288" lon="9.414629222039897"><ele>135.83333333333331</ele><time>2026-05-02T08:53:27Z</time></trkpt><trkpt lat="40.85381519705212" lon="9.414692619966798"><ele>134.66666666666666</ele><time>2026-05-02T08:53:28Z</time></trkpt><trkpt lat="40.85375609096019" lon="9.41478360575846"><ele>133.5</ele><time>2026-05-02T08:53:29Z</time></trkpt><trkpt lat="40.85369267491134" lon="9.41483524509044"><ele>132.33333333333334</ele><time>2026-05-02T08:53:30Z</time></trkpt><trkpt lat="40.853622751073274" lon="9.414849173563006"><ele>131.16666666666669</ele><time>2026-05-02T08:53:31Z</time></trkpt><trkpt lat="40.85355139397186" lon="9.41483520243087"><ele>130.0</ele><time>2026-05-02T08:53:32Z</time></trkpt><trkpt lat="40.85347518463561" lon="9.414932029072563"><ele>126.6</ele><time>2026-05-02T08:53:34Z</time></trkpt><trkpt lat="40.85345166101887" lon="9.41506779785373"><ele>123.2</ele><time>2026-05-02T08:53:35Z</time></trkpt><trkpt lat="40.853416872148195" lon="9.415190944963486"><ele>119.80000000000001</ele><time>2026-05-02T08:53:36Z</time></trkpt><trkpt lat="40.85337180588466" lon="9.415293988122256"><ele>116.4</ele><time>2026-05-02T08:53:37Z</time></trkpt><trkpt lat="40.85332631516392" lon="9.415356764017169"><ele>113.0</ele><time>2026-05-02T08:53:38Z</time></trkpt><trkpt lat="40.85322240004069" lon="9.415340179301433"><ele>113.0</ele><time>2026-05-02T08:53:40Z</time></trkpt><trkpt lat="40.85315583039617" lon="9.415289984251134"><ele>113.00000000000001</ele><time>2026-05-02T08:53:41Z</time></trkpt><trkpt lat="40.85305983420462" lon="9.41522028874783"><ele>113.00000000000001</ele><time>2026-05-02T08:53:42Z</time></trkpt><trkpt lat="40.852960796582586" lon="9.415147937225644"><ele>113.0</ele><time>2026-05-02T08:53:43Z</time></trkpt><trkpt lat="40.852855767145705" lon="9.41508414255971"><ele>113.0</ele><time>2026-05-02T08:53:44Z</time></trkpt><trkpt lat="40.85277540218696" lon="9.415043102736465"><ele>113.0</ele><time>2026-05-02T08:53:45Z</time></trkpt><trkpt lat="40.85271057430512" lon="9.415021243191855"><ele>113.00000000000001</ele><time>2026-05-02T08:53:46Z</time></trkpt><trkpt lat="40.85261232788059" lon="9.41508188396845"><ele>113.00000000000001</ele><time>2026-05-02T08:53:48Z</time></trkpt><trkpt lat="40.85260754696926" lon="9.415254440423858"><ele>113.0</ele><time>2026-05-02T08:53:50Z</time></trkpt><trkpt lat="40.852643737657985" lon="9.41536869892297"><ele>113.0</ele><time>2026-05-02T08:53:51Z</time></trkpt><trkpt lat="40.852687775621185" lon="9.415502430686294"><ele>111.2</ele><time>2026-05-02T08:53:52Z</time></trkpt><trkpt lat="40.85273210839601" lon="9.415636660328914"><ele>109.4</ele><time>2026-05-02T08:53:53Z</time></trkpt><trkpt lat="40.85277515547259" lon="9.415762350420758"><ele>107.60000000000001</ele><time>2026-05-02T08:53:54Z</time></trkpt><trkpt lat="40.85281008648399" lon="9.41590402346042"><ele>105.80000000000001</ele><time>2026-05-02T08:53:55Z</time></trkpt><trkpt lat="40.85283270034164" lon="9.416027230933759"><ele>104.0</ele><time>2026-05-02T08:53:56Z</time></trkpt><trkpt lat="40.85284935637287" lon="9.416151192659619"><ele>104.0</ele><time>2026-05-02T08:53:57Z</time></trkpt><trkpt lat="40.852867665044656" lon="9.416287478446089"><ele>104.0</ele><time>2026-05-02T08:53:58Z</time></trkpt><trkpt lat="40.852885601243166" lon="9.416436348830956"><ele>104.0</ele><time>2026-05-02T08:53:59Z</time></trkpt><trkpt lat="40.852894437162476" lon="9.416597224671856"><ele>104.0</ele><time>2026-05-02T08:54:00Z</time></trkpt><trkpt lat="40.85289652084495" lon="9.416732420733599"><ele>104.0</ele><time>2026-05-02T08:54:01Z</time></trkpt><trkpt lat="40.85289338201065" lon="9.416854004190157"><ele>102.2</ele><time>2026-05-02T08:54:02Z</time></trkpt><trkpt lat="40.85288165966459" lon="9.416955030789651"><ele>100.4</ele><time>2026-05-02T08:54:03Z</time></trkpt><trkpt lat="40.852854627492846" lon="9.41704998951371"><ele>98.6</ele><time>2026-05-02T08:54:04Z</time></trkpt><trkpt lat="40.852801496625126" lon="9.417136274404841"><ele>96.8</ele><time>2026-05-02T08:54:05Z</time></trkpt><trkpt lat="40.852723573954755" lon="9.417226971301304"><ele>95.0</ele><time>2026-05-02T08:54:06Z</time></trkpt><trkpt lat="40.85261831740957" lon="9.417330321227617"><ele>90.75</ele><time>2026-05-02T08:54:07Z</time></trkpt><trkpt lat="40.85251612413682" lon="9.417438787818236"><ele>86.5</ele><time>2026-05-02T08:54:08Z</time></trkpt><trkpt lat="40.85241825277592" lon="9.417543069952632"><ele>82.25</ele><time>2026-05-02T08:54:09Z</time></trkpt><trkpt lat="40.8523224222412" lon="9.417647099078557"><ele>78.0</ele><time>2026-05-02T08:54:10Z</time></trkpt><trkpt lat="40.85223002609929" lon="9.417748120884598"><ele>78.0</ele><time>2026-05-02T08:54:11Z</time></trkpt><trkpt lat="40.852131067347614" lon="9.417851661545127"><ele>78.0</ele><time>2026-05-02T08:54:12Z</time></trkpt><trkpt lat="40.85202629567678" lon="9.417959111027706"><ele>78.0</ele><time>2026-05-02T08:54:13Z</time></trkpt><trkpt lat="40.85192185557389" lon="9.418064189874764"><ele>78.0</ele><time>2026-05-02T08:54:14Z</time></trkpt><trkpt lat="40.85181983187139" lon="9.418158886378931"><ele>76.6</ele><time>2026-05-02T08:54:15Z</time></trkpt><trkpt lat="40.851724411810565" lon="9.418248687346923"><ele>75.19999999999999</ele><time>2026-05-02T08:54:16Z</time></trkpt><trkpt lat="40.851638772133064" lon="9.418327984531041"><ele>73.8</ele><time>2026-05-02T08:54:17Z</time></trkpt><trkpt lat="40.85155356409742" lon="9.418396163246808"><ele>72.39999999999999</ele><time>2026-05-02T08:54:18Z</time></trkpt><trkpt lat="40.8514691667143" lon="9.418451327060259"><ele>71.0</ele><time>2026-05-02T08:54:19Z</time></trkpt><trkpt lat="40.851386863799135" lon="9.41849600209911"><ele>71.0</ele><time>2026-05-02T08:54:20Z</time></trkpt><trkpt lat="40.85129795291991" lon="9.418516128122503"><ele>71.0</ele><time>2026-05-02T08:54:21Z</time></trkpt><trkpt lat="40.85119124909853" lon="9.41851311837006"><ele>71.0</ele><time>2026-05-02T08:54:22Z</time></trkpt><trkpt lat="40.85106266798076" lon="9.418485210471575"><ele>71.0</ele><time>2026-05-02T08:54:23Z</time></trkpt><trkpt lat="40.8509525573558" lon="9.418467433725832"><ele>71.0</ele><time>2026-05-02T08:54:24Z</time></trkpt><trkpt lat="40.8508657210679" lon="9.418472088110901"><ele>71.0</ele><time>2026-05-02T08:54:25Z</time></trkpt><trkpt lat="40.85077926567418" lon="9.418519646674167"><ele>71.0</ele><time>2026-05-02T08:54:26Z</time></trkpt><trkpt lat="40.850687099024206" lon="9.418603064952075"><ele>71.0</ele><time>2026-05-02T08:54:27Z</time></trkpt><trkpt lat="40.850581484466716" lon="9.41868708500434"><ele>71.0</ele><time>2026-05-02T08:54:28Z</time></trkpt><trkpt lat="40.85048172583547" lon="9.418771668961062"><ele>71.0</ele><time>2026-05-02T08:54:29Z</time></trkpt><trkpt lat="40.850395316093845" lon="9.418846845983913"><ele>71.0</ele><time>2026-05-02T08:54:30Z</time></trkpt><trkpt lat="40.850316777567656" lon="9.418941586225142"><ele>71.0</ele><time>2026-05-02T08:54:31Z</time></trkpt><trkpt lat="40.85025294860226" lon="9.419047851543445"><ele>71.0</ele><time>2026-05-02T08:54:32Z</time></trkpt><trkpt lat="40.850203905135295" lon="9.419151560667094"><ele>71.0</ele><time>2026-05-02T08:54:33Z</time></trkpt><trkpt lat="40.85016352739259" lon="9.41924862047537"><ele>71.0</ele><time>2026-05-02T08:54:34Z</time></trkpt><trkpt lat="40.85013889382937" lon="9.419367906284613"><ele>71.0</ele><time>2026-05-02T08:54:35Z</time></trkpt><trkpt lat="40.850114378518796" lon="9.419499631473164"><ele>71.0</ele><time>2026-05-02T08:54:36Z</time></trkpt><trkpt lat="40.85008801197791" lon="9.419638769204061"><ele>71.0</ele><time>2026-05-02T08:54:37Z</time></trkpt><trkpt lat="40.850054521861395" lon="9.419799270187655"><ele>71.0</ele><time>2026-05-02T08:54:38Z</time></trkpt><trkpt lat="40.850020628010014" lon="9.419981769631613"><ele>70.0</ele><time>2026-05-02T08:54:39Z</time></trkpt><trkpt lat="40.849983955076496" lon="9.420150186082234"><ele>69.0</ele><time>2026-05-02T08:54:40Z</time></trkpt><trkpt lat="40.84994675096637" lon="9.420312489195743"><ele>68.0</ele><time>2026-05-02T08:54:41Z</time></trkpt><trkpt lat="40.84991922098787" lon="9.420463353680113"><ele>67.0</ele><time>2026-05-02T08:54:42Z</time></trkpt><trkpt lat="40.84989341335537" lon="9.420602391384916"><ele>66.2</ele><time>2026-05-02T08:54:43Z</time></trkpt><trkpt lat="40.84986737019432" lon="9.420721937322323"><ele>65.4</ele><time>2026-05-02T08:54:44Z</time></trkpt><trkpt lat="40.849846311650516" lon="9.420862319712418"><ele>64.6</ele><time>2026-05-02T08:54:46Z</time></trkpt><trkpt lat="40.84982819916966" lon="9.420976971440306"><ele>63.8</ele><time>2026-05-02T08:54:48Z</time></trkpt><trkpt lat="40.84980913531354" lon="9.421116278515248"><ele>63.0</ele><time>2026-05-02T08:54:50Z</time></trkpt><trkpt lat="40.84985393686466" lon="9.421241251077792"><ele>63.0</ele><time>2026-05-02T08:54:52Z</time></trkpt><trkpt lat="40.849923320204475" lon="9.421292255208115"><ele>63.0</ele><time>2026-05-02T08:54:53Z</time></trkpt><trkpt lat="40.84999104937207" lon="9.42134920679568"><ele>63.0</ele><time>2026-05-02T08:54:54Z</time></trkpt><trkpt lat="40.85010008461515" lon="9.42141663132395"><ele>63.0</ele><time>2026-05-02T08:54:55Z</time></trkpt><trkpt lat="40.85020020391166" lon="9.421486885560574"><ele>63.0</ele><time>2026-05-02T08:54:56Z</time></trkpt><trkpt lat="40.85031086418581" lon="9.421564829588812"><ele>62.75</ele><time>2026-05-02T08:54:57Z</time></trkpt><trkpt lat="40.85043078977109" lon="9.421650800768024"><ele>62.5</ele><time>2026-05-02T08:54:58Z</time></trkpt><trkpt lat="40.85054991617498" lon="9.421737017462927"><ele>62.25</ele><time>2026-05-02T08:54:59Z</time></trkpt><trkpt lat="40.85068285022327" lon="9.421826798753683"><ele>62.0</ele><time>2026-05-02T08:55:00Z</time></trkpt><trkpt lat="40.850817836907915" lon="9.421931004941843"><ele>62.0</ele><time>2026-05-02T08:55:01Z</time></trkpt><trkpt lat="40.85095286747442" lon="9.422031802524817"><ele>62.0</ele><time>2026-05-02T08:55:02Z</time></trkpt><trkpt lat="40.85109759342714" lon="9.422135984902873"><ele>62.0</ele><time>2026-05-02T08:55:03Z</time></trkpt><trkpt lat="40.85123426993711" lon="9.42223583871225"><ele>61.5</ele><time>2026-05-02T08:55:04Z</time></trkpt><trkpt lat="40.85135976500603" lon="9.42232593164865"><ele>61.0</ele><time>2026-05-02T08:55:05Z</time></trkpt><trkpt lat="40.85147670892586" lon="9.422407885983556"><ele>60.5</ele><time>2026-05-02T08:55:06Z</time></trkpt><trkpt lat="40.85159790664509" lon="9.422506039738165"><ele>60.0</ele><time>2026-05-02T08:55:07Z</time></trkpt><trkpt lat="40.85172016321979" lon="9.422602138445662"><ele>60.0</ele><time>2026-05-02T08:55:08Z</time></trkpt><trkpt lat="40.851830476848455" lon="9.422687320596225"><ele>60.0</ele><time>2026-05-02T08:55:09Z</time></trkpt><trkpt lat="40.85194179912198" lon="9.422766389304615"><ele>60.0</ele><time>2026-05-02T08:55:10Z</time></trkpt><trkpt lat="40.852043220623685" lon="9.422843798756794"><ele>60.0</ele><time>2026-05-02T08:55:11Z</time></trkpt><trkpt lat="40.85213459117299" lon="9.422919087387303"><ele>59.666666666666664</ele><time>2026-05-02T08:55:12Z</time></trkpt><trkpt lat="40.85222207595981" lon="9.422981242671808"><ele>59.33333333333333</ele><time>2026-05-02T08:55:13Z</time></trkpt><trkpt lat="40.85229588725812" lon="9.423027240531342"><ele>59.0</ele><time>2026-05-02T08:55:14Z</time></trkpt><trkpt lat="40.85237437692738" lon="9.423081665355424"><ele>58.666666666666664</ele><time>2026-05-02T08:55:16Z</time></trkpt><trkpt lat="40.85242845484573" lon="9.423188463090638"><ele>58.33333333333333</ele><time>2026-05-02T08:55:46Z</time></trkpt><trkpt lat="40.85237174629674" lon="9.423116594309523"><ele>58.0</ele><time>2026-05-02T08:56:31Z</time></trkpt><trkpt lat="40.852286068180724" lon="9.423054941671452"><ele>58.4</ele><time>2026-05-02T08:56:33Z</time></trkpt><trkpt lat="40.85219554245917" lon="9.422978039370971"><ele>58.8</ele><time>2026-05-02T08:56:34Z</time></trkpt><trkpt lat="40.8521303623313" lon="9.422930957729722"><ele>59.2</ele><time>2026-05-02T08:56:35Z</time></trkpt><trkpt lat="40.85204161559373" lon="9.422869819977572"><ele>59.6</ele><time>2026-05-02T08:56:36Z</time></trkpt><trkpt lat="40.85196031980445" lon="9.422809721559016"><ele>60.0</ele><time>2026-05-02T08:56:37Z</time></trkpt><trkpt lat="40.851871485197414" lon="9.422736492661656"><ele>60.0</ele><time>2026-05-02T08:56:38Z</time></trkpt><trkpt lat="40.85176915751182" lon="9.422658049968176"><ele>60.0</ele><time>2026-05-02T08:56:39Z</time></trkpt><trkpt lat="40.851666686901694" lon="9.42257594871959"><ele>60.0</ele><time>2026-05-02T08:56:40Z</time></trkpt><trkpt lat="40.8515695217541" lon="9.422500287604208"><ele>60.0</ele><time>2026-05-02T08:56:41Z</time></trkpt><trkpt lat="40.85147511362384" lon="9.42242922250851"><ele>60.0</ele><time>2026-05-02T08:56:42Z</time></trkpt><trkpt lat="40.85138076268035" lon="9.422357227509536"><ele>60.0</ele><time>2026-05-02T08:56:43Z</time></trkpt><trkpt lat="40.85128333523145" lon="9.422283273609105"><ele>60.0</ele><time>2026-05-02T08:56:44Z</time></trkpt><trkpt lat="40.85118890122552" lon="9.422215604217824"><ele>60.0</ele><time>2026-05-02T08:56:45Z</time></trkpt><trkpt lat="40.851103400039186" lon="9.422155129603995"><ele>60.0</ele><time>2026-05-02T08:56:46Z</time></trkpt><trkpt lat="40.851022954215836" lon="9.422099726497065"><ele>60.333333333333336</ele><time>2026-05-02T08:56:47Z</time></trkpt><trkpt lat="40.850950840522174" lon="9.422045935331209"><ele>60.66666666666667</ele><time>2026-05-02T08:56:48Z</time></trkpt><trkpt lat="40.850877376428755" lon="9.421992348943297"><ele>61.0</ele><time>2026-05-02T08:56:49Z</time></trkpt><trkpt lat="40.850821491095914" lon="9.421952164250664"><ele>61.333333333333336</ele><time>2026-05-02T08:56:50Z</time></trkpt><trkpt lat="40.85076245228417" lon="9.421910570698223"><ele>61.66666666666667</ele><time>2026-05-02T08:56:51Z</time></trkpt><trkpt lat="40.85070561945582" lon="9.421871307293554"><ele>62.0</ele><time>2026-05-02T08:56:52Z</time></trkpt><trkpt lat="40.85060087175463" lon="9.42179545524627"><ele>62.0</ele><time>2026-05-02T08:56:54Z</time></trkpt><trkpt lat="40.850507386265626" lon="9.421719249045884"><ele>62.0</ele><time>2026-05-02T08:56:56Z</time></trkpt><trkpt lat="40.85040665967021" lon="9.42164821949047"><ele>62.0</ele><time>2026-05-02T08:56:58Z</time></trkpt><trkpt lat="40.85031490501497" lon="9.421587685299707"><ele>62.0</ele><time>2026-05-02T08:57:00Z</time></trkpt><trkpt lat="40.85022855354929" lon="9.421524864951355"><ele>62.0</ele><time>2026-05-02T08:57:02Z</time></trkpt><trkpt lat="40.8501531427127" lon="9.42146570544911"><ele>62.16666666666667</ele><time>2026-05-02T08:57:04Z</time></trkpt><trkpt lat="40.85006370048682" lon="9.42140034832176"><ele>62.333333333333336</ele><time>2026-05-02T08:57:06Z</time></trkpt><trkpt lat="40.84997727963445" lon="9.421340649946039"><ele>62.5</ele><time>2026-05-02T08:57:08Z</time></trkpt><trkpt lat="40.84991876401629" lon="9.421293218043026"><ele>62.66666666666667</ele><time>2026-05-02T08:57:10Z</time></trkpt><trkpt lat="40.8498639277177" lon="9.421246600507853"><ele>62.833333333333336</ele><time>2026-05-02T08:57:12Z</time></trkpt><trkpt lat="40.84980398367866" lon="9.421152191790352"><ele>63.0</ele><time>2026-05-02T08:57:15Z</time></trkpt><trkpt lat="40.849821288689775" lon="9.421031512408124"><ele>63.0</ele><time>2026-05-02T08:57:17Z</time></trkpt><trkpt lat="40.849834876179635" lon="9.420938077931039"><ele>63.0</ele><time>2026-05-02T08:57:19Z</time></trkpt><trkpt lat="40.84979083840788" lon="9.420815393540618"><ele>63.0</ele><time>2026-05-02T08:57:21Z</time></trkpt><trkpt lat="40.84971185626557" lon="9.420699579191606"><ele>63.0</ele><time>2026-05-02T08:57:23Z</time></trkpt><trkpt lat="40.84966446697899" lon="9.420631027199562"><ele>63.0</ele><time>2026-05-02T08:57:24Z</time></trkpt><trkpt lat="40.84959946007392" lon="9.420555939978227"><ele>63.0</ele><time>2026-05-02T08:57:25Z</time></trkpt><trkpt lat="40.849537129310335" lon="9.420495499803003"><ele>62.833333333333336</ele><time>2026-05-02T08:57:26Z</time></trkpt><trkpt lat="40.84947865773184" lon="9.42043725858808"><ele>62.66666666666667</ele><time>2026-05-02T08:57:27Z</time></trkpt><trkpt lat="40.849412917646454" lon="9.420370092872787"><ele>62.5</ele><time>2026-05-02T08:57:28Z</time></trkpt><trkpt lat="40.84934963422078" lon="9.420292563516727"><ele>62.333333333333336</ele><time>2026-05-02T08:57:29Z</time></trkpt><trkpt lat="40.84928220682697" lon="9.420198171580061"><ele>62.16666666666667</ele><time>2026-05-02T08:57:30Z</time></trkpt><trkpt lat="40.84922085667804" lon="9.42008904256605"><ele>62.0</ele><time>2026-05-02T08:57:31Z</time></trkpt><trkpt lat="40.849163538587966" lon="9.419988404265922"><ele>62.00000000000001</ele><time>2026-05-02T08:57:32Z</time></trkpt><trkpt lat="40.84910369225667" lon="9.419880105335432"><ele>62.0</ele><time>2026-05-02T08:57:33Z</time></trkpt><trkpt lat="40.84904102253827" lon="9.41978104551213"><ele>62.0</ele><time>2026-05-02T08:57:34Z</time></trkpt><trkpt lat="40.84897674110129" lon="9.419695089960129"><ele>62.0</ele><time>2026-05-02T08:57:35Z</time></trkpt><trkpt lat="40.84891641861845" lon="9.419615710573831"><ele>62.00000000000001</ele><time>2026-05-02T08:57:36Z</time></trkpt><trkpt lat="40.84886911343118" lon="9.419542724315873"><ele>62.0</ele><time>2026-05-02T08:57:37Z</time></trkpt><trkpt lat="40.848819209262835" lon="9.4194464375696"><ele>62.16666666666667</ele><time>2026-05-02T08:57:39Z</time></trkpt><trkpt lat="40.84874969550314" lon="9.419362895804987"><ele>62.333333333333336</ele><time>2026-05-02T08:58:38Z</time></trkpt><trkpt lat="40.84868925492451" lon="9.419333957240987"><ele>62.5</ele><time>2026-05-02T08:58:39Z</time></trkpt><trkpt lat="40.848628009837604" lon="9.419302005770843"><ele>62.66666666666667</ele><time>2026-05-02T08:58:40Z</time></trkpt><trkpt lat="40.84851975098913" lon="9.419239703852918"><ele>62.833333333333336</ele><time>2026-05-02T08:58:42Z</time></trkpt><trkpt lat="40.84846214146046" lon="9.41920315220728"><ele>63.0</ele><time>2026-05-02T08:58:43Z</time></trkpt><trkpt lat="40.8483984164614" lon="9.419161162737794"><ele>62.599999999999994</ele><time>2026-05-02T08:58:44Z</time></trkpt><trkpt lat="40.848339354351396" lon="9.419125480036367"><ele>62.199999999999996</ele><time>2026-05-02T08:58:45Z</time></trkpt><trkpt lat="40.848244027477726" lon="9.419066627079411"><ele>61.8</ele><time>2026-05-02T08:58:47Z</time></trkpt><trkpt lat="40.8481671567818" lon="9.41899071092119"><ele>61.4</ele><time>2026-05-02T08:58:49Z</time></trkpt><trkpt lat="40.84808042835575" lon="9.41884641134149"><ele>61.0</ele><time>2026-05-02T08:58:51Z</time></trkpt><trkpt lat="40.848020378075205" lon="9.418775602601043"><ele>60.99999999999999</ele><time>2026-05-02T08:58:52Z</time></trkpt><trkpt lat="40.84796848223311" lon="9.418715794363644"><ele>61.0</ele><time>2026-05-02T08:58:53Z</time></trkpt><trkpt lat="40.84786192429557" lon="9.418671814310496"><ele>61.0</ele><time>2026-05-02T08:58:55Z</time></trkpt><trkpt lat="40.84778462096136" lon="9.41865308017636"><ele>61.0</ele><time>2026-05-02T08:58:56Z</time></trkpt><trkpt lat="40.847694262559514" lon="9.418587136283636"><ele>60.99999999999999</ele><time>2026-05-02T08:58:58Z</time></trkpt><trkpt lat="40.8476140065928" lon="9.418551557667797"><ele>61.0</ele><time>2026-05-02T08:59:00Z</time></trkpt><trkpt lat="40.84752485437627" lon="9.418553067615543"><ele>61.4</ele><time>2026-05-02T08:59:02Z</time></trkpt><trkpt lat="40.847423001088046" lon="9.418530940574774"><ele>61.8</ele><time>2026-05-02T08:59:04Z</time></trkpt><trkpt lat="40.84731480437376" lon="9.41846366184313"><ele>62.199999999999996</ele><time>2026-05-02T08:59:06Z</time></trkpt><trkpt lat="40.847227433286875" lon="9.418381916121403"><ele>62.599999999999994</ele><time>2026-05-02T08:59:08Z</time></trkpt><trkpt lat="40.847151945481784" lon="9.418276893638328"><ele>63.0</ele><time>2026-05-02T08:59:10Z</time></trkpt><trkpt lat="40.847108851962574" lon="9.418197524311294"><ele>63.0</ele><time>2026-05-02T08:59:11Z</time></trkpt><trkpt lat="40.847060025582415" lon="9.418103207115534"><ele>63.0</ele><time>2026-05-02T08:59:12Z</time></trkpt><trkpt lat="40.84701388540471" lon="9.418002548901317"><ele>63.0</ele><time>2026-05-02T08:59:13Z</time></trkpt><trkpt lat="40.8469644878778" lon="9.417898646668947"><ele>63.0</ele><time>2026-05-02T08:59:14Z</time></trkpt><trkpt lat="40.84692009850626" lon="9.41780637929843"><ele>63.0</ele><time>2026-05-02T08:59:15Z</time></trkpt><trkpt lat="40.846882492710506" lon="9.417723920005763"><ele>63.0</ele><time>2026-05-02T08:59:16Z</time></trkpt><trkpt lat="40.84683991280256" lon="9.417630621259391"><ele>62.8</ele><time>2026-05-02T08:59:17Z</time></trkpt><trkpt lat="40.84679882987028" lon="9.417523752591627"><ele>62.599999999999994</ele><time>2026-05-02T08:59:18Z</time></trkpt><trkpt lat="40.84674458666699" lon="9.417412223077998"><ele>62.400000000000006</ele><time>2026-05-02T08:59:19Z</time></trkpt><trkpt lat="40.846693558487736" lon="9.417302901412375"><ele>62.2</ele><time>2026-05-02T08:59:20Z</time></trkpt><trkpt lat="40.84664554696825" lon="9.417193824344238"><ele>62.0</ele><time>2026-05-02T08:59:21Z</time></trkpt><trkpt lat="40.84659326081001" lon="9.4170887751451"><ele>62.50000000000001</ele><time>2026-05-02T08:59:22Z</time></trkpt><trkpt lat="40.84654006220099" lon="9.416984270138533"><ele>63.0</ele><time>2026-05-02T08:59:23Z</time></trkpt><trkpt lat="40.84647990250232" lon="9.416876755335608"><ele>63.5</ele><time>2026-05-02T08:59:24Z</time></trkpt><trkpt lat="40.8464371517269" lon="9.416786714990266"><ele>64.0</ele><time>2026-05-02T08:59:25Z</time></trkpt><trkpt lat="40.84640009131208" lon="9.416711251205339"><ele>64.5</ele><time>2026-05-02T08:59:26Z</time></trkpt><trkpt lat="40.84635871715193" lon="9.416620369412879"><ele>65.0</ele><time>2026-05-02T08:59:27Z</time></trkpt><trkpt lat="40.84632205532902" lon="9.416523344321376"><ele>65.0</ele><time>2026-05-02T08:59:28Z</time></trkpt><trkpt lat="40.84626108583107" lon="9.41638682406575"><ele>65.0</ele><time>2026-05-02T08:59:30Z</time></trkpt><trkpt lat="40.8462216005731" lon="9.416320756799161"><ele>65.0</ele><time>2026-05-02T08:59:31Z</time></trkpt><trkpt lat="40.8461802130606" lon="9.416243832322188"><ele>65.0</ele><time>2026-05-02T08:59:32Z</time></trkpt><trkpt lat="40.84614062733935" lon="9.416165167771243"><ele>65.0</ele><time>2026-05-02T08:59:33Z</time></trkpt><trkpt lat="40.84610342595072" lon="9.41609796795246"><ele>65.0</ele><time>2026-05-02T08:59:34Z</time></trkpt><trkpt lat="40.846060959687364" lon="9.41602117444894"><ele>65.2</ele><time>2026-05-02T08:59:35Z</time></trkpt><trkpt lat="40.84601199072232" lon="9.415934391720729"><ele>65.4</ele><time>2026-05-02T08:59:36Z</time></trkpt><trkpt lat="40.84595436606772" lon="9.415818368899705"><ele>65.6</ele><time>2026-05-02T08:59:37Z</time></trkpt><trkpt lat="40.84589340272373" lon="9.415672868919645"><ele>65.8</ele><time>2026-05-02T08:59:38Z</time></trkpt><trkpt lat="40.84582937613509" lon="9.415522340357358"><ele>66.0</ele><time>2026-05-02T08:59:39Z</time></trkpt><trkpt lat="40.84576978185104" lon="9.415375672627233"><ele>67.25</ele><time>2026-05-02T08:59:40Z</time></trkpt><trkpt lat="40.84571379188957" lon="9.415235552460123"><ele>68.5</ele><time>2026-05-02T08:59:41Z</time></trkpt><trkpt lat="40.84565891130234" lon="9.415099482378372"><ele>69.75</ele><time>2026-05-02T08:59:42Z</time></trkpt><trkpt lat="40.84560577607411" lon="9.414963997743195"><ele>71.0</ele><time>2026-05-02T08:59:43Z</time></trkpt><trkpt lat="40.845554378280426" lon="9.41483149933797"><ele>71.0</ele><time>2026-05-02T08:59:44Z</time></trkpt><trkpt lat="40.845498924674956" lon="9.414696292351058"><ele>71.0</ele><time>2026-05-02T08:59:45Z</time></trkpt><trkpt lat="40.84544302928913" lon="9.41456977667328"><ele>71.0</ele><time>2026-05-02T08:59:46Z</time></trkpt><trkpt lat="40.84538968146928" lon="9.414453728316502"><ele>71.0</ele><time>2026-05-02T08:59:47Z</time></trkpt><trkpt lat="40.84533989292087" lon="9.4143242960691"><ele>71.0</ele><time>2026-05-02T08:59:48Z</time></trkpt><trkpt lat="40.84528609661324" lon="9.414195337319068"><ele>71.8</ele><time>2026-05-02T08:59:49Z</time></trkpt><trkpt lat="40.845229096411174" lon="9.414074208209966"><ele>72.6</ele><time>2026-05-02T08:59:50Z</time></trkpt><trkpt lat="40.84517501998245" lon="9.413956222035324"><ele>73.4</ele><time>2026-05-02T08:59:51Z</time></trkpt><trkpt lat="40.845124905466754" lon="9.41383914590321"><ele>74.2</ele><time>2026-05-02T08:59:52Z</time></trkpt><trkpt lat="40.8450802560305" lon="9.413728428176173"><ele>75.0</ele><time>2026-05-02T08:59:53Z</time></trkpt><trkpt lat="40.84504343577228" lon="9.413609765290195"><ele>76.0</ele><time>2026-05-02T08:59:54Z</time></trkpt><trkpt lat="40.84502197789616" lon="9.413489163332626"><ele>77.0</ele><time>2026-05-02T08:59:55Z</time></trkpt><trkpt lat="40.84502722473163" lon="9.413371418904566"><ele>78.0</ele><time>2026-05-02T08:59:56Z</time></trkpt><trkpt lat="40.845041149097476" lon="9.413272219881492"><ele>79.0</ele><time>2026-05-02T08:59:57Z</time></trkpt><trkpt lat="40.84504441600295" lon="9.413132053278497"><ele>80.0</ele><time>2026-05-02T08:59:59Z</time></trkpt><trkpt lat="40.84497860651999" lon="9.413053290921441"><ele>80.0</ele><time>2026-05-02T09:00:02Z</time></trkpt><trkpt lat="40.84486894150305" lon="9.413119985935609"><ele>80.0</ele><time>2026-05-02T09:00:04Z</time></trkpt><trkpt lat="40.844804606442885" lon="9.413172573267898"><ele>80.0</ele><time>2026-05-02T09:00:05Z</time></trkpt><trkpt lat="40.84473948584363" lon="9.41322039520021"><ele>80.0</ele><time>2026-05-02T09:00:06Z</time></trkpt><trkpt lat="40.84466015539508" lon="9.413273941175975"><ele>80.0</ele><time>2026-05-02T09:00:07Z</time></trkpt><trkpt lat="40.84459502700161" lon="9.413316437006385"><ele>80.0</ele><time>2026-05-02T09:00:08Z</time></trkpt><trkpt lat="40.8445378330311" lon="9.413351855846457"><ele>80.0</ele><time>2026-05-02T09:00:09Z</time></trkpt><trkpt lat="40.84444157540161" lon="9.413412140081274"><ele>80.0</ele><time>2026-05-02T09:00:11Z</time></trkpt><trkpt lat="40.84435864945149" lon="9.413461656489245"><ele>80.0</ele><time>2026-05-02T09:00:13Z</time></trkpt><trkpt lat="40.84431455415582" lon="9.413528487778729"><ele>80.0</ele><time>2026-05-02T09:00:22Z</time></trkpt><trkpt lat="40.84423512284115" lon="9.413550955403398"><ele>80.0</ele><time>2026-05-02T09:00:24Z</time></trkpt><trkpt lat="40.84413937797565" lon="9.413582746189006"><ele>80.0</ele><time>2026-05-02T09:00:26Z</time></trkpt><trkpt lat="40.84405173791675" lon="9.41360969972187"><ele>80.4</ele><time>2026-05-02T09:00:29Z</time></trkpt><trkpt lat="40.84404488504365" lon="9.413695746031104"><ele>80.8</ele><time>2026-05-02T09:00:31Z</time></trkpt><trkpt lat="40.84406644323921" lon="9.4137824879087"><ele>81.19999999999999</ele><time>2026-05-02T09:00:32Z</time></trkpt><trkpt lat="40.844101075278246" lon="9.413885655653916"><ele>81.6</ele><time>2026-05-02T09:00:33Z</time></trkpt><trkpt lat="40.84415147668676" lon="9.414020187307278"><ele>82.0</ele><time>2026-05-02T09:00:34Z</time></trkpt><trkpt lat="40.84420451544961" lon="9.41417604369432"><ele>82.0</ele><time>2026-05-02T09:00:35Z</time></trkpt><trkpt lat="40.8442530500125" lon="9.414354611832927"><ele>82.0</ele><time>2026-05-02T09:00:36Z</time></trkpt><trkpt lat="40.84430285327012" lon="9.414559522848709"><ele>82.0</ele><time>2026-05-02T09:00:37Z</time></trkpt><trkpt lat="40.844350365610474" lon="9.414766328140562"><ele>80.5</ele><time>2026-05-02T09:00:38Z</time></trkpt><trkpt lat="40.844395984165836" lon="9.414968158405706"><ele>79.0</ele><time>2026-05-02T09:00:39Z</time></trkpt><trkpt lat="40.84444302611255" lon="9.415149327749901"><ele>77.5</ele><time>2026-05-02T09:00:40Z</time></trkpt><trkpt lat="40.84449179804833" lon="9.415325967221731"><ele>76.0</ele><time>2026-05-02T09:00:41Z</time></trkpt><trkpt lat="40.84454261838544" lon="9.415496487736528"><ele>75.5</ele><time>2026-05-02T09:00:42Z</time></trkpt><trkpt lat="40.844595261792705" lon="9.415658468248385"><ele>75.0</ele><time>2026-05-02T09:00:43Z</time></trkpt><trkpt lat="40.84464981861138" lon="9.415811681098077"><ele>74.5</ele><time>2026-05-02T09:00:44Z</time></trkpt><trkpt lat="40.8447056209897" lon="9.415956923693242"><ele>74.0</ele><time>2026-05-02T09:00:45Z</time></trkpt><trkpt lat="40.84476682560468" lon="9.416091393560196"><ele>74.0</ele><time>2026-05-02T09:00:46Z</time></trkpt><trkpt lat="40.84482841268572" lon="9.416220245925622"><ele>74.0</ele><time>2026-05-02T09:00:47Z</time></trkpt><trkpt lat="40.844888453248586" lon="9.416348086565073"><ele>74.0</ele><time>2026-05-02T09:00:48Z</time></trkpt><trkpt lat="40.84494515375242" lon="9.416474749747094"><ele>74.0</ele><time>2026-05-02T09:00:49Z</time></trkpt><trkpt lat="40.84499661740521" lon="9.416595369734708"><ele>74.0</ele><time>2026-05-02T09:00:50Z</time></trkpt><trkpt lat="40.84505503405676" lon="9.416706663227437"><ele>74.0</ele><time>2026-05-02T09:00:51Z</time></trkpt><trkpt lat="40.84511449526039" lon="9.416810451767393"><ele>74.0</ele><time>2026-05-02T09:00:52Z</time></trkpt><trkpt lat="40.84517791750058" lon="9.416917052526651"><ele>74.0</ele><time>2026-05-02T09:00:53Z</time></trkpt><trkpt lat="40.845239819414445" lon="9.417027557312133"><ele>74.0</ele><time>2026-05-02T09:00:54Z</time></trkpt><trkpt lat="40.845301535556764" lon="9.417138090912692"><ele>74.0</ele><time>2026-05-02T09:00:55Z</time></trkpt><trkpt lat="40.8453638259975" lon="9.417243875249378"><ele>72.8</ele><time>2026-05-02T09:00:56Z</time></trkpt><trkpt lat="40.84542383499478" lon="9.41734469813721"><ele>71.60000000000001</ele><time>2026-05-02T09:00:57Z</time></trkpt><trkpt lat="40.845485411404695" lon="9.417440450975304"><ele>70.4</ele><time>2026-05-02T09:00:58Z</time></trkpt><trkpt lat="40.845547101722026" lon="9.41753169704825"><ele>69.2</ele><time>2026-05-02T09:00:59Z</time></trkpt><trkpt lat="40.84560619095727" lon="9.417623992113114"><ele>68.0</ele><time>2026-05-02T09:01:00Z</time></trkpt><trkpt lat="40.84566548411321" lon="9.417716313236939"><ele>68.0</ele><time>2026-05-02T09:01:01Z</time></trkpt><trkpt lat="40.845725679574755" lon="9.41780806414421"><ele>68.0</ele><time>2026-05-02T09:01:02Z</time></trkpt><trkpt lat="40.84579480831504" lon="9.417904725133463"><ele>68.0</ele><time>2026-05-02T09:01:03Z</time></trkpt><trkpt lat="40.84585976403911" lon="9.417995909775177"><ele>68.0</ele><time>2026-05-02T09:01:04Z</time></trkpt><trkpt lat="40.84592541309288" lon="9.418085580121273"><ele>68.0</ele><time>2026-05-02T09:01:05Z</time></trkpt><trkpt lat="40.84599133519505" lon="9.418170616414061"><ele>68.0</ele><time>2026-05-02T09:01:06Z</time></trkpt><trkpt lat="40.84605699945108" lon="9.418253976351238"><ele>68.0</ele><time>2026-05-02T09:01:07Z</time></trkpt><trkpt lat="40.84612625187641" lon="9.418341848650245"><ele>68.0</ele><time>2026-05-02T09:01:08Z</time></trkpt><trkpt lat="40.846195136855535" lon="9.418442656624197"><ele>68.0</ele><time>2026-05-02T09:01:09Z</time></trkpt><trkpt lat="40.8462514623204" lon="9.41856922029149"><ele>68.0</ele><time>2026-05-02T09:01:10Z</time></trkpt><trkpt lat="40.84630208424539" lon="9.418711426119083"><ele>68.5</ele><time>2026-05-02T09:01:11Z</time></trkpt><trkpt lat="40.84635211071789" lon="9.418861811700147"><ele>69.0</ele><time>2026-05-02T09:01:12Z</time></trkpt><trkpt lat="40.846404379910474" lon="9.419019273198991"><ele>69.5</ele><time>2026-05-02T09:01:13Z</time></trkpt><trkpt lat="40.846463677067625" lon="9.419191782358745"><ele>70.0</ele><time>2026-05-02T09:01:14Z</time></trkpt><trkpt lat="40.84652464155323" lon="9.419359480013028"><ele>70.0</ele><time>2026-05-02T09:01:15Z</time></trkpt><trkpt lat="40.84658170141945" lon="9.419514660261434"><ele>70.0</ele><time>2026-05-02T09:01:16Z</time></trkpt><trkpt lat="40.846641652063944" lon="9.419667103981386"><ele>70.0</ele><time>2026-05-02T09:01:17Z</time></trkpt><trkpt lat="40.84670550855032" lon="9.419813529092488"><ele>70.0</ele><time>2026-05-02T09:01:18Z</time></trkpt><trkpt lat="40.84676692650681" lon="9.419942190022253"><ele>68.8</ele><time>2026-05-02T09:01:19Z</time></trkpt><trkpt lat="40.84683232464399" lon="9.420056039715554"><ele>67.6</ele><time>2026-05-02T09:01:20Z</time></trkpt><trkpt lat="40.84689855233255" lon="9.420160340803132"><ele>66.4</ele><time>2026-05-02T09:01:21Z</time></trkpt><trkpt lat="40.84696588612139" lon="9.42026333817173"><ele>65.2</ele><time>2026-05-02T09:01:22Z</time></trkpt><trkpt lat="40.84702812308563" lon="9.420367121904844"><ele>64.0</ele><time>2026-05-02T09:01:23Z</time></trkpt><trkpt lat="40.847081604706084" lon="9.42048017850143"><ele>64.2</ele><time>2026-05-02T09:01:24Z</time></trkpt><trkpt lat="40.84712690226371" lon="9.420596189658625"><ele>64.4</ele><time>2026-05-02T09:01:25Z</time></trkpt><trkpt lat="40.84714942904074" lon="9.420774327692307"><ele>64.6</ele><time>2026-05-02T09:01:26Z</time></trkpt><trkpt lat="40.84719214758558" lon="9.420863851278785"><ele>64.8</ele><time>2026-05-02T09:01:27Z</time></trkpt><trkpt lat="40.84724913390161" lon="9.420960317915064"><ele>65.0</ele><time>2026-05-02T09:01:29Z</time></trkpt><trkpt lat="40.847315316898765" lon="9.420957192997713"><ele>65.0</ele><time>2026-05-02T09:01:31Z</time></trkpt><trkpt lat="40.84739265034458" lon="9.420886009395055"><ele>65.0</ele><time>2026-05-02T09:01:34Z</time></trkpt><trkpt lat="40.84747988325112" lon="9.42079562848869"><ele>65.0</ele><time>2026-05-02T09:01:36Z</time></trkpt><trkpt lat="40.84757712152756" lon="9.420729586069799"><ele>65.0</ele><time>2026-05-02T09:01:38Z</time></trkpt><trkpt lat="40.84767319861815" lon="9.420673924486083"><ele>65.0</ele><time>2026-05-02T09:01:40Z</time></trkpt><trkpt lat="40.84770636080154" lon="9.420599633517746"><ele>64.33333333333334</ele><time>2026-05-02T09:01:43Z</time></trkpt><trkpt lat="40.8477666070165" lon="9.420556306722466"><ele>63.66666666666667</ele><time>2026-05-02T09:01:58Z</time></trkpt><trkpt lat="40.847761336417335" lon="9.42045668277068"><ele>63.0</ele><time>2026-05-02T09:03:42Z</time></trkpt><trkpt lat="40.847756726361766" lon="9.42031964029203"><ele>62.33333333333333</ele><time>2026-05-02T09:03:44Z</time></trkpt><trkpt lat="40.847767313533915" lon="9.420210829479979"><ele>61.666666666666664</ele><time>2026-05-02T09:03:46Z</time></trkpt><trkpt lat="40.8477726464467" lon="9.42009665841759"><ele>61.0</ele><time>2026-05-02T09:03:48Z</time></trkpt><trkpt lat="40.8477746141815" lon="9.4199198374336"><ele>60.99999999999999</ele><time>2026-05-02T09:03:50Z</time></trkpt><trkpt lat="40.84777464397071" lon="9.419792254689373"><ele>61.0</ele><time>2026-05-02T09:03:52Z</time></trkpt><trkpt lat="40.847773113217954" lon="9.419677597396063"><ele>61.0</ele><time>2026-05-02T09:03:54Z</time></trkpt><trkpt lat="40.84776080871" lon="9.419560784511233"><ele>61.0</ele><time>2026-05-02T09:03:56Z</time></trkpt><trkpt lat="40.847749781275915" lon="9.419456513171719"><ele>60.99999999999999</ele><time>2026-05-02T09:03:58Z</time></trkpt><trkpt lat="40.8477532927243" lon="9.419340310842339"><ele>61.0</ele><time>2026-05-02T09:04:00Z</time></trkpt><trkpt lat="40.84777380604393" lon="9.419187629763973"><ele>60.99999999999999</ele><time>2026-05-02T09:04:02Z</time></trkpt><trkpt lat="40.84776392444072" lon="9.419060109618194"><ele>61.0</ele><time>2026-05-02T09:04:04Z</time></trkpt><trkpt lat="40.84775781750933" lon="9.418942952653891"><ele>61.0</ele><time>2026-05-02T09:04:06Z</time></trkpt><trkpt lat="40.84776540509148" lon="9.418829218896898"><ele>61.0</ele><time>2026-05-02T09:04:08Z</time></trkpt><trkpt lat="40.84778541114626" lon="9.418704205169071"><ele>60.99999999999999</ele><time>2026-05-02T09:04:11Z</time></trkpt><trkpt lat="40.8478393580178" lon="9.418659668801766"><ele>61.0</ele><time>2026-05-02T09:04:34Z</time></trkpt><trkpt lat="40.84793188051871" lon="9.418701038204993"><ele>60.99999999999999</ele><time>2026-05-02T09:04:36Z</time></trkpt><trkpt lat="40.84800993812119" lon="9.41875668280976"><ele>61.0</ele><time>2026-05-02T09:04:38Z</time></trkpt><trkpt lat="40.848068926568125" lon="9.418841739520701"><ele>61.0</ele><time>2026-05-02T09:04:40Z</time></trkpt><trkpt lat="40.84812684787084" lon="9.418949762475034"><ele>61.0</ele><time>2026-05-02T09:04:42Z</time></trkpt><trkpt lat="40.84818331332719" lon="9.41903173416589"><ele>60.99999999999999</ele><time>2026-05-02T09:04:44Z</time></trkpt><trkpt lat="40.84824007994653" lon="9.419083810861292"><ele>61.0</ele><time>2026-05-02T09:04:46Z</time></trkpt><trkpt lat="40.8483112887148" lon="9.419128562396704"><ele>60.99999999999999</ele><time>2026-05-02T09:04:48Z</time></trkpt><trkpt lat="40.848381742888506" lon="9.419156932218893"><ele>61.0</ele><time>2026-05-02T09:04:49Z</time></trkpt><trkpt lat="40.84844571539243" lon="9.419197025584719"><ele>61.0</ele><time>2026-05-02T09:04:50Z</time></trkpt><trkpt lat="40.84850294319114" lon="9.419235851140838"><ele>61.0</ele><time>2026-05-02T09:04:51Z</time></trkpt><trkpt lat="40.84861238883832" lon="9.419305573587387"><ele>60.99999999999999</ele><time>2026-05-02T09:04:53Z</time></trkpt><trkpt lat="40.8486922714347" lon="9.419359708512058"><ele>61.0</ele><time>2026-05-02T09:04:55Z</time></trkpt><trkpt lat="40.84875537506685" lon="9.419391430046796"><ele>61.166666666666664</ele><time>2026-05-02T09:04:57Z</time></trkpt><trkpt lat="40.84883914725609" lon="9.419480370032195"><ele>61.33333333333333</ele><time>2026-05-02T09:04:59Z</time></trkpt><trkpt lat="40.84888070007209" lon="9.419550066455363"><ele>61.5</ele><time>2026-05-02T09:05:00Z</time></trkpt><trkpt lat="40.84892297199333" lon="9.419619915659496"><ele>61.66666666666667</ele><time>2026-05-02T09:05:01Z</time></trkpt><trkpt lat="40.84897560591159" lon="9.419698288588767"><ele>61.833333333333336</ele><time>2026-05-02T09:05:02Z</time></trkpt><trkpt lat="40.84903713002072" lon="9.41977987787591"><ele>62.0</ele><time>2026-05-02T09:05:03Z</time></trkpt><trkpt lat="40.84909740005718" lon="9.419870235026885"><ele>62.00000000000001</ele><time>2026-05-02T09:05:04Z</time></trkpt><trkpt lat="40.84915485733774" lon="9.41997012931369"><ele>62.0</ele><time>2026-05-02T09:05:05Z</time></trkpt><trkpt lat="40.8492020453801" lon="9.420061994591741"><ele>62.0</ele><time>2026-05-02T09:05:06Z</time></trkpt><trkpt lat="40.84924904298568" lon="9.420141809432803"><ele>62.0</ele><time>2026-05-02T09:05:07Z</time></trkpt><trkpt lat="40.84930421180878" lon="9.420225635354631"><ele>62.00000000000001</ele><time>2026-05-02T09:05:08Z</time></trkpt><trkpt lat="40.8493720852767" lon="9.42032465680737"><ele>62.0</ele><time>2026-05-02T09:05:09Z</time></trkpt><trkpt lat="40.84946051453147" lon="9.420416674992563"><ele>62.16666666666667</ele><time>2026-05-02T09:05:10Z</time></trkpt><trkpt lat="40.849537143197324" lon="9.420491959940023"><ele>62.333333333333336</ele><time>2026-05-02T09:05:11Z</time></trkpt><trkpt lat="40.84960195126313" lon="9.420565296291796"><ele>62.5</ele><time>2026-05-02T09:05:12Z</time></trkpt><trkpt lat="40.84965931018537" lon="9.42062981290261"><ele>62.66666666666667</ele><time>2026-05-02T09:05:13Z</time></trkpt><trkpt lat="40.849706589702805" lon="9.42069750703263"><ele>62.833333333333336</ele><time>2026-05-02T09:05:14Z</time></trkpt><trkpt lat="40.84978054640406" lon="9.420811764868583"><ele>63.0</ele><time>2026-05-02T09:05:16Z</time></trkpt><trkpt lat="40.84981938706609" lon="9.420904589017907"><ele>63.0</ele><time>2026-05-02T09:05:18Z</time></trkpt><trkpt lat="40.84980614502544" lon="9.420794574702215"><ele>63.0</ele><time>2026-05-02T09:05:39Z</time></trkpt><trkpt lat="40.849714948155935" lon="9.420690526502657"><ele>63.0</ele><time>2026-05-02T09:05:41Z</time></trkpt><trkpt lat="40.84962937260712" lon="9.420587133253013"><ele>63.0</ele><time>2026-05-02T09:05:42Z</time></trkpt><trkpt lat="40.84957194134168" lon="9.420524240203466"><ele>63.0</ele><time>2026-05-02T09:05:43Z</time></trkpt><trkpt lat="40.849515767918106" lon="9.420465785228298"><ele>62.833333333333336</ele><time>2026-05-02T09:05:44Z</time></trkpt><trkpt lat="40.84944869337245" lon="9.420399025048983"><ele>62.66666666666667</ele><time>2026-05-02T09:05:45Z</time></trkpt><trkpt lat="40.849374825227535" lon="9.42031830739203"><ele>62.5</ele><time>2026-05-02T09:05:46Z</time></trkpt><trkpt lat="40.84931145939185" lon="9.420237477121315"><ele>62.333333333333336</ele><time>2026-05-02T09:05:47Z</time></trkpt><trkpt lat="40.84926214202166" lon="9.420153155367567"><ele>62.16666666666667</ele><time>2026-05-02T09:05:48Z</time></trkpt><trkpt lat="40.84921746878474" lon="9.420072028760954"><ele>62.0</ele><time>2026-05-02T09:05:49Z</time></trkpt><trkpt lat="40.849174634705676" lon="9.419996491858397"><ele>62.0</ele><time>2026-05-02T09:05:50Z</time></trkpt><trkpt lat="40.84912854761353" lon="9.419914068482802"><ele>62.00000000000001</ele><time>2026-05-02T09:05:51Z</time></trkpt><trkpt lat="40.84908171829198" lon="9.41983739525825"><ele>62.0</ele><time>2026-05-02T09:05:52Z</time></trkpt><trkpt lat="40.849035491803214" lon="9.419766715762949"><ele>62.0</ele><time>2026-05-02T09:05:53Z</time></trkpt><trkpt lat="40.848989565244025" lon="9.419701868388954"><ele>62.00000000000001</ele><time>2026-05-02T09:05:54Z</time></trkpt><trkpt lat="40.848943960233626" lon="9.419641119116873"><ele>62.0</ele><time>2026-05-02T09:05:55Z</time></trkpt><trkpt lat="40.84890074418419" lon="9.419579953006624"><ele>62.0</ele><time>2026-05-02T09:05:56Z</time></trkpt><trkpt lat="40.848832960269895" lon="9.419468592237873"><ele>62.16666666666667</ele><time>2026-05-02T09:05:58Z</time></trkpt><trkpt lat="40.84877461321119" lon="9.419393034269916"><ele>62.333333333333336</ele><time>2026-05-02T09:06:00Z</time></trkpt><trkpt lat="40.84866355739169" lon="9.419324925777024"><ele>62.5</ele><time>2026-05-02T09:06:02Z</time></trkpt><trkpt lat="40.84859766451832" lon="9.419281579890018"><ele>62.66666666666667</ele><time>2026-05-02T09:06:03Z</time></trkpt><trkpt lat="40.84853699497234" lon="9.419246505459947"><ele>62.833333333333336</ele><time>2026-05-02T09:06:04Z</time></trkpt><trkpt lat="40.84847505042065" lon="9.419207302630587"><ele>63.0</ele><time>2026-05-02T09:06:05Z</time></trkpt><trkpt lat="40.84840644138947" lon="9.419163662351309"><ele>62.599999999999994</ele><time>2026-05-02T09:06:06Z</time></trkpt><trkpt lat="40.84834554165334" lon="9.419129476073884"><ele>62.199999999999996</ele><time>2026-05-02T09:06:07Z</time></trkpt><trkpt lat="40.84824031239851" lon="9.419066464150754"><ele>61.8</ele><time>2026-05-02T09:06:09Z</time></trkpt><trkpt lat="40.84815414916235" lon="9.418979163182625"><ele>61.4</ele><time>2026-05-02T09:06:11Z</time></trkpt><trkpt lat="40.84810723766852" lon="9.41888750250572"><ele>61.0</ele><time>2026-05-02T09:06:12Z</time></trkpt><trkpt lat="40.84805013497632" lon="9.4188147979422"><ele>61.0</ele><time>2026-05-02T09:06:13Z</time></trkpt><trkpt lat="40.84796100359754" lon="9.418710837179045"><ele>60.99999999999999</ele><time>2026-05-02T09:06:15Z</time></trkpt><trkpt lat="40.84786400716982" lon="9.418672152651022"><ele>60.99999999999999</ele><time>2026-05-02T09:06:17Z</time></trkpt><trkpt lat="40.84776633998459" lon="9.418640971957576"><ele>61.0</ele><time>2026-05-02T09:06:19Z</time></trkpt><trkpt lat="40.84771489253084" lon="9.41858160591892"><ele>61.0</ele><time>2026-05-02T09:06:21Z</time></trkpt><trkpt lat="40.847649990365376" lon="9.418570652108663"><ele>61.4</ele><time>2026-05-02T09:06:34Z</time></trkpt><trkpt lat="40.84757812379868" lon="9.418567601103367"><ele>61.8</ele><time>2026-05-02T09:07:10Z</time></trkpt><trkpt lat="40.84748272201384" lon="9.418562896436041"><ele>62.199999999999996</ele><time>2026-05-02T09:07:12Z</time></trkpt><trkpt lat="40.847378189898365" lon="9.418503892604225"><ele>62.599999999999994</ele><time>2026-05-02T09:07:14Z</time></trkpt><trkpt lat="40.84726657088897" lon="9.41842494016012"><ele>63.0</ele><time>2026-05-02T09:07:16Z</time></trkpt><trkpt lat="40.847192295285396" lon="9.418342428461584"><ele>63.0</ele><time>2026-05-02T09:07:18Z</time></trkpt><trkpt lat="40.84712525148552" lon="9.418212360334113"><ele>63.0</ele><time>2026-05-02T09:07:20Z</time></trkpt><trkpt lat="40.84708192808808" lon="9.418135068131285"><ele>63.0</ele><time>2026-05-02T09:07:21Z</time></trkpt><trkpt lat="40.84703844770684" lon="9.418049532399325"><ele>63.0</ele><time>2026-05-02T09:07:22Z</time></trkpt><trkpt lat="40.84699856587231" lon="9.417966014982012"><ele>63.0</ele><time>2026-05-02T09:07:23Z</time></trkpt><trkpt lat="40.846934737071685" lon="9.417829859179873"><ele>62.8</ele><time>2026-05-02T09:07:25Z</time></trkpt><trkpt lat="40.846865875011865" lon="9.417692989004536"><ele>62.599999999999994</ele><time>2026-05-02T09:07:27Z</time></trkpt><trkpt lat="40.846819875188814" lon="9.41758512916615"><ele>62.400000000000006</ele><time>2026-05-02T09:07:28Z</time></trkpt><trkpt lat="40.84677163397423" lon="9.417466003088514"><ele>62.2</ele><time>2026-05-02T09:07:29Z</time></trkpt><trkpt lat="40.84671861526433" lon="9.417347281819984"><ele>62.0</ele><time>2026-05-02T09:07:30Z</time></trkpt><trkpt lat="40.846653686954944" lon="9.417221384024023"><ele>62.6</ele><time>2026-05-02T09:07:31Z</time></trkpt><trkpt lat="40.846594137634455" lon="9.417092610620982"><ele>63.2</ele><time>2026-05-02T09:07:32Z</time></trkpt><trkpt lat="40.846541493357684" lon="9.416976877611225"><ele>63.8</ele><time>2026-05-02T09:07:33Z</time></trkpt><trkpt lat="40.84648534386863" lon="9.416872270068076"><ele>64.4</ele><time>2026-05-02T09:07:34Z</time></trkpt><trkpt lat="40.84642716869201" lon="9.416756372848527"><ele>65.0</ele><time>2026-05-02T09:07:35.001Z</time></trkpt><trkpt lat="40.84636552350829" lon="9.4166147319123"><ele>65.0</ele><time>2026-05-02T09:07:36.001Z</time></trkpt><trkpt lat="40.846311669053435" lon="9.416480272589977"><ele>65.0</ele><time>2026-05-02T09:07:37.001Z</time></trkpt><trkpt lat="40.846251723517476" lon="9.41635271906398"><ele>65.0</ele><time>2026-05-02T09:07:38Z</time></trkpt><trkpt lat="40.84618144272365" lon="9.416225529196828"><ele>65.0</ele><time>2026-05-02T09:07:39Z</time></trkpt><trkpt lat="40.84611352944084" lon="9.416118954269216"><ele>65.25</ele><time>2026-05-02T09:07:40Z</time></trkpt><trkpt lat="40.846039388828935" lon="9.415997173009366"><ele>65.5</ele><time>2026-05-02T09:07:41Z</time></trkpt><trkpt lat="40.84597043479081" lon="9.415862829241544"><ele>65.75</ele><time>2026-05-02T09:07:42Z</time></trkpt><trkpt lat="40.845902378467144" lon="9.415708679478097"><ele>66.0</ele><time>2026-05-02T09:07:43Z</time></trkpt><trkpt lat="40.84583916570817" lon="9.415547322625315"><ele>67.66666666666667</ele><time>2026-05-02T09:07:44Z</time></trkpt><trkpt lat="40.84577499740001" lon="9.415379769829649"><ele>69.33333333333334</ele><time>2026-05-02T09:07:45Z</time></trkpt><trkpt lat="40.84569862204116" lon="9.415198186253388"><ele>71.0</ele><time>2026-05-02T09:07:46Z</time></trkpt><trkpt lat="40.84562649091252" lon="9.415001075521504"><ele>71.0</ele><time>2026-05-02T09:07:47Z</time></trkpt><trkpt lat="40.84555504454286" lon="9.414815096619368"><ele>71.0</ele><time>2026-05-02T09:07:48Z</time></trkpt><trkpt lat="40.84547870106195" lon="9.414650538135245"><ele>71.0</ele><time>2026-05-02T09:07:49Z</time></trkpt><trkpt lat="40.84540757062324" lon="9.414485188218572"><ele>71.0</ele><time>2026-05-02T09:07:50Z</time></trkpt><trkpt lat="40.84533857396833" lon="9.414322347594949"><ele>72.0</ele><time>2026-05-02T09:07:51Z</time></trkpt><trkpt lat="40.84527322787486" lon="9.414166924218348"><ele>73.0</ele><time>2026-05-02T09:07:52Z</time></trkpt><trkpt lat="40.8452074374013" lon="9.414025024568426"><ele>74.0</ele><time>2026-05-02T09:07:53Z</time></trkpt><trkpt lat="40.84514512390901" lon="9.413893626781649"><ele>75.0</ele><time>2026-05-02T09:07:54Z</time></trkpt><trkpt lat="40.84508562809967" lon="9.413760120504461"><ele>75.83333333333333</ele><time>2026-05-02T09:07:55Z</time></trkpt><trkpt lat="40.845049820196095" lon="9.413632298570299"><ele>76.66666666666667</ele><time>2026-05-02T09:07:56Z</time></trkpt><trkpt lat="40.8450248001315" lon="9.413505803681893"><ele>77.5</ele><time>2026-05-02T09:07:57Z</time></trkpt><trkpt lat="40.84502514244067" lon="9.413380666984335"><ele>78.33333333333334</ele><time>2026-05-02T09:07:58Z</time></trkpt><trkpt lat="40.84504261874054" lon="9.413270162838506"><ele>79.16666666666667</ele><time>2026-05-02T09:07:59Z</time></trkpt><trkpt lat="40.84505007321865" lon="9.413183520551279"><ele>80.0</ele><time>2026-05-02T09:08:00Z</time></trkpt><trkpt lat="40.84502679921383" lon="9.413091040364682"><ele>80.0</ele><time>2026-05-02T09:08:02Z</time></trkpt><trkpt lat="40.844966638063056" lon="9.413058770577084"><ele>80.0</ele><time>2026-05-02T09:08:04Z</time></trkpt><trkpt lat="40.84489903658215" lon="9.413092922679892"><ele>80.0</ele><time>2026-05-02T09:08:05Z</time></trkpt><trkpt lat="40.84482925226199" lon="9.41314237268425"><ele>80.0</ele><time>2026-05-02T09:08:06Z</time></trkpt><trkpt lat="40.84476714128119" lon="9.413188660406957"><ele>80.0</ele><time>2026-05-02T09:08:07Z</time></trkpt><trkpt lat="40.8446811300809" lon="9.413248505024109"><ele>80.0</ele><time>2026-05-02T09:08:08Z</time></trkpt><trkpt lat="40.84458220381921" lon="9.413309360214987"><ele>80.0</ele><time>2026-05-02T09:08:09Z</time></trkpt><trkpt lat="40.84450582699901" lon="9.413356795064498"><ele>80.0</ele><time>2026-05-02T09:08:10Z</time></trkpt><trkpt lat="40.84444412552119" lon="9.4134017461711"><ele>80.0</ele><time>2026-05-02T09:08:11Z</time></trkpt><trkpt lat="40.84438130610251" lon="9.413451269512814"><ele>80.0</ele><time>2026-05-02T09:08:12Z</time></trkpt><trkpt lat="40.84431661048094" lon="9.413501994857258"><ele>80.0</ele><time>2026-05-02T09:08:13Z</time></trkpt><trkpt lat="40.8442384701458" lon="9.413543313735474"><ele>80.0</ele><time>2026-05-02T09:08:14Z</time></trkpt><trkpt lat="40.84416271504204" lon="9.41357385109615"><ele>80.4</ele><time>2026-05-02T09:08:15Z</time></trkpt><trkpt lat="40.84408385769526" lon="9.413605015335238"><ele>80.8</ele><time>2026-05-02T09:08:17Z</time></trkpt><trkpt lat="40.84404739797215" lon="9.413718739118961"><ele>81.19999999999999</ele><time>2026-05-02T09:08:19Z</time></trkpt><trkpt lat="40.84406924666059" lon="9.413818894662212"><ele>81.6</ele><time>2026-05-02T09:08:20Z</time></trkpt><trkpt lat="40.84411874922012" lon="9.413939087997903"><ele>82.0</ele><time>2026-05-02T09:08:21Z</time></trkpt><trkpt lat="40.84417175610058" lon="9.41408283771673"><ele>82.0</ele><time>2026-05-02T09:08:22Z</time></trkpt><trkpt lat="40.844222465517404" lon="9.414258039766622"><ele>82.0</ele><time>2026-05-02T09:08:23Z</time></trkpt><trkpt lat="40.8442701116427" lon="9.414435690399763"><ele>82.0</ele><time>2026-05-02T09:08:24Z</time></trkpt><trkpt lat="40.844312053438784" lon="9.414602225401756"><ele>82.0</ele><time>2026-05-02T09:08:25Z</time></trkpt><trkpt lat="40.844359128319724" lon="9.414791934740114"><ele>80.5</ele><time>2026-05-02T09:08:26Z</time></trkpt><trkpt lat="40.844402244294216" lon="9.414963661211361"><ele>79.0</ele><time>2026-05-02T09:08:27Z</time></trkpt><trkpt lat="40.8444449109691" lon="9.415137373836917"><ele>77.5</ele><time>2026-05-02T09:08:28Z</time></trkpt><trkpt lat="40.84448627362274" lon="9.41530878012236"><ele>76.0</ele><time>2026-05-02T09:08:29Z</time></trkpt><trkpt lat="40.844534751872295" lon="9.41548053120412"><ele>75.5</ele><time>2026-05-02T09:08:30Z</time></trkpt><trkpt lat="40.84458345453251" lon="9.415648682818427"><ele>75.0</ele><time>2026-05-02T09:08:31Z</time></trkpt><trkpt lat="40.84463777532557" lon="9.415813078800566"><ele>74.5</ele><time>2026-05-02T09:08:32Z</time></trkpt><trkpt lat="40.84470057284095" lon="9.415971483541703"><ele>74.0</ele><time>2026-05-02T09:08:33Z</time></trkpt><trkpt lat="40.84476592065411" lon="9.416126416113777"><ele>74.0</ele><time>2026-05-02T09:08:34Z</time></trkpt><trkpt lat="40.844846347372844" lon="9.416282477919712"><ele>74.0</ele><time>2026-05-02T09:08:35Z</time></trkpt><trkpt lat="40.844925332835324" lon="9.416447726838388"><ele>74.0</ele><time>2026-05-02T09:08:36Z</time></trkpt><trkpt lat="40.84499364226716" lon="9.416609402969984"><ele>74.0</ele><time>2026-05-02T09:08:37Z</time></trkpt><trkpt lat="40.845059927892" lon="9.41675665385579"><ele>73.0</ele><time>2026-05-02T09:08:38Z</time></trkpt><trkpt lat="40.845153411029536" lon="9.416907179001784"><ele>72.0</ele><time>2026-05-02T09:08:39Z</time></trkpt><trkpt lat="40.845252581706596" lon="9.417060199362014"><ele>71.0</ele><time>2026-05-02T09:08:40Z</time></trkpt><trkpt lat="40.845333501425365" lon="9.417202066293838"><ele>70.0</ele><time>2026-05-02T09:08:41Z</time></trkpt><trkpt lat="40.845408032123196" lon="9.417330891670419"><ele>69.5</ele><time>2026-05-02T09:08:42Z</time></trkpt><trkpt lat="40.8454819658641" lon="9.417452226643265"><ele>69.0</ele><time>2026-05-02T09:08:43Z</time></trkpt><trkpt lat="40.845559047765136" lon="9.41757558732459"><ele>68.5</ele><time>2026-05-02T09:08:44Z</time></trkpt><trkpt lat="40.84563715586138" lon="9.417687399480348"><ele>68.0</ele><time>2026-05-02T09:08:45Z</time></trkpt><trkpt lat="40.84571203679067" lon="9.417797955155521"><ele>68.0</ele><time>2026-05-02T09:08:46Z</time></trkpt><trkpt lat="40.845787088060845" lon="9.417899801482454"><ele>68.0</ele><time>2026-05-02T09:08:47Z</time></trkpt><trkpt lat="40.845860321342656" lon="9.417997475373122"><ele>68.0</ele><time>2026-05-02T09:08:48Z</time></trkpt><trkpt lat="40.845931283169584" lon="9.4180952563358"><ele>68.0</ele><time>2026-05-02T09:08:49Z</time></trkpt><trkpt lat="40.84600392335137" lon="9.418191288063952"><ele>68.0</ele><time>2026-05-02T09:08:50Z</time></trkpt><trkpt lat="40.846079530082854" lon="9.418284344166995"><ele>68.0</ele><time>2026-05-02T09:08:51Z</time></trkpt><trkpt lat="40.84615188961646" lon="9.418380761435845"><ele>68.0</ele><time>2026-05-02T09:08:52Z</time></trkpt><trkpt lat="40.846219006850845" lon="9.418493772915456"><ele>68.0</ele><time>2026-05-02T09:08:53Z</time></trkpt><trkpt lat="40.84628502330825" lon="9.41863554034414"><ele>68.0</ele><time>2026-05-02T09:08:54Z</time></trkpt><trkpt lat="40.846336351994914" lon="9.418798191989186"><ele>68.5</ele><time>2026-05-02T09:08:55Z</time></trkpt><trkpt lat="40.84638546901896" lon="9.41897506226301"><ele>69.0</ele><time>2026-05-02T09:08:56Z</time></trkpt><trkpt lat="40.84644030924897" lon="9.419150049443425"><ele>69.5</ele><time>2026-05-02T09:08:57Z</time></trkpt><trkpt lat="40.84650817155243" lon="9.419328953996535"><ele>70.0</ele><time>2026-05-02T09:08:58Z</time></trkpt><trkpt lat="40.846578620537684" lon="9.419517926876978"><ele>70.0</ele><time>2026-05-02T09:08:59Z</time></trkpt><trkpt lat="40.84665792589603" lon="9.419710499299706"><ele>70.0</ele><time>2026-05-02T09:09:00Z</time></trkpt><trkpt lat="40.846735421869795" lon="9.419892856918326"><ele>70.0</ele><time>2026-05-02T09:09:01Z</time></trkpt><trkpt lat="40.84681411929139" lon="9.42008169277529"><ele>68.75</ele><time>2026-05-02T09:09:02Z</time></trkpt><trkpt lat="40.84689084040033" lon="9.420261715399404"><ele>67.5</ele><time>2026-05-02T09:09:03Z</time></trkpt><trkpt lat="40.84696801985837" lon="9.420430644745434"><ele>66.25</ele><time>2026-05-02T09:09:04Z</time></trkpt><trkpt lat="40.84703686390768" lon="9.420588909134377"><ele>65.0</ele><time>2026-05-02T09:09:05Z</time></trkpt><trkpt lat="40.84710699642532" lon="9.42073609553677"><ele>65.0</ele><time>2026-05-02T09:09:06Z</time></trkpt><trkpt lat="40.847170294689654" lon="9.420862355837237"><ele>65.0</ele><time>2026-05-02T09:09:07Z</time></trkpt><trkpt lat="40.84722026514484" lon="9.420965658866262"><ele>65.0</ele><time>2026-05-02T09:09:08Z</time></trkpt><trkpt lat="40.847255638302755" lon="9.421039509508406"><ele>65.0</ele><time>2026-05-02T09:09:09Z</time></trkpt><trkpt lat="40.847311663022666" lon="9.42115555689377"><ele>65.0</ele><time>2026-05-02T09:09:11Z</time></trkpt><trkpt lat="40.84738737983261" lon="9.421290194078335"><ele>64.8</ele><time>2026-05-02T09:09:13Z</time></trkpt><trkpt lat="40.847439334317635" lon="9.421377953642931"><ele>64.6</ele><time>2026-05-02T09:09:14Z</time></trkpt><trkpt lat="40.84750162327391" lon="9.421481220918121"><ele>64.4</ele><time>2026-05-02T09:09:15Z</time></trkpt><trkpt lat="40.84757061700135" lon="9.421589408812707"><ele>64.2</ele><time>2026-05-02T09:09:16Z</time></trkpt><trkpt lat="40.8476439559616" lon="9.421702830714676"><ele>64.0</ele><time>2026-05-02T09:09:17Z</time></trkpt><trkpt lat="40.84771383948707" lon="9.421808616517012"><ele>64.0</ele><time>2026-05-02T09:09:18Z</time></trkpt><trkpt lat="40.84778443603262" lon="9.421921588074198"><ele>64.0</ele><time>2026-05-02T09:09:19Z</time></trkpt><trkpt lat="40.84787011802616" lon="9.422041082881103"><ele>64.0</ele><time>2026-05-02T09:09:20Z</time></trkpt><trkpt lat="40.84794876971734" lon="9.422149924556944"><ele>64.0</ele><time>2026-05-02T09:09:21Z</time></trkpt><trkpt lat="40.8480255189395" lon="9.422250723902481"><ele>64.0</ele><time>2026-05-02T09:09:22Z</time></trkpt><trkpt lat="40.84810476212555" lon="9.422344940765527"><ele>64.0</ele><time>2026-05-02T09:09:23Z</time></trkpt><trkpt lat="40.84819306352198" lon="9.422449377396486"><ele>64.0</ele><time>2026-05-02T09:09:24Z</time></trkpt><trkpt lat="40.84828957626224" lon="9.422558819182898"><ele>64.0</ele><time>2026-05-02T09:09:25Z</time></trkpt><trkpt lat="40.84838902912087" lon="9.422674011847207"><ele>63.5</ele><time>2026-05-02T09:09:26Z</time></trkpt><trkpt lat="40.84848943955185" lon="9.422794582813259"><ele>63.0</ele><time>2026-05-02T09:09:27Z</time></trkpt><trkpt lat="40.848590470297054" lon="9.422912045629646"><ele>62.5</ele><time>2026-05-02T09:09:28Z</time></trkpt><trkpt lat="40.848692595434045" lon="9.423024608300613"><ele>62.0</ele><time>2026-05-02T09:09:29Z</time></trkpt><trkpt lat="40.848796319020146" lon="9.423133211859646"><ele>62.0</ele><time>2026-05-02T09:09:30Z</time></trkpt><trkpt lat="40.84889955715993" lon="9.423241469923438"><ele>62.0</ele><time>2026-05-02T09:09:31Z</time></trkpt><trkpt lat="40.848997524614255" lon="9.42334892693142"><ele>62.0</ele><time>2026-05-02T09:09:32Z</time></trkpt><trkpt lat="40.849093329322535" lon="9.423444378009824"><ele>62.0</ele><time>2026-05-02T09:09:33Z</time></trkpt><trkpt lat="40.84917481299841" lon="9.423517476746847"><ele>62.00000000000001</ele><time>2026-05-02T09:09:34Z</time></trkpt><trkpt lat="40.84924632118383" lon="9.423585912868594"><ele>62.0</ele><time>2026-05-02T09:09:35Z</time></trkpt><trkpt lat="40.849307897294516" lon="9.423645811069646"><ele>62.0</ele><time>2026-05-02T09:09:36Z</time></trkpt><trkpt lat="40.84936217036755" lon="9.423703033428977"><ele>62.0</ele><time>2026-05-02T09:09:37Z</time></trkpt><trkpt lat="40.8494170185365" lon="9.423765083784069"><ele>62.00000000000001</ele><time>2026-05-02T09:09:38Z</time></trkpt><trkpt lat="40.849492960874116" lon="9.42384509611043"><ele>62.0</ele><time>2026-05-02T09:09:40Z</time></trkpt><trkpt lat="40.84956571095883" lon="9.423867122888133"><ele>61.6</ele><time>2026-05-02T09:09:42Z</time></trkpt><trkpt lat="40.84964263137902" lon="9.423827014986738"><ele>61.2</ele><time>2026-05-02T09:09:44Z</time></trkpt><trkpt lat="40.8496985788898" lon="9.423740420056689"><ele>60.8</ele><time>2026-05-02T09:09:46Z</time></trkpt><trkpt lat="40.84975143957859" lon="9.423640399171477"><ele>60.4</ele><time>2026-05-02T09:09:48Z</time></trkpt><trkpt lat="40.849827128645686" lon="9.423556053946156"><ele>60.0</ele><time>2026-05-02T09:09:50Z</time></trkpt><trkpt lat="40.849926647578414" lon="9.42353793485233"><ele>60.0</ele><time>2026-05-02T09:09:53Z</time></trkpt><trkpt lat="40.84998216310992" lon="9.423591964736746"><ele>60.0</ele><time>2026-05-02T09:09:55Z</time></trkpt><trkpt lat="40.84990973455669" lon="9.423534468946524"><ele>60.0</ele><time>2026-05-02T09:16:42Z</time></trkpt><trkpt lat="40.849845287671435" lon="9.42355261505701"><ele>60.0</ele><time>2026-05-02T09:16:44Z</time></trkpt><trkpt lat="40.849777581336205" lon="9.423609874230047"><ele>60.0</ele><time>2026-05-02T09:16:46Z</time></trkpt><trkpt lat="40.84972532982018" lon="9.423694703037038"><ele>60.0</ele><time>2026-05-02T09:16:48Z</time></trkpt><trkpt lat="40.849654637085486" lon="9.423806606797406"><ele>60.0</ele><time>2026-05-02T09:16:50Z</time></trkpt><trkpt lat="40.84960699713932" lon="9.42386458767935"><ele>60.0</ele><time>2026-05-02T09:16:51Z</time></trkpt><trkpt lat="40.84953240445407" lon="9.423875707617649"><ele>60.0</ele><time>2026-05-02T09:16:53Z</time></trkpt><trkpt lat="40.84945440794706" lon="9.423819987509317"><ele>60.0</ele><time>2026-05-02T09:16:55Z</time></trkpt><trkpt lat="40.84940008075808" lon="9.423737265199366"><ele>60.0</ele><time>2026-05-02T09:16:56Z</time></trkpt><trkpt lat="40.8493403808135" lon="9.423650944043183"><ele>60.0</ele><time>2026-05-02T09:16:57Z</time></trkpt><trkpt lat="40.8492824020396" lon="9.423592174985606"><ele>60.4</ele><time>2026-05-02T09:16:58Z</time></trkpt><trkpt lat="40.84921718389427" lon="9.423533315098178"><ele>60.8</ele><time>2026-05-02T09:16:59Z</time></trkpt><trkpt lat="40.84913817971739" lon="9.423463972704116"><ele>61.2</ele><time>2026-05-02T09:17:00Z</time></trkpt><trkpt lat="40.84904274174494" lon="9.423370410275387"><ele>61.6</ele><time>2026-05-02T09:17:01Z</time></trkpt><trkpt lat="40.84894764132064" lon="9.423274368102755"><ele>62.0</ele><time>2026-05-02T09:17:02Z</time></trkpt><trkpt lat="40.848845650129434" lon="9.423164673928529"><ele>62.0</ele><time>2026-05-02T09:17:03Z</time></trkpt><trkpt lat="40.84873352122164" lon="9.42303870986092"><ele>62.0</ele><time>2026-05-02T09:17:04Z</time></trkpt><trkpt lat="40.848634386844374" lon="9.42292330714093"><ele>62.0</ele><time>2026-05-02T09:17:05Z</time></trkpt><trkpt lat="40.848544333774825" lon="9.422822450002066"><ele>62.0</ele><time>2026-05-02T09:17:06Z</time></trkpt><trkpt lat="40.84846104066718" lon="9.422730399997755"><ele>62.400000000000006</ele><time>2026-05-02T09:17:07Z</time></trkpt><trkpt lat="40.84838072535922" lon="9.422641183468574"><ele>62.800000000000004</ele><time>2026-05-02T09:17:08Z</time></trkpt><trkpt lat="40.848296787412046" lon="9.422562034350799"><ele>63.2</ele><time>2026-05-02T09:17:09Z</time></trkpt><trkpt lat="40.84823286770799" lon="9.422460834988588"><ele>63.6</ele><time>2026-05-02T09:17:10Z</time></trkpt><trkpt lat="40.848159459274804" lon="9.422370370291699"><ele>64.0</ele><time>2026-05-02T09:17:11Z</time></trkpt><trkpt lat="40.848091688468735" lon="9.422285433302669"><ele>64.0</ele><time>2026-05-02T09:17:12Z</time></trkpt><trkpt lat="40.84802321788075" lon="9.42219623850557"><ele>64.0</ele><time>2026-05-02T09:17:13Z</time></trkpt><trkpt lat="40.84795173696315" lon="9.422101649978059"><ele>64.0</ele><time>2026-05-02T09:17:14Z</time></trkpt><trkpt lat="40.847864366542666" lon="9.422012610037623"><ele>64.0</ele><time>2026-05-02T09:17:15Z</time></trkpt><trkpt lat="40.84779119008841" lon="9.421909247912586"><ele>64.0</ele><time>2026-05-02T09:17:16Z</time></trkpt><trkpt lat="40.84773155074392" lon="9.421788832943363"><ele>64.0</ele><time>2026-05-02T09:17:17Z</time></trkpt><trkpt lat="40.84764838415462" lon="9.421695368301208"><ele>64.0</ele><time>2026-05-02T09:17:18Z</time></trkpt><trkpt lat="40.84758114879687" lon="9.421589376621244"><ele>64.0</ele><time>2026-05-02T09:17:19Z</time></trkpt><trkpt lat="40.84751663030506" lon="9.421481534926523"><ele>64.0</ele><time>2026-05-02T09:17:20Z</time></trkpt><trkpt lat="40.84746684659657" lon="9.42136076341394"><ele>64.0</ele><time>2026-05-02T09:17:21Z</time></trkpt><trkpt lat="40.84740709656478" lon="9.421252003681508"><ele>64.2</ele><time>2026-05-02T09:17:22Z</time></trkpt><trkpt lat="40.84734661488839" lon="9.421138455113777"><ele>64.4</ele><time>2026-05-02T09:17:23Z</time></trkpt><trkpt lat="40.84727724456476" lon="9.421041108151815"><ele>64.6</ele><time>2026-05-02T09:17:24Z</time></trkpt><trkpt lat="40.84722078820801" lon="9.420928393635446"><ele>64.8</ele><time>2026-05-02T09:17:25Z</time></trkpt><trkpt lat="40.84716679644771" lon="9.420824900839925"><ele>65.0</ele><time>2026-05-02T09:17:26Z</time></trkpt><trkpt lat="40.84711395945266" lon="9.420717819057655"><ele>65.0</ele><time>2026-05-02T09:17:27Z</time></trkpt><trkpt lat="40.84707455271647" lon="9.420607265801424"><ele>65.0</ele><time>2026-05-02T09:17:28Z</time></trkpt><trkpt lat="40.84702509628177" lon="9.420497301083318"><ele>65.0</ele><time>2026-05-02T09:17:29Z</time></trkpt><trkpt lat="40.846978915671436" lon="9.42039460301037"><ele>65.0</ele><time>2026-05-02T09:17:30Z</time></trkpt><trkpt lat="40.84691208686208" lon="9.420287992778915"><ele>65.0</ele><time>2026-05-02T09:17:31Z</time></trkpt><trkpt lat="40.84686001150607" lon="9.42016501324866"><ele>64.75</ele><time>2026-05-02T09:17:32Z</time></trkpt><trkpt lat="40.84680445943569" lon="9.42003264583777"><ele>64.5</ele><time>2026-05-02T09:17:33Z</time></trkpt><trkpt lat="40.84674899698293" lon="9.419898175310221"><ele>64.25</ele><time>2026-05-02T09:17:34Z</time></trkpt><trkpt lat="40.846684421893066" lon="9.419750722841457"><ele>64.0</ele><time>2026-05-02T09:17:35Z</time></trkpt><trkpt lat="40.8466345213974" lon="9.419583604514488"><ele>65.5</ele><time>2026-05-02T09:17:36Z</time></trkpt><trkpt lat="40.84657169831813" lon="9.419423175891914"><ele>67.0</ele><time>2026-05-02T09:17:37Z</time></trkpt><trkpt lat="40.84649131608533" lon="9.41925740496358"><ele>68.5</ele><time>2026-05-02T09:17:38Z</time></trkpt><trkpt lat="40.84642783818855" lon="9.419068145131154"><ele>70.0</ele><time>2026-05-02T09:17:39Z</time></trkpt><trkpt lat="40.846369523924885" lon="9.418895770005067"><ele>69.5</ele><time>2026-05-02T09:17:40Z</time></trkpt><trkpt lat="40.84631723397971" lon="9.418740512315837"><ele>69.0</ele><time>2026-05-02T09:17:41Z</time></trkpt><trkpt lat="40.84628395566853" lon="9.418591493838406"><ele>68.5</ele><time>2026-05-02T09:17:42Z</time></trkpt><trkpt lat="40.84623452840729" lon="9.41845345027675"><ele>68.0</ele><time>2026-05-02T09:17:43Z</time></trkpt><trkpt lat="40.84614950171023" lon="9.418322136382821"><ele>68.0</ele><time>2026-05-02T09:17:44Z</time></trkpt><trkpt lat="40.84604263565035" lon="9.418207701109692"><ele>68.0</ele><time>2026-05-02T09:17:45Z</time></trkpt><trkpt lat="40.845942702994364" lon="9.418064758781842"><ele>68.0</ele><time>2026-05-02T09:17:46Z</time></trkpt><trkpt lat="40.84584681651612" lon="9.41793104460814"><ele>68.0</ele><time>2026-05-02T09:17:47Z</time></trkpt><trkpt lat="40.84574961469975" lon="9.417804275953484"><ele>68.0</ele><time>2026-05-02T09:17:48Z</time></trkpt><trkpt lat="40.845648020620715" lon="9.417696467708012"><ele>68.0</ele><time>2026-05-02T09:17:49Z</time></trkpt><trkpt lat="40.84557800968472" lon="9.417554953458701"><ele>68.0</ele><time>2026-05-02T09:17:50Z</time></trkpt><trkpt lat="40.84549855810579" lon="9.417428451328076"><ele>68.0</ele><time>2026-05-02T09:17:51Z</time></trkpt><trkpt lat="40.845419225567866" lon="9.417300840972027"><ele>68.0</ele><time>2026-05-02T09:17:52Z</time></trkpt><trkpt lat="40.84534684085697" lon="9.417178152480787"><ele>68.0</ele><time>2026-05-02T09:17:53Z</time></trkpt><trkpt lat="40.84526192383705" lon="9.417065082791934"><ele>68.0</ele><time>2026-05-02T09:17:54Z</time></trkpt><trkpt lat="40.84520340253973" lon="9.416924279620789"><ele>68.0</ele><time>2026-05-02T09:17:55Z</time></trkpt><trkpt lat="40.84511550730334" lon="9.416806920213237"><ele>69.5</ele><time>2026-05-02T09:17:56Z</time></trkpt><trkpt lat="40.845053933384314" lon="9.416669845329427"><ele>71.0</ele><time>2026-05-02T09:17:57Z</time></trkpt><trkpt lat="40.84499320961693" lon="9.41653553282124"><ele>72.5</ele><time>2026-05-02T09:17:58Z</time></trkpt><trkpt lat="40.84492925960218" lon="9.416385994719661"><ele>74.0</ele><time>2026-05-02T09:17:59Z</time></trkpt><trkpt lat="40.84484595642172" lon="9.416249775641896"><ele>74.0</ele><time>2026-05-02T09:18:00Z</time></trkpt><trkpt lat="40.84477668724358" lon="9.416109138323929"><ele>74.0</ele><time>2026-05-02T09:18:01Z</time></trkpt><trkpt lat="40.84471930390508" lon="9.415974417607966"><ele>74.0</ele><time>2026-05-02T09:18:02Z</time></trkpt><trkpt lat="40.844666734393485" lon="9.415836717729269"><ele>74.0</ele><time>2026-05-02T09:18:03Z</time></trkpt><trkpt lat="40.84461424867073" lon="9.415696736338072"><ele>74.0</ele><time>2026-05-02T09:18:04Z</time></trkpt><trkpt lat="40.84456508501729" lon="9.415549827905789"><ele>74.0</ele><time>2026-05-02T09:18:05Z</time></trkpt><trkpt lat="40.84453552749947" lon="9.41539210695483"><ele>74.0</ele><time>2026-05-02T09:18:06Z</time></trkpt><trkpt lat="40.844494417101316" lon="9.415237521455483"><ele>74.0</ele><time>2026-05-02T09:18:07Z</time></trkpt><trkpt lat="40.84444077098053" lon="9.415082756774309"><ele>74.5</ele><time>2026-05-02T09:18:08Z</time></trkpt><trkpt lat="40.844405952977226" lon="9.41493398462203"><ele>75.0</ele><time>2026-05-02T09:18:09Z</time></trkpt><trkpt lat="40.844370229133524" lon="9.414790980534416"><ele>75.5</ele><time>2026-05-02T09:18:10Z</time></trkpt><trkpt lat="40.84432393954563" lon="9.414532815253967"><ele>76.0</ele><time>2026-05-02T09:18:11Z</time></trkpt><trkpt lat="40.84426623069291" lon="9.414364830499956"><ele>77.5</ele><time>2026-05-02T09:18:12Z</time></trkpt><trkpt lat="40.84422617812914" lon="9.414197494027851"><ele>79.0</ele><time>2026-05-02T09:18:13Z</time></trkpt><trkpt lat="40.84417556762569" lon="9.41404102400976"><ele>80.5</ele><time>2026-05-02T09:18:14Z</time></trkpt><trkpt lat="40.84409535594407" lon="9.413907966444716"><ele>82.0</ele><time>2026-05-02T09:18:15Z</time></trkpt><trkpt lat="40.844078937391956" lon="9.413780874498642"><ele>82.0</ele><time>2026-05-02T09:18:16Z</time></trkpt><trkpt lat="40.844072906449796" lon="9.413684484743262"><ele>82.0</ele><time>2026-05-02T09:18:17Z</time></trkpt><trkpt lat="40.84406367954933" lon="9.41358345531806"><ele>82.0</ele><time>2026-05-02T09:18:19Z</time></trkpt><trkpt lat="40.84417736970127" lon="9.41359349713944"><ele>82.0</ele><time>2026-05-02T09:18:22Z</time></trkpt><trkpt lat="40.84425489101578" lon="9.413557711861188"><ele>82.0</ele><time>2026-05-02T09:18:23Z</time></trkpt><trkpt lat="40.844327581960165" lon="9.413524156179541"><ele>82.0</ele><time>2026-05-02T09:18:24Z</time></trkpt><trkpt lat="40.844419500453334" lon="9.413471710978534"><ele>81.6</ele><time>2026-05-02T09:18:25Z</time></trkpt><trkpt lat="40.84451162124044" lon="9.413411405262552"><ele>81.19999999999999</ele><time>2026-05-02T09:18:26Z</time></trkpt><trkpt lat="40.84460991263228" lon="9.413346658772754"><ele>80.8</ele><time>2026-05-02T09:18:27Z</time></trkpt><trkpt lat="40.844723055284604" lon="9.413275153537501"><ele>80.4</ele><time>2026-05-02T09:18:28Z</time></trkpt><trkpt lat="40.844814441014265" lon="9.413191458566716"><ele>80.0</ele><time>2026-05-02T09:18:29Z</time></trkpt><trkpt lat="40.84488842340532" lon="9.413143459294067"><ele>80.0</ele><time>2026-05-02T09:18:30Z</time></trkpt><trkpt lat="40.84495201690738" lon="9.413100216582125"><ele>80.0</ele><time>2026-05-02T09:18:31Z</time></trkpt><trkpt lat="40.845009250015764" lon="9.412966570841338"><ele>80.0</ele><time>2026-05-02T09:18:33Z</time></trkpt><trkpt lat="40.84502923316216" lon="9.412875574121575"><ele>80.0</ele><time>2026-05-02T09:18:34Z</time></trkpt><trkpt lat="40.84504158675937" lon="9.412785059757"><ele>80.0</ele><time>2026-05-02T09:18:35Z</time></trkpt><trkpt lat="40.84504472311302" lon="9.41269184808309"><ele>80.0</ele><time>2026-05-02T09:18:36Z</time></trkpt><trkpt lat="40.845035545696966" lon="9.412599488826965"><ele>80.4</ele><time>2026-05-02T09:18:37Z</time></trkpt><trkpt lat="40.84502356736833" lon="9.41243112990749"><ele>80.8</ele><time>2026-05-02T09:18:39Z</time></trkpt><trkpt lat="40.845020002507276" lon="9.412324532344934"><ele>81.19999999999999</ele><time>2026-05-02T09:18:40Z</time></trkpt><trkpt lat="40.845000499103364" lon="9.412216546339126"><ele>81.6</ele><time>2026-05-02T09:18:41Z</time></trkpt><trkpt lat="40.84500597369636" lon="9.412082317362238"><ele>82.0</ele><time>2026-05-02T09:18:42Z</time></trkpt><trkpt lat="40.84502784814189" lon="9.411945750730931"><ele>82.0</ele><time>2026-05-02T09:18:43Z</time></trkpt><trkpt lat="40.845035558794564" lon="9.411819348276552"><ele>82.0</ele><time>2026-05-02T09:18:44Z</time></trkpt><trkpt lat="40.845028696862464" lon="9.411703513939733"><ele>82.0</ele><time>2026-05-02T09:18:45Z</time></trkpt><trkpt lat="40.845039326871856" lon="9.411597385902862"><ele>82.0</ele><time>2026-05-02T09:18:46Z</time></trkpt><trkpt lat="40.84504569108236" lon="9.411501908107608"><ele>82.0</ele><time>2026-05-02T09:18:47Z</time></trkpt><trkpt lat="40.845052734486785" lon="9.411340134086695"><ele>81.6</ele><time>2026-05-02T09:18:49Z</time></trkpt><trkpt lat="40.84505882085109" lon="9.411254261844052"><ele>81.19999999999999</ele><time>2026-05-02T09:18:50Z</time></trkpt><trkpt lat="40.84502401694796" lon="9.41114355686817"><ele>80.8</ele><time>2026-05-02T09:18:51Z</time></trkpt><trkpt lat="40.844968605976064" lon="9.411031749208897"><ele>80.4</ele><time>2026-05-02T09:18:52Z</time></trkpt><trkpt lat="40.84491372041019" lon="9.410920779276777"><ele>80.0</ele><time>2026-05-02T09:18:53Z</time></trkpt><trkpt lat="40.844856426047315" lon="9.410802737185774"><ele>80.0</ele><time>2026-05-02T09:18:54Z</time></trkpt><trkpt lat="40.84479987641552" lon="9.41068495610527"><ele>80.0</ele><time>2026-05-02T09:18:55Z</time></trkpt><trkpt lat="40.8447514027562" lon="9.410582630915162"><ele>80.0</ele><time>2026-05-02T09:18:56Z</time></trkpt><trkpt lat="40.84469755757584" lon="9.410468966746928"><ele>80.0</ele><time>2026-05-02T09:18:57Z</time></trkpt><trkpt lat="40.84464521569172" lon="9.410359587671422"><ele>80.0</ele><time>2026-05-02T09:18:58Z</time></trkpt><trkpt lat="40.8445975592444" lon="9.410260070408336"><ele>80.0</ele><time>2026-05-02T09:18:59Z</time></trkpt><trkpt lat="40.84455293682032" lon="9.41016679423593"><ele>80.0</ele><time>2026-05-02T09:19:00Z</time></trkpt><trkpt lat="40.84451327288848" lon="9.410080927726952"><ele>80.0</ele><time>2026-05-02T09:19:01Z</time></trkpt><trkpt lat="40.84447979836695" lon="9.410006162793879"><ele>80.0</ele><time>2026-05-02T09:19:02Z</time></trkpt><trkpt lat="40.844432511102205" lon="9.409901925320742"><ele>80.0</ele><time>2026-05-02T09:19:04Z</time></trkpt><trkpt lat="40.84447617744523" lon="9.409798052508155"><ele>80.0</ele><time>2026-05-02T09:19:06Z</time></trkpt><trkpt lat="40.844539632281034" lon="9.409746680389409"><ele>80.0</ele><time>2026-05-02T09:19:07Z</time></trkpt><trkpt lat="40.844594387072654" lon="9.409635597997399"><ele>80.0</ele><time>2026-05-02T09:19:08Z</time></trkpt><trkpt lat="40.84465214564811" lon="9.409543164838523"><ele>80.0</ele><time>2026-05-02T09:19:09Z</time></trkpt><trkpt lat="40.84470763602802" lon="9.409450470373988"><ele>80.0</ele><time>2026-05-02T09:19:10Z</time></trkpt><trkpt lat="40.844763813426695" lon="9.409373321127005"><ele>80.0</ele><time>2026-05-02T09:19:11Z</time></trkpt><trkpt lat="40.84480531836375" lon="9.409302096369391"><ele>80.0</ele><time>2026-05-02T09:19:12Z</time></trkpt><trkpt lat="40.844848734768455" lon="9.40924152220728"><ele>80.0</ele><time>2026-05-02T09:19:13Z</time></trkpt><trkpt lat="40.844846677065206" lon="9.409133785400012"><ele>80.0</ele><time>2026-05-02T09:19:14Z</time></trkpt><trkpt lat="40.84482277194769" lon="9.409007034445366"><ele>80.0</ele><time>2026-05-02T09:19:15Z</time></trkpt><trkpt lat="40.84479640923154" lon="9.408873049604136"><ele>80.0</ele><time>2026-05-02T09:19:16Z</time></trkpt><trkpt lat="40.84475666222109" lon="9.408744120500563"><ele>80.0</ele><time>2026-05-02T09:19:17Z</time></trkpt><trkpt lat="40.8447066085422" lon="9.40862320213958"><ele>79.6</ele><time>2026-05-02T09:19:18Z</time></trkpt><trkpt lat="40.8446581394718" lon="9.408500072843266"><ele>79.2</ele><time>2026-05-02T09:19:19Z</time></trkpt><trkpt lat="40.84461570903706" lon="9.408387215579342"><ele>78.8</ele><time>2026-05-02T09:19:20Z</time></trkpt><trkpt lat="40.84458821675233" lon="9.40827776440864"><ele>78.4</ele><time>2026-05-02T09:19:21Z</time></trkpt><trkpt lat="40.844563937729106" lon="9.408145640724555"><ele>78.0</ele><time>2026-05-02T09:19:22Z</time></trkpt><trkpt lat="40.84453547318004" lon="9.40800291156401"><ele>77.25</ele><time>2026-05-02T09:19:23Z</time></trkpt><trkpt lat="40.84450422817054" lon="9.407851052829095"><ele>76.5</ele><time>2026-05-02T09:19:24Z</time></trkpt><trkpt lat="40.844463446980754" lon="9.407708981736182"><ele>75.75</ele><time>2026-05-02T09:19:25Z</time></trkpt><trkpt lat="40.84444101727943" lon="9.40755620657297"><ele>75.0</ele><time>2026-05-02T09:19:26Z</time></trkpt><trkpt lat="40.84442680337349" lon="9.407395929263743"><ele>75.0</ele><time>2026-05-02T09:19:27Z</time></trkpt><trkpt lat="40.844414347444925" lon="9.407234062475451"><ele>75.0</ele><time>2026-05-02T09:19:28Z</time></trkpt><trkpt lat="40.84439950011238" lon="9.407084169888293"><ele>75.0</ele><time>2026-05-02T09:19:29Z</time></trkpt><trkpt lat="40.84438704371609" lon="9.40693789101733"><ele>75.0</ele><time>2026-05-02T09:19:30Z</time></trkpt><trkpt lat="40.84437993532934" lon="9.406812277915678"><ele>75.0</ele><time>2026-05-02T09:19:31Z</time></trkpt><trkpt lat="40.84437291648983" lon="9.406694534481082"><ele>75.2</ele><time>2026-05-02T09:19:32Z</time></trkpt><trkpt lat="40.8443507111188" lon="9.4065659331005"><ele>75.4</ele><time>2026-05-02T09:19:33Z</time></trkpt><trkpt lat="40.8443231204466" lon="9.406438926117868"><ele>75.6</ele><time>2026-05-02T09:19:34Z</time></trkpt><trkpt lat="40.84423737988812" lon="9.40633069185714"><ele>75.8</ele><time>2026-05-02T09:19:35Z</time></trkpt><trkpt lat="40.844158932761836" lon="9.406205104462881"><ele>76.0</ele><time>2026-05-02T09:19:36Z</time></trkpt><trkpt lat="40.844092058055445" lon="9.406065036629068"><ele>76.25</ele><time>2026-05-02T09:19:37Z</time></trkpt><trkpt lat="40.844014163831226" lon="9.405946687093847"><ele>76.5</ele><time>2026-05-02T09:19:38Z</time></trkpt><trkpt lat="40.843937040737444" lon="9.405833911467239"><ele>76.75</ele><time>2026-05-02T09:19:39Z</time></trkpt><trkpt lat="40.8438598645544" lon="9.405725710489936"><ele>77.0</ele><time>2026-05-02T09:19:40Z</time></trkpt><trkpt lat="40.843784114165466" lon="9.405628064038286"><ele>77.0</ele><time>2026-05-02T09:19:41Z</time></trkpt><trkpt lat="40.84370240455314" lon="9.405531824799539"><ele>77.0</ele><time>2026-05-02T09:19:42Z</time></trkpt><trkpt lat="40.843626863017136" lon="9.405442257690451"><ele>77.0</ele><time>2026-05-02T09:19:43Z</time></trkpt><trkpt lat="40.84356082566729" lon="9.405357535743546"><ele>77.0</ele><time>2026-05-02T09:19:44Z</time></trkpt><trkpt lat="40.84349854964512" lon="9.405274213242489"><ele>77.0</ele><time>2026-05-02T09:19:45Z</time></trkpt><trkpt lat="40.843440450015315" lon="9.40519386786561"><ele>77.16666666666667</ele><time>2026-05-02T09:19:46Z</time></trkpt><trkpt lat="40.84338489495239" lon="9.405117041343082"><ele>77.33333333333334</ele><time>2026-05-02T09:19:47Z</time></trkpt><trkpt lat="40.84333602596322" lon="9.405049460921122"><ele>77.5</ele><time>2026-05-02T09:19:48Z</time></trkpt><trkpt lat="40.84328776421402" lon="9.404980354916063"><ele>77.66666666666667</ele><time>2026-05-02T09:19:49Z</time></trkpt><trkpt lat="40.84323592967226" lon="9.404904535149578"><ele>77.83333333333333</ele><time>2026-05-02T09:19:50Z</time></trkpt><trkpt lat="40.84316819361295" lon="9.404834387698127"><ele>78.0</ele><time>2026-05-02T09:19:51Z</time></trkpt><trkpt lat="40.84312682872631" lon="9.404733165108238"><ele>78.0</ele><time>2026-05-02T09:19:52Z</time></trkpt><trkpt lat="40.84308221424482" lon="9.40465442032127"><ele>78.0</ele><time>2026-05-02T09:19:53Z</time></trkpt><trkpt lat="40.843038057024664" lon="9.404561824365146"><ele>78.0</ele><time>2026-05-02T09:19:54Z</time></trkpt><trkpt lat="40.84298481555131" lon="9.404464543958108"><ele>78.0</ele><time>2026-05-02T09:19:55.001Z</time></trkpt><trkpt lat="40.842942820025975" lon="9.40432132233943"><ele>78.0</ele><time>2026-05-02T09:19:56.001Z</time></trkpt><trkpt lat="40.84290198528424" lon="9.404160015373622"><ele>78.0</ele><time>2026-05-02T09:19:57.001Z</time></trkpt><trkpt lat="40.842863213174546" lon="9.404028635310835"><ele>78.0</ele><time>2026-05-02T09:19:58.001Z</time></trkpt><trkpt lat="40.84283644178284" lon="9.403905873141177"><ele>78.0</ele><time>2026-05-02T09:19:59.001Z</time></trkpt><trkpt lat="40.84277692715869" lon="9.403812981174521"><ele>78.0</ele><time>2026-05-02T09:20:00.001Z</time></trkpt><trkpt lat="40.84270624662641" lon="9.403746577071749"><ele>78.0</ele><time>2026-05-02T09:20:01.001Z</time></trkpt><trkpt lat="40.84262723829511" lon="9.403707892584091"><ele>78.16666666666667</ele><time>2026-05-02T09:20:02.001Z</time></trkpt><trkpt lat="40.84253215964574" lon="9.403713677442521"><ele>78.33333333333333</ele><time>2026-05-02T09:20:03.001Z</time></trkpt><trkpt lat="40.842455241741284" lon="9.403718924587213"><ele>78.5</ele><time>2026-05-02T09:20:04.001Z</time></trkpt><trkpt lat="40.84239522346966" lon="9.403693244185147"><ele>78.66666666666666</ele><time>2026-05-02T09:20:05.001Z</time></trkpt><trkpt lat="40.84231601640984" lon="9.403684842083019"><ele>78.83333333333333</ele><time>2026-05-02T09:20:08.001Z</time></trkpt><trkpt lat="40.8422862428892" lon="9.40376476867157"><ele>79.0</ele><time>2026-05-02T09:20:09.001Z</time></trkpt><trkpt lat="40.84220740412558" lon="9.403882431477578"><ele>79.2</ele><time>2026-05-02T09:20:11Z</time></trkpt><trkpt lat="40.84215365418108" lon="9.403949350846412"><ele>79.4</ele><time>2026-05-02T09:20:12Z</time></trkpt><trkpt lat="40.84206966907102" lon="9.4040159981311"><ele>79.6</ele><time>2026-05-02T09:20:13Z</time></trkpt><trkpt lat="40.841969730730355" lon="9.404067962401324"><ele>79.8</ele><time>2026-05-02T09:20:14Z</time></trkpt><trkpt lat="40.84185037897559" lon="9.40411796653961"><ele>80.0</ele><time>2026-05-02T09:20:15Z</time></trkpt><trkpt lat="40.841707506839725" lon="9.404157182750529"><ele>80.33333333333334</ele><time>2026-05-02T09:20:16Z</time></trkpt><trkpt lat="40.8415537543778" lon="9.404192102817838"><ele>80.66666666666667</ele><time>2026-05-02T09:20:17Z</time></trkpt><trkpt lat="40.841393457120425" lon="9.404231300776239"><ele>81.0</ele><time>2026-05-02T09:20:18Z</time></trkpt><trkpt lat="40.841225878426684" lon="9.404259155183714"><ele>81.0</ele><time>2026-05-02T09:20:19Z</time></trkpt><trkpt lat="40.84106149644534" lon="9.404279698413704"><ele>81.0</ele><time>2026-05-02T09:20:20Z</time></trkpt><trkpt lat="40.840899295054285" lon="9.404315739480213"><ele>81.0</ele><time>2026-05-02T09:20:21Z</time></trkpt><trkpt lat="40.84077261651186" lon="9.404352450631896"><ele>81.19999999999999</ele><time>2026-05-02T09:20:22Z</time></trkpt><trkpt lat="40.8406606635406" lon="9.404356753513843"><ele>81.39999999999999</ele><time>2026-05-02T09:20:23Z</time></trkpt><trkpt lat="40.84057067409819" lon="9.404365465048668"><ele>81.6</ele><time>2026-05-02T09:20:24Z</time></trkpt><trkpt lat="40.840508756048756" lon="9.404342350630273"><ele>81.8</ele><time>2026-05-02T09:20:25Z</time></trkpt><trkpt lat="40.84051040558538" lon="9.404558632954886"><ele>82.0</ele><time>2026-05-02T09:20:27Z</time></trkpt><trkpt lat="40.840535036554336" lon="9.404676444049024"><ele>82.0</ele><time>2026-05-02T09:20:28Z</time></trkpt><trkpt lat="40.84056215723266" lon="9.40483597818522"><ele>82.0</ele><time>2026-05-02T09:20:29Z</time></trkpt><trkpt lat="40.840625490016244" lon="9.404981182610936"><ele>82.0</ele><time>2026-05-02T09:20:30Z</time></trkpt><trkpt lat="40.840707643659535" lon="9.405107196731668"><ele>82.0</ele><time>2026-05-02T09:20:31Z</time></trkpt><trkpt lat="40.84081018599807" lon="9.405200795826948"><ele>82.0</ele><time>2026-05-02T09:20:32Z</time></trkpt><trkpt lat="40.84092988379911" lon="9.40524557822557"><ele>82.0</ele><time>2026-05-02T09:20:33Z</time></trkpt><trkpt lat="40.841061041816445" lon="9.405247284230091"><ele>82.0</ele><time>2026-05-02T09:20:34Z</time></trkpt><trkpt lat="40.841216145412574" lon="9.405222704927816"><ele>82.0</ele><time>2026-05-02T09:20:35Z</time></trkpt><trkpt lat="40.84135119448332" lon="9.405208618967208"><ele>82.25</ele><time>2026-05-02T09:20:36Z</time></trkpt><trkpt lat="40.84147702500215" lon="9.405244547368476"><ele>82.5</ele><time>2026-05-02T09:20:37Z</time></trkpt><trkpt lat="40.84159128758506" lon="9.405304220799387"><ele>82.75</ele><time>2026-05-02T09:20:38Z</time></trkpt><trkpt lat="40.84166837068322" lon="9.405445011008862"><ele>83.0</ele><time>2026-05-02T09:20:39Z</time></trkpt><trkpt lat="40.841758573952156" lon="9.405585990566376"><ele>82.66666666666667</ele><time>2026-05-02T09:20:40Z</time></trkpt><trkpt lat="40.84180816291831" lon="9.40579468703743"><ele>82.33333333333333</ele><time>2026-05-02T09:20:41Z</time></trkpt><trkpt lat="40.8418822379944" lon="9.405995428181127"><ele>82.0</ele><time>2026-05-02T09:20:42Z</time></trkpt><trkpt lat="40.84196573793228" lon="9.406215608977776"><ele>82.33333333333333</ele><time>2026-05-02T09:20:43Z</time></trkpt><trkpt lat="40.84205393101158" lon="9.40644509888829"><ele>82.66666666666667</ele><time>2026-05-02T09:20:44Z</time></trkpt><trkpt lat="40.84215078896355" lon="9.406694481494663"><ele>83.0</ele><time>2026-05-02T09:20:45Z</time></trkpt><trkpt lat="40.84225101652023" lon="9.40695768488604"><ele>83.5</ele><time>2026-05-02T09:20:46Z</time></trkpt><trkpt lat="40.84235666496823" lon="9.407233773165238"><ele>84.0</ele><time>2026-05-02T09:20:47Z</time></trkpt><trkpt lat="40.842469330773454" lon="9.407523212632954"><ele>84.0</ele><time>2026-05-02T09:20:48Z</time></trkpt><trkpt lat="40.842582751147255" lon="9.407816402668399"><ele>84.0</ele><time>2026-05-02T09:20:49Z</time></trkpt><trkpt lat="40.84269851338123" lon="9.40811533593755"><ele>82.0</ele><time>2026-05-02T09:20:50Z</time></trkpt><trkpt lat="40.84281109281246" lon="9.408419471604816"><ele>80.0</ele><time>2026-05-02T09:20:51Z</time></trkpt><trkpt lat="40.84292887736089" lon="9.408726035730345"><ele>79.0</ele><time>2026-05-02T09:20:52Z</time></trkpt><trkpt lat="40.843047915409436" lon="9.40904280286877"><ele>78.0</ele><time>2026-05-02T09:20:53Z</time></trkpt><trkpt lat="40.84316692191083" lon="9.409358318485165"><ele>79.0</ele><time>2026-05-02T09:20:54Z</time></trkpt><trkpt lat="40.84328307827817" lon="9.409675136805793"><ele>80.0</ele><time>2026-05-02T09:20:55Z</time></trkpt><trkpt lat="40.84340009500152" lon="9.409994393660014"><ele>80.5</ele><time>2026-05-02T09:20:56Z</time></trkpt><trkpt lat="40.84351564350436" lon="9.410312422653632"><ele>81.0</ele><time>2026-05-02T09:20:57Z</time></trkpt><trkpt lat="40.84363388765113" lon="9.41062930250436"><ele>79.5</ele><time>2026-05-02T09:20:58Z</time></trkpt><trkpt lat="40.84375161988186" lon="9.410946405084042"><ele>78.0</ele><time>2026-05-02T09:20:59Z</time></trkpt><trkpt lat="40.84387134224479" lon="9.411264844452898"><ele>78.0</ele><time>2026-05-02T09:21:00Z</time></trkpt><trkpt lat="40.84399094417555" lon="9.41158637512286"><ele>78.0</ele><time>2026-05-02T09:21:01Z</time></trkpt><trkpt lat="40.844111524845175" lon="9.411915334239868"><ele>79.5</ele><time>2026-05-02T09:21:02Z</time></trkpt><trkpt lat="40.84423376894857" lon="9.412251619472519"><ele>81.0</ele><time>2026-05-02T09:21:03Z</time></trkpt><trkpt lat="40.84436128089825" lon="9.412599892498475"><ele>80.5</ele><time>2026-05-02T09:21:04Z</time></trkpt><trkpt lat="40.84449070680823" lon="9.412951788700234"><ele>80.0</ele><time>2026-05-02T09:21:05Z</time></trkpt><trkpt lat="40.844621567701765" lon="9.41330669176567"><ele>80.0</ele><time>2026-05-02T09:21:06Z</time></trkpt><trkpt lat="40.8447543861699" lon="9.4136640084698"><ele>80.0</ele><time>2026-05-02T09:21:07Z</time></trkpt><trkpt lat="40.84488813875171" lon="9.414025911801259"><ele>78.5</ele><time>2026-05-02T09:21:08Z</time></trkpt><trkpt lat="40.845023201195765" lon="9.414392626233852"><ele>77.0</ele><time>2026-05-02T09:21:09Z</time></trkpt><trkpt lat="40.845155737979084" lon="9.414760620661552"><ele>74.0</ele><time>2026-05-02T09:21:10Z</time></trkpt><trkpt lat="40.84528726191177" lon="9.415124026835649"><ele>71.0</ele><time>2026-05-02T09:21:11Z</time></trkpt><trkpt lat="40.845419861575124" lon="9.41548577837816"><ele>71.0</ele><time>2026-05-02T09:21:12Z</time></trkpt><trkpt lat="40.84554929080747" lon="9.415840581975864"><ele>71.0</ele><time>2026-05-02T09:21:13Z</time></trkpt><trkpt lat="40.84567959025296" lon="9.416192582639363"><ele>70.5</ele><time>2026-05-02T09:21:14Z</time></trkpt><trkpt lat="40.845807163363666" lon="9.416540555074523"><ele>70.0</ele><time>2026-05-02T09:21:15Z</time></trkpt><trkpt lat="40.84593384643639" lon="9.416884686530604"><ele>67.5</ele><time>2026-05-02T09:21:16Z</time></trkpt><trkpt lat="40.84605915945717" lon="9.417227153004273"><ele>65.0</ele><time>2026-05-02T09:21:17Z</time></trkpt><trkpt lat="40.846182329432324" lon="9.417565448675534"><ele>65.0</ele><time>2026-05-02T09:21:18Z</time></trkpt><trkpt lat="40.846307251901735" lon="9.417903436119511"><ele>65.0</ele><time>2026-05-02T09:21:19Z</time></trkpt><trkpt lat="40.84643083689677" lon="9.418236844181749"><ele>66.5</ele><time>2026-05-02T09:21:20Z</time></trkpt><trkpt lat="40.84655428448486" lon="9.418575288238864"><ele>68.0</ele><time>2026-05-02T09:21:21Z</time></trkpt><trkpt lat="40.846680438395694" lon="9.4189206300355"><ele>65.5</ele><time>2026-05-02T09:21:22Z</time></trkpt><trkpt lat="40.846808053490335" lon="9.419263737732328"><ele>63.0</ele><time>2026-05-02T09:21:23Z</time></trkpt><trkpt lat="40.84694089369606" lon="9.419602741158483"><ele>63.5</ele><time>2026-05-02T09:21:24Z</time></trkpt><trkpt lat="40.84707906454352" lon="9.419933946898325"><ele>64.0</ele><time>2026-05-02T09:21:25Z</time></trkpt><trkpt lat="40.84722629466235" lon="9.42025876290915"><ele>64.5</ele><time>2026-05-02T09:21:26Z</time></trkpt><trkpt lat="40.84738328455945" lon="9.420579569336699"><ele>65.0</ele><time>2026-05-02T09:21:27Z</time></trkpt><trkpt lat="40.847546313142" lon="9.42089464571126"><ele>63.0</ele><time>2026-05-02T09:21:28Z</time></trkpt><trkpt lat="40.84771395121993" lon="9.421200996813477"><ele>61.0</ele><time>2026-05-02T09:21:29Z</time></trkpt><trkpt lat="40.84788936054612" lon="9.421497548670168"><ele>61.0</ele><time>2026-05-02T09:21:30Z</time></trkpt><trkpt lat="40.84807309699756" lon="9.421783686881962"><ele>61.0</ele><time>2026-05-02T09:21:31Z</time></trkpt><trkpt lat="40.84826649979872" lon="9.422060268745899"><ele>60.5</ele><time>2026-05-02T09:21:32Z</time></trkpt><trkpt lat="40.8484642690234" lon="9.422327770782427"><ele>60.0</ele><time>2026-05-02T09:21:33Z</time></trkpt><trkpt lat="40.848670871586435" lon="9.422584371089231"><ele>60.0</ele><time>2026-05-02T09:21:34Z</time></trkpt><trkpt lat="40.84888025109597" lon="9.422827733333616"><ele>60.0</ele><time>2026-05-02T09:21:35Z</time></trkpt><trkpt lat="40.84909634650081" lon="9.423062299480565"><ele>60.0</ele><time>2026-05-02T09:21:36Z</time></trkpt><trkpt lat="40.84931787991482" lon="9.423292338198902"><ele>60.0</ele><time>2026-05-02T09:21:37Z</time></trkpt><trkpt lat="40.849541234088235" lon="9.423514625499967"><ele>60.0</ele><time>2026-05-02T09:21:38Z</time></trkpt><trkpt lat="40.84976848103167" lon="9.423735812217897"><ele>60.0</ele><time>2026-05-02T09:21:39Z</time></trkpt><trkpt lat="40.85000105263668" lon="9.423958806790383"><ele>59.5</ele><time>2026-05-02T09:21:40Z</time></trkpt><trkpt lat="40.85023184926903" lon="9.42418022727495"><ele>59.0</ele><time>2026-05-02T09:21:41Z</time></trkpt><trkpt lat="40.85045583561687" lon="9.424399113932992"><ele>59.0</ele><time>2026-05-02T09:21:42Z</time></trkpt><trkpt lat="40.850674522101386" lon="9.424620256424168"><ele>59.0</ele><time>2026-05-02T09:21:43Z</time></trkpt><trkpt lat="40.850890709663105" lon="9.424845874937198"><ele>59.0</ele><time>2026-05-02T09:21:44Z</time></trkpt><trkpt lat="40.85110071897038" lon="9.425079133796029"><ele>59.0</ele><time>2026-05-02T09:21:45Z</time></trkpt><trkpt lat="40.85130223116844" lon="9.425318887200712"><ele>58.0</ele><time>2026-05-02T09:21:46Z</time></trkpt><trkpt lat="40.8514960791548" lon="9.425563560936686"><ele>57.0</ele><time>2026-05-02T09:21:47Z</time></trkpt><trkpt lat="40.85168666583229" lon="9.42581559138035"><ele>56.5</ele><time>2026-05-02T09:21:48Z</time></trkpt><trkpt lat="40.85186783498207" lon="9.426067145612599"><ele>56.0</ele><time>2026-05-02T09:21:49Z</time></trkpt><trkpt lat="40.85203505682319" lon="9.426315082023722"><ele>56.0</ele><time>2026-05-02T09:21:50Z</time></trkpt><trkpt lat="40.85219818205858" lon="9.426575209438719"><ele>56.0</ele><time>2026-05-02T09:21:51Z</time></trkpt><trkpt lat="40.852352190619996" lon="9.42684777817025"><ele>56.0</ele><time>2026-05-02T09:21:52Z</time></trkpt><trkpt lat="40.85250301945786" lon="9.427128959184206"><ele>56.0</ele><time>2026-05-02T09:21:53Z</time></trkpt><trkpt lat="40.8526459349078" lon="9.427402236165939"><ele>58.0</ele><time>2026-05-02T09:21:54Z</time></trkpt><trkpt lat="40.852775033325344" lon="9.427658840864265"><ele>60.0</ele><time>2026-05-02T09:21:55Z</time></trkpt><trkpt lat="40.85289002513458" lon="9.42789056024036"><ele>62.0</ele><time>2026-05-02T09:21:56Z</time></trkpt><trkpt lat="40.852992087445536" lon="9.428103969600494"><ele>62.333333333333336</ele><time>2026-05-02T09:21:57.001Z</time></trkpt><trkpt lat="40.85308159232694" lon="9.428298467147346"><ele>62.66666666666667</ele><time>2026-05-02T09:21:58.001Z</time></trkpt><trkpt lat="40.853162573865255" lon="9.428474085336019"><ele>63.0</ele><time>2026-05-02T09:21:59.001Z</time></trkpt><trkpt lat="40.85323337117793" lon="9.428633950560691"><ele>63.0</ele><time>2026-05-02T09:22:00.001Z</time></trkpt><trkpt lat="40.85327703371219" lon="9.42878993869009"><ele>63.0</ele><time>2026-05-02T09:22:01.001Z</time></trkpt><trkpt lat="40.85330213799706" lon="9.428946358537825"><ele>63.0</ele><time>2026-05-02T09:22:02.001Z</time></trkpt><trkpt lat="40.85328490986428" lon="9.42910172784689"><ele>63.0</ele><time>2026-05-02T09:22:03.001Z</time></trkpt><trkpt lat="40.85322089892586" lon="9.429232135022495"><ele>62.5</ele><time>2026-05-02T09:22:04.001Z</time></trkpt><trkpt lat="40.85315197877693" lon="9.429362704344939"><ele>62.0</ele><time>2026-05-02T09:22:05.001Z</time></trkpt><trkpt lat="40.85306421249338" lon="9.429501894374713"><ele>61.5</ele><time>2026-05-02T09:22:06.001Z</time></trkpt><trkpt lat="40.85297558132984" lon="9.429638856870417"><ele>61.0</ele><time>2026-05-02T09:22:07.001Z</time></trkpt><trkpt lat="40.85289935031931" lon="9.4297536667609"><ele>60.599999999999994</ele><time>2026-05-02T09:22:08.001Z</time></trkpt><trkpt lat="40.852826699754296" lon="9.429840890227783"><ele>60.199999999999996</ele><time>2026-05-02T09:22:09.001Z</time></trkpt><trkpt lat="40.85274913469616" lon="9.42990653166487"><ele>59.800000000000004</ele><time>2026-05-02T09:22:10.001Z</time></trkpt><trkpt lat="40.85265691394822" lon="9.429944046322397"><ele>59.400000000000006</ele><time>2026-05-02T09:22:11.001Z</time></trkpt><trkpt lat="40.852552240855765" lon="9.429948829726651"><ele>59.0</ele><time>2026-05-02T09:22:12.001Z</time></trkpt><trkpt lat="40.8524390588833" lon="9.429937133077802"><ele>60.25</ele><time>2026-05-02T09:22:13.001Z</time></trkpt><trkpt lat="40.85231559609529" lon="9.429916900162842"><ele>61.5</ele><time>2026-05-02T09:22:14.001Z</time></trkpt><trkpt lat="40.85218172039143" lon="9.429880718606324"><ele>62.75</ele><time>2026-05-02T09:22:15.001Z</time></trkpt><trkpt lat="40.85204411093137" lon="9.429828677205746"><ele>64.0</ele><time>2026-05-02T09:22:16.001Z</time></trkpt><trkpt lat="40.85189703002341" lon="9.429762103642412"><ele>63.666666666666664</ele><time>2026-05-02T09:22:17Z</time></trkpt><trkpt lat="40.851724121325844" lon="9.429731718186337"><ele>63.33333333333333</ele><time>2026-05-02T09:22:18Z</time></trkpt><trkpt lat="40.851544402944576" lon="9.429719649213906"><ele>63.0</ele><time>2026-05-02T09:22:19Z</time></trkpt><trkpt lat="40.85135329148285" lon="9.42970747298728"><ele>63.0</ele><time>2026-05-02T09:22:20Z</time></trkpt><trkpt lat="40.85115143336399" lon="9.429701358534489"><ele>63.0</ele><time>2026-05-02T09:22:21Z</time></trkpt><trkpt lat="40.85095498535099" lon="9.429709458358642"><ele>63.0</ele><time>2026-05-02T09:22:22Z</time></trkpt><trkpt lat="40.85074762674178" lon="9.429729251872265"><ele>62.0</ele><time>2026-05-02T09:22:23Z</time></trkpt><trkpt lat="40.8505413916373" lon="9.429750776595077"><ele>61.0</ele><time>2026-05-02T09:22:24Z</time></trkpt><trkpt lat="40.85034120190408" lon="9.429771670364568"><ele>60.0</ele><time>2026-05-02T09:22:25Z</time></trkpt><trkpt lat="40.8501442027401" lon="9.429792302901507"><ele>60.66666666666667</ele><time>2026-05-02T09:22:26Z</time></trkpt><trkpt lat="40.849961997100564" lon="9.429829421391078"><ele>61.333333333333336</ele><time>2026-05-02T09:22:27Z</time></trkpt><trkpt lat="40.849791649349946" lon="9.429835262425252"><ele>62.0</ele><time>2026-05-02T09:22:28Z</time></trkpt><trkpt lat="40.84963490430538" lon="9.429848311688229"><ele>62.0</ele><time>2026-05-02T09:22:29Z</time></trkpt><trkpt lat="40.849486709667666" lon="9.429847070688389"><ele>62.0</ele><time>2026-05-02T09:22:30Z</time></trkpt><trkpt lat="40.84934865937235" lon="9.429883314165775"><ele>62.0</ele><time>2026-05-02T09:22:31Z</time></trkpt><trkpt lat="40.8492213532544" lon="9.429965209526683"><ele>62.0</ele><time>2026-05-02T09:22:32Z</time></trkpt><trkpt lat="40.84911843896117" lon="9.430096805969024"><ele>62.66666666666667</ele><time>2026-05-02T09:22:33Z</time></trkpt><trkpt lat="40.84899277741763" lon="9.430208760941234"><ele>63.33333333333333</ele><time>2026-05-02T09:22:34Z</time></trkpt><trkpt lat="40.84887386716864" lon="9.430335218812075"><ele>64.0</ele><time>2026-05-02T09:22:35Z</time></trkpt><trkpt lat="40.848750285830825" lon="9.430462150214218"><ele>63.75</ele><time>2026-05-02T09:22:36Z</time></trkpt><trkpt lat="40.84864517899748" lon="9.430585988849474"><ele>63.5</ele><time>2026-05-02T09:22:37Z</time></trkpt><trkpt lat="40.84854090883496" lon="9.43068147159605"><ele>63.25</ele><time>2026-05-02T09:22:38Z</time></trkpt><trkpt lat="40.848450165169396" lon="9.430791087647057"><ele>63.0</ele><time>2026-05-02T09:22:39Z</time></trkpt><trkpt lat="40.84838207489337" lon="9.430942576647325"><ele>64.0</ele><time>2026-05-02T09:22:40Z</time></trkpt><trkpt lat="40.84831290923663" lon="9.431132121211716"><ele>65.0</ele><time>2026-05-02T09:22:41Z</time></trkpt><trkpt lat="40.84826318033589" lon="9.431340879761908"><ele>66.0</ele><time>2026-05-02T09:22:42Z</time></trkpt><trkpt lat="40.84820809381593" lon="9.43157528031834"><ele>66.33333333333333</ele><time>2026-05-02T09:22:43Z</time></trkpt><trkpt lat="40.84816550981917" lon="9.43181576113678"><ele>66.66666666666666</ele><time>2026-05-02T09:22:44Z</time></trkpt><trkpt lat="40.84811009507777" lon="9.432034359078893"><ele>67.0</ele><time>2026-05-02T09:22:45Z</time></trkpt><trkpt lat="40.848057017156016" lon="9.432247584744161"><ele>67.0</ele><time>2026-05-02T09:22:46Z</time></trkpt><trkpt lat="40.84800218277179" lon="9.432468060932852"><ele>67.0</ele><time>2026-05-02T09:22:47Z</time></trkpt><trkpt lat="40.847935969652866" lon="9.432692869638524"><ele>67.0</ele><time>2026-05-02T09:22:48Z</time></trkpt><trkpt lat="40.84786752278331" lon="9.432923153404886"><ele>66.66666666666666</ele><time>2026-05-02T09:22:49Z</time></trkpt><trkpt lat="40.847794994612634" lon="9.433157896206819"><ele>66.33333333333333</ele><time>2026-05-02T09:22:50Z</time></trkpt><trkpt lat="40.8477158538845" lon="9.433398211306393"><ele>66.0</ele><time>2026-05-02T09:22:51Z</time></trkpt><trkpt lat="40.847632432969675" lon="9.43363674415514"><ele>67.0</ele><time>2026-05-02T09:22:52Z</time></trkpt><trkpt lat="40.847552092750604" lon="9.433877920189236"><ele>68.0</ele><time>2026-05-02T09:22:53Z</time></trkpt><trkpt lat="40.84747671810963" lon="9.434126584272345"><ele>69.0</ele><time>2026-05-02T09:22:54Z</time></trkpt><trkpt lat="40.84740462583659" lon="9.434374244572847"><ele>69.0</ele><time>2026-05-02T09:22:55Z</time></trkpt><trkpt lat="40.847332718485696" lon="9.434617048951251"><ele>69.0</ele><time>2026-05-02T09:22:56Z</time></trkpt><trkpt lat="40.84726506911526" lon="9.434853268065636"><ele>69.0</ele><time>2026-05-02T09:22:57Z</time></trkpt><trkpt lat="40.847200996719394" lon="9.435079574479971"><ele>68.66666666666667</ele><time>2026-05-02T09:22:58Z</time></trkpt><trkpt lat="40.84713666810519" lon="9.435294063709422"><ele>68.33333333333334</ele><time>2026-05-02T09:22:59Z</time></trkpt><trkpt lat="40.847075292654175" lon="9.43551580999945"><ele>68.0</ele><time>2026-05-02T09:23:00Z</time></trkpt><trkpt lat="40.8470115998039" lon="9.435738377435753"><ele>68.0</ele><time>2026-05-02T09:23:01Z</time></trkpt><trkpt lat="40.84694450696067" lon="9.435960624010999"><ele>68.0</ele><time>2026-05-02T09:23:02Z</time></trkpt><trkpt lat="40.84687777571958" lon="9.436184732624978"><ele>68.0</ele><time>2026-05-02T09:23:03Z</time></trkpt><trkpt lat="40.84680952617459" lon="9.436402905275115"><ele>69.0</ele><time>2026-05-02T09:23:04Z</time></trkpt><trkpt lat="40.84674154552577" lon="9.43661861579783"><ele>70.0</ele><time>2026-05-02T09:23:05Z</time></trkpt><trkpt lat="40.846678437540085" lon="9.43682804092741"><ele>71.0</ele><time>2026-05-02T09:23:06Z</time></trkpt><trkpt lat="40.84661744144124" lon="9.437031668355795"><ele>70.66666666666667</ele><time>2026-05-02T09:23:07Z</time></trkpt><trkpt lat="40.846559578260624" lon="9.437237887546793"><ele>70.33333333333333</ele><time>2026-05-02T09:23:08Z</time></trkpt><trkpt lat="40.84650007748889" lon="9.437435764916508"><ele>70.0</ele><time>2026-05-02T09:23:09Z</time></trkpt><trkpt lat="40.84644725849266" lon="9.437618168424175"><ele>70.0</ele><time>2026-05-02T09:23:10Z</time></trkpt><trkpt lat="40.84638253940505" lon="9.43779882925274"><ele>70.0</ele><time>2026-05-02T09:23:11Z</time></trkpt><trkpt lat="40.84633325254119" lon="9.437992029181444"><ele>70.0</ele><time>2026-05-02T09:23:12Z</time></trkpt><trkpt lat="40.84629357304186" lon="9.438208295354144"><ele>70.33333333333333</ele><time>2026-05-02T09:23:13Z</time></trkpt><trkpt lat="40.84623156031216" lon="9.438419975555046"><ele>70.66666666666667</ele><time>2026-05-02T09:23:14Z</time></trkpt><trkpt lat="40.846166824640235" lon="9.43863150684324"><ele>71.0</ele><time>2026-05-02T09:23:15Z</time></trkpt><trkpt lat="40.84609882291273" lon="9.43884811225084"><ele>71.66666666666667</ele><time>2026-05-02T09:23:16Z</time></trkpt><trkpt lat="40.84601991366098" lon="9.439063674736895"><ele>72.33333333333333</ele><time>2026-05-02T09:23:17Z</time></trkpt><trkpt lat="40.84593319242964" lon="9.439274080094666"><ele>73.0</ele><time>2026-05-02T09:23:18Z</time></trkpt><trkpt lat="40.8458442841066" lon="9.439490417190795"><ele>73.66666666666666</ele><time>2026-05-02T09:23:19Z</time></trkpt><trkpt lat="40.84576245228178" lon="9.439713660621534"><ele>74.33333333333333</ele><time>2026-05-02T09:23:20Z</time></trkpt><trkpt lat="40.84568425793953" lon="9.439943461841828"><ele>75.0</ele><time>2026-05-02T09:23:21Z</time></trkpt><trkpt lat="40.84560637992466" lon="9.440180155902777"><ele>75.0</ele><time>2026-05-02T09:23:22Z</time></trkpt><trkpt lat="40.84552903830002" lon="9.440414111200475"><ele>75.0</ele><time>2026-05-02T09:23:23Z</time></trkpt><trkpt lat="40.845453898240045" lon="9.440642600249149"><ele>75.0</ele><time>2026-05-02T09:23:24Z</time></trkpt><trkpt lat="40.84537412799135" lon="9.44086645283087"><ele>75.0</ele><time>2026-05-02T09:23:25Z</time></trkpt><trkpt lat="40.84529507726143" lon="9.441085593612948"><ele>75.0</ele><time>2026-05-02T09:23:26Z</time></trkpt><trkpt lat="40.845219866900166" lon="9.441300208778522"><ele>75.0</ele><time>2026-05-02T09:23:27Z</time></trkpt><trkpt lat="40.845145379690024" lon="9.441509005479904"><ele>76.0</ele><time>2026-05-02T09:23:28Z</time></trkpt><trkpt lat="40.84507201343627" lon="9.441711428705025"><ele>77.0</ele><time>2026-05-02T09:23:29Z</time></trkpt><trkpt lat="40.8449982290961" lon="9.441912508861057"><ele>78.0</ele><time>2026-05-02T09:23:30Z</time></trkpt><trkpt lat="40.84492183140196" lon="9.44211365840513"><ele>78.66666666666667</ele><time>2026-05-02T09:23:31Z</time></trkpt><trkpt lat="40.8448420675161" lon="9.442312632630538"><ele>79.33333333333334</ele><time>2026-05-02T09:23:32Z</time></trkpt><trkpt lat="40.84476188082402" lon="9.442513364303887"><ele>80.0</ele><time>2026-05-02T09:23:33Z</time></trkpt><trkpt lat="40.844684059829774" lon="9.44271486288112"><ele>80.0</ele><time>2026-05-02T09:23:34Z</time></trkpt><trkpt lat="40.84460575772977" lon="9.442910811870545"><ele>80.0</ele><time>2026-05-02T09:23:35Z</time></trkpt><trkpt lat="40.84452733007002" lon="9.443082185954271"><ele>80.0</ele><time>2026-05-02T09:23:36Z</time></trkpt><trkpt lat="40.84446268037564" lon="9.44324769027568"><ele>79.8</ele><time>2026-05-02T09:23:37Z</time></trkpt><trkpt lat="40.84440427952067" lon="9.4433975400134"><ele>79.6</ele><time>2026-05-02T09:23:38Z</time></trkpt><trkpt lat="40.84435310961919" lon="9.443540711763758"><ele>79.4</ele><time>2026-05-02T09:23:39Z</time></trkpt><trkpt lat="40.84431066325454" lon="9.443660207710067"><ele>79.2</ele><time>2026-05-02T09:23:40Z</time></trkpt><trkpt lat="40.84428035100415" lon="9.44374783463713"><ele>79.0</ele><time>2026-05-02T09:23:41Z</time></trkpt><trkpt lat="40.84427558108392" lon="9.443933653779574"><ele>78.8</ele><time>2026-05-02T09:23:43.001Z</time></trkpt><trkpt lat="40.844341962099456" lon="9.443983417752882"><ele>78.60000000000001</ele><time>2026-05-02T09:23:44.001Z</time></trkpt><trkpt lat="40.84442144720023" lon="9.44406147658138"><ele>78.4</ele><time>2026-05-02T09:23:45.001Z</time></trkpt><trkpt lat="40.844524780318935" lon="9.444141951469478"><ele>78.2</ele><time>2026-05-02T09:23:46.001Z</time></trkpt><trkpt lat="40.84465005968402" lon="9.444224204571533"><ele>78.0</ele><time>2026-05-02T09:23:47.001Z</time></trkpt><trkpt lat="40.84478818195342" lon="9.444310887872783"><ele>78.0</ele><time>2026-05-02T09:23:48.001Z</time></trkpt><trkpt lat="40.84493629673787" lon="9.444407667584247"><ele>78.0</ele><time>2026-05-02T09:23:49.001Z</time></trkpt><trkpt lat="40.84507822155863" lon="9.444490672272513"><ele>78.0</ele><time>2026-05-02T09:23:50.001Z</time></trkpt><trkpt lat="40.84522344541763" lon="9.444547663166304"><ele>77.66666666666667</ele><time>2026-05-02T09:23:51.001Z</time></trkpt><trkpt lat="40.84537419129914" lon="9.444584046859644"><ele>77.33333333333334</ele><time>2026-05-02T09:23:52.001Z</time></trkpt><trkpt lat="40.845536690294956" lon="9.444601613212763"><ele>77.0</ele><time>2026-05-02T09:23:53.001Z</time></trkpt><trkpt lat="40.845694718633894" lon="9.444612205376261"><ele>77.0</ele><time>2026-05-02T09:23:54.001Z</time></trkpt><trkpt lat="40.84584122322177" lon="9.444624081016778"><ele>77.0</ele><time>2026-05-02T09:23:55.001Z</time></trkpt><trkpt lat="40.84597188206561" lon="9.444639317798707"><ele>77.0</ele><time>2026-05-02T09:23:56.001Z</time></trkpt><trkpt lat="40.846083085606956" lon="9.444667007307677"><ele>77.0</ele><time>2026-05-02T09:23:57.001Z</time></trkpt><trkpt lat="40.846174964612544" lon="9.444716899603666"><ele>77.66666666666667</ele><time>2026-05-02T09:23:58.001Z</time></trkpt><trkpt lat="40.84625077373295" lon="9.444786893485796"><ele>78.33333333333334</ele><time>2026-05-02T09:23:59.001Z</time></trkpt><trkpt lat="40.84630772570226" lon="9.444871941270813"><ele>79.0</ele><time>2026-05-02T09:24:00.001Z</time></trkpt><trkpt lat="40.84633382127225" lon="9.444965954815576"><ele>79.66666666666667</ele><time>2026-05-02T09:24:01.001Z</time></trkpt><trkpt lat="40.84634736088049" lon="9.44505762037806"><ele>80.33333333333333</ele><time>2026-05-02T09:24:02.001Z</time></trkpt><trkpt lat="40.84634101887898" lon="9.44516229859862"><ele>81.0</ele><time>2026-05-02T09:24:03.001Z</time></trkpt><trkpt lat="40.84631350039904" lon="9.445278083825402"><ele>81.0</ele><time>2026-05-02T09:24:04.001Z</time></trkpt><trkpt lat="40.8462670057655" lon="9.445404965725404"><ele>81.0</ele><time>2026-05-02T09:24:05.001Z</time></trkpt><trkpt lat="40.84620523796218" lon="9.445532971635108"><ele>81.0</ele><time>2026-05-02T09:24:06.001Z</time></trkpt><trkpt lat="40.84615220943661" lon="9.445679114482465"><ele>81.0</ele><time>2026-05-02T09:24:07.001Z</time></trkpt><trkpt lat="40.84611178762841" lon="9.445849409972622"><ele>81.25</ele><time>2026-05-02T09:24:08.001Z</time></trkpt><trkpt lat="40.84609036595276" lon="9.446030388269774"><ele>81.5</ele><time>2026-05-02T09:24:09.001Z</time></trkpt><trkpt lat="40.84607968750061" lon="9.4462180921732"><ele>81.75</ele><time>2026-05-02T09:24:10.001Z</time></trkpt><trkpt lat="40.846080249562384" lon="9.446413700551362"><ele>82.0</ele><time>2026-05-02T09:24:11.001Z</time></trkpt><trkpt lat="40.84609134626239" lon="9.446615089795413"><ele>82.0</ele><time>2026-05-02T09:24:12.001Z</time></trkpt><trkpt lat="40.84609098278509" lon="9.446818727404276"><ele>82.0</ele><time>2026-05-02T09:24:13.001Z</time></trkpt><trkpt lat="40.8460671017312" lon="9.447025885769252"><ele>82.0</ele><time>2026-05-02T09:24:14.001Z</time></trkpt><trkpt lat="40.846042585391864" lon="9.447240052513326"><ele>82.75</ele><time>2026-05-02T09:24:15.001Z</time></trkpt><trkpt lat="40.84602017161045" lon="9.447450635041617"><ele>83.5</ele><time>2026-05-02T09:24:16.001Z</time></trkpt><trkpt lat="40.845999131778804" lon="9.447640153006725"><ele>84.25</ele><time>2026-05-02T09:24:17.001Z</time></trkpt><trkpt lat="40.84598437667524" lon="9.447819850819725"><ele>85.0</ele><time>2026-05-02T09:24:18.001Z</time></trkpt><trkpt lat="40.84598396277168" lon="9.447994003301732"><ele>85.75</ele><time>2026-05-02T09:24:19.001Z</time></trkpt><trkpt lat="40.84599836292141" lon="9.448163876634766"><ele>86.5</ele><time>2026-05-02T09:24:20.001Z</time></trkpt><trkpt lat="40.84604420062705" lon="9.448332387434746"><ele>87.25</ele><time>2026-05-02T09:24:21.001Z</time></trkpt><trkpt lat="40.846098150915665" lon="9.448512422810786"><ele>88.0</ele><time>2026-05-02T09:24:22.001Z</time></trkpt><trkpt lat="40.84615309398331" lon="9.448692802748841"><ele>88.75</ele><time>2026-05-02T09:24:23Z</time></trkpt><trkpt lat="40.84620427495611" lon="9.448864562097281"><ele>89.5</ele><time>2026-05-02T09:24:24Z</time></trkpt><trkpt lat="40.846254175902" lon="9.44902577895836"><ele>90.25</ele><time>2026-05-02T09:24:25Z</time></trkpt><trkpt lat="40.84630560654313" lon="9.449174784594165"><ele>91.0</ele><time>2026-05-02T09:24:26Z</time></trkpt><trkpt lat="40.846378610475874" lon="9.449285714791381"><ele>91.0</ele><time>2026-05-02T09:24:27Z</time></trkpt><trkpt lat="40.84644506871983" lon="9.449365332032755"><ele>91.0</ele><time>2026-05-02T09:24:28Z</time></trkpt><trkpt lat="40.84647626677274" lon="9.449468188971403"><ele>91.0</ele><time>2026-05-02T09:24:29Z</time></trkpt><trkpt lat="40.846491564056315" lon="9.4495781241624"><ele>91.0</ele><time>2026-05-02T09:24:30Z</time></trkpt><trkpt lat="40.846493573187246" lon="9.44970706868659"><ele>91.0</ele><time>2026-05-02T09:24:31Z</time></trkpt><trkpt lat="40.84648269505307" lon="9.449847213202927"><ele>91.75</ele><time>2026-05-02T09:24:32Z</time></trkpt><trkpt lat="40.846459836646915" lon="9.449996079554442"><ele>92.5</ele><time>2026-05-02T09:24:33Z</time></trkpt><trkpt lat="40.84643269380164" lon="9.450143350762154"><ele>93.25</ele><time>2026-05-02T09:24:34Z</time></trkpt><trkpt lat="40.846430855580074" lon="9.450284751638046"><ele>94.0</ele><time>2026-05-02T09:24:35Z</time></trkpt><trkpt lat="40.846455160784934" lon="9.450441336829615"><ele>94.5</ele><time>2026-05-02T09:24:36Z</time></trkpt><trkpt lat="40.84649000234178" lon="9.450613760110604"><ele>95.0</ele><time>2026-05-02T09:24:37Z</time></trkpt><trkpt lat="40.84652433332641" lon="9.450780880784727"><ele>95.5</ele><time>2026-05-02T09:24:38Z</time></trkpt><trkpt lat="40.846559063707055" lon="9.450944797753706"><ele>96.0</ele><time>2026-05-02T09:24:39Z</time></trkpt><trkpt lat="40.8465979766939" lon="9.451108025300979"><ele>96.0</ele><time>2026-05-02T09:24:40Z</time></trkpt><trkpt lat="40.84663352097157" lon="9.45125303259677"><ele>96.0</ele><time>2026-05-02T09:24:41Z</time></trkpt><trkpt lat="40.84666640793313" lon="9.451375854279492"><ele>96.0</ele><time>2026-05-02T09:24:42Z</time></trkpt><trkpt lat="40.846696858115614" lon="9.451502520573696"><ele>96.0</ele><time>2026-05-02T09:24:43Z</time></trkpt><trkpt lat="40.846720873064264" lon="9.451610209087574"><ele>96.0</ele><time>2026-05-02T09:24:44Z</time></trkpt><trkpt lat="40.84673425956173" lon="9.451703370614378"><ele>96.4</ele><time>2026-05-02T09:24:45Z</time></trkpt><trkpt lat="40.84669837704757" lon="9.45185470845572"><ele>96.8</ele><time>2026-05-02T09:24:47Z</time></trkpt><trkpt lat="40.84665099824793" lon="9.451926699169961"><ele>97.2</ele><time>2026-05-02T09:24:48Z</time></trkpt><trkpt lat="40.846574013297335" lon="9.451989568356554"><ele>97.60000000000001</ele><time>2026-05-02T09:24:49Z</time></trkpt><trkpt lat="40.84647420475976" lon="9.452053277554173"><ele>98.0</ele><time>2026-05-02T09:24:50Z</time></trkpt><trkpt lat="40.84637369727892" lon="9.452121419992737"><ele>98.5</ele><time>2026-05-02T09:24:51Z</time></trkpt><trkpt lat="40.84626885060451" lon="9.452200984355084"><ele>99.0</ele><time>2026-05-02T09:24:52Z</time></trkpt><trkpt lat="40.84615709466936" lon="9.452282988340576"><ele>99.5</ele><time>2026-05-02T09:24:53Z</time></trkpt><trkpt lat="40.84603690182023" lon="9.45237810178398"><ele>100.0</ele><time>2026-05-02T09:24:54Z</time></trkpt><trkpt lat="40.84591036349597" lon="9.452490300604143"><ele>101.0</ele><time>2026-05-02T09:24:55Z</time></trkpt><trkpt lat="40.845782669956364" lon="9.452601938341441"><ele>102.0</ele><time>2026-05-02T09:24:56Z</time></trkpt><trkpt lat="40.8456582971371" lon="9.452714977087586"><ele>103.0</ele><time>2026-05-02T09:24:57Z</time></trkpt><trkpt lat="40.84553268702586" lon="9.45282747630212"><ele>103.0</ele><time>2026-05-02T09:24:58Z</time></trkpt><trkpt lat="40.84541319195868" lon="9.452935977710258"><ele>103.0</ele><time>2026-05-02T09:24:59Z</time></trkpt><trkpt lat="40.84529528510645" lon="9.453041649641419"><ele>103.0</ele><time>2026-05-02T09:25:00Z</time></trkpt><trkpt lat="40.84518313927689" lon="9.453139708553659"><ele>103.0</ele><time>2026-05-02T09:25:01Z</time></trkpt><trkpt lat="40.845072300375804" lon="9.45323776878836"><ele>106.5</ele><time>2026-05-02T09:25:02Z</time></trkpt><trkpt lat="40.84496328082601" lon="9.45333398936815"><ele>110.0</ele><time>2026-05-02T09:25:03Z</time></trkpt><trkpt lat="40.844847447705384" lon="9.45343286209906"><ele>113.5</ele><time>2026-05-02T09:25:04Z</time></trkpt><trkpt lat="40.844719688525714" lon="9.453497225311674"><ele>117.0</ele><time>2026-05-02T09:25:05Z</time></trkpt><trkpt lat="40.84460500963267" lon="9.453573826445892"><ele>117.0</ele><time>2026-05-02T09:25:06Z</time></trkpt><trkpt lat="40.84448755933175" lon="9.453648837973432"><ele>117.0</ele><time>2026-05-02T09:25:07Z</time></trkpt><trkpt lat="40.844362636788034" lon="9.453705517194889"><ele>117.0</ele><time>2026-05-02T09:25:08Z</time></trkpt><trkpt lat="40.84424266250843" lon="9.453744861874451"><ele>117.0</ele><time>2026-05-02T09:25:10Z</time></trkpt><trkpt lat="40.84418021639753" lon="9.45379073079247"><ele>118.83333333333333</ele><time>2026-05-02T09:25:11Z</time></trkpt><trkpt lat="40.84411338048395" lon="9.453824829377021"><ele>120.66666666666666</ele><time>2026-05-02T09:25:12Z</time></trkpt><trkpt lat="40.844081617946046" lon="9.453960798446793"><ele>122.5</ele><time>2026-05-02T09:25:14Z</time></trkpt><trkpt lat="40.84409296031263" lon="9.454057447681654"><ele>124.33333333333333</ele><time>2026-05-02T09:25:15Z</time></trkpt><trkpt lat="40.84410099751941" lon="9.454168586818838"><ele>126.16666666666666</ele><time>2026-05-02T09:25:16Z</time></trkpt><trkpt lat="40.84413622148877" lon="9.454279483118373"><ele>128.0</ele><time>2026-05-02T09:25:17Z</time></trkpt><trkpt lat="40.84419238717813" lon="9.454383784023765"><ele>127.99999999999999</ele><time>2026-05-02T09:25:18Z</time></trkpt><trkpt lat="40.84425828148405" lon="9.454470307306861"><ele>128.0</ele><time>2026-05-02T09:25:19Z</time></trkpt><trkpt lat="40.84434539700824" lon="9.454494693392066"><ele>128.0</ele><time>2026-05-02T09:25:20Z</time></trkpt><trkpt lat="40.84442829035557" lon="9.45455866931388"><ele>128.0</ele><time>2026-05-02T09:25:21.001Z</time></trkpt><trkpt lat="40.84451566745728" lon="9.454608643857846"><ele>127.99999999999999</ele><time>2026-05-02T09:25:22.001Z</time></trkpt><trkpt lat="40.8445716451904" lon="9.454655531962276"><ele>128.0</ele><time>2026-05-02T09:25:23.001Z</time></trkpt><trkpt lat="40.84464345085222" lon="9.454766961030819"><ele>127.60000000000001</ele><time>2026-05-02T09:25:25.001Z</time></trkpt><trkpt lat="40.844669876369466" lon="9.454845958914921"><ele>127.20000000000002</ele><time>2026-05-02T09:25:26.001Z</time></trkpt><trkpt lat="40.84468233424066" lon="9.45494845386098"><ele>126.8</ele><time>2026-05-02T09:25:27.001Z</time></trkpt><trkpt lat="40.84466215979078" lon="9.45508234277516"><ele>126.4</ele><time>2026-05-02T09:25:28.001Z</time></trkpt><trkpt lat="40.84468180173966" lon="9.45524732990355"><ele>126.0</ele><time>2026-05-02T09:25:29.001Z</time></trkpt><trkpt lat="40.84468621875439" lon="9.455433694619026"><ele>124.66666666666666</ele><time>2026-05-02T09:25:30.001Z</time></trkpt><trkpt lat="40.84469064757548" lon="9.455660831515111"><ele>123.33333333333333</ele><time>2026-05-02T09:25:31.001Z</time></trkpt><trkpt lat="40.84469881412582" lon="9.455855436273577"><ele>122.0</ele><time>2026-05-02T09:25:32.001Z</time></trkpt><trkpt lat="40.84471111007246" lon="9.456059060849492"><ele>122.0</ele><time>2026-05-02T09:25:33.001Z</time></trkpt><trkpt lat="40.84472170206955" lon="9.456272335593065"><ele>122.0</ele><time>2026-05-02T09:25:34.001Z</time></trkpt><trkpt lat="40.8447306792418" lon="9.456490612823757"><ele>122.0</ele><time>2026-05-02T09:25:35.001Z</time></trkpt><trkpt lat="40.84473916077693" lon="9.456712628119647"><ele>121.66666666666666</ele><time>2026-05-02T09:25:36.001Z</time></trkpt><trkpt lat="40.84475422418833" lon="9.456943476875278"><ele>121.33333333333334</ele><time>2026-05-02T09:25:37.001Z</time></trkpt><trkpt lat="40.84476441369927" lon="9.45716898873018"><ele>121.0</ele><time>2026-05-02T09:25:38.001Z</time></trkpt><trkpt lat="40.84477841156468" lon="9.45738959576083"><ele>121.0</ele><time>2026-05-02T09:25:39.001Z</time></trkpt><trkpt lat="40.844782041310424" lon="9.457604011458487"><ele>121.0</ele><time>2026-05-02T09:25:40.001Z</time></trkpt><trkpt lat="40.844764079980614" lon="9.457799557736303"><ele>121.0</ele><time>2026-05-02T09:25:41.001Z</time></trkpt><trkpt lat="40.84473111672562" lon="9.458005256721284"><ele>120.66666666666667</ele><time>2026-05-02T09:25:42.001Z</time></trkpt><trkpt lat="40.844671109633595" lon="9.458208816376633"><ele>120.33333333333334</ele><time>2026-05-02T09:25:43.001Z</time></trkpt><trkpt lat="40.84461275545503" lon="9.458411470264169"><ele>120.0</ele><time>2026-05-02T09:25:44.001Z</time></trkpt><trkpt lat="40.84456211378429" lon="9.458613638394596"><ele>119.33333333333334</ele><time>2026-05-02T09:25:45.001Z</time></trkpt><trkpt lat="40.84453501548966" lon="9.45884063469124"><ele>118.66666666666667</ele><time>2026-05-02T09:25:46.001Z</time></trkpt><trkpt lat="40.84452360545187" lon="9.459080662279494"><ele>118.0</ele><time>2026-05-02T09:25:47.001Z</time></trkpt><trkpt lat="40.844522071312475" lon="9.4593308981863"><ele>118.0</ele><time>2026-05-02T09:25:48.001Z</time></trkpt><trkpt lat="40.84452059610077" lon="9.459569487428709"><ele>118.0</ele><time>2026-05-02T09:25:49.001Z</time></trkpt><trkpt lat="40.84451749518679" lon="9.459803948365959"><ele>118.0</ele><time>2026-05-02T09:25:50.001Z</time></trkpt><trkpt lat="40.84450850816776" lon="9.460035049256948"><ele>117.0</ele><time>2026-05-02T09:25:51.001Z</time></trkpt><trkpt lat="40.844508181808486" lon="9.460264463956404"><ele>116.0</ele><time>2026-05-02T09:25:52.001Z</time></trkpt><trkpt lat="40.84450401282885" lon="9.460494099431425"><ele>115.0</ele><time>2026-05-02T09:25:53.001Z</time></trkpt><trkpt lat="40.844503500188985" lon="9.460726125149193"><ele>114.0</ele><time>2026-05-02T09:25:54.001Z</time></trkpt><trkpt lat="40.84450630837405" lon="9.460955697163863"><ele>113.0</ele><time>2026-05-02T09:25:55.001Z</time></trkpt><trkpt lat="40.84450024802631" lon="9.461172440372433"><ele>112.0</ele><time>2026-05-02T09:25:56.001Z</time></trkpt><trkpt lat="40.844500851435924" lon="9.46136770422779"><ele>111.25</ele><time>2026-05-02T09:25:57.001Z</time></trkpt><trkpt lat="40.84453330959706" lon="9.461549921606215"><ele>110.5</ele><time>2026-05-02T09:25:58.001Z</time></trkpt><trkpt lat="40.84458730776188" lon="9.461720888652115"><ele>109.75</ele><time>2026-05-02T09:25:59.001Z</time></trkpt><trkpt lat="40.844671098974565" lon="9.461885731519986"><ele>109.0</ele><time>2026-05-02T09:26:00.001Z</time></trkpt><trkpt lat="40.84476403284754" lon="9.462022675555259"><ele>109.25</ele><time>2026-05-02T09:26:01.001Z</time></trkpt><trkpt lat="40.844885081231496" lon="9.462118532242263"><ele>109.5</ele><time>2026-05-02T09:26:02.001Z</time></trkpt><trkpt lat="40.84500820456069" lon="9.462203367464777"><ele>109.75</ele><time>2026-05-02T09:26:03.001Z</time></trkpt><trkpt lat="40.84510584033373" lon="9.462278584384787"><ele>110.0</ele><time>2026-05-02T09:26:04.001Z</time></trkpt><trkpt lat="40.84517268346948" lon="9.46238650954553"><ele>107.75</ele><time>2026-05-02T09:26:05.001Z</time></trkpt><trkpt lat="40.84520851707864" lon="9.462547615010644"><ele>105.5</ele><time>2026-05-02T09:26:06.001Z</time></trkpt><trkpt lat="40.845252198166094" lon="9.462739616945099"><ele>103.25</ele><time>2026-05-02T09:26:07.001Z</time></trkpt><trkpt lat="40.845290806741474" lon="9.462949317973596"><ele>101.0</ele><time>2026-05-02T09:26:08.001Z</time></trkpt><trkpt lat="40.845331651153" lon="9.46317817564223"><ele>100.33333333333333</ele><time>2026-05-02T09:26:09.001Z</time></trkpt><trkpt lat="40.84536646665312" lon="9.463421688638716"><ele>99.66666666666666</ele><time>2026-05-02T09:26:10.001Z</time></trkpt><trkpt lat="40.845387643966866" lon="9.463659409022432"><ele>99.0</ele><time>2026-05-02T09:26:11.001Z</time></trkpt><trkpt lat="40.845406794249776" lon="9.46387962911903"><ele>98.5</ele><time>2026-05-02T09:26:12.001Z</time></trkpt><trkpt lat="40.84543179734732" lon="9.464074942838781"><ele>98.0</ele><time>2026-05-02T09:26:13.001Z</time></trkpt><trkpt lat="40.845450498153355" lon="9.464253408996111"><ele>97.5</ele><time>2026-05-02T09:26:14.001Z</time></trkpt><trkpt lat="40.84545175255611" lon="9.46443233716031"><ele>97.0</ele><time>2026-05-02T09:26:15.001Z</time></trkpt><trkpt lat="40.84542993208237" lon="9.464605495841763"><ele>95.0</ele><time>2026-05-02T09:26:16.001Z</time></trkpt><trkpt lat="40.84540292928197" lon="9.464766547878606"><ele>93.0</ele><time>2026-05-02T09:26:17.001Z</time></trkpt><trkpt lat="40.84535079204529" lon="9.464893015964249"><ele>91.0</ele><time>2026-05-02T09:26:18.001Z</time></trkpt><trkpt lat="40.84527163713296" lon="9.464999854828486"><ele>89.0</ele><time>2026-05-02T09:26:19.001Z</time></trkpt><trkpt lat="40.84516633660338" lon="9.465065543175166"><ele>90.0</ele><time>2026-05-02T09:26:20.001Z</time></trkpt><trkpt lat="40.84504817418175" lon="9.465089722881764"><ele>91.0</ele><time>2026-05-02T09:26:21.001Z</time></trkpt><trkpt lat="40.844927028154096" lon="9.46505883638994"><ele>92.0</ele><time>2026-05-02T09:26:22.001Z</time></trkpt><trkpt lat="40.844802696533264" lon="9.465067448589252"><ele>93.0</ele><time>2026-05-02T09:26:23.001Z</time></trkpt><trkpt lat="40.844679531049785" lon="9.465046001291041"><ele>93.0</ele><time>2026-05-02T09:26:24.001Z</time></trkpt><trkpt lat="40.84455782080175" lon="9.464999931088958"><ele>93.0</ele><time>2026-05-02T09:26:25.001Z</time></trkpt><trkpt lat="40.844439233628854" lon="9.464922823032497"><ele>93.0</ele><time>2026-05-02T09:26:26.001Z</time></trkpt><trkpt lat="40.844333956591825" lon="9.464817201375888"><ele>93.0</ele><time>2026-05-02T09:26:27.001Z</time></trkpt><trkpt lat="40.844249973075485" lon="9.464677182875956"><ele>94.66666666666666</ele><time>2026-05-02T09:26:28.001Z</time></trkpt><trkpt lat="40.84417331576919" lon="9.464519745385896"><ele>96.33333333333333</ele><time>2026-05-02T09:26:29.001Z</time></trkpt><trkpt lat="40.844106053672796" lon="9.464333499977842"><ele>98.0</ele><time>2026-05-02T09:26:30.001Z</time></trkpt><trkpt lat="40.84402427399478" lon="9.464150873318882"><ele>98.0</ele><time>2026-05-02T09:26:31.001Z</time></trkpt><trkpt lat="40.84391603290727" lon="9.464001811136859"><ele>98.0</ele><time>2026-05-02T09:26:32.001Z</time></trkpt><trkpt lat="40.84379235835923" lon="9.46385689369574"><ele>98.0</ele><time>2026-05-02T09:26:33.001Z</time></trkpt><trkpt lat="40.84365741386998" lon="9.463714015340223"><ele>99.0</ele><time>2026-05-02T09:26:34.001Z</time></trkpt><trkpt lat="40.84351149161882" lon="9.463581506957322"><ele>100.0</ele><time>2026-05-02T09:26:35.001Z</time></trkpt><trkpt lat="40.843363549105746" lon="9.463446519756639"><ele>101.0</ele><time>2026-05-02T09:26:36.001Z</time></trkpt><trkpt lat="40.8432257344437" lon="9.46331412537504"><ele>101.0</ele><time>2026-05-02T09:26:37.001Z</time></trkpt><trkpt lat="40.843104001196146" lon="9.463164375578035"><ele>101.0</ele><time>2026-05-02T09:26:38.001Z</time></trkpt><trkpt lat="40.84299104032242" lon="9.46299528059279"><ele>101.0</ele><time>2026-05-02T09:26:39.001Z</time></trkpt><trkpt lat="40.84288198650045" lon="9.46282092301632"><ele>100.33333333333333</ele><time>2026-05-02T09:26:40.001Z</time></trkpt><trkpt lat="40.84278005024983" lon="9.462653349388345"><ele>99.66666666666666</ele><time>2026-05-02T09:26:41.001Z</time></trkpt><trkpt lat="40.842680587128854" lon="9.462489841354323"><ele>99.0</ele><time>2026-05-02T09:26:42.001Z</time></trkpt><trkpt lat="40.84257525188819" lon="9.46231922503715"><ele>99.0</ele><time>2026-05-02T09:26:43.001Z</time></trkpt><trkpt lat="40.842457180065885" lon="9.46215723639915"><ele>99.0</ele><time>2026-05-02T09:26:44Z</time></trkpt><trkpt lat="40.84233208148234" lon="9.462006682870488"><ele>99.0</ele><time>2026-05-02T09:26:45Z</time></trkpt><trkpt lat="40.84221745358238" lon="9.461861256193862"><ele>101.33333333333334</ele><time>2026-05-02T09:26:46Z</time></trkpt><trkpt lat="40.842116449077615" lon="9.461700136258449"><ele>103.66666666666667</ele><time>2026-05-02T09:26:47Z</time></trkpt><trkpt lat="40.842028253466395" lon="9.461535864794483"><ele>106.0</ele><time>2026-05-02T09:26:48Z</time></trkpt><trkpt lat="40.84194199100784" lon="9.461383550092187"><ele>105.0</ele><time>2026-05-02T09:26:49Z</time></trkpt><trkpt lat="40.84183500733875" lon="9.461238141085804"><ele>104.0</ele><time>2026-05-02T09:26:50Z</time></trkpt><trkpt lat="40.841709531060026" lon="9.46111569831081"><ele>103.0</ele><time>2026-05-02T09:26:51Z</time></trkpt><trkpt lat="40.841571530426386" lon="9.461016996046542"><ele>103.0</ele><time>2026-05-02T09:26:52Z</time></trkpt><trkpt lat="40.84141345742103" lon="9.460943641229095"><ele>103.0</ele><time>2026-05-02T09:26:53Z</time></trkpt><trkpt lat="40.841232609912915" lon="9.460878944569941"><ele>103.0</ele><time>2026-05-02T09:26:54Z</time></trkpt><trkpt lat="40.8410438021747" lon="9.4608139908365"><ele>100.66666666666667</ele><time>2026-05-02T09:26:55Z</time></trkpt><trkpt lat="40.840874584419645" lon="9.460755636675716"><ele>98.33333333333334</ele><time>2026-05-02T09:26:56Z</time></trkpt><trkpt lat="40.84073163839746" lon="9.460704493725617"><ele>96.0</ele><time>2026-05-02T09:26:57Z</time></trkpt><trkpt lat="40.84060503859923" lon="9.46066368751015"><ele>96.0</ele><time>2026-05-02T09:26:58Z</time></trkpt><trkpt lat="40.840481983113754" lon="9.460662643635832"><ele>96.0</ele><time>2026-05-02T09:26:59Z</time></trkpt><trkpt lat="40.840374804010125" lon="9.460718657109135"><ele>96.0</ele><time>2026-05-02T09:27:00Z</time></trkpt><trkpt lat="40.840276886894586" lon="9.460799085777174"><ele>96.0</ele><time>2026-05-02T09:27:01Z</time></trkpt><trkpt lat="40.840182945596666" lon="9.460916134027727"><ele>96.75</ele><time>2026-05-02T09:27:02Z</time></trkpt><trkpt lat="40.84009923548446" lon="9.461064075882057"><ele>97.5</ele><time>2026-05-02T09:27:03Z</time></trkpt><trkpt lat="40.84002416178538" lon="9.461232194763602"><ele>98.25</ele><time>2026-05-02T09:27:04Z</time></trkpt><trkpt lat="40.83995844115541" lon="9.46141832944333"><ele>99.0</ele><time>2026-05-02T09:27:05Z</time></trkpt><trkpt lat="40.83990963115122" lon="9.461631009684769"><ele>96.33333333333333</ele><time>2026-05-02T09:27:06Z</time></trkpt><trkpt lat="40.83987200819286" lon="9.461844358022994"><ele>93.66666666666666</ele><time>2026-05-02T09:27:07Z</time></trkpt><trkpt lat="40.839832375768225" lon="9.462075006915823"><ele>91.0</ele><time>2026-05-02T09:27:08Z</time></trkpt><trkpt lat="40.83978608406016" lon="9.462312966046747"><ele>90.0</ele><time>2026-05-02T09:27:09Z</time></trkpt><trkpt lat="40.83974117398043" lon="9.462556438076845"><ele>89.0</ele><time>2026-05-02T09:27:10Z</time></trkpt><trkpt lat="40.83969776278522" lon="9.462781806573629"><ele>88.0</ele><time>2026-05-02T09:27:11Z</time></trkpt><trkpt lat="40.8396590302209" lon="9.462982001925784"><ele>87.0</ele><time>2026-05-02T09:27:12Z</time></trkpt><trkpt lat="40.83961145371971" lon="9.463177845295066"><ele>86.0</ele><time>2026-05-02T09:27:13Z</time></trkpt><trkpt lat="40.8395391530299" lon="9.463362704542265"><ele>85.0</ele><time>2026-05-02T09:27:14Z</time></trkpt><trkpt lat="40.83943615167889" lon="9.463533517372024"><ele>85.0</ele><time>2026-05-02T09:27:15Z</time></trkpt><trkpt lat="40.839305977281356" lon="9.463694815484294"><ele>85.0</ele><time>2026-05-02T09:27:16Z</time></trkpt><trkpt lat="40.83916880845786" lon="9.463857751961994"><ele>85.0</ele><time>2026-05-02T09:27:17Z</time></trkpt><trkpt lat="40.83902625856923" lon="9.464026759526323"><ele>84.66666666666666</ele><time>2026-05-02T09:27:18Z</time></trkpt><trkpt lat="40.83888074787416" lon="9.464198950605015"><ele>84.33333333333333</ele><time>2026-05-02T09:27:19Z</time></trkpt><trkpt lat="40.83874723877968" lon="9.464361054527185"><ele>84.0</ele><time>2026-05-02T09:27:20Z</time></trkpt><trkpt lat="40.83862764971984" lon="9.464514708904165"><ele>83.5</ele><time>2026-05-02T09:27:21Z</time></trkpt><trkpt lat="40.838525569316936" lon="9.46466685707778"><ele>83.0</ele><time>2026-05-02T09:27:22Z</time></trkpt><trkpt lat="40.83844546455215" lon="9.464815685077687"><ele>82.5</ele><time>2026-05-02T09:27:23Z</time></trkpt><trkpt lat="40.838389435723414" lon="9.464978911218859"><ele>82.0</ele><time>2026-05-02T09:27:24Z</time></trkpt><trkpt lat="40.838365251146065" lon="9.465153316187209"><ele>83.33333333333333</ele><time>2026-05-02T09:27:25Z</time></trkpt><trkpt lat="40.83837564376396" lon="9.465341421081304"><ele>84.66666666666667</ele><time>2026-05-02T09:27:26Z</time></trkpt><trkpt lat="40.83840383980356" lon="9.465555150091342"><ele>86.0</ele><time>2026-05-02T09:27:27Z</time></trkpt><trkpt lat="40.838433426965366" lon="9.465799896738776"><ele>86.0</ele><time>2026-05-02T09:27:28Z</time></trkpt><trkpt lat="40.83846122849061" lon="9.466062186618005"><ele>86.0</ele><time>2026-05-02T09:27:29Z</time></trkpt><trkpt lat="40.838491826928" lon="9.466341879261122"><ele>86.0</ele><time>2026-05-02T09:27:30Z</time></trkpt><trkpt lat="40.83852007929126" lon="9.466622208439931"><ele>85.0</ele><time>2026-05-02T09:27:31Z</time></trkpt><trkpt lat="40.838547547109215" lon="9.466891454567786"><ele>84.0</ele><time>2026-05-02T09:27:32Z</time></trkpt><trkpt lat="40.83857489576972" lon="9.467160420872698"><ele>83.0</ele><time>2026-05-02T09:27:33Z</time></trkpt><trkpt lat="40.83860162788855" lon="9.467426638879912"><ele>83.0</ele><time>2026-05-02T09:27:34Z</time></trkpt><trkpt lat="40.838630776924745" lon="9.467705964458688"><ele>83.0</ele><time>2026-05-02T09:27:35Z</time></trkpt><trkpt lat="40.83865943103201" lon="9.467991493128194"><ele>83.0</ele><time>2026-05-02T09:27:36Z</time></trkpt><trkpt lat="40.838692198344425" lon="9.468283356115382"><ele>83.0</ele><time>2026-05-02T09:27:37Z</time></trkpt><trkpt lat="40.83872694447628" lon="9.468579094516096"><ele>83.0</ele><time>2026-05-02T09:27:38Z</time></trkpt><trkpt lat="40.838756567982344" lon="9.468875335980812"><ele>84.33333333333334</ele><time>2026-05-02T09:27:39Z</time></trkpt><trkpt lat="40.838784707640286" lon="9.469156908160441"><ele>85.66666666666667</ele><time>2026-05-02T09:27:40Z</time></trkpt><trkpt lat="40.83881197352147" lon="9.46941850361631"><ele>87.0</ele><time>2026-05-02T09:27:41Z</time></trkpt><trkpt lat="40.838837366891674" lon="9.46967367916839"><ele>88.0</ele><time>2026-05-02T09:27:42Z</time></trkpt><trkpt lat="40.83886077050827" lon="9.469913580340004"><ele>89.0</ele><time>2026-05-02T09:27:43Z</time></trkpt><trkpt lat="40.83888545928804" lon="9.470146042883629"><ele>90.0</ele><time>2026-05-02T09:27:44Z</time></trkpt><trkpt lat="40.8389102550869" lon="9.47038899919883"><ele>90.33333333333333</ele><time>2026-05-02T09:27:45Z</time></trkpt><trkpt lat="40.838935608324554" lon="9.470638528164043"><ele>90.66666666666666</ele><time>2026-05-02T09:27:46.001Z</time></trkpt><trkpt lat="40.838962233530985" lon="9.470886393151313"><ele>91.0</ele><time>2026-05-02T09:27:47.001Z</time></trkpt><trkpt lat="40.83898826022397" lon="9.4711385381931"><ele>90.33333333333333</ele><time>2026-05-02T09:27:48.001Z</time></trkpt><trkpt lat="40.839013524108374" lon="9.471396815241118"><ele>89.66666666666667</ele><time>2026-05-02T09:27:49.001Z</time></trkpt><trkpt lat="40.83904167300934" lon="9.471668431087954"><ele>89.0</ele><time>2026-05-02T09:27:50.001Z</time></trkpt><trkpt lat="40.83906837543918" lon="9.471922223136696"><ele>89.0</ele><time>2026-05-02T09:27:51.001Z</time></trkpt><trkpt lat="40.8390931907607" lon="9.472162865122913"><ele>89.0</ele><time>2026-05-02T09:27:52.001Z</time></trkpt><trkpt lat="40.83911177778994" lon="9.472379501991693"><ele>89.0</ele><time>2026-05-02T09:27:53.001Z</time></trkpt><trkpt lat="40.839123421297046" lon="9.472560229414574"><ele>89.0</ele><time>2026-05-02T09:27:54.001Z</time></trkpt><trkpt lat="40.83911085976022" lon="9.472726594680795"><ele>89.0</ele><time>2026-05-02T09:27:55.001Z</time></trkpt><trkpt lat="40.83907114218807" lon="9.472876219521059"><ele>89.0</ele><time>2026-05-02T09:27:56.001Z</time></trkpt><trkpt lat="40.83899873422443" lon="9.473013280513246"><ele>89.0</ele><time>2026-05-02T09:27:57.001Z</time></trkpt><trkpt lat="40.83890182989583" lon="9.473111711580582"><ele>88.75</ele><time>2026-05-02T09:27:58.001Z</time></trkpt><trkpt lat="40.83879577163757" lon="9.473177048172852"><ele>88.5</ele><time>2026-05-02T09:27:59.001Z</time></trkpt><trkpt lat="40.83867481406669" lon="9.473195689694714"><ele>88.25</ele><time>2026-05-02T09:28:00.001Z</time></trkpt><trkpt lat="40.838542468977316" lon="9.47317051359341"><ele>88.0</ele><time>2026-05-02T09:28:01.001Z</time></trkpt><trkpt lat="40.83839263310217" lon="9.47316566610304"><ele>88.75</ele><time>2026-05-02T09:28:02.001Z</time></trkpt><trkpt lat="40.83824502742011" lon="9.473158367989381"><ele>89.5</ele><time>2026-05-02T09:28:03.001Z</time></trkpt><trkpt lat="40.83809784177858" lon="9.47315109064614"><ele>90.25</ele><time>2026-05-02T09:28:04.001Z</time></trkpt><trkpt lat="40.83794658232585" lon="9.473143719692093"><ele>91.0</ele><time>2026-05-02T09:28:05.001Z</time></trkpt><trkpt lat="40.8377909215276" lon="9.473136321308315"><ele>92.0</ele><time>2026-05-02T09:28:06.001Z</time></trkpt><trkpt lat="40.83762718110174" lon="9.473128538910633"><ele>93.0</ele><time>2026-05-02T09:28:07.001Z</time></trkpt><trkpt lat="40.837480810223944" lon="9.473135320268735"><ele>94.0</ele><time>2026-05-02T09:28:08.001Z</time></trkpt><trkpt lat="40.83735219096457" lon="9.47312731313957"><ele>95.0</ele><time>2026-05-02T09:28:09.001Z</time></trkpt><trkpt lat="40.8372344297605" lon="9.473122281519695"><ele>95.0</ele><time>2026-05-02T09:28:10.001Z</time></trkpt><trkpt lat="40.83712962631809" lon="9.473128720293127"><ele>95.0</ele><time>2026-05-02T09:28:11.001Z</time></trkpt><trkpt lat="40.837041189754444" lon="9.47312075302232"><ele>95.0</ele><time>2026-05-02T09:28:12.001Z</time></trkpt><trkpt lat="40.83696099302361" lon="9.473096715605948"><ele>95.0</ele><time>2026-05-02T09:28:13.001Z</time></trkpt><trkpt lat="40.83688202123699" lon="9.473048327920953"><ele>95.0</ele><time>2026-05-02T09:28:14.001Z</time></trkpt><trkpt lat="40.83682109317868" lon="9.472977232681327"><ele>95.0</ele><time>2026-05-02T09:28:15.001Z</time></trkpt><trkpt lat="40.836770950645565" lon="9.472885107710907"><ele>97.6</ele><time>2026-05-02T09:28:16.001Z</time></trkpt><trkpt lat="40.83672749727756" lon="9.472776011726353"><ele>100.2</ele><time>2026-05-02T09:28:17.001Z</time></trkpt><trkpt lat="40.83669219362967" lon="9.472652171795184"><ele>102.80000000000001</ele><time>2026-05-02T09:28:18.001Z</time></trkpt><trkpt lat="40.83667999989844" lon="9.47251616174426"><ele>105.4</ele><time>2026-05-02T09:28:19.001Z</time></trkpt><trkpt lat="40.83665209063703" lon="9.472378470205921"><ele>108.0</ele><time>2026-05-02T09:28:20.001Z</time></trkpt><trkpt lat="40.836625525291964" lon="9.472223453458424"><ele>109.25</ele><time>2026-05-02T09:28:21.001Z</time></trkpt><trkpt lat="40.83660228563338" lon="9.472047135884806"><ele>110.5</ele><time>2026-05-02T09:28:22.001Z</time></trkpt><trkpt lat="40.83657875135612" lon="9.471851109381259"><ele>111.75</ele><time>2026-05-02T09:28:23.001Z</time></trkpt><trkpt lat="40.83655297137778" lon="9.47163730521364"><ele>113.0</ele><time>2026-05-02T09:28:24.001Z</time></trkpt><trkpt lat="40.83651355533243" lon="9.471408309005387"><ele>112.66666666666666</ele><time>2026-05-02T09:28:25.001Z</time></trkpt><trkpt lat="40.83648219124102" lon="9.471166628798082"><ele>112.33333333333334</ele><time>2026-05-02T09:28:26.001Z</time></trkpt><trkpt lat="40.83645517328528" lon="9.470916627618482"><ele>112.0</ele><time>2026-05-02T09:28:27.001Z</time></trkpt><trkpt lat="40.83642533119189" lon="9.470660297529284"><ele>112.66666666666667</ele><time>2026-05-02T09:28:28.001Z</time></trkpt><trkpt lat="40.8363968643434" lon="9.470415149257482"><ele>113.33333333333334</ele><time>2026-05-02T09:28:29.001Z</time></trkpt><trkpt lat="40.836361736568776" lon="9.470177554818882"><ele>114.0</ele><time>2026-05-02T09:28:30.001Z</time></trkpt><trkpt lat="40.836332367461935" lon="9.469932167306256"><ele>114.0</ele><time>2026-05-02T09:28:31.001Z</time></trkpt><trkpt lat="40.83625470712366" lon="9.469691417195918"><ele>114.0</ele><time>2026-05-02T09:28:32.001Z</time></trkpt><trkpt lat="40.8361547294866" lon="9.469454391475594"><ele>114.0</ele><time>2026-05-02T09:28:33.001Z</time></trkpt><trkpt lat="40.83606055392635" lon="9.469245812054542"><ele>114.0</ele><time>2026-05-02T09:28:34Z</time></trkpt><trkpt lat="40.835976756848225" lon="9.469060565862836"><ele>114.0</ele><time>2026-05-02T09:28:35Z</time></trkpt><trkpt lat="40.83594676372159" lon="9.468855654219439"><ele>114.0</ele><time>2026-05-02T09:28:36Z</time></trkpt><trkpt lat="40.8359387100981" lon="9.46863353992721"><ele>120.0</ele><time>2026-05-02T09:28:37Z</time></trkpt><trkpt lat="40.83588678691374" lon="9.468411979600656"><ele>126.0</ele><time>2026-05-02T09:28:38Z</time></trkpt><trkpt lat="40.835791712096714" lon="9.468194725005326"><ele>132.0</ele><time>2026-05-02T09:28:39Z</time></trkpt><trkpt lat="40.83568728938263" lon="9.4679740839527"><ele>130.33333333333334</ele><time>2026-05-02T09:28:40Z</time></trkpt><trkpt lat="40.835581115797055" lon="9.467756298082904"><ele>128.66666666666669</ele><time>2026-05-02T09:28:41Z</time></trkpt><trkpt lat="40.83546657355169" lon="9.46756174114233"><ele>127.0</ele><time>2026-05-02T09:28:42Z</time></trkpt><trkpt lat="40.835376661062405" lon="9.467368295180147"><ele>127.0</ele><time>2026-05-02T09:28:43Z</time></trkpt><trkpt lat="40.835280843050626" lon="9.467198433589227"><ele>127.0</ele><time>2026-05-02T09:28:44Z</time></trkpt><trkpt lat="40.835174503938255" lon="9.467041677265982"><ele>127.0</ele><time>2026-05-02T09:28:45Z</time></trkpt><trkpt lat="40.835035734366805" lon="9.46692103664568"><ele>129.0</ele><time>2026-05-02T09:28:46Z</time></trkpt><trkpt lat="40.83486607294403" lon="9.466848875985557"><ele>131.0</ele><time>2026-05-02T09:28:47Z</time></trkpt><trkpt lat="40.83468570520872" lon="9.466760306500971"><ele>133.0</ele><time>2026-05-02T09:28:48Z</time></trkpt><trkpt lat="40.83449648601466" lon="9.46665158651857"><ele>133.0</ele><time>2026-05-02T09:28:49Z</time></trkpt><trkpt lat="40.83431494914598" lon="9.466565131193732"><ele>133.0</ele><time>2026-05-02T09:28:50Z</time></trkpt><trkpt lat="40.83415405185561" lon="9.46648928665682"><ele>133.0</ele><time>2026-05-02T09:28:51Z</time></trkpt><trkpt lat="40.833998002377335" lon="9.466431215412504"><ele>137.75</ele><time>2026-05-02T09:28:52Z</time></trkpt><trkpt lat="40.83384240186939" lon="9.466412048702265"><ele>142.5</ele><time>2026-05-02T09:28:53Z</time></trkpt><trkpt lat="40.83369750494889" lon="9.466432881361762"><ele>147.25</ele><time>2026-05-02T09:28:54Z</time></trkpt><trkpt lat="40.83357180133764" lon="9.466453567192373"><ele>152.0</ele><time>2026-05-02T09:28:55Z</time></trkpt><trkpt lat="40.83345850510554" lon="9.466468907885453"><ele>151.79999999999998</ele><time>2026-05-02T09:28:56Z</time></trkpt><trkpt lat="40.83336407920843" lon="9.466409774871961"><ele>151.6</ele><time>2026-05-02T09:28:57Z</time></trkpt><trkpt lat="40.83331808537348" lon="9.466300084599736"><ele>151.39999999999998</ele><time>2026-05-02T09:28:58Z</time></trkpt><trkpt lat="40.83327803245865" lon="9.466166095506985"><ele>151.2</ele><time>2026-05-02T09:28:59Z</time></trkpt><trkpt lat="40.83325956747043" lon="9.465996663355371"><ele>151.0</ele><time>2026-05-02T09:29:00Z</time></trkpt><trkpt lat="40.83323412825177" lon="9.465799210615613"><ele>151.0</ele><time>2026-05-02T09:29:01Z</time></trkpt><trkpt lat="40.833194671558985" lon="9.465583299163047"><ele>151.0</ele><time>2026-05-02T09:29:02Z</time></trkpt><trkpt lat="40.83316172749765" lon="9.46535429028619"><ele>151.0</ele><time>2026-05-02T09:29:03Z</time></trkpt><trkpt lat="40.83314489778688" lon="9.465105604329814"><ele>149.0</ele><time>2026-05-02T09:29:04Z</time></trkpt><trkpt lat="40.8331098904602" lon="9.46485314002171"><ele>147.0</ele><time>2026-05-02T09:29:05Z</time></trkpt><trkpt lat="40.83306680946065" lon="9.46460689521105"><ele>145.0</ele><time>2026-05-02T09:29:06Z</time></trkpt><trkpt lat="40.83299220473921" lon="9.46436955647128"><ele>143.66666666666669</ele><time>2026-05-02T09:29:07Z</time></trkpt><trkpt lat="40.832963677365136" lon="9.464112307412938"><ele>142.33333333333334</ele><time>2026-05-02T09:29:08Z</time></trkpt><trkpt lat="40.8329344013177" lon="9.4638474420279"><ele>141.0</ele><time>2026-05-02T09:29:09Z</time></trkpt><trkpt lat="40.832870172874536" lon="9.46358906552331"><ele>141.0</ele><time>2026-05-02T09:29:10Z</time></trkpt><trkpt lat="40.83280961786677" lon="9.463340331230992"><ele>141.0</ele><time>2026-05-02T09:29:11Z</time></trkpt><trkpt lat="40.83276377036475" lon="9.463092349192229"><ele>141.0</ele><time>2026-05-02T09:29:12Z</time></trkpt><trkpt lat="40.832707617156544" lon="9.462853553710511"><ele>142.33333333333334</ele><time>2026-05-02T09:29:13Z</time></trkpt><trkpt lat="40.832664773412915" lon="9.462616137654054"><ele>143.66666666666669</ele><time>2026-05-02T09:29:14Z</time></trkpt><trkpt lat="40.83262395617034" lon="9.462384099838088"><ele>145.0</ele><time>2026-05-02T09:29:15Z</time></trkpt><trkpt lat="40.83253679498244" lon="9.462166120451716"><ele>153.33333333333334</ele><time>2026-05-02T09:29:16Z</time></trkpt><trkpt lat="40.832418356046006" lon="9.461971158794414"><ele>161.66666666666666</ele><time>2026-05-02T09:29:17Z</time></trkpt><trkpt lat="40.8322995004266" lon="9.461748835317207"><ele>170.0</ele><time>2026-05-02T09:29:18Z</time></trkpt><trkpt lat="40.83217044702021" lon="9.461511900358065"><ele>166.66666666666666</ele><time>2026-05-02T09:29:19Z</time></trkpt><trkpt lat="40.83204129329583" lon="9.461265086025074"><ele>163.33333333333334</ele><time>2026-05-02T09:29:20Z</time></trkpt><trkpt lat="40.83192367464783" lon="9.461039655538075"><ele>160.0</ele><time>2026-05-02T09:29:21Z</time></trkpt><trkpt lat="40.83181520680914" lon="9.460838238333212"><ele>163.66666666666669</ele><time>2026-05-02T09:29:22Z</time></trkpt><trkpt lat="40.831724437443704" lon="9.46064302713065"><ele>167.33333333333334</ele><time>2026-05-02T09:29:23Z</time></trkpt><trkpt lat="40.83160274181873" lon="9.460500272659866"><ele>171.0</ele><time>2026-05-02T09:29:24Z</time></trkpt><trkpt lat="40.83146160861309" lon="9.460428042166338"><ele>171.0</ele><time>2026-05-02T09:29:25Z</time></trkpt><trkpt lat="40.83131379627485" lon="9.460357371677112"><ele>171.0</ele><time>2026-05-02T09:29:26Z</time></trkpt><trkpt lat="40.8311786993303" lon="9.460235260080461"><ele>171.0</ele><time>2026-05-02T09:29:27Z</time></trkpt><trkpt lat="40.8310638919907" lon="9.460089937433084"><ele>173.66666666666666</ele><time>2026-05-02T09:29:28Z</time></trkpt><trkpt lat="40.8309601784502" lon="9.459923492948983"><ele>176.33333333333331</ele><time>2026-05-02T09:29:29Z</time></trkpt><trkpt lat="40.830857406799645" lon="9.459733088323741"><ele>179.0</ele><time>2026-05-02T09:29:30Z</time></trkpt><trkpt lat="40.83075116469918" lon="9.459542264483634"><ele>179.0</ele><time>2026-05-02T09:29:31Z</time></trkpt><trkpt lat="40.83064086131653" lon="9.459367343231305"><ele>179.0</ele><time>2026-05-02T09:29:32Z</time></trkpt><trkpt lat="40.83051457922706" lon="9.45920699885754"><ele>179.0</ele><time>2026-05-02T09:29:33Z</time></trkpt><trkpt lat="40.83036281346858" lon="9.459066665895836"><ele>179.0</ele><time>2026-05-02T09:29:34Z</time></trkpt><trkpt lat="40.83019417709206" lon="9.45895490923402"><ele>179.0</ele><time>2026-05-02T09:29:35Z</time></trkpt><trkpt lat="40.830023074419515" lon="9.458851048928732"><ele>179.0</ele><time>2026-05-02T09:29:36Z</time></trkpt><trkpt lat="40.82985433647863" lon="9.458752120731242"><ele>180.66666666666666</ele><time>2026-05-02T09:29:37Z</time></trkpt><trkpt lat="40.82968077857294" lon="9.458661493253182"><ele>182.33333333333334</ele><time>2026-05-02T09:29:38Z</time></trkpt><trkpt lat="40.82951443240487" lon="9.458586349107126"><ele>184.0</ele><time>2026-05-02T09:29:39Z</time></trkpt><trkpt lat="40.829360611056394" lon="9.458516380822765"><ele>189.75</ele><time>2026-05-02T09:29:40Z</time></trkpt><trkpt lat="40.82923500852138" lon="9.458444647951524"><ele>195.5</ele><time>2026-05-02T09:29:41Z</time></trkpt><trkpt lat="40.82912878459828" lon="9.45833086027802"><ele>201.25</ele><time>2026-05-02T09:29:42Z</time></trkpt><trkpt lat="40.82902744269333" lon="9.45820150389527"><ele>207.0</ele><time>2026-05-02T09:29:43Z</time></trkpt><trkpt lat="40.82896582574193" lon="9.458061426590398"><ele>206.0</ele><time>2026-05-02T09:29:44Z</time></trkpt><trkpt lat="40.828946620715485" lon="9.457905677792562"><ele>205.0</ele><time>2026-05-02T09:29:45Z</time></trkpt><trkpt lat="40.82895409121552" lon="9.457728148527899"><ele>204.0</ele><time>2026-05-02T09:29:46Z</time></trkpt><trkpt lat="40.82896455683035" lon="9.45753198966297"><ele>203.0</ele><time>2026-05-02T09:29:47Z</time></trkpt><trkpt lat="40.82897885777341" lon="9.457358229770767"><ele>203.0</ele><time>2026-05-02T09:29:48Z</time></trkpt><trkpt lat="40.828955504917054" lon="9.457196070142654"><ele>203.0</ele><time>2026-05-02T09:29:49Z</time></trkpt><trkpt lat="40.8288906267964" lon="9.457038957787047"><ele>203.0</ele><time>2026-05-02T09:29:50Z</time></trkpt><trkpt lat="40.82880911355236" lon="9.456881192683516"><ele>203.0</ele><time>2026-05-02T09:29:51Z</time></trkpt><trkpt lat="40.82874976264646" lon="9.456744976989858"><ele>204.8</ele><time>2026-05-02T09:29:52Z</time></trkpt><trkpt lat="40.82870448272842" lon="9.456604398918161"><ele>206.60000000000002</ele><time>2026-05-02T09:29:53Z</time></trkpt><trkpt lat="40.82869867565206" lon="9.456470890439796"><ele>208.39999999999998</ele><time>2026-05-02T09:29:54Z</time></trkpt><trkpt lat="40.828701730129985" lon="9.456343494154167"><ele>210.2</ele><time>2026-05-02T09:29:55Z</time></trkpt><trkpt lat="40.828694091650846" lon="9.456237250553071"><ele>212.0</ele><time>2026-05-02T09:29:56Z</time></trkpt><trkpt lat="40.828678562773504" lon="9.456140382721118"><ele>214.33333333333334</ele><time>2026-05-02T09:29:57Z</time></trkpt><trkpt lat="40.828642959638096" lon="9.456046587658065"><ele>216.66666666666669</ele><time>2026-05-02T09:29:58Z</time></trkpt><trkpt lat="40.82860726590626" lon="9.45595990929148"><ele>219.0</ele><time>2026-05-02T09:29:59Z</time></trkpt><trkpt lat="40.82854376812077" lon="9.455910571963258"><ele>221.33333333333331</ele><time>2026-05-02T09:30:00Z</time></trkpt><trkpt lat="40.82846166546888" lon="9.455890593708666"><ele>223.66666666666666</ele><time>2026-05-02T09:30:01Z</time></trkpt><trkpt lat="40.82837932803637" lon="9.455927072260776"><ele>226.0</ele><time>2026-05-02T09:30:02Z</time></trkpt><trkpt lat="40.828305528105865" lon="9.455967581571933"><ele>225.99999999999997</ele><time>2026-05-02T09:30:03Z</time></trkpt><trkpt lat="40.82824750006477" lon="9.456024505959654"><ele>226.0</ele><time>2026-05-02T09:30:04Z</time></trkpt><trkpt lat="40.82819408919478" lon="9.456106109150992"><ele>226.0</ele><time>2026-05-02T09:30:05Z</time></trkpt><trkpt lat="40.828155856172145" lon="9.456208026773389"><ele>226.0</ele><time>2026-05-02T09:30:06Z</time></trkpt><trkpt lat="40.828134498429996" lon="9.456316138498929"><ele>225.99999999999997</ele><time>2026-05-02T09:30:07Z</time></trkpt><trkpt lat="40.82812942703885" lon="9.456429222015966"><ele>226.0</ele><time>2026-05-02T09:30:08Z</time></trkpt><trkpt lat="40.82812901258843" lon="9.45654717108665"><ele>226.0</ele><time>2026-05-02T09:30:09Z</time></trkpt><trkpt lat="40.82812409311923" lon="9.456664959119456"><ele>226.00000000000003</ele><time>2026-05-02T09:30:10Z</time></trkpt><trkpt lat="40.828100763356616" lon="9.456783113758688"><ele>226.00000000000003</ele><time>2026-05-02T09:30:11Z</time></trkpt><trkpt lat="40.82805393666503" lon="9.456888047658815"><ele>226.0</ele><time>2026-05-02T09:30:12Z</time></trkpt><trkpt lat="40.82799761929122" lon="9.456983334014373"><ele>226.0</ele><time>2026-05-02T09:30:13Z</time></trkpt><trkpt lat="40.82794012211498" lon="9.457068666193088"><ele>226.0</ele><time>2026-05-02T09:30:14Z</time></trkpt><trkpt lat="40.827857318890445" lon="9.457124108746779"><ele>226.00000000000003</ele><time>2026-05-02T09:30:15Z</time></trkpt><trkpt lat="40.82778431954497" lon="9.457198067370541"><ele>226.00000000000003</ele><time>2026-05-02T09:30:16Z</time></trkpt><trkpt lat="40.82768462844157" lon="9.457232948055323"><ele>226.0</ele><time>2026-05-02T09:30:17Z</time></trkpt><trkpt lat="40.82758704966863" lon="9.4572449980057"><ele>226.0</ele><time>2026-05-02T09:30:18Z</time></trkpt><trkpt lat="40.82748879772407" lon="9.457234538893518"><ele>228.0</ele><time>2026-05-02T09:30:19Z</time></trkpt><trkpt lat="40.82739161068325" lon="9.457167568326566"><ele>230.0</ele><time>2026-05-02T09:30:20Z</time></trkpt><trkpt lat="40.82729059955607" lon="9.457091398849428"><ele>232.0</ele><time>2026-05-02T09:30:21Z</time></trkpt><trkpt lat="40.82717247351046" lon="9.456989160806582"><ele>234.0</ele><time>2026-05-02T09:30:22Z</time></trkpt><trkpt lat="40.82703260983817" lon="9.456866309578572"><ele>234.0</ele><time>2026-05-02T09:30:23Z</time></trkpt><trkpt lat="40.82687682475031" lon="9.456729822355749"><ele>234.0</ele><time>2026-05-02T09:30:24Z</time></trkpt><trkpt lat="40.826704803011694" lon="9.456599073679175"><ele>234.0</ele><time>2026-05-02T09:30:25Z</time></trkpt><trkpt lat="40.82653587341242" lon="9.45646217351961"><ele>237.33333333333331</ele><time>2026-05-02T09:30:26Z</time></trkpt><trkpt lat="40.82637365623515" lon="9.456340198768913"><ele>240.66666666666666</ele><time>2026-05-02T09:30:27Z</time></trkpt><trkpt lat="40.82620910601219" lon="9.45621801114518"><ele>244.0</ele><time>2026-05-02T09:30:28Z</time></trkpt><trkpt lat="40.826038986690314" lon="9.456091421720199"><ele>246.0</ele><time>2026-05-02T09:30:29Z</time></trkpt><trkpt lat="40.82587091421118" lon="9.455964262489992"><ele>248.0</ele><time>2026-05-02T09:30:30Z</time></trkpt><trkpt lat="40.82570902886045" lon="9.455847686522755"><ele>250.0</ele><time>2026-05-02T09:30:31Z</time></trkpt><trkpt lat="40.82555947845165" lon="9.455738524821278"><ele>250.0</ele><time>2026-05-02T09:30:32Z</time></trkpt><trkpt lat="40.82539764693934" lon="9.455693800366381"><ele>250.0</ele><time>2026-05-02T09:30:33Z</time></trkpt><trkpt lat="40.82523100149773" lon="9.455700171493813"><ele>250.0</ele><time>2026-05-02T09:30:34Z</time></trkpt><trkpt lat="40.82506732670796" lon="9.455725357286866"><ele>250.66666666666666</ele><time>2026-05-02T09:30:35.001Z</time></trkpt><trkpt lat="40.82490976593978" lon="9.455776448415488"><ele>251.33333333333331</ele><time>2026-05-02T09:30:36.001Z</time></trkpt><trkpt lat="40.82476521882633" lon="9.455875543617918"><ele>252.0</ele><time>2026-05-02T09:30:37.001Z</time></trkpt><trkpt lat="40.82464682709715" lon="9.456015077844222"><ele>252.0</ele><time>2026-05-02T09:30:38.001Z</time></trkpt><trkpt lat="40.824545904474746" lon="9.456191499470304"><ele>252.0</ele><time>2026-05-02T09:30:39.001Z</time></trkpt><trkpt lat="40.824462977550056" lon="9.456395808715842"><ele>252.0</ele><time>2026-05-02T09:30:40Z</time></trkpt><trkpt lat="40.824418703370114" lon="9.456621251043916"><ele>254.66666666666669</ele><time>2026-05-02T09:30:41Z</time></trkpt><trkpt lat="40.82438185661643" lon="9.456872284117841"><ele>257.33333333333337</ele><time>2026-05-02T09:30:42Z</time></trkpt><trkpt lat="40.82435528649071" lon="9.457144945409327"><ele>260.0</ele><time>2026-05-02T09:30:43Z</time></trkpt><trkpt lat="40.82433844431232" lon="9.45743137739788"><ele>262.33333333333337</ele><time>2026-05-02T09:30:44Z</time></trkpt><trkpt lat="40.82432682233322" lon="9.457697873500699"><ele>264.6666666666667</ele><time>2026-05-02T09:30:45Z</time></trkpt><trkpt lat="40.82432404236164" lon="9.457949210994427"><ele>267.0</ele><time>2026-05-02T09:30:46Z</time></trkpt><trkpt lat="40.824329014428564" lon="9.458186510588249"><ele>267.3333333333333</ele><time>2026-05-02T09:30:47Z</time></trkpt><trkpt lat="40.824350139631164" lon="9.458407130512823"><ele>267.66666666666663</ele><time>2026-05-02T09:30:48Z</time></trkpt><trkpt lat="40.82439526103815" lon="9.458619504128372"><ele>268.0</ele><time>2026-05-02T09:30:49Z</time></trkpt><trkpt lat="40.82446830161237" lon="9.458828815083647"><ele>268.0</ele><time>2026-05-02T09:30:50Z</time></trkpt><trkpt lat="40.824561103511385" lon="9.459031819857522"><ele>268.0</ele><time>2026-05-02T09:30:51Z</time></trkpt><trkpt lat="40.82466452007662" lon="9.459244087969678"><ele>268.0</ele><time>2026-05-02T09:30:52Z</time></trkpt><trkpt lat="40.82476418536714" lon="9.459465417367737"><ele>267.66666666666663</ele><time>2026-05-02T09:30:53Z</time></trkpt><trkpt lat="40.82485504183743" lon="9.459689883307915"><ele>267.3333333333333</ele><time>2026-05-02T09:30:54Z</time></trkpt><trkpt lat="40.824923483409634" lon="9.459916200168902"><ele>267.0</ele><time>2026-05-02T09:30:55Z</time></trkpt><trkpt lat="40.82496883925541" lon="9.460144497661462"><ele>267.0</ele><time>2026-05-02T09:30:56Z</time></trkpt><trkpt lat="40.824996899939876" lon="9.460389083775162"><ele>267.0</ele><time>2026-05-02T09:30:57Z</time></trkpt><trkpt lat="40.82500443448141" lon="9.460645734420472"><ele>267.0</ele><time>2026-05-02T09:30:58Z</time></trkpt><trkpt lat="40.82500369803139" lon="9.460913710597504"><ele>268.0</ele><time>2026-05-02T09:30:59Z</time></trkpt><trkpt lat="40.825007667449896" lon="9.461192506498383"><ele>269.0</ele><time>2026-05-02T09:31:00Z</time></trkpt><trkpt lat="40.8250065122044" lon="9.461479179301394"><ele>270.0</ele><time>2026-05-02T09:31:01Z</time></trkpt><trkpt lat="40.82499201168024" lon="9.461744239173457"><ele>272.0</ele><time>2026-05-02T09:31:02Z</time></trkpt><trkpt lat="40.82496981704148" lon="9.461980635333772"><ele>274.0</ele><time>2026-05-02T09:31:03Z</time></trkpt><trkpt lat="40.82494953833123" lon="9.462201995149425"><ele>276.0</ele><time>2026-05-02T09:31:04Z</time></trkpt><trkpt lat="40.82493175175596" lon="9.462402767136743"><ele>277.0</ele><time>2026-05-02T09:31:05Z</time></trkpt><trkpt lat="40.82490344161768" lon="9.462575034175218"><ele>278.0</ele><time>2026-05-02T09:31:06Z</time></trkpt><trkpt lat="40.82486094960528" lon="9.46272588829402"><ele>279.0</ele><time>2026-05-02T09:31:07Z</time></trkpt><trkpt lat="40.824794440624444" lon="9.462844703873666"><ele>280.0</ele><time>2026-05-02T09:31:08Z</time></trkpt><trkpt lat="40.82471265153696" lon="9.46293178766298"><ele>280.6</ele><time>2026-05-02T09:31:09Z</time></trkpt><trkpt lat="40.82461742269632" lon="9.462992976585564"><ele>281.2</ele><time>2026-05-02T09:31:10Z</time></trkpt><trkpt lat="40.82451927519128" lon="9.463029163159463"><ele>281.8</ele><time>2026-05-02T09:31:11Z</time></trkpt><trkpt lat="40.82442160953891" lon="9.463059032273714"><ele>282.4</ele><time>2026-05-02T09:31:12Z</time></trkpt><trkpt lat="40.824329026520026" lon="9.463076801404366"><ele>283.0</ele><time>2026-05-02T09:31:13Z</time></trkpt><trkpt lat="40.824229570471864" lon="9.463087183833778"><ele>283.8</ele><time>2026-05-02T09:31:14Z</time></trkpt><trkpt lat="40.82412686814548" lon="9.463077656612136"><ele>284.6</ele><time>2026-05-02T09:31:15Z</time></trkpt><trkpt lat="40.824021220812334" lon="9.46304881386649"><ele>285.4</ele><time>2026-05-02T09:31:16Z</time></trkpt><trkpt lat="40.82392591444942" lon="9.462974337412263"><ele>286.2</ele><time>2026-05-02T09:31:17Z</time></trkpt><trkpt lat="40.82382007184503" lon="9.46291886754243"><ele>287.0</ele><time>2026-05-02T09:31:18Z</time></trkpt><trkpt lat="40.82372248498128" lon="9.462843233592707"><ele>286.4</ele><time>2026-05-02T09:31:19Z</time></trkpt><trkpt lat="40.823633592866386" lon="9.462754111541566"><ele>285.79999999999995</ele><time>2026-05-02T09:31:20Z</time></trkpt><trkpt lat="40.82352863173478" lon="9.462704255781539"><ele>285.2</ele><time>2026-05-02T09:31:21Z</time></trkpt><trkpt lat="40.82341691343593" lon="9.462684493464907"><ele>284.59999999999997</ele><time>2026-05-02T09:31:22Z</time></trkpt><trkpt lat="40.82330855984155" lon="9.462698413377073"><ele>284.0</ele><time>2026-05-02T09:31:23Z</time></trkpt><trkpt lat="40.82321814449202" lon="9.462732366645819"><ele>284.0</ele><time>2026-05-02T09:31:24Z</time></trkpt><trkpt lat="40.82312666952349" lon="9.462776168607489"><ele>284.0</ele><time>2026-05-02T09:31:25Z</time></trkpt><trkpt lat="40.82302612096868" lon="9.46279652760561"><ele>284.0</ele><time>2026-05-02T09:31:26Z</time></trkpt><trkpt lat="40.822925536753196" lon="9.462784161446836"><ele>284.0</ele><time>2026-05-02T09:31:27Z</time></trkpt><trkpt lat="40.82282544760058" lon="9.462769983886938"><ele>284.0</ele><time>2026-05-02T09:31:28Z</time></trkpt><trkpt lat="40.82271629662299" lon="9.46274572884557"><ele>284.8</ele><time>2026-05-02T09:31:29Z</time></trkpt><trkpt lat="40.822614365931706" lon="9.462729444868133"><ele>285.59999999999997</ele><time>2026-05-02T09:31:30Z</time></trkpt><trkpt lat="40.82251163804483" lon="9.462696798239346"><ele>286.4</ele><time>2026-05-02T09:31:31Z</time></trkpt><trkpt lat="40.82240838813044" lon="9.462661545136386"><ele>287.2</ele><time>2026-05-02T09:31:32Z</time></trkpt><trkpt lat="40.82230573136763" lon="9.462628909588055"><ele>288.0</ele><time>2026-05-02T09:31:33Z</time></trkpt><trkpt lat="40.822203507925586" lon="9.462577551436471"><ele>288.0</ele><time>2026-05-02T09:31:34Z</time></trkpt><trkpt lat="40.82210393832008" lon="9.462593832235152"><ele>288.0</ele><time>2026-05-02T09:31:35Z</time></trkpt><trkpt lat="40.82201093500038" lon="9.46259446844086"><ele>288.0</ele><time>2026-05-02T09:31:36Z</time></trkpt><trkpt lat="40.821920263776946" lon="9.462607933035152"><ele>288.0</ele><time>2026-05-02T09:31:37Z</time></trkpt><trkpt lat="40.8218352592547" lon="9.462633851729464"><ele>288.0</ele><time>2026-05-02T09:31:38Z</time></trkpt><trkpt lat="40.821750574019404" lon="9.462662276185691"><ele>289.0</ele><time>2026-05-02T09:31:39Z</time></trkpt><trkpt lat="40.82166530109826" lon="9.46269773514725"><ele>290.0</ele><time>2026-05-02T09:31:40Z</time></trkpt><trkpt lat="40.82157467901062" lon="9.462739103921958"><ele>291.0</ele><time>2026-05-02T09:31:41Z</time></trkpt><trkpt lat="40.821482081963396" lon="9.46278150237812"><ele>292.0</ele><time>2026-05-02T09:31:42Z</time></trkpt><trkpt lat="40.82139884541293" lon="9.462829107361976"><ele>293.0</ele><time>2026-05-02T09:31:43Z</time></trkpt><trkpt lat="40.821322391988836" lon="9.46287252294495"><ele>293.0</ele><time>2026-05-02T09:31:44Z</time></trkpt><trkpt lat="40.8212427164042" lon="9.462921822701885"><ele>293.0</ele><time>2026-05-02T09:31:45Z</time></trkpt><trkpt lat="40.82117826697633" lon="9.462965019950463"><ele>293.0</ele><time>2026-05-02T09:31:46Z</time></trkpt><trkpt lat="40.82111209415732" lon="9.463007761487955"><ele>293.0</ele><time>2026-05-02T09:31:47Z</time></trkpt><trkpt lat="40.82105516891576" lon="9.463072805467379"><ele>293.0</ele><time>2026-05-02T09:31:48Z</time></trkpt><trkpt lat="40.8210126320959" lon="9.46315340905681"><ele>293.0</ele><time>2026-05-02T09:31:49Z</time></trkpt><trkpt lat="40.82099064533335" lon="9.463244663410192"><ele>293.5</ele><time>2026-05-02T09:31:50Z</time></trkpt><trkpt lat="40.82099548295771" lon="9.463349694013543"><ele>294.0</ele><time>2026-05-02T09:31:51Z</time></trkpt><trkpt lat="40.8210129378655" lon="9.463450961920518"><ele>294.5</ele><time>2026-05-02T09:31:52Z</time></trkpt><trkpt lat="40.821032967305875" lon="9.463532912841028"><ele>295.0</ele><time>2026-05-02T09:31:53Z</time></trkpt><trkpt lat="40.82102686799053" lon="9.463684740838689"><ele>295.5</ele><time>2026-05-02T09:31:55Z</time></trkpt><trkpt lat="40.8209928405198" lon="9.463763723518168"><ele>296.0</ele><time>2026-05-02T09:31:56Z</time></trkpt><trkpt lat="40.82095250802767" lon="9.4638640144691"><ele>293.83333333333337</ele><time>2026-05-02T09:31:57Z</time></trkpt><trkpt lat="40.82092571794702" lon="9.46398287797954"><ele>291.6666666666667</ele><time>2026-05-02T09:31:58Z</time></trkpt><trkpt lat="40.82092127164949" lon="9.464099740170596"><ele>289.5</ele><time>2026-05-02T09:31:59Z</time></trkpt><trkpt lat="40.82093254093096" lon="9.464211336530992"><ele>287.3333333333333</ele><time>2026-05-02T09:32:00Z</time></trkpt><trkpt lat="40.82094824245539" lon="9.464304793857899"><ele>285.16666666666663</ele><time>2026-05-02T09:32:01Z</time></trkpt><trkpt lat="40.82093701625099" lon="9.464445909522647"><ele>283.0</ele><time>2026-05-02T09:32:03Z</time></trkpt><trkpt lat="40.82089213061598" lon="9.464508743920694"><ele>283.0</ele><time>2026-05-02T09:32:04Z</time></trkpt><trkpt lat="40.82082815604368" lon="9.464582690296155"><ele>283.0</ele><time>2026-05-02T09:32:05Z</time></trkpt><trkpt lat="40.820756279199756" lon="9.464659471970736"><ele>283.0</ele><time>2026-05-02T09:32:06Z</time></trkpt><trkpt lat="40.82068639980584" lon="9.46472806465116"><ele>283.0</ele><time>2026-05-02T09:32:07Z</time></trkpt><trkpt lat="40.820595724206505" lon="9.464785045123538"><ele>283.0</ele><time>2026-05-02T09:32:08Z</time></trkpt><trkpt lat="40.82050938726339" lon="9.46488066909573"><ele>282.75</ele><time>2026-05-02T09:32:09Z</time></trkpt><trkpt lat="40.82039980643121" lon="9.464958133795028"><ele>282.5</ele><time>2026-05-02T09:32:10Z</time></trkpt><trkpt lat="40.82029349754732" lon="9.465033946410566"><ele>282.25</ele><time>2026-05-02T09:32:11Z</time></trkpt><trkpt lat="40.82017400471094" lon="9.465105909883414"><ele>282.0</ele><time>2026-05-02T09:32:12Z</time></trkpt><trkpt lat="40.820042175784685" lon="9.465169509755631"><ele>280.6666666666667</ele><time>2026-05-02T09:32:13Z</time></trkpt><trkpt lat="40.81989745374148" lon="9.465231180204336"><ele>279.33333333333337</ele><time>2026-05-02T09:32:14Z</time></trkpt><trkpt lat="40.81974962238691" lon="9.465281743721356"><ele>278.0</ele><time>2026-05-02T09:32:15Z</time></trkpt><trkpt lat="40.81958719138461" lon="9.465323228087735"><ele>278.0</ele><time>2026-05-02T09:32:16Z</time></trkpt><trkpt lat="40.81941549969348" lon="9.465347800701947"><ele>278.0</ele><time>2026-05-02T09:32:17Z</time></trkpt><trkpt lat="40.819232084855614" lon="9.465369280041235"><ele>278.0</ele><time>2026-05-02T09:32:18Z</time></trkpt><trkpt lat="40.819044648010426" lon="9.465386747562444"><ele>278.0</ele><time>2026-05-02T09:32:19Z</time></trkpt><trkpt lat="40.81885014197386" lon="9.46538528714411"><ele>278.0</ele><time>2026-05-02T09:32:20Z</time></trkpt><trkpt lat="40.81865623438357" lon="9.465403224511734"><ele>278.0</ele><time>2026-05-02T09:32:21Z</time></trkpt><trkpt lat="40.81846200191192" lon="9.46541848212208"><ele>279.0</ele><time>2026-05-02T09:32:22Z</time></trkpt><trkpt lat="40.818274098300996" lon="9.465433242578893"><ele>280.0</ele><time>2026-05-02T09:32:23Z</time></trkpt><trkpt lat="40.8180898583258" lon="9.46545051079384"><ele>281.0</ele><time>2026-05-02T09:32:24Z</time></trkpt><trkpt lat="40.81792117624297" lon="9.465457418346825"><ele>281.0</ele><time>2026-05-02T09:32:25Z</time></trkpt><trkpt lat="40.817759637266" lon="9.465442108474367"><ele>281.0</ele><time>2026-05-02T09:32:26Z</time></trkpt><trkpt lat="40.81759288840845" lon="9.46540804304303"><ele>281.0</ele><time>2026-05-02T09:32:27Z</time></trkpt><trkpt lat="40.817425875972106" lon="9.465369207975224"><ele>282.6666666666667</ele><time>2026-05-02T09:32:28Z</time></trkpt><trkpt lat="40.817256907297214" lon="9.465329744168338"><ele>284.3333333333333</ele><time>2026-05-02T09:32:29Z</time></trkpt><trkpt lat="40.81709052469934" lon="9.465290884227755"><ele>286.0</ele><time>2026-05-02T09:32:30Z</time></trkpt><trkpt lat="40.816929962510656" lon="9.465252441843273"><ele>286.0</ele><time>2026-05-02T09:32:31Z</time></trkpt><trkpt lat="40.8167632954673" lon="9.465213294791774"><ele>286.0</ele><time>2026-05-02T09:32:32Z</time></trkpt><trkpt lat="40.816598071189965" lon="9.465171556431956"><ele>286.0</ele><time>2026-05-02T09:32:33Z</time></trkpt><trkpt lat="40.816432068602374" lon="9.465125957796376"><ele>286.0</ele><time>2026-05-02T09:32:34Z</time></trkpt><trkpt lat="40.816266962592785" lon="9.465078571523275"><ele>286.0</ele><time>2026-05-02T09:32:35Z</time></trkpt><trkpt lat="40.81610259833003" lon="9.465024404280589"><ele>286.0</ele><time>2026-05-02T09:32:36Z</time></trkpt><trkpt lat="40.81594286720712" lon="9.464944362139361"><ele>286.66666666666663</ele><time>2026-05-02T09:32:37Z</time></trkpt><trkpt lat="40.81578087898441" lon="9.464846667513644"><ele>287.3333333333333</ele><time>2026-05-02T09:32:38Z</time></trkpt><trkpt lat="40.815627959825335" lon="9.464742344828505"><ele>288.0</ele><time>2026-05-02T09:32:39Z</time></trkpt><trkpt lat="40.81548018047744" lon="9.464632175712891"><ele>287.6666666666667</ele><time>2026-05-02T09:32:40Z</time></trkpt><trkpt lat="40.81533538132382" lon="9.464515782230698"><ele>287.33333333333337</ele><time>2026-05-02T09:32:41Z</time></trkpt><trkpt lat="40.81519612391756" lon="9.464392586721399"><ele>287.0</ele><time>2026-05-02T09:32:42Z</time></trkpt><trkpt lat="40.81505831934002" lon="9.464286991728503"><ele>287.0</ele><time>2026-05-02T09:32:43Z</time></trkpt><trkpt lat="40.8149222183972" lon="9.464162342995934"><ele>287.0</ele><time>2026-05-02T09:32:44Z</time></trkpt><trkpt lat="40.81480363466948" lon="9.46404338572298"><ele>287.0</ele><time>2026-05-02T09:32:45Z</time></trkpt><trkpt lat="40.81468213656315" lon="9.463935013863448"><ele>287.0</ele><time>2026-05-02T09:32:46Z</time></trkpt><trkpt lat="40.814559661800864" lon="9.463833573381194"><ele>287.0</ele><time>2026-05-02T09:32:47Z</time></trkpt><trkpt lat="40.8144324613702" lon="9.463761990792243"><ele>287.0</ele><time>2026-05-02T09:32:48Z</time></trkpt><trkpt lat="40.81406657885219" lon="9.463630630405733"><ele>286.6666666666667</ele><time>2026-05-02T09:32:49Z</time></trkpt><trkpt lat="40.813904778274086" lon="9.463540957956946"><ele>286.3333333333333</ele><time>2026-05-02T09:32:50Z</time></trkpt><trkpt lat="40.813745654310345" lon="9.463468503172889"><ele>286.0</ele><time>2026-05-02T09:32:51Z</time></trkpt><trkpt lat="40.81359947437282" lon="9.463398881661464"><ele>286.5</ele><time>2026-05-02T09:32:52Z</time></trkpt><trkpt lat="40.81346761787084" lon="9.46333019753736"><ele>287.0</ele><time>2026-05-02T09:32:53Z</time></trkpt><trkpt lat="40.81334761772975" lon="9.463251481818578"><ele>287.5</ele><time>2026-05-02T09:32:54Z</time></trkpt><trkpt lat="40.81324057055804" lon="9.46313928423569"><ele>288.0</ele><time>2026-05-02T09:32:55Z</time></trkpt><trkpt lat="40.813140471557844" lon="9.463002442458539"><ele>286.3333333333333</ele><time>2026-05-02T09:32:56Z</time></trkpt><trkpt lat="40.8130429849461" lon="9.462838501938437"><ele>284.66666666666663</ele><time>2026-05-02T09:32:57Z</time></trkpt><trkpt lat="40.8129442449268" lon="9.462648967606006"><ele>283.0</ele><time>2026-05-02T09:32:58Z</time></trkpt><trkpt lat="40.812839042866564" lon="9.462443034293576"><ele>283.0</ele><time>2026-05-02T09:32:59Z</time></trkpt><trkpt lat="40.81273070375385" lon="9.462231105449693"><ele>283.0</ele><time>2026-05-02T09:33:00Z</time></trkpt><trkpt lat="40.812618266165366" lon="9.462011484237635"><ele>283.0</ele><time>2026-05-02T09:33:01Z</time></trkpt><trkpt lat="40.812503985677026" lon="9.461788288831118"><ele>281.3333333333333</ele><time>2026-05-02T09:33:02Z</time></trkpt><trkpt lat="40.81238868431105" lon="9.461563099600534"><ele>279.6666666666667</ele><time>2026-05-02T09:33:03Z</time></trkpt><trkpt lat="40.81227148500191" lon="9.461334203593857"><ele>278.0</ele><time>2026-05-02T09:33:04Z</time></trkpt><trkpt lat="40.81215478993049" lon="9.461106797860626"><ele>277.6666666666667</ele><time>2026-05-02T09:33:05Z</time></trkpt><trkpt lat="40.81203772353073" lon="9.460878905173594"><ele>277.3333333333333</ele><time>2026-05-02T09:33:06Z</time></trkpt><trkpt lat="40.81192101430023" lon="9.460651707790438"><ele>277.0</ele><time>2026-05-02T09:33:07Z</time></trkpt><trkpt lat="40.81180061069664" lon="9.460416971892004"><ele>282.5</ele><time>2026-05-02T09:33:08Z</time></trkpt><trkpt lat="40.81166950873581" lon="9.460161253480223"><ele>288.0</ele><time>2026-05-02T09:33:09Z</time></trkpt><trkpt lat="40.81153546404367" lon="9.45989979484054"><ele>288.0</ele><time>2026-05-02T09:33:10Z</time></trkpt><trkpt lat="40.81140919960361" lon="9.459653511487293"><ele>288.0</ele><time>2026-05-02T09:33:11Z</time></trkpt><trkpt lat="40.811294803807" lon="9.4594298113248"><ele>288.0</ele><time>2026-05-02T09:33:12Z</time></trkpt><trkpt lat="40.81118456916755" lon="9.459214021518356"><ele>290.3333333333333</ele><time>2026-05-02T09:33:13Z</time></trkpt><trkpt lat="40.811075394429515" lon="9.458998573958006"><ele>292.66666666666663</ele><time>2026-05-02T09:33:14Z</time></trkpt><trkpt lat="40.81097089834268" lon="9.458792359551394"><ele>295.0</ele><time>2026-05-02T09:33:15Z</time></trkpt><trkpt lat="40.810862924555614" lon="9.458584489904887"><ele>295.66666666666663</ele><time>2026-05-02T09:33:16Z</time></trkpt><trkpt lat="40.81074696441869" lon="9.458379424482487"><ele>296.3333333333333</ele><time>2026-05-02T09:33:17Z</time></trkpt><trkpt lat="40.81061926708887" lon="9.458171555098943"><ele>297.0</ele><time>2026-05-02T09:33:18Z</time></trkpt><trkpt lat="40.81047140384191" lon="9.457965623922204"><ele>297.0</ele><time>2026-05-02T09:33:19Z</time></trkpt><trkpt lat="40.81031835198628" lon="9.457776332927402"><ele>297.0</ele><time>2026-05-02T09:33:20Z</time></trkpt><trkpt lat="40.810153926734856" lon="9.45758760943535"><ele>297.0</ele><time>2026-05-02T09:33:21Z</time></trkpt><trkpt lat="40.809983629479" lon="9.457395885701189"><ele>297.0</ele><time>2026-05-02T09:33:22Z</time></trkpt><trkpt lat="40.8098135910614" lon="9.457203958324158"><ele>297.0</ele><time>2026-05-02T09:33:23Z</time></trkpt><trkpt lat="40.80964577804065" lon="9.457014542819065"><ele>297.0</ele><time>2026-05-02T09:33:24Z</time></trkpt><trkpt lat="40.809479248359416" lon="9.456826575857235"><ele>307.0</ele><time>2026-05-02T09:33:25Z</time></trkpt><trkpt lat="40.77726596230294" lon="9.442899145626495"><ele>307.0</ele><time>2026-05-02T09:39:06.999Z</time></trkpt><trkpt lat="40.77717740984876" lon="9.442758003559282"><ele>307.0</ele><time>2026-05-02T09:39:07.999Z</time></trkpt><trkpt lat="40.777091780236724" lon="9.44262152012069"><ele>307.0</ele><time>2026-05-02T09:39:08.999Z</time></trkpt><trkpt lat="40.777004623686935" lon="9.442482602923405"><ele>307.0</ele><time>2026-05-02T09:39:09.999Z</time></trkpt><trkpt lat="40.77691943011894" lon="9.442346814484257"><ele>309.0</ele><time>2026-05-02T09:39:10.999Z</time></trkpt><trkpt lat="40.776836803968465" lon="9.442213317158606"><ele>311.0</ele><time>2026-05-02T09:39:11.999Z</time></trkpt><trkpt lat="40.77675983809356" lon="9.442082580947087"><ele>313.0</ele><time>2026-05-02T09:39:12.999Z</time></trkpt><trkpt lat="40.776690380328446" lon="9.44196007531024"><ele>315.0</ele><time>2026-05-02T09:39:13.999Z</time></trkpt><trkpt lat="40.77660500840398" lon="9.441834689830817"><ele>315.0</ele><time>2026-05-02T09:39:14.999Z</time></trkpt><trkpt lat="40.776540870467805" lon="9.44168984408154"><ele>315.0</ele><time>2026-05-02T09:39:15.999Z</time></trkpt><trkpt lat="40.77647333224989" lon="9.4415434006539"><ele>315.0</ele><time>2026-05-02T09:39:16.999Z</time></trkpt><trkpt lat="40.77641543345839" lon="9.441387871154964"><ele>315.0</ele><time>2026-05-02T09:39:17.999Z</time></trkpt><trkpt lat="40.77635579441944" lon="9.441236938453871"><ele>315.0</ele><time>2026-05-02T09:39:18.999Z</time></trkpt><trkpt lat="40.7762968166309" lon="9.441093340489614"><ele>315.0</ele><time>2026-05-02T09:39:19.999Z</time></trkpt><trkpt lat="40.776239882599896" lon="9.440942682619768"><ele>315.0</ele><time>2026-05-02T09:39:20.999Z</time></trkpt><trkpt lat="40.77614798111035" lon="9.440801953238262"><ele>315.0</ele><time>2026-05-02T09:39:21.999Z</time></trkpt><trkpt lat="40.776054213005295" lon="9.440667538840135"><ele>321.6666666666667</ele><time>2026-05-02T09:39:22.999Z</time></trkpt><trkpt lat="40.77595641037107" lon="9.4405409387803"><ele>328.33333333333337</ele><time>2026-05-02T09:39:23.999Z</time></trkpt><trkpt lat="40.77581036198255" lon="9.44021048081848"><ele>335.0</ele><time>2026-05-02T09:39:25.999Z</time></trkpt><trkpt lat="40.7757586107573" lon="9.440035948848696"><ele>335.0</ele><time>2026-05-02T09:39:26.999Z</time></trkpt><trkpt lat="40.77571385863588" lon="9.439863558724797"><ele>335.0</ele><time>2026-05-02T09:39:27.999Z</time></trkpt><trkpt lat="40.775674519638365" lon="9.439699216799523"><ele>335.0</ele><time>2026-05-02T09:39:28.999Z</time></trkpt><trkpt lat="40.77563883536136" lon="9.439546364257936"><ele>335.0</ele><time>2026-05-02T09:39:29.999Z</time></trkpt><trkpt lat="40.775599004938066" lon="9.43940254398812"><ele>334.25</ele><time>2026-05-02T09:39:30.999Z</time></trkpt><trkpt lat="40.7755609809559" lon="9.43925836737151"><ele>333.5</ele><time>2026-05-02T09:39:31.999Z</time></trkpt><trkpt lat="40.77551460872157" lon="9.439104673601559"><ele>332.75</ele><time>2026-05-02T09:39:32.999Z</time></trkpt><trkpt lat="40.775462279928675" lon="9.43894883609217"><ele>332.0</ele><time>2026-05-02T09:39:33.999Z</time></trkpt><trkpt lat="40.77539438050015" lon="9.43877875254942"><ele>332.0</ele><time>2026-05-02T09:39:34.999Z</time></trkpt><trkpt lat="40.77533088874773" lon="9.438602277256209"><ele>332.0</ele><time>2026-05-02T09:39:35.999Z</time></trkpt><trkpt lat="40.775249359407205" lon="9.438442302139572"><ele>332.0</ele><time>2026-05-02T09:39:36.999Z</time></trkpt><trkpt lat="40.7751636852291" lon="9.438271224803165"><ele>332.0</ele><time>2026-05-02T09:39:37.999Z</time></trkpt><trkpt lat="40.7750748538948" lon="9.43809699727224"><ele>338.33333333333337</ele><time>2026-05-02T09:39:38.999Z</time></trkpt><trkpt lat="40.77500353783364" lon="9.43788795343847"><ele>344.6666666666667</ele><time>2026-05-02T09:39:39.999Z</time></trkpt><trkpt lat="40.774939347972655" lon="9.437673236746031"><ele>351.0</ele><time>2026-05-02T09:39:41Z</time></trkpt><trkpt lat="40.77488850185302" lon="9.437478010191603"><ele>351.0</ele><time>2026-05-02T09:39:42Z</time></trkpt><trkpt lat="40.77485516776037" lon="9.43726970704044"><ele>351.0</ele><time>2026-05-02T09:39:43Z</time></trkpt><trkpt lat="40.77480845909472" lon="9.437066034130094"><ele>351.0</ele><time>2026-05-02T09:39:44Z</time></trkpt><trkpt lat="40.7747566477308" lon="9.436899372489416"><ele>350.6666666666667</ele><time>2026-05-02T09:39:45Z</time></trkpt><trkpt lat="40.7747151017316" lon="9.436581962963183"><ele>350.33333333333337</ele><time>2026-05-02T09:39:47Z</time></trkpt><trkpt lat="40.77470395504746" lon="9.436420050371963"><ele>350.0</ele><time>2026-05-02T09:39:48Z</time></trkpt><trkpt lat="40.77469522850071" lon="9.436258473475982"><ele>352.75</ele><time>2026-05-02T09:39:49Z</time></trkpt><trkpt lat="40.77469000598308" lon="9.436099076653079"><ele>355.5</ele><time>2026-05-02T09:39:50Z</time></trkpt><trkpt lat="40.77468367840474" lon="9.435950456259258"><ele>358.25</ele><time>2026-05-02T09:39:51Z</time></trkpt><trkpt lat="40.774689512401245" lon="9.435782394842587"><ele>361.0</ele><time>2026-05-02T09:39:52Z</time></trkpt><trkpt lat="40.77467021266431" lon="9.435626766859349"><ele>361.0</ele><time>2026-05-02T09:39:53Z</time></trkpt><trkpt lat="40.7746609372701" lon="9.43548401554929"><ele>361.0</ele><time>2026-05-02T09:39:54Z</time></trkpt><trkpt lat="40.77464260800931" lon="9.435347425753662"><ele>361.0</ele><time>2026-05-02T09:39:55Z</time></trkpt><trkpt lat="40.77459153233873" lon="9.435239474017978"><ele>361.0</ele><time>2026-05-02T09:39:56Z</time></trkpt><trkpt lat="40.77452703691778" lon="9.435128792564564"><ele>361.0</ele><time>2026-05-02T09:39:57Z</time></trkpt><trkpt lat="40.77441337923694" lon="9.435064161975086"><ele>368.5</ele><time>2026-05-02T09:39:58Z</time></trkpt><trkpt lat="40.774284021588166" lon="9.435049191068268"><ele>376.0</ele><time>2026-05-02T09:39:59Z</time></trkpt><trkpt lat="40.77416299354559" lon="9.435040748484889"><ele>383.5</ele><time>2026-05-02T09:40:00Z</time></trkpt><trkpt lat="40.774050446937395" lon="9.435005740462472"><ele>391.0</ele><time>2026-05-02T09:40:01Z</time></trkpt><trkpt lat="40.77393521684818" lon="9.434991279138192"><ele>391.0</ele><time>2026-05-02T09:40:02Z</time></trkpt><trkpt lat="40.773816567397425" lon="9.434972873946283"><ele>391.0</ele><time>2026-05-02T09:40:03Z</time></trkpt><trkpt lat="40.77369500736234" lon="9.434910341604631"><ele>391.0</ele><time>2026-05-02T09:40:04Z</time></trkpt><trkpt lat="40.77357117250577" lon="9.434829510421956"><ele>391.0</ele><time>2026-05-02T09:40:05Z</time></trkpt><trkpt lat="40.773441518675234" lon="9.434728610317602"><ele>400.5</ele><time>2026-05-02T09:40:06Z</time></trkpt><trkpt lat="40.7731950348235" lon="9.434443374427604"><ele>410.0</ele><time>2026-05-02T09:40:08Z</time></trkpt><trkpt lat="40.773054129128305" lon="9.434306515860284"><ele>410.0</ele><time>2026-05-02T09:40:09Z</time></trkpt><trkpt lat="40.772914126388166" lon="9.43417668081592"><ele>410.0</ele><time>2026-05-02T09:40:10Z</time></trkpt><trkpt lat="40.77277786478986" lon="9.434045453152004"><ele>410.0</ele><time>2026-05-02T09:40:11Z</time></trkpt><trkpt lat="40.77264072991949" lon="9.433925644840684"><ele>416.66666666666663</ele><time>2026-05-02T09:40:12Z</time></trkpt><trkpt lat="40.772532881978954" lon="9.43377286395039"><ele>423.33333333333337</ele><time>2026-05-02T09:40:13Z</time></trkpt><trkpt lat="40.77241498598225" lon="9.433660972843546"><ele>430.0</ele><time>2026-05-02T09:40:14Z</time></trkpt><trkpt lat="40.77231140540321" lon="9.433516551648186"><ele>430.0</ele><time>2026-05-02T09:40:15Z</time></trkpt><trkpt lat="40.77221191833311" lon="9.433355469630197"><ele>430.0</ele><time>2026-05-02T09:40:16Z</time></trkpt><trkpt lat="40.772111932517234" lon="9.433202203828131"><ele>430.0</ele><time>2026-05-02T09:40:17Z</time></trkpt><trkpt lat="40.77201929791915" lon="9.433067014035048"><ele>430.0</ele><time>2026-05-02T09:40:18Z</time></trkpt><trkpt lat="40.77191168989601" lon="9.432939684775729"><ele>435.33333333333337</ele><time>2026-05-02T09:40:19Z</time></trkpt><trkpt lat="40.77178642929241" lon="9.432814659028006"><ele>440.66666666666663</ele><time>2026-05-02T09:40:20Z</time></trkpt><trkpt lat="40.771664577980594" lon="9.432679780737065"><ele>446.0</ele><time>2026-05-02T09:40:21Z</time></trkpt><trkpt lat="40.77152462450912" lon="9.432567790843311"><ele>446.0</ele><time>2026-05-02T09:40:22Z</time></trkpt><trkpt lat="40.77137422210709" lon="9.432459489779315"><ele>446.0</ele><time>2026-05-02T09:40:23Z</time></trkpt><trkpt lat="40.771240242932635" lon="9.432372242138472"><ele>446.0</ele><time>2026-05-02T09:40:24Z</time></trkpt><trkpt lat="40.7711298433579" lon="9.43229852408801"><ele>446.0</ele><time>2026-05-02T09:40:25Z</time></trkpt><trkpt lat="40.7710425754789" lon="9.432250221392186"><ele>451.25</ele><time>2026-05-02T09:40:26Z</time></trkpt><trkpt lat="40.77099872439054" lon="9.432157913650608"><ele>456.5</ele><time>2026-05-02T09:40:27Z</time></trkpt><trkpt lat="40.770973333907506" lon="9.431888182084885"><ele>461.75</ele><time>2026-05-02T09:40:29Z</time></trkpt><trkpt lat="40.77095107222264" lon="9.431732439044294"><ele>467.0</ele><time>2026-05-02T09:40:30Z</time></trkpt><trkpt lat="40.77091535969065" lon="9.431577867181502"><ele>467.5</ele><time>2026-05-02T09:40:31Z</time></trkpt><trkpt lat="40.770866075570076" lon="9.431399390501984"><ele>468.0</ele><time>2026-05-02T09:40:32Z</time></trkpt><trkpt lat="40.770834668116976" lon="9.431231208396616"><ele>468.5</ele><time>2026-05-02T09:40:33Z</time></trkpt><trkpt lat="40.770782340374126" lon="9.431071348353244"><ele>469.0</ele><time>2026-05-02T09:40:34Z</time></trkpt><trkpt lat="40.770709375633075" lon="9.430926877548282"><ele>470.0</ele><time>2026-05-02T09:40:35Z</time></trkpt><trkpt lat="40.770614622352745" lon="9.430803845185823"><ele>471.0</ele><time>2026-05-02T09:40:36Z</time></trkpt><trkpt lat="40.77050622659775" lon="9.430709551228723"><ele>472.0</ele><time>2026-05-02T09:40:37Z</time></trkpt><trkpt lat="40.7703910546078" lon="9.430633131646214"><ele>473.0</ele><time>2026-05-02T09:40:38Z</time></trkpt><trkpt lat="40.77027302625343" lon="9.43056706882511"><ele>477.59999999999997</ele><time>2026-05-02T09:40:39Z</time></trkpt><trkpt lat="40.77015474893957" lon="9.430515957034949"><ele>482.19999999999993</ele><time>2026-05-02T09:40:40Z</time></trkpt><trkpt lat="40.770044791410434" lon="9.430473158378797"><ele>486.8</ele><time>2026-05-02T09:40:41Z</time></trkpt><trkpt lat="40.769968277362" lon="9.430441644188749"><ele>491.4</ele><time>2026-05-02T09:40:42Z</time></trkpt><trkpt lat="40.76987890178085" lon="9.43033304469017"><ele>496.0</ele><time>2026-05-02T09:40:44Z</time></trkpt><trkpt lat="40.769885652505025" lon="9.430217340141843"><ele>496.5</ele><time>2026-05-02T09:40:45Z</time></trkpt><trkpt lat="40.76992945620242" lon="9.430094342858467"><ele>497.0</ele><time>2026-05-02T09:40:46Z</time></trkpt><trkpt lat="40.76998307707139" lon="9.429979794384822"><ele>497.5</ele><time>2026-05-02T09:40:47Z</time></trkpt><trkpt lat="40.77002579164617" lon="9.42983275933363"><ele>498.0</ele><time>2026-05-02T09:40:48Z</time></trkpt><trkpt lat="40.770070401334976" lon="9.429498029212768"><ele>499.2</ele><time>2026-05-02T09:40:50Z</time></trkpt><trkpt lat="40.770078806743385" lon="9.429383171108958"><ele>500.4</ele><time>2026-05-02T09:40:51Z</time></trkpt><trkpt lat="40.77009196348903" lon="9.429270261875576"><ele>501.59999999999997</ele><time>2026-05-02T09:40:52Z</time></trkpt><trkpt lat="40.77013472523467" lon="9.429169848723447"><ele>502.79999999999995</ele><time>2026-05-02T09:40:53Z</time></trkpt><trkpt lat="40.77020252994748" lon="9.42906392896687"><ele>504.0</ele><time>2026-05-02T09:40:54Z</time></trkpt><trkpt lat="40.770272182443385" lon="9.428940045962644"><ele>504.0</ele><time>2026-05-02T09:40:55Z</time></trkpt><trkpt lat="40.77031126012521" lon="9.42884277844889"><ele>504.0</ele><time>2026-05-02T09:40:56Z</time></trkpt><trkpt lat="40.770319998818096" lon="9.428753193480775"><ele>504.0</ele><time>2026-05-02T09:40:57Z</time></trkpt><trkpt lat="40.77028638713514" lon="9.428589089375269"><ele>504.0</ele><time>2026-05-02T09:40:59Z</time></trkpt><trkpt lat="40.770215587181134" lon="9.428546943642859"><ele>504.0</ele><time>2026-05-02T09:41:00Z</time></trkpt><trkpt lat="40.77011758699705" lon="9.428573986367152"><ele>506.0</ele><time>2026-05-02T09:41:01Z</time></trkpt><trkpt lat="40.77002667898588" lon="9.428655576945951"><ele>508.0</ele><time>2026-05-02T09:41:02Z</time></trkpt><trkpt lat="40.769950484816924" lon="9.42873839231126"><ele>510.0</ele><time>2026-05-02T09:41:03Z</time></trkpt><trkpt lat="40.76987632467923" lon="9.428824403560682"><ele>512.0</ele><time>2026-05-02T09:41:04Z</time></trkpt><trkpt lat="40.76978749369631" lon="9.42893386126637"><ele>514.0</ele><time>2026-05-02T09:41:05Z</time></trkpt><trkpt lat="40.76972904347988" lon="9.42901103995179"><ele>514.0</ele><time>2026-05-02T09:41:06Z</time></trkpt><trkpt lat="40.769673708045495" lon="9.429118432025563"><ele>514.0</ele><time>2026-05-02T09:41:07Z</time></trkpt><trkpt lat="40.769637376635856" lon="9.42927727797"><ele>514.0</ele><time>2026-05-02T09:41:08Z</time></trkpt><trkpt lat="40.769576252753424" lon="9.42939649312465"><ele>514.0</ele><time>2026-05-02T09:41:09Z</time></trkpt><trkpt lat="40.76945509783069" lon="9.429580253115894"><ele>514.0</ele><time>2026-05-02T09:41:10.998Z</time></trkpt><trkpt lat="40.76936542682123" lon="9.42963465765022"><ele>514.0</ele><time>2026-05-02T09:41:11.998Z</time></trkpt><trkpt lat="40.76926342802796" lon="9.429689229594503"><ele>514.0</ele><time>2026-05-02T09:41:12.998Z</time></trkpt><trkpt lat="40.76915517809469" lon="9.429729105205336"><ele>514.0</ele><time>2026-05-02T09:41:13.998Z</time></trkpt><trkpt lat="40.76904631962877" lon="9.429741779028705"><ele>514.0</ele><time>2026-05-02T09:41:14.998Z</time></trkpt><trkpt lat="40.768937030126054" lon="9.429762936327727"><ele>515.8</ele><time>2026-05-02T09:41:15.998Z</time></trkpt><trkpt lat="40.768836486455065" lon="9.429751788934627"><ele>517.5999999999999</ele><time>2026-05-02T09:41:16.998Z</time></trkpt><trkpt lat="40.76874589372863" lon="9.42969899407146"><ele>519.4</ele><time>2026-05-02T09:41:17.998Z</time></trkpt><trkpt lat="40.76864784599851" lon="9.429666828961166"><ele>521.1999999999999</ele><time>2026-05-02T09:41:18.998Z</time></trkpt><trkpt lat="40.76855505837707" lon="9.429592296961596"><ele>523.0</ele><time>2026-05-02T09:41:19.998Z</time></trkpt><trkpt lat="40.768461746368715" lon="9.429502997274035"><ele>526.0</ele><time>2026-05-02T09:41:20.998Z</time></trkpt><trkpt lat="40.76835452261002" lon="9.429417352194077"><ele>529.0</ele><time>2026-05-02T09:41:21.998Z</time></trkpt><trkpt lat="40.768241929841466" lon="9.42932763336613"><ele>532.0</ele><time>2026-05-02T09:41:22.998Z</time></trkpt><trkpt lat="40.76813088837993" lon="9.429230351421293"><ele>535.0</ele><time>2026-05-02T09:41:23.998Z</time></trkpt><trkpt lat="40.7680139008733" lon="9.429125032817856"><ele>535.0</ele><time>2026-05-02T09:41:24.999Z</time></trkpt><trkpt lat="40.76788977393206" lon="9.429013286917012"><ele>535.0</ele><time>2026-05-02T09:41:25.999Z</time></trkpt><trkpt lat="40.76777699549001" lon="9.428911757546352"><ele>535.0</ele><time>2026-05-02T09:41:26.999Z</time></trkpt><trkpt lat="40.76767510977037" lon="9.428820034411807"><ele>535.0</ele><time>2026-05-02T09:41:27.999Z</time></trkpt><trkpt lat="40.76757644628783" lon="9.428731213391268"><ele>533.5</ele><time>2026-05-02T09:41:28.999Z</time></trkpt><trkpt lat="40.76748217689294" lon="9.428643624144284"><ele>532.0</ele><time>2026-05-02T09:41:29.999Z</time></trkpt><trkpt lat="40.76730416073402" lon="9.428473393909215"><ele>530.5</ele><time>2026-05-02T09:41:31.999Z</time></trkpt><trkpt lat="40.76720690053272" lon="9.428400201965907"><ele>529.0</ele><time>2026-05-02T09:41:32.999Z</time></trkpt><trkpt lat="40.76712309296248" lon="9.42830864954146"><ele>529.0</ele><time>2026-05-02T09:41:33.999Z</time></trkpt><trkpt lat="40.76704192478797" lon="9.428224918574177"><ele>529.0</ele><time>2026-05-02T09:41:34.999Z</time></trkpt><trkpt lat="40.76695451915657" lon="9.428140744639107"><ele>529.0</ele><time>2026-05-02T09:41:35.999Z</time></trkpt><trkpt lat="40.76686467401196" lon="9.428056355293398"><ele>529.0</ele><time>2026-05-02T09:41:36.999Z</time></trkpt><trkpt lat="40.76677427951677" lon="9.427970002639308"><ele>529.0</ele><time>2026-05-02T09:41:37.999Z</time></trkpt><trkpt lat="40.76668009827865" lon="9.427882326000937"><ele>530.0</ele><time>2026-05-02T09:41:38.999Z</time></trkpt><trkpt lat="40.76658791138167" lon="9.427785680825487"><ele>531.0</ele><time>2026-05-02T09:41:39.999Z</time></trkpt><trkpt lat="40.7664912828879" lon="9.427692766811534"><ele>532.0</ele><time>2026-05-02T09:41:40.999Z</time></trkpt><trkpt lat="40.76639839969708" lon="9.427598451892376"><ele>533.0</ele><time>2026-05-02T09:41:41.999Z</time></trkpt><trkpt lat="40.766307114281986" lon="9.42751307047789"><ele>533.0</ele><time>2026-05-02T09:41:42.999Z</time></trkpt><trkpt lat="40.76623434022222" lon="9.427439138178872"><ele>533.0</ele><time>2026-05-02T09:41:43.999Z</time></trkpt><trkpt lat="40.76617977108447" lon="9.427386859748323"><ele>533.0</ele><time>2026-05-02T09:41:44.999Z</time></trkpt><trkpt lat="40.7661085641196" lon="9.427326416659962"><ele>533.0</ele><time>2026-05-02T09:41:47.999Z</time></trkpt><trkpt lat="40.76605247312924" lon="9.427284880882949"><ele>533.0</ele><time>2026-05-02T09:42:46Z</time></trkpt><trkpt lat="40.765998224010296" lon="9.42731024406385"><ele>533.0</ele><time>2026-05-02T09:44:40Z</time></trkpt><trkpt lat="40.76589660090367" lon="9.427225903869324"><ele>533.1999999999999</ele><time>2026-05-02T09:44:42Z</time></trkpt><trkpt lat="40.76579329206762" lon="9.427102408785283"><ele>533.4</ele><time>2026-05-02T09:44:44Z</time></trkpt><trkpt lat="40.76571491439381" lon="9.427054635436141"><ele>533.5999999999999</ele><time>2026-05-02T09:44:45Z</time></trkpt><trkpt lat="40.765641777321235" lon="9.427015042916386"><ele>533.8</ele><time>2026-05-02T09:44:46Z</time></trkpt><trkpt lat="40.76557248199908" lon="9.426983270561305"><ele>534.0</ele><time>2026-05-02T09:44:47Z</time></trkpt><trkpt lat="40.76550091564374" lon="9.426955943461742"><ele>534.0</ele><time>2026-05-02T09:44:48Z</time></trkpt><trkpt lat="40.76541918137342" lon="9.426947250327684"><ele>534.0</ele><time>2026-05-02T09:44:49Z</time></trkpt><trkpt lat="40.76533018349542" lon="9.426961496047033"><ele>534.0</ele><time>2026-05-02T09:44:50Z</time></trkpt><trkpt lat="40.76524873584003" lon="9.427057398749987"><ele>534.0</ele><time>2026-05-02T09:44:51Z</time></trkpt><trkpt lat="40.765176805025796" lon="9.427145843461407"><ele>534.0</ele><time>2026-05-02T09:44:52Z</time></trkpt><trkpt lat="40.76510992313115" lon="9.427239502328371"><ele>532.3333333333334</ele><time>2026-05-02T09:44:53Z</time></trkpt><trkpt lat="40.76503551673133" lon="9.427308030602607"><ele>530.6666666666666</ele><time>2026-05-02T09:44:54Z</time></trkpt><trkpt lat="40.764967628371885" lon="9.42738064607904"><ele>529.0</ele><time>2026-05-02T09:44:55Z</time></trkpt><trkpt lat="40.76489654124988" lon="9.427442568800787"><ele>527.3333333333333</ele><time>2026-05-02T09:44:56Z</time></trkpt><trkpt lat="40.76482145507135" lon="9.427498516935437"><ele>525.6666666666666</ele><time>2026-05-02T09:44:57Z</time></trkpt><trkpt lat="40.76473567593949" lon="9.42755276315962"><ele>524.0</ele><time>2026-05-02T09:44:58Z</time></trkpt><trkpt lat="40.76464000533087" lon="9.427598346613944"><ele>524.0</ele><time>2026-05-02T09:44:59Z</time></trkpt><trkpt lat="40.76453810163458" lon="9.42763799969917"><ele>524.0</ele><time>2026-05-02T09:45:00Z</time></trkpt><trkpt lat="40.764440236839576" lon="9.427667315736795"><ele>524.0</ele><time>2026-05-02T09:45:01Z</time></trkpt><trkpt lat="40.764335923495416" lon="9.427692573196397"><ele>524.0</ele><time>2026-05-02T09:45:02Z</time></trkpt><trkpt lat="40.76423450291317" lon="9.427714176618895"><ele>524.0</ele><time>2026-05-02T09:45:03Z</time></trkpt><trkpt lat="40.76413374833137" lon="9.427718677633187"><ele>523.0</ele><time>2026-05-02T09:45:04Z</time></trkpt><trkpt lat="40.76402356993188" lon="9.427693955825493"><ele>522.0</ele><time>2026-05-02T09:45:05Z</time></trkpt><trkpt lat="40.763907390317705" lon="9.427654624665546"><ele>521.0</ele><time>2026-05-02T09:45:06Z</time></trkpt><trkpt lat="40.76378501888537" lon="9.42761562684285"><ele>520.0</ele><time>2026-05-02T09:45:07Z</time></trkpt><trkpt lat="40.76364389498964" lon="9.427599619794092"><ele>519.5</ele><time>2026-05-02T09:45:08Z</time></trkpt><trkpt lat="40.76350347180889" lon="9.427619824900361"><ele>519.0</ele><time>2026-05-02T09:45:09Z</time></trkpt><trkpt lat="40.763373539144105" lon="9.427669284014849"><ele>518.5</ele><time>2026-05-02T09:45:10Z</time></trkpt><trkpt lat="40.763249488596614" lon="9.427729242883824"><ele>518.0</ele><time>2026-05-02T09:45:11Z</time></trkpt><trkpt lat="40.76313787222662" lon="9.427769617899196"><ele>518.0</ele><time>2026-05-02T09:45:12Z</time></trkpt><trkpt lat="40.76302351857074" lon="9.427803235631991"><ele>518.0</ele><time>2026-05-02T09:45:13Z</time></trkpt><trkpt lat="40.76290110426063" lon="9.427836190554624"><ele>518.0</ele><time>2026-05-02T09:45:14Z</time></trkpt><trkpt lat="40.76277260963574" lon="9.427861493828898"><ele>518.0</ele><time>2026-05-02T09:45:15Z</time></trkpt><trkpt lat="40.76264001982215" lon="9.427871406642737"><ele>519.5</ele><time>2026-05-02T09:45:16Z</time></trkpt><trkpt lat="40.76250083177907" lon="9.427870904643148"><ele>521.0</ele><time>2026-05-02T09:45:17Z</time></trkpt><trkpt lat="40.76236686881214" lon="9.427870474663589"><ele>522.5</ele><time>2026-05-02T09:45:18Z</time></trkpt><trkpt lat="40.76224271790631" lon="9.427874456068214"><ele>524.0</ele><time>2026-05-02T09:45:19Z</time></trkpt><trkpt lat="40.76211662623411" lon="9.427872438207926"><ele>524.0</ele><time>2026-05-02T09:45:20Z</time></trkpt><trkpt lat="40.76198682012674" lon="9.427862815278791"><ele>524.0</ele><time>2026-05-02T09:45:21Z</time></trkpt><trkpt lat="40.76186841680143" lon="9.42783750633066"><ele>524.0</ele><time>2026-05-02T09:45:21.995Z</time></trkpt><trkpt lat="40.76176082346738" lon="9.427801916691877"><ele>524.0</ele><time>2026-05-02T09:45:22.995Z</time></trkpt><trkpt lat="40.76165827002795" lon="9.427761535352763"><ele>524.2</ele><time>2026-05-02T09:45:23.995Z</time></trkpt><trkpt lat="40.761566892939214" lon="9.427713482392834"><ele>524.4</ele><time>2026-05-02T09:45:24.995Z</time></trkpt><trkpt lat="40.76148685775669" lon="9.42766588742902"><ele>524.6</ele><time>2026-05-02T09:45:25.995Z</time></trkpt><trkpt lat="40.761423776014865" lon="9.427622944599403"><ele>524.8</ele><time>2026-05-02T09:45:26.995Z</time></trkpt><trkpt lat="40.76132842943367" lon="9.427548329895778"><ele>525.0</ele><time>2026-05-02T09:45:28.996Z</time></trkpt><trkpt lat="40.76125794252477" lon="9.427478441351626"><ele>525.0</ele><time>2026-05-02T09:45:30.996Z</time></trkpt><trkpt lat="40.76120727606715" lon="9.427409816962781"><ele>525.0</ele><time>2026-05-02T09:45:32.996Z</time></trkpt><trkpt lat="40.76115888963676" lon="9.42734662955372"><ele>525.0</ele><time>2026-05-02T09:45:34.996Z</time></trkpt><trkpt lat="40.76111002090549" lon="9.427281049370466"><ele>525.0</ele><time>2026-05-02T09:45:36.997Z</time></trkpt><trkpt lat="40.761039755234194" lon="9.427181346254498"><ele>525.0</ele><time>2026-05-02T09:45:38.997Z</time></trkpt><trkpt lat="40.76097046742363" lon="9.42708303064093"><ele>525.0</ele><time>2026-05-02T09:45:40.997Z</time></trkpt><trkpt lat="40.76088438662004" lon="9.426958429573352"><ele>524.8</ele><time>2026-05-02T09:45:42.997Z</time></trkpt><trkpt lat="40.76082827327742" lon="9.426870234951387"><ele>524.6</ele><time>2026-05-02T09:45:43.997Z</time></trkpt><trkpt lat="40.76077301185106" lon="9.42676890809274"><ele>524.4</ele><time>2026-05-02T09:45:44.998Z</time></trkpt><trkpt lat="40.76070724466762" lon="9.42667524130621"><ele>524.2</ele><time>2026-05-02T09:45:45.998Z</time></trkpt><trkpt lat="40.76065324083589" lon="9.426559635687997"><ele>524.0</ele><time>2026-05-02T09:45:46.998Z</time></trkpt><trkpt lat="40.76059761180828" lon="9.426438080380258"><ele>524.0</ele><time>2026-05-02T09:45:47.998Z</time></trkpt><trkpt lat="40.76053814955003" lon="9.426315752211565"><ele>524.0</ele><time>2026-05-02T09:45:48.998Z</time></trkpt><trkpt lat="40.760478142942205" lon="9.42619048139536"><ele>524.0</ele><time>2026-05-02T09:45:49.998Z</time></trkpt><trkpt lat="40.76042060161591" lon="9.42606668956897"><ele>524.0</ele><time>2026-05-02T09:45:50.998Z</time></trkpt><trkpt lat="40.76036475628578" lon="9.425944768968938"><ele>524.0</ele><time>2026-05-02T09:45:51.998Z</time></trkpt><trkpt lat="40.760309694216055" lon="9.425829054520095"><ele>524.8</ele><time>2026-05-02T09:45:52.998Z</time></trkpt><trkpt lat="40.760269307228974" lon="9.425706450642842"><ele>525.5999999999999</ele><time>2026-05-02T09:45:53.998Z</time></trkpt><trkpt lat="40.76020501229759" lon="9.425612962690005"><ele>526.4</ele><time>2026-05-02T09:45:54.998Z</time></trkpt><trkpt lat="40.7601139895258" lon="9.425546283086613"><ele>527.1999999999999</ele><time>2026-05-02T09:45:55.998Z</time></trkpt><trkpt lat="40.76002340240078" lon="9.425518679302524"><ele>528.0</ele><time>2026-05-02T09:45:56.998Z</time></trkpt><trkpt lat="40.759942563283595" lon="9.425478026452256"><ele>525.6</ele><time>2026-05-02T09:45:57.999Z</time></trkpt><trkpt lat="40.75986790887067" lon="9.42541923322227"><ele>523.1999999999999</ele><time>2026-05-02T09:45:58.999Z</time></trkpt><trkpt lat="40.75978902984345" lon="9.425368465558916"><ele>520.8</ele><time>2026-05-02T09:45:59.999Z</time></trkpt><trkpt lat="40.75970763322979" lon="9.425319775014996"><ele>518.4</ele><time>2026-05-02T09:46:00.999Z</time></trkpt><trkpt lat="40.75965122684066" lon="9.425221188098249"><ele>516.0</ele><time>2026-05-02T09:46:01.999Z</time></trkpt><trkpt lat="40.75959547161386" lon="9.425124573838838"><ele>516.0</ele><time>2026-05-02T09:46:02.999Z</time></trkpt><trkpt lat="40.759561236326746" lon="9.425042882687459"><ele>516.0</ele><time>2026-05-02T09:46:03.999Z</time></trkpt><trkpt lat="40.759519486875085" lon="9.424947292783513"><ele>516.0</ele><time>2026-05-02T09:46:04.999Z</time></trkpt><trkpt lat="40.75947662857076" lon="9.42483943444141"><ele>516.0</ele><time>2026-05-02T09:46:05.999Z</time></trkpt><trkpt lat="40.759436344593325" lon="9.424721301276517"><ele>516.0</ele><time>2026-05-02T09:46:06.999Z</time></trkpt><trkpt lat="40.75940318453407" lon="9.42459818879816"><ele>516.0</ele><time>2026-05-02T09:46:07.999Z</time></trkpt><trkpt lat="40.75936807857875" lon="9.424467146413646"><ele>516.0</ele><time>2026-05-02T09:46:08.999Z</time></trkpt><trkpt lat="40.75936252273073" lon="9.424325447885208"><ele>516.0</ele><time>2026-05-02T09:46:09.999Z</time></trkpt><trkpt lat="40.75936007048436" lon="9.424174542250293"><ele>516.0</ele><time>2026-05-02T09:46:10.999Z</time></trkpt><trkpt lat="40.759352312818116" lon="9.424019059395127"><ele>516.0</ele><time>2026-05-02T09:46:11.999Z</time></trkpt><trkpt lat="40.75935281987447" lon="9.42386342263504"><ele>515.75</ele><time>2026-05-02T09:46:12.999Z</time></trkpt><trkpt lat="40.75930708607572" lon="9.423706394476676"><ele>515.5</ele><time>2026-05-02T09:46:13.999Z</time></trkpt><trkpt lat="40.75924822647928" lon="9.423557443961291"><ele>515.25</ele><time>2026-05-02T09:46:14.999Z</time></trkpt><trkpt lat="40.759186116594584" lon="9.423410310260238"><ele>515.0</ele><time>2026-05-02T09:46:15.999Z</time></trkpt><trkpt lat="40.759119242934396" lon="9.423266241923447"><ele>515.0</ele><time>2026-05-02T09:46:16.999Z</time></trkpt><trkpt lat="40.75903881013424" lon="9.42311897952048"><ele>515.0</ele><time>2026-05-02T09:46:17.999Z</time></trkpt><trkpt lat="40.75894831734515" lon="9.422981536263757"><ele>515.0</ele><time>2026-05-02T09:46:18.999Z</time></trkpt><trkpt lat="40.75885763922062" lon="9.422851261301993"><ele>515.0</ele><time>2026-05-02T09:46:20Z</time></trkpt><trkpt lat="40.75876665199309" lon="9.422724025566664"><ele>515.0</ele><time>2026-05-02T09:46:21Z</time></trkpt><trkpt lat="40.75867664536064" lon="9.422598162069802"><ele>515.0</ele><time>2026-05-02T09:46:22Z</time></trkpt><trkpt lat="40.75858733818027" lon="9.422474365856312"><ele>515.0</ele><time>2026-05-02T09:46:23Z</time></trkpt><trkpt lat="40.75849249698321" lon="9.422351902389176"><ele>515.0</ele><time>2026-05-02T09:46:24Z</time></trkpt><trkpt lat="40.758385952174095" lon="9.422243258778428"><ele>514.5</ele><time>2026-05-02T09:46:25Z</time></trkpt><trkpt lat="40.758300013916596" lon="9.422103531381259"><ele>514.0</ele><time>2026-05-02T09:46:26Z</time></trkpt><trkpt lat="40.75822190031338" lon="9.421961687430453"><ele>513.5</ele><time>2026-05-02T09:46:27Z</time></trkpt><trkpt lat="40.7581510818233" lon="9.42181542460734"><ele>513.0</ele><time>2026-05-02T09:46:28Z</time></trkpt><trkpt lat="40.75810701832734" lon="9.421654996508043"><ele>513.0</ele><time>2026-05-02T09:46:29Z</time></trkpt><trkpt lat="40.75804912373837" lon="9.421504370392135"><ele>513.0</ele><time>2026-05-02T09:46:30Z</time></trkpt><trkpt lat="40.75797216009325" lon="9.421367552319568"><ele>513.0</ele><time>2026-05-02T09:46:31Z</time></trkpt><trkpt lat="40.75791310807756" lon="9.421217854482691"><ele>513.0</ele><time>2026-05-02T09:46:32Z</time></trkpt><trkpt lat="40.757839554633456" lon="9.421089838687466"><ele>513.75</ele><time>2026-05-02T09:46:33Z</time></trkpt><trkpt lat="40.757758398332825" lon="9.42097997020003"><ele>514.5</ele><time>2026-05-02T09:46:34Z</time></trkpt><trkpt lat="40.75770364467013" lon="9.420841274108442"><ele>515.25</ele><time>2026-05-02T09:46:35Z</time></trkpt><trkpt lat="40.757660010340686" lon="9.420693379413505"><ele>516.0</ele><time>2026-05-02T09:46:36Z</time></trkpt><trkpt lat="40.757631153468225" lon="9.42053542819768"><ele>514.75</ele><time>2026-05-02T09:46:37Z</time></trkpt><trkpt lat="40.75761141722921" lon="9.420375517165228"><ele>513.5</ele><time>2026-05-02T09:46:38Z</time></trkpt><trkpt lat="40.757588154721056" lon="9.42021359551661"><ele>512.25</ele><time>2026-05-02T09:46:39Z</time></trkpt><trkpt lat="40.757571812746704" lon="9.420047343458549"><ele>511.0</ele><time>2026-05-02T09:46:40Z</time></trkpt><trkpt lat="40.75750674506203" lon="9.419896777346306"><ele>511.0</ele><time>2026-05-02T09:46:41Z</time></trkpt><trkpt lat="40.757433392063035" lon="9.419756086009043"><ele>511.0</ele><time>2026-05-02T09:46:42Z</time></trkpt><trkpt lat="40.7573602803421" lon="9.419611306584894"><ele>511.0</ele><time>2026-05-02T09:46:43Z</time></trkpt><trkpt lat="40.75728677327282" lon="9.419461713367571"><ele>511.0</ele><time>2026-05-02T09:46:44Z</time></trkpt><trkpt lat="40.75721258458929" lon="9.419308972079307"><ele>512.25</ele><time>2026-05-02T09:46:45Z</time></trkpt><trkpt lat="40.75713703740255" lon="9.419153433541371"><ele>513.5</ele><time>2026-05-02T09:46:46Z</time></trkpt><trkpt lat="40.757059152861444" lon="9.418993602508397"><ele>514.75</ele><time>2026-05-02T09:46:47Z</time></trkpt><trkpt lat="40.756976715273815" lon="9.418831138609216"><ele>516.0</ele><time>2026-05-02T09:46:48Z</time></trkpt><trkpt lat="40.75689651742768" lon="9.418677056164205"><ele>515.0</ele><time>2026-05-02T09:46:49Z</time></trkpt><trkpt lat="40.75682044980127" lon="9.418528250863632"><ele>514.0</ele><time>2026-05-02T09:46:50.001Z</time></trkpt><trkpt lat="40.756745158752324" lon="9.418386158143734"><ele>513.0</ele><time>2026-05-02T09:46:51.001Z</time></trkpt><trkpt lat="40.75667059813605" lon="9.418252238750306"><ele>512.0</ele><time>2026-05-02T09:46:52.001Z</time></trkpt><trkpt lat="40.75659774084134" lon="9.418119322429735"><ele>512.0</ele><time>2026-05-02T09:46:53.001Z</time></trkpt><trkpt lat="40.75652513359854" lon="9.417983105176932"><ele>512.0</ele><time>2026-05-02T09:46:54.001Z</time></trkpt><trkpt lat="40.756457708052515" lon="9.417855205055215"><ele>512.0</ele><time>2026-05-02T09:46:55.001Z</time></trkpt><trkpt lat="40.756377097485235" lon="9.417743428958937"><ele>512.0</ele><time>2026-05-02T09:46:56.001Z</time></trkpt><trkpt lat="40.75631878262102" lon="9.417611778986176"><ele>512.0</ele><time>2026-05-02T09:46:57.001Z</time></trkpt><trkpt lat="40.75626287629752" lon="9.417480490615102"><ele>512.0</ele><time>2026-05-02T09:46:58.001Z</time></trkpt><trkpt lat="40.756218656374955" lon="9.417341158182662"><ele>512.0</ele><time>2026-05-02T09:46:59.001Z</time></trkpt><trkpt lat="40.75618258412016" lon="9.4171978567691"><ele>512.0</ele><time>2026-05-02T09:47:00.001Z</time></trkpt><trkpt lat="40.75615379291253" lon="9.417054465415813"><ele>511.8</ele><time>2026-05-02T09:47:01.001Z</time></trkpt><trkpt lat="40.75612520025569" lon="9.416903894270652"><ele>511.6</ele><time>2026-05-02T09:47:02.001Z</time></trkpt><trkpt lat="40.75609676218703" lon="9.41675318532623"><ele>511.40000000000003</ele><time>2026-05-02T09:47:03.001Z</time></trkpt><trkpt lat="40.756064835840284" lon="9.416613911552716"><ele>511.20000000000005</ele><time>2026-05-02T09:47:04.001Z</time></trkpt><trkpt lat="40.756045683426436" lon="9.416484973712139"><ele>511.0</ele><time>2026-05-02T09:47:05.001Z</time></trkpt><trkpt lat="40.75602320760421" lon="9.416361521735436"><ele>510.50000000000006</ele><time>2026-05-02T09:47:06.001Z</time></trkpt><trkpt lat="40.75600843396132" lon="9.416268250973378"><ele>510.0</ele><time>2026-05-02T09:47:07.001Z</time></trkpt><trkpt lat="40.75599392581349" lon="9.416181987359108"><ele>509.5</ele><time>2026-05-02T09:47:09.001Z</time></trkpt><trkpt lat="40.755948158105184" lon="9.416039963974018"><ele>509.0</ele><time>2026-05-02T09:47:44Z</time></trkpt><trkpt lat="40.75593005196931" lon="9.415953154134705"><ele>508.50000000000006</ele><time>2026-05-02T09:47:45Z</time></trkpt><trkpt lat="40.75591065060578" lon="9.415855470162668"><ele>508.0</ele><time>2026-05-02T09:47:46Z</time></trkpt><trkpt lat="40.75588295098441" lon="9.415741519772677"><ele>508.0</ele><time>2026-05-02T09:47:47Z</time></trkpt><trkpt lat="40.75585652462489" lon="9.415610564487077"><ele>507.99999999999994</ele><time>2026-05-02T09:47:48Z</time></trkpt><trkpt lat="40.75582908749508" lon="9.415482644487346"><ele>507.99999999999994</ele><time>2026-05-02T09:47:49Z</time></trkpt><trkpt lat="40.75579602262632" lon="9.41534471352231"><ele>508.0</ele><time>2026-05-02T09:47:50Z</time></trkpt><trkpt lat="40.75575716383147" lon="9.415190939812849"><ele>508.0</ele><time>2026-05-02T09:47:51Z</time></trkpt><trkpt lat="40.75572146850452" lon="9.41503192578909"><ele>509.0</ele><time>2026-05-02T09:47:52Z</time></trkpt><trkpt lat="40.75569006600008" lon="9.414874959726127"><ele>510.0</ele><time>2026-05-02T09:47:53Z</time></trkpt><trkpt lat="40.75566015590166" lon="9.41471286604173"><ele>511.0</ele><time>2026-05-02T09:47:54Z</time></trkpt><trkpt lat="40.75562961781996" lon="9.414552463363128"><ele>512.0</ele><time>2026-05-02T09:47:55Z</time></trkpt><trkpt lat="40.75559966736558" lon="9.414393023979306"><ele>513.25</ele><time>2026-05-02T09:47:56Z</time></trkpt><trkpt lat="40.755571868627335" lon="9.414232334950864"><ele>514.5</ele><time>2026-05-02T09:47:57Z</time></trkpt><trkpt lat="40.75554694614053" lon="9.414071107429795"><ele>515.75</ele><time>2026-05-02T09:47:58Z</time></trkpt><trkpt lat="40.755526654442434" lon="9.413910168632421"><ele>517.0</ele><time>2026-05-02T09:47:59Z</time></trkpt><trkpt lat="40.755508196840154" lon="9.41374405852657"><ele>517.75</ele><time>2026-05-02T09:48:00Z</time></trkpt><trkpt lat="40.755493978572446" lon="9.413574717129562"><ele>518.5</ele><time>2026-05-02T09:48:01Z</time></trkpt><trkpt lat="40.75548742615678" lon="9.41339612959012"><ele>519.25</ele><time>2026-05-02T09:48:02Z</time></trkpt><trkpt lat="40.75548326111787" lon="9.413225489887438"><ele>520.0</ele><time>2026-05-02T09:48:03Z</time></trkpt><trkpt lat="40.75548263211082" lon="9.413048964124343"><ele>520.0</ele><time>2026-05-02T09:48:04Z</time></trkpt><trkpt lat="40.755479429783875" lon="9.4128783663968"><ele>520.0</ele><time>2026-05-02T09:48:05Z</time></trkpt><trkpt lat="40.7554781758775" lon="9.412715046928577"><ele>520.0</ele><time>2026-05-02T09:48:06Z</time></trkpt><trkpt lat="40.75547743188163" lon="9.412554222368016"><ele>520.0</ele><time>2026-05-02T09:48:07.001Z</time></trkpt><trkpt lat="40.755470039437355" lon="9.412398184714998"><ele>520.0</ele><time>2026-05-02T09:48:08.001Z</time></trkpt><trkpt lat="40.75545042511048" lon="9.41224826562508"><ele>520.0</ele><time>2026-05-02T09:48:09.001Z</time></trkpt><trkpt lat="40.75541236425308" lon="9.41210375175767"><ele>520.0</ele><time>2026-05-02T09:48:10.001Z</time></trkpt><trkpt lat="40.755358134040264" lon="9.411961070715236"><ele>520.0</ele><time>2026-05-02T09:48:11.001Z</time></trkpt><trkpt lat="40.75529205852596" lon="9.411823842154712"><ele>519.0</ele><time>2026-05-02T09:48:12.001Z</time></trkpt><trkpt lat="40.755219892225306" lon="9.411694657737055"><ele>518.0</ele><time>2026-05-02T09:48:13.001Z</time></trkpt><trkpt lat="40.75513500664892" lon="9.411574092474423"><ele>517.0</ele><time>2026-05-02T09:48:14.001Z</time></trkpt><trkpt lat="40.755032406231564" lon="9.411466904734636"><ele>516.0</ele><time>2026-05-02T09:48:15.001Z</time></trkpt><trkpt lat="40.7549171382236" lon="9.41136294792425"><ele>517.3333333333334</ele><time>2026-05-02T09:48:16.001Z</time></trkpt><trkpt lat="40.754792662067764" lon="9.411251962043963"><ele>518.6666666666667</ele><time>2026-05-02T09:48:17.001Z</time></trkpt><trkpt lat="40.75466270732651" lon="9.411129143359947"><ele>520.0</ele><time>2026-05-02T09:48:18.001Z</time></trkpt><trkpt lat="40.75453970181981" lon="9.411002166129434"><ele>520.0</ele><time>2026-05-02T09:48:19.001Z</time></trkpt><trkpt lat="40.754412106636295" lon="9.410870536988046"><ele>520.0</ele><time>2026-05-02T09:48:20.001Z</time></trkpt><trkpt lat="40.75428114484525" lon="9.41073319086287"><ele>520.0</ele><time>2026-05-02T09:48:21.001Z</time></trkpt><trkpt lat="40.75415277263037" lon="9.410591610127513"><ele>518.3333333333334</ele><time>2026-05-02T09:48:22.001Z</time></trkpt><trkpt lat="40.754028134648394" lon="9.410442784405367"><ele>516.6666666666666</ele><time>2026-05-02T09:48:23.001Z</time></trkpt><trkpt lat="40.75392066195583" lon="9.410286198138817"><ele>515.0</ele><time>2026-05-02T09:48:24.001Z</time></trkpt><trkpt lat="40.753819462996574" lon="9.410131657489858"><ele>515.0</ele><time>2026-05-02T09:48:25.001Z</time></trkpt><trkpt lat="40.75371975789626" lon="9.409977684771281"><ele>515.0</ele><time>2026-05-02T09:48:26.001Z</time></trkpt><trkpt lat="40.75362331932362" lon="9.40981941192678"><ele>515.0</ele><time>2026-05-02T09:48:27.001Z</time></trkpt><trkpt lat="40.753530812573885" lon="9.409663479716297"><ele>514.5</ele><time>2026-05-02T09:48:28.001Z</time></trkpt><trkpt lat="40.75344272374692" lon="9.409513568682277"><ele>514.0</ele><time>2026-05-02T09:48:29.001Z</time></trkpt><trkpt lat="40.753357981431506" lon="9.409364656810258"><ele>513.5</ele><time>2026-05-02T09:48:30.001Z</time></trkpt><trkpt lat="40.75327007397917" lon="9.409218687385382"><ele>513.0</ele><time>2026-05-02T09:48:31.001Z</time></trkpt><trkpt lat="40.753178035679824" lon="9.409095174502928"><ele>513.0</ele><time>2026-05-02T09:48:32.001Z</time></trkpt><trkpt lat="40.75307440410022" lon="9.408999940611974"><ele>513.0</ele><time>2026-05-02T09:48:33.001Z</time></trkpt><trkpt lat="40.75295285590638" lon="9.40893124681101"><ele>513.0</ele><time>2026-05-02T09:48:34.001Z</time></trkpt><trkpt lat="40.75282116062104" lon="9.408895427108625"><ele>513.0</ele><time>2026-05-02T09:48:35.001Z</time></trkpt><trkpt lat="40.75268186452855" lon="9.408886467201508"><ele>511.25</ele><time>2026-05-02T09:48:36.001Z</time></trkpt><trkpt lat="40.75253514870401" lon="9.408884416034097"><ele>509.5</ele><time>2026-05-02T09:48:37.001Z</time></trkpt><trkpt lat="40.752395298248175" lon="9.40887891387532"><ele>507.75</ele><time>2026-05-02T09:48:38.001Z</time></trkpt><trkpt lat="40.75225909818029" lon="9.408876594218325"><ele>506.0</ele><time>2026-05-02T09:48:39.002Z</time></trkpt><trkpt lat="40.752125340696466" lon="9.408868430087075"><ele>506.0</ele><time>2026-05-02T09:48:40.002Z</time></trkpt><trkpt lat="40.75199956711656" lon="9.408833729395052"><ele>506.0</ele><time>2026-05-02T09:48:41.002Z</time></trkpt><trkpt lat="40.751884656001224" lon="9.408768704657026"><ele>506.0</ele><time>2026-05-02T09:48:42.002Z</time></trkpt><trkpt lat="40.75178498657044" lon="9.408673992461624"><ele>506.0</ele><time>2026-05-02T09:48:43.002Z</time></trkpt><trkpt lat="40.75170109007843" lon="9.408549200954404"><ele>506.25</ele><time>2026-05-02T09:48:44.002Z</time></trkpt><trkpt lat="40.7516258224454" lon="9.408406552421317"><ele>506.5</ele><time>2026-05-02T09:48:45.002Z</time></trkpt><trkpt lat="40.75155394168496" lon="9.408258190837332"><ele>506.75</ele><time>2026-05-02T09:48:46.002Z</time></trkpt><trkpt lat="40.751478464213015" lon="9.408106581574646"><ele>507.0</ele><time>2026-05-02T09:48:47.002Z</time></trkpt><trkpt lat="40.7513836267384" lon="9.407963678393825"><ele>507.75</ele><time>2026-05-02T09:48:48.002Z</time></trkpt><trkpt lat="40.751274269586666" lon="9.407838414179196"><ele>508.5</ele><time>2026-05-02T09:48:49.002Z</time></trkpt><trkpt lat="40.75115726531185" lon="9.407740752244859"><ele>509.25</ele><time>2026-05-02T09:48:50.002Z</time></trkpt><trkpt lat="40.751024683868415" lon="9.407674028290502"><ele>510.0</ele><time>2026-05-02T09:48:51.002Z</time></trkpt><trkpt lat="40.75087962674063" lon="9.40763852830161"><ele>510.0</ele><time>2026-05-02T09:48:52.002Z</time></trkpt><trkpt lat="40.750728160399916" lon="9.40762484428014"><ele>510.0</ele><time>2026-05-02T09:48:53.002Z</time></trkpt><trkpt lat="40.750573417106935" lon="9.407622716593526"><ele>510.0</ele><time>2026-05-02T09:48:54.002Z</time></trkpt><trkpt lat="40.75041635256029" lon="9.407629032973169"><ele>510.0</ele><time>2026-05-02T09:48:55.002Z</time></trkpt><trkpt lat="40.75025557825787" lon="9.407640025554114"><ele>510.0</ele><time>2026-05-02T09:48:56.002Z</time></trkpt><trkpt lat="40.75010474392684" lon="9.407643893201822"><ele>510.0</ele><time>2026-05-02T09:48:57.002Z</time></trkpt><trkpt lat="40.74996086773959" lon="9.407643866329005"><ele>509.25</ele><time>2026-05-02T09:48:58.002Z</time></trkpt><trkpt lat="40.74982104723822" lon="9.407643273699268"><ele>508.5</ele><time>2026-05-02T09:48:59.002Z</time></trkpt><trkpt lat="40.74969370956171" lon="9.407627517715888"><ele>507.75</ele><time>2026-05-02T09:49:00.002Z</time></trkpt><trkpt lat="40.74957062391071" lon="9.407610123379053"><ele>507.0</ele><time>2026-05-02T09:49:01.002Z</time></trkpt><trkpt lat="40.74945228001056" lon="9.407582726817465"><ele>507.0</ele><time>2026-05-02T09:49:02.002Z</time></trkpt><trkpt lat="40.74933511936966" lon="9.407546638732612"><ele>507.0</ele><time>2026-05-02T09:49:03.002Z</time></trkpt><trkpt lat="40.74921949944708" lon="9.407515769689915"><ele>507.0</ele><time>2026-05-02T09:49:04.002Z</time></trkpt><trkpt lat="40.74911127586387" lon="9.407485165252494"><ele>507.0</ele><time>2026-05-02T09:49:05.002Z</time></trkpt><trkpt lat="40.74900464236856" lon="9.407444662969318"><ele>507.0</ele><time>2026-05-02T09:49:06.002Z</time></trkpt><trkpt lat="40.748898705315575" lon="9.407387855771809"><ele>507.0</ele><time>2026-05-02T09:49:07.002Z</time></trkpt><trkpt lat="40.74879598032271" lon="9.407324423583962"><ele>507.0</ele><time>2026-05-02T09:49:08.002Z</time></trkpt><trkpt lat="40.748693296373325" lon="9.40726219241693"><ele>507.0</ele><time>2026-05-02T09:49:09.002Z</time></trkpt><trkpt lat="40.748591194062364" lon="9.407200214079067"><ele>507.25</ele><time>2026-05-02T09:49:10.002Z</time></trkpt><trkpt lat="40.74848041319598" lon="9.407129643673484"><ele>507.5</ele><time>2026-05-02T09:49:11.002Z</time></trkpt><trkpt lat="40.74836761134685" lon="9.407048653081361"><ele>507.75</ele><time>2026-05-02T09:49:12.003Z</time></trkpt><trkpt lat="40.74825337270017" lon="9.406956909091962"><ele>508.0</ele><time>2026-05-02T09:49:13.003Z</time></trkpt><trkpt lat="40.748141478099015" lon="9.406859540252833"><ele>508.0</ele><time>2026-05-02T09:49:14.003Z</time></trkpt><trkpt lat="40.748037528924264" lon="9.406750065736606"><ele>508.0</ele><time>2026-05-02T09:49:15.003Z</time></trkpt><trkpt lat="40.74794584235602" lon="9.406627249616504"><ele>508.0</ele><time>2026-05-02T09:49:16.003Z</time></trkpt><trkpt lat="40.747875566842545" lon="9.406483712488972"><ele>508.0</ele><time>2026-05-02T09:49:17.003Z</time></trkpt><trkpt lat="40.74782054145487" lon="9.406325419240806"><ele>508.25</ele><time>2026-05-02T09:49:18.003Z</time></trkpt><trkpt lat="40.747773820665266" lon="9.406151051802864"><ele>508.5</ele><time>2026-05-02T09:49:19.003Z</time></trkpt><trkpt lat="40.74772648130812" lon="9.405966675878467"><ele>508.75</ele><time>2026-05-02T09:49:20.003Z</time></trkpt><trkpt lat="40.74766660833639" lon="9.405787316322211"><ele>509.0</ele><time>2026-05-02T09:49:21.003Z</time></trkpt><trkpt lat="40.7475853950451" lon="9.405632283484948"><ele>508.25</ele><time>2026-05-02T09:49:22.003Z</time></trkpt><trkpt lat="40.74749219903719" lon="9.405492018406612"><ele>507.5</ele><time>2026-05-02T09:49:23.003Z</time></trkpt><trkpt lat="40.74738821687724" lon="9.405366958778792"><ele>506.75</ele><time>2026-05-02T09:49:24.003Z</time></trkpt><trkpt lat="40.74727316275365" lon="9.405265220799523"><ele>506.0</ele><time>2026-05-02T09:49:25.003Z</time></trkpt><trkpt lat="40.74715061967376" lon="9.405179677386386"><ele>506.0</ele><time>2026-05-02T09:49:26.003Z</time></trkpt><trkpt lat="40.747028410131406" lon="9.405102533866001"><ele>506.0</ele><time>2026-05-02T09:49:27.003Z</time></trkpt><trkpt lat="40.746909902545745" lon="9.405028700609526"><ele>506.0</ele><time>2026-05-02T09:49:28.003Z</time></trkpt><trkpt lat="40.746792118574106" lon="9.404953951969262"><ele>506.0</ele><time>2026-05-02T09:49:29.003Z</time></trkpt><trkpt lat="40.746674392150034" lon="9.404875269895982"><ele>505.75</ele><time>2026-05-02T09:49:30.003Z</time></trkpt><trkpt lat="40.74656323358271" lon="9.404780629792391"><ele>505.5</ele><time>2026-05-02T09:49:31.003Z</time></trkpt><trkpt lat="40.74645555210867" lon="9.404662252503671"><ele>505.25</ele><time>2026-05-02T09:49:32.003Z</time></trkpt><trkpt lat="40.74634562128846" lon="9.404531325309977"><ele>505.0</ele><time>2026-05-02T09:49:33.003Z</time></trkpt><trkpt lat="40.746227925115186" lon="9.40439965582588"><ele>503.6666666666667</ele><time>2026-05-02T09:49:34.001Z</time></trkpt><trkpt lat="40.74610270990268" lon="9.404263385848182"><ele>502.33333333333337</ele><time>2026-05-02T09:49:35.001Z</time></trkpt><trkpt lat="40.745985189034926" lon="9.404131967145036"><ele>501.0</ele><time>2026-05-02T09:49:36.001Z</time></trkpt><trkpt lat="40.74586641913346" lon="9.404001178024961"><ele>501.0</ele><time>2026-05-02T09:49:37.001Z</time></trkpt><trkpt lat="40.74574623603911" lon="9.403869189449077"><ele>501.0</ele><time>2026-05-02T09:49:38.001Z</time></trkpt><trkpt lat="40.745633570461024" lon="9.403742902409213"><ele>501.0</ele><time>2026-05-02T09:49:39.001Z</time></trkpt><trkpt lat="40.74552087408734" lon="9.403622348299411"><ele>501.0</ele><time>2026-05-02T09:49:40.001Z</time></trkpt><trkpt lat="40.74541641959131" lon="9.403497609719459"><ele>501.5</ele><time>2026-05-02T09:49:41.001Z</time></trkpt><trkpt lat="40.7453202085289" lon="9.403368795026052"><ele>502.0</ele><time>2026-05-02T09:49:42.001Z</time></trkpt><trkpt lat="40.7452344259764" lon="9.40323097078104"><ele>502.5</ele><time>2026-05-02T09:49:43Z</time></trkpt><trkpt lat="40.74516095986477" lon="9.403090177571578"><ele>503.0</ele><time>2026-05-02T09:49:44Z</time></trkpt><trkpt lat="40.7450866726029" lon="9.40294837471429"><ele>503.25</ele><time>2026-05-02T09:49:45Z</time></trkpt><trkpt lat="40.74501209379241" lon="9.402810749507688"><ele>503.5</ele><time>2026-05-02T09:49:46Z</time></trkpt><trkpt lat="40.74493856634304" lon="9.40267152799163"><ele>503.75</ele><time>2026-05-02T09:49:47Z</time></trkpt><trkpt lat="40.74486404028443" lon="9.402533405609015"><ele>504.0</ele><time>2026-05-02T09:49:48Z</time></trkpt><trkpt lat="40.74478061734269" lon="9.402390552298"><ele>504.0</ele><time>2026-05-02T09:49:49Z</time></trkpt><trkpt lat="40.74469253116554" lon="9.402244441771758"><ele>504.0</ele><time>2026-05-02T09:49:50Z</time></trkpt><trkpt lat="40.74459943603644" lon="9.402089724871118"><ele>504.0</ele><time>2026-05-02T09:49:51Z</time></trkpt><trkpt lat="40.74449928168134" lon="9.401928876864336"><ele>504.0</ele><time>2026-05-02T09:49:52Z</time></trkpt><trkpt lat="40.74438768760907" lon="9.401768862221555"><ele>502.0</ele><time>2026-05-02T09:49:53Z</time></trkpt><trkpt lat="40.744257890488605" lon="9.401611960463722"><ele>500.0</ele><time>2026-05-02T09:49:54Z</time></trkpt><trkpt lat="40.744112102711206" lon="9.401465524011186"><ele>498.0</ele><time>2026-05-02T09:49:55Z</time></trkpt><trkpt lat="40.74395081878604" lon="9.401330554768856"><ele>498.0</ele><time>2026-05-02T09:49:56Z</time></trkpt><trkpt lat="40.74377485530631" lon="9.40121527619229"><ele>498.0</ele><time>2026-05-02T09:49:57Z</time></trkpt><trkpt lat="40.74359656454054" lon="9.401094411463822"><ele>498.0</ele><time>2026-05-02T09:49:58Z</time></trkpt><trkpt lat="40.74341589039015" lon="9.400975925163696"><ele>496.33333333333337</ele><time>2026-05-02T09:49:59Z</time></trkpt><trkpt lat="40.743228812923796" lon="9.400856585399543"><ele>494.6666666666667</ele><time>2026-05-02T09:50:00.001Z</time></trkpt><trkpt lat="40.74304023721653" lon="9.400736320843144"><ele>493.0</ele><time>2026-05-02T09:50:01.001Z</time></trkpt><trkpt lat="40.74284916589218" lon="9.400613683717362"><ele>493.0</ele><time>2026-05-02T09:50:02.001Z</time></trkpt><trkpt lat="40.74265858509337" lon="9.400496988329872"><ele>493.0</ele><time>2026-05-02T09:50:03.001Z</time></trkpt><trkpt lat="40.74247454302266" lon="9.400384973025844"><ele>493.0</ele><time>2026-05-02T09:50:04.001Z</time></trkpt><trkpt lat="40.74228963351802" lon="9.400272853520857"><ele>493.0</ele><time>2026-05-02T09:50:05.001Z</time></trkpt><trkpt lat="40.74210537402232" lon="9.400156927081907"><ele>493.0</ele><time>2026-05-02T09:50:06.001Z</time></trkpt><trkpt lat="40.7419178990051" lon="9.400044499403473"><ele>493.0</ele><time>2026-05-02T09:50:07.001Z</time></trkpt><trkpt lat="40.74172562303102" lon="9.39993276824976"><ele>493.33333333333337</ele><time>2026-05-02T09:50:08.001Z</time></trkpt><trkpt lat="40.74153459706762" lon="9.39982572107934"><ele>493.66666666666663</ele><time>2026-05-02T09:50:09.001Z</time></trkpt><trkpt lat="40.74134793783675" lon="9.399719279496635"><ele>494.0</ele><time>2026-05-02T09:50:10.001Z</time></trkpt><trkpt lat="40.741166076367776" lon="9.399606200595969"><ele>494.0</ele><time>2026-05-02T09:50:11.001Z</time></trkpt><trkpt lat="40.74098251841651" lon="9.399491958458675"><ele>494.0</ele><time>2026-05-02T09:50:12.001Z</time></trkpt><trkpt lat="40.74080201963955" lon="9.399387617336611"><ele>494.0</ele><time>2026-05-02T09:50:13.001Z</time></trkpt><trkpt lat="40.740625901902284" lon="9.399280349640046"><ele>494.0</ele><time>2026-05-02T09:50:14.001Z</time></trkpt><trkpt lat="40.74045135831465" lon="9.399175868388994"><ele>494.0</ele><time>2026-05-02T09:50:15.001Z</time></trkpt><trkpt lat="40.74027703960015" lon="9.399073021888093"><ele>494.0</ele><time>2026-05-02T09:50:16.001Z</time></trkpt><trkpt lat="40.74010251490393" lon="9.398964094858465"><ele>494.3333333333333</ele><time>2026-05-02T09:50:17.001Z</time></trkpt><trkpt lat="40.73992455734365" lon="9.398842460402483"><ele>494.66666666666663</ele><time>2026-05-02T09:50:18.001Z</time></trkpt><trkpt lat="40.73973757084132" lon="9.398705401553544"><ele>495.0</ele><time>2026-05-02T09:50:19.001Z</time></trkpt><trkpt lat="40.73954879978632" lon="9.39856296473097"><ele>495.33333333333337</ele><time>2026-05-02T09:50:20.001Z</time></trkpt><trkpt lat="40.739361238093935" lon="9.398415472195413"><ele>495.6666666666667</ele><time>2026-05-02T09:50:21.001Z</time></trkpt><trkpt lat="40.73917543531516" lon="9.398259396147019"><ele>496.0</ele><time>2026-05-02T09:50:22.001Z</time></trkpt><trkpt lat="40.738994113266756" lon="9.398100104681426"><ele>495.6666666666667</ele><time>2026-05-02T09:50:23.001Z</time></trkpt><trkpt lat="40.73882305127385" lon="9.397945174228944"><ele>495.33333333333337</ele><time>2026-05-02T09:50:24.001Z</time></trkpt><trkpt lat="40.73865867663895" lon="9.397794526268543"><ele>495.0</ele><time>2026-05-02T09:50:25.001Z</time></trkpt><trkpt lat="40.73849528512163" lon="9.397642808106013"><ele>496.66666666666663</ele><time>2026-05-02T09:50:26.001Z</time></trkpt><trkpt lat="40.738316316760205" lon="9.39748662007505"><ele>498.3333333333333</ele><time>2026-05-02T09:50:27.001Z</time></trkpt><trkpt lat="40.738128493031155" lon="9.397326031266642"><ele>500.0</ele><time>2026-05-02T09:50:28.001Z</time></trkpt><trkpt lat="40.73795356416466" lon="9.39717051409122"><ele>499.3333333333333</ele><time>2026-05-02T09:50:29.001Z</time></trkpt><trkpt lat="40.73777809494057" lon="9.39701248515751"><ele>498.66666666666663</ele><time>2026-05-02T09:50:30.001Z</time></trkpt><trkpt lat="40.73759665588656" lon="9.396849038611132"><ele>498.0</ele><time>2026-05-02T09:50:31.001Z</time></trkpt><trkpt lat="40.73741085456292" lon="9.396682129027358"><ele>500.0</ele><time>2026-05-02T09:50:32.001Z</time></trkpt><trkpt lat="40.737212832588376" lon="9.396510416208734"><ele>502.0</ele><time>2026-05-02T09:50:33.001Z</time></trkpt><trkpt lat="40.73702239877618" lon="9.396353422029318"><ele>502.33333333333337</ele><time>2026-05-02T09:50:34.001Z</time></trkpt><trkpt lat="40.73683213246537" lon="9.396209557368275"><ele>502.66666666666663</ele><time>2026-05-02T09:50:35.001Z</time></trkpt><trkpt lat="40.7366472638815" lon="9.39607566984192"><ele>503.0</ele><time>2026-05-02T09:50:36.001Z</time></trkpt><trkpt lat="40.736454156923166" lon="9.395939881166138"><ele>503.0</ele><time>2026-05-02T09:50:37.001Z</time></trkpt><trkpt lat="40.736257895955106" lon="9.395802968382458"><ele>503.0</ele><time>2026-05-02T09:50:38.001Z</time></trkpt><trkpt lat="40.736058127169294" lon="9.39566519709417"><ele>503.0</ele><time>2026-05-02T09:50:39.001Z</time></trkpt><trkpt lat="40.7358572301351" lon="9.395532388647386"><ele>502.5</ele><time>2026-05-02T09:50:40.001Z</time></trkpt><trkpt lat="40.735657113671486" lon="9.395400710703601"><ele>502.0</ele><time>2026-05-02T09:50:41.001Z</time></trkpt><trkpt lat="40.73545071328924" lon="9.395267404192897"><ele>502.0</ele><time>2026-05-02T09:50:42.001Z</time></trkpt><trkpt lat="40.73524053080208" lon="9.395130712405095"><ele>502.0</ele><time>2026-05-02T09:50:43.001Z</time></trkpt><trkpt lat="40.73503174788449" lon="9.394981765386426"><ele>503.0</ele><time>2026-05-02T09:50:44.001Z</time></trkpt><trkpt lat="40.73482079371276" lon="9.394816655312608"><ele>504.0</ele><time>2026-05-02T09:50:45.001Z</time></trkpt><trkpt lat="40.734618267957345" lon="9.394648786093027"><ele>505.33333333333337</ele><time>2026-05-02T09:50:46.001Z</time></trkpt><trkpt lat="40.734433688549615" lon="9.394491531297295"><ele>506.6666666666667</ele><time>2026-05-02T09:50:47.001Z</time></trkpt><trkpt lat="40.73424970728633" lon="9.394342309222205"><ele>508.0</ele><time>2026-05-02T09:50:48.001Z</time></trkpt><trkpt lat="40.73407323670185" lon="9.394193020256706"><ele>509.0</ele><time>2026-05-02T09:50:49.002Z</time></trkpt><trkpt lat="40.733907644713085" lon="9.394040341354259"><ele>510.0</ele><time>2026-05-02T09:50:50.002Z</time></trkpt><trkpt lat="40.73374216179223" lon="9.393869259338821"><ele>511.0</ele><time>2026-05-02T09:50:51.002Z</time></trkpt><trkpt lat="40.73358153936988" lon="9.39367990668669"><ele>511.33333333333337</ele><time>2026-05-02T09:50:52.002Z</time></trkpt><trkpt lat="40.73342890098451" lon="9.39348996490795"><ele>511.66666666666663</ele><time>2026-05-02T09:50:53.002Z</time></trkpt><trkpt lat="40.73327038590996" lon="9.393296133406254"><ele>512.0</ele><time>2026-05-02T09:50:54.002Z</time></trkpt><trkpt lat="40.73312150195216" lon="9.393101844262581"><ele>514.0</ele><time>2026-05-02T09:50:55.002Z</time></trkpt><trkpt lat="40.73298387439442" lon="9.392897172621147"><ele>516.0</ele><time>2026-05-02T09:50:56.002Z</time></trkpt><trkpt lat="40.732853143994824" lon="9.392680436159056"><ele>518.0</ele><time>2026-05-02T09:50:57.002Z</time></trkpt><trkpt lat="40.732731780168" lon="9.392448868240598"><ele>516.3333333333333</ele><time>2026-05-02T09:50:58.002Z</time></trkpt><trkpt lat="40.7326201778279" lon="9.392199016316916"><ele>514.6666666666666</ele><time>2026-05-02T09:50:59.002Z</time></trkpt><trkpt lat="40.7325184124752" lon="9.39193764189658"><ele>513.0</ele><time>2026-05-02T09:51:00.002Z</time></trkpt><trkpt lat="40.73242363578501" lon="9.39167409959652"><ele>513.0</ele><time>2026-05-02T09:51:01.002Z</time></trkpt><trkpt lat="40.732338363187026" lon="9.391423268485006"><ele>513.0</ele><time>2026-05-02T09:51:02.002Z</time></trkpt><trkpt lat="40.73225877208157" lon="9.391180538582043"><ele>513.0</ele><time>2026-05-02T09:51:03.002Z</time></trkpt><trkpt lat="40.73217797442081" lon="9.39093134408503"><ele>516.3333333333334</ele><time>2026-05-02T09:51:04.002Z</time></trkpt><trkpt lat="40.732099827795125" lon="9.39069072094274"><ele>519.6666666666667</ele><time>2026-05-02T09:51:05.002Z</time></trkpt><trkpt lat="40.732027934402225" lon="9.390457447860637"><ele>523.0</ele><time>2026-05-02T09:51:06.002Z</time></trkpt><trkpt lat="40.73195790641501" lon="9.390245687794124"><ele>522.25</ele><time>2026-05-02T09:51:07.002Z</time></trkpt><trkpt lat="40.73189409387002" lon="9.390054776416513"><ele>521.5</ele><time>2026-05-02T09:51:08.002Z</time></trkpt><trkpt lat="40.73183508492683" lon="9.389896801357883"><ele>520.75</ele><time>2026-05-02T09:51:09.002Z</time></trkpt><trkpt lat="40.73177349482956" lon="9.389767101123002"><ele>520.0</ele><time>2026-05-02T09:51:10.002Z</time></trkpt><trkpt lat="40.731696053952405" lon="9.389659514493143"><ele>522.75</ele><time>2026-05-02T09:51:11.002Z</time></trkpt><trkpt lat="40.73160194436727" lon="9.389580557199531"><ele>525.5</ele><time>2026-05-02T09:51:12.002Z</time></trkpt><trkpt lat="40.73148456174684" lon="9.38952793420486"><ele>528.25</ele><time>2026-05-02T09:51:13.002Z</time></trkpt><trkpt lat="40.73135006100019" lon="9.389501425748696"><ele>531.0</ele><time>2026-05-02T09:51:14.002Z</time></trkpt><trkpt lat="40.73120626894174" lon="9.38949342732264"><ele>529.6666666666666</ele><time>2026-05-02T09:51:15.002Z</time></trkpt><trkpt lat="40.73105195483805" lon="9.389491391826303"><ele>528.3333333333333</ele><time>2026-05-02T09:51:16.002Z</time></trkpt><trkpt lat="40.73089010896175" lon="9.389488703285002"><ele>527.0</ele><time>2026-05-02T09:51:17.002Z</time></trkpt><trkpt lat="40.73072148203889" lon="9.38948219153438"><ele>527.0</ele><time>2026-05-02T09:51:18.002Z</time></trkpt><trkpt lat="40.73055180394843" lon="9.389475446134515"><ele>527.0</ele><time>2026-05-02T09:51:19.002Z</time></trkpt><trkpt lat="40.73039206201026" lon="9.389468800781604"><ele>527.0</ele><time>2026-05-02T09:51:20.002Z</time></trkpt><trkpt lat="40.730238859088075" lon="9.389457162206902"><ele>526.75</ele><time>2026-05-02T09:51:21.002Z</time></trkpt><trkpt lat="40.73010268682102" lon="9.389430147039898"><ele>526.5</ele><time>2026-05-02T09:51:22.002Z</time></trkpt><trkpt lat="40.72996878868432" lon="9.389366498371924"><ele>526.25</ele><time>2026-05-02T09:51:23.002Z</time></trkpt><trkpt lat="40.729836171727" lon="9.389273101321423"><ele>526.0</ele><time>2026-05-02T09:51:24.002Z</time></trkpt><trkpt lat="40.72969615495695" lon="9.389157775041399"><ele>526.0</ele><time>2026-05-02T09:51:25.002Z</time></trkpt><trkpt lat="40.72955205014956" lon="9.389028810653706"><ele>526.0</ele><time>2026-05-02T09:51:26.002Z</time></trkpt><trkpt lat="40.72940360060635" lon="9.388892929324067"><ele>526.0</ele><time>2026-05-02T09:51:27.002Z</time></trkpt><trkpt lat="40.72925352220189" lon="9.388760822486681"><ele>527.3333333333334</ele><time>2026-05-02T09:51:28.002Z</time></trkpt><trkpt lat="40.72910341015394" lon="9.38862517330153"><ele>528.6666666666666</ele><time>2026-05-02T09:51:29.002Z</time></trkpt><trkpt lat="40.728961515851246" lon="9.388481608977482"><ele>530.0</ele><time>2026-05-02T09:51:30.002Z</time></trkpt><trkpt lat="40.728827272307704" lon="9.388331895631682"><ele>530.0</ele><time>2026-05-02T09:51:31.003Z</time></trkpt><trkpt lat="40.72868756750014" lon="9.38817254763542"><ele>530.0</ele><time>2026-05-02T09:51:32.003Z</time></trkpt><trkpt lat="40.72854302088929" lon="9.388010605008585"><ele>530.0</ele><time>2026-05-02T09:51:33.003Z</time></trkpt><trkpt lat="40.728410307248545" lon="9.387859191520045"><ele>530.25</ele><time>2026-05-02T09:51:34.003Z</time></trkpt><trkpt lat="40.72829253376169" lon="9.387718620806021"><ele>530.5</ele><time>2026-05-02T09:51:35.003Z</time></trkpt><trkpt lat="40.72818996274623" lon="9.387589200664868"><ele>530.75</ele><time>2026-05-02T09:51:36.003Z</time></trkpt><trkpt lat="40.728098031996346" lon="9.387463133962047"><ele>531.0</ele><time>2026-05-02T09:51:37.003Z</time></trkpt><trkpt lat="40.7280159662781" lon="9.387339353985514"><ele>531.0</ele><time>2026-05-02T09:51:38.003Z</time></trkpt><trkpt lat="40.72795727814586" lon="9.387201021666236"><ele>531.0</ele><time>2026-05-02T09:51:39.003Z</time></trkpt><trkpt lat="40.727911809608905" lon="9.387030783210145"><ele>531.0</ele><time>2026-05-02T09:51:40.001Z</time></trkpt><trkpt lat="40.727869959037875" lon="9.386849322771187"><ele>531.0</ele><time>2026-05-02T09:51:41.001Z</time></trkpt><trkpt lat="40.72783060769346" lon="9.386667697927361"><ele>532.25</ele><time>2026-05-02T09:51:42.001Z</time></trkpt><trkpt lat="40.72779639742396" lon="9.386497856537249"><ele>533.5</ele><time>2026-05-02T09:51:43.001Z</time></trkpt><trkpt lat="40.727759899052764" lon="9.386332190218656"><ele>534.75</ele><time>2026-05-02T09:51:44.001Z</time></trkpt><trkpt lat="40.72771974221231" lon="9.38617067328998"><ele>536.0</ele><time>2026-05-02T09:51:45.001Z</time></trkpt><trkpt lat="40.72767975287321" lon="9.38601876625528"><ele>536.0</ele><time>2026-05-02T09:51:46.001Z</time></trkpt><trkpt lat="40.72762780142171" lon="9.385880027818665"><ele>536.0</ele><time>2026-05-02T09:51:47.001Z</time></trkpt><trkpt lat="40.727565369453664" lon="9.385753304592857"><ele>536.0</ele><time>2026-05-02T09:51:48.001Z</time></trkpt><trkpt lat="40.72748661873478" lon="9.385646770729611"><ele>536.0</ele><time>2026-05-02T09:51:49.001Z</time></trkpt><trkpt lat="40.7273921957552" lon="9.385560091006122"><ele>536.6</ele><time>2026-05-02T09:51:50.001Z</time></trkpt><trkpt lat="40.727295236211404" lon="9.385484371436766"><ele>537.2</ele><time>2026-05-02T09:51:51.001Z</time></trkpt><trkpt lat="40.72719856207136" lon="9.385420114783164"><ele>537.8</ele><time>2026-05-02T09:51:52.001Z</time></trkpt><trkpt lat="40.727095386454614" lon="9.385360938462053"><ele>538.4</ele><time>2026-05-02T09:51:53.001Z</time></trkpt><trkpt lat="40.72699006993563" lon="9.385307125043033"><ele>539.0</ele><time>2026-05-02T09:51:54.001Z</time></trkpt><trkpt lat="40.72688699615252" lon="9.385254537185773"><ele>539.0</ele><time>2026-05-02T09:51:55.001Z</time></trkpt><trkpt lat="40.72678661396539" lon="9.385204922537097"><ele>539.0</ele><time>2026-05-02T09:51:56.001Z</time></trkpt><trkpt lat="40.726685907449635" lon="9.385157107885984"><ele>539.0</ele><time>2026-05-02T09:51:57.001Z</time></trkpt><trkpt lat="40.72657798611747" lon="9.3850986061694"><ele>539.0</ele><time>2026-05-02T09:51:58.001Z</time></trkpt><trkpt lat="40.726462077824465" lon="9.385034429833569"><ele>539.0</ele><time>2026-05-02T09:51:59.001Z</time></trkpt><trkpt lat="40.72633562482455" lon="9.384973273793776"><ele>539.0</ele><time>2026-05-02T09:52:00.001Z</time></trkpt><trkpt lat="40.72621541307637" lon="9.38490409851626"><ele>539.0</ele><time>2026-05-02T09:52:01.001Z</time></trkpt><trkpt lat="40.72611074441806" lon="9.384823207218036"><ele>539.0</ele><time>2026-05-02T09:52:02.001Z</time></trkpt><trkpt lat="40.726014513050536" lon="9.384719035649756"><ele>539.75</ele><time>2026-05-02T09:52:03.001Z</time></trkpt><trkpt lat="40.72592636248987" lon="9.384587082521323"><ele>540.5</ele><time>2026-05-02T09:52:04.001Z</time></trkpt><trkpt lat="40.725842679683055" lon="9.384435019212997"><ele>541.25</ele><time>2026-05-02T09:52:05.001Z</time></trkpt><trkpt lat="40.72575199023493" lon="9.384278951794961"><ele>542.0</ele><time>2026-05-02T09:52:06.001Z</time></trkpt><trkpt lat="40.72566395231269" lon="9.384139641876837"><ele>542.0</ele><time>2026-05-02T09:52:07.001Z</time></trkpt><trkpt lat="40.7255713614806" lon="9.384031731270873"><ele>542.0</ele><time>2026-05-02T09:52:08.001Z</time></trkpt><trkpt lat="40.72546372547387" lon="9.383954910020385"><ele>542.0</ele><time>2026-05-02T09:52:09.001Z</time></trkpt><trkpt lat="40.72533116649032" lon="9.38389634464922"><ele>542.0</ele><time>2026-05-02T09:52:10.001Z</time></trkpt><trkpt lat="40.72518169339128" lon="9.38386213015853"><ele>545.0</ele><time>2026-05-02T09:52:11.001Z</time></trkpt><trkpt lat="40.72502600598222" lon="9.383834142232084"><ele>548.0</ele><time>2026-05-02T09:52:12.001Z</time></trkpt><trkpt lat="40.724866363268376" lon="9.383804133197257"><ele>551.0</ele><time>2026-05-02T09:52:13.001Z</time></trkpt><trkpt lat="40.724700693949785" lon="9.383771429062651"><ele>551.0</ele><time>2026-05-02T09:52:14.001Z</time></trkpt><trkpt lat="40.72453146537778" lon="9.383738630405034"><ele>551.0</ele><time>2026-05-02T09:52:15.001Z</time></trkpt><trkpt lat="40.72435735958521" lon="9.383713527058735"><ele>551.0</ele><time>2026-05-02T09:52:16.001Z</time></trkpt><trkpt lat="40.72417576091743" lon="9.383700369377964"><ele>550.3333333333333</ele><time>2026-05-02T09:52:17.001Z</time></trkpt><trkpt lat="40.72398586456869" lon="9.383701264922891"><ele>549.6666666666666</ele><time>2026-05-02T09:52:18.001Z</time></trkpt><trkpt lat="40.72379209616167" lon="9.383712920820845"><ele>549.0</ele><time>2026-05-02T09:52:19.001Z</time></trkpt><trkpt lat="40.72358841080742" lon="9.38372749727017"><ele>547.0</ele><time>2026-05-02T09:52:20.001Z</time></trkpt><trkpt lat="40.72338033263534" lon="9.383740212668842"><ele>545.0</ele><time>2026-05-02T09:52:21.001Z</time></trkpt><trkpt lat="40.72317223594353" lon="9.383757435938536"><ele>543.0</ele><time>2026-05-02T09:52:22.001Z</time></trkpt><trkpt lat="40.72296707476389" lon="9.38377246373808"><ele>543.0</ele><time>2026-05-02T09:52:23.001Z</time></trkpt><trkpt lat="40.72276032780502" lon="9.383778547512081"><ele>543.0</ele><time>2026-05-02T09:52:24.001Z</time></trkpt><trkpt lat="40.72256359880726" lon="9.383771759611852"><ele>543.0</ele><time>2026-05-02T09:52:25.001Z</time></trkpt><trkpt lat="40.72238195188676" lon="9.383737768372907"><ele>545.0</ele><time>2026-05-02T09:52:26.001Z</time></trkpt><trkpt lat="40.72220243428468" lon="9.383680633319722"><ele>547.0</ele><time>2026-05-02T09:52:27.001Z</time></trkpt><trkpt lat="40.722035312128554" lon="9.38362222702791"><ele>549.0</ele><time>2026-05-02T09:52:28.001Z</time></trkpt><trkpt lat="40.72188433506109" lon="9.383572397819428"><ele>550.5</ele><time>2026-05-02T09:52:29.001Z</time></trkpt><trkpt lat="40.72173995054738" lon="9.38351793702757"><ele>552.0</ele><time>2026-05-02T09:52:30.001Z</time></trkpt><trkpt lat="40.72159873934487" lon="9.383459664379771"><ele>553.5</ele><time>2026-05-02T09:52:31.001Z</time></trkpt><trkpt lat="40.72146003467747" lon="9.383398687054452"><ele>555.0</ele><time>2026-05-02T09:52:32.001Z</time></trkpt><trkpt lat="40.72132289778589" lon="9.383337492588717"><ele>555.0</ele><time>2026-05-02T09:52:33.001Z</time></trkpt><trkpt lat="40.72118478615706" lon="9.383269744611006"><ele>555.0</ele><time>2026-05-02T09:52:34.001Z</time></trkpt><trkpt lat="40.721048437846854" lon="9.383193344153852"><ele>555.0</ele><time>2026-05-02T09:52:35.001Z</time></trkpt><trkpt lat="40.72091248043778" lon="9.38311161759629"><ele>555.0</ele><time>2026-05-02T09:52:36.001Z</time></trkpt><trkpt lat="40.72077292385501" lon="9.383032408985418"><ele>558.0</ele><time>2026-05-02T09:52:37.001Z</time></trkpt><trkpt lat="40.72062956524049" lon="9.38295455074209"><ele>561.0</ele><time>2026-05-02T09:52:38.001Z</time></trkpt><trkpt lat="40.72048631990324" lon="9.382875204811098"><ele>564.0</ele><time>2026-05-02T09:52:39.001Z</time></trkpt><trkpt lat="40.720344114006856" lon="9.38279027694439"><ele>562.6666666666666</ele><time>2026-05-02T09:52:40.001Z</time></trkpt><trkpt lat="40.720201260816964" lon="9.382701199339296"><ele>561.3333333333333</ele><time>2026-05-02T09:52:41.001Z</time></trkpt><trkpt lat="40.720060151990545" lon="9.382609921330095"><ele>560.0</ele><time>2026-05-02T09:52:42.001Z</time></trkpt><trkpt lat="40.719915077362934" lon="9.38251362211512"><ele>560.0</ele><time>2026-05-02T09:52:43.001Z</time></trkpt><trkpt lat="40.7197722963715" lon="9.382413934437924"><ele>560.0</ele><time>2026-05-02T09:52:44.001Z</time></trkpt><trkpt lat="40.71963066466927" lon="9.382312255141033"><ele>560.0</ele><time>2026-05-02T09:52:45.001Z</time></trkpt><trkpt lat="40.719488386986214" lon="9.382211941481957"><ele>562.3333333333333</ele><time>2026-05-02T09:52:46.001Z</time></trkpt><trkpt lat="40.71935327546286" lon="9.3821165177441"><ele>564.6666666666666</ele><time>2026-05-02T09:52:47.001Z</time></trkpt><trkpt lat="40.719215639948956" lon="9.382019563827773"><ele>567.0</ele><time>2026-05-02T09:52:48.001Z</time></trkpt><trkpt lat="40.719079705296075" lon="9.381921260060729"><ele>567.0</ele><time>2026-05-02T09:52:49.001Z</time></trkpt><trkpt lat="40.718936174612644" lon="9.381818364792469"><ele>567.0</ele><time>2026-05-02T09:52:50.001Z</time></trkpt><trkpt lat="40.71879806386594" lon="9.381735534668769"><ele>567.0</ele><time>2026-05-02T09:52:51.001Z</time></trkpt><trkpt lat="40.71866566422535" lon="9.381665725404902"><ele>570.3333333333334</ele><time>2026-05-02T09:52:52.001Z</time></trkpt><trkpt lat="40.718519654036015" lon="9.381612513281768"><ele>573.6666666666667</ele><time>2026-05-02T09:52:53.001Z</time></trkpt><trkpt lat="40.7183688028476" lon="9.381593853594847"><ele>577.0</ele><time>2026-05-02T09:52:54.001Z</time></trkpt><trkpt lat="40.71821447064217" lon="9.38159498554758"><ele>577.0</ele><time>2026-05-02T09:52:55.001Z</time></trkpt><trkpt lat="40.718054468188434" lon="9.38160507481887"><ele>577.0</ele><time>2026-05-02T09:52:56.001Z</time></trkpt><trkpt lat="40.71789140016189" lon="9.381609196748114"><ele>577.0</ele><time>2026-05-02T09:52:57.002Z</time></trkpt><trkpt lat="40.717721793702616" lon="9.38160800415204"><ele>579.0</ele><time>2026-05-02T09:52:58.002Z</time></trkpt><trkpt lat="40.717563373949545" lon="9.381605673598743"><ele>581.0</ele><time>2026-05-02T09:52:59.002Z</time></trkpt><trkpt lat="40.71741297780123" lon="9.381592355283596"><ele>583.0</ele><time>2026-05-02T09:53:00.002Z</time></trkpt><trkpt lat="40.717249091016626" lon="9.381566280467192"><ele>583.0</ele><time>2026-05-02T09:53:01.002Z</time></trkpt><trkpt lat="40.71708246736243" lon="9.381532035876434"><ele>583.0</ele><time>2026-05-02T09:53:02.002Z</time></trkpt><trkpt lat="40.71690953182894" lon="9.381500851155234"><ele>583.0</ele><time>2026-05-02T09:53:03.002Z</time></trkpt><trkpt lat="40.71673628181978" lon="9.381466322288704"><ele>583.3333333333334</ele><time>2026-05-02T09:53:04.002Z</time></trkpt><trkpt lat="40.71658358585154" lon="9.381414743512686"><ele>583.6666666666666</ele><time>2026-05-02T09:53:05.002Z</time></trkpt><trkpt lat="40.716436195056616" lon="9.381323052290098"><ele>584.0</ele><time>2026-05-02T09:53:06.002Z</time></trkpt><trkpt lat="40.716285265971194" lon="9.381200781326129"><ele>584.0</ele><time>2026-05-02T09:53:07.002Z</time></trkpt><trkpt lat="40.71612010402008" lon="9.381064043216016"><ele>584.0</ele><time>2026-05-02T09:53:08.002Z</time></trkpt><trkpt lat="40.71596235319904" lon="9.380930452159333"><ele>584.0</ele><time>2026-05-02T09:53:09.002Z</time></trkpt><trkpt lat="40.71580512174722" lon="9.38079017864442"><ele>586.6666666666666</ele><time>2026-05-02T09:53:10.002Z</time></trkpt><trkpt lat="40.715645464940074" lon="9.38064687215468"><ele>589.3333333333334</ele><time>2026-05-02T09:53:11.002Z</time></trkpt><trkpt lat="40.71548500248228" lon="9.380512276232508"><ele>592.0</ele><time>2026-05-02T09:53:12.002Z</time></trkpt><trkpt lat="40.715313079306696" lon="9.38037342467719"><ele>593.6666666666667</ele><time>2026-05-02T09:53:13.002Z</time></trkpt><trkpt lat="40.715138769559374" lon="9.380229768878248"><ele>595.3333333333334</ele><time>2026-05-02T09:53:14.002Z</time></trkpt><trkpt lat="40.71496307301349" lon="9.380091681014868"><ele>597.0</ele><time>2026-05-02T09:53:15.002Z</time></trkpt><trkpt lat="40.714783472674334" lon="9.379958064620737"><ele>597.0</ele><time>2026-05-02T09:53:16.002Z</time></trkpt><trkpt lat="40.71460430722204" lon="9.3798256742504"><ele>597.0</ele><time>2026-05-02T09:53:17.002Z</time></trkpt><trkpt lat="40.71442431192674" lon="9.379701742315557"><ele>597.0</ele><time>2026-05-02T09:53:18.002Z</time></trkpt><trkpt lat="40.71423905255109" lon="9.37959072522962"><ele>598.0</ele><time>2026-05-02T09:53:19.002Z</time></trkpt><trkpt lat="40.71405318301862" lon="9.37949523180892"><ele>599.0</ele><time>2026-05-02T09:53:20.002Z</time></trkpt><trkpt lat="40.71388585518772" lon="9.379412279871081"><ele>600.0</ele><time>2026-05-02T09:53:21.002Z</time></trkpt><trkpt lat="40.71373348564856" lon="9.379326306190148"><ele>600.0</ele><time>2026-05-02T09:53:22.002Z</time></trkpt><trkpt lat="40.71359099032701" lon="9.379246897535404"><ele>600.0</ele><time>2026-05-02T09:53:23.002Z</time></trkpt><trkpt lat="40.713454343077565" lon="9.379164143090119"><ele>600.0</ele><time>2026-05-02T09:53:24.002Z</time></trkpt><trkpt lat="40.713327424784694" lon="9.37908374025754"><ele>600.0</ele><time>2026-05-02T09:53:25.002Z</time></trkpt><trkpt lat="40.71321138415562" lon="9.378986776786261"><ele>600.0</ele><time>2026-05-02T09:53:26.002Z</time></trkpt><trkpt lat="40.713089453010554" lon="9.378880856436563"><ele>600.0</ele><time>2026-05-02T09:53:27.002Z</time></trkpt><trkpt lat="40.71297085820454" lon="9.37874843954896"><ele>600.0</ele><time>2026-05-02T09:53:28.002Z</time></trkpt><trkpt lat="40.71284544738504" lon="9.378598742615184"><ele>599.6666666666666</ele><time>2026-05-02T09:53:29.002Z</time></trkpt><trkpt lat="40.71271663595386" lon="9.378461412451985"><ele>599.3333333333333</ele><time>2026-05-02T09:53:30.002Z</time></trkpt><trkpt lat="40.71258704560553" lon="9.378314910656542"><ele>599.0</ele><time>2026-05-02T09:53:31.002Z</time></trkpt><trkpt lat="40.71246341727587" lon="9.378162171300394"><ele>599.0</ele><time>2026-05-02T09:53:32.002Z</time></trkpt><trkpt lat="40.71234345073407" lon="9.378000017541899"><ele>599.0</ele><time>2026-05-02T09:53:33.002Z</time></trkpt><trkpt lat="40.712230714871346" lon="9.377844984840037"><ele>599.0</ele><time>2026-05-02T09:53:34.002Z</time></trkpt><trkpt lat="40.71212361739607" lon="9.377701243229522"><ele>599.0</ele><time>2026-05-02T09:53:35.002Z</time></trkpt><trkpt lat="40.71202330088641" lon="9.377565507868958"><ele>599.0</ele><time>2026-05-02T09:53:36.002Z</time></trkpt><trkpt lat="40.711924177454165" lon="9.37743056347387"><ele>599.0</ele><time>2026-05-02T09:53:37.002Z</time></trkpt><trkpt lat="40.71182783372168" lon="9.377289049672367"><ele>599.0</ele><time>2026-05-02T09:53:38.002Z</time></trkpt><trkpt lat="40.71173952576484" lon="9.377145703114445"><ele>599.5</ele><time>2026-05-02T09:53:39.002Z</time></trkpt><trkpt lat="40.71165179948338" lon="9.376999045890514"><ele>600.0</ele><time>2026-05-02T09:53:40.002Z</time></trkpt><trkpt lat="40.71156359681041" lon="9.3768491505466"><ele>600.5</ele><time>2026-05-02T09:53:41.002Z</time></trkpt><trkpt lat="40.711474111633194" lon="9.376696556690487"><ele>601.0</ele><time>2026-05-02T09:53:42.002Z</time></trkpt><trkpt lat="40.71138146795507" lon="9.376538096005675"><ele>601.0</ele><time>2026-05-02T09:53:43.002Z</time></trkpt><trkpt lat="40.71128871259421" lon="9.37637779289567"><ele>601.0</ele><time>2026-05-02T09:53:44.002Z</time></trkpt><trkpt lat="40.7111917562273" lon="9.376212930161204"><ele>601.0</ele><time>2026-05-02T09:53:45.002Z</time></trkpt><trkpt lat="40.711093532091276" lon="9.376043995750825"><ele>601.0</ele><time>2026-05-02T09:53:46Z</time></trkpt><trkpt lat="40.71099693079463" lon="9.37587123743759"><ele>601.0</ele><time>2026-05-02T09:53:47Z</time></trkpt><trkpt lat="40.710906372834806" lon="9.37569488766697"><ele>601.0</ele><time>2026-05-02T09:53:48Z</time></trkpt><trkpt lat="40.710828988200525" lon="9.375509612393389"><ele>601.0</ele><time>2026-05-02T09:53:49Z</time></trkpt><trkpt lat="40.71077454242884" lon="9.375317196867599"><ele>601.0</ele><time>2026-05-02T09:53:50Z</time></trkpt><trkpt lat="40.71072909010056" lon="9.375113296260748"><ele>601.0</ele><time>2026-05-02T09:53:51Z</time></trkpt><trkpt lat="40.71068584805623" lon="9.374903921632681"><ele>601.0</ele><time>2026-05-02T09:53:52Z</time></trkpt><trkpt lat="40.7106436995824" lon="9.374694487077447"><ele>601.0</ele><time>2026-05-02T09:53:53Z</time></trkpt><trkpt lat="40.710597083892246" lon="9.374488099209563"><ele>601.0</ele><time>2026-05-02T09:53:54Z</time></trkpt><trkpt lat="40.710541792089415" lon="9.374286007483532"><ele>601.0</ele><time>2026-05-02T09:53:55Z</time></trkpt><trkpt lat="40.71047145549427" lon="9.374088779648893"><ele>601.0</ele><time>2026-05-02T09:53:56Z</time></trkpt><trkpt lat="40.710386814716955" lon="9.37389440988129"><ele>601.0</ele><time>2026-05-02T09:53:57Z</time></trkpt><trkpt lat="40.710291413873065" lon="9.373706963131193"><ele>602.6666666666667</ele><time>2026-05-02T09:53:58Z</time></trkpt><trkpt lat="40.710187361102555" lon="9.37352500902387"><ele>604.3333333333334</ele><time>2026-05-02T09:53:59Z</time></trkpt><trkpt lat="40.71008399909327" lon="9.373349150100378"><ele>606.0</ele><time>2026-05-02T09:54:00Z</time></trkpt><trkpt lat="40.7099796639263" lon="9.3731793328408"><ele>607.0</ele><time>2026-05-02T09:54:01Z</time></trkpt><trkpt lat="40.70987337138371" lon="9.373012309079456"><ele>608.0</ele><time>2026-05-02T09:54:02Z</time></trkpt><trkpt lat="40.709770361571294" lon="9.372852767928558"><ele>609.0</ele><time>2026-05-02T09:54:03Z</time></trkpt><trkpt lat="40.70965845804315" lon="9.372703871076492"><ele>609.0</ele><time>2026-05-02T09:54:04Z</time></trkpt><trkpt lat="40.70957955724189" lon="9.372547187223127"><ele>609.0</ele><time>2026-05-02T09:54:05Z</time></trkpt><trkpt lat="40.709491311373604" lon="9.37240986607148"><ele>609.0</ele><time>2026-05-02T09:54:06Z</time></trkpt><trkpt lat="40.70940704121158" lon="9.372299907617894"><ele>609.0</ele><time>2026-05-02T09:54:07Z</time></trkpt><trkpt lat="40.70932011528607" lon="9.372220021176362"><ele>610.4</ele><time>2026-05-02T09:54:08Z</time></trkpt><trkpt lat="40.70922697742258" lon="9.372163570961993"><ele>611.8</ele><time>2026-05-02T09:54:09Z</time></trkpt><trkpt lat="40.709124007775905" lon="9.372114596628325"><ele>613.2</ele><time>2026-05-02T09:54:10Z</time></trkpt><trkpt lat="40.709019434141176" lon="9.372068114574851"><ele>614.6</ele><time>2026-05-02T09:54:11Z</time></trkpt><trkpt lat="40.708908752507156" lon="9.372021422249171"><ele>616.0</ele><time>2026-05-02T09:54:12Z</time></trkpt><trkpt lat="40.7088004261169" lon="9.37196395124762"><ele>616.0</ele><time>2026-05-02T09:54:13Z</time></trkpt><trkpt lat="40.708705059933074" lon="9.371892990038052"><ele>616.0</ele><time>2026-05-02T09:54:14Z</time></trkpt><trkpt lat="40.70863276029548" lon="9.3718124533057"><ele>616.0</ele><time>2026-05-02T09:54:15Z</time></trkpt><trkpt lat="40.708563938228586" lon="9.371725658390712"><ele>616.0</ele><time>2026-05-02T09:54:16Z</time></trkpt><trkpt lat="40.70854200576914" lon="9.371639844132837"><ele>616.0</ele><time>2026-05-02T09:54:17Z</time></trkpt><trkpt lat="40.7085220900605" lon="9.371554526361255"><ele>616.0</ele><time>2026-05-02T09:54:18Z</time></trkpt><trkpt lat="40.708503446180785" lon="9.37147418463934"><ele>616.6666666666667</ele><time>2026-05-02T09:54:20Z</time></trkpt><trkpt lat="40.70843623553622" lon="9.371405550130262"><ele>617.3333333333334</ele><time>2026-05-02T09:54:23Z</time></trkpt><trkpt lat="40.70836754675977" lon="9.371407814361751"><ele>618.0</ele><time>2026-05-02T09:54:24Z</time></trkpt><trkpt lat="40.70828545475423" lon="9.371422332433252"><ele>618.6666666666666</ele><time>2026-05-02T09:54:25Z</time></trkpt><trkpt lat="40.708203973031445" lon="9.37143146379423"><ele>619.3333333333333</ele><time>2026-05-02T09:54:26.001Z</time></trkpt><trkpt lat="40.708110857994626" lon="9.37144065121219"><ele>620.0</ele><time>2026-05-02T09:54:27.001Z</time></trkpt><trkpt lat="40.70800472599789" lon="9.371446460235452"><ele>620.0</ele><time>2026-05-02T09:54:28.001Z</time></trkpt><trkpt lat="40.70788564473921" lon="9.371452382278994"><ele>620.0</ele><time>2026-05-02T09:54:29.001Z</time></trkpt><trkpt lat="40.70775473949197" lon="9.371457925685478"><ele>620.0</ele><time>2026-05-02T09:54:30.001Z</time></trkpt><trkpt lat="40.70761281940436" lon="9.3714654479391"><ele>620.0</ele><time>2026-05-02T09:54:31.001Z</time></trkpt><trkpt lat="40.70745989946492" lon="9.371477903894556"><ele>621.0</ele><time>2026-05-02T09:54:32.001Z</time></trkpt><trkpt lat="40.707297718157115" lon="9.371491772556196"><ele>622.0</ele><time>2026-05-02T09:54:33.001Z</time></trkpt><trkpt lat="40.70712765360551" lon="9.371505303860141"><ele>623.0</ele><time>2026-05-02T09:54:34.001Z</time></trkpt><trkpt lat="40.7069484713737" lon="9.371517950273097"><ele>624.3333333333333</ele><time>2026-05-02T09:54:35.001Z</time></trkpt><trkpt lat="40.70676484442697" lon="9.371515101386002"><ele>625.6666666666666</ele><time>2026-05-02T09:54:36.001Z</time></trkpt><trkpt lat="40.70657070533644" lon="9.371485206848885"><ele>627.0</ele><time>2026-05-02T09:54:37.001Z</time></trkpt><trkpt lat="40.706374262727856" lon="9.371429307370951"><ele>627.0</ele><time>2026-05-02T09:54:38.001Z</time></trkpt><trkpt lat="40.70616924544441" lon="9.371372334131888"><ele>627.0</ele><time>2026-05-02T09:54:39.001Z</time></trkpt><trkpt lat="40.705958869636035" lon="9.371321410444306"><ele>627.0</ele><time>2026-05-02T09:54:40.001Z</time></trkpt><trkpt lat="40.70573794626389" lon="9.371284162925086"><ele>626.6666666666666</ele><time>2026-05-02T09:54:41.001Z</time></trkpt><trkpt lat="40.7055199517538" lon="9.371272511319958"><ele>626.3333333333333</ele><time>2026-05-02T09:54:42.001Z</time></trkpt><trkpt lat="40.70530079820661" lon="9.371281670337279"><ele>626.0</ele><time>2026-05-02T09:54:43.001Z</time></trkpt><trkpt lat="40.70508900930573" lon="9.371300320635727"><ele>627.0</ele><time>2026-05-02T09:54:44.001Z</time></trkpt><trkpt lat="40.70488556743484" lon="9.371327026313146"><ele>628.0</ele><time>2026-05-02T09:54:45.001Z</time></trkpt><trkpt lat="40.704682835035285" lon="9.371366392025337"><ele>629.0</ele><time>2026-05-02T09:54:46.001Z</time></trkpt><trkpt lat="40.704475423847946" lon="9.371438873927378"><ele>635.0</ele><time>2026-05-02T09:54:47.001Z</time></trkpt><trkpt lat="40.70426023876707" lon="9.371528409537014"><ele>641.0</ele><time>2026-05-02T09:54:48.001Z</time></trkpt><trkpt lat="40.70402746089196" lon="9.371627596133653"><ele>641.0</ele><time>2026-05-02T09:54:49.001Z</time></trkpt><trkpt lat="40.70381230330889" lon="9.371725610072069"><ele>641.0</ele><time>2026-05-02T09:54:50.001Z</time></trkpt><trkpt lat="40.70361853900192" lon="9.371807375639001"><ele>641.0</ele><time>2026-05-02T09:54:51.001Z</time></trkpt><trkpt lat="40.70344696518943" lon="9.371889838437014"><ele>641.6666666666666</ele><time>2026-05-02T09:54:52.001Z</time></trkpt><trkpt lat="40.70330195605404" lon="9.371983110022127"><ele>642.3333333333334</ele><time>2026-05-02T09:54:53.001Z</time></trkpt><trkpt lat="40.70317775479504" lon="9.372110982582376"><ele>643.0</ele><time>2026-05-02T09:54:54.001Z</time></trkpt><trkpt lat="40.70307513618122" lon="9.372278808703587"><ele>644.6666666666667</ele><time>2026-05-02T09:54:55.001Z</time></trkpt><trkpt lat="40.70297555261401" lon="9.372477911496397"><ele>646.3333333333334</ele><time>2026-05-02T09:54:56.001Z</time></trkpt><trkpt lat="40.70286675864346" lon="9.372684079064715"><ele>648.0</ele><time>2026-05-02T09:54:57.001Z</time></trkpt><trkpt lat="40.70273552503909" lon="9.372885129950276"><ele>651.0</ele><time>2026-05-02T09:54:58.001Z</time></trkpt><trkpt lat="40.702581375196814" lon="9.373069401720175"><ele>654.0</ele><time>2026-05-02T09:54:59.001Z</time></trkpt><trkpt lat="40.70240461283978" lon="9.373245739446034"><ele>657.0</ele><time>2026-05-02T09:55:00.001Z</time></trkpt><trkpt lat="40.70224815205862" lon="9.37340756771008"><ele>657.0</ele><time>2026-05-02T09:55:01.001Z</time></trkpt><trkpt lat="40.702096634331" lon="9.373525398744858"><ele>657.0</ele><time>2026-05-02T09:55:02.001Z</time></trkpt><trkpt lat="40.70193867835545" lon="9.373598662554564"><ele>657.0</ele><time>2026-05-02T09:55:03.001Z</time></trkpt><trkpt lat="40.70176937109809" lon="9.373621957320136"><ele>657.0</ele><time>2026-05-02T09:55:04.001Z</time></trkpt><trkpt lat="40.70159608536626" lon="9.373631328531413"><ele>657.0</ele><time>2026-05-02T09:55:05.001Z</time></trkpt><trkpt lat="40.70143373228049" lon="9.373641128510734"><ele>657.0</ele><time>2026-05-02T09:55:06.001Z</time></trkpt><trkpt lat="40.701274372778514" lon="9.373655647821822"><ele>657.0</ele><time>2026-05-02T09:55:07.001Z</time></trkpt><trkpt lat="40.70111708994741" lon="9.373688100762324"><ele>657.0</ele><time>2026-05-02T09:55:08.001Z</time></trkpt><trkpt lat="40.70098336617334" lon="9.373748021864026"><ele>657.0</ele><time>2026-05-02T09:55:09.001Z</time></trkpt><trkpt lat="40.700869704695926" lon="9.373849163508083"><ele>657.0</ele><time>2026-05-02T09:55:10.001Z</time></trkpt><trkpt lat="40.70077546911382" lon="9.37399379466939"><ele>658.5</ele><time>2026-05-02T09:55:11.001Z</time></trkpt><trkpt lat="40.70068606184031" lon="9.374167867513176"><ele>660.0</ele><time>2026-05-02T09:55:12.001Z</time></trkpt><trkpt lat="40.70059376397153" lon="9.374305534311734"><ele>661.5</ele><time>2026-05-02T09:55:13.001Z</time></trkpt><trkpt lat="40.70048357671269" lon="9.374408162677256"><ele>663.0</ele><time>2026-05-02T09:55:14.001Z</time></trkpt><trkpt lat="40.70035619119955" lon="9.374446812632065"><ele>662.0</ele><time>2026-05-02T09:55:15.001Z</time></trkpt><trkpt lat="40.70021749024548" lon="9.374435950802926"><ele>661.0</ele><time>2026-05-02T09:55:16.001Z</time></trkpt><trkpt lat="40.70005896269201" lon="9.374396364401312"><ele>660.0</ele><time>2026-05-02T09:55:17.001Z</time></trkpt><trkpt lat="40.699874357232396" lon="9.374364005988069"><ele>660.0</ele><time>2026-05-02T09:55:18.002Z</time></trkpt><trkpt lat="40.699674105109374" lon="9.374339895670243"><ele>660.0</ele><time>2026-05-02T09:55:19.002Z</time></trkpt><trkpt lat="40.69946461213222" lon="9.37430869086121"><ele>660.0</ele><time>2026-05-02T09:55:20.002Z</time></trkpt><trkpt lat="40.6992538830091" lon="9.37427731906217"><ele>659.0</ele><time>2026-05-02T09:55:21.002Z</time></trkpt><trkpt lat="40.69905011453937" lon="9.374242298516233"><ele>658.0</ele><time>2026-05-02T09:55:22.002Z</time></trkpt><trkpt lat="40.698853143442406" lon="9.374211959800219"><ele>657.0</ele><time>2026-05-02T09:55:23.002Z</time></trkpt><trkpt lat="40.69867036303797" lon="9.374192771644548"><ele>654.6666666666666</ele><time>2026-05-02T09:55:24.002Z</time></trkpt><trkpt lat="40.698511672001615" lon="9.374203252067234"><ele>652.3333333333333</ele><time>2026-05-02T09:55:25.002Z</time></trkpt><trkpt lat="40.69836037331849" lon="9.374247895208583"><ele>650.0</ele><time>2026-05-02T09:55:26.002Z</time></trkpt><trkpt lat="40.69822162529208" lon="9.374319364125205"><ele>650.0</ele><time>2026-05-02T09:55:27.002Z</time></trkpt><trkpt lat="40.69809057367249" lon="9.37438477049234"><ele>650.0</ele><time>2026-05-02T09:55:28.002Z</time></trkpt><trkpt lat="40.69795165389027" lon="9.3744080700724"><ele>650.0</ele><time>2026-05-02T09:55:29.002Z</time></trkpt><trkpt lat="40.69780043058088" lon="9.374374305816337"><ele>650.0</ele><time>2026-05-02T09:55:30.002Z</time></trkpt><trkpt lat="40.697640414531655" lon="9.374294687658363"><ele>648.0</ele><time>2026-05-02T09:55:31.002Z</time></trkpt><trkpt lat="40.69747957275168" lon="9.374206074960632"><ele>646.0</ele><time>2026-05-02T09:55:32.002Z</time></trkpt><trkpt lat="40.69733341294277" lon="9.374125968526402"><ele>644.0</ele><time>2026-05-02T09:55:33.002Z</time></trkpt><trkpt lat="40.69720642686386" lon="9.374027443611386"><ele>644.0</ele><time>2026-05-02T09:55:34.002Z</time></trkpt><trkpt lat="40.69709677562419" lon="9.373893233575837"><ele>644.0</ele><time>2026-05-02T09:55:35.002Z</time></trkpt><trkpt lat="40.696989565917164" lon="9.373720185713323"><ele>644.0</ele><time>2026-05-02T09:55:36.002Z</time></trkpt><trkpt lat="40.69688498841062" lon="9.373534585462144"><ele>641.0</ele><time>2026-05-02T09:55:37.002Z</time></trkpt><trkpt lat="40.69677955091057" lon="9.373372542565384"><ele>638.0</ele><time>2026-05-02T09:55:38.002Z</time></trkpt><trkpt lat="40.69666332643301" lon="9.373239511480365"><ele>635.0</ele><time>2026-05-02T09:55:39.002Z</time></trkpt><trkpt lat="40.69653354555614" lon="9.373135951405443"><ele>635.0</ele><time>2026-05-02T09:55:40.002Z</time></trkpt><trkpt lat="40.6963998733903" lon="9.373066591689167"><ele>635.0</ele><time>2026-05-02T09:55:41.002Z</time></trkpt><trkpt lat="40.69625825807692" lon="9.373032892757799"><ele>635.0</ele><time>2026-05-02T09:55:42.002Z</time></trkpt><trkpt lat="40.69610800615506" lon="9.373035243727013"><ele>635.0</ele><time>2026-05-02T09:55:43.002Z</time></trkpt><trkpt lat="40.695949099730086" lon="9.373073363779223"><ele>632.3333333333333</ele><time>2026-05-02T09:55:44.002Z</time></trkpt><trkpt lat="40.6957921454972" lon="9.373152706411572"><ele>629.6666666666666</ele><time>2026-05-02T09:55:45.002Z</time></trkpt><trkpt lat="40.69563586612795" lon="9.373273779024396"><ele>627.0</ele><time>2026-05-02T09:55:46.002Z</time></trkpt><trkpt lat="40.695471656785536" lon="9.37341938179802"><ele>627.0</ele><time>2026-05-02T09:55:47.002Z</time></trkpt><trkpt lat="40.69529456746404" lon="9.3735800369706"><ele>627.0</ele><time>2026-05-02T09:55:48.002Z</time></trkpt><trkpt lat="40.695112888059086" lon="9.373731348641403"><ele>627.0</ele><time>2026-05-02T09:55:49.002Z</time></trkpt><trkpt lat="40.69492553874612" lon="9.37385539059957"><ele>625.3333333333334</ele><time>2026-05-02T09:55:50.002Z</time></trkpt><trkpt lat="40.6947274566301" lon="9.373956350235275"><ele>623.6666666666667</ele><time>2026-05-02T09:55:51.002Z</time></trkpt><trkpt lat="40.69452545173968" lon="9.374026521332723"><ele>622.0</ele><time>2026-05-02T09:55:51.999Z</time></trkpt><trkpt lat="40.69431671106564" lon="9.374065456600249"><ele>621.0</ele><time>2026-05-02T09:55:52.999Z</time></trkpt><trkpt lat="40.694106437898306" lon="9.374076265334663"><ele>620.0</ele><time>2026-05-02T09:55:53.999Z</time></trkpt><trkpt lat="40.6938988283754" lon="9.374058148944007"><ele>619.0</ele><time>2026-05-02T09:55:54.999Z</time></trkpt><trkpt lat="40.69370673489707" lon="9.374012013130473"><ele>618.6666666666667</ele><time>2026-05-02T09:55:55.999Z</time></trkpt><trkpt lat="40.693526245995194" lon="9.373937835374097"><ele>618.3333333333334</ele><time>2026-05-02T09:55:56.999Z</time></trkpt><trkpt lat="40.693355876561824" lon="9.373839332964257"><ele>618.0</ele><time>2026-05-02T09:55:57.999Z</time></trkpt><trkpt lat="40.69318454419781" lon="9.373717047363355"><ele>618.0</ele><time>2026-05-02T09:55:58.999Z</time></trkpt><trkpt lat="40.69302239597296" lon="9.373571611161212"><ele>618.0</ele><time>2026-05-02T09:55:59.999Z</time></trkpt><trkpt lat="40.69286515850605" lon="9.373401641054395"><ele>618.0</ele><time>2026-05-02T09:56:00.999Z</time></trkpt><trkpt lat="40.69272095628216" lon="9.373208340807704"><ele>615.3333333333334</ele><time>2026-05-02T09:56:01.999Z</time></trkpt><trkpt lat="40.69258503736608" lon="9.372998212242337"><ele>612.6666666666667</ele><time>2026-05-02T09:56:02.999Z</time></trkpt><trkpt lat="40.692454986676076" lon="9.372805861019382"><ele>610.0</ele><time>2026-05-02T09:56:03.999Z</time></trkpt><trkpt lat="40.69231760762163" lon="9.372645879995122"><ele>610.0</ele><time>2026-05-02T09:56:04.999Z</time></trkpt><trkpt lat="40.69216135146315" lon="9.372514996925723"><ele>610.0</ele><time>2026-05-02T09:56:06Z</time></trkpt><trkpt lat="40.69198646926276" lon="9.372412296750426"><ele>610.0</ele><time>2026-05-02T09:56:07Z</time></trkpt><trkpt lat="40.69179780923101" lon="9.37233903002976"><ele>609.0</ele><time>2026-05-02T09:56:08Z</time></trkpt><trkpt lat="40.69161723965526" lon="9.372283463504344"><ele>608.0</ele><time>2026-05-02T09:56:09Z</time></trkpt><trkpt lat="40.69145260125009" lon="9.372222531562251"><ele>607.0</ele><time>2026-05-02T09:56:10Z</time></trkpt><trkpt lat="40.69129942439825" lon="9.372138292831862"><ele>607.0</ele><time>2026-05-02T09:56:11Z</time></trkpt><trkpt lat="40.69115165679887" lon="9.372013776325026"><ele>607.0</ele><time>2026-05-02T09:56:12Z</time></trkpt><trkpt lat="40.69101619344135" lon="9.371853410374591"><ele>607.0</ele><time>2026-05-02T09:56:13Z</time></trkpt><trkpt lat="40.69089231218667" lon="9.371655673705098"><ele>607.0</ele><time>2026-05-02T09:56:14Z</time></trkpt><trkpt lat="40.69077641367811" lon="9.371428988016504"><ele>607.0</ele><time>2026-05-02T09:56:15Z</time></trkpt><trkpt lat="40.6906631494481" lon="9.371188442542694"><ele>607.0</ele><time>2026-05-02T09:56:16Z</time></trkpt><trkpt lat="40.690543093468364" lon="9.37093328256518"><ele>607.0</ele><time>2026-05-02T09:56:17Z</time></trkpt><trkpt lat="40.69042157873175" lon="9.370696661857833"><ele>607.0</ele><time>2026-05-02T09:56:18Z</time></trkpt><trkpt lat="40.690286328948375" lon="9.370482050954035"><ele>607.0</ele><time>2026-05-02T09:56:19Z</time></trkpt><trkpt lat="40.69013453293914" lon="9.370303538576799"><ele>606.0</ele><time>2026-05-02T09:56:20Z</time></trkpt><trkpt lat="40.68996597080138" lon="9.370163341835358"><ele>605.0</ele><time>2026-05-02T09:56:21Z</time></trkpt><trkpt lat="40.689776452355" lon="9.370051133474893"><ele>604.0</ele><time>2026-05-02T09:56:22Z</time></trkpt><trkpt lat="40.68959093742461" lon="9.369957895240717"><ele>602.0</ele><time>2026-05-02T09:56:23Z</time></trkpt><trkpt lat="40.68942513640416" lon="9.369851872909663"><ele>600.0</ele><time>2026-05-02T09:56:24Z</time></trkpt><trkpt lat="40.689280210632404" lon="9.369716128175888"><ele>598.0</ele><time>2026-05-02T09:56:25Z</time></trkpt><trkpt lat="40.68916095957924" lon="9.369546426278873"><ele>598.0</ele><time>2026-05-02T09:56:26Z</time></trkpt><trkpt lat="40.68906649948736" lon="9.369345941503045"><ele>598.0</ele><time>2026-05-02T09:56:27Z</time></trkpt><trkpt lat="40.68899938036422" lon="9.369119577408874"><ele>598.0</ele><time>2026-05-02T09:56:28Z</time></trkpt><trkpt lat="40.68894957254579" lon="9.368859626976587"><ele>598.3333333333334</ele><time>2026-05-02T09:56:29Z</time></trkpt><trkpt lat="40.68890002753904" lon="9.368585393874515"><ele>598.6666666666666</ele><time>2026-05-02T09:56:30Z</time></trkpt><trkpt lat="40.68884752811887" lon="9.368310605263767"><ele>599.0</ele><time>2026-05-02T09:56:31Z</time></trkpt><trkpt lat="40.68879649755724" lon="9.368018378512312"><ele>600.3333333333333</ele><time>2026-05-02T09:56:32Z</time></trkpt><trkpt lat="40.68874456870995" lon="9.367726008378645"><ele>601.6666666666666</ele><time>2026-05-02T09:56:33Z</time></trkpt><trkpt lat="40.68869343507731" lon="9.367446851937846"><ele>603.0</ele><time>2026-05-02T09:56:34Z</time></trkpt><trkpt lat="40.68864447208063" lon="9.367195131510849"><ele>598.3333333333334</ele><time>2026-05-02T09:56:35Z</time></trkpt><trkpt lat="40.68859018300243" lon="9.36698953108877"><ele>593.6666666666667</ele><time>2026-05-02T09:56:36Z</time></trkpt><trkpt lat="40.68852458961577" lon="9.366809999310975"><ele>589.0</ele><time>2026-05-02T09:56:37Z</time></trkpt><trkpt lat="40.68843865939454" lon="9.366665815519347"><ele>589.0</ele><time>2026-05-02T09:56:38.001Z</time></trkpt><trkpt lat="40.688322712879504" lon="9.366567445528945"><ele>589.0</ele><time>2026-05-02T09:56:39.001Z</time></trkpt><trkpt lat="40.68817297528718" lon="9.366489995095119"><ele>589.0</ele><time>2026-05-02T09:56:40.001Z</time></trkpt><trkpt lat="40.688006892129664" lon="9.366402396942444"><ele>590.6666666666667</ele><time>2026-05-02T09:56:41.001Z</time></trkpt><trkpt lat="40.68784274047406" lon="9.366310524021182"><ele>592.3333333333334</ele><time>2026-05-02T09:56:42.001Z</time></trkpt><trkpt lat="40.68771240442132" lon="9.366220811309006"><ele>594.0</ele><time>2026-05-02T09:56:43.001Z</time></trkpt><trkpt lat="40.68761901917514" lon="9.366103628989482"><ele>594.0</ele><time>2026-05-02T09:56:44.001Z</time></trkpt><trkpt lat="40.6875662077017" lon="9.365959353542205"><ele>594.0</ele><time>2026-05-02T09:56:45.001Z</time></trkpt><trkpt lat="40.68754622859353" lon="9.365791902922773"><ele>594.0</ele><time>2026-05-02T09:56:46.001Z</time></trkpt><trkpt lat="40.68755145869565" lon="9.365595889032434"><ele>594.0</ele><time>2026-05-02T09:56:47.001Z</time></trkpt><trkpt lat="40.68757212259803" lon="9.365379457123298"><ele>595.0</ele><time>2026-05-02T09:56:48.001Z</time></trkpt><trkpt lat="40.68758990502025" lon="9.365142358126011"><ele>596.0</ele><time>2026-05-02T09:56:49.001Z</time></trkpt><trkpt lat="40.6875926451857" lon="9.364879237350955"><ele>597.0</ele><time>2026-05-02T09:56:50.001Z</time></trkpt><trkpt lat="40.68758220397517" lon="9.364635562139915"><ele>598.75</ele><time>2026-05-02T09:56:51.001Z</time></trkpt><trkpt lat="40.687574981786916" lon="9.36443074170452"><ele>600.5</ele><time>2026-05-02T09:56:52.001Z</time></trkpt><trkpt lat="40.68756246342056" lon="9.364261985057249"><ele>602.25</ele><time>2026-05-02T09:56:53.001Z</time></trkpt><trkpt lat="40.687523996736196" lon="9.364133558394185"><ele>604.0</ele><time>2026-05-02T09:56:54.001Z</time></trkpt><trkpt lat="40.68745490281618" lon="9.364037209199845"><ele>604.0</ele><time>2026-05-02T09:56:55.001Z</time></trkpt><trkpt lat="40.68735568714304" lon="9.363991537797034"><ele>604.0</ele><time>2026-05-02T09:56:56.001Z</time></trkpt><trkpt lat="40.6872433357549" lon="9.364008062688665"><ele>604.0</ele><time>2026-05-02T09:56:57.001Z</time></trkpt><trkpt lat="40.687112513179244" lon="9.364051126512674"><ele>604.0</ele><time>2026-05-02T09:56:58.001Z</time></trkpt><trkpt lat="40.68697321586975" lon="9.364049480886331"><ele>604.0</ele><time>2026-05-02T09:56:59.001Z</time></trkpt><trkpt lat="40.68683743125057" lon="9.363997257367982"><ele>604.0</ele><time>2026-05-02T09:57:00.001Z</time></trkpt><trkpt lat="40.686686549119514" lon="9.363908804401492"><ele>604.0</ele><time>2026-05-02T09:57:01.001Z</time></trkpt><trkpt lat="40.68652588466963" lon="9.363802684863007"><ele>606.6666666666667</ele><time>2026-05-02T09:57:02.001Z</time></trkpt><trkpt lat="40.686355113671205" lon="9.36368798030893"><ele>609.3333333333334</ele><time>2026-05-02T09:57:03.001Z</time></trkpt><trkpt lat="40.686183427643904" lon="9.363583747854861"><ele>612.0</ele><time>2026-05-02T09:57:04.001Z</time></trkpt><trkpt lat="40.68604706398259" lon="9.363492017459956"><ele>612.0</ele><time>2026-05-02T09:57:05.001Z</time></trkpt><trkpt lat="40.685946702174" lon="9.363391071639978"><ele>612.0</ele><time>2026-05-02T09:57:06.001Z</time></trkpt><trkpt lat="40.68587622266739" lon="9.363263332710993"><ele>612.0</ele><time>2026-05-02T09:57:07.001Z</time></trkpt><trkpt lat="40.68583493098923" lon="9.363099893220536"><ele>612.0</ele><time>2026-05-02T09:57:08.001Z</time></trkpt><trkpt lat="40.68580999022047" lon="9.362898004098684"><ele>612.3333333333334</ele><time>2026-05-02T09:57:09.001Z</time></trkpt><trkpt lat="40.685791811892024" lon="9.362674773750104"><ele>612.6666666666667</ele><time>2026-05-02T09:57:10.001Z</time></trkpt><trkpt lat="40.68577066175821" lon="9.362478512402747"><ele>613.0</ele><time>2026-05-02T09:57:11.001Z</time></trkpt><trkpt lat="40.68573475281902" lon="9.362313504192915"><ele>615.5</ele><time>2026-05-02T09:57:12.001Z</time></trkpt><trkpt lat="40.685670783544964" lon="9.362168173669584"><ele>618.0</ele><time>2026-05-02T09:57:13.001Z</time></trkpt><trkpt lat="40.6855682520933" lon="9.362049267101716"><ele>620.5</ele><time>2026-05-02T09:57:14.001Z</time></trkpt><trkpt lat="40.68543768686487" lon="9.3619713602009"><ele>623.0</ele><time>2026-05-02T09:57:15.001Z</time></trkpt><trkpt lat="40.68533044757186" lon="9.361894417974963"><ele>620.25</ele><time>2026-05-02T09:57:16.001Z</time></trkpt><trkpt lat="40.68524756372146" lon="9.361775671056838"><ele>617.5</ele><time>2026-05-02T09:57:17.001Z</time></trkpt><trkpt lat="40.685183838870316" lon="9.361614874047001"><ele>614.75</ele><time>2026-05-02T09:57:18.001Z</time></trkpt><trkpt lat="40.68510933205983" lon="9.361421417425623"><ele>612.0</ele><time>2026-05-02T09:57:19.001Z</time></trkpt><trkpt lat="40.685004940448245" lon="9.361231684655364"><ele>612.0</ele><time>2026-05-02T09:57:20.001Z</time></trkpt><trkpt lat="40.68487021646155" lon="9.361060621116538"><ele>612.0</ele><time>2026-05-02T09:57:21.001Z</time></trkpt><trkpt lat="40.684712441160855" lon="9.36088297496616"><ele>612.0</ele><time>2026-05-02T09:57:22.001Z</time></trkpt><trkpt lat="40.68455542512258" lon="9.360709980295876"><ele>609.0</ele><time>2026-05-02T09:57:23.001Z</time></trkpt><trkpt lat="40.68442192236053" lon="9.360547796417304"><ele>606.0</ele><time>2026-05-02T09:57:24.002Z</time></trkpt><trkpt lat="40.684319081471" lon="9.360386959018712"><ele>603.0</ele><time>2026-05-02T09:57:25.002Z</time></trkpt><trkpt lat="40.684237320638275" lon="9.36023467521409"><ele>603.0</ele><time>2026-05-02T09:57:26.002Z</time></trkpt><trkpt lat="40.68414863511552" lon="9.360109848399185"><ele>603.0</ele><time>2026-05-02T09:57:27.002Z</time></trkpt><trkpt lat="40.684036506311166" lon="9.360031013566159"><ele>603.0</ele><time>2026-05-02T09:57:28.002Z</time></trkpt><trkpt lat="40.683900772672224" lon="9.359990004835668"><ele>603.0</ele><time>2026-05-02T09:57:29.002Z</time></trkpt><trkpt lat="40.68378520343407" lon="9.359939718790972"><ele>603.0</ele><time>2026-05-02T09:57:30.002Z</time></trkpt><trkpt lat="40.68369147570225" lon="9.359839208791298"><ele>603.0</ele><time>2026-05-02T09:57:31.002Z</time></trkpt><trkpt lat="40.683621626315635" lon="9.359692316130952"><ele>603.0</ele><time>2026-05-02T09:57:32.002Z</time></trkpt><trkpt lat="40.6835586396503" lon="9.35950847450455"><ele>603.0</ele><time>2026-05-02T09:57:33.002Z</time></trkpt><trkpt lat="40.68349023537424" lon="9.35929477536753"><ele>604.75</ele><time>2026-05-02T09:57:34.002Z</time></trkpt><trkpt lat="40.68342772930669" lon="9.359105762823129"><ele>606.5</ele><time>2026-05-02T09:57:35.002Z</time></trkpt><trkpt lat="40.68336117890687" lon="9.358952347289414"><ele>608.25</ele><time>2026-05-02T09:57:36.002Z</time></trkpt><trkpt lat="40.68327656794236" lon="9.358828128136869"><ele>610.0</ele><time>2026-05-02T09:57:37.002Z</time></trkpt><trkpt lat="40.6831803932241" lon="9.358754721363413"><ele>610.0</ele><time>2026-05-02T09:57:38.002Z</time></trkpt><trkpt lat="40.68309092493972" lon="9.35873867981924"><ele>610.0</ele><time>2026-05-02T09:57:39.002Z</time></trkpt><trkpt lat="40.683010926484634" lon="9.358782685654235"><ele>610.0</ele><time>2026-05-02T09:57:40.002Z</time></trkpt><trkpt lat="40.682941715975055" lon="9.358886462479365"><ele>610.0</ele><time>2026-05-02T09:57:41.002Z</time></trkpt><trkpt lat="40.682853479138934" lon="9.359001805403876"><ele>610.0</ele><time>2026-05-02T09:57:42.002Z</time></trkpt><trkpt lat="40.682737000992724" lon="9.359108051663277"><ele>605.75</ele><time>2026-05-02T09:57:43.002Z</time></trkpt><trkpt lat="40.68265282505889" lon="9.359225098116566"><ele>601.5</ele><time>2026-05-02T09:57:44.002Z</time></trkpt><trkpt lat="40.68260710852698" lon="9.359370246438992"><ele>597.25</ele><time>2026-05-02T09:57:45.002Z</time></trkpt><trkpt lat="40.68256235162879" lon="9.359524877025223"><ele>593.0</ele><time>2026-05-02T09:57:46.002Z</time></trkpt><trkpt lat="40.68249429478226" lon="9.359651467020326"><ele>590.5</ele><time>2026-05-02T09:57:47.002Z</time></trkpt><trkpt lat="40.68238904003715" lon="9.35975180496758"><ele>588.0</ele><time>2026-05-02T09:57:48.002Z</time></trkpt><trkpt lat="40.682263147258425" lon="9.359854934519285"><ele>585.5</ele><time>2026-05-02T09:57:49.002Z</time></trkpt><trkpt lat="40.682129411897336" lon="9.35996850306655"><ele>583.0</ele><time>2026-05-02T09:57:50.002Z</time></trkpt><trkpt lat="40.6820120576592" lon="9.360072261464115"><ele>582.75</ele><time>2026-05-02T09:57:51.002Z</time></trkpt><trkpt lat="40.68190277031465" lon="9.36014221394858"><ele>582.5</ele><time>2026-05-02T09:57:52.002Z</time></trkpt><trkpt lat="40.681795297572194" lon="9.36016233977565"><ele>582.25</ele><time>2026-05-02T09:57:53.002Z</time></trkpt><trkpt lat="40.681697868377384" lon="9.360123249755578"><ele>582.0</ele><time>2026-05-02T09:57:54.002Z</time></trkpt><trkpt lat="40.68160732005043" lon="9.360023621807256"><ele>582.0</ele><time>2026-05-02T09:57:55.002Z</time></trkpt><trkpt lat="40.68151924552563" lon="9.359887018940181"><ele>582.0</ele><time>2026-05-02T09:57:56.002Z</time></trkpt><trkpt lat="40.681417191415804" lon="9.35973351646344"><ele>582.0</ele><time>2026-05-02T09:57:57.002Z</time></trkpt><trkpt lat="40.68129742385394" lon="9.359591023037822"><ele>580.6666666666666</ele><time>2026-05-02T09:57:58Z</time></trkpt><trkpt lat="40.68115011481273" lon="9.35945730349235"><ele>579.3333333333333</ele><time>2026-05-02T09:57:59Z</time></trkpt><trkpt lat="40.68100238971063" lon="9.35934146042613"><ele>578.0</ele><time>2026-05-02T09:58:00Z</time></trkpt><trkpt lat="40.68087153795765" lon="9.359221499906"><ele>578.0</ele><time>2026-05-02T09:58:01Z</time></trkpt><trkpt lat="40.680771895438106" lon="9.359087336939446"><ele>578.0</ele><time>2026-05-02T09:58:02Z</time></trkpt><trkpt lat="40.680713263820316" lon="9.358939437723572"><ele>578.0</ele><time>2026-05-02T09:58:03Z</time></trkpt><trkpt lat="40.68068938372343" lon="9.35877193211086"><ele>578.0</ele><time>2026-05-02T09:58:04Z</time></trkpt><trkpt lat="40.680686778779105" lon="9.358596221412286"><ele>578.25</ele><time>2026-05-02T09:58:05Z</time></trkpt><trkpt lat="40.68068759937095" lon="9.358404927608317"><ele>578.5</ele><time>2026-05-02T09:58:06Z</time></trkpt><trkpt lat="40.68067434209123" lon="9.358232911276259"><ele>578.75</ele><time>2026-05-02T09:58:07Z</time></trkpt><trkpt lat="40.68062908190258" lon="9.358088854965915"><ele>579.0</ele><time>2026-05-02T09:58:08Z</time></trkpt><trkpt lat="40.680543492552346" lon="9.357975934505264"><ele>578.3333333333334</ele><time>2026-05-02T09:58:09Z</time></trkpt><trkpt lat="40.68041949044933" lon="9.357895107238257"><ele>577.6666666666667</ele><time>2026-05-02T09:58:10Z</time></trkpt><trkpt lat="40.68026481007595" lon="9.35781157719998"><ele>577.0</ele><time>2026-05-02T09:58:11Z</time></trkpt><trkpt lat="40.6800917171089" lon="9.357721048169093"><ele>575.3333333333334</ele><time>2026-05-02T09:58:12Z</time></trkpt><trkpt lat="40.679900504493325" lon="9.357625283980148"><ele>573.6666666666666</ele><time>2026-05-02T09:58:13Z</time></trkpt><trkpt lat="40.67970115659344" lon="9.357523022022148"><ele>572.0</ele><time>2026-05-02T09:58:14Z</time></trkpt><trkpt lat="40.679495263586375" lon="9.35741519750513"><ele>571.6666666666666</ele><time>2026-05-02T09:58:15Z</time></trkpt><trkpt lat="40.67929997509957" lon="9.357316792678125"><ele>571.3333333333334</ele><time>2026-05-02T09:58:16Z</time></trkpt><trkpt lat="40.67911644099731" lon="9.35722789444737"><ele>571.0</ele><time>2026-05-02T09:58:17Z</time></trkpt><trkpt lat="40.67894847110798" lon="9.357158253120836"><ele>571.0</ele><time>2026-05-02T09:58:18Z</time></trkpt><trkpt lat="40.67879368118631" lon="9.357122261865849"><ele>571.0</ele><time>2026-05-02T09:58:19Z</time></trkpt><trkpt lat="40.67863548340316" lon="9.357133028499454"><ele>571.0</ele><time>2026-05-02T09:58:20Z</time></trkpt><trkpt lat="40.678481224304065" lon="9.357190641975933"><ele>571.3333333333334</ele><time>2026-05-02T09:58:21Z</time></trkpt><trkpt lat="40.678329251989005" lon="9.357293542818416"><ele>571.6666666666666</ele><time>2026-05-02T09:58:22Z</time></trkpt><trkpt lat="40.67817367179124" lon="9.35744085848646"><ele>572.0</ele><time>2026-05-02T09:58:23Z</time></trkpt><trkpt lat="40.678010571177765" lon="9.357604139399855"><ele>572.0</ele><time>2026-05-02T09:58:24Z</time></trkpt><trkpt lat="40.67784402170994" lon="9.35777700818454"><ele>572.0</ele><time>2026-05-02T09:58:25Z</time></trkpt><trkpt lat="40.677668393670345" lon="9.357956873833732"><ele>572.0</ele><time>2026-05-02T09:58:26Z</time></trkpt><trkpt lat="40.67748685477122" lon="9.358144517724043"><ele>573.0</ele><time>2026-05-02T09:58:27Z</time></trkpt><trkpt lat="40.677301647217384" lon="9.358334201155683"><ele>574.0</ele><time>2026-05-02T09:58:28Z</time></trkpt><trkpt lat="40.67712039404692" lon="9.358519605518532"><ele>574.0</ele><time>2026-05-02T09:58:29Z</time></trkpt><trkpt lat="40.67695167068806" lon="9.358682570043076"><ele>574.0</ele><time>2026-05-02T09:58:30Z</time></trkpt><trkpt lat="40.67680576842631" lon="9.358830026581204"><ele>574.0</ele><time>2026-05-02T09:58:31Z</time></trkpt><trkpt lat="40.67667469572197" lon="9.35895913080967"><ele>576.25</ele><time>2026-05-02T09:58:32Z</time></trkpt><trkpt lat="40.676561548831835" lon="9.359070338986259"><ele>578.5</ele><time>2026-05-02T09:58:33Z</time></trkpt><trkpt lat="40.676457750120015" lon="9.359171663260339"><ele>580.75</ele><time>2026-05-02T09:58:34Z</time></trkpt><trkpt lat="40.67634943512478" lon="9.359269966512969"><ele>583.0</ele><time>2026-05-02T09:58:35Z</time></trkpt><trkpt lat="40.67621360456019" lon="9.359360924320502"><ele>584.6666666666667</ele><time>2026-05-02T09:58:36Z</time></trkpt><trkpt lat="40.67609463700939" lon="9.359369992112521"><ele>586.3333333333334</ele><time>2026-05-02T09:58:37Z</time></trkpt><trkpt lat="40.67597484405502" lon="9.359358497805331"><ele>588.0</ele><time>2026-05-02T09:58:38Z</time></trkpt><trkpt lat="40.67571594577131" lon="9.35954420626163"><ele>588.0</ele><time>2026-05-02T09:58:39.001Z</time></trkpt><trkpt lat="40.67558687208487" lon="9.359456654947417"><ele>588.0</ele><time>2026-05-02T09:58:40.001Z</time></trkpt><trkpt lat="40.67547252745539" lon="9.359326770707167"><ele>588.0</ele><time>2026-05-02T09:58:41.001Z</time></trkpt><trkpt lat="40.67534496168841" lon="9.359165275318956"><ele>589.0</ele><time>2026-05-02T09:58:42.001Z</time></trkpt><trkpt lat="40.675200041074625" lon="9.35901300355653"><ele>590.0</ele><time>2026-05-02T09:58:43.001Z</time></trkpt><trkpt lat="40.67505144562375" lon="9.358874292216264"><ele>591.0</ele><time>2026-05-02T09:58:44.001Z</time></trkpt><trkpt lat="40.67493345214433" lon="9.358745350799904"><ele>591.3333333333334</ele><time>2026-05-02T09:58:45.001Z</time></trkpt><trkpt lat="40.67483952302483" lon="9.358594927345404"><ele>591.6666666666667</ele><time>2026-05-02T09:58:46.001Z</time></trkpt><trkpt lat="40.67476140770598" lon="9.358407217490702"><ele>592.0</ele><time>2026-05-02T09:58:47.001Z</time></trkpt><trkpt lat="40.67469367571832" lon="9.358180447061427"><ele>593.0</ele><time>2026-05-02T09:58:48.001Z</time></trkpt><trkpt lat="40.674623276660824" lon="9.357932700541497"><ele>594.0</ele><time>2026-05-02T09:58:49.001Z</time></trkpt><trkpt lat="40.67455883076104" lon="9.357666252005178"><ele>595.0</ele><time>2026-05-02T09:58:50.001Z</time></trkpt><trkpt lat="40.67449261255354" lon="9.357391073652535"><ele>593.3333333333334</ele><time>2026-05-02T09:58:51.001Z</time></trkpt><trkpt lat="40.6744262636232" lon="9.357146293284837"><ele>591.6666666666666</ele><time>2026-05-02T09:58:52.001Z</time></trkpt><trkpt lat="40.67436280205856" lon="9.356929802415143"><ele>590.0</ele><time>2026-05-02T09:58:53.001Z</time></trkpt><trkpt lat="40.67429924713715" lon="9.356745047441535"><ele>590.0</ele><time>2026-05-02T09:58:54.001Z</time></trkpt><trkpt lat="40.67422507845785" lon="9.35660363867611"><ele>590.0</ele><time>2026-05-02T09:58:55.001Z</time></trkpt><trkpt lat="40.67412762973052" lon="9.356521974537724"><ele>590.0</ele><time>2026-05-02T09:58:56.001Z</time></trkpt><trkpt lat="40.67401134283326" lon="9.356498848695308"><ele>590.0</ele><time>2026-05-02T09:58:57.001Z</time></trkpt><trkpt lat="40.67386688317964" lon="9.356508153597835"><ele>590.0</ele><time>2026-05-02T09:58:58.001Z</time></trkpt><trkpt lat="40.67369528915652" lon="9.356522751930354"><ele>590.0</ele><time>2026-05-02T09:58:59.001Z</time></trkpt><trkpt lat="40.67351500828424" lon="9.356519316161927"><ele>590.0</ele><time>2026-05-02T09:59:00.001Z</time></trkpt><trkpt lat="40.67329374521352" lon="9.356523761819549"><ele>590.0</ele><time>2026-05-02T09:59:01.001Z</time></trkpt><trkpt lat="40.67308967828907" lon="9.356508043992031"><ele>590.0</ele><time>2026-05-02T09:59:02.001Z</time></trkpt><trkpt lat="40.672870009782706" lon="9.35649627559242"><ele>590.0</ele><time>2026-05-02T09:59:03.001Z</time></trkpt><trkpt lat="40.67263377858533" lon="9.356475889118261"><ele>591.5</ele><time>2026-05-02T09:59:04.001Z</time></trkpt><trkpt lat="40.672393609164175" lon="9.356460714794515"><ele>593.0</ele><time>2026-05-02T09:59:05.001Z</time></trkpt><trkpt lat="40.67215216264644" lon="9.35644631472119"><ele>593.3333333333333</ele><time>2026-05-02T09:59:06.001Z</time></trkpt><trkpt lat="40.67193260816632" lon="9.35642418270722"><ele>593.6666666666666</ele><time>2026-05-02T09:59:07.001Z</time></trkpt><trkpt lat="40.67172434634713" lon="9.356415241631503"><ele>594.0</ele><time>2026-05-02T09:59:08.001Z</time></trkpt><trkpt lat="40.67155517522411" lon="9.356383442541754"><ele>595.3333333333334</ele><time>2026-05-02T09:59:09.001Z</time></trkpt><trkpt lat="40.67140620780743" lon="9.35634707727349"><ele>596.6666666666667</ele><time>2026-05-02T09:59:10.001Z</time></trkpt><trkpt lat="40.671264036271126" lon="9.356273805378795"><ele>598.0</ele><time>2026-05-02T09:59:11.001Z</time></trkpt><trkpt lat="40.671128105522236" lon="9.35615013560895"><ele>596.3333333333334</ele><time>2026-05-02T09:59:12.001Z</time></trkpt><trkpt lat="40.67098648217384" lon="9.355985413732723"><ele>594.6666666666666</ele><time>2026-05-02T09:59:13.001Z</time></trkpt><trkpt lat="40.67084782705916" lon="9.355821962758762"><ele>593.0</ele><time>2026-05-02T09:59:14.001Z</time></trkpt><trkpt lat="40.67072192285969" lon="9.355638623436977"><ele>593.3333333333333</ele><time>2026-05-02T09:59:15.001Z</time></trkpt><trkpt lat="40.67061011766511" lon="9.355434458727705"><ele>593.6666666666666</ele><time>2026-05-02T09:59:16.001Z</time></trkpt><trkpt lat="40.67051024226526" lon="9.355206345535791"><ele>594.0</ele><time>2026-05-02T09:59:17.001Z</time></trkpt><trkpt lat="40.670425595000076" lon="9.35494663051472"><ele>595.5</ele><time>2026-05-02T09:59:18.001Z</time></trkpt><trkpt lat="40.670350046569894" lon="9.354656020805178"><ele>597.0</ele><time>2026-05-02T09:59:19.001Z</time></trkpt><trkpt lat="40.670280645816526" lon="9.35437009429228"><ele>593.0</ele><time>2026-05-02T09:59:20.001Z</time></trkpt><trkpt lat="40.67020391995725" lon="9.354120797089358"><ele>589.0</ele><time>2026-05-02T09:59:21.001Z</time></trkpt><trkpt lat="40.67013794752867" lon="9.353892556339664"><ele>585.0</ele><time>2026-05-02T09:59:22.001Z</time></trkpt><trkpt lat="40.67007593778694" lon="9.35367944370636"><ele>585.0</ele><time>2026-05-02T09:59:23.002Z</time></trkpt><trkpt lat="40.67003667690033" lon="9.353462867379834"><ele>585.0</ele><time>2026-05-02T09:59:24.002Z</time></trkpt><trkpt lat="40.67001916238048" lon="9.353252921125291"><ele>585.0</ele><time>2026-05-02T09:59:25.002Z</time></trkpt><trkpt lat="40.670011839430316" lon="9.353043239846007"><ele>584.25</ele><time>2026-05-02T09:59:26.002Z</time></trkpt><trkpt lat="40.66998326138575" lon="9.352852244585126"><ele>583.5</ele><time>2026-05-02T09:59:27.002Z</time></trkpt><trkpt lat="40.66992726994897" lon="9.352693046736446"><ele>582.75</ele><time>2026-05-02T09:59:28.002Z</time></trkpt><trkpt lat="40.669841148778815" lon="9.352562164985581"><ele>582.0</ele><time>2026-05-02T09:59:29.002Z</time></trkpt><trkpt lat="40.66972233978353" lon="9.352444311514356"><ele>582.0</ele><time>2026-05-02T09:59:30.002Z</time></trkpt><trkpt lat="40.669582741547885" lon="9.352337239221942"><ele>582.0</ele><time>2026-05-02T09:59:31.002Z</time></trkpt><trkpt lat="40.669447104891354" lon="9.352233263064235"><ele>582.0</ele><time>2026-05-02T09:59:32.002Z</time></trkpt><trkpt lat="40.66932590137361" lon="9.35215733576651"><ele>584.0</ele><time>2026-05-02T09:59:33.002Z</time></trkpt><trkpt lat="40.66919531324824" lon="9.352123701261265"><ele>586.0</ele><time>2026-05-02T09:59:34.002Z</time></trkpt><trkpt lat="40.66903777920211" lon="9.35214208795751"><ele>588.0</ele><time>2026-05-02T09:59:35.002Z</time></trkpt><trkpt lat="40.66886816892275" lon="9.35216137631882"><ele>588.0</ele><time>2026-05-02T09:59:36.002Z</time></trkpt><trkpt lat="40.66870858653772" lon="9.352182670658085"><ele>588.0</ele><time>2026-05-02T09:59:37.002Z</time></trkpt><trkpt lat="40.66857659195369" lon="9.352195762927039"><ele>588.0</ele><time>2026-05-02T09:59:38.002Z</time></trkpt><trkpt lat="40.66845079939435" lon="9.352195155185"><ele>588.0</ele><time>2026-05-02T09:59:39.002Z</time></trkpt><trkpt lat="40.66833583200824" lon="9.35215146258532"><ele>587.75</ele><time>2026-05-02T09:59:40.002Z</time></trkpt><trkpt lat="40.66824730236948" lon="9.35204765230381"><ele>587.5</ele><time>2026-05-02T09:59:41.002Z</time></trkpt><trkpt lat="40.668160730433" lon="9.351917956849022"><ele>587.25</ele><time>2026-05-02T09:59:42.002Z</time></trkpt><trkpt lat="40.668063361251065" lon="9.351795512422592"><ele>587.0</ele><time>2026-05-02T09:59:43.002Z</time></trkpt><trkpt lat="40.66793253097098" lon="9.351688631464642"><ele>587.0</ele><time>2026-05-02T09:59:44.002Z</time></trkpt><trkpt lat="40.66779720192906" lon="9.35160835345144"><ele>587.0</ele><time>2026-05-02T09:59:45.002Z</time></trkpt><trkpt lat="40.66769000281757" lon="9.351499148052238"><ele>587.0</ele><time>2026-05-02T09:59:46.002Z</time></trkpt><trkpt lat="40.66761289428449" lon="9.351346545809454"><ele>587.0</ele><time>2026-05-02T09:59:47.002Z</time></trkpt><trkpt lat="40.66753398627142" lon="9.351198967473268"><ele>588.75</ele><time>2026-05-02T09:59:48.002Z</time></trkpt><trkpt lat="40.667441094036995" lon="9.35108405835151"><ele>590.5</ele><time>2026-05-02T09:59:49.002Z</time></trkpt><trkpt lat="40.667305603264566" lon="9.351021129758534"><ele>592.25</ele><time>2026-05-02T09:59:50.002Z</time></trkpt><trkpt lat="40.66715688642093" lon="9.350964017942763"><ele>594.0</ele><time>2026-05-02T09:59:51.002Z</time></trkpt><trkpt lat="40.66699100928937" lon="9.350896075075173"><ele>596.0</ele><time>2026-05-02T09:59:52.002Z</time></trkpt><trkpt lat="40.66683208598567" lon="9.350778173693875"><ele>598.0</ele><time>2026-05-02T09:59:53.002Z</time></trkpt><trkpt lat="40.6666840864778" lon="9.350613737031313"><ele>600.0</ele><time>2026-05-02T09:59:54.002Z</time></trkpt><trkpt lat="40.666531807243906" lon="9.350445283662197"><ele>600.0</ele><time>2026-05-02T09:59:55.002Z</time></trkpt><trkpt lat="40.66637230669524" lon="9.350272142046764"><ele>600.0</ele><time>2026-05-02T09:59:56.002Z</time></trkpt><trkpt lat="40.666193822719706" lon="9.350106418036232"><ele>600.0</ele><time>2026-05-02T09:59:57.002Z</time></trkpt><trkpt lat="40.666008962434525" lon="9.349941831227325"><ele>597.0</ele><time>2026-05-02T09:59:58.002Z</time></trkpt><trkpt lat="40.66582458662734" lon="9.349786691674984"><ele>594.0</ele><time>2026-05-02T09:59:59.002Z</time></trkpt><trkpt lat="40.66565354361735" lon="9.34964976408475"><ele>591.0</ele><time>2026-05-02T10:00:00.002Z</time></trkpt><trkpt lat="40.66549121146429" lon="9.349532451070399"><ele>591.0</ele><time>2026-05-02T10:00:01.002Z</time></trkpt><trkpt lat="40.66533475496174" lon="9.349439626789215"><ele>591.0</ele><time>2026-05-02T10:00:02.002Z</time></trkpt><trkpt lat="40.665182119676714" lon="9.349366904480926"><ele>591.0</ele><time>2026-05-02T10:00:03.002Z</time></trkpt><trkpt lat="40.66502786617428" lon="9.349332914181527"><ele>588.0</ele><time>2026-05-02T10:00:04Z</time></trkpt><trkpt lat="40.664888091064505" lon="9.349295494486949"><ele>585.0</ele><time>2026-05-02T10:00:05Z</time></trkpt><trkpt lat="40.66475584901134" lon="9.349225070072132"><ele>582.0</ele><time>2026-05-02T10:00:06Z</time></trkpt><trkpt lat="40.66463506102677" lon="9.349105420090812"><ele>579.0</ele><time>2026-05-02T10:00:07Z</time></trkpt><trkpt lat="40.66450905846243" lon="9.348986530236402"><ele>580.0</ele><time>2026-05-02T10:00:08Z</time></trkpt><trkpt lat="40.6643524423659" lon="9.34889614894663"><ele>581.0</ele><time>2026-05-02T10:00:09Z</time></trkpt><trkpt lat="40.66417653760451" lon="9.348815880147521"><ele>582.0</ele><time>2026-05-02T10:00:10Z</time></trkpt><trkpt lat="40.664007736553295" lon="9.34872108481941"><ele>582.0</ele><time>2026-05-02T10:00:11Z</time></trkpt><trkpt lat="40.66385353788485" lon="9.348581319586044"><ele>582.0</ele><time>2026-05-02T10:00:12Z</time></trkpt><trkpt lat="40.6637197386651" lon="9.348432626480847"><ele>582.0</ele><time>2026-05-02T10:00:13Z</time></trkpt><trkpt lat="40.663601811240284" lon="9.34829278594381"><ele>582.3333333333334</ele><time>2026-05-02T10:00:14Z</time></trkpt><trkpt lat="40.66349309046237" lon="9.348164685664273"><ele>582.6666666666667</ele><time>2026-05-02T10:00:15Z</time></trkpt><trkpt lat="40.663368331820074" lon="9.348064194376676"><ele>583.0</ele><time>2026-05-02T10:00:16Z</time></trkpt><trkpt lat="40.663206711924126" lon="9.34800257333345"><ele>583.0</ele><time>2026-05-02T10:00:17Z</time></trkpt><trkpt lat="40.66303757364247" lon="9.347915385936636"><ele>583.0</ele><time>2026-05-02T10:00:18Z</time></trkpt><trkpt lat="40.66286804967656" lon="9.347805791868817"><ele>583.0</ele><time>2026-05-02T10:00:19Z</time></trkpt><trkpt lat="40.66269871797772" lon="9.347698287640604"><ele>579.6666666666667</ele><time>2026-05-02T10:00:20Z</time></trkpt><trkpt lat="40.66252005698183" lon="9.347589346341932"><ele>576.3333333333334</ele><time>2026-05-02T10:00:21Z</time></trkpt><trkpt lat="40.662331564410415" lon="9.347527643415606"><ele>573.0</ele><time>2026-05-02T10:00:22Z</time></trkpt><trkpt lat="40.662149821387956" lon="9.347482005646908"><ele>573.0</ele><time>2026-05-02T10:00:23Z</time></trkpt><trkpt lat="40.6619595176024" lon="9.347445044811748"><ele>573.0</ele><time>2026-05-02T10:00:24Z</time></trkpt><trkpt lat="40.66178974982901" lon="9.34738223976338"><ele>573.0</ele><time>2026-05-02T10:00:25Z</time></trkpt><trkpt lat="40.66162316387644" lon="9.347295776868005"><ele>574.3333333333334</ele><time>2026-05-02T10:00:26Z</time></trkpt><trkpt lat="40.66145234602354" lon="9.347179854641372"><ele>575.6666666666667</ele><time>2026-05-02T10:00:27Z</time></trkpt><trkpt lat="40.66128708868057" lon="9.347056540047554"><ele>577.0</ele><time>2026-05-02T10:00:28Z</time></trkpt><trkpt lat="40.66114258324475" lon="9.346928869297107"><ele>574.75</ele><time>2026-05-02T10:00:29Z</time></trkpt><trkpt lat="40.661013054197966" lon="9.346812567843529"><ele>572.5</ele><time>2026-05-02T10:00:30Z</time></trkpt><trkpt lat="40.66089387743779" lon="9.346710366065063"><ele>570.25</ele><time>2026-05-02T10:00:31Z</time></trkpt><trkpt lat="40.66078817236573" lon="9.346623844359382"><ele>568.0</ele><time>2026-05-02T10:00:32Z</time></trkpt><trkpt lat="40.66068711010549" lon="9.34657068955828"><ele>568.0</ele><time>2026-05-02T10:00:33Z</time></trkpt><trkpt lat="40.66059642716679" lon="9.346575008166434"><ele>568.0</ele><time>2026-05-02T10:00:34Z</time></trkpt><trkpt lat="40.66051389257175" lon="9.34663164396306"><ele>568.0</ele><time>2026-05-02T10:00:35Z</time></trkpt><trkpt lat="40.6604514688069" lon="9.34673325549246"><ele>568.0</ele><time>2026-05-02T10:00:36Z</time></trkpt><trkpt lat="40.660425894993004" lon="9.346871936757806"><ele>568.0</ele><time>2026-05-02T10:00:37Z</time></trkpt><trkpt lat="40.660433414537344" lon="9.347033562907345"><ele>567.25</ele><time>2026-05-02T10:00:38Z</time></trkpt><trkpt lat="40.66044061541124" lon="9.347215628825216"><ele>566.5</ele><time>2026-05-02T10:00:39Z</time></trkpt><trkpt lat="40.66040829022988" lon="9.347379196803939"><ele>565.75</ele><time>2026-05-02T10:00:40Z</time></trkpt><trkpt lat="40.660340408558106" lon="9.347536812031947"><ele>565.0</ele><time>2026-05-02T10:00:41Z</time></trkpt><trkpt lat="40.66024781432504" lon="9.347687101783736"><ele>568.0</ele><time>2026-05-02T10:00:42Z</time></trkpt><trkpt lat="40.66014626912264" lon="9.347816582353367"><ele>571.0</ele><time>2026-05-02T10:00:43Z</time></trkpt><trkpt lat="40.66004227693923" lon="9.347898855030515"><ele>574.0</ele><time>2026-05-02T10:00:44Z</time></trkpt><trkpt lat="40.65992584305594" lon="9.347928308535636"><ele>577.0</ele><time>2026-05-02T10:00:45Z</time></trkpt><trkpt lat="40.6597878065629" lon="9.347948464787946"><ele>577.0</ele><time>2026-05-02T10:00:46.001Z</time></trkpt><trkpt lat="40.65963114251086" lon="9.347954702156601"><ele>577.0</ele><time>2026-05-02T10:00:47.001Z</time></trkpt><trkpt lat="40.65947034328733" lon="9.347935732467844"><ele>577.0</ele><time>2026-05-02T10:00:48.001Z</time></trkpt><trkpt lat="40.65930497258841" lon="9.347885204338878"><ele>577.25</ele><time>2026-05-02T10:00:49.001Z</time></trkpt><trkpt lat="40.6591606589952" lon="9.347813420642469"><ele>577.5</ele><time>2026-05-02T10:00:50.001Z</time></trkpt><trkpt lat="40.659020583408896" lon="9.347748912316169"><ele>577.75</ele><time>2026-05-02T10:00:51.001Z</time></trkpt><trkpt lat="40.65888959678569" lon="9.347713674110059"><ele>578.0</ele><time>2026-05-02T10:00:52.001Z</time></trkpt><trkpt lat="40.658761010421344" lon="9.347717125666836"><ele>578.0</ele><time>2026-05-02T10:00:53.001Z</time></trkpt><trkpt lat="40.65865616108759" lon="9.347760090355644"><ele>578.0</ele><time>2026-05-02T10:00:54.001Z</time></trkpt><trkpt lat="40.658564206155276" lon="9.347828409314886"><ele>578.0</ele><time>2026-05-02T10:00:55.001Z</time></trkpt><trkpt lat="40.658466241980534" lon="9.347888973647667"><ele>578.0</ele><time>2026-05-02T10:00:56.001Z</time></trkpt><trkpt lat="40.65836000196573" lon="9.34791200240119"><ele>578.0</ele><time>2026-05-02T10:00:57.001Z</time></trkpt><trkpt lat="40.65825889114776" lon="9.347902959021008"><ele>577.5</ele><time>2026-05-02T10:00:58.001Z</time></trkpt><trkpt lat="40.658161965905556" lon="9.347873115979146"><ele>577.0</ele><time>2026-05-02T10:00:59.001Z</time></trkpt><trkpt lat="40.65806107332164" lon="9.347813280412273"><ele>576.5</ele><time>2026-05-02T10:01:00.001Z</time></trkpt><trkpt lat="40.65795865687095" lon="9.347730844992522"><ele>576.0</ele><time>2026-05-02T10:01:01.001Z</time></trkpt><trkpt lat="40.65785877263269" lon="9.347636365359223"><ele>574.8</ele><time>2026-05-02T10:01:02.001Z</time></trkpt><trkpt lat="40.657760724225966" lon="9.347546494625144"><ele>573.6</ele><time>2026-05-02T10:01:03.001Z</time></trkpt><trkpt lat="40.65766602659635" lon="9.347457486592896"><ele>572.4</ele><time>2026-05-02T10:01:04.001Z</time></trkpt><trkpt lat="40.657581033798756" lon="9.347373196477827"><ele>571.2</ele><time>2026-05-02T10:01:05.001Z</time></trkpt><trkpt lat="40.65750437060081" lon="9.347295935695112"><ele>570.0</ele><time>2026-05-02T10:01:06.001Z</time></trkpt><trkpt lat="40.65744649914436" lon="9.347213154030925"><ele>570.6</ele><time>2026-05-02T10:01:07.001Z</time></trkpt><trkpt lat="40.65739611234788" lon="9.347114894171183"><ele>571.2</ele><time>2026-05-02T10:01:08.001Z</time></trkpt><trkpt lat="40.657338408270256" lon="9.347030787682128"><ele>571.8</ele><time>2026-05-02T10:01:09.001Z</time></trkpt><trkpt lat="40.65726384248874" lon="9.34698360335209"><ele>572.4</ele><time>2026-05-02T10:01:10.001Z</time></trkpt><trkpt lat="40.657163664533535" lon="9.346968482725364"><ele>573.0</ele><time>2026-05-02T10:01:11.001Z</time></trkpt><trkpt lat="40.65704642508855" lon="9.346957818822114"><ele>573.75</ele><time>2026-05-02T10:01:12.001Z</time></trkpt><trkpt lat="40.65691665445357" lon="9.346914079908133"><ele>574.5</ele><time>2026-05-02T10:01:13.001Z</time></trkpt><trkpt lat="40.656778165243644" lon="9.346851996753019"><ele>575.25</ele><time>2026-05-02T10:01:14.001Z</time></trkpt><trkpt lat="40.65662857160131" lon="9.346781232410095"><ele>576.0</ele><time>2026-05-02T10:01:15.001Z</time></trkpt><trkpt lat="40.656474844092955" lon="9.34669813211814"><ele>576.0</ele><time>2026-05-02T10:01:16.001Z</time></trkpt><trkpt lat="40.65632570167831" lon="9.346601271662395"><ele>576.0</ele><time>2026-05-02T10:01:17.001Z</time></trkpt><trkpt lat="40.656184580182035" lon="9.346473273753642"><ele>576.0</ele><time>2026-05-02T10:01:18.001Z</time></trkpt><trkpt lat="40.65606026954775" lon="9.346319754347203"><ele>580.0</ele><time>2026-05-02T10:01:19.001Z</time></trkpt><trkpt lat="40.65594734133392" lon="9.346140705956765"><ele>584.0</ele><time>2026-05-02T10:01:20.001Z</time></trkpt><trkpt lat="40.6558308741144" lon="9.345908107510489"><ele>588.0</ele><time>2026-05-02T10:01:21.001Z</time></trkpt><trkpt lat="40.6557069676872" lon="9.345674757952473"><ele>589.3333333333334</ele><time>2026-05-02T10:01:22.001Z</time></trkpt><trkpt lat="40.655571580322295" lon="9.345455745295721"><ele>590.6666666666667</ele><time>2026-05-02T10:01:23.001Z</time></trkpt><trkpt lat="40.65542087057408" lon="9.345258478053996"><ele>592.0</ele><time>2026-05-02T10:01:24.001Z</time></trkpt><trkpt lat="40.65525668929707" lon="9.3450839675371"><ele>592.0</ele><time>2026-05-02T10:01:25.001Z</time></trkpt><trkpt lat="40.65507188558147" lon="9.344920790310102"><ele>592.0</ele><time>2026-05-02T10:01:26.001Z</time></trkpt><trkpt lat="40.654888264495916" lon="9.344764002112571"><ele>592.0</ele><time>2026-05-02T10:01:27.001Z</time></trkpt><trkpt lat="40.654723071002635" lon="9.34460787763741"><ele>592.0</ele><time>2026-05-02T10:01:28.001Z</time></trkpt><trkpt lat="40.65458592450809" lon="9.3444371007748"><ele>592.0</ele><time>2026-05-02T10:01:29.002Z</time></trkpt><trkpt lat="40.65446412720159" lon="9.3442536961451"><ele>592.0</ele><time>2026-05-02T10:01:30.002Z</time></trkpt><trkpt lat="40.654359191812965" lon="9.344045976079675"><ele>595.3333333333334</ele><time>2026-05-02T10:01:31.002Z</time></trkpt><trkpt lat="40.65426950398845" lon="9.343834415622819"><ele>598.6666666666666</ele><time>2026-05-02T10:01:32.002Z</time></trkpt><trkpt lat="40.65418550059241" lon="9.343624115308907"><ele>602.0</ele><time>2026-05-02T10:01:33.002Z</time></trkpt><trkpt lat="40.65410706972952" lon="9.343428292185155"><ele>602.0</ele><time>2026-05-02T10:01:34.002Z</time></trkpt><trkpt lat="40.654044367896134" lon="9.343246115847112"><ele>602.0</ele><time>2026-05-02T10:01:35.002Z</time></trkpt><trkpt lat="40.65400271312076" lon="9.343065114315229"><ele>602.0</ele><time>2026-05-02T10:01:36.002Z</time></trkpt><trkpt lat="40.65397502535797" lon="9.342905136158663"><ele>602.0</ele><time>2026-05-02T10:01:37.002Z</time></trkpt><trkpt lat="40.653933715592444" lon="9.34277053249717"><ele>603.4</ele><time>2026-05-02T10:01:38.002Z</time></trkpt><trkpt lat="40.65385449096738" lon="9.342676003024648"><ele>604.8000000000001</ele><time>2026-05-02T10:01:39.002Z</time></trkpt><trkpt lat="40.6537536544014" lon="9.342621699860508"><ele>606.2</ele><time>2026-05-02T10:01:40.002Z</time></trkpt><trkpt lat="40.65364641416401" lon="9.342620054238722"><ele>607.6</ele><time>2026-05-02T10:01:41.002Z</time></trkpt><trkpt lat="40.653536409334045" lon="9.342642261898549"><ele>609.0</ele><time>2026-05-02T10:01:42.002Z</time></trkpt><trkpt lat="40.653424489736246" lon="9.342652743862459"><ele>609.0</ele><time>2026-05-02T10:01:43.002Z</time></trkpt><trkpt lat="40.65330984788556" lon="9.342640814970263"><ele>609.0</ele><time>2026-05-02T10:01:44.002Z</time></trkpt><trkpt lat="40.65319144938167" lon="9.342612146450406"><ele>609.0</ele><time>2026-05-02T10:01:45.002Z</time></trkpt><trkpt lat="40.65308260108103" lon="9.342566006809106"><ele>609.0</ele><time>2026-05-02T10:01:46.002Z</time></trkpt><trkpt lat="40.65298961692111" lon="9.342502806642662"><ele>609.0</ele><time>2026-05-02T10:01:47.002Z</time></trkpt><trkpt lat="40.65290851811826" lon="9.342428753751417"><ele>609.0</ele><time>2026-05-02T10:01:48.002Z</time></trkpt><trkpt lat="40.652843154296654" lon="9.3423502380419"><ele>609.0</ele><time>2026-05-02T10:01:49.002Z</time></trkpt><trkpt lat="40.65277976424031" lon="9.342263287082508"><ele>609.0</ele><time>2026-05-02T10:01:50.002Z</time></trkpt><trkpt lat="40.6527186640663" lon="9.342180861045755"><ele>609.0</ele><time>2026-05-02T10:01:51.002Z</time></trkpt><trkpt lat="40.65266154819171" lon="9.342109766409248"><ele>609.0</ele><time>2026-05-02T10:01:52.002Z</time></trkpt><trkpt lat="40.65260892500855" lon="9.34204851583619"><ele>609.1666666666666</ele><time>2026-05-02T10:01:53.002Z</time></trkpt><trkpt lat="40.65255479904318" lon="9.341988221770656"><ele>609.3333333333334</ele><time>2026-05-02T10:01:54.002Z</time></trkpt><trkpt lat="40.65244927831772" lon="9.341942434759964"><ele>609.5</ele><time>2026-05-02T10:01:56.002Z</time></trkpt><trkpt lat="40.652350268153" lon="9.342004287304247"><ele>609.6666666666667</ele><time>2026-05-02T10:01:58.002Z</time></trkpt><trkpt lat="40.65228479548121" lon="9.342023292082553"><ele>609.8333333333334</ele><time>2026-05-02T10:01:59.002Z</time></trkpt><trkpt lat="40.65221449162098" lon="9.34200515677256"><ele>610.0</ele><time>2026-05-02T10:02:00.002Z</time></trkpt><trkpt lat="40.65214038620008" lon="9.341953592386973"><ele>610.0</ele><time>2026-05-02T10:02:01.002Z</time></trkpt><trkpt lat="40.65205557517082" lon="9.341894826902967"><ele>610.0</ele><time>2026-05-02T10:02:02.002Z</time></trkpt><trkpt lat="40.65196803425547" lon="9.341836316198247"><ele>610.0</ele><time>2026-05-02T10:02:03.002Z</time></trkpt><trkpt lat="40.65187894998905" lon="9.341778008372161"><ele>610.0</ele><time>2026-05-02T10:02:04.002Z</time></trkpt><trkpt lat="40.65178126462875" lon="9.341713072927668"><ele>610.0</ele><time>2026-05-02T10:02:05.002Z</time></trkpt><trkpt lat="40.65167565256212" lon="9.341637067860585"><ele>610.75</ele><time>2026-05-02T10:02:06.002Z</time></trkpt><trkpt lat="40.65156674297203" lon="9.341552117497091"><ele>611.5</ele><time>2026-05-02T10:02:07.002Z</time></trkpt><trkpt lat="40.65145956436451" lon="9.341448285815797"><ele>612.25</ele><time>2026-05-02T10:02:08.002Z</time></trkpt><trkpt lat="40.651358436902385" lon="9.34132059170401"><ele>613.0</ele><time>2026-05-02T10:02:09.002Z</time></trkpt><trkpt lat="40.65126492867973" lon="9.341170862277158"><ele>613.0</ele><time>2026-05-02T10:02:10Z</time></trkpt><trkpt lat="40.65116516397851" lon="9.34100781081484"><ele>613.0</ele><time>2026-05-02T10:02:11Z</time></trkpt><trkpt lat="40.651048791020656" lon="9.340847139684584"><ele>613.0</ele><time>2026-05-02T10:02:12Z</time></trkpt><trkpt lat="40.65091777154057" lon="9.340698301071525"><ele>611.3333333333334</ele><time>2026-05-02T10:02:13Z</time></trkpt><trkpt lat="40.650780645188014" lon="9.340548208783373"><ele>609.6666666666666</ele><time>2026-05-02T10:02:14Z</time></trkpt><trkpt lat="40.65064765016955" lon="9.340383528188212"><ele>608.0</ele><time>2026-05-02T10:02:15Z</time></trkpt><trkpt lat="40.650527167712085" lon="9.340190791896873"><ele>608.0</ele><time>2026-05-02T10:02:16Z</time></trkpt><trkpt lat="40.65041614271137" lon="9.33998008931814"><ele>608.0</ele><time>2026-05-02T10:02:17Z</time></trkpt><trkpt lat="40.65030322404031" lon="9.339755556928834"><ele>608.0</ele><time>2026-05-02T10:02:18Z</time></trkpt><trkpt lat="40.65018586977574" lon="9.339527026831167"><ele>607.3333333333333</ele><time>2026-05-02T10:02:19Z</time></trkpt><trkpt lat="40.65006796276591" lon="9.339292783140825"><ele>606.6666666666666</ele><time>2026-05-02T10:02:20Z</time></trkpt><trkpt lat="40.649947736674456" lon="9.339053491182092"><ele>606.0</ele><time>2026-05-02T10:02:21Z</time></trkpt><trkpt lat="40.649821243857524" lon="9.338810694500854"><ele>611.5</ele><time>2026-05-02T10:02:22Z</time></trkpt><trkpt lat="40.649686072963576" lon="9.33856203788102"><ele>617.0</ele><time>2026-05-02T10:02:23Z</time></trkpt><trkpt lat="40.64954427449435" lon="9.338315354753032"><ele>614.0</ele><time>2026-05-02T10:02:24Z</time></trkpt><trkpt lat="40.64939355035929" lon="9.338077069708298"><ele>611.0</ele><time>2026-05-02T10:02:25Z</time></trkpt><trkpt lat="40.64922463216314" lon="9.337847242707314"><ele>611.0</ele><time>2026-05-02T10:02:26Z</time></trkpt><trkpt lat="40.64903559441793" lon="9.33761930627873"><ele>611.0</ele><time>2026-05-02T10:02:27Z</time></trkpt><trkpt lat="40.64882983559554" lon="9.33740003860496"><ele>615.0</ele><time>2026-05-02T10:02:28Z</time></trkpt><trkpt lat="40.6486070822848" lon="9.337192151729397"><ele>619.0</ele><time>2026-05-02T10:02:29Z</time></trkpt><trkpt lat="40.64837343998624" lon="9.336997023844324"><ele>619.0</ele><time>2026-05-02T10:02:30Z</time></trkpt><trkpt lat="40.64813495691036" lon="9.336812425359415"><ele>619.0</ele><time>2026-05-02T10:02:31Z</time></trkpt><trkpt lat="40.64789527551219" lon="9.336636318947564"><ele>618.5</ele><time>2026-05-02T10:02:32Z</time></trkpt><trkpt lat="40.64768476984137" lon="9.336466350665244"><ele>618.0</ele><time>2026-05-02T10:02:33Z</time></trkpt><trkpt lat="40.64748007242937" lon="9.336283201075137"><ele>622.0</ele><time>2026-05-02T10:02:34Z</time></trkpt><trkpt lat="40.64728191380502" lon="9.336088378301826"><ele>626.0</ele><time>2026-05-02T10:02:35Z</time></trkpt><trkpt lat="40.64709865661139" lon="9.33587355179056"><ele>626.5</ele><time>2026-05-02T10:02:36Z</time></trkpt><trkpt lat="40.6469294657252" lon="9.335646925119956"><ele>627.0</ele><time>2026-05-02T10:02:37Z</time></trkpt><trkpt lat="40.64676938515768" lon="9.33541128761533"><ele>627.0</ele><time>2026-05-02T10:02:38.001Z</time></trkpt><trkpt lat="40.64662270691775" lon="9.335165907191556"><ele>627.0</ele><time>2026-05-02T10:02:39.001Z</time></trkpt><trkpt lat="40.64648625648851" lon="9.334909954112485"><ele>627.5</ele><time>2026-05-02T10:02:40.001Z</time></trkpt><trkpt lat="40.646361970042726" lon="9.334644909137133"><ele>628.0</ele><time>2026-05-02T10:02:41.001Z</time></trkpt><trkpt lat="40.64625257220312" lon="9.334359641065971"><ele>628.0</ele><time>2026-05-02T10:02:42.001Z</time></trkpt><trkpt lat="40.646154740430745" lon="9.334050149340941"><ele>628.0</ele><time>2026-05-02T10:02:43.001Z</time></trkpt><trkpt lat="40.6460742418135" lon="9.333728779287837"><ele>624.0</ele><time>2026-05-02T10:02:44.001Z</time></trkpt><trkpt lat="40.646006014638616" lon="9.333395846749854"><ele>620.0</ele><time>2026-05-02T10:02:45.001Z</time></trkpt><trkpt lat="40.64594057480308" lon="9.333061502668809"><ele>623.0</ele><time>2026-05-02T10:02:46.001Z</time></trkpt><trkpt lat="40.6458683266167" lon="9.33273885969804"><ele>626.0</ele><time>2026-05-02T10:02:47.001Z</time></trkpt><trkpt lat="40.64578877513232" lon="9.332430050240134"><ele>628.5</ele><time>2026-05-02T10:02:48.001Z</time></trkpt><trkpt lat="40.64569961958255" lon="9.332129475501002"><ele>631.0</ele><time>2026-05-02T10:02:49.001Z</time></trkpt><trkpt lat="40.64559865961859" lon="9.331836492681758"><ele>631.0</ele><time>2026-05-02T10:02:50.001Z</time></trkpt><trkpt lat="40.645489230143994" lon="9.33154820904272"><ele>631.0</ele><time>2026-05-02T10:02:51.001Z</time></trkpt><trkpt lat="40.645370981097656" lon="9.331271268674714"><ele>632.5</ele><time>2026-05-02T10:02:52.001Z</time></trkpt><trkpt lat="40.64524118057051" lon="9.331001248086906"><ele>634.0</ele><time>2026-05-02T10:02:53.001Z</time></trkpt><trkpt lat="40.645100235873436" lon="9.330748035284328"><ele>636.5</ele><time>2026-05-02T10:02:54.001Z</time></trkpt><trkpt lat="40.64494741641699" lon="9.330506509053679"><ele>639.0</ele><time>2026-05-02T10:02:55.001Z</time></trkpt><trkpt lat="40.64478210725522" lon="9.33027463282747"><ele>639.0</ele><time>2026-05-02T10:02:56.001Z</time></trkpt><trkpt lat="40.64460767708698" lon="9.33004930746732"><ele>639.0</ele><time>2026-05-02T10:02:57.001Z</time></trkpt><trkpt lat="40.64442023067114" lon="9.329829991565909"><ele>640.0</ele><time>2026-05-02T10:02:58.001Z</time></trkpt><trkpt lat="40.644221180241594" lon="9.329624614792404"><ele>641.0</ele><time>2026-05-02T10:02:59.001Z</time></trkpt><trkpt lat="40.64400745584436" lon="9.32943341776776"><ele>641.0</ele><time>2026-05-02T10:03:00.001Z</time></trkpt><trkpt lat="40.643781131477695" lon="9.329252857494948"><ele>641.0</ele><time>2026-05-02T10:03:01.001Z</time></trkpt><trkpt lat="40.64355443271382" lon="9.329089173337355"><ele>640.0</ele><time>2026-05-02T10:03:02.001Z</time></trkpt><trkpt lat="40.64332469126642" lon="9.328945292744603"><ele>639.0</ele><time>2026-05-02T10:03:03.001Z</time></trkpt><trkpt lat="40.64308407077972" lon="9.328817438766098"><ele>642.0</ele><time>2026-05-02T10:03:04.001Z</time></trkpt><trkpt lat="40.642832180459756" lon="9.328707653026566"><ele>645.0</ele><time>2026-05-02T10:03:05.001Z</time></trkpt><trkpt lat="40.642567045086615" lon="9.32860963753245"><ele>647.0</ele><time>2026-05-02T10:03:06.001Z</time></trkpt><trkpt lat="40.64229435582554" lon="9.328515455197913"><ele>649.0</ele><time>2026-05-02T10:03:07.001Z</time></trkpt><trkpt lat="40.64201204727878" lon="9.328422277544684"><ele>651.5</ele><time>2026-05-02T10:03:08.001Z</time></trkpt><trkpt lat="40.6417316977299" lon="9.328336236210879"><ele>654.0</ele><time>2026-05-02T10:03:09.001Z</time></trkpt><trkpt lat="40.64145965461627" lon="9.328251401116589"><ele>654.0</ele><time>2026-05-02T10:03:10.001Z</time></trkpt><trkpt lat="40.64119903596044" lon="9.328170026847237"><ele>654.0</ele><time>2026-05-02T10:03:11.001Z</time></trkpt><trkpt lat="40.640945680007356" lon="9.328088602248416"><ele>657.0</ele><time>2026-05-02T10:03:12.001Z</time></trkpt><trkpt lat="40.64069537424665" lon="9.3280032139744"><ele>660.0</ele><time>2026-05-02T10:03:13.001Z</time></trkpt><trkpt lat="40.640446589079424" lon="9.327905893250058"><ele>660.0</ele><time>2026-05-02T10:03:14.001Z</time></trkpt><trkpt lat="40.64020519857328" lon="9.327792189698263"><ele>660.0</ele><time>2026-05-02T10:03:15.001Z</time></trkpt><trkpt lat="40.639966847783704" lon="9.327664711371568"><ele>660.0</ele><time>2026-05-02T10:03:16.001Z</time></trkpt><trkpt lat="40.63973451583114" lon="9.327524324097489"><ele>660.0</ele><time>2026-05-02T10:03:17.001Z</time></trkpt><trkpt lat="40.63951024723915" lon="9.327363792905706"><ele>659.0</ele><time>2026-05-02T10:03:18.001Z</time></trkpt><trkpt lat="40.639295077609894" lon="9.327183790896136"><ele>658.0</ele><time>2026-05-02T10:03:19.001Z</time></trkpt><trkpt lat="40.63908709889143" lon="9.326992456781968"><ele>658.0</ele><time>2026-05-02T10:03:20.001Z</time></trkpt><trkpt lat="40.638889654089866" lon="9.326788063815423"><ele>658.0</ele><time>2026-05-02T10:03:21.001Z</time></trkpt><trkpt lat="40.63870466053988" lon="9.326573448172757"><ele>657.5</ele><time>2026-05-02T10:03:22.002Z</time></trkpt><trkpt lat="40.63853738483733" lon="9.326350625247786"><ele>657.0</ele><time>2026-05-02T10:03:23.002Z</time></trkpt><trkpt lat="40.63838032887399" lon="9.326125093320588"><ele>657.0</ele><time>2026-05-02T10:03:24.002Z</time></trkpt><trkpt lat="40.63823148612861" lon="9.325894180636508"><ele>657.0</ele><time>2026-05-02T10:03:25.002Z</time></trkpt><trkpt lat="40.6380977701422" lon="9.325653738370201"><ele>658.5</ele><time>2026-05-02T10:03:26.002Z</time></trkpt><trkpt lat="40.63797266359701" lon="9.32540851315323"><ele>660.0</ele><time>2026-05-02T10:03:27.002Z</time></trkpt><trkpt lat="40.637853119083694" lon="9.325149386007745"><ele>659.0</ele><time>2026-05-02T10:03:28.002Z</time></trkpt><trkpt lat="40.63774548345352" lon="9.324881285717632"><ele>658.0</ele><time>2026-05-02T10:03:29.002Z</time></trkpt><trkpt lat="40.637637252874704" lon="9.324611898136839"><ele>658.0</ele><time>2026-05-02T10:03:30.002Z</time></trkpt><trkpt lat="40.63752956320677" lon="9.324334898237037"><ele>658.0</ele><time>2026-05-02T10:03:31.002Z</time></trkpt><trkpt lat="40.63741886672288" lon="9.324050491183732"><ele>658.5</ele><time>2026-05-02T10:03:32.002Z</time></trkpt><trkpt lat="40.637302309886955" lon="9.323756385918289"><ele>659.0</ele><time>2026-05-02T10:03:33.002Z</time></trkpt><trkpt lat="40.63718539498357" lon="9.323444330534922"><ele>659.0</ele><time>2026-05-02T10:03:34.002Z</time></trkpt><trkpt lat="40.63706122770584" lon="9.323119982556667"><ele>659.0</ele><time>2026-05-02T10:03:35.002Z</time></trkpt><trkpt lat="40.63693302455197" lon="9.322789234580068"><ele>657.0</ele><time>2026-05-02T10:03:36.002Z</time></trkpt><trkpt lat="40.63680463945761" lon="9.32245415979465"><ele>655.0</ele><time>2026-05-02T10:03:37.002Z</time></trkpt><trkpt lat="40.63667725948197" lon="9.322116275163037"><ele>654.5</ele><time>2026-05-02T10:03:38.002Z</time></trkpt><trkpt lat="40.63654758618593" lon="9.32177732410311"><ele>654.0</ele><time>2026-05-02T10:03:39.002Z</time></trkpt><trkpt lat="40.63641986288432" lon="9.321442959540647"><ele>654.0</ele><time>2026-05-02T10:03:40.002Z</time></trkpt><trkpt lat="40.636290621376645" lon="9.321115184766628"><ele>654.0</ele><time>2026-05-02T10:03:41.002Z</time></trkpt><trkpt lat="40.63616512376876" lon="9.320791939220939"><ele>653.0</ele><time>2026-05-02T10:03:42.002Z</time></trkpt><trkpt lat="40.63603820861498" lon="9.320473402891857"><ele>652.0</ele><time>2026-05-02T10:03:43.002Z</time></trkpt><trkpt lat="40.635913644237725" lon="9.32015853076666"><ele>652.0</ele><time>2026-05-02T10:03:44.002Z</time></trkpt><trkpt lat="40.635792068715325" lon="9.319844158494165"><ele>652.0</ele><time>2026-05-02T10:03:45.002Z</time></trkpt><trkpt lat="40.635669990865175" lon="9.319528582698384"><ele>650.0</ele><time>2026-05-02T10:03:46.002Z</time></trkpt><trkpt lat="40.63554657645397" lon="9.319212283539759"><ele>648.0</ele><time>2026-05-02T10:03:47.002Z</time></trkpt><trkpt lat="40.635422063982084" lon="9.318896167772992"><ele>648.5</ele><time>2026-05-02T10:03:48.002Z</time></trkpt><trkpt lat="40.63529719067479" lon="9.318579762289081"><ele>649.0</ele><time>2026-05-02T10:03:49.002Z</time></trkpt><trkpt lat="40.63517159221031" lon="9.318258229028455"><ele>648.0</ele><time>2026-05-02T10:03:50.002Z</time></trkpt><trkpt lat="40.63504710672042" lon="9.317935606093178"><ele>647.0</ele><time>2026-05-02T10:03:51.002Z</time></trkpt><trkpt lat="40.634921867055155" lon="9.317611659322342"><ele>647.0</ele><time>2026-05-02T10:03:52.002Z</time></trkpt><trkpt lat="40.634795825956125" lon="9.317285369475567"><ele>647.0</ele><time>2026-05-02T10:03:53.002Z</time></trkpt><trkpt lat="40.63466973120256" lon="9.316959848069073"><ele>646.0</ele><time>2026-05-02T10:03:54.002Z</time></trkpt><trkpt lat="40.63454699146637" lon="9.31663934170388"><ele>645.0</ele><time>2026-05-02T10:03:55.002Z</time></trkpt><trkpt lat="40.63442569646885" lon="9.316324117592128"><ele>644.5</ele><time>2026-05-02T10:03:56.002Z</time></trkpt><trkpt lat="40.634304682461284" lon="9.316010578086862"><ele>644.0</ele><time>2026-05-02T10:03:57.002Z</time></trkpt><trkpt lat="40.634183383963645" lon="9.31570080118134"><ele>645.0</ele><time>2026-05-02T10:03:58.002Z</time></trkpt><trkpt lat="40.634065903534946" lon="9.315398758034112"><ele>646.0</ele><time>2026-05-02T10:03:59.002Z</time></trkpt><trkpt lat="40.633948321562" lon="9.315094431689207"><ele>646.0</ele><time>2026-05-02T10:04:00.002Z</time></trkpt><trkpt lat="40.6338354047957" lon="9.314799500363824"><ele>646.0</ele><time>2026-05-02T10:04:01.002Z</time></trkpt><trkpt lat="40.63372472931939" lon="9.314514102637125"><ele>646.0</ele><time>2026-05-02T10:04:02.002Z</time></trkpt><trkpt lat="40.63362020175264" lon="9.314244499180989"><ele>646.0</ele><time>2026-05-02T10:04:03.002Z</time></trkpt><trkpt lat="40.63352116909243" lon="9.31399151235722"><ele>646.0</ele><time>2026-05-02T10:04:04.002Z</time></trkpt><trkpt lat="40.63342544076986" lon="9.31374822771809"><ele>646.0</ele><time>2026-05-02T10:04:05.002Z</time></trkpt><trkpt lat="40.63333016474519" lon="9.313509859800508"><ele>646.0</ele><time>2026-05-02T10:04:06.003Z</time></trkpt><trkpt lat="40.6332370516241" lon="9.313270033279869"><ele>646.0</ele><time>2026-05-02T10:04:07.003Z</time></trkpt><trkpt lat="40.63314505128223" lon="9.313033187780261"><ele>645.6666666666667</ele><time>2026-05-02T10:04:08.003Z</time></trkpt><trkpt lat="40.633053910778614" lon="9.312794258771481"><ele>645.3333333333334</ele><time>2026-05-02T10:04:09.003Z</time></trkpt><trkpt lat="40.63296268410964" lon="9.312549215967866"><ele>645.0</ele><time>2026-05-02T10:04:10.003Z</time></trkpt><trkpt lat="40.63286726692958" lon="9.31229918943097"><ele>646.0</ele><time>2026-05-02T10:04:11.003Z</time></trkpt><trkpt lat="40.63276049939066" lon="9.312032838708127"><ele>647.0</ele><time>2026-05-02T10:04:12.003Z</time></trkpt><trkpt lat="40.63264567742236" lon="9.31174937900031"><ele>647.0</ele><time>2026-05-02T10:04:13.003Z</time></trkpt><trkpt lat="40.63252941512419" lon="9.311455518143298"><ele>647.0</ele><time>2026-05-02T10:04:14.003Z</time></trkpt><trkpt lat="40.63241119684731" lon="9.311148299185755"><ele>645.5</ele><time>2026-05-02T10:04:15.003Z</time></trkpt><trkpt lat="40.63229152206603" lon="9.310834778980265"><ele>644.0</ele><time>2026-05-02T10:04:16.001Z</time></trkpt><trkpt lat="40.63216920888043" lon="9.310515565295251"><ele>642.5</ele><time>2026-05-02T10:04:17.001Z</time></trkpt><trkpt lat="40.63204463608261" lon="9.310197128048882"><ele>641.0</ele><time>2026-05-02T10:04:18.001Z</time></trkpt><trkpt lat="40.631918586543954" lon="9.309872867766567"><ele>645.0</ele><time>2026-05-02T10:04:19.001Z</time></trkpt><trkpt lat="40.63179210403214" lon="9.309547081076614"><ele>649.0</ele><time>2026-05-02T10:04:20.001Z</time></trkpt><trkpt lat="40.63166367529957" lon="9.309215007270486"><ele>650.0</ele><time>2026-05-02T10:04:21.001Z</time></trkpt><trkpt lat="40.631535613935284" lon="9.30887996417709"><ele>651.0</ele><time>2026-05-02T10:04:22.001Z</time></trkpt><trkpt lat="40.631407417877256" lon="9.308544525918022"><ele>651.0</ele><time>2026-05-02T10:04:23.001Z</time></trkpt><trkpt lat="40.63127737931657" lon="9.308209450166935"><ele>651.0</ele><time>2026-05-02T10:04:24.001Z</time></trkpt><trkpt lat="40.631146604463865" lon="9.307875017386861"><ele>651.5</ele><time>2026-05-02T10:04:25.001Z</time></trkpt><trkpt lat="40.631013022241916" lon="9.307538604198866"><ele>652.0</ele><time>2026-05-02T10:04:26.001Z</time></trkpt><trkpt lat="40.63087863126858" lon="9.307202924978569"><ele>650.5</ele><time>2026-05-02T10:04:27.001Z</time></trkpt><trkpt lat="40.63074834731143" lon="9.306869100745745"><ele>649.0</ele><time>2026-05-02T10:04:28.001Z</time></trkpt><trkpt lat="40.63062118936898" lon="9.306539062467662"><ele>648.0</ele><time>2026-05-02T10:04:29.001Z</time></trkpt><trkpt lat="40.63049330432386" lon="9.306209913431998"><ele>647.0</ele><time>2026-05-02T10:04:30.001Z</time></trkpt><trkpt lat="40.63036607147112" lon="9.305882868267775"><ele>647.5</ele><time>2026-05-02T10:04:31.001Z</time></trkpt><trkpt lat="40.630238489169734" lon="9.305555302699227"><ele>648.0</ele><time>2026-05-02T10:04:32.001Z</time></trkpt><trkpt lat="40.63011129281636" lon="9.30522829804439"><ele>648.0</ele><time>2026-05-02T10:04:33.001Z</time></trkpt><trkpt lat="40.62998173851093" lon="9.304901898495348"><ele>648.0</ele><time>2026-05-02T10:04:34.001Z</time></trkpt><trkpt lat="40.629847837465086" lon="9.304577887786118"><ele>646.5</ele><time>2026-05-02T10:04:35.001Z</time></trkpt><trkpt lat="40.62970864661149" lon="9.30425634429485"><ele>645.0</ele><time>2026-05-02T10:04:36.001Z</time></trkpt><trkpt lat="40.629563565260526" lon="9.303937979939834"><ele>644.5</ele><time>2026-05-02T10:04:37.001Z</time></trkpt><trkpt lat="40.62941406878983" lon="9.303622529954351"><ele>644.0</ele><time>2026-05-02T10:04:38.001Z</time></trkpt><trkpt lat="40.62926471731243" lon="9.303309920078688"><ele>643.0</ele><time>2026-05-02T10:04:39.001Z</time></trkpt><trkpt lat="40.62911197670527" lon="9.303000037993687"><ele>642.0</ele><time>2026-05-02T10:04:40.001Z</time></trkpt><trkpt lat="40.6289580590849" lon="9.3026937913454"><ele>642.0</ele><time>2026-05-02T10:04:41.001Z</time></trkpt><trkpt lat="40.62880243971734" lon="9.302392344679513"><ele>642.0</ele><time>2026-05-02T10:04:42.001Z</time></trkpt><trkpt lat="40.62864268885346" lon="9.302097841981375"><ele>642.0</ele><time>2026-05-02T10:04:43.001Z</time></trkpt><trkpt lat="40.62847600526724" lon="9.301805413025999"><ele>642.0</ele><time>2026-05-02T10:04:44.001Z</time></trkpt><trkpt lat="40.628301227605725" lon="9.301507897413083"><ele>642.5</ele><time>2026-05-02T10:04:45.001Z</time></trkpt><trkpt lat="40.62811631294781" lon="9.301208436816985"><ele>643.0</ele><time>2026-05-02T10:04:46.001Z</time></trkpt><trkpt lat="40.62792710703293" lon="9.300907506237097"><ele>644.0</ele><time>2026-05-02T10:04:47.001Z</time></trkpt><trkpt lat="40.62773753316237" lon="9.300613810843505"><ele>645.0</ele><time>2026-05-02T10:04:48.001Z</time></trkpt><trkpt lat="40.62754872631067" lon="9.300325904245167"><ele>645.5</ele><time>2026-05-02T10:04:49.001Z</time></trkpt><trkpt lat="40.62735784328128" lon="9.300045321341804"><ele>646.0</ele><time>2026-05-02T10:04:50.001Z</time></trkpt><trkpt lat="40.627163733454246" lon="9.299766965836278"><ele>646.5</ele><time>2026-05-02T10:04:51.001Z</time></trkpt><trkpt lat="40.626968331264486" lon="9.299491204500589"><ele>647.0</ele><time>2026-05-02T10:04:52.001Z</time></trkpt><trkpt lat="40.626776020800655" lon="9.299218695301283"><ele>647.0</ele><time>2026-05-02T10:04:53.001Z</time></trkpt><trkpt lat="40.626585261433966" lon="9.298947427782839"><ele>647.0</ele><time>2026-05-02T10:04:54.001Z</time></trkpt><trkpt lat="40.62640213124437" lon="9.298684101267263"><ele>647.0</ele><time>2026-05-02T10:04:55.001Z</time></trkpt><trkpt lat="40.62622824920725" lon="9.298426735479145"><ele>647.0</ele><time>2026-05-02T10:04:56.001Z</time></trkpt><trkpt lat="40.626057089684814" lon="9.298174932747939"><ele>646.5</ele><time>2026-05-02T10:04:57.001Z</time></trkpt><trkpt lat="40.625886302816795" lon="9.297927081774606"><ele>646.0</ele><time>2026-05-02T10:04:58.001Z</time></trkpt><trkpt lat="40.62572094000671" lon="9.29767579051317"><ele>646.0</ele><time>2026-05-02T10:04:59.001Z</time></trkpt><trkpt lat="40.62556046602369" lon="9.297420299110456"><ele>646.0</ele><time>2026-05-02T10:05:00.001Z</time></trkpt><trkpt lat="40.62540467732293" lon="9.297163350810994"><ele>645.0</ele><time>2026-05-02T10:05:01.001Z</time></trkpt><trkpt lat="40.625249766931226" lon="9.296904817826583"><ele>644.0</ele><time>2026-05-02T10:05:02.001Z</time></trkpt><trkpt lat="40.625093900585895" lon="9.29663942954333"><ele>644.0</ele><time>2026-05-02T10:05:03.001Z</time></trkpt><trkpt lat="40.624936524036656" lon="9.296374074696882"><ele>644.0</ele><time>2026-05-02T10:05:04.001Z</time></trkpt><trkpt lat="40.624779567620934" lon="9.29610807682577"><ele>644.0</ele><time>2026-05-02T10:05:05.001Z</time></trkpt><trkpt lat="40.624623620665666" lon="9.295839958658695"><ele>644.0</ele><time>2026-05-02T10:05:06.001Z</time></trkpt><trkpt lat="40.624468764745416" lon="9.295575085900001"><ele>642.0</ele><time>2026-05-02T10:05:07.001Z</time></trkpt><trkpt lat="40.6243169712897" lon="9.295316382188654"><ele>640.0</ele><time>2026-05-02T10:05:08.001Z</time></trkpt><trkpt lat="40.6241625707812" lon="9.295058947599596"><ele>640.0</ele><time>2026-05-02T10:05:09.001Z</time></trkpt><trkpt lat="40.624003373618386" lon="9.2947935747134"><ele>640.0</ele><time>2026-05-02T10:05:10.001Z</time></trkpt><trkpt lat="40.62384213939622" lon="9.294521610944004"><ele>639.5</ele><time>2026-05-02T10:05:11.001Z</time></trkpt><trkpt lat="40.62367841713312" lon="9.294243334966195"><ele>639.0</ele><time>2026-05-02T10:05:12.001Z</time></trkpt><trkpt lat="40.62351271234945" lon="9.293959790349835"><ele>637.5</ele><time>2026-05-02T10:05:13.001Z</time></trkpt><trkpt lat="40.62334345675596" lon="9.293670179873635"><ele>636.0</ele><time>2026-05-02T10:05:14.001Z</time></trkpt><trkpt lat="40.62317233135872" lon="9.293380661459935"><ele>636.0</ele><time>2026-05-02T10:05:15.001Z</time></trkpt><trkpt lat="40.62299978503012" lon="9.293092351591905"><ele>636.0</ele><time>2026-05-02T10:05:16.001Z</time></trkpt><trkpt lat="40.622829080800265" lon="9.292808741111646"><ele>635.0</ele><time>2026-05-02T10:05:17.002Z</time></trkpt><trkpt lat="40.62265915948088" lon="9.292525794543355"><ele>634.0</ele><time>2026-05-02T10:05:18.002Z</time></trkpt><trkpt lat="40.62248910037317" lon="9.292247860363425"><ele>634.0</ele><time>2026-05-02T10:05:19.002Z</time></trkpt><trkpt lat="40.62231669360237" lon="9.291974677005037"><ele>634.0</ele><time>2026-05-02T10:05:20.002Z</time></trkpt><trkpt lat="40.62214040885278" lon="9.291698976760832"><ele>633.5</ele><time>2026-05-02T10:05:21.002Z</time></trkpt><trkpt lat="40.62195939260626" lon="9.291425719556209"><ele>633.0</ele><time>2026-05-02T10:05:22.002Z</time></trkpt><trkpt lat="40.62177274587885" lon="9.291154889021962"><ele>633.0</ele><time>2026-05-02T10:05:23.002Z</time></trkpt><trkpt lat="40.621576992189596" lon="9.290881266408096"><ele>633.0</ele><time>2026-05-02T10:05:24.002Z</time></trkpt><trkpt lat="40.621374491020255" lon="9.29060653414957"><ele>633.0</ele><time>2026-05-02T10:05:25.002Z</time></trkpt><trkpt lat="40.62116907001484" lon="9.290332992101035"><ele>633.0</ele><time>2026-05-02T10:05:26.002Z</time></trkpt><trkpt lat="40.62095916043633" lon="9.290065518471604"><ele>632.5</ele><time>2026-05-02T10:05:27.002Z</time></trkpt><trkpt lat="40.620744317114486" lon="9.289804839564276"><ele>632.0</ele><time>2026-05-02T10:05:28.002Z</time></trkpt><trkpt lat="40.62052664656532" lon="9.289543838202084"><ele>631.5</ele><time>2026-05-02T10:05:29.002Z</time></trkpt><trkpt lat="40.62030293412681" lon="9.289287022179076"><ele>631.0</ele><time>2026-05-02T10:05:30.002Z</time></trkpt><trkpt lat="40.62007846796185" lon="9.289026521595545"><ele>631.0</ele><time>2026-05-02T10:05:31.002Z</time></trkpt><trkpt lat="40.61985005181253" lon="9.288765159081528"><ele>631.0</ele><time>2026-05-02T10:05:32.002Z</time></trkpt><trkpt lat="40.61961974103545" lon="9.288509664383612"><ele>631.5</ele><time>2026-05-02T10:05:33.002Z</time></trkpt><trkpt lat="40.61938935720509" lon="9.288254129684603"><ele>632.0</ele><time>2026-05-02T10:05:34.002Z</time></trkpt><trkpt lat="40.619162110934695" lon="9.287999408172583"><ele>631.0</ele><time>2026-05-02T10:05:35.002Z</time></trkpt><trkpt lat="40.61893343153259" lon="9.287745776961696"><ele>630.0</ele><time>2026-05-02T10:05:36.002Z</time></trkpt><trkpt lat="40.61870505356966" lon="9.287493955699789"><ele>630.5</ele><time>2026-05-02T10:05:37.002Z</time></trkpt><trkpt lat="40.61847774603262" lon="9.287247038950701"><ele>631.0</ele><time>2026-05-02T10:05:38.002Z</time></trkpt><trkpt lat="40.618252180495595" lon="9.287002073669791"><ele>631.0</ele><time>2026-05-02T10:05:39.002Z</time></trkpt><trkpt lat="40.61803143383443" lon="9.286758931813573"><ele>631.0</ele><time>2026-05-02T10:05:40.002Z</time></trkpt><trkpt lat="40.61781373966383" lon="9.28651695329588"><ele>630.5</ele><time>2026-05-02T10:05:41.002Z</time></trkpt><trkpt lat="40.61759914045224" lon="9.286275788323717"><ele>630.0</ele><time>2026-05-02T10:05:42.002Z</time></trkpt><trkpt lat="40.61738282689673" lon="9.286034392648013"><ele>630.0</ele><time>2026-05-02T10:05:43.002Z</time></trkpt><trkpt lat="40.6171657512497" lon="9.285791597975951"><ele>630.0</ele><time>2026-05-02T10:05:44.002Z</time></trkpt><trkpt lat="40.616950209334576" lon="9.285545334681267"><ele>631.0</ele><time>2026-05-02T10:05:45.002Z</time></trkpt><trkpt lat="40.6167335223883" lon="9.285298521040927"><ele>632.0</ele><time>2026-05-02T10:05:46.002Z</time></trkpt><trkpt lat="40.61651190626326" lon="9.28504826840423"><ele>632.0</ele><time>2026-05-02T10:05:47.002Z</time></trkpt><trkpt lat="40.61628161549203" lon="9.284790628611564"><ele>632.0</ele><time>2026-05-02T10:05:48.002Z</time></trkpt><trkpt lat="40.616045519511474" lon="9.28452999992487"><ele>633.0</ele><time>2026-05-02T10:05:49.002Z</time></trkpt><trkpt lat="40.61580297168676" lon="9.284262218337654"><ele>634.0</ele><time>2026-05-02T10:05:50.002Z</time></trkpt><trkpt lat="40.61555642257492" lon="9.283994950929168"><ele>633.0</ele><time>2026-05-02T10:05:51.002Z</time></trkpt><trkpt lat="40.615313037264116" lon="9.283726055525616"><ele>632.0</ele><time>2026-05-02T10:05:52.002Z</time></trkpt><trkpt lat="40.61507338869268" lon="9.283460163751698"><ele>632.0</ele><time>2026-05-02T10:05:53.002Z</time></trkpt><trkpt lat="40.61483687491147" lon="9.283195363619082"><ele>632.0</ele><time>2026-05-02T10:05:54.002Z</time></trkpt><trkpt lat="40.61460556787208" lon="9.282932015990127"><ele>630.5</ele><time>2026-05-02T10:05:55.002Z</time></trkpt><trkpt lat="40.61438008940414" lon="9.282673364150087"><ele>629.0</ele><time>2026-05-02T10:05:56.002Z</time></trkpt><trkpt lat="40.6141520493596" lon="9.282416103714215"><ele>627.0</ele><time>2026-05-02T10:05:57.002Z</time></trkpt><trkpt lat="40.61392476750424" lon="9.282162291133972"><ele>625.0</ele><time>2026-05-02T10:05:58.002Z</time></trkpt><trkpt lat="40.613701258322926" lon="9.281911956054959"><ele>624.0</ele><time>2026-05-02T10:05:59.002Z</time></trkpt><trkpt lat="40.61347983002778" lon="9.281665535905283"><ele>623.0</ele><time>2026-05-02T10:06:00.002Z</time></trkpt><trkpt lat="40.61326040120746" lon="9.281421988957304"><ele>622.0</ele><time>2026-05-02T10:06:01.002Z</time></trkpt><trkpt lat="40.61304224301541" lon="9.281181138921069"><ele>621.0</ele><time>2026-05-02T10:06:02.002Z</time></trkpt><trkpt lat="40.612826748024595" lon="9.28094128499456"><ele>620.5</ele><time>2026-05-02T10:06:03.002Z</time></trkpt><trkpt lat="40.612608436589795" lon="9.28069631945558"><ele>620.0</ele><time>2026-05-02T10:06:04.002Z</time></trkpt><trkpt lat="40.612388920709094" lon="9.280449531510437"><ele>620.0</ele><time>2026-05-02T10:06:05.002Z</time></trkpt><trkpt lat="40.61216550296828" lon="9.280198710788694"><ele>620.0</ele><time>2026-05-02T10:06:06.002Z</time></trkpt><trkpt lat="40.61193999134379" lon="9.279948534406067"><ele>622.0</ele><time>2026-05-02T10:06:07.003Z</time></trkpt><trkpt lat="40.61171437199715" lon="9.279699392265199"><ele>624.0</ele><time>2026-05-02T10:06:08.003Z</time></trkpt><trkpt lat="40.6114877951776" lon="9.27944721203754"><ele>624.0</ele><time>2026-05-02T10:06:09.003Z</time></trkpt><trkpt lat="40.61126192511938" lon="9.279194258869696"><ele>624.0</ele><time>2026-05-02T10:06:10.003Z</time></trkpt><trkpt lat="40.61103431787316" lon="9.27893881402352"><ele>623.0</ele><time>2026-05-02T10:06:11.003Z</time></trkpt><trkpt lat="40.610805055870216" lon="9.278682558226292"><ele>622.0</ele><time>2026-05-02T10:06:12.003Z</time></trkpt><trkpt lat="40.61057242721889" lon="9.278426945476582"><ele>622.0</ele><time>2026-05-02T10:06:13.003Z</time></trkpt><trkpt lat="40.610341587512515" lon="9.278169509119135"><ele>622.0</ele><time>2026-05-02T10:06:14.003Z</time></trkpt><trkpt lat="40.61010998338364" lon="9.277909921823381"><ele>621.5</ele><time>2026-05-02T10:06:15.003Z</time></trkpt><trkpt lat="40.609882771305216" lon="9.277655585211711"><ele>621.0</ele><time>2026-05-02T10:06:16.003Z</time></trkpt><trkpt lat="40.609661695137525" lon="9.277407794742619"><ele>621.0</ele><time>2026-05-02T10:06:17.003Z</time></trkpt><trkpt lat="40.609439424228235" lon="9.277161804189467"><ele>621.0</ele><time>2026-05-02T10:06:18.003Z</time></trkpt><trkpt lat="40.609220177684634" lon="9.276917568577517"><ele>621.0</ele><time>2026-05-02T10:06:19.003Z</time></trkpt><trkpt lat="40.609003475115905" lon="9.276676446968157"><ele>621.0</ele><time>2026-05-02T10:06:20.003Z</time></trkpt><trkpt lat="40.60878959531897" lon="9.276438030433335"><ele>620.5</ele><time>2026-05-02T10:06:21.003Z</time></trkpt><trkpt lat="40.608577647214666" lon="9.276202361756932"><ele>620.0</ele><time>2026-05-02T10:06:22.002Z</time></trkpt><trkpt lat="40.60836577581618" lon="9.275965263558696"><ele>620.0</ele><time>2026-05-02T10:06:23.002Z</time></trkpt><trkpt lat="40.608154187038544" lon="9.27572993732376"><ele>620.0</ele><time>2026-05-02T10:06:24.002Z</time></trkpt><trkpt lat="40.607942728205984" lon="9.275493313567226"><ele>619.5</ele><time>2026-05-02T10:06:25.002Z</time></trkpt><trkpt lat="40.60773036401982" lon="9.275255278637315"><ele>619.0</ele><time>2026-05-02T10:06:26.002Z</time></trkpt><trkpt lat="40.60751757793132" lon="9.27501615581351"><ele>619.0</ele><time>2026-05-02T10:06:27.002Z</time></trkpt><trkpt lat="40.60730349299229" lon="9.274775274550716"><ele>619.0</ele><time>2026-05-02T10:06:28.002Z</time></trkpt><trkpt lat="40.60708429620498" lon="9.27453241315264"><ele>619.0</ele><time>2026-05-02T10:06:29.002Z</time></trkpt><trkpt lat="40.606855913809" lon="9.27428123719417"><ele>619.0</ele><time>2026-05-02T10:06:30.002Z</time></trkpt><trkpt lat="40.60663587903343" lon="9.274037199017457"><ele>618.5</ele><time>2026-05-02T10:06:31.002Z</time></trkpt><trkpt lat="40.606432833628" lon="9.273809599781641"><ele>618.0</ele><time>2026-05-02T10:06:32.002Z</time></trkpt><trkpt lat="40.60623427746006" lon="9.273589792544982"><ele>617.0</ele><time>2026-05-02T10:06:33.002Z</time></trkpt><trkpt lat="40.60604508219185" lon="9.273378300341019"><ele>616.0</ele><time>2026-05-02T10:06:34.002Z</time></trkpt><trkpt lat="40.605865109440145" lon="9.273174259415164"><ele>616.3333333333334</ele><time>2026-05-02T10:06:35.002Z</time></trkpt><trkpt lat="40.60569652507921" lon="9.272982807960554"><ele>616.6666666666666</ele><time>2026-05-02T10:06:36.002Z</time></trkpt><trkpt lat="40.605537093051595" lon="9.272802969290959"><ele>617.0</ele><time>2026-05-02T10:06:37.002Z</time></trkpt><trkpt lat="40.60538578102539" lon="9.272630854908561"><ele>617.0</ele><time>2026-05-02T10:06:38.002Z</time></trkpt><trkpt lat="40.60524121976009" lon="9.272461558012388"><ele>617.0</ele><time>2026-05-02T10:06:39.002Z</time></trkpt><trkpt lat="40.60510254122351" lon="9.272292856357979"><ele>617.0</ele><time>2026-05-02T10:06:40.002Z</time></trkpt><trkpt lat="40.60498058516185" lon="9.272136862395472"><ele>616.75</ele><time>2026-05-02T10:06:41.002Z</time></trkpt><trkpt lat="40.60487072459676" lon="9.271995578016863"><ele>616.5</ele><time>2026-05-02T10:06:42.002Z</time></trkpt><trkpt lat="40.60477539618067" lon="9.271868034705879"><ele>616.25</ele><time>2026-05-02T10:06:43.002Z</time></trkpt><trkpt lat="40.60469955782996" lon="9.271757975600389"><ele>616.0</ele><time>2026-05-02T10:06:44.002Z</time></trkpt><trkpt lat="40.60463916442366" lon="9.271655748291693"><ele>616.0</ele><time>2026-05-02T10:06:45.002Z</time></trkpt><trkpt lat="40.604589778665854" lon="9.27155472679117"><ele>616.0</ele><time>2026-05-02T10:06:46.002Z</time></trkpt><trkpt lat="40.604550117923026" lon="9.271450518493037"><ele>616.0</ele><time>2026-05-02T10:06:47.002Z</time></trkpt><trkpt lat="40.604534757443716" lon="9.271342020575476"><ele>616.0</ele><time>2026-05-02T10:06:48.002Z</time></trkpt><trkpt lat="40.60453876926259" lon="9.271235686380669"><ele>616.0</ele><time>2026-05-02T10:06:49.002Z</time></trkpt><trkpt lat="40.60456647610743" lon="9.271132514365682"><ele>616.0</ele><time>2026-05-02T10:06:50.002Z</time></trkpt><trkpt lat="40.60461563099915" lon="9.27104079139895"><ele>616.5</ele><time>2026-05-02T10:06:51.002Z</time></trkpt><trkpt lat="40.60467201300626" lon="9.270960038397082"><ele>617.0</ele><time>2026-05-02T10:06:52.002Z</time></trkpt><trkpt lat="40.604728727356544" lon="9.270882746130995"><ele>617.5</ele><time>2026-05-02T10:06:53.002Z</time></trkpt><trkpt lat="40.604775127266564" lon="9.270797698842854"><ele>618.0</ele><time>2026-05-02T10:06:54.001Z</time></trkpt><trkpt lat="40.60479967673853" lon="9.270701533410628"><ele>618.5</ele><time>2026-05-02T10:06:55.001Z</time></trkpt><trkpt lat="40.60480528298338" lon="9.270607308121589"><ele>619.0</ele><time>2026-05-02T10:06:56.001Z</time></trkpt><trkpt lat="40.60479159414135" lon="9.270520543543745"><ele>619.2</ele><time>2026-05-02T10:06:57.001Z</time></trkpt><trkpt lat="40.60475819394626" lon="9.27043647225"><ele>619.4</ele><time>2026-05-02T10:06:58.001Z</time></trkpt><trkpt lat="40.60469802190362" lon="9.270354101025278"><ele>619.6</ele><time>2026-05-02T10:06:59.001Z</time></trkpt><trkpt lat="40.60461146025015" lon="9.27028850369596"><ele>619.8</ele><time>2026-05-02T10:07:00.001Z</time></trkpt><trkpt lat="40.604503038489625" lon="9.270241598949697"><ele>620.0</ele><time>2026-05-02T10:07:01.001Z</time></trkpt><trkpt lat="40.60438986571044" lon="9.270209754963394"><ele>620.0</ele><time>2026-05-02T10:07:02.001Z</time></trkpt><trkpt lat="40.60425864049212" lon="9.27017401461881"><ele>620.0</ele><time>2026-05-02T10:07:03.001Z</time></trkpt><trkpt lat="40.60411687150249" lon="9.27012506101784"><ele>620.0</ele><time>2026-05-02T10:07:04.002Z</time></trkpt><trkpt lat="40.603977363962095" lon="9.270074082992748"><ele>620.0</ele><time>2026-05-02T10:07:05.002Z</time></trkpt><trkpt lat="40.60383200178098" lon="9.270027968124124"><ele>620.0</ele><time>2026-05-02T10:07:06.002Z</time></trkpt><trkpt lat="40.603676112395455" lon="9.269985339722743"><ele>620.0</ele><time>2026-05-02T10:07:07.002Z</time></trkpt><trkpt lat="40.60351408170767" lon="9.269942974636843"><ele>620.0</ele><time>2026-05-02T10:07:08.002Z</time></trkpt><trkpt lat="40.6033418536093" lon="9.26989500573447"><ele>618.6666666666666</ele><time>2026-05-02T10:07:09.002Z</time></trkpt><trkpt lat="40.60316230304727" lon="9.269838618627723"><ele>617.3333333333334</ele><time>2026-05-02T10:07:10.002Z</time></trkpt><trkpt lat="40.6029836498367" lon="9.269774172891875"><ele>616.0</ele><time>2026-05-02T10:07:11.002Z</time></trkpt><trkpt lat="40.60279742122962" lon="9.269714927588947"><ele>615.0</ele><time>2026-05-02T10:07:12.002Z</time></trkpt><trkpt lat="40.60261759075" lon="9.269644183819215"><ele>614.0</ele><time>2026-05-02T10:07:13.002Z</time></trkpt><trkpt lat="40.60243604654581" lon="9.269566154129917"><ele>613.0</ele><time>2026-05-02T10:07:14.002Z</time></trkpt><trkpt lat="40.6022512377" lon="9.269477921065794"><ele>613.0</ele><time>2026-05-02T10:07:15.002Z</time></trkpt><trkpt lat="40.602067555989834" lon="9.269386996407924"><ele>613.0</ele><time>2026-05-02T10:07:16.002Z</time></trkpt><trkpt lat="40.60188092175952" lon="9.269294928300868"><ele>613.0</ele><time>2026-05-02T10:07:17.002Z</time></trkpt><trkpt lat="40.6016906233869" lon="9.269201608459243"><ele>613.0</ele><time>2026-05-02T10:07:18.002Z</time></trkpt><trkpt lat="40.601495831640264" lon="9.269106108817462"><ele>613.0</ele><time>2026-05-02T10:07:19.002Z</time></trkpt><trkpt lat="40.60130447081911" lon="9.269010700408161"><ele>613.0</ele><time>2026-05-02T10:07:20.002Z</time></trkpt><trkpt lat="40.601113487124856" lon="9.268919857842407"><ele>613.0</ele><time>2026-05-02T10:07:21.002Z</time></trkpt><trkpt lat="40.60092167814132" lon="9.268832482240017"><ele>613.0</ele><time>2026-05-02T10:07:22.002Z</time></trkpt><trkpt lat="40.60073154513956" lon="9.268744054373766"><ele>613.0</ele><time>2026-05-02T10:07:23.002Z</time></trkpt><trkpt lat="40.60054171310745" lon="9.268656073503468"><ele>613.0</ele><time>2026-05-02T10:07:24.002Z</time></trkpt><trkpt lat="40.60035339716789" lon="9.26856648163783"><ele>613.0</ele><time>2026-05-02T10:07:25.002Z</time></trkpt><trkpt lat="40.60016546910494" lon="9.268474860083384"><ele>613.0</ele><time>2026-05-02T10:07:26.002Z</time></trkpt><trkpt lat="40.59997812599869" lon="9.268381873951514"><ele>613.0</ele><time>2026-05-02T10:07:27.002Z</time></trkpt><trkpt lat="40.59979098421174" lon="9.268287323877598"><ele>613.0</ele><time>2026-05-02T10:07:28.002Z</time></trkpt><trkpt lat="40.59960429978257" lon="9.26819554327367"><ele>613.0</ele><time>2026-05-02T10:07:29.002Z</time></trkpt><trkpt lat="40.599416786154464" lon="9.268105079088595"><ele>613.0</ele><time>2026-05-02T10:07:30.002Z</time></trkpt><trkpt lat="40.599228349331526" lon="9.268013329432469"><ele>613.0</ele><time>2026-05-02T10:07:31.002Z</time></trkpt><trkpt lat="40.59903844063125" lon="9.267919636842441"><ele>613.0</ele><time>2026-05-02T10:07:32.002Z</time></trkpt><trkpt lat="40.59884685367425" lon="9.267822849716323"><ele>613.3333333333334</ele><time>2026-05-02T10:07:33.002Z</time></trkpt><trkpt lat="40.59865154460846" lon="9.267726651989644"><ele>613.6666666666666</ele><time>2026-05-02T10:07:34.002Z</time></trkpt><trkpt lat="40.598455237803776" lon="9.267629538724462"><ele>614.0</ele><time>2026-05-02T10:07:35.002Z</time></trkpt><trkpt lat="40.59825512576615" lon="9.267528924390055"><ele>614.0</ele><time>2026-05-02T10:07:36.002Z</time></trkpt><trkpt lat="40.5980513966292" lon="9.267426037632012"><ele>614.0</ele><time>2026-05-02T10:07:37.002Z</time></trkpt><trkpt lat="40.597847175396716" lon="9.267323678133224"><ele>614.0</ele><time>2026-05-02T10:07:38.002Z</time></trkpt><trkpt lat="40.597642187616124" lon="9.2672218305869"><ele>613.0</ele><time>2026-05-02T10:07:39.002Z</time></trkpt><trkpt lat="40.59743656471476" lon="9.267119875187811"><ele>612.0</ele><time>2026-05-02T10:07:40.002Z</time></trkpt><trkpt lat="40.59723142358161" lon="9.267016595828242"><ele>611.0</ele><time>2026-05-02T10:07:41.002Z</time></trkpt><trkpt lat="40.59702520310157" lon="9.26691561028802"><ele>611.3333333333333</ele><time>2026-05-02T10:07:42.002Z</time></trkpt><trkpt lat="40.59681967893104" lon="9.266821539756437"><ele>611.6666666666666</ele><time>2026-05-02T10:07:43.002Z</time></trkpt><trkpt lat="40.59661001958268" lon="9.266734148984707"><ele>612.0</ele><time>2026-05-02T10:07:44.002Z</time></trkpt><trkpt lat="40.59639747229732" lon="9.2666570501775"><ele>612.0</ele><time>2026-05-02T10:07:45.002Z</time></trkpt><trkpt lat="40.596182019550234" lon="9.266590654563451"><ele>612.0</ele><time>2026-05-02T10:07:46.002Z</time></trkpt><trkpt lat="40.59596384049594" lon="9.266528949278221"><ele>612.0</ele><time>2026-05-02T10:07:47.002Z</time></trkpt><trkpt lat="40.59574140732865" lon="9.266467705663047"><ele>612.5</ele><time>2026-05-02T10:07:48.002Z</time></trkpt><trkpt lat="40.595515326064536" lon="9.266403526421065"><ele>613.0</ele><time>2026-05-02T10:07:49.002Z</time></trkpt><trkpt lat="40.59528541237239" lon="9.26634233789005"><ele>613.0</ele><time>2026-05-02T10:07:50.002Z</time></trkpt><trkpt lat="40.595058731244634" lon="9.26628288140783"><ele>613.0</ele><time>2026-05-02T10:07:51.002Z</time></trkpt><trkpt lat="40.5948250511684" lon="9.266221308858867"><ele>613.0</ele><time>2026-05-02T10:07:52.002Z</time></trkpt><trkpt lat="40.594591372290225" lon="9.266160302817779"><ele>613.0</ele><time>2026-05-02T10:07:53.002Z</time></trkpt><trkpt lat="40.594360157729426" lon="9.266098210664547"><ele>613.0</ele><time>2026-05-02T10:07:54.002Z</time></trkpt><trkpt lat="40.59412594833057" lon="9.266035165791374"><ele>613.0</ele><time>2026-05-02T10:07:55.002Z</time></trkpt><trkpt lat="40.59389483620965" lon="9.26597303054546"><ele>613.5</ele><time>2026-05-02T10:07:56.002Z</time></trkpt><trkpt lat="40.593670988085314" lon="9.26591317605914"><ele>614.0</ele><time>2026-05-02T10:07:57.002Z</time></trkpt><trkpt lat="40.59344712495553" lon="9.265856024574203"><ele>614.0</ele><time>2026-05-02T10:07:58.002Z</time></trkpt><trkpt lat="40.593226097382264" lon="9.26580220466156"><ele>614.0</ele><time>2026-05-02T10:07:59.002Z</time></trkpt><trkpt lat="40.5930061006242" lon="9.265745822073693"><ele>614.0</ele><time>2026-05-02T10:08:00.002Z</time></trkpt><trkpt lat="40.592789752604816" lon="9.265687512305435"><ele>614.3333333333333</ele><time>2026-05-02T10:08:01.002Z</time></trkpt><trkpt lat="40.592574994339365" lon="9.265628612555037"><ele>614.6666666666666</ele><time>2026-05-02T10:08:02.002Z</time></trkpt><trkpt lat="40.59237457399888" lon="9.26557134794446"><ele>615.0</ele><time>2026-05-02T10:08:03.002Z</time></trkpt><trkpt lat="40.59218203369454" lon="9.265516326191094"><ele>616.3333333333334</ele><time>2026-05-02T10:08:04.002Z</time></trkpt><trkpt lat="40.59199750662379" lon="9.265466034012217"><ele>617.6666666666667</ele><time>2026-05-02T10:08:05.002Z</time></trkpt><trkpt lat="40.59181057554884" lon="9.265417470913334"><ele>619.0</ele><time>2026-05-02T10:08:06.002Z</time></trkpt><trkpt lat="40.59163012265925" lon="9.265378235691273"><ele>619.0</ele><time>2026-05-02T10:08:07.002Z</time></trkpt><trkpt lat="40.59145054384263" lon="9.265364973368966"><ele>619.0</ele><time>2026-05-02T10:08:08.002Z</time></trkpt><trkpt lat="40.59127164167057" lon="9.265386400436931"><ele>619.0</ele><time>2026-05-02T10:08:09.002Z</time></trkpt><trkpt lat="40.59109084726347" lon="9.265446354256747"><ele>622.3333333333334</ele><time>2026-05-02T10:08:10.002Z</time></trkpt><trkpt lat="40.59091294592984" lon="9.265514112228965"><ele>625.6666666666666</ele><time>2026-05-02T10:08:11.002Z</time></trkpt><trkpt lat="40.59073246827849" lon="9.26557207337567"><ele>629.0</ele><time>2026-05-02T10:08:12.002Z</time></trkpt><trkpt lat="40.590549247303734" lon="9.26560451671365"><ele>629.0</ele><time>2026-05-02T10:08:13.002Z</time></trkpt><trkpt lat="40.59035724088543" lon="9.265598147337128"><ele>629.0</ele><time>2026-05-02T10:08:14.002Z</time></trkpt><trkpt lat="40.59017002185685" lon="9.265562366053238"><ele>629.0</ele><time>2026-05-02T10:08:15.002Z</time></trkpt><trkpt lat="40.58998928856721" lon="9.265488544628708"><ele>631.0</ele><time>2026-05-02T10:08:16.002Z</time></trkpt><trkpt lat="40.58981731218161" lon="9.265385196529463"><ele>633.0</ele><time>2026-05-02T10:08:17.002Z</time></trkpt><trkpt lat="40.58965224577517" lon="9.2652517030356"><ele>635.0</ele><time>2026-05-02T10:08:18.002Z</time></trkpt><trkpt lat="40.5894937049968" lon="9.265088248664373"><ele>635.0</ele><time>2026-05-02T10:08:19.002Z</time></trkpt><trkpt lat="40.58933651320877" lon="9.264912566643996"><ele>635.0</ele><time>2026-05-02T10:08:20.002Z</time></trkpt><trkpt lat="40.58918112373954" lon="9.264727580970623"><ele>635.0</ele><time>2026-05-02T10:08:21.002Z</time></trkpt><trkpt lat="40.589032441940425" lon="9.264519482794126"><ele>635.6666666666666</ele><time>2026-05-02T10:08:22.002Z</time></trkpt><trkpt lat="40.58888448056836" lon="9.264303341056271"><ele>636.3333333333334</ele><time>2026-05-02T10:08:23.002Z</time></trkpt><trkpt lat="40.588733269878325" lon="9.264077863657365"><ele>637.0</ele><time>2026-05-02T10:08:24.003Z</time></trkpt><trkpt lat="40.58857956122647" lon="9.263850990659204"><ele>637.0</ele><time>2026-05-02T10:08:25.003Z</time></trkpt><trkpt lat="40.588426873202906" lon="9.263624969604283"><ele>637.0</ele><time>2026-05-02T10:08:26.003Z</time></trkpt><trkpt lat="40.58827901895797" lon="9.263397842902725"><ele>637.0</ele><time>2026-05-02T10:08:27.003Z</time></trkpt><trkpt lat="40.5881326842548" lon="9.263175435720717"><ele>637.0</ele><time>2026-05-02T10:08:28.002Z</time></trkpt><trkpt lat="40.5879853236515" lon="9.262955101889274"><ele>637.0</ele><time>2026-05-02T10:08:29.002Z</time></trkpt><trkpt lat="40.587843486150014" lon="9.262741199329664"><ele>638.0</ele><time>2026-05-02T10:08:30.002Z</time></trkpt><trkpt lat="40.58770633903768" lon="9.262527128915814"><ele>639.0</ele><time>2026-05-02T10:08:31.002Z</time></trkpt><trkpt lat="40.58757678486317" lon="9.262298918587069"><ele>640.0</ele><time>2026-05-02T10:08:32.002Z</time></trkpt><trkpt lat="40.587452764357465" lon="9.262059633365073"><ele>640.3333333333334</ele><time>2026-05-02T10:08:33.002Z</time></trkpt><trkpt lat="40.58733008982528" lon="9.261821090865654"><ele>640.6666666666666</ele><time>2026-05-02T10:08:34.002Z</time></trkpt><trkpt lat="40.5872093574106" lon="9.261583045075163"><ele>641.0</ele><time>2026-05-02T10:08:35.002Z</time></trkpt><trkpt lat="40.58709228934013" lon="9.261346032225402"><ele>641.6666666666666</ele><time>2026-05-02T10:08:36.002Z</time></trkpt><trkpt lat="40.58698066785922" lon="9.261110804590494"><ele>642.3333333333334</ele><time>2026-05-02T10:08:37.002Z</time></trkpt><trkpt lat="40.586865522455305" lon="9.260873809903233"><ele>643.0</ele><time>2026-05-02T10:08:38.002Z</time></trkpt><trkpt lat="40.586747489061246" lon="9.260639226905946"><ele>643.0</ele><time>2026-05-02T10:08:39.002Z</time></trkpt><trkpt lat="40.58662675863448" lon="9.260408713253838"><ele>643.0</ele><time>2026-05-02T10:08:40.002Z</time></trkpt><trkpt lat="40.58650432556004" lon="9.260184135860108"><ele>643.0</ele><time>2026-05-02T10:08:41.002Z</time></trkpt><trkpt lat="40.58638066287766" lon="9.25996832163514"><ele>642.6666666666667</ele><time>2026-05-02T10:08:42.002Z</time></trkpt><trkpt lat="40.58626704167281" lon="9.259769457253457"><ele>642.3333333333334</ele><time>2026-05-02T10:08:43.002Z</time></trkpt><trkpt lat="40.58616375343078" lon="9.25957013757643"><ele>642.0</ele><time>2026-05-02T10:08:44.002Z</time></trkpt><trkpt lat="40.58608043712327" lon="9.259357282610951"><ele>646.3333333333334</ele><time>2026-05-02T10:08:45.002Z</time></trkpt><trkpt lat="40.58601917207889" lon="9.259117845437498"><ele>650.6666666666667</ele><time>2026-05-02T10:08:46.002Z</time></trkpt><trkpt lat="40.58598504677455" lon="9.258863157576391"><ele>655.0</ele><time>2026-05-02T10:08:47.002Z</time></trkpt><trkpt lat="40.58596653456575" lon="9.258602953024342"><ele>655.3333333333334</ele><time>2026-05-02T10:08:48.002Z</time></trkpt><trkpt lat="40.585954111209965" lon="9.258337223928494"><ele>655.6666666666666</ele><time>2026-05-02T10:08:49.002Z</time></trkpt><trkpt lat="40.585954700977005" lon="9.258099840697012"><ele>656.0</ele><time>2026-05-02T10:08:50.001Z</time></trkpt><trkpt lat="40.5859524378439" lon="9.257875850785531"><ele>656.0</ele><time>2026-05-02T10:08:51.001Z</time></trkpt><trkpt lat="40.58592412676185" lon="9.257639402508044"><ele>656.0</ele><time>2026-05-02T10:08:52.001Z</time></trkpt><trkpt lat="40.585874779569664" lon="9.257390223828281"><ele>656.0</ele><time>2026-05-02T10:08:53.001Z</time></trkpt><trkpt lat="40.58581387217141" lon="9.257137055196146"><ele>656.0</ele><time>2026-05-02T10:08:54.001Z</time></trkpt><trkpt lat="40.58573933755292" lon="9.25688089988771"><ele>656.0</ele><time>2026-05-02T10:08:55.001Z</time></trkpt><trkpt lat="40.58564914930352" lon="9.25662316310694"><ele>656.0</ele><time>2026-05-02T10:08:56.001Z</time></trkpt><trkpt lat="40.58554630524404" lon="9.256369180226857"><ele>655.0</ele><time>2026-05-02T10:08:57.001Z</time></trkpt><trkpt lat="40.585441855966785" lon="9.256122318333116"><ele>654.0</ele><time>2026-05-02T10:08:58.001Z</time></trkpt><trkpt lat="40.58535263709036" lon="9.255878859378306"><ele>653.0</ele><time>2026-05-02T10:08:59.001Z</time></trkpt><trkpt lat="40.585288851901595" lon="9.2556415117672"><ele>657.6666666666666</ele><time>2026-05-02T10:09:00.001Z</time></trkpt><trkpt lat="40.58525644951988" lon="9.255410226177103"><ele>662.3333333333334</ele><time>2026-05-02T10:09:01.001Z</time></trkpt><trkpt lat="40.58524265405718" lon="9.25520577160607"><ele>667.0</ele><time>2026-05-02T10:09:02.001Z</time></trkpt><trkpt lat="40.585219273977486" lon="9.255031058167399"><ele>667.0</ele><time>2026-05-02T10:09:03.001Z</time></trkpt><trkpt lat="40.585163243863924" lon="9.25487710300083"><ele>667.0</ele><time>2026-05-02T10:09:04.001Z</time></trkpt><trkpt lat="40.58507088403447" lon="9.254735518194146"><ele>667.0</ele><time>2026-05-02T10:09:05.001Z</time></trkpt><trkpt lat="40.58494680200392" lon="9.254604142730653"><ele>667.0</ele><time>2026-05-02T10:09:06.001Z</time></trkpt><trkpt lat="40.58480323984547" lon="9.254485944437281"><ele>667.0</ele><time>2026-05-02T10:09:07.001Z</time></trkpt><trkpt lat="40.584669260672364" lon="9.254393337695081"><ele>667.0</ele><time>2026-05-02T10:09:08.001Z</time></trkpt><trkpt lat="40.584541210407046" lon="9.2543306492888"><ele>667.0</ele><time>2026-05-02T10:09:09.001Z</time></trkpt><trkpt lat="40.58441844701443" lon="9.254318621280392"><ele>667.0</ele><time>2026-05-02T10:09:10.001Z</time></trkpt><trkpt lat="40.58430741616812" lon="9.25435940137399"><ele>667.0</ele><time>2026-05-02T10:09:11.001Z</time></trkpt><trkpt lat="40.584200598801864" lon="9.254444291687062"><ele>667.0</ele><time>2026-05-02T10:09:12.001Z</time></trkpt><trkpt lat="40.584104659565774" lon="9.254568983267099"><ele>667.0</ele><time>2026-05-02T10:09:13.001Z</time></trkpt><trkpt lat="40.58400752301786" lon="9.254734644499258"><ele>667.0</ele><time>2026-05-02T10:09:14.001Z</time></trkpt><trkpt lat="40.5839271307432" lon="9.25491636409738"><ele>668.0</ele><time>2026-05-02T10:09:15.001Z</time></trkpt><trkpt lat="40.583867716575575" lon="9.25512990882462"><ele>669.0</ele><time>2026-05-02T10:09:16.001Z</time></trkpt><trkpt lat="40.583842255918306" lon="9.255340318579947"><ele>670.0</ele><time>2026-05-02T10:09:17.001Z</time></trkpt><trkpt lat="40.583825440107965" lon="9.255543024228482"><ele>670.75</ele><time>2026-05-02T10:09:18.001Z</time></trkpt><trkpt lat="40.583798045749994" lon="9.255727996010704"><ele>671.5</ele><time>2026-05-02T10:09:19.001Z</time></trkpt><trkpt lat="40.58374698531092" lon="9.255890835325912"><ele>672.25</ele><time>2026-05-02T10:09:20.001Z</time></trkpt><trkpt lat="40.5836606086525" lon="9.2560243663937"><ele>673.0</ele><time>2026-05-02T10:09:21.001Z</time></trkpt><trkpt lat="40.58353522541484" lon="9.25613954223556"><ele>669.3333333333334</ele><time>2026-05-02T10:09:22.001Z</time></trkpt><trkpt lat="40.58338702553656" lon="9.256237235549166"><ele>665.6666666666666</ele><time>2026-05-02T10:09:23.001Z</time></trkpt><trkpt lat="40.58322698145083" lon="9.256327240336336"><ele>662.0</ele><time>2026-05-02T10:09:24.001Z</time></trkpt><trkpt lat="40.5830742999235" lon="9.256409374365326"><ele>662.3333333333333</ele><time>2026-05-02T10:09:25.001Z</time></trkpt><trkpt lat="40.582924266765644" lon="9.25648912035948"><ele>662.6666666666666</ele><time>2026-05-02T10:09:26.001Z</time></trkpt><trkpt lat="40.582778332821775" lon="9.25656583402754"><ele>663.0</ele><time>2026-05-02T10:09:27.001Z</time></trkpt><trkpt lat="40.58263671219782" lon="9.25663949132385"><ele>663.5</ele><time>2026-05-02T10:09:28.001Z</time></trkpt><trkpt lat="40.58250251820605" lon="9.256705066202455"><ele>664.0</ele><time>2026-05-02T10:09:29.001Z</time></trkpt><trkpt lat="40.58237282982624" lon="9.256769600465738"><ele>664.5</ele><time>2026-05-02T10:09:30.001Z</time></trkpt><trkpt lat="40.582246450401726" lon="9.256833086482857"><ele>665.0</ele><time>2026-05-02T10:09:31.001Z</time></trkpt><trkpt lat="40.58212606635077" lon="9.256899744894623"><ele>663.75</ele><time>2026-05-02T10:09:32.001Z</time></trkpt><trkpt lat="40.58201087922028" lon="9.256970867290716"><ele>662.5</ele><time>2026-05-02T10:09:33.001Z</time></trkpt><trkpt lat="40.58190296725251" lon="9.257050947125776"><ele>661.25</ele><time>2026-05-02T10:09:34.001Z</time></trkpt><trkpt lat="40.581810379371454" lon="9.257136089415358"><ele>660.0</ele><time>2026-05-02T10:09:35.001Z</time></trkpt><trkpt lat="40.581723746355046" lon="9.257234235887685"><ele>663.5</ele><time>2026-05-02T10:09:36.001Z</time></trkpt><trkpt lat="40.58164343412496" lon="9.257342794735166"><ele>667.0</ele><time>2026-05-02T10:09:37.001Z</time></trkpt><trkpt lat="40.58156261900051" lon="9.257455761699399"><ele>670.5</ele><time>2026-05-02T10:09:38.001Z</time></trkpt><trkpt lat="40.581478578032" lon="9.257573746026393"><ele>674.0</ele><time>2026-05-02T10:09:39.001Z</time></trkpt><trkpt lat="40.5813923743695" lon="9.257697095087755"><ele>674.0</ele><time>2026-05-02T10:09:40.001Z</time></trkpt><trkpt lat="40.58130619219536" lon="9.257814854903044"><ele>674.0</ele><time>2026-05-02T10:09:41.001Z</time></trkpt><trkpt lat="40.581220516394495" lon="9.257925307252338"><ele>674.0</ele><time>2026-05-02T10:09:42.001Z</time></trkpt><trkpt lat="40.58113720392434" lon="9.258037861011502"><ele>674.0</ele><time>2026-05-02T10:09:43.001Z</time></trkpt><trkpt lat="40.58105099112562" lon="9.258142505922022"><ele>673.8000000000001</ele><time>2026-05-02T10:09:44.001Z</time></trkpt><trkpt lat="40.580958890162876" lon="9.258226432325301"><ele>673.6</ele><time>2026-05-02T10:09:45.001Z</time></trkpt><trkpt lat="40.58086396626037" lon="9.258291831808236"><ele>673.4</ele><time>2026-05-02T10:09:46.001Z</time></trkpt><trkpt lat="40.580775692808146" lon="9.258373767638465"><ele>673.2</ele><time>2026-05-02T10:09:47.001Z</time></trkpt><trkpt lat="40.58068481567305" lon="9.258449326322019"><ele>673.0</ele><time>2026-05-02T10:09:48.001Z</time></trkpt><trkpt lat="40.58059198993046" lon="9.258505651611257"><ele>673.0</ele><time>2026-05-02T10:09:49.001Z</time></trkpt><trkpt lat="40.580500540398965" lon="9.258576326021355"><ele>673.0</ele><time>2026-05-02T10:09:50.001Z</time></trkpt><trkpt lat="40.580413798491094" lon="9.258661341212248"><ele>673.0</ele><time>2026-05-02T10:09:51.001Z</time></trkpt><trkpt lat="40.580332153241564" lon="9.25875984015965"><ele>673.0</ele><time>2026-05-02T10:09:52.001Z</time></trkpt><trkpt lat="40.58024884083335" lon="9.258859234912064"><ele>673.0</ele><time>2026-05-02T10:09:53.001Z</time></trkpt><trkpt lat="40.58015896472374" lon="9.25895490262965"><ele>674.8</ele><time>2026-05-02T10:09:54.001Z</time></trkpt><trkpt lat="40.5800653530982" lon="9.259041798586466"><ele>676.5999999999999</ele><time>2026-05-02T10:09:55.001Z</time></trkpt><trkpt lat="40.57997296965092" lon="9.259112481246476"><ele>678.4000000000001</ele><time>2026-05-02T10:09:56.001Z</time></trkpt><trkpt lat="40.57988074184232" lon="9.259171812090838"><ele>680.2</ele><time>2026-05-02T10:09:57.002Z</time></trkpt><trkpt lat="40.57978790174694" lon="9.259236827253153"><ele>682.0</ele><time>2026-05-02T10:09:58.002Z</time></trkpt><trkpt lat="40.579696202974766" lon="9.259304703409963"><ele>682.0</ele><time>2026-05-02T10:09:59.002Z</time></trkpt><trkpt lat="40.57960162521439" lon="9.259375353509226"><ele>682.0</ele><time>2026-05-02T10:10:00.002Z</time></trkpt><trkpt lat="40.57950657881839" lon="9.259454519701437"><ele>682.0</ele><time>2026-05-02T10:10:01.002Z</time></trkpt><trkpt lat="40.579412876272656" lon="9.259547551986909"><ele>682.0</ele><time>2026-05-02T10:10:02.002Z</time></trkpt><trkpt lat="40.57932145623252" lon="9.25965319898582"><ele>682.0</ele><time>2026-05-02T10:10:03.002Z</time></trkpt><trkpt lat="40.57923578256296" lon="9.259770281977053"><ele>682.0</ele><time>2026-05-02T10:10:04.002Z</time></trkpt><trkpt lat="40.57915499945522" lon="9.259886412065788"><ele>682.0</ele><time>2026-05-02T10:10:05.002Z</time></trkpt><trkpt lat="40.57908220328147" lon="9.26000499396519"><ele>682.0</ele><time>2026-05-02T10:10:06.002Z</time></trkpt><trkpt lat="40.579018977389154" lon="9.260133520444933"><ele>682.8</ele><time>2026-05-02T10:10:07.002Z</time></trkpt><trkpt lat="40.57897326905276" lon="9.2602719173748"><ele>683.6</ele><time>2026-05-02T10:10:08.002Z</time></trkpt><trkpt lat="40.578939061401584" lon="9.260409512759711"><ele>684.4</ele><time>2026-05-02T10:10:09.002Z</time></trkpt><trkpt lat="40.57890713147146" lon="9.260529136725781"><ele>685.1999999999999</ele><time>2026-05-02T10:10:10.002Z</time></trkpt><trkpt lat="40.57887087226763" lon="9.26062667111724"><ele>686.0</ele><time>2026-05-02T10:10:11.002Z</time></trkpt><trkpt lat="40.57882695217768" lon="9.260707003510548"><ele>686.4</ele><time>2026-05-02T10:10:12.002Z</time></trkpt><trkpt lat="40.578780440759054" lon="9.26076761088097"><ele>686.8</ele><time>2026-05-02T10:10:13.002Z</time></trkpt><trkpt lat="40.57867804246652" lon="9.260830989256666"><ele>687.1999999999999</ele><time>2026-05-02T10:10:15.002Z</time></trkpt><trkpt lat="40.57859409947723" lon="9.260842845840598"><ele>687.5999999999999</ele><time>2026-05-02T10:10:17.002Z</time></trkpt><trkpt lat="40.578488892154375" lon="9.26082792156369"><ele>688.0</ele><time>2026-05-02T10:10:19.002Z</time></trkpt><trkpt lat="40.5783621130112" lon="9.260809308038603"><ele>688.0</ele><time>2026-05-02T10:10:21.002Z</time></trkpt><trkpt lat="40.57829351677161" lon="9.260793071230378"><ele>688.0</ele><time>2026-05-02T10:10:22.002Z</time></trkpt><trkpt lat="40.578191991450375" lon="9.260752899613355"><ele>688.0</ele><time>2026-05-02T10:10:24.002Z</time></trkpt><trkpt lat="40.5781297346052" lon="9.260772664823627"><ele>688.0</ele><time>2026-05-02T10:10:26.002Z</time></trkpt><trkpt lat="40.57809890227484" lon="9.260882540779626"><ele>688.0</ele><time>2026-05-02T10:10:29.002Z</time></trkpt><trkpt lat="40.578106213827674" lon="9.261029624579859"><ele>688.0</ele><time>2026-05-02T10:10:31.002Z</time></trkpt><trkpt lat="40.578105738812916" lon="9.26111388123474"><ele>688.0</ele><time>2026-05-02T10:10:32.002Z</time></trkpt><trkpt lat="40.57810656121408" lon="9.261287930019387"><ele>688.0</ele><time>2026-05-02T10:10:34.002Z</time></trkpt><trkpt lat="40.57810614032549" lon="9.26139453567053"><ele>688.0</ele><time>2026-05-02T10:10:35.002Z</time></trkpt><trkpt lat="40.57810352491684" lon="9.261492243095928"><ele>688.0</ele><time>2026-05-02T10:10:36.002Z</time></trkpt><trkpt lat="40.57809962740353" lon="9.261587695735452"><ele>688.0</ele><time>2026-05-02T10:10:37.002Z</time></trkpt><trkpt lat="40.57809332530544" lon="9.261694941797817"><ele>688.0</ele><time>2026-05-02T10:10:38.001Z</time></trkpt><trkpt lat="40.57808753976808" lon="9.26179434328804"><ele>688.1666666666667</ele><time>2026-05-02T10:10:39.001Z</time></trkpt><trkpt lat="40.57808677348018" lon="9.261893786805768"><ele>688.3333333333334</ele><time>2026-05-02T10:10:40.001Z</time></trkpt><trkpt lat="40.57808611182914" lon="9.261982013246913"><ele>688.5</ele><time>2026-05-02T10:10:41.001Z</time></trkpt><trkpt lat="40.57809957987413" lon="9.262079223874554"><ele>688.6666666666666</ele><time>2026-05-02T10:10:42.001Z</time></trkpt><trkpt lat="40.57809568855606" lon="9.262171263793007"><ele>688.8333333333333</ele><time>2026-05-02T10:10:43.001Z</time></trkpt><trkpt lat="40.578098075196216" lon="9.262255895171638"><ele>689.0</ele><time>2026-05-02T10:10:44.001Z</time></trkpt><trkpt lat="40.57809103285461" lon="9.262402149454521"><ele>689.1666666666666</ele><time>2026-05-02T10:10:46.001Z</time></trkpt><trkpt lat="40.57801459620045" lon="9.262521154046222"><ele>689.3333333333333</ele><time>2026-05-02T10:10:48.001Z</time></trkpt><trkpt lat="40.577964714123986" lon="9.262578794571468"><ele>689.5</ele><time>2026-05-02T10:10:49.001Z</time></trkpt><trkpt lat="40.577914236109585" lon="9.262638591792477"><ele>689.6666666666666</ele><time>2026-05-02T10:10:50.001Z</time></trkpt><trkpt lat="40.57785912271482" lon="9.262697512332874"><ele>689.8333333333334</ele><time>2026-05-02T10:10:51.001Z</time></trkpt><trkpt lat="40.577804715576576" lon="9.262766333645938"><ele>690.0</ele><time>2026-05-02T10:10:52.001Z</time></trkpt><trkpt lat="40.57774742446669" lon="9.26284952786099"><ele>690.8</ele><time>2026-05-02T10:10:53.001Z</time></trkpt><trkpt lat="40.5776883515416" lon="9.262941642673313"><ele>691.6</ele><time>2026-05-02T10:10:54.001Z</time></trkpt><trkpt lat="40.57762965197347" lon="9.263043762673291"><ele>692.4000000000001</ele><time>2026-05-02T10:10:55.001Z</time></trkpt><trkpt lat="40.57756741251141" lon="9.263144738699117"><ele>693.2</ele><time>2026-05-02T10:10:56.001Z</time></trkpt><trkpt lat="40.577504019024175" lon="9.263247223701438"><ele>694.0</ele><time>2026-05-02T10:10:57.001Z</time></trkpt><trkpt lat="40.577442163963724" lon="9.263344071118665"><ele>694.8000000000001</ele><time>2026-05-02T10:10:58.001Z</time></trkpt><trkpt lat="40.577384452348255" lon="9.263437853348577"><ele>695.6</ele><time>2026-05-02T10:10:59.001Z</time></trkpt><trkpt lat="40.57734536430055" lon="9.263557903414032"><ele>696.4</ele><time>2026-05-02T10:11:00.001Z</time></trkpt><trkpt lat="40.577320101783236" lon="9.2636914732553"><ele>697.2</ele><time>2026-05-02T10:11:01.001Z</time></trkpt><trkpt lat="40.57730688353202" lon="9.263835790588693"><ele>698.0</ele><time>2026-05-02T10:11:02.001Z</time></trkpt><trkpt lat="40.57729012337982" lon="9.263970429814718"><ele>699.2</ele><time>2026-05-02T10:11:03.001Z</time></trkpt><trkpt lat="40.57726677194539" lon="9.264104172500444"><ele>700.4</ele><time>2026-05-02T10:11:04.001Z</time></trkpt><trkpt lat="40.57724034975179" lon="9.264235882321712"><ele>701.6</ele><time>2026-05-02T10:11:05.001Z</time></trkpt><trkpt lat="40.5772114169431" lon="9.264370252472174"><ele>702.8000000000001</ele><time>2026-05-02T10:11:06.001Z</time></trkpt><trkpt lat="40.577186846058154" lon="9.264505809100745"><ele>704.0</ele><time>2026-05-02T10:11:07.001Z</time></trkpt><trkpt lat="40.57716263689549" lon="9.26463825607983"><ele>704.0</ele><time>2026-05-02T10:11:08.001Z</time></trkpt><trkpt lat="40.577136232588174" lon="9.264769149829844"><ele>704.0</ele><time>2026-05-02T10:11:09.001Z</time></trkpt><trkpt lat="40.57709322219144" lon="9.264893034457312"><ele>704.0</ele><time>2026-05-02T10:11:10.001Z</time></trkpt><trkpt lat="40.577026991100354" lon="9.265008394063532"><ele>704.0</ele><time>2026-05-02T10:11:11.001Z</time></trkpt><trkpt lat="40.57694529909636" lon="9.265116644777994"><ele>704.0</ele><time>2026-05-02T10:11:12.001Z</time></trkpt><trkpt lat="40.57686457034583" lon="9.265222842751875"><ele>705.75</ele><time>2026-05-02T10:11:13.001Z</time></trkpt><trkpt lat="40.57677826819298" lon="9.265328698810528"><ele>707.5</ele><time>2026-05-02T10:11:14.001Z</time></trkpt><trkpt lat="40.57668686579968" lon="9.265431253407831"><ele>709.25</ele><time>2026-05-02T10:11:15.001Z</time></trkpt><trkpt lat="40.57660331215124" lon="9.265529272601015"><ele>711.0</ele><time>2026-05-02T10:11:16.001Z</time></trkpt><trkpt lat="40.57652290242781" lon="9.265626745787802"><ele>711.8</ele><time>2026-05-02T10:11:17.001Z</time></trkpt><trkpt lat="40.57644361515685" lon="9.265722330151823"><ele>712.5999999999999</ele><time>2026-05-02T10:11:18.001Z</time></trkpt><trkpt lat="40.576365475068485" lon="9.265814701096543"><ele>713.4</ele><time>2026-05-02T10:11:19.001Z</time></trkpt><trkpt lat="40.57628883431944" lon="9.265907706658492"><ele>714.2</ele><time>2026-05-02T10:11:20.001Z</time></trkpt><trkpt lat="40.576213387822236" lon="9.266002853820945"><ele>715.0</ele><time>2026-05-02T10:11:21.001Z</time></trkpt><trkpt lat="40.576139101413396" lon="9.266095552289041"><ele>716.2</ele><time>2026-05-02T10:11:22.001Z</time></trkpt><trkpt lat="40.576065124464655" lon="9.266187958038365"><ele>717.4</ele><time>2026-05-02T10:11:23.001Z</time></trkpt><trkpt lat="40.57599384069915" lon="9.2662788879526"><ele>718.5999999999999</ele><time>2026-05-02T10:11:24.001Z</time></trkpt><trkpt lat="40.575918293227836" lon="9.266366458010948"><ele>719.8</ele><time>2026-05-02T10:11:25.001Z</time></trkpt><trkpt lat="40.57582814551561" lon="9.266450406477174"><ele>721.0</ele><time>2026-05-02T10:11:26.001Z</time></trkpt><trkpt lat="40.575736402181406" lon="9.266531351550322"><ele>722.0</ele><time>2026-05-02T10:11:27.001Z</time></trkpt><trkpt lat="40.57564668925484" lon="9.266617876491653"><ele>723.0</ele><time>2026-05-02T10:11:28.001Z</time></trkpt><trkpt lat="40.575553332759384" lon="9.266705389719926"><ele>724.0</ele><time>2026-05-02T10:11:29.001Z</time></trkpt><trkpt lat="40.57545684654123" lon="9.266795521253384"><ele>725.0</ele><time>2026-05-02T10:11:30.001Z</time></trkpt><trkpt lat="40.57536121922818" lon="9.266887354096266"><ele>726.25</ele><time>2026-05-02T10:11:31.001Z</time></trkpt><trkpt lat="40.57526502169818" lon="9.266974918727575"><ele>727.5</ele><time>2026-05-02T10:11:32.001Z</time></trkpt><trkpt lat="40.57517145207117" lon="9.267060024056432"><ele>728.75</ele><time>2026-05-02T10:11:33.001Z</time></trkpt><trkpt lat="40.57507944817602" lon="9.2671433486229"><ele>730.0</ele><time>2026-05-02T10:11:34.001Z</time></trkpt><trkpt lat="40.5749861247166" lon="9.267226399331834"><ele>730.75</ele><time>2026-05-02T10:11:35.001Z</time></trkpt><trkpt lat="40.57488316317299" lon="9.267306219693104"><ele>731.5</ele><time>2026-05-02T10:11:36.001Z</time></trkpt><trkpt lat="40.574773288687126" lon="9.267359462142545"><ele>732.25</ele><time>2026-05-02T10:11:37.001Z</time></trkpt><trkpt lat="40.57466291501513" lon="9.267385753986847"><ele>733.0</ele><time>2026-05-02T10:11:38.001Z</time></trkpt><trkpt lat="40.57455162478684" lon="9.267370428728842"><ele>734.25</ele><time>2026-05-02T10:11:39.001Z</time></trkpt><trkpt lat="40.57443772902194" lon="9.26732266130121"><ele>735.5</ele><time>2026-05-02T10:11:40.001Z</time></trkpt><trkpt lat="40.57431991195185" lon="9.267254482491964"><ele>736.75</ele><time>2026-05-02T10:11:41.001Z</time></trkpt><trkpt lat="40.57419944493913" lon="9.267190383618106"><ele>738.0</ele><time>2026-05-02T10:11:42.001Z</time></trkpt><trkpt lat="40.574086762819746" lon="9.267134764562117"><ele>738.0</ele><time>2026-05-02T10:11:43.001Z</time></trkpt><trkpt lat="40.57396914358809" lon="9.267089213976748"><ele>738.0</ele><time>2026-05-02T10:11:44.001Z</time></trkpt><trkpt lat="40.57385584923762" lon="9.267080645345459"><ele>738.0</ele><time>2026-05-02T10:11:45.001Z</time></trkpt><trkpt lat="40.573734071564495" lon="9.26710775042779"><ele>738.0</ele><time>2026-05-02T10:11:46.001Z</time></trkpt><trkpt lat="40.57360651621555" lon="9.267156874673068"><ele>739.5</ele><time>2026-05-02T10:11:47.001Z</time></trkpt><trkpt lat="40.57347642893693" lon="9.267209401186564"><ele>741.0</ele><time>2026-05-02T10:11:48.001Z</time></trkpt><trkpt lat="40.57334142431741" lon="9.267258350143281"><ele>742.5</ele><time>2026-05-02T10:11:49.001Z</time></trkpt><trkpt lat="40.573208073799016" lon="9.267310976047858"><ele>744.0</ele><time>2026-05-02T10:11:50.001Z</time></trkpt><trkpt lat="40.57307120574172" lon="9.267381277663507"><ele>744.3333333333334</ele><time>2026-05-02T10:11:51.001Z</time></trkpt><trkpt lat="40.57292693328058" lon="9.267476358253127"><ele>744.6666666666667</ele><time>2026-05-02T10:11:52.001Z</time></trkpt><trkpt lat="40.57279124533335" lon="9.267577190120926"><ele>745.0</ele><time>2026-05-02T10:11:53.001Z</time></trkpt><trkpt lat="40.572662860967455" lon="9.267677693884298"><ele>744.5</ele><time>2026-05-02T10:11:54.001Z</time></trkpt><trkpt lat="40.57253361750219" lon="9.267775036411969"><ele>744.0</ele><time>2026-05-02T10:11:55.001Z</time></trkpt><trkpt lat="40.572403181717114" lon="9.267870227746355"><ele>743.5</ele><time>2026-05-02T10:11:56.001Z</time></trkpt><trkpt lat="40.57228493691745" lon="9.267972250106912"><ele>743.0</ele><time>2026-05-02T10:11:57.001Z</time></trkpt><trkpt lat="40.57218325824408" lon="9.268086177634816"><ele>743.25</ele><time>2026-05-02T10:11:58.001Z</time></trkpt><trkpt lat="40.572090540746814" lon="9.268216708763878"><ele>743.5</ele><time>2026-05-02T10:11:59.001Z</time></trkpt><trkpt lat="40.57200409048671" lon="9.268361296460915"><ele>743.75</ele><time>2026-05-02T10:12:00.001Z</time></trkpt><trkpt lat="40.57191705869825" lon="9.268503401349477"><ele>744.0</ele><time>2026-05-02T10:12:01.001Z</time></trkpt><trkpt lat="40.571832950177885" lon="9.268641753870256"><ele>743.75</ele><time>2026-05-02T10:12:02.001Z</time></trkpt><trkpt lat="40.57175305018001" lon="9.268781897405482"><ele>743.5</ele><time>2026-05-02T10:12:03.001Z</time></trkpt><trkpt lat="40.57167797941224" lon="9.268916922480836"><ele>743.25</ele><time>2026-05-02T10:12:04.001Z</time></trkpt><trkpt lat="40.57160462698718" lon="9.269046556192894"><ele>743.0</ele><time>2026-05-02T10:12:05.001Z</time></trkpt><trkpt lat="40.57152741240306" lon="9.269178465190057"><ele>743.0</ele><time>2026-05-02T10:12:06.001Z</time></trkpt><trkpt lat="40.57145561387554" lon="9.269296314783746"><ele>743.0</ele><time>2026-05-02T10:12:07.001Z</time></trkpt><trkpt lat="40.57138828893797" lon="9.269406078648293"><ele>743.0</ele><time>2026-05-02T10:12:08.001Z</time></trkpt><trkpt lat="40.57131665923626" lon="9.269506100075391"><ele>743.0</ele><time>2026-05-02T10:12:09.001Z</time></trkpt><trkpt lat="40.57123437123362" lon="9.2695695628763"><ele>743.0</ele><time>2026-05-02T10:12:10.001Z</time></trkpt><trkpt lat="40.57114540722773" lon="9.269581350604518"><ele>742.8333333333333</ele><time>2026-05-02T10:12:11.001Z</time></trkpt><trkpt lat="40.571056410921756" lon="9.269565032425929"><ele>742.6666666666666</ele><time>2026-05-02T10:12:12.001Z</time></trkpt><trkpt lat="40.5709638227414" lon="9.2695288016238"><ele>742.5</ele><time>2026-05-02T10:12:13.001Z</time></trkpt><trkpt lat="40.570888893281534" lon="9.269496148674392"><ele>742.3333333333334</ele><time>2026-05-02T10:12:14.001Z</time></trkpt><trkpt lat="40.57080762194064" lon="9.26945685052658"><ele>742.1666666666667</ele><time>2026-05-02T10:12:15.001Z</time></trkpt><trkpt lat="40.5707412335435" lon="9.269424160502794"><ele>742.0</ele><time>2026-05-02T10:12:16.001Z</time></trkpt><trkpt lat="40.57067420302009" lon="9.269420144190642"><ele>742.0</ele><time>2026-05-02T10:12:18.001Z</time></trkpt><trkpt lat="40.570604994715644" lon="9.269521695298643"><ele>742.0</ele><time>2026-05-02T10:12:25.001Z</time></trkpt><trkpt lat="40.57059938122716" lon="9.269624785817456"><ele>742.0</ele><time>2026-05-02T10:12:26.001Z</time></trkpt><trkpt lat="40.57060564085198" lon="9.269729485652844"><ele>742.0</ele><time>2026-05-02T10:12:27.001Z</time></trkpt><trkpt lat="40.57061370498399" lon="9.269844596759663"><ele>742.0</ele><time>2026-05-02T10:12:28.001Z</time></trkpt><trkpt lat="40.5706231633298" lon="9.269981192563023"><ele>743.0</ele><time>2026-05-02T10:12:29.001Z</time></trkpt><trkpt lat="40.57062950430865" lon="9.270129130278438"><ele>744.0</ele><time>2026-05-02T10:12:30.001Z</time></trkpt><trkpt lat="40.57063800554793" lon="9.270287038215349"><ele>745.0</ele><time>2026-05-02T10:12:31.001Z</time></trkpt><trkpt lat="40.570663975049726" lon="9.270455313669775"><ele>746.0</ele><time>2026-05-02T10:12:32.001Z</time></trkpt><trkpt lat="40.57071588974706" lon="9.270628543075622"><ele>748.0</ele><time>2026-05-02T10:12:33.001Z</time></trkpt><trkpt lat="40.570795300612154" lon="9.270801950654251"><ele>750.0</ele><time>2026-05-02T10:12:34.001Z</time></trkpt><trkpt lat="40.57088349517062" lon="9.270985051079215"><ele>752.0</ele><time>2026-05-02T10:12:35.001Z</time></trkpt><trkpt lat="40.57097057891505" lon="9.2711845035202"><ele>752.0</ele><time>2026-05-02T10:12:36.001Z</time></trkpt><trkpt lat="40.57106156018959" lon="9.271390185466524"><ele>752.0</ele><time>2026-05-02T10:12:37.001Z</time></trkpt><trkpt lat="40.571160858115874" lon="9.271607490536626"><ele>752.0</ele><time>2026-05-02T10:12:38.001Z</time></trkpt><trkpt lat="40.57126237961139" lon="9.271828885634127"><ele>752.3333333333333</ele><time>2026-05-02T10:12:39.001Z</time></trkpt><trkpt lat="40.57136822597251" lon="9.272050482431723"><ele>752.6666666666666</ele><time>2026-05-02T10:12:40.001Z</time></trkpt><trkpt lat="40.57147815792318" lon="9.272280199666419"><ele>753.0</ele><time>2026-05-02T10:12:41.001Z</time></trkpt><trkpt lat="40.57158856443208" lon="9.272513366177236"><ele>754.0</ele><time>2026-05-02T10:12:42.001Z</time></trkpt><trkpt lat="40.57168994289403" lon="9.272733859541606"><ele>755.0</ele><time>2026-05-02T10:12:43.001Z</time></trkpt><trkpt lat="40.571783705098916" lon="9.272941987048688"><ele>756.0</ele><time>2026-05-02T10:12:44.001Z</time></trkpt><trkpt lat="40.571867070953964" lon="9.273133018750743"><ele>756.3333333333334</ele><time>2026-05-02T10:12:45.001Z</time></trkpt><trkpt lat="40.5719368501715" lon="9.27330985244011"><ele>756.6666666666667</ele><time>2026-05-02T10:12:46.001Z</time></trkpt><trkpt lat="40.57198477561646" lon="9.273500678376587"><ele>757.0</ele><time>2026-05-02T10:12:47.001Z</time></trkpt><trkpt lat="40.572006563883534" lon="9.273695228208984"><ele>757.0</ele><time>2026-05-02T10:12:48.001Z</time></trkpt><trkpt lat="40.571991081548575" lon="9.273894344777897"><ele>757.0</ele><time>2026-05-02T10:12:49.001Z</time></trkpt><trkpt lat="40.571945718487115" lon="9.274092292949007"><ele>757.0</ele><time>2026-05-02T10:12:50.001Z</time></trkpt><trkpt lat="40.571862434484224" lon="9.274291214025903"><ele>757.3333333333334</ele><time>2026-05-02T10:12:51.001Z</time></trkpt><trkpt lat="40.571768543951926" lon="9.274487692397953"><ele>757.6666666666666</ele><time>2026-05-02T10:12:52.001Z</time></trkpt><trkpt lat="40.57166363413964" lon="9.274683554922467"><ele>758.0</ele><time>2026-05-02T10:12:53.001Z</time></trkpt><trkpt lat="40.57155843721926" lon="9.274888706516094"><ele>757.3333333333333</ele><time>2026-05-02T10:12:54.001Z</time></trkpt><trkpt lat="40.5714771811362" lon="9.275103027478009"><ele>756.6666666666666</ele><time>2026-05-02T10:12:55.001Z</time></trkpt><trkpt lat="40.57142674502909" lon="9.275336729885172"><ele>756.0</ele><time>2026-05-02T10:12:56.001Z</time></trkpt><trkpt lat="40.57140493271641" lon="9.27559496905741"><ele>756.0</ele><time>2026-05-02T10:12:57.001Z</time></trkpt><trkpt lat="40.571395548701766" lon="9.275855616417674"><ele>756.0</ele><time>2026-05-02T10:12:58.001Z</time></trkpt><trkpt lat="40.571388057160846" lon="9.27609343382594"><ele>756.0</ele><time>2026-05-02T10:12:59.001Z</time></trkpt><trkpt lat="40.57138089523764" lon="9.276310700719762"><ele>755.75</ele><time>2026-05-02T10:13:00.001Z</time></trkpt><trkpt lat="40.57136076954755" lon="9.276494461619249"><ele>755.5</ele><time>2026-05-02T10:13:01.001Z</time></trkpt><trkpt lat="40.57131268266006" lon="9.276642407905186"><ele>755.25</ele><time>2026-05-02T10:13:02Z</time></trkpt><trkpt lat="40.57123338441634" lon="9.276757766070778"><ele>755.0</ele><time>2026-05-02T10:13:03Z</time></trkpt><trkpt lat="40.571131880407556" lon="9.276826721144824"><ele>757.6</ele><time>2026-05-02T10:13:04Z</time></trkpt><trkpt lat="40.57104242245046" lon="9.276893523436682"><ele>760.2</ele><time>2026-05-02T10:13:05Z</time></trkpt><trkpt lat="40.570994830858226" lon="9.27698828821746"><ele>762.8</ele><time>2026-05-02T10:13:06Z</time></trkpt><trkpt lat="40.57099224382565" lon="9.27709994835803"><ele>765.4</ele><time>2026-05-02T10:13:07Z</time></trkpt><trkpt lat="40.571034451048895" lon="9.27722757892472"><ele>768.0</ele><time>2026-05-02T10:13:08Z</time></trkpt><trkpt lat="40.5711051368839" lon="9.277387232698096"><ele>769.0</ele><time>2026-05-02T10:13:09Z</time></trkpt><trkpt lat="40.57115016271417" lon="9.277566761981918"><ele>770.0</ele><time>2026-05-02T10:13:10Z</time></trkpt><trkpt lat="40.57115929282119" lon="9.277770737070558"><ele>771.0</ele><time>2026-05-02T10:13:11Z</time></trkpt><trkpt lat="40.57115613901241" lon="9.277986121042948"><ele>772.0</ele><time>2026-05-02T10:13:12Z</time></trkpt><trkpt lat="40.57114033567885" lon="9.278227955899965"><ele>773.0</ele><time>2026-05-02T10:13:13Z</time></trkpt><trkpt lat="40.5711116398809" lon="9.278475961404354"><ele>774.0</ele><time>2026-05-02T10:13:14Z</time></trkpt><trkpt lat="40.571063484869555" lon="9.2786983709761"><ele>774.0</ele><time>2026-05-02T10:13:15Z</time></trkpt><trkpt lat="40.570986815842545" lon="9.278891253431231"><ele>774.0</ele><time>2026-05-02T10:13:16Z</time></trkpt><trkpt lat="40.57088767922727" lon="9.279068961031175"><ele>774.0</ele><time>2026-05-02T10:13:17Z</time></trkpt><trkpt lat="40.570761883888075" lon="9.27923776637349"><ele>772.0</ele><time>2026-05-02T10:13:18Z</time></trkpt><trkpt lat="40.57062063824013" lon="9.279394758654526"><ele>770.0</ele><time>2026-05-02T10:13:19Z</time></trkpt><trkpt lat="40.57048903665257" lon="9.279540286749238"><ele>768.0</ele><time>2026-05-02T10:13:20Z</time></trkpt><trkpt lat="40.570370333540964" lon="9.279678170519068"><ele>770.0</ele><time>2026-05-02T10:13:21Z</time></trkpt><trkpt lat="40.57027194560824" lon="9.279818712771496"><ele>772.0</ele><time>2026-05-02T10:13:22Z</time></trkpt><trkpt lat="40.57021377122689" lon="9.279959458504935"><ele>774.0</ele><time>2026-05-02T10:13:23Z</time></trkpt><trkpt lat="40.570192030039316" lon="9.280107833602289"><ele>776.0</ele><time>2026-05-02T10:13:24Z</time></trkpt><trkpt lat="40.57022568689749" lon="9.280256003001433"><ele>776.0</ele><time>2026-05-02T10:13:25Z</time></trkpt><trkpt lat="40.5703010231954" lon="9.280388914866117"><ele>776.0</ele><time>2026-05-02T10:13:26Z</time></trkpt><trkpt lat="40.57040587275296" lon="9.280533307510929"><ele>776.0</ele><time>2026-05-02T10:13:27Z</time></trkpt><trkpt lat="40.57051502264413" lon="9.28069156003032"><ele>776.0</ele><time>2026-05-02T10:13:28Z</time></trkpt><trkpt lat="40.57062997110288" lon="9.28085703174004"><ele>773.6666666666667</ele><time>2026-05-02T10:13:29Z</time></trkpt><trkpt lat="40.57075087975053" lon="9.281031717164721"><ele>771.3333333333333</ele><time>2026-05-02T10:13:30Z</time></trkpt><trkpt lat="40.57087703249831" lon="9.281206221014399"><ele>769.0</ele><time>2026-05-02T10:13:31Z</time></trkpt><trkpt lat="40.57098978896333" lon="9.281364252659596"><ele>770.0</ele><time>2026-05-02T10:13:32Z</time></trkpt><trkpt lat="40.57107938009024" lon="9.281508573238144"><ele>771.0</ele><time>2026-05-02T10:13:33Z</time></trkpt><trkpt lat="40.57113987998161" lon="9.281651987094746"><ele>772.0</ele><time>2026-05-02T10:13:34Z</time></trkpt><trkpt lat="40.571156310434496" lon="9.281785318825419"><ele>773.0</ele><time>2026-05-02T10:13:35Z</time></trkpt><trkpt lat="40.57113770630933" lon="9.281902777338935"><ele>773.0</ele><time>2026-05-02T10:13:36Z</time></trkpt><trkpt lat="40.571087372336144" lon="9.282008259934079"><ele>773.0</ele><time>2026-05-02T10:13:37Z</time></trkpt><trkpt lat="40.571012153724205" lon="9.282124458176304"><ele>773.0</ele><time>2026-05-02T10:13:38Z</time></trkpt><trkpt lat="40.57092658122733" lon="9.282256502886854"><ele>773.0</ele><time>2026-05-02T10:13:39Z</time></trkpt><trkpt lat="40.570830163979245" lon="9.282408863397666"><ele>773.3333333333334</ele><time>2026-05-02T10:13:40Z</time></trkpt><trkpt lat="40.57073442855742" lon="9.282579032420234"><ele>773.6666666666667</ele><time>2026-05-02T10:13:41Z</time></trkpt><trkpt lat="40.57063305105372" lon="9.282753924804243"><ele>774.0</ele><time>2026-05-02T10:13:42Z</time></trkpt><trkpt lat="40.570545862269505" lon="9.282911695417532"><ele>774.0</ele><time>2026-05-02T10:13:43Z</time></trkpt><trkpt lat="40.570477342912625" lon="9.283065330135544"><ele>774.0</ele><time>2026-05-02T10:13:44Z</time></trkpt><trkpt lat="40.570449267693924" lon="9.283224314428656"><ele>774.0</ele><time>2026-05-02T10:13:45Z</time></trkpt><trkpt lat="40.570458617726196" lon="9.283381189245656"><ele>774.0</ele><time>2026-05-02T10:13:46Z</time></trkpt><trkpt lat="40.57050957603667" lon="9.283537765337863"><ele>774.0</ele><time>2026-05-02T10:13:47Z</time></trkpt><trkpt lat="40.57058714193416" lon="9.283697478900914"><ele>774.0</ele><time>2026-05-02T10:13:48Z</time></trkpt><trkpt lat="40.570670473773845" lon="9.28386421638805"><ele>774.0</ele><time>2026-05-02T10:13:49Z</time></trkpt><trkpt lat="40.5707617581551" lon="9.284046992937968"><ele>774.3333333333333</ele><time>2026-05-02T10:13:50Z</time></trkpt><trkpt lat="40.57085947151982" lon="9.284247024847835"><ele>774.6666666666666</ele><time>2026-05-02T10:13:51Z</time></trkpt><trkpt lat="40.57093879037225" lon="9.284455691544702"><ele>775.0</ele><time>2026-05-02T10:13:52Z</time></trkpt><trkpt lat="40.57099142516295" lon="9.284654693479096"><ele>776.0</ele><time>2026-05-02T10:13:53Z</time></trkpt><trkpt lat="40.57101280423234" lon="9.284850749024576"><ele>777.0</ele><time>2026-05-02T10:13:54Z</time></trkpt><trkpt lat="40.57101583318593" lon="9.28504737288784"><ele>778.0</ele><time>2026-05-02T10:13:55Z</time></trkpt><trkpt lat="40.57099912311591" lon="9.28525159744872"><ele>778.0</ele><time>2026-05-02T10:13:56Z</time></trkpt><trkpt lat="40.57095335112043" lon="9.285454455309996"><ele>778.0</ele><time>2026-05-02T10:13:57Z</time></trkpt><trkpt lat="40.570875205014936" lon="9.285660157660084"><ele>778.0</ele><time>2026-05-02T10:13:58Z</time></trkpt><trkpt lat="40.57077950875509" lon="9.285867082609943"><ele>778.0</ele><time>2026-05-02T10:13:59Z</time></trkpt><trkpt lat="40.57067584859741" lon="9.286087037071159"><ele>778.0</ele><time>2026-05-02T10:14:00Z</time></trkpt><trkpt lat="40.57056660930459" lon="9.286315809645332"><ele>778.0</ele><time>2026-05-02T10:14:01Z</time></trkpt><trkpt lat="40.570451699014356" lon="9.286544093005995"><ele>778.0</ele><time>2026-05-02T10:14:02Z</time></trkpt><trkpt lat="40.57034267607172" lon="9.286772116653479"><ele>778.0</ele><time>2026-05-02T10:14:03Z</time></trkpt><trkpt lat="40.570246166909584" lon="9.287010205350558"><ele>778.0</ele><time>2026-05-02T10:14:04Z</time></trkpt><trkpt lat="40.57016887937784" lon="9.287264264539349"><ele>778.0</ele><time>2026-05-02T10:14:05Z</time></trkpt><trkpt lat="40.570103433173394" lon="9.287548509377778"><ele>778.0</ele><time>2026-05-02T10:14:06Z</time></trkpt><trkpt lat="40.57004907449438" lon="9.287853352750657"><ele>777.0</ele><time>2026-05-02T10:14:07.001Z</time></trkpt><trkpt lat="40.56999447187889" lon="9.288161220498617"><ele>776.0</ele><time>2026-05-02T10:14:08.001Z</time></trkpt><trkpt lat="40.569937892103866" lon="9.288462175786622"><ele>776.0</ele><time>2026-05-02T10:14:09.001Z</time></trkpt><trkpt lat="40.56988499677276" lon="9.288746997161246"><ele>776.0</ele><time>2026-05-02T10:14:10.001Z</time></trkpt><trkpt lat="40.56982121496472" lon="9.289027800110679"><ele>776.0</ele><time>2026-05-02T10:14:11.001Z</time></trkpt><trkpt lat="40.56973313947245" lon="9.289304451533994"><ele>777.0</ele><time>2026-05-02T10:14:12.001Z</time></trkpt><trkpt lat="40.56962693535475" lon="9.289573533569133"><ele>778.0</ele><time>2026-05-02T10:14:13.001Z</time></trkpt><trkpt lat="40.56951747708796" lon="9.289845907973827"><ele>778.0</ele><time>2026-05-02T10:14:14.001Z</time></trkpt><trkpt lat="40.56941330513008" lon="9.290111151669507"><ele>778.0</ele><time>2026-05-02T10:14:15.001Z</time></trkpt><trkpt lat="40.5693205477676" lon="9.290362543773682"><ele>778.0</ele><time>2026-05-02T10:14:16.001Z</time></trkpt><trkpt lat="40.569233668559626" lon="9.290602781226733"><ele>779.0</ele><time>2026-05-02T10:14:17.001Z</time></trkpt><trkpt lat="40.569151073610094" lon="9.29084230490709"><ele>780.0</ele><time>2026-05-02T10:14:18.001Z</time></trkpt><trkpt lat="40.56908740907702" lon="9.291072231748322"><ele>781.0</ele><time>2026-05-02T10:14:19.001Z</time></trkpt><trkpt lat="40.56905026904303" lon="9.291302375153414"><ele>781.6666666666666</ele><time>2026-05-02T10:14:20.001Z</time></trkpt><trkpt lat="40.56904058975612" lon="9.291542071267145"><ele>782.3333333333333</ele><time>2026-05-02T10:14:21.001Z</time></trkpt><trkpt lat="40.56905514908326" lon="9.291797644711037"><ele>783.0</ele><time>2026-05-02T10:14:22.001Z</time></trkpt><trkpt lat="40.56908703641274" lon="9.292055426186057"><ele>783.0</ele><time>2026-05-02T10:14:23.001Z</time></trkpt><trkpt lat="40.569118859746546" lon="9.292320246648844"><ele>783.0</ele><time>2026-05-02T10:14:24.001Z</time></trkpt><trkpt lat="40.569147839660026" lon="9.292590975703424"><ele>783.0</ele><time>2026-05-02T10:14:25.001Z</time></trkpt><trkpt lat="40.56918311097746" lon="9.292872626656399"><ele>783.6666666666667</ele><time>2026-05-02T10:14:26.001Z</time></trkpt><trkpt lat="40.56922960649512" lon="9.293148903372403"><ele>784.3333333333334</ele><time>2026-05-02T10:14:27.001Z</time></trkpt><trkpt lat="40.56928394026567" lon="9.293425096420854"><ele>785.0</ele><time>2026-05-02T10:14:28.001Z</time></trkpt><trkpt lat="40.56934473113901" lon="9.293705144844013"><ele>784.5</ele><time>2026-05-02T10:14:29.001Z</time></trkpt><trkpt lat="40.569411403013774" lon="9.293988296671243"><ele>784.0</ele><time>2026-05-02T10:14:30.001Z</time></trkpt><trkpt lat="40.569483199346536" lon="9.294277554318288"><ele>785.0</ele><time>2026-05-02T10:14:31.001Z</time></trkpt><trkpt lat="40.56955364144069" lon="9.29456629194726"><ele>786.0</ele><time>2026-05-02T10:14:32.001Z</time></trkpt><trkpt lat="40.56961798073755" lon="9.294868455839334"><ele>786.0</ele><time>2026-05-02T10:14:33.001Z</time></trkpt><trkpt lat="40.5696700630721" lon="9.29518174203216"><ele>786.0</ele><time>2026-05-02T10:14:34.001Z</time></trkpt><trkpt lat="40.569717438271255" lon="9.295493835721315"><ele>786.5</ele><time>2026-05-02T10:14:35.001Z</time></trkpt><trkpt lat="40.56976375758711" lon="9.295800695483681"><ele>787.0</ele><time>2026-05-02T10:14:36.001Z</time></trkpt><trkpt lat="40.569807232552485" lon="9.296094718854631"><ele>787.0</ele><time>2026-05-02T10:14:37.001Z</time></trkpt><trkpt lat="40.569855350149915" lon="9.296385437703591"><ele>787.0</ele><time>2026-05-02T10:14:38.001Z</time></trkpt><trkpt lat="40.56991144298603" lon="9.296670295630937"><ele>786.5</ele><time>2026-05-02T10:14:39.001Z</time></trkpt><trkpt lat="40.569976807687695" lon="9.296955597386766"><ele>786.0</ele><time>2026-05-02T10:14:40.001Z</time></trkpt><trkpt lat="40.57004094176337" lon="9.297238738968142"><ele>786.0</ele><time>2026-05-02T10:14:41.001Z</time></trkpt><trkpt lat="40.57010242063599" lon="9.297523518076295"><ele>786.0</ele><time>2026-05-02T10:14:42.001Z</time></trkpt><trkpt lat="40.57016536963718" lon="9.297809619838215"><ele>785.5</ele><time>2026-05-02T10:14:43.001Z</time></trkpt><trkpt lat="40.570235124605134" lon="9.298096414548795"><ele>785.0</ele><time>2026-05-02T10:14:44.001Z</time></trkpt><trkpt lat="40.57031128642516" lon="9.29838012162814"><ele>785.3333333333334</ele><time>2026-05-02T10:14:45.001Z</time></trkpt><trkpt lat="40.57038339358059" lon="9.298661173714741"><ele>785.6666666666667</ele><time>2026-05-02T10:14:46Z</time></trkpt><trkpt lat="40.570456187682666" lon="9.298936827513073"><ele>786.0</ele><time>2026-05-02T10:14:47Z</time></trkpt><trkpt lat="40.5705376785538" lon="9.299208909312682"><ele>785.3333333333333</ele><time>2026-05-02T10:14:48Z</time></trkpt><trkpt lat="40.57063251891592" lon="9.299479960269933"><ele>784.6666666666666</ele><time>2026-05-02T10:14:49Z</time></trkpt><trkpt lat="40.57073361822995" lon="9.299727964495274"><ele>784.0</ele><time>2026-05-02T10:14:50Z</time></trkpt><trkpt lat="40.57082937336139" lon="9.29995233935902"><ele>783.6666666666666</ele><time>2026-05-02T10:14:51Z</time></trkpt><trkpt lat="40.570917816961376" lon="9.30016879702946"><ele>783.3333333333333</ele><time>2026-05-02T10:14:52Z</time></trkpt><trkpt lat="40.57099556397834" lon="9.30036313368435"><ele>783.0</ele><time>2026-05-02T10:14:53Z</time></trkpt><trkpt lat="40.57105281097387" lon="9.300549105097376"><ele>783.75</ele><time>2026-05-02T10:14:54Z</time></trkpt><trkpt lat="40.571081651154216" lon="9.300732742071803"><ele>784.5</ele><time>2026-05-02T10:14:55Z</time></trkpt><trkpt lat="40.57108125537538" lon="9.300905564623196"><ele>785.25</ele><time>2026-05-02T10:14:56Z</time></trkpt><trkpt lat="40.57104233523417" lon="9.30106653301523"><ele>786.0</ele><time>2026-05-02T10:14:57Z</time></trkpt><trkpt lat="40.57098169604859" lon="9.301237137140701"><ele>786.0</ele><time>2026-05-02T10:14:58Z</time></trkpt><trkpt lat="40.57091973779383" lon="9.301412606423861"><ele>786.0</ele><time>2026-05-02T10:14:59Z</time></trkpt><trkpt lat="40.570854826577516" lon="9.301592576964612"><ele>786.0</ele><time>2026-05-02T10:15:00Z</time></trkpt><trkpt lat="40.57079769957825" lon="9.301779657795604"><ele>787.0</ele><time>2026-05-02T10:15:01Z</time></trkpt><trkpt lat="40.570750073343305" lon="9.301982218104143"><ele>788.0</ele><time>2026-05-02T10:15:02Z</time></trkpt><trkpt lat="40.57071501488815" lon="9.302198508195046"><ele>789.0</ele><time>2026-05-02T10:15:03Z</time></trkpt><trkpt lat="40.570694602942574" lon="9.302431656146549"><ele>789.0</ele><time>2026-05-02T10:15:04Z</time></trkpt><trkpt lat="40.57069245077902" lon="9.302680192986745"><ele>789.0</ele><time>2026-05-02T10:15:05Z</time></trkpt><trkpt lat="40.57070106252566" lon="9.302939105685741"><ele>789.0</ele><time>2026-05-02T10:15:06Z</time></trkpt><trkpt lat="40.57071193338078" lon="9.30321130272793"><ele>789.0</ele><time>2026-05-02T10:15:07Z</time></trkpt><trkpt lat="40.57071791166335" lon="9.303496280461363"><ele>789.0</ele><time>2026-05-02T10:15:08Z</time></trkpt><trkpt lat="40.57071897748395" lon="9.303796854875326"><ele>789.0</ele><time>2026-05-02T10:15:09Z</time></trkpt><trkpt lat="40.57071726732273" lon="9.304113675850871"><ele>788.5</ele><time>2026-05-02T10:15:10Z</time></trkpt><trkpt lat="40.570711061905364" lon="9.30443919037832"><ele>788.0</ele><time>2026-05-02T10:15:11Z</time></trkpt><trkpt lat="40.57070579512303" lon="9.304766829490394"><ele>787.5</ele><time>2026-05-02T10:15:12Z</time></trkpt><trkpt lat="40.570701267894954" lon="9.305094930418647"><ele>787.0</ele><time>2026-05-02T10:15:13Z</time></trkpt><trkpt lat="40.5706942053277" lon="9.305420064569727"><ele>787.0</ele><time>2026-05-02T10:15:14Z</time></trkpt><trkpt lat="40.57068548231525" lon="9.305744265184723"><ele>787.0</ele><time>2026-05-02T10:15:15Z</time></trkpt><trkpt lat="40.570677796793234" lon="9.306063700894315"><ele>787.0</ele><time>2026-05-02T10:15:16Z</time></trkpt><trkpt lat="40.57067227689088" lon="9.306380470851536"><ele>787.0</ele><time>2026-05-02T10:15:17Z</time></trkpt><trkpt lat="40.57066700013862" lon="9.306694080236058"><ele>787.0</ele><time>2026-05-02T10:15:18Z</time></trkpt><trkpt lat="40.57066177743296" lon="9.307003062816891"><ele>787.0</ele><time>2026-05-02T10:15:19Z</time></trkpt><trkpt lat="40.570654108852246" lon="9.307297110094677"><ele>786.5</ele><time>2026-05-02T10:15:20Z</time></trkpt><trkpt lat="40.57064889841318" lon="9.307595082090021"><ele>786.0</ele><time>2026-05-02T10:15:21Z</time></trkpt><trkpt lat="40.57064399793141" lon="9.3078921640927"><ele>785.6666666666667</ele><time>2026-05-02T10:15:22Z</time></trkpt><trkpt lat="40.57063892364917" lon="9.308185606873936"><ele>785.3333333333334</ele><time>2026-05-02T10:15:23Z</time></trkpt><trkpt lat="40.5706344519426" lon="9.308476152306614"><ele>785.0</ele><time>2026-05-02T10:15:24Z</time></trkpt><trkpt lat="40.57063067222193" lon="9.308763836545321"><ele>785.3333333333334</ele><time>2026-05-02T10:15:25Z</time></trkpt><trkpt lat="40.5706272276514" lon="9.309047359747053"><ele>785.6666666666667</ele><time>2026-05-02T10:15:26Z</time></trkpt><trkpt lat="40.57062406042007" lon="9.30932982659914"><ele>786.0</ele><time>2026-05-02T10:15:27Z</time></trkpt><trkpt lat="40.570620928503196" lon="9.309605039234746"><ele>786.6666666666667</ele><time>2026-05-02T10:15:28Z</time></trkpt><trkpt lat="40.570608897258396" lon="9.309862011115177"><ele>787.3333333333334</ele><time>2026-05-02T10:15:29Z</time></trkpt><trkpt lat="40.57058072472145" lon="9.310114519868298"><ele>788.0</ele><time>2026-05-02T10:15:30Z</time></trkpt><trkpt lat="40.57052309750209" lon="9.310358570950024"><ele>788.6666666666667</ele><time>2026-05-02T10:15:31Z</time></trkpt><trkpt lat="40.570442803386136" lon="9.310587989498496"><ele>789.3333333333333</ele><time>2026-05-02T10:15:32Z</time></trkpt><trkpt lat="40.57034223970844" lon="9.310802850946452"><ele>790.0</ele><time>2026-05-02T10:15:33Z</time></trkpt><trkpt lat="40.57023200576629" lon="9.311015760185292"><ele>790.0</ele><time>2026-05-02T10:15:34Z</time></trkpt><trkpt lat="40.570113348365055" lon="9.31122080783545"><ele>790.0</ele><time>2026-05-02T10:15:35Z</time></trkpt><trkpt lat="40.56998058301106" lon="9.311408688963398"><ele>790.0</ele><time>2026-05-02T10:15:36Z</time></trkpt><trkpt lat="40.56984563242216" lon="9.311575315599539"><ele>789.0</ele><time>2026-05-02T10:15:37Z</time></trkpt><trkpt lat="40.56972960654434" lon="9.311734049136334"><ele>788.0</ele><time>2026-05-02T10:15:38Z</time></trkpt><trkpt lat="40.56963814831653" lon="9.311890660167212"><ele>787.0</ele><time>2026-05-02T10:15:39Z</time></trkpt><trkpt lat="40.56957850279494" lon="9.312063805670682"><ele>786.6666666666666</ele><time>2026-05-02T10:15:40Z</time></trkpt><trkpt lat="40.56954092572038" lon="9.312251972973774"><ele>786.3333333333333</ele><time>2026-05-02T10:15:41Z</time></trkpt><trkpt lat="40.56952821293305" lon="9.312455997523665"><ele>786.0</ele><time>2026-05-02T10:15:42Z</time></trkpt><trkpt lat="40.56952470358914" lon="9.31266895593778"><ele>788.0</ele><time>2026-05-02T10:15:43Z</time></trkpt><trkpt lat="40.56951666278213" lon="9.312890870031296"><ele>790.0</ele><time>2026-05-02T10:15:44Z</time></trkpt><trkpt lat="40.56949494136643" lon="9.313105009941392"><ele>792.0</ele><time>2026-05-02T10:15:45Z</time></trkpt><trkpt lat="40.56944932590921" lon="9.31330630647477"><ele>792.0</ele><time>2026-05-02T10:15:46Z</time></trkpt><trkpt lat="40.56937722765102" lon="9.313494955218186"><ele>792.0</ele><time>2026-05-02T10:15:47Z</time></trkpt><trkpt lat="40.56928031303177" lon="9.313663874486103"><ele>792.0</ele><time>2026-05-02T10:15:48Z</time></trkpt><trkpt lat="40.56915484879355" lon="9.313811792612249"><ele>790.6666666666667</ele><time>2026-05-02T10:15:49Z</time></trkpt><trkpt lat="40.56901779513872" lon="9.313962057045968"><ele>789.3333333333334</ele><time>2026-05-02T10:15:50Z</time></trkpt><trkpt lat="40.56887797770205" lon="9.314118541280592"><ele>788.0</ele><time>2026-05-02T10:15:51Z</time></trkpt><trkpt lat="40.56873726712395" lon="9.314283287024773"><ele>789.0</ele><time>2026-05-02T10:15:52Z</time></trkpt><trkpt lat="40.56859094104815" lon="9.314446171122864"><ele>790.0</ele><time>2026-05-02T10:15:53Z</time></trkpt><trkpt lat="40.56844922383064" lon="9.314612383102178"><ele>791.0</ele><time>2026-05-02T10:15:54Z</time></trkpt><trkpt lat="40.568318706842426" lon="9.314795192534353"><ele>791.0</ele><time>2026-05-02T10:15:55Z</time></trkpt><trkpt lat="40.568205900654526" lon="9.314996859190442"><ele>791.0</ele><time>2026-05-02T10:15:56Z</time></trkpt><trkpt lat="40.5681007194103" lon="9.315205525917285"><ele>791.0</ele><time>2026-05-02T10:15:57Z</time></trkpt><trkpt lat="40.56799969435474" lon="9.315408462303141"><ele>791.0</ele><time>2026-05-02T10:15:58Z</time></trkpt><trkpt lat="40.56790158933435" lon="9.31560286765654"><ele>791.0</ele><time>2026-05-02T10:15:59Z</time></trkpt><trkpt lat="40.56780528754077" lon="9.315794248011443"><ele>791.0</ele><time>2026-05-02T10:16:00Z</time></trkpt><trkpt lat="40.567713581632056" lon="9.31598603634629"><ele>792.3333333333334</ele><time>2026-05-02T10:16:01Z</time></trkpt><trkpt lat="40.56762279838271" lon="9.316173836256503"><ele>793.6666666666667</ele><time>2026-05-02T10:16:02Z</time></trkpt><trkpt lat="40.56752777302526" lon="9.316354644221144"><ele>795.0</ele><time>2026-05-02T10:16:03Z</time></trkpt><trkpt lat="40.567423289142305" lon="9.316520638385493"><ele>795.0</ele><time>2026-05-02T10:16:04Z</time></trkpt><trkpt lat="40.56730917395431" lon="9.316675273195871"><ele>795.0</ele><time>2026-05-02T10:16:05Z</time></trkpt><trkpt lat="40.567191970848214" lon="9.316824825042666"><ele>795.0</ele><time>2026-05-02T10:16:06Z</time></trkpt><trkpt lat="40.567077721856606" lon="9.316977270165085"><ele>794.6666666666667</ele><time>2026-05-02T10:16:07Z</time></trkpt><trkpt lat="40.56697101686604" lon="9.317140161024675"><ele>794.3333333333334</ele><time>2026-05-02T10:16:08Z</time></trkpt><trkpt lat="40.566870962301785" lon="9.3173250150063"><ele>794.0</ele><time>2026-05-02T10:16:09Z</time></trkpt><trkpt lat="40.5667785146306" lon="9.317525633209717"><ele>794.0</ele><time>2026-05-02T10:16:10Z</time></trkpt><trkpt lat="40.56669157310197" lon="9.317737865261297"><ele>794.0</ele><time>2026-05-02T10:16:11Z</time></trkpt><trkpt lat="40.56660648412791" lon="9.317960688298918"><ele>794.0</ele><time>2026-05-02T10:16:12Z</time></trkpt><trkpt lat="40.56651625512764" lon="9.318193920374222"><ele>793.3333333333334</ele><time>2026-05-02T10:16:13Z</time></trkpt><trkpt lat="40.56642003830091" lon="9.31843536444431"><ele>792.6666666666667</ele><time>2026-05-02T10:16:14Z</time></trkpt><trkpt lat="40.56632116768047" lon="9.318680242126653"><ele>792.0</ele><time>2026-05-02T10:16:15Z</time></trkpt><trkpt lat="40.566220314631295" lon="9.318926358032948"><ele>791.6666666666667</ele><time>2026-05-02T10:16:16Z</time></trkpt><trkpt lat="40.56611911954267" lon="9.319180389143716"><ele>791.3333333333334</ele><time>2026-05-02T10:16:17Z</time></trkpt><trkpt lat="40.56601833537519" lon="9.319435209462014"><ele>791.0</ele><time>2026-05-02T10:16:18Z</time></trkpt><trkpt lat="40.565915188515724" lon="9.319695617341367"><ele>790.0</ele><time>2026-05-02T10:16:19Z</time></trkpt><trkpt lat="40.565811269054215" lon="9.319956764034004"><ele>789.0</ele><time>2026-05-02T10:16:20Z</time></trkpt><trkpt lat="40.565706594357344" lon="9.320217605559545"><ele>788.0</ele><time>2026-05-02T10:16:21Z</time></trkpt><trkpt lat="40.56559879572331" lon="9.320482173493062"><ele>788.3333333333334</ele><time>2026-05-02T10:16:22Z</time></trkpt><trkpt lat="40.56549671398386" lon="9.32073731188332"><ele>788.6666666666667</ele><time>2026-05-02T10:16:23Z</time></trkpt><trkpt lat="40.565405710389065" lon="9.320985227015493"><ele>789.0</ele><time>2026-05-02T10:16:24Z</time></trkpt><trkpt lat="40.5653286860013" lon="9.321237483927415"><ele>789.3333333333333</ele><time>2026-05-02T10:16:25Z</time></trkpt><trkpt lat="40.56527272889651" lon="9.321474056183824"><ele>789.6666666666666</ele><time>2026-05-02T10:16:26Z</time></trkpt><trkpt lat="40.56522852490491" lon="9.321690588117812"><ele>790.0</ele><time>2026-05-02T10:16:27Z</time></trkpt><trkpt lat="40.56519293758327" lon="9.321872159245293"><ele>790.0</ele><time>2026-05-02T10:16:28Z</time></trkpt><trkpt lat="40.56514830010291" lon="9.3220287983914"><ele>790.0</ele><time>2026-05-02T10:16:29Z</time></trkpt><trkpt lat="40.56508061427217" lon="9.322158276815037"><ele>790.0</ele><time>2026-05-02T10:16:30Z</time></trkpt><trkpt lat="40.56498619037993" lon="9.32224439674183"><ele>790.0</ele><time>2026-05-02T10:16:31Z</time></trkpt><trkpt lat="40.56486991567855" lon="9.32229243635339"><ele>791.5</ele><time>2026-05-02T10:16:32Z</time></trkpt><trkpt lat="40.5647311018925" lon="9.322317544982482"><ele>793.0</ele><time>2026-05-02T10:16:33Z</time></trkpt><trkpt lat="40.56457059185862" lon="9.322337559929155"><ele>794.5</ele><time>2026-05-02T10:16:34Z</time></trkpt><trkpt lat="40.56442828079183" lon="9.322365914250994"><ele>796.0</ele><time>2026-05-02T10:16:35Z</time></trkpt><trkpt lat="40.56430750129602" lon="9.322419874335155"><ele>796.25</ele><time>2026-05-02T10:16:36Z</time></trkpt><trkpt lat="40.56420563159886" lon="9.322517923512303"><ele>796.5</ele><time>2026-05-02T10:16:37Z</time></trkpt><trkpt lat="40.5641347198296" lon="9.322657893259446"><ele>796.75</ele><time>2026-05-02T10:16:38Z</time></trkpt><trkpt lat="40.564088166925245" lon="9.322840935538087"><ele>797.0</ele><time>2026-05-02T10:16:39Z</time></trkpt><trkpt lat="40.564033275954785" lon="9.323048987667946"><ele>797.3333333333334</ele><time>2026-05-02T10:16:40Z</time></trkpt><trkpt lat="40.563972890283395" lon="9.323271566326218"><ele>797.6666666666667</ele><time>2026-05-02T10:16:41Z</time></trkpt><trkpt lat="40.563907572927896" lon="9.323506428020572"><ele>798.0</ele><time>2026-05-02T10:16:42Z</time></trkpt><trkpt lat="40.56385085891608" lon="9.323726837397142"><ele>798.6666666666667</ele><time>2026-05-02T10:16:43Z</time></trkpt><trkpt lat="40.563803644854694" lon="9.323933250979238"><ele>799.3333333333334</ele><time>2026-05-02T10:16:44Z</time></trkpt><trkpt lat="40.56377363222489" lon="9.324147059572992"><ele>800.0</ele><time>2026-05-02T10:16:45Z</time></trkpt><trkpt lat="40.56376397076048" lon="9.324374784122643"><ele>800.0</ele><time>2026-05-02T10:16:46Z</time></trkpt><trkpt lat="40.563775133262915" lon="9.3246134775278"><ele>800.0</ele><time>2026-05-02T10:16:47Z</time></trkpt><trkpt lat="40.56380391139614" lon="9.324864389251692"><ele>800.0</ele><time>2026-05-02T10:16:48Z</time></trkpt><trkpt lat="40.56385149673151" lon="9.325129614432726"><ele>800.3333333333334</ele><time>2026-05-02T10:16:49Z</time></trkpt><trkpt lat="40.56391189552904" lon="9.325390755042006"><ele>800.6666666666667</ele><time>2026-05-02T10:16:50Z</time></trkpt><trkpt lat="40.563980084588295" lon="9.32563238355675"><ele>801.0</ele><time>2026-05-02T10:16:51Z</time></trkpt><trkpt lat="40.564048613942845" lon="9.325855240789366"><ele>800.3333333333333</ele><time>2026-05-02T10:16:52Z</time></trkpt><trkpt lat="40.56410488038894" lon="9.326057499004264"><ele>799.6666666666666</ele><time>2026-05-02T10:16:53Z</time></trkpt><trkpt lat="40.56413085734354" lon="9.326237991339319"><ele>799.0</ele><time>2026-05-02T10:16:54Z</time></trkpt><trkpt lat="40.56412780694059" lon="9.32643293568813"><ele>798.0</ele><time>2026-05-02T10:16:55Z</time></trkpt><trkpt lat="40.5641005795264" lon="9.32661304406639"><ele>797.0</ele><time>2026-05-02T10:16:56Z</time></trkpt><trkpt lat="40.56409492850436" lon="9.326770364187906"><ele>796.0</ele><time>2026-05-02T10:16:57Z</time></trkpt><trkpt lat="40.56412521564444" lon="9.326914098295225"><ele>795.0</ele><time>2026-05-02T10:16:58Z</time></trkpt><trkpt lat="40.564184693703055" lon="9.327047620534822"><ele>795.0</ele><time>2026-05-02T10:16:59Z</time></trkpt><trkpt lat="40.56423291780812" lon="9.327182854649736"><ele>795.0</ele><time>2026-05-02T10:17:00Z</time></trkpt><trkpt lat="40.56424269793138" lon="9.327326236060905"><ele>795.0</ele><time>2026-05-02T10:17:01Z</time></trkpt><trkpt lat="40.56420989786935" lon="9.327470102406258"><ele>795.0</ele><time>2026-05-02T10:17:02Z</time></trkpt><trkpt lat="40.5641545499472" lon="9.327621890893996"><ele>794.5</ele><time>2026-05-02T10:17:03Z</time></trkpt><trkpt lat="40.564088690821535" lon="9.327752485084432"><ele>794.0</ele><time>2026-05-02T10:17:04Z</time></trkpt><trkpt lat="40.56400058673583" lon="9.327845362715603"><ele>793.5</ele><time>2026-05-02T10:17:05Z</time></trkpt><trkpt lat="40.56387692643776" lon="9.327897267336906"><ele>793.0</ele><time>2026-05-02T10:17:06Z</time></trkpt><trkpt lat="40.56373611739819" lon="9.327927030730164"><ele>791.3333333333333</ele><time>2026-05-02T10:17:07Z</time></trkpt><trkpt lat="40.563581432904044" lon="9.327952991958275"><ele>789.6666666666667</ele><time>2026-05-02T10:17:08Z</time></trkpt><trkpt lat="40.56341576061977" lon="9.327982734408899"><ele>788.0</ele><time>2026-05-02T10:17:09Z</time></trkpt><trkpt lat="40.56323791688169" lon="9.32801452000742"><ele>788.0</ele><time>2026-05-02T10:17:10Z</time></trkpt><trkpt lat="40.563067677606874" lon="9.328047214957767"><ele>788.0</ele><time>2026-05-02T10:17:11Z</time></trkpt><trkpt lat="40.562890220872184" lon="9.32806192111724"><ele>788.0</ele><time>2026-05-02T10:17:12Z</time></trkpt><trkpt lat="40.562719628616776" lon="9.32804060822463"><ele>788.5</ele><time>2026-05-02T10:17:13Z</time></trkpt><trkpt lat="40.56257346230494" lon="9.32799192462012"><ele>789.0</ele><time>2026-05-02T10:17:14Z</time></trkpt><trkpt lat="40.562447794126015" lon="9.327939355149866"><ele>789.5</ele><time>2026-05-02T10:17:15Z</time></trkpt><trkpt lat="40.5623354012448" lon="9.3279184167353"><ele>790.0</ele><time>2026-05-02T10:17:16Z</time></trkpt><trkpt lat="40.56223589302084" lon="9.327936482729655"><ele>790.0</ele><time>2026-05-02T10:17:17Z</time></trkpt><trkpt lat="40.56215639097005" lon="9.327993821798621"><ele>790.0</ele><time>2026-05-02T10:17:18Z</time></trkpt><trkpt lat="40.56210014598302" lon="9.32808652599498"><ele>790.0</ele><time>2026-05-02T10:17:19Z</time></trkpt><trkpt lat="40.56206301004779" lon="9.32819526004864"><ele>790.0</ele><time>2026-05-02T10:17:20Z</time></trkpt><trkpt lat="40.56205100846907" lon="9.328321941707683"><ele>790.0</ele><time>2026-05-02T10:17:21Z</time></trkpt><trkpt lat="40.562077859977734" lon="9.328453677777587"><ele>789.75</ele><time>2026-05-02T10:17:22Z</time></trkpt><trkpt lat="40.56214325132347" lon="9.328588420483388"><ele>789.5</ele><time>2026-05-02T10:17:23Z</time></trkpt><trkpt lat="40.56223065790265" lon="9.3287338530487"><ele>789.25</ele><time>2026-05-02T10:17:24Z</time></trkpt><trkpt lat="40.56232485596638" lon="9.328896730520318"><ele>789.0</ele><time>2026-05-02T10:17:25Z</time></trkpt><trkpt lat="40.56241412355245" lon="9.329085541487343"><ele>789.0</ele><time>2026-05-02T10:17:26Z</time></trkpt><trkpt lat="40.56250060729375" lon="9.329301220467134"><ele>789.0</ele><time>2026-05-02T10:17:27Z</time></trkpt><trkpt lat="40.5625844356217" lon="9.329540020459334"><ele>789.0</ele><time>2026-05-02T10:17:28Z</time></trkpt><trkpt lat="40.56267446222993" lon="9.329788697123993"><ele>789.0</ele><time>2026-05-02T10:17:29Z</time></trkpt><trkpt lat="40.56275866011294" lon="9.330040590834425"><ele>789.0</ele><time>2026-05-02T10:17:30Z</time></trkpt><trkpt lat="40.56284893075356" lon="9.330279038860889"><ele>789.0</ele><time>2026-05-02T10:17:31Z</time></trkpt><trkpt lat="40.5629380844966" lon="9.330497661066778"><ele>787.0</ele><time>2026-05-02T10:17:32Z</time></trkpt><trkpt lat="40.56303572726304" lon="9.330697288182757"><ele>785.0</ele><time>2026-05-02T10:17:33Z</time></trkpt><trkpt lat="40.563137393489434" lon="9.330867825326418"><ele>783.0</ele><time>2026-05-02T10:17:34Z</time></trkpt><trkpt lat="40.563226308193606" lon="9.331015686339596"><ele>783.0</ele><time>2026-05-02T10:17:35Z</time></trkpt><trkpt lat="40.56329327271117" lon="9.331163553169578"><ele>783.0</ele><time>2026-05-02T10:17:36Z</time></trkpt><trkpt lat="40.56331738730238" lon="9.331321408085742"><ele>783.0</ele><time>2026-05-02T10:17:37Z</time></trkpt><trkpt lat="40.56330148276418" lon="9.331491596650741"><ele>783.0</ele><time>2026-05-02T10:17:38Z</time></trkpt><trkpt lat="40.563259127903855" lon="9.331677064068959"><ele>781.0</ele><time>2026-05-02T10:17:39Z</time></trkpt><trkpt lat="40.563206206164516" lon="9.331876491613512"><ele>779.0</ele><time>2026-05-02T10:17:40Z</time></trkpt><trkpt lat="40.56315631531895" lon="9.332087189344453"><ele>777.0</ele><time>2026-05-02T10:17:41Z</time></trkpt><trkpt lat="40.56312232557625" lon="9.332280568796822"><ele>775.3333333333333</ele><time>2026-05-02T10:17:42Z</time></trkpt><trkpt lat="40.56311617077668" lon="9.332482160606581"><ele>773.6666666666666</ele><time>2026-05-02T10:17:43Z</time></trkpt><trkpt lat="40.56314565506946" lon="9.332685526325168"><ele>772.0</ele><time>2026-05-02T10:17:44Z</time></trkpt><trkpt lat="40.56319776651559" lon="9.332904565566938"><ele>771.0</ele><time>2026-05-02T10:17:45Z</time></trkpt><trkpt lat="40.56323471506173" lon="9.333094561189275"><ele>770.0</ele><time>2026-05-02T10:17:46Z</time></trkpt><trkpt lat="40.56324796526591" lon="9.333263816294943"><ele>769.0</ele><time>2026-05-02T10:17:47Z</time></trkpt><trkpt lat="40.56323423175033" lon="9.333411047527324"><ele>768.0</ele><time>2026-05-02T10:17:48Z</time></trkpt><trkpt lat="40.56319212009744" lon="9.333513485763191"><ele>768.0</ele><time>2026-05-02T10:17:49Z</time></trkpt><trkpt lat="40.56312192397149" lon="9.333574857583187"><ele>768.0</ele><time>2026-05-02T10:17:50Z</time></trkpt><trkpt lat="40.563030789917676" lon="9.333600952002636"><ele>768.0</ele><time>2026-05-02T10:17:51Z</time></trkpt><trkpt lat="40.562928237313" lon="9.333583651439769"><ele>768.0</ele><time>2026-05-02T10:17:52Z</time></trkpt><trkpt lat="40.56283081077601" lon="9.333516288209108"><ele>768.0</ele><time>2026-05-02T10:17:53Z</time></trkpt><trkpt lat="40.5627242715627" lon="9.333451445228928"><ele>767.75</ele><time>2026-05-02T10:17:54Z</time></trkpt><trkpt lat="40.562590482229396" lon="9.333412560640229"><ele>767.5</ele><time>2026-05-02T10:17:55Z</time></trkpt><trkpt lat="40.562437052043805" lon="9.333385734084981"><ele>767.25</ele><time>2026-05-02T10:17:56Z</time></trkpt><trkpt lat="40.56229214164194" lon="9.33338166910049"><ele>767.0</ele><time>2026-05-02T10:17:57Z</time></trkpt><trkpt lat="40.56214561184777" lon="9.333419508856002"><ele>768.25</ele><time>2026-05-02T10:17:58Z</time></trkpt><trkpt lat="40.56200980725493" lon="9.333486399007096"><ele>769.5</ele><time>2026-05-02T10:17:59Z</time></trkpt><trkpt lat="40.561886111367166" lon="9.333532104362064"><ele>770.75</ele><time>2026-05-02T10:18:00Z</time></trkpt><trkpt lat="40.56176876312644" lon="9.333520096133917"><ele>772.0</ele><time>2026-05-02T10:18:01Z</time></trkpt><trkpt lat="40.561672365755875" lon="9.333451783580617"><ele>772.0</ele><time>2026-05-02T10:18:02Z</time></trkpt><trkpt lat="40.5615803023053" lon="9.333341657784768"><ele>772.0</ele><time>2026-05-02T10:18:03Z</time></trkpt><trkpt lat="40.561476176684465" lon="9.33324762018176"><ele>772.0</ele><time>2026-05-02T10:18:04Z</time></trkpt><trkpt lat="40.56135899646906" lon="9.333199801414871"><ele>772.0</ele><time>2026-05-02T10:18:05Z</time></trkpt><trkpt lat="40.56122230477271" lon="9.33318591311037"><ele>772.25</ele><time>2026-05-02T10:18:06Z</time></trkpt><trkpt lat="40.56109705766663" lon="9.333200548655217"><ele>772.5</ele><time>2026-05-02T10:18:07Z</time></trkpt><trkpt lat="40.56097213413126" lon="9.33324886304884"><ele>772.75</ele><time>2026-05-02T10:18:08Z</time></trkpt><trkpt lat="40.56085044565171" lon="9.333343847777034"><ele>773.0</ele><time>2026-05-02T10:18:09Z</time></trkpt><trkpt lat="40.56072802243031" lon="9.33348121165727"><ele>773.0</ele><time>2026-05-02T10:18:10Z</time></trkpt><trkpt lat="40.560613023198876" lon="9.33363019992664"><ele>773.0</ele><time>2026-05-02T10:18:11Z</time></trkpt><trkpt lat="40.560509587352094" lon="9.333772286053188"><ele>773.0</ele><time>2026-05-02T10:18:12Z</time></trkpt><trkpt lat="40.56043609672055" lon="9.33391215103117"><ele>773.0</ele><time>2026-05-02T10:18:13Z</time></trkpt><trkpt lat="40.56040249684826" lon="9.33406553661777"><ele>774.0</ele><time>2026-05-02T10:18:14Z</time></trkpt><trkpt lat="40.560409950504344" lon="9.334238975385444"><ele>775.0</ele><time>2026-05-02T10:18:15Z</time></trkpt><trkpt lat="40.560427914255115" lon="9.334435550336286"><ele>776.0</ele><time>2026-05-02T10:18:16Z</time></trkpt><trkpt lat="40.56041463337796" lon="9.334649982163272"><ele>777.0</ele><time>2026-05-02T10:18:17Z</time></trkpt><trkpt lat="40.5603927081122" lon="9.33485919655343"><ele>777.0</ele><time>2026-05-02T10:18:18Z</time></trkpt><trkpt lat="40.56039419634173" lon="9.335074737636399"><ele>777.0</ele><time>2026-05-02T10:18:19Z</time></trkpt><trkpt lat="40.5604170781017" lon="9.335305402868658"><ele>777.0</ele><time>2026-05-02T10:18:20Z</time></trkpt><trkpt lat="40.56041769614862" lon="9.335534709868577"><ele>776.6666666666667</ele><time>2026-05-02T10:18:21Z</time></trkpt><trkpt lat="40.56039143743095" lon="9.335761189771011"><ele>776.3333333333334</ele><time>2026-05-02T10:18:22Z</time></trkpt><trkpt lat="40.560356917097835" lon="9.335951959551846"><ele>776.0</ele><time>2026-05-02T10:18:23Z</time></trkpt><trkpt lat="40.56030623369948" lon="9.336120722871422"><ele>773.25</ele><time>2026-05-02T10:18:24Z</time></trkpt><trkpt lat="40.56022802923874" lon="9.336257897767611"><ele>770.5</ele><time>2026-05-02T10:18:25Z</time></trkpt><trkpt lat="40.560122760437686" lon="9.336341185891312"><ele>767.75</ele><time>2026-05-02T10:18:26Z</time></trkpt><trkpt lat="40.56001093842695" lon="9.336366201000622"><ele>765.0</ele><time>2026-05-02T10:18:27Z</time></trkpt><trkpt lat="40.559912056956435" lon="9.3363456363356"><ele>765.0</ele><time>2026-05-02T10:18:28Z</time></trkpt><trkpt lat="40.55980559006773" lon="9.336328492728107"><ele>765.0</ele><time>2026-05-02T10:18:29Z</time></trkpt><trkpt lat="40.55969939393063" lon="9.336361943410987"><ele>765.0</ele><time>2026-05-02T10:18:30Z</time></trkpt><trkpt lat="40.55959476824917" lon="9.33645209400104"><ele>765.0</ele><time>2026-05-02T10:18:31Z</time></trkpt><trkpt lat="40.55947937578295" lon="9.33657315248168"><ele>767.0</ele><time>2026-05-02T10:18:32Z</time></trkpt><trkpt lat="40.55935142987511" lon="9.33669512805221"><ele>769.0</ele><time>2026-05-02T10:18:33Z</time></trkpt><trkpt lat="40.55922718416764" lon="9.336826179755787"><ele>771.0</ele><time>2026-05-02T10:18:34Z</time></trkpt><trkpt lat="40.559105678892664" lon="9.336951567297428"><ele>771.0</ele><time>2026-05-02T10:18:35Z</time></trkpt><trkpt lat="40.558995853527385" lon="9.337045778468047"><ele>771.0</ele><time>2026-05-02T10:18:36Z</time></trkpt><trkpt lat="40.55888226722215" lon="9.33709627970787"><ele>771.0</ele><time>2026-05-02T10:18:37Z</time></trkpt><trkpt lat="40.55877725641047" lon="9.33709648692474"><ele>771.0</ele><time>2026-05-02T10:18:38Z</time></trkpt><trkpt lat="40.5586678649451" lon="9.337044632962414"><ele>772.5</ele><time>2026-05-02T10:18:39Z</time></trkpt><trkpt lat="40.558544815642755" lon="9.33697799146538"><ele>774.0</ele><time>2026-05-02T10:18:40Z</time></trkpt><trkpt lat="40.55839962672069" lon="9.336937935535175"><ele>775.5</ele><time>2026-05-02T10:18:41Z</time></trkpt><trkpt lat="40.558234577852296" lon="9.33691521100917"><ele>777.0</ele><time>2026-05-02T10:18:42Z</time></trkpt><trkpt lat="40.558075510480464" lon="9.336885521098155"><ele>777.0</ele><time>2026-05-02T10:18:43Z</time></trkpt><trkpt lat="40.55793928934513" lon="9.336840176729496"><ele>777.0</ele><time>2026-05-02T10:18:44Z</time></trkpt><trkpt lat="40.55780486503731" lon="9.336810768637905"><ele>777.0</ele><time>2026-05-02T10:18:45Z</time></trkpt><trkpt lat="40.55768598898999" lon="9.33680790592997"><ele>777.0</ele><time>2026-05-02T10:18:46Z</time></trkpt><trkpt lat="40.55757333011112" lon="9.33685369536562"><ele>778.5</ele><time>2026-05-02T10:18:47Z</time></trkpt><trkpt lat="40.557499375215585" lon="9.336949970052075"><ele>780.0</ele><time>2026-05-02T10:18:48Z</time></trkpt><trkpt lat="40.557461485976326" lon="9.337087497845053"><ele>781.5</ele><time>2026-05-02T10:18:49Z</time></trkpt><trkpt lat="40.557429518641115" lon="9.337269425121736"><ele>783.0</ele><time>2026-05-02T10:18:50Z</time></trkpt><trkpt lat="40.557404930668504" lon="9.337478063607252"><ele>783.0</ele><time>2026-05-02T10:18:51Z</time></trkpt><trkpt lat="40.55737809069382" lon="9.33770080639428"><ele>783.0</ele><time>2026-05-02T10:18:52Z</time></trkpt><trkpt lat="40.55734839646394" lon="9.337942848792865"><ele>783.0</ele><time>2026-05-02T10:18:53Z</time></trkpt><trkpt lat="40.55732576816099" lon="9.338174350845632"><ele>783.0</ele><time>2026-05-02T10:18:54Z</time></trkpt><trkpt lat="40.55730670445926" lon="9.338367805310074"><ele>783.0</ele><time>2026-05-02T10:18:55Z</time></trkpt><trkpt lat="40.55728056472717" lon="9.338539815507643"><ele>783.0</ele><time>2026-05-02T10:18:56Z</time></trkpt><trkpt lat="40.557237997284524" lon="9.338687815293223"><ele>783.0</ele><time>2026-05-02T10:18:57Z</time></trkpt><trkpt lat="40.55716474548068" lon="9.338810789304393"><ele>783.5</ele><time>2026-05-02T10:18:58Z</time></trkpt><trkpt lat="40.55706019360315" lon="9.338891986849022"><ele>784.0</ele><time>2026-05-02T10:18:59Z</time></trkpt><trkpt lat="40.55694596139691" lon="9.338930157944674"><ele>784.5</ele><time>2026-05-02T10:19:00Z</time></trkpt><trkpt lat="40.5568343722613" lon="9.33891450183783"><ele>785.0</ele><time>2026-05-02T10:19:01Z</time></trkpt><trkpt lat="40.55674363475777" lon="9.338833908242533"><ele>787.25</ele><time>2026-05-02T10:19:02Z</time></trkpt><trkpt lat="40.55666822303016" lon="9.338711492171653"><ele>789.5</ele><time>2026-05-02T10:19:03Z</time></trkpt><trkpt lat="40.55659650134949" lon="9.338553004871033"><ele>791.75</ele><time>2026-05-02T10:19:04Z</time></trkpt><trkpt lat="40.556522363480575" lon="9.338375873493813"><ele>794.0</ele><time>2026-05-02T10:19:05Z</time></trkpt><trkpt lat="40.556442386416734" lon="9.33818333414497"><ele>793.0</ele><time>2026-05-02T10:19:06Z</time></trkpt><trkpt lat="40.556348623924436" lon="9.337972696893276"><ele>792.0</ele><time>2026-05-02T10:19:07Z</time></trkpt><trkpt lat="40.556241695224315" lon="9.33775348921553"><ele>791.0</ele><time>2026-05-02T10:19:08Z</time></trkpt><trkpt lat="40.556124869448354" lon="9.33754463238695"><ele>794.3333333333334</ele><time>2026-05-02T10:19:09Z</time></trkpt><trkpt lat="40.55600570871112" lon="9.337335810164015"><ele>797.6666666666667</ele><time>2026-05-02T10:19:10Z</time></trkpt><trkpt lat="40.55587953815401" lon="9.337116328056341"><ele>801.0</ele><time>2026-05-02T10:19:11Z</time></trkpt><trkpt lat="40.55574233146525" lon="9.33690644409885"><ele>801.0</ele><time>2026-05-02T10:19:12Z</time></trkpt><trkpt lat="40.55558077804503" lon="9.336700950066867"><ele>801.0</ele><time>2026-05-02T10:19:13Z</time></trkpt><trkpt lat="40.55542106776062" lon="9.336523899611583"><ele>801.0</ele><time>2026-05-02T10:19:14Z</time></trkpt><trkpt lat="40.55527071028487" lon="9.3363736469876"><ele>803.3333333333333</ele><time>2026-05-02T10:19:15Z</time></trkpt><trkpt lat="40.55512057410336" lon="9.33624835538176"><ele>805.6666666666666</ele><time>2026-05-02T10:19:16Z</time></trkpt><trkpt lat="40.55495646070637" lon="9.336165143448206"><ele>808.0</ele><time>2026-05-02T10:19:17Z</time></trkpt><trkpt lat="40.55477141463764" lon="9.336115944828862"><ele>808.0</ele><time>2026-05-02T10:19:18Z</time></trkpt><trkpt lat="40.5545719905898" lon="9.336056724700502"><ele>808.0</ele><time>2026-05-02T10:19:19Z</time></trkpt><trkpt lat="40.554379236967385" lon="9.335958707301884"><ele>808.0</ele><time>2026-05-02T10:19:20Z</time></trkpt><trkpt lat="40.55421756598087" lon="9.335840942370517"><ele>810.3333333333333</ele><time>2026-05-02T10:19:21Z</time></trkpt><trkpt lat="40.554073083274" lon="9.335730132227841"><ele>812.6666666666667</ele><time>2026-05-02T10:19:22Z</time></trkpt><trkpt lat="40.553933107870705" lon="9.335651678208166"><ele>815.0</ele><time>2026-05-02T10:19:23Z</time></trkpt><trkpt lat="40.55379455613038" lon="9.335602578245982"><ele>817.0</ele><time>2026-05-02T10:19:24Z</time></trkpt><trkpt lat="40.55364960386388" lon="9.335618888850227"><ele>819.0</ele><time>2026-05-02T10:19:25Z</time></trkpt><trkpt lat="40.55349741973439" lon="9.33568101062284"><ele>821.0</ele><time>2026-05-02T10:19:26Z</time></trkpt><trkpt lat="40.55333746459848" lon="9.335777872267505"><ele>821.0</ele><time>2026-05-02T10:19:27Z</time></trkpt><trkpt lat="40.55316493295874" lon="9.335875710673788"><ele>821.0</ele><time>2026-05-02T10:19:28Z</time></trkpt><trkpt lat="40.55296823552071" lon="9.335985383646541"><ele>821.0</ele><time>2026-05-02T10:19:29Z</time></trkpt><trkpt lat="40.55275893949231" lon="9.336102189743437"><ele>820.6666666666667</ele><time>2026-05-02T10:19:30Z</time></trkpt><trkpt lat="40.55255906284469" lon="9.336212129859872"><ele>820.3333333333333</ele><time>2026-05-02T10:19:31Z</time></trkpt><trkpt lat="40.5523711009004" lon="9.336321585083748"><ele>820.0</ele><time>2026-05-02T10:19:32Z</time></trkpt><trkpt lat="40.552185604737325" lon="9.336434089856045"><ele>819.0</ele><time>2026-05-02T10:19:33Z</time></trkpt><trkpt lat="40.55201051214973" lon="9.336567249506173"><ele>818.0</ele><time>2026-05-02T10:19:34Z</time></trkpt><trkpt lat="40.55183858611432" lon="9.336730699894698"><ele>817.0</ele><time>2026-05-02T10:19:35Z</time></trkpt><trkpt lat="40.5516672255563" lon="9.336917483343088"><ele>817.0</ele><time>2026-05-02T10:19:36Z</time></trkpt><trkpt lat="40.5514867212851" lon="9.337117515340827"><ele>817.0</ele><time>2026-05-02T10:19:37Z</time></trkpt><trkpt lat="40.55129158202393" lon="9.337327622757037"><ele>817.0</ele><time>2026-05-02T10:19:38Z</time></trkpt><trkpt lat="40.55109826592298" lon="9.337536511582512"><ele>817.0</ele><time>2026-05-02T10:19:39Z</time></trkpt><trkpt lat="40.55091964550535" lon="9.337731589108389"><ele>817.0</ele><time>2026-05-02T10:19:40Z</time></trkpt><trkpt lat="40.55075840364923" lon="9.337909643349295"><ele>817.0</ele><time>2026-05-02T10:19:41Z</time></trkpt><trkpt lat="40.550605988937406" lon="9.338082687183734"><ele>817.0</ele><time>2026-05-02T10:19:42Z</time></trkpt><trkpt lat="40.55047089252611" lon="9.338235361362788"><ele>817.3333333333333</ele><time>2026-05-02T10:19:43Z</time></trkpt><trkpt lat="40.550336010570945" lon="9.33837697318503"><ele>817.6666666666667</ele><time>2026-05-02T10:19:44Z</time></trkpt><trkpt lat="40.55019636027227" lon="9.33848840219256"><ele>818.0</ele><time>2026-05-02T10:19:45Z</time></trkpt><trkpt lat="40.550033880475894" lon="9.338564812199472"><ele>818.0</ele><time>2026-05-02T10:19:46Z</time></trkpt><trkpt lat="40.54985490488712" lon="9.33860568386622"><ele>818.0</ele><time>2026-05-02T10:19:47Z</time></trkpt><trkpt lat="40.549666265400234" lon="9.338638129279564"><ele>818.0</ele><time>2026-05-02T10:19:48Z</time></trkpt><trkpt lat="40.54946470619899" lon="9.338674749566733"><ele>818.3333333333334</ele><time>2026-05-02T10:19:49Z</time></trkpt><trkpt lat="40.5492545150713" lon="9.338718640172006"><ele>818.6666666666667</ele><time>2026-05-02T10:19:50Z</time></trkpt><trkpt lat="40.549037766101755" lon="9.338764892926433"><ele>819.0</ele><time>2026-05-02T10:19:51Z</time></trkpt><trkpt lat="40.54881956889887" lon="9.338806424357841"><ele>821.5</ele><time>2026-05-02T10:19:52Z</time></trkpt><trkpt lat="40.54859861194679" lon="9.338845738698414"><ele>824.0</ele><time>2026-05-02T10:19:53Z</time></trkpt><trkpt lat="40.54837201383596" lon="9.338887135079215"><ele>824.3333333333334</ele><time>2026-05-02T10:19:54Z</time></trkpt><trkpt lat="40.54815725700706" lon="9.338924209448779"><ele>824.6666666666667</ele><time>2026-05-02T10:19:55Z</time></trkpt><trkpt lat="40.547935336708576" lon="9.338965097376857"><ele>825.0</ele><time>2026-05-02T10:19:56Z</time></trkpt><trkpt lat="40.54772763320775" lon="9.339001233706128"><ele>826.6666666666667</ele><time>2026-05-02T10:19:57Z</time></trkpt><trkpt lat="40.547542309114135" lon="9.339034629356984"><ele>828.3333333333334</ele><time>2026-05-02T10:19:58Z</time></trkpt><trkpt lat="40.54736844033365" lon="9.339063086921135"><ele>830.0</ele><time>2026-05-02T10:19:59Z</time></trkpt><trkpt lat="40.54720281118194" lon="9.33908015032319"><ele>831.0</ele><time>2026-05-02T10:20:00Z</time></trkpt><trkpt lat="40.547035238015866" lon="9.339079509205348"><ele>832.0</ele><time>2026-05-02T10:20:01Z</time></trkpt><trkpt lat="40.546874394810544" lon="9.33904911259973"><ele>833.0</ele><time>2026-05-02T10:20:02Z</time></trkpt><trkpt lat="40.546718218271145" lon="9.338996783058471"><ele>833.0</ele><time>2026-05-02T10:20:03Z</time></trkpt><trkpt lat="40.546568177181996" lon="9.338924105061574"><ele>833.0</ele><time>2026-05-02T10:20:04Z</time></trkpt><trkpt lat="40.54642390691349" lon="9.338831130989512"><ele>833.0</ele><time>2026-05-02T10:20:05Z</time></trkpt><trkpt lat="40.54628239520565" lon="9.338723708684089"><ele>831.6666666666667</ele><time>2026-05-02T10:20:06Z</time></trkpt><trkpt lat="40.54615057685964" lon="9.338597990133696"><ele>830.3333333333333</ele><time>2026-05-02T10:20:07Z</time></trkpt><trkpt lat="40.54601828975762" lon="9.338453613268507"><ele>829.0</ele><time>2026-05-02T10:20:08Z</time></trkpt><trkpt lat="40.54588563103884" lon="9.33828899114139"><ele>829.0</ele><time>2026-05-02T10:20:09Z</time></trkpt><trkpt lat="40.54574984104028" lon="9.338108027758603"><ele>829.0</ele><time>2026-05-02T10:20:10Z</time></trkpt><trkpt lat="40.54560507995125" lon="9.337927089990021"><ele>829.0</ele><time>2026-05-02T10:20:11Z</time></trkpt><trkpt lat="40.545461697027655" lon="9.33774640414546"><ele>826.3333333333333</ele><time>2026-05-02T10:20:12Z</time></trkpt><trkpt lat="40.545317011778074" lon="9.337579210262938"><ele>823.6666666666667</ele><time>2026-05-02T10:20:13Z</time></trkpt><trkpt lat="40.545167265815245" lon="9.337430500489852"><ele>821.0</ele><time>2026-05-02T10:20:14Z</time></trkpt><trkpt lat="40.545021161884485" lon="9.337303645174142"><ele>819.0</ele><time>2026-05-02T10:20:15Z</time></trkpt><trkpt lat="40.544880153256244" lon="9.33720239206517"><ele>817.0</ele><time>2026-05-02T10:20:16Z</time></trkpt><trkpt lat="40.544741446027" lon="9.337143062755626"><ele>815.0</ele><time>2026-05-02T10:20:17Z</time></trkpt><trkpt lat="40.54460376357488" lon="9.337132520900294"><ele>813.0</ele><time>2026-05-02T10:20:18Z</time></trkpt><trkpt lat="40.544472445685905" lon="9.337170433698999"><ele>812.25</ele><time>2026-05-02T10:20:19Z</time></trkpt><trkpt lat="40.544362933584665" lon="9.337262811092408"><ele>811.5</ele><time>2026-05-02T10:20:20Z</time></trkpt><trkpt lat="40.54428475588026" lon="9.337402462122869"><ele>810.75</ele><time>2026-05-02T10:20:21Z</time></trkpt><trkpt lat="40.54423759619932" lon="9.33757794922508"><ele>810.0</ele><time>2026-05-02T10:20:22Z</time></trkpt><trkpt lat="40.54419753790871" lon="9.337780207500858"><ele>810.0</ele><time>2026-05-02T10:20:23Z</time></trkpt><trkpt lat="40.54415001684012" lon="9.337959886605912"><ele>810.0</ele><time>2026-05-02T10:20:24Z</time></trkpt><trkpt lat="40.54408302390785" lon="9.338128756777985"><ele>810.0</ele><time>2026-05-02T10:20:25Z</time></trkpt><trkpt lat="40.54398585937753" lon="9.338275155585976"><ele>810.0</ele><time>2026-05-02T10:20:26Z</time></trkpt><trkpt lat="40.543859069871175" lon="9.338401772897415"><ele>808.6666666666667</ele><time>2026-05-02T10:20:27Z</time></trkpt><trkpt lat="40.543715453105804" lon="9.338528744552143"><ele>807.3333333333334</ele><time>2026-05-02T10:20:28Z</time></trkpt><trkpt lat="40.543581986423966" lon="9.338640120894897"><ele>806.0</ele><time>2026-05-02T10:20:29Z</time></trkpt><trkpt lat="40.543448426957774" lon="9.338727496541306"><ele>806.0</ele><time>2026-05-02T10:20:30Z</time></trkpt><trkpt lat="40.54329384798944" lon="9.338777993452494"><ele>806.0</ele><time>2026-05-02T10:20:31Z</time></trkpt><trkpt lat="40.54312392305127" lon="9.338796047612119"><ele>806.0</ele><time>2026-05-02T10:20:32Z</time></trkpt><trkpt lat="40.542941591150374" lon="9.338799479323063"><ele>807.0</ele><time>2026-05-02T10:20:33Z</time></trkpt><trkpt lat="40.54274851818498" lon="9.338805044236496"><ele>808.0</ele><time>2026-05-02T10:20:34Z</time></trkpt><trkpt lat="40.54254765393765" lon="9.338816465061097"><ele>809.0</ele><time>2026-05-02T10:20:35Z</time></trkpt><trkpt lat="40.54233723647029" lon="9.338831669619964"><ele>809.0</ele><time>2026-05-02T10:20:36Z</time></trkpt><trkpt lat="40.54211668669006" lon="9.338845310656016"><ele>809.0</ele><time>2026-05-02T10:20:37Z</time></trkpt><trkpt lat="40.54189612318899" lon="9.338857238659529"><ele>809.0</ele><time>2026-05-02T10:20:38Z</time></trkpt><trkpt lat="40.54168220630273" lon="9.338869338372513"><ele>809.3333333333334</ele><time>2026-05-02T10:20:39Z</time></trkpt><trkpt lat="40.54148154982261" lon="9.338879465035522"><ele>809.6666666666667</ele><time>2026-05-02T10:20:40Z</time></trkpt><trkpt lat="40.541297609232956" lon="9.338887329022509"><ele>810.0</ele><time>2026-05-02T10:20:41Z</time></trkpt><trkpt lat="40.541131130643976" lon="9.33889217592459"><ele>810.25</ele><time>2026-05-02T10:20:42Z</time></trkpt><trkpt lat="40.5409807379005" lon="9.33888512109027"><ele>810.5</ele><time>2026-05-02T10:20:43Z</time></trkpt><trkpt lat="40.54084306855972" lon="9.338857864530842"><ele>810.75</ele><time>2026-05-02T10:20:44Z</time></trkpt><trkpt lat="40.54070901194244" lon="9.338799242817036"><ele>811.0</ele><time>2026-05-02T10:20:45Z</time></trkpt><trkpt lat="40.54057646666302" lon="9.33872196130581"><ele>811.0</ele><time>2026-05-02T10:20:46Z</time></trkpt><trkpt lat="40.540443901250875" lon="9.338649307076007"><ele>811.0</ele><time>2026-05-02T10:20:47Z</time></trkpt><trkpt lat="40.54030726251152" lon="9.338607250779374"><ele>811.0</ele><time>2026-05-02T10:20:48Z</time></trkpt><trkpt lat="40.54016192405322" lon="9.33860273172415"><ele>811.0</ele><time>2026-05-02T10:20:49Z</time></trkpt><trkpt lat="40.54001524989034" lon="9.338615573182857"><ele>813.0</ele><time>2026-05-02T10:20:50Z</time></trkpt><trkpt lat="40.53986740720167" lon="9.338624519577534"><ele>815.0</ele><time>2026-05-02T10:20:51Z</time></trkpt><trkpt lat="40.53971421879642" lon="9.338628006711527"><ele>817.0</ele><time>2026-05-02T10:20:52Z</time></trkpt><trkpt lat="40.53955146311977" lon="9.338634042513682"><ele>819.0</ele><time>2026-05-02T10:20:53Z</time></trkpt><trkpt lat="40.53939969007311" lon="9.33864435071106"><ele>821.0</ele><time>2026-05-02T10:20:54Z</time></trkpt><trkpt lat="40.539263683761796" lon="9.338661960147197"><ele>823.0</ele><time>2026-05-02T10:20:55Z</time></trkpt><trkpt lat="40.53913438227383" lon="9.338708226154287"><ele>825.0</ele><time>2026-05-02T10:20:56Z</time></trkpt><trkpt lat="40.53901295633238" lon="9.338797958989154"><ele>824.6666666666667</ele><time>2026-05-02T10:20:57Z</time></trkpt><trkpt lat="40.53890470735321" lon="9.33893192964524"><ele>824.3333333333334</ele><time>2026-05-02T10:20:58Z</time></trkpt><trkpt lat="40.53880061157477" lon="9.33911053978743"><ele>824.0</ele><time>2026-05-02T10:20:59Z</time></trkpt><trkpt lat="40.5386942258198" lon="9.339312104583481"><ele>824.0</ele><time>2026-05-02T10:21:00Z</time></trkpt><trkpt lat="40.53857825978426" lon="9.339522662054621"><ele>824.0</ele><time>2026-05-02T10:21:01Z</time></trkpt><trkpt lat="40.5384519240389" lon="9.339744542967319"><ele>824.0</ele><time>2026-05-02T10:21:02Z</time></trkpt><trkpt lat="40.53831717547128" lon="9.339979432961663"><ele>822.0</ele><time>2026-05-02T10:21:03Z</time></trkpt><trkpt lat="40.53818095912979" lon="9.340223930514306"><ele>820.0</ele><time>2026-05-02T10:21:04Z</time></trkpt><trkpt lat="40.53804390327523" lon="9.340475896769414"><ele>818.0</ele><time>2026-05-02T10:21:05Z</time></trkpt><trkpt lat="40.537902396606654" lon="9.340731767139236"><ele>816.0</ele><time>2026-05-02T10:21:06Z</time></trkpt><trkpt lat="40.53775523495854" lon="9.340999732587534"><ele>816.0</ele><time>2026-05-02T10:21:07Z</time></trkpt><trkpt lat="40.537606412465294" lon="9.34126811529173"><ele>816.0</ele><time>2026-05-02T10:21:08Z</time></trkpt><trkpt lat="40.53745531900142" lon="9.341540756956483"><ele>814.5</ele><time>2026-05-02T10:21:09Z</time></trkpt><trkpt lat="40.537302688404075" lon="9.341810728767468"><ele>813.0</ele><time>2026-05-02T10:21:10Z</time></trkpt><trkpt lat="40.537151448132136" lon="9.342080947250592"><ele>812.0</ele><time>2026-05-02T10:21:11Z</time></trkpt><trkpt lat="40.537004589364024" lon="9.342345828184202"><ele>811.0</ele><time>2026-05-02T10:21:12Z</time></trkpt><trkpt lat="40.53686535781799" lon="9.342596542042187"><ele>811.0</ele><time>2026-05-02T10:21:13Z</time></trkpt><trkpt lat="40.53673813941976" lon="9.342827636170444"><ele>811.0</ele><time>2026-05-02T10:21:14Z</time></trkpt><trkpt lat="40.53662350442178" lon="9.343033480811782"><ele>811.0</ele><time>2026-05-02T10:21:15Z</time></trkpt><trkpt lat="40.53651307499044" lon="9.34321284912854"><ele>811.0</ele><time>2026-05-02T10:21:16Z</time></trkpt><trkpt lat="40.536386156471565" lon="9.343372070473247"><ele>811.0</ele><time>2026-05-02T10:21:17Z</time></trkpt><trkpt lat="40.53623742906106" lon="9.343510677669348"><ele>811.0</ele><time>2026-05-02T10:21:18Z</time></trkpt><trkpt lat="40.53607229137852" lon="9.343630961101576"><ele>811.0</ele><time>2026-05-02T10:21:19Z</time></trkpt><trkpt lat="40.535899560250726" lon="9.343746233947344"><ele>811.0</ele><time>2026-05-02T10:21:20Z</time></trkpt><trkpt lat="40.535723481295214" lon="9.34386697628867"><ele>811.0</ele><time>2026-05-02T10:21:21Z</time></trkpt><trkpt lat="40.53554356105381" lon="9.343996458550649"><ele>809.6666666666666</ele><time>2026-05-02T10:21:22Z</time></trkpt><trkpt lat="40.53536204427962" lon="9.344126018686856"><ele>808.3333333333333</ele><time>2026-05-02T10:21:23Z</time></trkpt><trkpt lat="40.53518307557986" lon="9.344250534341079"><ele>807.0</ele><time>2026-05-02T10:21:24Z</time></trkpt><trkpt lat="40.53499873008345" lon="9.34437562638162"><ele>807.0</ele><time>2026-05-02T10:21:25Z</time></trkpt><trkpt lat="40.5348080920589" lon="9.34448814604037"><ele>807.0</ele><time>2026-05-02T10:21:26Z</time></trkpt><trkpt lat="40.53461715283631" lon="9.344584343968794"><ele>807.0</ele><time>2026-05-02T10:21:27Z</time></trkpt><trkpt lat="40.53441707830706" lon="9.344674751506497"><ele>805.0</ele><time>2026-05-02T10:21:28Z</time></trkpt><trkpt lat="40.534217052561054" lon="9.34476412598452"><ele>803.0</ele><time>2026-05-02T10:21:29Z</time></trkpt><trkpt lat="40.534025537833045" lon="9.344852089025814"><ele>801.0</ele><time>2026-05-02T10:21:30Z</time></trkpt><trkpt lat="40.53384355910447" lon="9.344935655667724"><ele>800.3333333333333</ele><time>2026-05-02T10:21:31Z</time></trkpt><trkpt lat="40.53367806299649" lon="9.345012261629545"><ele>799.6666666666666</ele><time>2026-05-02T10:21:32Z</time></trkpt><trkpt lat="40.53353244471759" lon="9.345077700399964"><ele>799.0</ele><time>2026-05-02T10:21:33Z</time></trkpt><trkpt lat="40.53339577567589" lon="9.345118340117265"><ele>799.0</ele><time>2026-05-02T10:21:34Z</time></trkpt><trkpt lat="40.533262326860324" lon="9.345118770644634"><ele>799.0</ele><time>2026-05-02T10:21:35Z</time></trkpt><trkpt lat="40.533141937028155" lon="9.345067503008762"><ele>799.0</ele><time>2026-05-02T10:21:36Z</time></trkpt><trkpt lat="40.533032455021214" lon="9.344974674944664"><ele>799.0</ele><time>2026-05-02T10:21:37Z</time></trkpt><trkpt lat="40.532923927095794" lon="9.344847461912753"><ele>798.0</ele><time>2026-05-02T10:21:38Z</time></trkpt><trkpt lat="40.532811767976156" lon="9.344744296615344"><ele>797.0</ele><time>2026-05-02T10:21:39Z</time></trkpt><trkpt lat="40.53268292950436" lon="9.344685601228155"><ele>796.0</ele><time>2026-05-02T10:21:40Z</time></trkpt><trkpt lat="40.53253695431431" lon="9.344666053055295"><ele>795.0</ele><time>2026-05-02T10:21:41Z</time></trkpt><trkpt lat="40.53238000469656" lon="9.344680862276492"><ele>795.0</ele><time>2026-05-02T10:21:42Z</time></trkpt><trkpt lat="40.532215003632054" lon="9.344689203661257"><ele>795.0</ele><time>2026-05-02T10:21:43Z</time></trkpt><trkpt lat="40.53206149622865" lon="9.344662333503711"><ele>795.0</ele><time>2026-05-02T10:21:44Z</time></trkpt><trkpt lat="40.531921597563056" lon="9.344602461125179"><ele>794.0</ele><time>2026-05-02T10:21:45Z</time></trkpt><trkpt lat="40.53178524509373" lon="9.344536235144204"><ele>793.0</ele><time>2026-05-02T10:21:46Z</time></trkpt><trkpt lat="40.5316406235256" lon="9.344491181167786"><ele>792.0</ele><time>2026-05-02T10:21:47Z</time></trkpt><trkpt lat="40.53148559024156" lon="9.344489180683501"><ele>791.0</ele><time>2026-05-02T10:21:48Z</time></trkpt><trkpt lat="40.531323212096545" lon="9.344530470265548"><ele>788.6666666666667</ele><time>2026-05-02T10:21:49Z</time></trkpt><trkpt lat="40.53117612561863" lon="9.344580913404029"><ele>786.3333333333333</ele><time>2026-05-02T10:21:50Z</time></trkpt><trkpt lat="40.53102597269557" lon="9.344605436408155"><ele>784.0</ele><time>2026-05-02T10:21:51Z</time></trkpt><trkpt lat="40.53086548696476" lon="9.344588243582095"><ele>784.0</ele><time>2026-05-02T10:21:52Z</time></trkpt><trkpt lat="40.53070269196525" lon="9.344519987894376"><ele>784.0</ele><time>2026-05-02T10:21:53Z</time></trkpt><trkpt lat="40.53054011311749" lon="9.344422864570785"><ele>784.0</ele><time>2026-05-02T10:21:54Z</time></trkpt><trkpt lat="40.530381593209746" lon="9.344341741322765"><ele>783.0</ele><time>2026-05-02T10:21:55Z</time></trkpt><trkpt lat="40.53021809276051" lon="9.344301816912264"><ele>782.0</ele><time>2026-05-02T10:21:56Z</time></trkpt><trkpt lat="40.53005733530567" lon="9.34430978150465"><ele>781.0</ele><time>2026-05-02T10:21:57Z</time></trkpt><trkpt lat="40.52988419900993" lon="9.344353901410278"><ele>781.0</ele><time>2026-05-02T10:21:58Z</time></trkpt><trkpt lat="40.5297006739855" lon="9.344427946347762"><ele>781.0</ele><time>2026-05-02T10:21:59Z</time></trkpt><trkpt lat="40.52951332741264" lon="9.344514540839596"><ele>781.0</ele><time>2026-05-02T10:22:00Z</time></trkpt><trkpt lat="40.52931773864796" lon="9.344612018123424"><ele>780.3333333333333</ele><time>2026-05-02T10:22:01Z</time></trkpt><trkpt lat="40.52911731973124" lon="9.344713969892215"><ele>779.6666666666667</ele><time>2026-05-02T10:22:02Z</time></trkpt><trkpt lat="40.528904819708" lon="9.344821676642104"><ele>779.0</ele><time>2026-05-02T10:22:03Z</time></trkpt><trkpt lat="40.528685678254824" lon="9.34493197540828"><ele>778.5</ele><time>2026-05-02T10:22:04Z</time></trkpt><trkpt lat="40.52846500547963" lon="9.345041153461123"><ele>778.0</ele><time>2026-05-02T10:22:05Z</time></trkpt><trkpt lat="40.528241992350075" lon="9.345152222207114"><ele>778.0</ele><time>2026-05-02T10:22:06Z</time></trkpt><trkpt lat="40.52801590646754" lon="9.345261967296794"><ele>778.0</ele><time>2026-05-02T10:22:07Z</time></trkpt><trkpt lat="40.52780140173363" lon="9.345370055220462"><ele>777.0</ele><time>2026-05-02T10:22:08Z</time></trkpt><trkpt lat="40.52759307249781" lon="9.34547517814889"><ele>776.0</ele><time>2026-05-02T10:22:09Z</time></trkpt><trkpt lat="40.52739262909855" lon="9.345576346182593"><ele>775.0</ele><time>2026-05-02T10:22:10Z</time></trkpt><trkpt lat="40.52720223691315" lon="9.345669799299648"><ele>773.0</ele><time>2026-05-02T10:22:11Z</time></trkpt><trkpt lat="40.52702098097218" lon="9.345758900438275"><ele>771.0</ele><time>2026-05-02T10:22:12Z</time></trkpt><trkpt lat="40.52684564340213" lon="9.345844779900082"><ele>769.0</ele><time>2026-05-02T10:22:13Z</time></trkpt><trkpt lat="40.526677316225985" lon="9.345919895801607"><ele>769.0</ele><time>2026-05-02T10:22:14Z</time></trkpt><trkpt lat="40.52650440293325" lon="9.345977590482066"><ele>769.0</ele><time>2026-05-02T10:22:15Z</time></trkpt><trkpt lat="40.526324060517204" lon="9.346006860026215"><ele>769.0</ele><time>2026-05-02T10:22:16Z</time></trkpt><trkpt lat="40.52613696958541" lon="9.346004067205707"><ele>767.3333333333333</ele><time>2026-05-02T10:22:17Z</time></trkpt><trkpt lat="40.52594586066499" lon="9.345968954431177"><ele>765.6666666666666</ele><time>2026-05-02T10:22:18Z</time></trkpt><trkpt lat="40.52575996297124" lon="9.345918604496818"><ele>764.0</ele><time>2026-05-02T10:22:19Z</time></trkpt><trkpt lat="40.5255829804769" lon="9.345868905158069"><ele>764.0</ele><time>2026-05-02T10:22:20Z</time></trkpt><trkpt lat="40.52540561863076" lon="9.345798721257653"><ele>764.0</ele><time>2026-05-02T10:22:21Z</time></trkpt><trkpt lat="40.52522897215158" lon="9.34569956841537"><ele>764.0</ele><time>2026-05-02T10:22:22Z</time></trkpt><trkpt lat="40.52505149289107" lon="9.345573701189757"><ele>763.6666666666666</ele><time>2026-05-02T10:22:23Z</time></trkpt><trkpt lat="40.52487451205169" lon="9.34543090512116"><ele>763.3333333333334</ele><time>2026-05-02T10:22:24Z</time></trkpt><trkpt lat="40.52469503099002" lon="9.34527930675649"><ele>763.0</ele><time>2026-05-02T10:22:25Z</time></trkpt><trkpt lat="40.52451391579781" lon="9.34513325822381"><ele>762.6666666666667</ele><time>2026-05-02T10:22:26Z</time></trkpt><trkpt lat="40.52433050444186" lon="9.34497615346306"><ele>762.3333333333334</ele><time>2026-05-02T10:22:27Z</time></trkpt><trkpt lat="40.52416564051942" lon="9.344807469835787"><ele>762.0</ele><time>2026-05-02T10:22:28Z</time></trkpt><trkpt lat="40.52402747294729" lon="9.34462087712975"><ele>762.0</ele><time>2026-05-02T10:22:29Z</time></trkpt><trkpt lat="40.523902993530704" lon="9.34443589151902"><ele>762.0</ele><time>2026-05-02T10:22:30Z</time></trkpt><trkpt lat="40.52376476463636" lon="9.344263254272347"><ele>762.0</ele><time>2026-05-02T10:22:31Z</time></trkpt><trkpt lat="40.52361078764059" lon="9.344110949810778"><ele>761.3333333333334</ele><time>2026-05-02T10:22:32Z</time></trkpt><trkpt lat="40.52344139599971" lon="9.343982881315613"><ele>760.6666666666667</ele><time>2026-05-02T10:22:33Z</time></trkpt><trkpt lat="40.52326535335175" lon="9.343886472122378"><ele>760.0</ele><time>2026-05-02T10:22:34Z</time></trkpt><trkpt lat="40.52308619991613" lon="9.343823878873753"><ele>759.3333333333334</ele><time>2026-05-02T10:22:35Z</time></trkpt><trkpt lat="40.5229027484304" lon="9.343792647347973"><ele>758.6666666666666</ele><time>2026-05-02T10:22:36Z</time></trkpt><trkpt lat="40.522716184691355" lon="9.34378990892828"><ele>758.0</ele><time>2026-05-02T10:22:37Z</time></trkpt><trkpt lat="40.52252357606252" lon="9.343819139804966"><ele>758.6666666666666</ele><time>2026-05-02T10:22:38Z</time></trkpt><trkpt lat="40.522327029503664" lon="9.343871201761061"><ele>759.3333333333334</ele><time>2026-05-02T10:22:39Z</time></trkpt><trkpt lat="40.52212596642227" lon="9.343941330626446"><ele>760.0</ele><time>2026-05-02T10:22:40Z</time></trkpt><trkpt lat="40.52191809812007" lon="9.344020285152611"><ele>758.0</ele><time>2026-05-02T10:22:41Z</time></trkpt><trkpt lat="40.52170904862116" lon="9.344099461836603"><ele>756.0</ele><time>2026-05-02T10:22:42Z</time></trkpt><trkpt lat="40.52151342658734" lon="9.344176377565844"><ele>754.0</ele><time>2026-05-02T10:22:43Z</time></trkpt><trkpt lat="40.52133053984821" lon="9.344252287447617"><ele>752.6666666666667</ele><time>2026-05-02T10:22:44Z</time></trkpt><trkpt lat="40.52116344667103" lon="9.344318621539237"><ele>751.3333333333334</ele><time>2026-05-02T10:22:45Z</time></trkpt><trkpt lat="40.521011284956465" lon="9.344374234912422"><ele>750.0</ele><time>2026-05-02T10:22:46Z</time></trkpt><trkpt lat="40.52086691868906" lon="9.344404197704256"><ele>750.0</ele><time>2026-05-02T10:22:47Z</time></trkpt><trkpt lat="40.5207224261485" lon="9.344400381906361"><ele>750.0</ele><time>2026-05-02T10:22:48Z</time></trkpt><trkpt lat="40.52057695411618" lon="9.344346919779499"><ele>750.0</ele><time>2026-05-02T10:22:49Z</time></trkpt><trkpt lat="40.52043021323133" lon="9.344253949606093"><ele>750.6666666666666</ele><time>2026-05-02T10:22:50Z</time></trkpt><trkpt lat="40.52026885611343" lon="9.344147696220732"><ele>751.3333333333333</ele><time>2026-05-02T10:22:51Z</time></trkpt><trkpt lat="40.52009276763181" lon="9.344029644014876"><ele>752.0</ele><time>2026-05-02T10:22:52Z</time></trkpt><trkpt lat="40.519906581003156" lon="9.343905439256021"><ele>750.5</ele><time>2026-05-02T10:22:53Z</time></trkpt><trkpt lat="40.51970446205304" lon="9.343771551349993"><ele>749.0</ele><time>2026-05-02T10:22:54Z</time></trkpt><trkpt lat="40.519495873805525" lon="9.34363685287228"><ele>749.0</ele><time>2026-05-02T10:22:55Z</time></trkpt><trkpt lat="40.519272591976076" lon="9.34348869474646"><ele>749.0</ele><time>2026-05-02T10:22:56Z</time></trkpt><trkpt lat="40.519051326151775" lon="9.343337513306084"><ele>749.0</ele><time>2026-05-02T10:22:57Z</time></trkpt><trkpt lat="40.51885608263944" lon="9.343205084201232"><ele>749.0</ele><time>2026-05-02T10:22:58Z</time></trkpt><trkpt lat="40.51867437374626" lon="9.34308265104467"><ele>749.0</ele><time>2026-05-02T10:22:59Z</time></trkpt><trkpt lat="40.51851627045276" lon="9.342977094295629"><ele>748.0</ele><time>2026-05-02T10:23:00Z</time></trkpt><trkpt lat="40.51837557165919" lon="9.342901197744977"><ele>747.0</ele><time>2026-05-02T10:23:01Z</time></trkpt><trkpt lat="40.51823567953213" lon="9.342861988589995"><ele>746.0</ele><time>2026-05-02T10:23:02Z</time></trkpt><trkpt lat="40.51808115995212" lon="9.342879755236474"><ele>746.0</ele><time>2026-05-02T10:23:03Z</time></trkpt><trkpt lat="40.51792583696278" lon="9.342944262693372"><ele>746.0</ele><time>2026-05-02T10:23:04Z</time></trkpt><trkpt lat="40.517767025408766" lon="9.34301907228179"><ele>746.0</ele><time>2026-05-02T10:23:05Z</time></trkpt><trkpt lat="40.51761509032281" lon="9.343043255485453"><ele>745.0</ele><time>2026-05-02T10:23:06Z</time></trkpt><trkpt lat="40.51746093844713" lon="9.343027838410025"><ele>744.0</ele><time>2026-05-02T10:23:07Z</time></trkpt><trkpt lat="40.51730246654305" lon="9.34297325164979"><ele>743.0</ele><time>2026-05-02T10:23:08Z</time></trkpt><trkpt lat="40.51715193993458" lon="9.342882202347754"><ele>744.0</ele><time>2026-05-02T10:23:09Z</time></trkpt><trkpt lat="40.51700989648905" lon="9.342771319437379"><ele>745.0</ele><time>2026-05-02T10:23:10Z</time></trkpt><trkpt lat="40.51686914740192" lon="9.342657732745836"><ele>746.0</ele><time>2026-05-02T10:23:11Z</time></trkpt><trkpt lat="40.51675186602195" lon="9.342530640880947"><ele>746.0</ele><time>2026-05-02T10:23:12Z</time></trkpt><trkpt lat="40.5166536632853" lon="9.342381100803255"><ele>746.0</ele><time>2026-05-02T10:23:13Z</time></trkpt><trkpt lat="40.51658127694264" lon="9.342200049230684"><ele>746.0</ele><time>2026-05-02T10:23:14Z</time></trkpt><trkpt lat="40.516537452033305" lon="9.341990451917406"><ele>745.6666666666666</ele><time>2026-05-02T10:23:15Z</time></trkpt><trkpt lat="40.51650755666526" lon="9.341752637466739"><ele>745.3333333333334</ele><time>2026-05-02T10:23:16Z</time></trkpt><trkpt lat="40.51646619916081" lon="9.341521333293356"><ele>745.0</ele><time>2026-05-02T10:23:17Z</time></trkpt><trkpt lat="40.51640142593133" lon="9.341304663731488"><ele>744.3333333333334</ele><time>2026-05-02T10:23:18Z</time></trkpt><trkpt lat="40.516308004152606" lon="9.341091374505373"><ele>743.6666666666666</ele><time>2026-05-02T10:23:19Z</time></trkpt><trkpt lat="40.51619020185663" lon="9.340886349193559"><ele>743.0</ele><time>2026-05-02T10:23:20Z</time></trkpt><trkpt lat="40.516059806883916" lon="9.340676715852933"><ele>744.0</ele><time>2026-05-02T10:23:21Z</time></trkpt><trkpt lat="40.51591660235346" lon="9.340448224771757"><ele>745.0</ele><time>2026-05-02T10:23:22Z</time></trkpt><trkpt lat="40.51576608670335" lon="9.34020725452367"><ele>745.0</ele><time>2026-05-02T10:23:23Z</time></trkpt><trkpt lat="40.51561577845292" lon="9.33996848067153"><ele>745.0</ele><time>2026-05-02T10:23:24Z</time></trkpt><trkpt lat="40.51547561454133" lon="9.339746016469519"><ele>744.5</ele><time>2026-05-02T10:23:25Z</time></trkpt><trkpt lat="40.515334079453346" lon="9.33951943976574"><ele>744.0</ele><time>2026-05-02T10:23:26Z</time></trkpt><trkpt lat="40.515188804573036" lon="9.339287587628794"><ele>744.0</ele><time>2026-05-02T10:23:27Z</time></trkpt><trkpt lat="40.51504895808901" lon="9.339060921763911"><ele>744.0</ele><time>2026-05-02T10:23:28Z</time></trkpt><trkpt lat="40.514906630038645" lon="9.338840305371308"><ele>744.0</ele><time>2026-05-02T10:23:29Z</time></trkpt><trkpt lat="40.51476053893386" lon="9.33861312785964"><ele>743.6666666666666</ele><time>2026-05-02T10:23:30Z</time></trkpt><trkpt lat="40.514625042137816" lon="9.338387449925488"><ele>743.3333333333333</ele><time>2026-05-02T10:23:31Z</time></trkpt><trkpt lat="40.51450353178939" lon="9.338163312482983"><ele>743.0</ele><time>2026-05-02T10:23:32Z</time></trkpt><trkpt lat="40.514379959189945" lon="9.337944222180642"><ele>742.0</ele><time>2026-05-02T10:23:33Z</time></trkpt><trkpt lat="40.51423802757332" lon="9.337733160042792"><ele>741.0</ele><time>2026-05-02T10:23:34Z</time></trkpt><trkpt lat="40.51407160020889" lon="9.337522300475747"><ele>740.0</ele><time>2026-05-02T10:23:35Z</time></trkpt><trkpt lat="40.51389901583362" lon="9.337317159447306"><ele>739.3333333333333</ele><time>2026-05-02T10:23:36Z</time></trkpt><trkpt lat="40.51373301393034" lon="9.337118187791077"><ele>738.6666666666666</ele><time>2026-05-02T10:23:37Z</time></trkpt><trkpt lat="40.51356638539824" lon="9.336921462302179"><ele>738.0</ele><time>2026-05-02T10:23:38Z</time></trkpt><trkpt lat="40.51340127455643" lon="9.336726499231903"><ele>738.0</ele><time>2026-05-02T10:23:39Z</time></trkpt><trkpt lat="40.513242299783386" lon="9.336539886143044"><ele>738.0</ele><time>2026-05-02T10:23:40Z</time></trkpt><trkpt lat="40.513087434971254" lon="9.336361690642724"><ele>738.0</ele><time>2026-05-02T10:23:41Z</time></trkpt><trkpt lat="40.51293107413157" lon="9.336193155313904"><ele>736.0</ele><time>2026-05-02T10:23:42Z</time></trkpt><trkpt lat="40.512763632666264" lon="9.336047121540833"><ele>734.0</ele><time>2026-05-02T10:23:43Z</time></trkpt><trkpt lat="40.51258339677948" lon="9.3359280157717"><ele>732.0</ele><time>2026-05-02T10:23:44Z</time></trkpt><trkpt lat="40.51238815987966" lon="9.33583215553183"><ele>732.0</ele><time>2026-05-02T10:23:45Z</time></trkpt><trkpt lat="40.512181187562675" lon="9.335754092807058"><ele>732.0</ele><time>2026-05-02T10:23:46Z</time></trkpt><trkpt lat="40.51196093122776" lon="9.335689032187483"><ele>732.0</ele><time>2026-05-02T10:23:47Z</time></trkpt><trkpt lat="40.511726662709506" lon="9.335623563788278"><ele>730.0</ele><time>2026-05-02T10:23:48Z</time></trkpt><trkpt lat="40.511480195955045" lon="9.335550881798435"><ele>728.0</ele><time>2026-05-02T10:23:49Z</time></trkpt><trkpt lat="40.51123011893702" lon="9.335475572428352"><ele>727.5</ele><time>2026-05-02T10:23:50Z</time></trkpt><trkpt lat="40.510979036819606" lon="9.335400969473092"><ele>727.0</ele><time>2026-05-02T10:23:51Z</time></trkpt><trkpt lat="40.510730782477204" lon="9.335326720220358"><ele>727.0</ele><time>2026-05-02T10:23:52Z</time></trkpt><trkpt lat="40.51048347529072" lon="9.335252388388929"><ele>727.0</ele><time>2026-05-02T10:23:53Z</time></trkpt><trkpt lat="40.51024139694088" lon="9.335178776797866"><ele>726.0</ele><time>2026-05-02T10:23:54Z</time></trkpt><trkpt lat="40.510003210995755" lon="9.335108445947396"><ele>725.0</ele><time>2026-05-02T10:23:55Z</time></trkpt><trkpt lat="40.50977688852521" lon="9.33504168265398"><ele>725.6666666666666</ele><time>2026-05-02T10:23:56Z</time></trkpt><trkpt lat="40.50956695834877" lon="9.334975759337924"><ele>726.3333333333334</ele><time>2026-05-02T10:23:57Z</time></trkpt><trkpt lat="40.509374220386626" lon="9.33491458717616"><ele>727.0</ele><time>2026-05-02T10:23:58Z</time></trkpt><trkpt lat="40.509192337254824" lon="9.334858772769502"><ele>727.0</ele><time>2026-05-02T10:23:59Z</time></trkpt><trkpt lat="40.50902442514531" lon="9.334812530190522"><ele>727.0</ele><time>2026-05-02T10:24:00Z</time></trkpt><trkpt lat="40.508873489101234" lon="9.334785054751235"><ele>727.0</ele><time>2026-05-02T10:24:01Z</time></trkpt><trkpt lat="40.50872942265659" lon="9.334778148441385"><ele>728.0</ele><time>2026-05-02T10:24:02Z</time></trkpt><trkpt lat="40.50859953072625" lon="9.33481711220152"><ele>729.0</ele><time>2026-05-02T10:24:03Z</time></trkpt><trkpt lat="40.508463823552695" lon="9.334894496487589"><ele>730.0</ele><time>2026-05-02T10:24:04Z</time></trkpt><trkpt lat="40.50834501441754" lon="9.33501841729562"><ele>731.0</ele><time>2026-05-02T10:24:05Z</time></trkpt><trkpt lat="40.50824014568879" lon="9.335174998030176"><ele>731.0</ele><time>2026-05-02T10:24:06Z</time></trkpt><trkpt lat="40.508138319729504" lon="9.335346256124812"><ele>731.0</ele><time>2026-05-02T10:24:07Z</time></trkpt><trkpt lat="40.50803092854783" lon="9.335523725713589"><ele>731.0</ele><time>2026-05-02T10:24:08Z</time></trkpt><trkpt lat="40.50790816354184" lon="9.335707224422428"><ele>732.6666666666666</ele><time>2026-05-02T10:24:09Z</time></trkpt><trkpt lat="40.50777859531636" lon="9.335905337413916"><ele>734.3333333333334</ele><time>2026-05-02T10:24:10Z</time></trkpt><trkpt lat="40.507663945159166" lon="9.336097629857004"><ele>736.0</ele><time>2026-05-02T10:24:11Z</time></trkpt><trkpt lat="40.50754112070842" lon="9.336291750487701"><ele>736.0</ele><time>2026-05-02T10:24:12Z</time></trkpt><trkpt lat="40.50742577651733" lon="9.336473688450413"><ele>736.0</ele><time>2026-05-02T10:24:13Z</time></trkpt><trkpt lat="40.50730807242595" lon="9.336647599910169"><ele>736.0</ele><time>2026-05-02T10:24:14Z</time></trkpt><trkpt lat="40.50718613140786" lon="9.336801818551733"><ele>737.3333333333334</ele><time>2026-05-02T10:24:15Z</time></trkpt><trkpt lat="40.50705652473979" lon="9.336938764295036"><ele>738.6666666666666</ele><time>2026-05-02T10:24:16Z</time></trkpt><trkpt lat="40.50691923428025" lon="9.337060707161795"><ele>740.0</ele><time>2026-05-02T10:24:17Z</time></trkpt><trkpt lat="40.50678032304309" lon="9.33717878292763"><ele>738.0</ele><time>2026-05-02T10:24:18Z</time></trkpt><trkpt lat="40.50664596544219" lon="9.337304002308029"><ele>736.0</ele><time>2026-05-02T10:24:19Z</time></trkpt><trkpt lat="40.5065225581479" lon="9.337427631424765"><ele>734.0</ele><time>2026-05-02T10:24:20Z</time></trkpt><trkpt lat="40.50640283867013" lon="9.337544898063587"><ele>734.0</ele><time>2026-05-02T10:24:21Z</time></trkpt><trkpt lat="40.506293166637995" lon="9.337651509324077"><ele>734.0</ele><time>2026-05-02T10:24:22Z</time></trkpt><trkpt lat="40.506195016479104" lon="9.337734246943251"><ele>734.0</ele><time>2026-05-02T10:24:23Z</time></trkpt><trkpt lat="40.50610134262434" lon="9.337792960773243"><ele>734.0</ele><time>2026-05-02T10:24:24Z</time></trkpt><trkpt lat="40.50600656426272" lon="9.33782605302837"><ele>734.1666666666666</ele><time>2026-05-02T10:24:25Z</time></trkpt><trkpt lat="40.505918551379295" lon="9.337852537981702"><ele>734.3333333333333</ele><time>2026-05-02T10:24:26Z</time></trkpt><trkpt lat="40.505843977022856" lon="9.3378969926765"><ele>734.5</ele><time>2026-05-02T10:24:27Z</time></trkpt><trkpt lat="40.505787693577915" lon="9.33797602761468"><ele>734.6666666666666</ele><time>2026-05-02T10:24:28Z</time></trkpt><trkpt lat="40.5057577185409" lon="9.338084652088268"><ele>734.8333333333334</ele><time>2026-05-02T10:24:29Z</time></trkpt><trkpt lat="40.5057594016099" lon="9.338220913008247"><ele>735.0</ele><time>2026-05-02T10:24:30Z</time></trkpt><trkpt lat="40.5057663617608" lon="9.338390728425546"><ele>735.0</ele><time>2026-05-02T10:24:31Z</time></trkpt><trkpt lat="40.50574033471671" lon="9.338577090845213"><ele>735.0</ele><time>2026-05-02T10:24:32Z</time></trkpt><trkpt lat="40.505684455272565" lon="9.338768038332605"><ele>735.0</ele><time>2026-05-02T10:24:33Z</time></trkpt><trkpt lat="40.50561271898979" lon="9.338968973183542"><ele>735.0</ele><time>2026-05-02T10:24:34Z</time></trkpt><trkpt lat="40.50552710590144" lon="9.339181029456022"><ele>735.0</ele><time>2026-05-02T10:24:35Z</time></trkpt><trkpt lat="40.50543511905417" lon="9.339401787053804"><ele>735.0</ele><time>2026-05-02T10:24:36Z</time></trkpt><trkpt lat="40.50534232374491" lon="9.33964152135983"><ele>733.3333333333334</ele><time>2026-05-02T10:24:37Z</time></trkpt><trkpt lat="40.50524838692163" lon="9.33990168785925"><ele>731.6666666666667</ele><time>2026-05-02T10:24:38Z</time></trkpt><trkpt lat="40.50515094841272" lon="9.340175968496572"><ele>730.0</ele><time>2026-05-02T10:24:39Z</time></trkpt><trkpt lat="40.50504631235536" lon="9.340454961125078"><ele>731.0</ele><time>2026-05-02T10:24:40Z</time></trkpt><trkpt lat="40.504940845941086" lon="9.340727015775768"><ele>732.0</ele><time>2026-05-02T10:24:41Z</time></trkpt><trkpt lat="40.504840254169025" lon="9.341003288711212"><ele>732.0</ele><time>2026-05-02T10:24:42Z</time></trkpt><trkpt lat="40.50474658221585" lon="9.341271454476932"><ele>732.0</ele><time>2026-05-02T10:24:43Z</time></trkpt><trkpt lat="40.50465527465471" lon="9.341522551031083"><ele>732.0</ele><time>2026-05-02T10:24:44Z</time></trkpt><trkpt lat="40.50456120238422" lon="9.34176450572158"><ele>731.6666666666666</ele><time>2026-05-02T10:24:45Z</time></trkpt><trkpt lat="40.50445669946347" lon="9.341980660740377"><ele>731.3333333333333</ele><time>2026-05-02T10:24:46Z</time></trkpt><trkpt lat="40.50433109858183" lon="9.342168304884181"><ele>731.0</ele><time>2026-05-02T10:24:47Z</time></trkpt><trkpt lat="40.50418851861209" lon="9.342332647680546"><ele>731.0</ele><time>2026-05-02T10:24:48Z</time></trkpt><trkpt lat="40.50403162687509" lon="9.342460385691718"><ele>731.0</ele><time>2026-05-02T10:24:49Z</time></trkpt><trkpt lat="40.50385236321918" lon="9.342565837107047"><ele>731.0</ele><time>2026-05-02T10:24:50Z</time></trkpt><trkpt lat="40.50365459862678" lon="9.342656844289056"><ele>729.6666666666666</ele><time>2026-05-02T10:24:51Z</time></trkpt><trkpt lat="40.50344748205457" lon="9.342741963804231"><ele>728.3333333333334</ele><time>2026-05-02T10:24:52Z</time></trkpt><trkpt lat="40.50323357813671" lon="9.342828384246703"><ele>727.0</ele><time>2026-05-02T10:24:53Z</time></trkpt><trkpt lat="40.503017046492864" lon="9.342917911789696"><ele>727.5</ele><time>2026-05-02T10:24:54Z</time></trkpt><trkpt lat="40.50279604536639" lon="9.343006633995534"><ele>728.0</ele><time>2026-05-02T10:24:55Z</time></trkpt><trkpt lat="40.5025759809225" lon="9.343095765015203"><ele>728.0</ele><time>2026-05-02T10:24:56Z</time></trkpt><trkpt lat="40.50235356226318" lon="9.343187147868523"><ele>728.0</ele><time>2026-05-02T10:24:57Z</time></trkpt><trkpt lat="40.50212834921614" lon="9.343277941532346"><ele>728.0</ele><time>2026-05-02T10:24:58Z</time></trkpt><trkpt lat="40.5019048695062" lon="9.343370480440152"><ele>728.0</ele><time>2026-05-02T10:24:59Z</time></trkpt><trkpt lat="40.50168017894748" lon="9.343461932206077"><ele>728.0</ele><time>2026-05-02T10:25:00Z</time></trkpt><trkpt lat="40.50145180829743" lon="9.343555016404949"><ele>728.0</ele><time>2026-05-02T10:25:01Z</time></trkpt><trkpt lat="40.50122284919725" lon="9.343647458527416"><ele>727.5</ele><time>2026-05-02T10:25:02Z</time></trkpt><trkpt lat="40.50099593670197" lon="9.343742093230693"><ele>727.0</ele><time>2026-05-02T10:25:03Z</time></trkpt><trkpt lat="40.500769710069505" lon="9.34383624780153"><ele>728.0</ele><time>2026-05-02T10:25:04Z</time></trkpt><trkpt lat="40.50055122833002" lon="9.343926682655482"><ele>729.0</ele><time>2026-05-02T10:25:05Z</time></trkpt><trkpt lat="40.50034502626187" lon="9.34401414832003"><ele>730.0</ele><time>2026-05-02T10:25:06Z</time></trkpt><trkpt lat="40.500140211468384" lon="9.344096928044005"><ele>730.6666666666667</ele><time>2026-05-02T10:25:07Z</time></trkpt><trkpt lat="40.4999315812663" lon="9.344160531551683"><ele>731.3333333333334</ele><time>2026-05-02T10:25:08Z</time></trkpt><trkpt lat="40.49971050178622" lon="9.344191450687232"><ele>732.0</ele><time>2026-05-02T10:25:09Z</time></trkpt><trkpt lat="40.49947699551175" lon="9.344200612196449"><ele>733.0</ele><time>2026-05-02T10:25:10Z</time></trkpt><trkpt lat="40.4992431115379" lon="9.344203311362833"><ele>734.0</ele><time>2026-05-02T10:25:11Z</time></trkpt><trkpt lat="40.49901578473585" lon="9.34420484861856"><ele>734.0</ele><time>2026-05-02T10:25:12Z</time></trkpt><trkpt lat="40.49878838337866" lon="9.344209754876234"><ele>734.0</ele><time>2026-05-02T10:25:13Z</time></trkpt><trkpt lat="40.498565703092105" lon="9.344210463929938"><ele>735.3333333333333</ele><time>2026-05-02T10:25:14Z</time></trkpt><trkpt lat="40.498365664993656" lon="9.344198771397494"><ele>736.6666666666666</ele><time>2026-05-02T10:25:15Z</time></trkpt><trkpt lat="40.49816214823427" lon="9.344198884096635"><ele>738.0</ele><time>2026-05-02T10:25:16Z</time></trkpt><trkpt lat="40.49796614201846" lon="9.344195312641824"><ele>737.5</ele><time>2026-05-02T10:25:17Z</time></trkpt><trkpt lat="40.49775041626111" lon="9.344197624165474"><ele>737.0</ele><time>2026-05-02T10:25:18Z</time></trkpt><trkpt lat="40.49745500343361" lon="9.34420979358194"><ele>737.0</ele><time>2026-05-02T10:25:19Z</time></trkpt><trkpt lat="40.49724030121581" lon="9.344230580801728"><ele>737.0</ele><time>2026-05-02T10:25:20Z</time></trkpt><trkpt lat="40.497021520703875" lon="9.344269553776657"><ele>737.0</ele><time>2026-05-02T10:25:21Z</time></trkpt><trkpt lat="40.496802768096224" lon="9.34432508931633"><ele>737.0</ele><time>2026-05-02T10:25:22Z</time></trkpt><trkpt lat="40.4965886471837" lon="9.344387612653225"><ele>737.0</ele><time>2026-05-02T10:25:23Z</time></trkpt><trkpt lat="40.49638061902899" lon="9.344450238235385"><ele>737.0</ele><time>2026-05-02T10:25:24Z</time></trkpt><trkpt lat="40.4961737813384" lon="9.344506727592739"><ele>736.6666666666666</ele><time>2026-05-02T10:25:25Z</time></trkpt><trkpt lat="40.49596537875221" lon="9.344562300653054"><ele>736.3333333333334</ele><time>2026-05-02T10:25:26Z</time></trkpt><trkpt lat="40.495762537968886" lon="9.344615647789578"><ele>736.0</ele><time>2026-05-02T10:25:27Z</time></trkpt><trkpt lat="40.49556163149643" lon="9.344676043575475"><ele>737.6666666666667</ele><time>2026-05-02T10:25:28Z</time></trkpt><trkpt lat="40.49537611287663" lon="9.344721161295805"><ele>739.3333333333334</ele><time>2026-05-02T10:25:29Z</time></trkpt><trkpt lat="40.49521367979296" lon="9.34475946071481"><ele>741.0</ele><time>2026-05-02T10:25:30Z</time></trkpt><trkpt lat="40.495064112292845" lon="9.344799941655998"><ele>741.0</ele><time>2026-05-02T10:25:31Z</time></trkpt><trkpt lat="40.494925770439735" lon="9.344841168319276"><ele>741.0</ele><time>2026-05-02T10:25:32Z</time></trkpt><trkpt lat="40.49480167696674" lon="9.344906591004644"><ele>741.0</ele><time>2026-05-02T10:25:33Z</time></trkpt><trkpt lat="40.49471016205016" lon="9.345009521466956"><ele>741.0</ele><time>2026-05-02T10:25:34Z</time></trkpt><trkpt lat="40.49463822352153" lon="9.34512591417014"><ele>741.0</ele><time>2026-05-02T10:25:35Z</time></trkpt><trkpt lat="40.49459432057935" lon="9.345241079673526"><ele>741.0</ele><time>2026-05-02T10:25:36Z</time></trkpt><trkpt lat="40.49454552490822" lon="9.345328778668364"><ele>741.0</ele><time>2026-05-02T10:25:37Z</time></trkpt><trkpt lat="40.49447763412386" lon="9.345387833300094"><ele>741.0</ele><time>2026-05-02T10:25:38Z</time></trkpt><trkpt lat="40.49438506534009" lon="9.345434432975454"><ele>741.0</ele><time>2026-05-02T10:25:39Z</time></trkpt><trkpt lat="40.49427718746372" lon="9.345508105511167"><ele>741.5999999999999</ele><time>2026-05-02T10:25:40Z</time></trkpt><trkpt lat="40.4941938534321" lon="9.345583306315943"><ele>742.2</ele><time>2026-05-02T10:25:41Z</time></trkpt><trkpt lat="40.49409012727185" lon="9.345612230772865"><ele>742.8</ele><time>2026-05-02T10:25:42Z</time></trkpt><trkpt lat="40.493983897913964" lon="9.345629482292138"><ele>743.4000000000001</ele><time>2026-05-02T10:25:43Z</time></trkpt><trkpt lat="40.49387394557341" lon="9.345630648252564"><ele>744.0</ele><time>2026-05-02T10:25:44Z</time></trkpt><trkpt lat="40.49373941999034" lon="9.345607775963405"><ele>746.3333333333334</ele><time>2026-05-02T10:25:45Z</time></trkpt><trkpt lat="40.49358469657963" lon="9.345583900459909"><ele>748.6666666666667</ele><time>2026-05-02T10:25:46Z</time></trkpt><trkpt lat="40.49343587122898" lon="9.345575921533344"><ele>751.0</ele><time>2026-05-02T10:25:47Z</time></trkpt><trkpt lat="40.493289377707086" lon="9.345580660944439"><ele>751.0</ele><time>2026-05-02T10:25:48Z</time></trkpt><trkpt lat="40.493140854000856" lon="9.345581728724488"><ele>751.0</ele><time>2026-05-02T10:25:49Z</time></trkpt><trkpt lat="40.49299956250034" lon="9.345573095529302"><ele>751.0</ele><time>2026-05-02T10:25:50Z</time></trkpt><trkpt lat="40.49285025148094" lon="9.345569050841064"><ele>751.0</ele><time>2026-05-02T10:25:51Z</time></trkpt><trkpt lat="40.49269603358559" lon="9.345565193370938"><ele>751.6666666666667</ele><time>2026-05-02T10:25:52Z</time></trkpt><trkpt lat="40.49253010639936" lon="9.345561730404507"><ele>752.3333333333334</ele><time>2026-05-02T10:25:53Z</time></trkpt><trkpt lat="40.49235383548972" lon="9.345560822093233"><ele>753.0</ele><time>2026-05-02T10:25:54Z</time></trkpt><trkpt lat="40.492164965821445" lon="9.345555475979301"><ele>752.6666666666666</ele><time>2026-05-02T10:25:55Z</time></trkpt><trkpt lat="40.49196958302826" lon="9.345547450671836"><ele>752.3333333333333</ele><time>2026-05-02T10:25:56Z</time></trkpt><trkpt lat="40.491755034574126" lon="9.345532762213539"><ele>752.0</ele><time>2026-05-02T10:25:57Z</time></trkpt><trkpt lat="40.49153003893883" lon="9.345511035312093"><ele>752.5</ele><time>2026-05-02T10:25:58Z</time></trkpt><trkpt lat="40.49128881627372" lon="9.34549063527417"><ele>753.0</ele><time>2026-05-02T10:25:59Z</time></trkpt><trkpt lat="40.49104196889585" lon="9.345479617414194"><ele>753.0</ele><time>2026-05-02T10:26:00Z</time></trkpt><trkpt lat="40.49079509979088" lon="9.345469216523684"><ele>753.0</ele><time>2026-05-02T10:26:01Z</time></trkpt><trkpt lat="40.490548448323906" lon="9.345455259982387"><ele>753.5</ele><time>2026-05-02T10:26:02Z</time></trkpt><trkpt lat="40.49029961141579" lon="9.345443307445843"><ele>754.0</ele><time>2026-05-02T10:26:03Z</time></trkpt><trkpt lat="40.49005683075213" lon="9.345434177525465"><ele>754.0</ele><time>2026-05-02T10:26:04Z</time></trkpt><trkpt lat="40.48980868040754" lon="9.345423241583394"><ele>754.0</ele><time>2026-05-02T10:26:05Z</time></trkpt><trkpt lat="40.48955034099635" lon="9.34540793647396"><ele>756.0</ele><time>2026-05-02T10:26:06Z</time></trkpt><trkpt lat="40.48928727703701" lon="9.345393879259667"><ele>758.0</ele><time>2026-05-02T10:26:07Z</time></trkpt><trkpt lat="40.489031629974754" lon="9.345384700551913"><ele>758.0</ele><time>2026-05-02T10:26:08Z</time></trkpt><trkpt lat="40.488789217416375" lon="9.345374811934228"><ele>758.0</ele><time>2026-05-02T10:26:09Z</time></trkpt><trkpt lat="40.48855152271029" lon="9.34536251765784"><ele>758.0</ele><time>2026-05-02T10:26:10Z</time></trkpt><trkpt lat="40.488317072426845" lon="9.345351413605954"><ele>758.0</ele><time>2026-05-02T10:26:11Z</time></trkpt><trkpt lat="40.48808144192622" lon="9.345340432967483"><ele>758.3333333333333</ele><time>2026-05-02T10:26:12Z</time></trkpt><trkpt lat="40.48784913383571" lon="9.34533185327777"><ele>758.6666666666666</ele><time>2026-05-02T10:26:13Z</time></trkpt><trkpt lat="40.487639899137974" lon="9.345318559209367"><ele>759.0</ele><time>2026-05-02T10:26:14Z</time></trkpt><trkpt lat="40.48743564648187" lon="9.345306107360495"><ele>759.0</ele><time>2026-05-02T10:26:15Z</time></trkpt><trkpt lat="40.487243144448016" lon="9.345294947771558"><ele>759.0</ele><time>2026-05-02T10:26:16Z</time></trkpt><trkpt lat="40.48706279046406" lon="9.345286198018817"><ele>759.0</ele><time>2026-05-02T10:26:17Z</time></trkpt><trkpt lat="40.486897084675086" lon="9.345279506005847"><ele>759.75</ele><time>2026-05-02T10:26:18Z</time></trkpt><trkpt lat="40.48675228302179" lon="9.345273434750842"><ele>760.5</ele><time>2026-05-02T10:26:19Z</time></trkpt><trkpt lat="40.48662968703133" lon="9.345265703603785"><ele>761.25</ele><time>2026-05-02T10:26:20Z</time></trkpt><trkpt lat="40.486524843875124" lon="9.345250043407482"><ele>762.0</ele><time>2026-05-02T10:26:21Z</time></trkpt><trkpt lat="40.48643085160239" lon="9.345209299490707"><ele>762.0</ele><time>2026-05-02T10:26:22Z</time></trkpt><trkpt lat="40.48634787899711" lon="9.345146884363162"><ele>762.0</ele><time>2026-05-02T10:26:23Z</time></trkpt><trkpt lat="40.486256871217364" lon="9.345075204767497"><ele>762.0</ele><time>2026-05-02T10:26:24Z</time></trkpt><trkpt lat="40.486167875159346" lon="9.345033145172101"><ele>762.0</ele><time>2026-05-02T10:26:25Z</time></trkpt><trkpt lat="40.486080981098326" lon="9.345035400641015"><ele>762.0</ele><time>2026-05-02T10:26:26Z</time></trkpt><trkpt lat="40.48599534287691" lon="9.34507115984331"><ele>762.25</ele><time>2026-05-02T10:26:27Z</time></trkpt><trkpt lat="40.48589608772762" lon="9.345132536035015"><ele>762.5</ele><time>2026-05-02T10:26:28Z</time></trkpt><trkpt lat="40.485774895111525" lon="9.345195190146953"><ele>762.75</ele><time>2026-05-02T10:26:29Z</time></trkpt><trkpt lat="40.485634546600764" lon="9.345224367822958"><ele>763.0</ele><time>2026-05-02T10:26:30Z</time></trkpt><trkpt lat="40.48546552734262" lon="9.345224863964622"><ele>763.0</ele><time>2026-05-02T10:26:31Z</time></trkpt><trkpt lat="40.485282460884505" lon="9.345214892698252"><ele>763.0</ele><time>2026-05-02T10:26:32Z</time></trkpt><trkpt lat="40.485083213669874" lon="9.345199825810333"><ele>763.0</ele><time>2026-05-02T10:26:33Z</time></trkpt><trkpt lat="40.484868358280615" lon="9.345186984997719"><ele>763.0</ele><time>2026-05-02T10:26:34Z</time></trkpt><trkpt lat="40.48464301234704" lon="9.34518500938897"><ele>763.0</ele><time>2026-05-02T10:26:35Z</time></trkpt><trkpt lat="40.484411688246546" lon="9.345201544326601"><ele>765.0</ele><time>2026-05-02T10:26:36Z</time></trkpt><trkpt lat="40.484170621393076" lon="9.345240273594781"><ele>767.0</ele><time>2026-05-02T10:26:37Z</time></trkpt><trkpt lat="40.48391942756306" lon="9.345290173302795"><ele>768.0</ele><time>2026-05-02T10:26:38Z</time></trkpt><trkpt lat="40.48366553728035" lon="9.345339172455759"><ele>769.0</ele><time>2026-05-02T10:26:39Z</time></trkpt><trkpt lat="40.483409649764646" lon="9.345387422768624"><ele>769.0</ele><time>2026-05-02T10:26:40Z</time></trkpt><trkpt lat="40.48316296896847" lon="9.345436349395598"><ele>769.0</ele><time>2026-05-02T10:26:41Z</time></trkpt><trkpt lat="40.48292228299087" lon="9.345487076501819"><ele>769.5</ele><time>2026-05-02T10:26:42Z</time></trkpt><trkpt lat="40.48268968897884" lon="9.345537920857497"><ele>770.0</ele><time>2026-05-02T10:26:43Z</time></trkpt><trkpt lat="40.48246067820199" lon="9.345590113682213"><ele>770.0</ele><time>2026-05-02T10:26:44Z</time></trkpt><trkpt lat="40.482229086390426" lon="9.345643032812172"><ele>770.0</ele><time>2026-05-02T10:26:45Z</time></trkpt><trkpt lat="40.481993291398304" lon="9.345690586541213"><ele>771.0</ele><time>2026-05-02T10:26:46Z</time></trkpt><trkpt lat="40.481752319436445" lon="9.345727850150356"><ele>772.0</ele><time>2026-05-02T10:26:47Z</time></trkpt><trkpt lat="40.48150014606112" lon="9.345764018314302"><ele>772.0</ele><time>2026-05-02T10:26:48Z</time></trkpt><trkpt lat="40.48123640893571" lon="9.345808635525644"><ele>772.0</ele><time>2026-05-02T10:26:49Z</time></trkpt><trkpt lat="40.48097508182447" lon="9.345860568979763"><ele>772.0</ele><time>2026-05-02T10:26:50Z</time></trkpt><trkpt lat="40.48073009070946" lon="9.345911251631398"><ele>772.0</ele><time>2026-05-02T10:26:51Z</time></trkpt><trkpt lat="40.48048774731953" lon="9.345960399963676"><ele>773.0</ele><time>2026-05-02T10:26:52Z</time></trkpt><trkpt lat="40.48025288473143" lon="9.346012810428858"><ele>774.0</ele><time>2026-05-02T10:26:53Z</time></trkpt><trkpt lat="40.480029998209126" lon="9.346058905369341"><ele>774.0</ele><time>2026-05-02T10:26:54Z</time></trkpt><trkpt lat="40.47981679403911" lon="9.346103761980288"><ele>774.0</ele><time>2026-05-02T10:26:55Z</time></trkpt><trkpt lat="40.479603499498594" lon="9.346125513392336"><ele>774.0</ele><time>2026-05-02T10:26:56Z</time></trkpt><trkpt lat="40.47939581137232" lon="9.346122458572733"><ele>775.6666666666667</ele><time>2026-05-02T10:26:57Z</time></trkpt><trkpt lat="40.4791888310466" lon="9.346091548797903"><ele>777.3333333333334</ele><time>2026-05-02T10:26:58Z</time></trkpt><trkpt lat="40.47898203422936" lon="9.346035740943572"><ele>779.0</ele><time>2026-05-02T10:26:59Z</time></trkpt><trkpt lat="40.478770289455355" lon="9.34597330939985"><ele>779.0</ele><time>2026-05-02T10:27:00Z</time></trkpt><trkpt lat="40.478547461525345" lon="9.345908830578432"><ele>779.0</ele><time>2026-05-02T10:27:01Z</time></trkpt><trkpt lat="40.47831851369118" lon="9.34584460069635"><ele>779.0</ele><time>2026-05-02T10:27:02Z</time></trkpt><trkpt lat="40.4780882497785" lon="9.345779713312268"><ele>779.0</ele><time>2026-05-02T10:27:03Z</time></trkpt><trkpt lat="40.47784446911796" lon="9.345710479230402"><ele>779.5</ele><time>2026-05-02T10:27:04Z</time></trkpt><trkpt lat="40.47759873316326" lon="9.345645120487792"><ele>780.0</ele><time>2026-05-02T10:27:05Z</time></trkpt><trkpt lat="40.47735556880529" lon="9.345578947343656"><ele>782.0</ele><time>2026-05-02T10:27:06Z</time></trkpt><trkpt lat="40.477130699289226" lon="9.345512446147652"><ele>784.0</ele><time>2026-05-02T10:27:07Z</time></trkpt><trkpt lat="40.476919902005164" lon="9.345451857623763"><ele>786.0</ele><time>2026-05-02T10:27:08Z</time></trkpt><trkpt lat="40.476722307700975" lon="9.345397019229157"><ele>786.6666666666667</ele><time>2026-05-02T10:27:09Z</time></trkpt><trkpt lat="40.47653673978532" lon="9.345349636297488"><ele>787.3333333333334</ele><time>2026-05-02T10:27:10Z</time></trkpt><trkpt lat="40.4763630506032" lon="9.345307910522795"><ele>788.0</ele><time>2026-05-02T10:27:11Z</time></trkpt><trkpt lat="40.4761856131687" lon="9.34527516396814"><ele>788.6666666666667</ele><time>2026-05-02T10:27:12Z</time></trkpt><trkpt lat="40.47600147417774" lon="9.345271460930226"><ele>789.3333333333333</ele><time>2026-05-02T10:27:13Z</time></trkpt><trkpt lat="40.47581001997291" lon="9.345290093783843"><ele>790.0</ele><time>2026-05-02T10:27:14Z</time></trkpt><trkpt lat="40.475635993461914" lon="9.345325240383755"><ele>790.0</ele><time>2026-05-02T10:27:15Z</time></trkpt><trkpt lat="40.47546790199666" lon="9.345354549506064"><ele>790.0</ele><time>2026-05-02T10:27:16Z</time></trkpt><trkpt lat="40.47530437647347" lon="9.345375035781208"><ele>790.0</ele><time>2026-05-02T10:27:17Z</time></trkpt><trkpt lat="40.47514822191062" lon="9.34538529457666"><ele>789.0</ele><time>2026-05-02T10:27:18Z</time></trkpt><trkpt lat="40.474993219335715" lon="9.345379163438885"><ele>788.0</ele><time>2026-05-02T10:27:19Z</time></trkpt><trkpt lat="40.47484254326023" lon="9.345360156730763"><ele>787.0</ele><time>2026-05-02T10:27:20Z</time></trkpt><trkpt lat="40.47469381906735" lon="9.345333967083112"><ele>784.25</ele><time>2026-05-02T10:27:21Z</time></trkpt><trkpt lat="40.474558776079654" lon="9.345310453473646"><ele>781.5</ele><time>2026-05-02T10:27:22Z</time></trkpt><trkpt lat="40.474435991869164" lon="9.345279703234898"><ele>778.75</ele><time>2026-05-02T10:27:23Z</time></trkpt><trkpt lat="40.47432841927582" lon="9.345252267231242"><ele>776.0</ele><time>2026-05-02T10:27:24Z</time></trkpt><trkpt lat="40.47423443017697" lon="9.345221454535212"><ele>776.0000000000001</ele><time>2026-05-02T10:27:25Z</time></trkpt><trkpt lat="40.47415429410557" lon="9.345178047633993"><ele>776.0</ele><time>2026-05-02T10:27:26Z</time></trkpt><trkpt lat="40.4740816496303" lon="9.34511915728721"><ele>776.0</ele><time>2026-05-02T10:27:27Z</time></trkpt><trkpt lat="40.47401238930694" lon="9.345054746502804"><ele>776.0</ele><time>2026-05-02T10:27:28Z</time></trkpt><trkpt lat="40.473944268331024" lon="9.345003380202746"><ele>776.0000000000001</ele><time>2026-05-02T10:27:29Z</time></trkpt><trkpt lat="40.47388076906489" lon="9.34496894137108"><ele>776.0</ele><time>2026-05-02T10:27:30Z</time></trkpt><trkpt lat="40.473792078722745" lon="9.344925672424608"><ele>773.25</ele><time>2026-05-02T10:27:32Z</time></trkpt><trkpt lat="40.473716390646686" lon="9.344847631595622"><ele>770.5</ele><time>2026-05-02T10:27:34Z</time></trkpt><trkpt lat="40.473623226314494" lon="9.344701094249618"><ele>767.75</ele><time>2026-05-02T10:27:36Z</time></trkpt><trkpt lat="40.47355369740482" lon="9.344591163092472"><ele>765.0</ele><time>2026-05-02T10:27:37Z</time></trkpt><trkpt lat="40.4734654352757" lon="9.344468681739139"><ele>765.0</ele><time>2026-05-02T10:27:38Z</time></trkpt><trkpt lat="40.473366648383276" lon="9.344357677668356"><ele>765.0</ele><time>2026-05-02T10:27:39Z</time></trkpt><trkpt lat="40.47324119234569" lon="9.344245893223215"><ele>765.0</ele><time>2026-05-02T10:27:40Z</time></trkpt><trkpt lat="40.473093510664754" lon="9.344144687222837"><ele>765.0</ele><time>2026-05-02T10:27:41Z</time></trkpt><trkpt lat="40.47293520825819" lon="9.344061324374593"><ele>764.6666666666666</ele><time>2026-05-02T10:27:42Z</time></trkpt><trkpt lat="40.47277465999017" lon="9.343979245565388"><ele>764.3333333333333</ele><time>2026-05-02T10:27:43Z</time></trkpt><trkpt lat="40.47260636558358" lon="9.34390915165342"><ele>764.0</ele><time>2026-05-02T10:27:44Z</time></trkpt><trkpt lat="40.47242667468978" lon="9.343858416071965"><ele>764.0</ele><time>2026-05-02T10:27:45Z</time></trkpt><trkpt lat="40.47223217777679" lon="9.343823289836632"><ele>764.0</ele><time>2026-05-02T10:27:46Z</time></trkpt><trkpt lat="40.472028175124116" lon="9.34380647059816"><ele>764.0</ele><time>2026-05-02T10:27:47Z</time></trkpt><trkpt lat="40.47181165745317" lon="9.34379985321691"><ele>760.0</ele><time>2026-05-02T10:27:48Z</time></trkpt><trkpt lat="40.47159890729445" lon="9.343793750388627"><ele>756.0</ele><time>2026-05-02T10:27:49Z</time></trkpt><trkpt lat="40.4713770332346" lon="9.34379036400727"><ele>752.0</ele><time>2026-05-02T10:27:50Z</time></trkpt><trkpt lat="40.47115355594761" lon="9.343789809907852"><ele>749.3333333333333</ele><time>2026-05-02T10:27:51Z</time></trkpt><trkpt lat="40.47094025080845" lon="9.343788998398555"><ele>746.6666666666666</ele><time>2026-05-02T10:27:52Z</time></trkpt><trkpt lat="40.470724938900275" lon="9.343785330729148"><ele>744.0</ele><time>2026-05-02T10:27:53Z</time></trkpt><trkpt lat="40.47052132369095" lon="9.343778935012487"><ele>742.6666666666666</ele><time>2026-05-02T10:27:54Z</time></trkpt><trkpt lat="40.47034178159253" lon="9.343772664547439"><ele>741.3333333333333</ele><time>2026-05-02T10:27:55Z</time></trkpt><trkpt lat="40.47017508721061" lon="9.343763355205686"><ele>740.0</ele><time>2026-05-02T10:27:56Z</time></trkpt><trkpt lat="40.47002388610226" lon="9.343740831302975"><ele>740.0</ele><time>2026-05-02T10:27:57Z</time></trkpt><trkpt lat="40.469885229749664" lon="9.343684302309272"><ele>740.0</ele><time>2026-05-02T10:27:58Z</time></trkpt><trkpt lat="40.469753627389125" lon="9.343591521230353"><ele>740.0</ele><time>2026-05-02T10:27:59Z</time></trkpt><trkpt lat="40.46963615426595" lon="9.343469652779124"><ele>740.0</ele><time>2026-05-02T10:28:00Z</time></trkpt><trkpt lat="40.46952768248319" lon="9.343317918843816"><ele>741.3333333333333</ele><time>2026-05-02T10:28:01Z</time></trkpt><trkpt lat="40.4694366039167" lon="9.343156433780704"><ele>742.6666666666666</ele><time>2026-05-02T10:28:02Z</time></trkpt><trkpt lat="40.46932340799832" lon="9.342980740647196"><ele>744.0</ele><time>2026-05-02T10:28:03Z</time></trkpt><trkpt lat="40.46919940488934" lon="9.342842746378196"><ele>744.0</ele><time>2026-05-02T10:28:04Z</time></trkpt><trkpt lat="40.4690578500479" lon="9.342747813139944"><ele>744.0</ele><time>2026-05-02T10:28:05Z</time></trkpt><trkpt lat="40.46891623354625" lon="9.342705486987883"><ele>744.0</ele><time>2026-05-02T10:28:06Z</time></trkpt><trkpt lat="40.46877285148336" lon="9.342720530109736"><ele>744.0</ele><time>2026-05-02T10:28:07Z</time></trkpt><trkpt lat="40.468628342812735" lon="9.342771256270382"><ele>745.3333333333334</ele><time>2026-05-02T10:28:08Z</time></trkpt><trkpt lat="40.46846952183497" lon="9.342856612936474"><ele>746.6666666666667</ele><time>2026-05-02T10:28:09Z</time></trkpt><trkpt lat="40.46831016804788" lon="9.342960070423935"><ele>748.0</ele><time>2026-05-02T10:28:10Z</time></trkpt><trkpt lat="40.46814569172445" lon="9.343057074264314"><ele>752.3333333333334</ele><time>2026-05-02T10:28:11Z</time></trkpt><trkpt lat="40.467975899079725" lon="9.343140071496052"><ele>756.6666666666666</ele><time>2026-05-02T10:28:12Z</time></trkpt><trkpt lat="40.467812163777864" lon="9.343195294686238"><ele>761.0</ele><time>2026-05-02T10:28:13Z</time></trkpt><trkpt lat="40.46764547910043" lon="9.343219727344845"><ele>762.6666666666666</ele><time>2026-05-02T10:28:14Z</time></trkpt><trkpt lat="40.4674724077577" lon="9.343208629816464"><ele>764.3333333333334</ele><time>2026-05-02T10:28:15Z</time></trkpt><trkpt lat="40.467295259941984" lon="9.343207017183547"><ele>766.0</ele><time>2026-05-02T10:28:16Z</time></trkpt><trkpt lat="40.46712898393301" lon="9.343232318389846"><ele>768.0</ele><time>2026-05-02T10:28:17Z</time></trkpt><trkpt lat="40.46697611304379" lon="9.343288068101508"><ele>770.0</ele><time>2026-05-02T10:28:18Z</time></trkpt><trkpt lat="40.46682894721093" lon="9.343378838986599"><ele>772.0</ele><time>2026-05-02T10:28:19Z</time></trkpt><trkpt lat="40.466682906448725" lon="9.343509942354205"><ele>772.0</ele><time>2026-05-02T10:28:20Z</time></trkpt><trkpt lat="40.466535206516184" lon="9.343676683649354"><ele>772.0</ele><time>2026-05-02T10:28:21Z</time></trkpt><trkpt lat="40.46638563579197" lon="9.343875875895545"><ele>772.0</ele><time>2026-05-02T10:28:22Z</time></trkpt><trkpt lat="40.466237563884036" lon="9.34407477839339"><ele>770.6666666666666</ele><time>2026-05-02T10:28:23Z</time></trkpt><trkpt lat="40.46611516877898" lon="9.344227564896284"><ele>769.3333333333333</ele><time>2026-05-02T10:28:24Z</time></trkpt><trkpt lat="40.466005426613776" lon="9.344351043551557"><ele>768.0</ele><time>2026-05-02T10:28:25Z</time></trkpt><trkpt lat="40.465890693296394" lon="9.344448572109366"><ele>768.0</ele><time>2026-05-02T10:28:26Z</time></trkpt><trkpt lat="40.46576409414226" lon="9.344527614619683"><ele>768.0</ele><time>2026-05-02T10:28:27Z</time></trkpt><trkpt lat="40.465619743658095" lon="9.34456858050098"><ele>768.0</ele><time>2026-05-02T10:28:28Z</time></trkpt><trkpt lat="40.46545847489495" lon="9.344579450059884"><ele>768.0</ele><time>2026-05-02T10:28:29Z</time></trkpt><trkpt lat="40.46528709999042" lon="9.344562533472333"><ele>766.0</ele><time>2026-05-02T10:28:30Z</time></trkpt><trkpt lat="40.465109741926604" lon="9.344519582601983"><ele>764.0</ele><time>2026-05-02T10:28:31Z</time></trkpt><trkpt lat="40.46492928979719" lon="9.344450257726637"><ele>762.0</ele><time>2026-05-02T10:28:32Z</time></trkpt><trkpt lat="40.46474168692605" lon="9.344386631018319"><ele>763.6666666666666</ele><time>2026-05-02T10:28:33Z</time></trkpt><trkpt lat="40.46454896906973" lon="9.344338956435205"><ele>765.3333333333333</ele><time>2026-05-02T10:28:34Z</time></trkpt><trkpt lat="40.46437631908818" lon="9.34430801813347"><ele>767.0</ele><time>2026-05-02T10:28:35Z</time></trkpt><trkpt lat="40.46423066659296" lon="9.344298143830502"><ele>767.0</ele><time>2026-05-02T10:28:36Z</time></trkpt><trkpt lat="40.46410774945744" lon="9.344326133406614"><ele>767.0</ele><time>2026-05-02T10:28:37Z</time></trkpt><trkpt lat="40.464011756502025" lon="9.344394179436534"><ele>767.0</ele><time>2026-05-02T10:28:38Z</time></trkpt><trkpt lat="40.46393599594857" lon="9.344504307668329"><ele>767.0</ele><time>2026-05-02T10:28:39Z</time></trkpt><trkpt lat="40.46387089965909" lon="9.344638401805815"><ele>768.6666666666666</ele><time>2026-05-02T10:28:40Z</time></trkpt><trkpt lat="40.46383891901779" lon="9.34481845398222"><ele>770.3333333333333</ele><time>2026-05-02T10:28:41Z</time></trkpt><trkpt lat="40.46381042829808" lon="9.345023391103783"><ele>772.0</ele><time>2026-05-02T10:28:42Z</time></trkpt><trkpt lat="40.463776067579595" lon="9.345242271544736"><ele>772.0</ele><time>2026-05-02T10:28:43Z</time></trkpt><trkpt lat="40.463736558155624" lon="9.345472126044418"><ele>772.0</ele><time>2026-05-02T10:28:44Z</time></trkpt><trkpt lat="40.46369832086225" lon="9.34572210568443"><ele>772.0</ele><time>2026-05-02T10:28:45Z</time></trkpt><trkpt lat="40.46366120104374" lon="9.345960322893275"><ele>771.6666666666666</ele><time>2026-05-02T10:28:46Z</time></trkpt><trkpt lat="40.46363183159329" lon="9.346191279762616"><ele>771.3333333333333</ele><time>2026-05-02T10:28:47Z</time></trkpt><trkpt lat="40.46360053441653" lon="9.346412208688857"><ele>771.0</ele><time>2026-05-02T10:28:48Z</time></trkpt><trkpt lat="40.463554024503864" lon="9.346616718282606"><ele>769.5</ele><time>2026-05-02T10:28:49Z</time></trkpt><trkpt lat="40.46349120511348" lon="9.346797799127364"><ele>768.0</ele><time>2026-05-02T10:28:50Z</time></trkpt><trkpt lat="40.46340550748829" lon="9.346951720675326"><ele>766.5</ele><time>2026-05-02T10:28:51Z</time></trkpt><trkpt lat="40.463296368006745" lon="9.347078918736779"><ele>765.0</ele><time>2026-05-02T10:28:52Z</time></trkpt><trkpt lat="40.463168048540304" lon="9.347160202643211"><ele>765.0</ele><time>2026-05-02T10:28:53Z</time></trkpt><trkpt lat="40.46302718822504" lon="9.347208323378199"><ele>765.0</ele><time>2026-05-02T10:28:54Z</time></trkpt><trkpt lat="40.46286661343192" lon="9.347263913121635"><ele>765.0</ele><time>2026-05-02T10:28:55Z</time></trkpt><trkpt lat="40.462732049844696" lon="9.347330141178318"><ele>764.25</ele><time>2026-05-02T10:28:56Z</time></trkpt><trkpt lat="40.46263040295945" lon="9.347428744657675"><ele>763.5</ele><time>2026-05-02T10:28:57Z</time></trkpt><trkpt lat="40.46255106699202" lon="9.347572930980764"><ele>762.75</ele><time>2026-05-02T10:28:58Z</time></trkpt><trkpt lat="40.462469034049754" lon="9.347775351864838"><ele>762.0</ele><time>2026-05-02T10:28:59Z</time></trkpt><trkpt lat="40.46238576003991" lon="9.3479946608275"><ele>764.0</ele><time>2026-05-02T10:29:00Z</time></trkpt><trkpt lat="40.4623124797185" lon="9.348209635501338"><ele>766.0</ele><time>2026-05-02T10:29:01Z</time></trkpt><trkpt lat="40.462259730684536" lon="9.348449942956"><ele>768.0</ele><time>2026-05-02T10:29:02Z</time></trkpt><trkpt lat="40.46223149712966" lon="9.348715485149615"><ele>771.0</ele><time>2026-05-02T10:29:03Z</time></trkpt><trkpt lat="40.46221448314534" lon="9.348995293671887"><ele>774.0</ele><time>2026-05-02T10:29:04Z</time></trkpt><trkpt lat="40.46219527362714" lon="9.349290136327108"><ele>777.0</ele><time>2026-05-02T10:29:05Z</time></trkpt><trkpt lat="40.46217638292156" lon="9.349551604932017"><ele>778.6666666666667</ele><time>2026-05-02T10:29:06Z</time></trkpt><trkpt lat="40.46217230287191" lon="9.349809912685908"><ele>780.3333333333334</ele><time>2026-05-02T10:29:07Z</time></trkpt><trkpt lat="40.462181910174124" lon="9.35006704807826"><ele>782.0</ele><time>2026-05-02T10:29:08Z</time></trkpt><trkpt lat="40.46219708290497" lon="9.35029595500091"><ele>782.0</ele><time>2026-05-02T10:29:09Z</time></trkpt><trkpt lat="40.46220056644298" lon="9.350507917087207"><ele>782.0</ele><time>2026-05-02T10:29:10Z</time></trkpt><trkpt lat="40.462175785152326" lon="9.350733345951115"><ele>782.0</ele><time>2026-05-02T10:29:11Z</time></trkpt><trkpt lat="40.4621272530895" lon="9.350973221820803"><ele>782.0</ele><time>2026-05-02T10:29:12Z</time></trkpt><trkpt lat="40.46206680065303" lon="9.351230482236227"><ele>782.0</ele><time>2026-05-02T10:29:13Z</time></trkpt><trkpt lat="40.46201488624864" lon="9.351489989081552"><ele>782.0</ele><time>2026-05-02T10:29:14Z</time></trkpt><trkpt lat="40.461975900184065" lon="9.351766985858623"><ele>782.3333333333334</ele><time>2026-05-02T10:29:15Z</time></trkpt><trkpt lat="40.46194112147614" lon="9.352059725869672"><ele>782.6666666666667</ele><time>2026-05-02T10:29:16Z</time></trkpt><trkpt lat="40.46190389832634" lon="9.35231800594411"><ele>783.0</ele><time>2026-05-02T10:29:17Z</time></trkpt><trkpt lat="40.46186717587677" lon="9.35256013989476"><ele>783.0</ele><time>2026-05-02T10:29:18Z</time></trkpt><trkpt lat="40.461835118065395" lon="9.352795782126881"><ele>783.0</ele><time>2026-05-02T10:29:19Z</time></trkpt><trkpt lat="40.461815878797296" lon="9.35301470427275"><ele>783.0</ele><time>2026-05-02T10:29:20Z</time></trkpt><trkpt lat="40.461820493457545" lon="9.353221699558814"><ele>783.0</ele><time>2026-05-02T10:29:21Z</time></trkpt><trkpt lat="40.46184914929903" lon="9.353432642988395"><ele>783.0</ele><time>2026-05-02T10:29:22Z</time></trkpt><trkpt lat="40.461895941099485" lon="9.353640104271836"><ele>783.0</ele><time>2026-05-02T10:29:23Z</time></trkpt><trkpt lat="40.46192542649941" lon="9.353848234724571"><ele>782.6666666666667</ele><time>2026-05-02T10:29:24Z</time></trkpt><trkpt lat="40.4619250428367" lon="9.354058428832719"><ele>782.3333333333334</ele><time>2026-05-02T10:29:25Z</time></trkpt><trkpt lat="40.461893817682416" lon="9.354282918784552"><ele>782.0</ele><time>2026-05-02T10:29:26Z</time></trkpt><trkpt lat="40.461838013587226" lon="9.354532077794548"><ele>781.0</ele><time>2026-05-02T10:29:27Z</time></trkpt><trkpt lat="40.46177343646634" lon="9.354797526205603"><ele>780.0</ele><time>2026-05-02T10:29:28Z</time></trkpt><trkpt lat="40.461711651777435" lon="9.355064959140991"><ele>779.0</ele><time>2026-05-02T10:29:29Z</time></trkpt><trkpt lat="40.46164945620404" lon="9.355342858072381"><ele>777.3333333333334</ele><time>2026-05-02T10:29:30Z</time></trkpt><trkpt lat="40.46159012233093" lon="9.355618458376702"><ele>775.6666666666667</ele><time>2026-05-02T10:29:31Z</time></trkpt><trkpt lat="40.461533980288934" lon="9.35588853181589"><ele>774.0</ele><time>2026-05-02T10:29:32Z</time></trkpt><trkpt lat="40.46147742965161" lon="9.356156826011386"><ele>772.0</ele><time>2026-05-02T10:29:33Z</time></trkpt><trkpt lat="40.46141944695918" lon="9.356425960715969"><ele>770.0</ele><time>2026-05-02T10:29:34Z</time></trkpt><trkpt lat="40.46136038098076" lon="9.356694289970898"><ele>768.0</ele><time>2026-05-02T10:29:35Z</time></trkpt><trkpt lat="40.46130156045753" lon="9.356975993878427"><ele>765.3333333333334</ele><time>2026-05-02T10:29:36Z</time></trkpt><trkpt lat="40.461244998278325" lon="9.357254487211177"><ele>762.6666666666667</ele><time>2026-05-02T10:29:37Z</time></trkpt><trkpt lat="40.46118947821414" lon="9.357526401190826"><ele>760.0</ele><time>2026-05-02T10:29:38Z</time></trkpt><trkpt lat="40.4611315556843" lon="9.357789621643844"><ele>758.0</ele><time>2026-05-02T10:29:39Z</time></trkpt><trkpt lat="40.46107298491366" lon="9.358053853475957"><ele>756.0</ele><time>2026-05-02T10:29:40Z</time></trkpt><trkpt lat="40.461016200494186" lon="9.358307590155695"><ele>754.0</ele><time>2026-05-02T10:29:41Z</time></trkpt><trkpt lat="40.460961058660516" lon="9.358560737951313"><ele>754.0</ele><time>2026-05-02T10:29:42Z</time></trkpt><trkpt lat="40.46090868861227" lon="9.358808908629086"><ele>754.0</ele><time>2026-05-02T10:29:43Z</time></trkpt><trkpt lat="40.46086550518867" lon="9.359047588020664"><ele>754.0</ele><time>2026-05-02T10:29:44Z</time></trkpt><trkpt lat="40.46083382679965" lon="9.35928252968633"><ele>754.0</ele><time>2026-05-02T10:29:45Z</time></trkpt><trkpt lat="40.46080699515427" lon="9.359532016498486"><ele>754.0</ele><time>2026-05-02T10:29:46Z</time></trkpt><trkpt lat="40.46079650695077" lon="9.35978707980985"><ele>754.0</ele><time>2026-05-02T10:29:47Z</time></trkpt><trkpt lat="40.460809829463685" lon="9.360035669556675"><ele>754.0</ele><time>2026-05-02T10:29:48Z</time></trkpt><trkpt lat="40.46082988307183" lon="9.360274063478597"><ele>754.0</ele><time>2026-05-02T10:29:49Z</time></trkpt><trkpt lat="40.460827374465374" lon="9.360485582897518"><ele>754.0</ele><time>2026-05-02T10:29:50Z</time></trkpt><trkpt lat="40.46079938184162" lon="9.360669605399803"><ele>754.25</ele><time>2026-05-02T10:29:51Z</time></trkpt><trkpt lat="40.460751998941696" lon="9.360844003390463"><ele>754.5</ele><time>2026-05-02T10:29:52Z</time></trkpt><trkpt lat="40.46068900293357" lon="9.361003789761376"><ele>754.75</ele><time>2026-05-02T10:29:53Z</time></trkpt><trkpt lat="40.46061147218896" lon="9.361163311198188"><ele>755.0</ele><time>2026-05-02T10:29:54Z</time></trkpt><trkpt lat="40.46052204924028" lon="9.36133615666396"><ele>752.6666666666666</ele><time>2026-05-02T10:29:55Z</time></trkpt><trkpt lat="40.46041690349703" lon="9.361523621759329"><ele>750.3333333333334</ele><time>2026-05-02T10:29:56Z</time></trkpt><trkpt lat="40.46030711621294" lon="9.361716909787905"><ele>748.0</ele><time>2026-05-02T10:29:57Z</time></trkpt><trkpt lat="40.46019590172518" lon="9.3619230869855"><ele>748.0</ele><time>2026-05-02T10:29:58Z</time></trkpt><trkpt lat="40.46007862136752" lon="9.362138452695284"><ele>748.0</ele><time>2026-05-02T10:29:59Z</time></trkpt><trkpt lat="40.459952197940865" lon="9.362366229331233"><ele>748.0</ele><time>2026-05-02T10:30:00Z</time></trkpt><trkpt lat="40.45982153369681" lon="9.362601620288192"><ele>748.6666666666667</ele><time>2026-05-02T10:30:01Z</time></trkpt><trkpt lat="40.459697858122915" lon="9.36282664265258"><ele>749.3333333333334</ele><time>2026-05-02T10:30:02Z</time></trkpt><trkpt lat="40.459567026188175" lon="9.363057371907578"><ele>750.0</ele><time>2026-05-02T10:30:03Z</time></trkpt><trkpt lat="40.459435135173095" lon="9.363289389398147"><ele>749.3333333333334</ele><time>2026-05-02T10:30:04Z</time></trkpt><trkpt lat="40.459303217108356" lon="9.363518898671765"><ele>748.6666666666667</ele><time>2026-05-02T10:30:05Z</time></trkpt><trkpt lat="40.45917052728125" lon="9.363746023879827"><ele>748.0</ele><time>2026-05-02T10:30:06Z</time></trkpt><trkpt lat="40.45904225327361" lon="9.363972008878243"><ele>748.0</ele><time>2026-05-02T10:30:07Z</time></trkpt><trkpt lat="40.45892628614985" lon="9.364184885452957"><ele>748.0</ele><time>2026-05-02T10:30:08Z</time></trkpt><trkpt lat="40.45882595095083" lon="9.364375352032377"><ele>748.0</ele><time>2026-05-02T10:30:09Z</time></trkpt><trkpt lat="40.45872788927651" lon="9.364556558891568"><ele>750.3333333333334</ele><time>2026-05-02T10:30:10Z</time></trkpt><trkpt lat="40.458632335893036" lon="9.364729728566"><ele>752.6666666666666</ele><time>2026-05-02T10:30:11Z</time></trkpt><trkpt lat="40.45854228190225" lon="9.364890220601534"><ele>755.0</ele><time>2026-05-02T10:30:12Z</time></trkpt><trkpt lat="40.45846102990936" lon="9.365038859674172"><ele>755.0</ele><time>2026-05-02T10:30:13Z</time></trkpt><trkpt lat="40.45838525266946" lon="9.365176428291761"><ele>755.0</ele><time>2026-05-02T10:30:14Z</time></trkpt><trkpt lat="40.45831548880817" lon="9.36530130383986"><ele>755.0</ele><time>2026-05-02T10:30:15Z</time></trkpt><trkpt lat="40.45824600735775" lon="9.365422170849362"><ele>755.0</ele><time>2026-05-02T10:30:16Z</time></trkpt><trkpt lat="40.45817403283196" lon="9.365540435412079"><ele>755.6</ele><time>2026-05-02T10:30:17Z</time></trkpt><trkpt lat="40.45810431070667" lon="9.365659750779125"><ele>756.2</ele><time>2026-05-02T10:30:18Z</time></trkpt><trkpt lat="40.458042431936406" lon="9.365774396536612"><ele>756.8</ele><time>2026-05-02T10:30:19Z</time></trkpt><trkpt lat="40.45797454912604" lon="9.365899144234627"><ele>757.4</ele><time>2026-05-02T10:30:20Z</time></trkpt><trkpt lat="40.45791929570736" lon="9.366013654102682"><ele>758.0</ele><time>2026-05-02T10:30:21Z</time></trkpt><trkpt lat="40.45788481180233" lon="9.36613428588245"><ele>758.25</ele><time>2026-05-02T10:30:22Z</time></trkpt><trkpt lat="40.45787828114039" lon="9.366278012455648"><ele>758.5</ele><time>2026-05-02T10:30:23Z</time></trkpt><trkpt lat="40.45790593637979" lon="9.366415209332358"><ele>758.75</ele><time>2026-05-02T10:30:24Z</time></trkpt><trkpt lat="40.4579669171524" lon="9.366545398627544"><ele>759.0</ele><time>2026-05-02T10:30:25Z</time></trkpt><trkpt lat="40.458051714901536" lon="9.366654050528"><ele>758.5</ele><time>2026-05-02T10:30:26Z</time></trkpt><trkpt lat="40.45816229515944" lon="9.366743023056015"><ele>758.0</ele><time>2026-05-02T10:30:27Z</time></trkpt><trkpt lat="40.45828985368949" lon="9.366825691452716"><ele>757.5</ele><time>2026-05-02T10:30:28Z</time></trkpt><trkpt lat="40.45842616073131" lon="9.36691184390778"><ele>757.0</ele><time>2026-05-02T10:30:29Z</time></trkpt><trkpt lat="40.45856298659591" lon="9.366991632706686"><ele>757.0</ele><time>2026-05-02T10:30:30Z</time></trkpt><trkpt lat="40.45869354728286" lon="9.367068086102442"><ele>757.0</ele><time>2026-05-02T10:30:31Z</time></trkpt><trkpt lat="40.45881959366299" lon="9.367142785002342"><ele>757.0</ele><time>2026-05-02T10:30:32Z</time></trkpt><trkpt lat="40.458929106939685" lon="9.367201324780167"><ele>757.0</ele><time>2026-05-02T10:30:33Z</time></trkpt><trkpt lat="40.45902044084065" lon="9.36725080627785"><ele>756.0</ele><time>2026-05-02T10:30:34Z</time></trkpt><trkpt lat="40.45909357488786" lon="9.367292654516827"><ele>755.0</ele><time>2026-05-02T10:30:35Z</time></trkpt><trkpt lat="40.45915185550857" lon="9.367365154925363"><ele>754.0</ele><time>2026-05-02T10:30:37Z</time></trkpt><trkpt lat="40.4591434477436" lon="9.367464690459608"><ele>753.0</ele><time>2026-05-02T10:30:39Z</time></trkpt><trkpt lat="40.45909936426526" lon="9.367525731082575"><ele>752.0</ele><time>2026-05-02T10:30:40Z</time></trkpt><trkpt lat="40.45903045790463" lon="9.367588682081918"><ele>751.0</ele><time>2026-05-02T10:30:41Z</time></trkpt><trkpt lat="40.45894628215681" lon="9.367670403190909"><ele>751.0</ele><time>2026-05-02T10:30:42Z</time></trkpt><trkpt lat="40.45886266904092" lon="9.367760581580896"><ele>751.0</ele><time>2026-05-02T10:30:43Z</time></trkpt><trkpt lat="40.45877499962079" lon="9.367858669285827"><ele>751.0</ele><time>2026-05-02T10:30:44Z</time></trkpt><trkpt lat="40.458690320173105" lon="9.36795948614416"><ele>751.0</ele><time>2026-05-02T10:30:45Z</time></trkpt><trkpt lat="40.45862167390221" lon="9.368043045363851"><ele>751.0</ele><time>2026-05-02T10:30:46Z</time></trkpt><trkpt lat="40.45855481395754" lon="9.368129530205687"><ele>749.1999999999999</ele><time>2026-05-02T10:30:47Z</time></trkpt><trkpt lat="40.45848476069812" lon="9.368222705900438"><ele>747.4</ele><time>2026-05-02T10:30:49Z</time></trkpt><trkpt lat="40.458393536061855" lon="9.368296389493535"><ele>745.6</ele><time>2026-05-02T10:30:52Z</time></trkpt><trkpt lat="40.45830666386566" lon="9.36832284981143"><ele>743.8</ele><time>2026-05-02T10:30:53Z</time></trkpt><trkpt lat="40.45822364648454" lon="9.36835329583521"><ele>742.0</ele><time>2026-05-02T10:30:54Z</time></trkpt><trkpt lat="40.45811863292754" lon="9.368402922604849"><ele>742.0</ele><time>2026-05-02T10:30:55Z</time></trkpt><trkpt lat="40.458007959517055" lon="9.368434736422083"><ele>742.0</ele><time>2026-05-02T10:30:56Z</time></trkpt><trkpt lat="40.457904280366506" lon="9.368420712734816"><ele>742.0</ele><time>2026-05-02T10:30:57Z</time></trkpt><trkpt lat="40.45780936525238" lon="9.368359436214416"><ele>742.0</ele><time>2026-05-02T10:30:58Z</time></trkpt><trkpt lat="40.457728105248115" lon="9.368255476788736"><ele>742.0</ele><time>2026-05-02T10:30:59Z</time></trkpt><trkpt lat="40.45764550882729" lon="9.368137736327547"><ele>742.0</ele><time>2026-05-02T10:31:00Z</time></trkpt><trkpt lat="40.4575479654527" lon="9.368045034496543"><ele>742.0</ele><time>2026-05-02T10:31:01Z</time></trkpt><trkpt lat="40.45742906259578" lon="9.367986034784968"><ele>742.0</ele><time>2026-05-02T10:31:02Z</time></trkpt><trkpt lat="40.45730462783705" lon="9.36797568536516"><ele>742.0</ele><time>2026-05-02T10:31:03Z</time></trkpt><trkpt lat="40.45717520589464" lon="9.368035458486991"><ele>742.3333333333334</ele><time>2026-05-02T10:31:04Z</time></trkpt><trkpt lat="40.45704813907865" lon="9.368133480846897"><ele>742.6666666666666</ele><time>2026-05-02T10:31:05Z</time></trkpt><trkpt lat="40.456912085519974" lon="9.368241664192112"><ele>743.0</ele><time>2026-05-02T10:31:06Z</time></trkpt><trkpt lat="40.456765459429825" lon="9.368355475101888"><ele>743.0</ele><time>2026-05-02T10:31:07Z</time></trkpt><trkpt lat="40.45660768435654" lon="9.368470794438723"><ele>743.0</ele><time>2026-05-02T10:31:08Z</time></trkpt><trkpt lat="40.45644667234494" lon="9.368583968705668"><ele>743.0</ele><time>2026-05-02T10:31:09Z</time></trkpt><trkpt lat="40.45629288839447" lon="9.368699974946084"><ele>743.3333333333333</ele><time>2026-05-02T10:31:10Z</time></trkpt><trkpt lat="40.456151817856444" lon="9.368813203319377"><ele>743.6666666666666</ele><time>2026-05-02T10:31:11Z</time></trkpt><trkpt lat="40.45601309964062" lon="9.368913959849658"><ele>744.0</ele><time>2026-05-02T10:31:12Z</time></trkpt><trkpt lat="40.45586213160819" lon="9.369007218917725"><ele>743.3333333333334</ele><time>2026-05-02T10:31:13Z</time></trkpt><trkpt lat="40.45570419792705" lon="9.36908806723657"><ele>742.6666666666667</ele><time>2026-05-02T10:31:14Z</time></trkpt><trkpt lat="40.45554559339174" lon="9.36916572757413"><ele>742.0</ele><time>2026-05-02T10:31:15Z</time></trkpt><trkpt lat="40.45538344879803" lon="9.369248752550755"><ele>741.0</ele><time>2026-05-02T10:31:16Z</time></trkpt><trkpt lat="40.45521335368812" lon="9.369334588025277"><ele>740.0</ele><time>2026-05-02T10:31:17Z</time></trkpt><trkpt lat="40.45504103110635" lon="9.369421211412911"><ele>739.0</ele><time>2026-05-02T10:31:18Z</time></trkpt><trkpt lat="40.45487979554063" lon="9.369503171667393"><ele>739.0</ele><time>2026-05-02T10:31:19Z</time></trkpt><trkpt lat="40.45472120568103" lon="9.369582411337039"><ele>739.0</ele><time>2026-05-02T10:31:20Z</time></trkpt><trkpt lat="40.45454670465481" lon="9.369647262698445"><ele>739.0</ele><time>2026-05-02T10:31:21Z</time></trkpt><trkpt lat="40.45436032646445" lon="9.369688543477974"><ele>737.6666666666667</ele><time>2026-05-02T10:31:22Z</time></trkpt><trkpt lat="40.454164995640554" lon="9.369710662161937"><ele>736.3333333333334</ele><time>2026-05-02T10:31:23Z</time></trkpt><trkpt lat="40.453960036515326" lon="9.369727364404062"><ele>735.0</ele><time>2026-05-02T10:31:24Z</time></trkpt><trkpt lat="40.45375593792868" lon="9.36974103441919"><ele>734.3333333333334</ele><time>2026-05-02T10:31:25Z</time></trkpt><trkpt lat="40.45355401601614" lon="9.369756709015695"><ele>733.6666666666667</ele><time>2026-05-02T10:31:26Z</time></trkpt><trkpt lat="40.45334975189571" lon="9.369771409033554"><ele>733.0</ele><time>2026-05-02T10:31:27Z</time></trkpt><trkpt lat="40.45314757015441" lon="9.369782040414721"><ele>732.6666666666667</ele><time>2026-05-02T10:31:28Z</time></trkpt><trkpt lat="40.45295333256398" lon="9.369792734270638"><ele>732.3333333333334</ele><time>2026-05-02T10:31:29Z</time></trkpt><trkpt lat="40.45276650171302" lon="9.369806730518118"><ele>732.0</ele><time>2026-05-02T10:31:30Z</time></trkpt><trkpt lat="40.452588043102104" lon="9.369824007247091"><ele>732.0</ele><time>2026-05-02T10:31:31Z</time></trkpt><trkpt lat="40.45241582878059" lon="9.369857177294087"><ele>732.0</ele><time>2026-05-02T10:31:32Z</time></trkpt><trkpt lat="40.45224985217404" lon="9.369918158793265"><ele>732.0</ele><time>2026-05-02T10:31:33Z</time></trkpt><trkpt lat="40.452095531873994" lon="9.370010728670875"><ele>730.6666666666666</ele><time>2026-05-02T10:31:34Z</time></trkpt><trkpt lat="40.45195451002575" lon="9.370114906168222"><ele>729.3333333333333</ele><time>2026-05-02T10:31:35Z</time></trkpt><trkpt lat="40.45181462965501" lon="9.370209530077602"><ele>728.0</ele><time>2026-05-02T10:31:36Z</time></trkpt><trkpt lat="40.45167284878126" lon="9.370255869617301"><ele>728.0</ele><time>2026-05-02T10:31:37Z</time></trkpt><trkpt lat="40.45153095066064" lon="9.370246327347248"><ele>728.0</ele><time>2026-05-02T10:31:38Z</time></trkpt><trkpt lat="40.45139275289458" lon="9.37019638161011"><ele>728.0</ele><time>2026-05-02T10:31:39Z</time></trkpt><trkpt lat="40.451254348846064" lon="9.370137131940146"><ele>728.0</ele><time>2026-05-02T10:31:40Z</time></trkpt><trkpt lat="40.451115764631695" lon="9.370078539875685"><ele>728.25</ele><time>2026-05-02T10:31:41Z</time></trkpt><trkpt lat="40.45098149143481" lon="9.370022088986236"><ele>728.5</ele><time>2026-05-02T10:31:42Z</time></trkpt><trkpt lat="40.45085450844438" lon="9.36996482305398"><ele>728.75</ele><time>2026-05-02T10:31:43Z</time></trkpt><trkpt lat="40.45073366904778" lon="9.369895156730218"><ele>729.0</ele><time>2026-05-02T10:31:44Z</time></trkpt><trkpt lat="40.45061399861763" lon="9.369807267497578"><ele>729.0</ele><time>2026-05-02T10:31:45Z</time></trkpt><trkpt lat="40.45048893580794" lon="9.36971511632066"><ele>729.0</ele><time>2026-05-02T10:31:46Z</time></trkpt><trkpt lat="40.450359656925706" lon="9.369612169959751"><ele>729.0</ele><time>2026-05-02T10:31:47Z</time></trkpt><trkpt lat="40.45022508301966" lon="9.369501300030638"><ele>728.3333333333334</ele><time>2026-05-02T10:31:48Z</time></trkpt><trkpt lat="40.4500845910869" lon="9.369383830216401"><ele>727.6666666666667</ele><time>2026-05-02T10:31:49Z</time></trkpt><trkpt lat="40.449936687271524" lon="9.369258618811552"><ele>727.0</ele><time>2026-05-02T10:31:50Z</time></trkpt><trkpt lat="40.44978260677772" lon="9.36913302426941"><ele>727.0</ele><time>2026-05-02T10:31:51Z</time></trkpt><trkpt lat="40.44962870147696" lon="9.369007597331848"><ele>727.0</ele><time>2026-05-02T10:31:52Z</time></trkpt><trkpt lat="40.44946845988184" lon="9.36887560909257"><ele>727.0</ele><time>2026-05-02T10:31:53Z</time></trkpt><trkpt lat="40.449304264134994" lon="9.36873922771387"><ele>728.6666666666667</ele><time>2026-05-02T10:31:54Z</time></trkpt><trkpt lat="40.44913448363795" lon="9.368598959794534"><ele>730.3333333333334</ele><time>2026-05-02T10:31:55Z</time></trkpt><trkpt lat="40.4489626469286" lon="9.368455729265762"><ele>732.0</ele><time>2026-05-02T10:31:56Z</time></trkpt><trkpt lat="40.44878438064826" lon="9.368306337337971"><ele>732.0</ele><time>2026-05-02T10:31:57Z</time></trkpt><trkpt lat="40.448596800104156" lon="9.368155393588552"><ele>732.0</ele><time>2026-05-02T10:31:58Z</time></trkpt><trkpt lat="40.44840728581841" lon="9.36800171176856"><ele>732.0</ele><time>2026-05-02T10:31:59Z</time></trkpt><trkpt lat="40.44822523098851" lon="9.367855595135703"><ele>732.3333333333334</ele><time>2026-05-02T10:32:00Z</time></trkpt><trkpt lat="40.44803897691492" lon="9.367700917870458"><ele>732.6666666666667</ele><time>2026-05-02T10:32:01Z</time></trkpt><trkpt lat="40.447848091703186" lon="9.367543343684238"><ele>733.0</ele><time>2026-05-02T10:32:02Z</time></trkpt><trkpt lat="40.447654403723924" lon="9.367384220962807"><ele>733.5</ele><time>2026-05-02T10:32:03Z</time></trkpt><trkpt lat="40.44745973982236" lon="9.367225109603288"><ele>734.0</ele><time>2026-05-02T10:32:04Z</time></trkpt><trkpt lat="40.447263860637925" lon="9.367065022674286"><ele>737.5</ele><time>2026-05-02T10:32:05Z</time></trkpt><trkpt lat="40.44706929198408" lon="9.366905776451786"><ele>741.0</ele><time>2026-05-02T10:32:06Z</time></trkpt><trkpt lat="40.44687747202064" lon="9.36674554591932"><ele>741.0</ele><time>2026-05-02T10:32:07Z</time></trkpt><trkpt lat="40.446701118726025" lon="9.36658668813359"><ele>741.0</ele><time>2026-05-02T10:32:08Z</time></trkpt><trkpt lat="40.44654024805345" lon="9.36641872557371"><ele>741.0</ele><time>2026-05-02T10:32:09Z</time></trkpt><trkpt lat="40.44638710288043" lon="9.366255693099342"><ele>741.6666666666666</ele><time>2026-05-02T10:32:10Z</time></trkpt><trkpt lat="40.44622700663613" lon="9.366107532792096"><ele>742.3333333333333</ele><time>2026-05-02T10:32:11Z</time></trkpt><trkpt lat="40.44605311782423" lon="9.365975901783834"><ele>743.0</ele><time>2026-05-02T10:32:12Z</time></trkpt><trkpt lat="40.445882563107766" lon="9.36588027947157"><ele>743.0</ele><time>2026-05-02T10:32:13Z</time></trkpt><trkpt lat="40.44572104118044" lon="9.365803992019453"><ele>743.0</ele><time>2026-05-02T10:32:14Z</time></trkpt><trkpt lat="40.445586566684504" lon="9.365720102711023"><ele>743.0</ele><time>2026-05-02T10:32:15Z</time></trkpt><trkpt lat="40.44547343968044" lon="9.365600231420824"><ele>744.0</ele><time>2026-05-02T10:32:16Z</time></trkpt><trkpt lat="40.44539280711963" lon="9.365440586042249"><ele>745.0</ele><time>2026-05-02T10:32:17Z</time></trkpt><trkpt lat="40.445316423775154" lon="9.365281443393625"><ele>746.0</ele><time>2026-05-02T10:32:18Z</time></trkpt><trkpt lat="40.445224023241956" lon="9.365159615719252"><ele>747.0</ele><time>2026-05-02T10:32:19Z</time></trkpt><trkpt lat="40.445097985845386" lon="9.365064765763115"><ele>747.0</ele><time>2026-05-02T10:32:20Z</time></trkpt><trkpt lat="40.4449508606611" lon="9.364970754118099"><ele>747.0</ele><time>2026-05-02T10:32:21Z</time></trkpt><trkpt lat="40.44481733677664" lon="9.364893258894327"><ele>747.0</ele><time>2026-05-02T10:32:22Z</time></trkpt><trkpt lat="40.44467968847019" lon="9.364852861870643"><ele>748.0</ele><time>2026-05-02T10:32:23Z</time></trkpt><trkpt lat="40.44453242226684" lon="9.364862433663134"><ele>749.0</ele><time>2026-05-02T10:32:24Z</time></trkpt><trkpt lat="40.44438542099149" lon="9.364918441619679"><ele>750.0</ele><time>2026-05-02T10:32:25Z</time></trkpt><trkpt lat="40.444251611477085" lon="9.364965147656916"><ele>751.0</ele><time>2026-05-02T10:32:26Z</time></trkpt><trkpt lat="40.444119031306364" lon="9.364964263722527"><ele>751.0</ele><time>2026-05-02T10:32:27Z</time></trkpt><trkpt lat="40.44399821768781" lon="9.364904666486494"><ele>751.0</ele><time>2026-05-02T10:32:28Z</time></trkpt><trkpt lat="40.443908249267615" lon="9.364788990194679"><ele>751.0</ele><time>2026-05-02T10:32:29Z</time></trkpt><trkpt lat="40.44383278769574" lon="9.364637093199534"><ele>751.0</ele><time>2026-05-02T10:32:30Z</time></trkpt><trkpt lat="40.44375797621085" lon="9.364459685467313"><ele>752.6666666666667</ele><time>2026-05-02T10:32:31Z</time></trkpt><trkpt lat="40.44366088608511" lon="9.364280749142853"><ele>754.3333333333334</ele><time>2026-05-02T10:32:32Z</time></trkpt><trkpt lat="40.443561692854495" lon="9.36408061120609"><ele>756.0</ele><time>2026-05-02T10:32:33Z</time></trkpt><trkpt lat="40.44346745706789" lon="9.363871624000005"><ele>754.3333333333334</ele><time>2026-05-02T10:32:34Z</time></trkpt><trkpt lat="40.44337267395681" lon="9.363665949789247"><ele>752.6666666666667</ele><time>2026-05-02T10:32:35Z</time></trkpt><trkpt lat="40.44328394370126" lon="9.363477506293508"><ele>751.0</ele><time>2026-05-02T10:32:36Z</time></trkpt><trkpt lat="40.44319920290485" lon="9.363322397888648"><ele>751.0</ele><time>2026-05-02T10:32:37Z</time></trkpt><trkpt lat="40.44310419481396" lon="9.36319608549869"><ele>751.0</ele><time>2026-05-02T10:32:38Z</time></trkpt><trkpt lat="40.442996916044684" lon="9.363111553293658"><ele>751.0</ele><time>2026-05-02T10:32:39Z</time></trkpt><trkpt lat="40.44286853911324" lon="9.363078364873614"><ele>751.0</ele><time>2026-05-02T10:32:40Z</time></trkpt><trkpt lat="40.442721523510514" lon="9.36308495688341"><ele>752.6666666666667</ele><time>2026-05-02T10:32:41Z</time></trkpt><trkpt lat="40.44256324828025" lon="9.36311493657757"><ele>754.3333333333334</ele><time>2026-05-02T10:32:42Z</time></trkpt><trkpt lat="40.442412740737886" lon="9.36316947766707"><ele>756.0</ele><time>2026-05-02T10:32:43Z</time></trkpt><trkpt lat="40.44227316477318" lon="9.363257855227385"><ele>756.0</ele><time>2026-05-02T10:32:44Z</time></trkpt><trkpt lat="40.44215793462998" lon="9.363390727327298"><ele>756.0</ele><time>2026-05-02T10:32:45Z</time></trkpt><trkpt lat="40.44205820698831" lon="9.363529865202253"><ele>756.0</ele><time>2026-05-02T10:32:46Z</time></trkpt><trkpt lat="40.44196002403577" lon="9.36362411501299"><ele>756.0</ele><time>2026-05-02T10:32:47Z</time></trkpt><trkpt lat="40.441860075401145" lon="9.363676600330697"><ele>756.25</ele><time>2026-05-02T10:32:48Z</time></trkpt><trkpt lat="40.44176250536934" lon="9.36367535216867"><ele>756.5</ele><time>2026-05-02T10:32:49Z</time></trkpt><trkpt lat="40.44165955739528" lon="9.363628099774925"><ele>756.75</ele><time>2026-05-02T10:32:50Z</time></trkpt><trkpt lat="40.441548551439766" lon="9.363560373038714"><ele>757.0</ele><time>2026-05-02T10:32:51Z</time></trkpt><trkpt lat="40.44142403419388" lon="9.363480766889547"><ele>757.25</ele><time>2026-05-02T10:32:52Z</time></trkpt><trkpt lat="40.44128305847575" lon="9.363405404248024"><ele>757.5</ele><time>2026-05-02T10:32:53Z</time></trkpt><trkpt lat="40.44114437433553" lon="9.363358499565873"><ele>757.75</ele><time>2026-05-02T10:32:54Z</time></trkpt><trkpt lat="40.441012126153645" lon="9.363343387516212"><ele>758.0</ele><time>2026-05-02T10:32:55Z</time></trkpt><trkpt lat="40.4408987837144" lon="9.363365454677455"><ele>758.0</ele><time>2026-05-02T10:32:56Z</time></trkpt><trkpt lat="40.44080252222225" lon="9.363441580180982"><ele>758.0</ele><time>2026-05-02T10:32:57Z</time></trkpt><trkpt lat="40.440736982979885" lon="9.363572677777093"><ele>758.0</ele><time>2026-05-02T10:32:58Z</time></trkpt><trkpt lat="40.440711618855346" lon="9.36373482113332"><ele>758.0</ele><time>2026-05-02T10:32:59Z</time></trkpt><trkpt lat="40.44069393787063" lon="9.363906012430085"><ele>759.8</ele><time>2026-05-02T10:33:00Z</time></trkpt><trkpt lat="40.44064912488621" lon="9.364045557173252"><ele>761.5999999999999</ele><time>2026-05-02T10:33:01Z</time></trkpt><trkpt lat="40.44056439021376" lon="9.364138908242857"><ele>763.4000000000001</ele><time>2026-05-02T10:33:02Z</time></trkpt><trkpt lat="40.4404654706418" lon="9.364168146793608"><ele>765.2</ele><time>2026-05-02T10:33:03Z</time></trkpt><trkpt lat="40.4403679167015" lon="9.364134152827447"><ele>767.0</ele><time>2026-05-02T10:33:04Z</time></trkpt><trkpt lat="40.44028262049565" lon="9.364043287168935"><ele>767.0</ele><time>2026-05-02T10:33:05Z</time></trkpt><trkpt lat="40.440207151867554" lon="9.363928249407946"><ele>767.0</ele><time>2026-05-02T10:33:06Z</time></trkpt><trkpt lat="40.440125064291124" lon="9.363806326864415"><ele>767.0</ele><time>2026-05-02T10:33:07Z</time></trkpt><trkpt lat="40.440024544203375" lon="9.363694100735396"><ele>767.0</ele><time>2026-05-02T10:33:08Z</time></trkpt><trkpt lat="40.43991039171019" lon="9.363603591502551"><ele>767.75</ele><time>2026-05-02T10:33:09Z</time></trkpt><trkpt lat="40.439792732602434" lon="9.363541556581113"><ele>768.5</ele><time>2026-05-02T10:33:10Z</time></trkpt><trkpt lat="40.43968033780239" lon="9.363496122793205"><ele>769.25</ele><time>2026-05-02T10:33:11Z</time></trkpt><trkpt lat="40.43958085182469" lon="9.363443079916367"><ele>770.0</ele><time>2026-05-02T10:33:12Z</time></trkpt><trkpt lat="40.439510708367216" lon="9.363347527475506"><ele>770.0</ele><time>2026-05-02T10:33:13Z</time></trkpt><trkpt lat="40.43948996315808" lon="9.363235115269864"><ele>770.0</ele><time>2026-05-02T10:33:14Z</time></trkpt><trkpt lat="40.43950895326762" lon="9.363123506317951"><ele>770.0</ele><time>2026-05-02T10:33:15Z</time></trkpt><trkpt lat="40.43956921408784" lon="9.363024058333894"><ele>770.0</ele><time>2026-05-02T10:33:16Z</time></trkpt><trkpt lat="40.439655213019435" lon="9.362931025156794"><ele>770.0</ele><time>2026-05-02T10:33:17Z</time></trkpt><trkpt lat="40.43973923389019" lon="9.36281655160398"><ele>768.5</ele><time>2026-05-02T10:33:18Z</time></trkpt><trkpt lat="40.439802196051026" lon="9.362663756109466"><ele>767.0</ele><time>2026-05-02T10:33:19Z</time></trkpt><trkpt lat="40.439840364065795" lon="9.36249419608802"><ele>765.5</ele><time>2026-05-02T10:33:20Z</time></trkpt><trkpt lat="40.43985870295316" lon="9.362293312314934"><ele>764.0</ele><time>2026-05-02T10:33:21Z</time></trkpt><trkpt lat="40.43987507960113" lon="9.36207307956717"><ele>764.0</ele><time>2026-05-02T10:33:22Z</time></trkpt><trkpt lat="40.43987964291669" lon="9.3618578756503"><ele>764.0</ele><time>2026-05-02T10:33:23Z</time></trkpt><trkpt lat="40.43986603211168" lon="9.361614865275959"><ele>764.0</ele><time>2026-05-02T10:33:24Z</time></trkpt><trkpt lat="40.439842127733144" lon="9.361349631869736"><ele>763.0</ele><time>2026-05-02T10:33:25Z</time></trkpt><trkpt lat="40.439816774422496" lon="9.361117142804035"><ele>762.0</ele><time>2026-05-02T10:33:26Z</time></trkpt><trkpt lat="40.43979043193459" lon="9.360913878293966"><ele>761.0</ele><time>2026-05-02T10:33:27Z</time></trkpt><trkpt lat="40.43974860833996" lon="9.360736208738542"><ele>761.0</ele><time>2026-05-02T10:33:28Z</time></trkpt><trkpt lat="40.43968266976807" lon="9.36059571918889"><ele>761.0</ele><time>2026-05-02T10:33:29Z</time></trkpt><trkpt lat="40.43958016651273" lon="9.360488681208608"><ele>761.0</ele><time>2026-05-02T10:33:30Z</time></trkpt><trkpt lat="40.439455776055745" lon="9.360431831676479"><ele>761.0</ele><time>2026-05-02T10:33:31Z</time></trkpt><trkpt lat="40.43932643170817" lon="9.360417534144979"><ele>763.0</ele><time>2026-05-02T10:33:32Z</time></trkpt><trkpt lat="40.43921529202499" lon="9.360379953580429"><ele>765.0</ele><time>2026-05-02T10:33:33Z</time></trkpt><trkpt lat="40.43912902747102" lon="9.36030138262973"><ele>767.0</ele><time>2026-05-02T10:33:34Z</time></trkpt><trkpt lat="40.43908095993555" lon="9.360182579763062"><ele>769.0</ele><time>2026-05-02T10:33:35Z</time></trkpt><trkpt lat="40.43906582047053" lon="9.36003331768523"><ele>771.0</ele><time>2026-05-02T10:33:36Z</time></trkpt><trkpt lat="40.43907510068455" lon="9.359836586775822"><ele>770.25</ele><time>2026-05-02T10:33:37Z</time></trkpt><trkpt lat="40.43907584880647" lon="9.359634281110097"><ele>769.5</ele><time>2026-05-02T10:33:38Z</time></trkpt><trkpt lat="40.43905454319519" lon="9.359452451820633"><ele>768.75</ele><time>2026-05-02T10:33:39Z</time></trkpt><trkpt lat="40.439000822492346" lon="9.359290362850919"><ele>768.0</ele><time>2026-05-02T10:33:40Z</time></trkpt><trkpt lat="40.438918501058616" lon="9.359152891852133"><ele>768.0</ele><time>2026-05-02T10:33:41Z</time></trkpt><trkpt lat="40.43880268761355" lon="9.35904970233633"><ele>768.0</ele><time>2026-05-02T10:33:42Z</time></trkpt><trkpt lat="40.438661511308716" lon="9.358987712571484"><ele>768.0</ele><time>2026-05-02T10:33:43Z</time></trkpt><trkpt lat="40.43849145305071" lon="9.358947816990451"><ele>769.3333333333333</ele><time>2026-05-02T10:33:44Z</time></trkpt><trkpt lat="40.438302592978715" lon="9.35890739740111"><ele>770.6666666666666</ele><time>2026-05-02T10:33:45Z</time></trkpt><trkpt lat="40.43813606716809" lon="9.35886707109061"><ele>772.0</ele><time>2026-05-02T10:33:46Z</time></trkpt><trkpt lat="40.43798091313958" lon="9.358848178475316"><ele>774.6666666666666</ele><time>2026-05-02T10:33:47Z</time></trkpt><trkpt lat="40.43783623453315" lon="9.358867976661795"><ele>777.3333333333333</ele><time>2026-05-02T10:33:48Z</time></trkpt><trkpt lat="40.43769096284334" lon="9.358929040077072"><ele>780.0</ele><time>2026-05-02T10:33:49Z</time></trkpt><trkpt lat="40.437553540792074" lon="9.359034336212586"><ele>780.0</ele><time>2026-05-02T10:33:50Z</time></trkpt><trkpt lat="40.43742935017073" lon="9.359186406329473"><ele>780.0</ele><time>2026-05-02T10:33:51Z</time></trkpt><trkpt lat="40.4373110690949" lon="9.359382796569736"><ele>780.0</ele><time>2026-05-02T10:33:52Z</time></trkpt><trkpt lat="40.43719744602669" lon="9.359586870402547"><ele>779.3333333333333</ele><time>2026-05-02T10:33:53Z</time></trkpt><trkpt lat="40.43708378517429" lon="9.35975882210541"><ele>778.6666666666666</ele><time>2026-05-02T10:33:54Z</time></trkpt><trkpt lat="40.43695778957781" lon="9.359885914464456"><ele>778.0</ele><time>2026-05-02T10:33:55Z</time></trkpt><trkpt lat="40.43682138635818" lon="9.359965410680768"><ele>778.0</ele><time>2026-05-02T10:33:56Z</time></trkpt><trkpt lat="40.43666920462461" lon="9.360000791923476"><ele>778.0</ele><time>2026-05-02T10:33:57Z</time></trkpt><trkpt lat="40.436504913074586" lon="9.360000096310294"><ele>778.0</ele><time>2026-05-02T10:33:58Z</time></trkpt><trkpt lat="40.436320391802305" lon="9.359986292861217"><ele>778.6666666666666</ele><time>2026-05-02T10:33:59Z</time></trkpt><trkpt lat="40.436131261226194" lon="9.359971778243569"><ele>779.3333333333333</ele><time>2026-05-02T10:34:00Z</time></trkpt><trkpt lat="40.435932225492586" lon="9.359966884386537"><ele>780.0</ele><time>2026-05-02T10:34:01Z</time></trkpt><trkpt lat="40.43573603963918" lon="9.359980000102231"><ele>780.0</ele><time>2026-05-02T10:34:02Z</time></trkpt><trkpt lat="40.435523824112934" lon="9.360020172187651"><ele>780.0</ele><time>2026-05-02T10:34:03Z</time></trkpt><trkpt lat="40.435330723452566" lon="9.36005775380542"><ele>780.0</ele><time>2026-05-02T10:34:04Z</time></trkpt><trkpt lat="40.435147684001436" lon="9.360068489620627"><ele>782.0</ele><time>2026-05-02T10:34:05Z</time></trkpt><trkpt lat="40.43498092996637" lon="9.360048421071825"><ele>784.0</ele><time>2026-05-02T10:34:06Z</time></trkpt><trkpt lat="40.434829421163265" lon="9.359999336377012"><ele>786.0</ele><time>2026-05-02T10:34:07Z</time></trkpt><trkpt lat="40.43470203753156" lon="9.359902408119597"><ele>787.25</ele><time>2026-05-02T10:34:08Z</time></trkpt><trkpt lat="40.4345872760207" lon="9.359763487741862"><ele>788.5</ele><time>2026-05-02T10:34:09Z</time></trkpt><trkpt lat="40.43448522144236" lon="9.35964050648859"><ele>789.75</ele><time>2026-05-02T10:34:10Z</time></trkpt><trkpt lat="40.434368248997735" lon="9.35956050419818"><ele>791.0</ele><time>2026-05-02T10:34:11Z</time></trkpt><trkpt lat="40.43422080426333" lon="9.35951915612197"><ele>791.3333333333334</ele><time>2026-05-02T10:34:12Z</time></trkpt><trkpt lat="40.43404352657515" lon="9.359502647967057"><ele>791.6666666666667</ele><time>2026-05-02T10:34:13Z</time></trkpt><trkpt lat="40.433868274158044" lon="9.359494881607485"><ele>792.0</ele><time>2026-05-02T10:34:14Z</time></trkpt><trkpt lat="40.43371273237915" lon="9.359498575034113"><ele>792.5</ele><time>2026-05-02T10:34:15Z</time></trkpt><trkpt lat="40.433568460241226" lon="9.359541104153761"><ele>793.0</ele><time>2026-05-02T10:34:16Z</time></trkpt><trkpt lat="40.43344840510775" lon="9.35963056992407"><ele>793.5</ele><time>2026-05-02T10:34:17Z</time></trkpt><trkpt lat="40.43333483781055" lon="9.359758801924968"><ele>794.0</ele><time>2026-05-02T10:34:18Z</time></trkpt><trkpt lat="40.43322051384363" lon="9.359914327458002"><ele>792.3333333333334</ele><time>2026-05-02T10:34:19Z</time></trkpt><trkpt lat="40.43309681253635" lon="9.360076084269805"><ele>790.6666666666667</ele><time>2026-05-02T10:34:20Z</time></trkpt><trkpt lat="40.43298107788137" lon="9.360199847829534"><ele>789.0</ele><time>2026-05-02T10:34:21Z</time></trkpt><trkpt lat="40.43285651419607" lon="9.360285585932017"><ele>791.5</ele><time>2026-05-02T10:34:22Z</time></trkpt><trkpt lat="40.43272083140015" lon="9.360321849344958"><ele>794.0</ele><time>2026-05-02T10:34:23Z</time></trkpt><trkpt lat="40.43257595347979" lon="9.360303945696154"><ele>796.5</ele><time>2026-05-02T10:34:24Z</time></trkpt><trkpt lat="40.432415559141305" lon="9.36027505214747"><ele>799.0</ele><time>2026-05-02T10:34:25Z</time></trkpt><trkpt lat="40.43224048412292" lon="9.360268063854257"><ele>800.3333333333333</ele><time>2026-05-02T10:34:26Z</time></trkpt><trkpt lat="40.43205488203041" lon="9.360280265862261"><ele>801.6666666666667</ele><time>2026-05-02T10:34:27Z</time></trkpt><trkpt lat="40.43188929988533" lon="9.360302606990809"><ele>803.0</ele><time>2026-05-02T10:34:28Z</time></trkpt><trkpt lat="40.43173405201904" lon="9.360355656653253"><ele>803.0</ele><time>2026-05-02T10:34:29Z</time></trkpt><trkpt lat="40.43158265809847" lon="9.360451811651293"><ele>803.0</ele><time>2026-05-02T10:34:30Z</time></trkpt><trkpt lat="40.431442113897816" lon="9.360588994849342"><ele>803.0</ele><time>2026-05-02T10:34:31Z</time></trkpt><trkpt lat="40.431323853634346" lon="9.36072015208392"><ele>797.75</ele><time>2026-05-02T10:34:32Z</time></trkpt><trkpt lat="40.4312091873711" lon="9.360813529808498"><ele>792.5</ele><time>2026-05-02T10:34:33Z</time></trkpt><trkpt lat="40.43109539182811" lon="9.360854714039736"><ele>787.25</ele><time>2026-05-02T10:34:34Z</time></trkpt><trkpt lat="40.430984643625074" lon="9.360830075829522"><ele>782.0</ele><time>2026-05-02T10:34:35Z</time></trkpt><trkpt lat="40.430884578004" lon="9.360752289523054"><ele>782.0</ele><time>2026-05-02T10:34:36Z</time></trkpt><trkpt lat="40.43079414482684" lon="9.36062218790642"><ele>782.0</ele><time>2026-05-02T10:34:37Z</time></trkpt><trkpt lat="40.430723098270555" lon="9.360474716202482"><ele>782.0</ele><time>2026-05-02T10:34:38Z</time></trkpt><trkpt lat="40.43065284378475" lon="9.360344642965151"><ele>782.0</ele><time>2026-05-02T10:34:39Z</time></trkpt><trkpt lat="40.43054689532486" lon="9.360245910172933"><ele>788.3333333333334</ele><time>2026-05-02T10:34:40Z</time></trkpt><trkpt lat="40.43041347347346" lon="9.36019527224848"><ele>794.6666666666667</ele><time>2026-05-02T10:34:41Z</time></trkpt><trkpt lat="40.430251708255746" lon="9.360154986329416"><ele>801.0</ele><time>2026-05-02T10:34:42Z</time></trkpt><trkpt lat="40.43008649015278" lon="9.360116680024685"><ele>801.0</ele><time>2026-05-02T10:34:43Z</time></trkpt><trkpt lat="40.42993698561781" lon="9.360102603479488"><ele>801.0</ele><time>2026-05-02T10:34:44Z</time></trkpt><trkpt lat="40.42978603788078" lon="9.360132770999721"><ele>801.0</ele><time>2026-05-02T10:34:45Z</time></trkpt><trkpt lat="40.42963335974826" lon="9.36019138747162"><ele>799.75</ele><time>2026-05-02T10:34:46Z</time></trkpt><trkpt lat="40.42949754259319" lon="9.360216959324266"><ele>798.5</ele><time>2026-05-02T10:34:47Z</time></trkpt><trkpt lat="40.429360932918925" lon="9.360188613527422"><ele>797.25</ele><time>2026-05-02T10:34:48Z</time></trkpt><trkpt lat="40.42921685625665" lon="9.360112672089448"><ele>796.0</ele><time>2026-05-02T10:34:49Z</time></trkpt><trkpt lat="40.429061712275555" lon="9.360010972459147"><ele>796.0</ele><time>2026-05-02T10:34:50Z</time></trkpt><trkpt lat="40.42891589599279" lon="9.359895114759555"><ele>796.0</ele><time>2026-05-02T10:34:51Z</time></trkpt><trkpt lat="40.42878926170737" lon="9.359746883102579"><ele>796.0</ele><time>2026-05-02T10:34:52Z</time></trkpt><trkpt lat="40.428683270604125" lon="9.359576375830207"><ele>799.0</ele><time>2026-05-02T10:34:53Z</time></trkpt><trkpt lat="40.428582796423775" lon="9.359427898699934"><ele>802.0</ele><time>2026-05-02T10:34:54Z</time></trkpt><trkpt lat="40.42846568455137" lon="9.359327298813053"><ele>805.0</ele><time>2026-05-02T10:34:55Z</time></trkpt><trkpt lat="40.42834669660346" lon="9.359261952972846"><ele>808.0</ele><time>2026-05-02T10:34:56Z</time></trkpt><trkpt lat="40.428222165622856" lon="9.35924037024791"><ele>808.0</ele><time>2026-05-02T10:34:57Z</time></trkpt><trkpt lat="40.428107259424344" lon="9.359279516558425"><ele>808.0</ele><time>2026-05-02T10:34:58Z</time></trkpt><trkpt lat="40.428014560298706" lon="9.359388736677118"><ele>808.0</ele><time>2026-05-02T10:34:59Z</time></trkpt><trkpt lat="40.427956483616306" lon="9.359541921834985"><ele>808.0</ele><time>2026-05-02T10:35:00Z</time></trkpt><trkpt lat="40.42790140987398" lon="9.359709599567953"><ele>807.5</ele><time>2026-05-02T10:35:01Z</time></trkpt><trkpt lat="40.42781918025713" lon="9.359843765970039"><ele>807.0</ele><time>2026-05-02T10:35:02Z</time></trkpt><trkpt lat="40.42770997181611" lon="9.359955973251235"><ele>806.5</ele><time>2026-05-02T10:35:03Z</time></trkpt><trkpt lat="40.427577694417344" lon="9.360057002485302"><ele>806.0</ele><time>2026-05-02T10:35:04Z</time></trkpt><trkpt lat="40.427440461629416" lon="9.360151397605321"><ele>806.0</ele><time>2026-05-02T10:35:05Z</time></trkpt><trkpt lat="40.42731339365794" lon="9.360242099642559"><ele>806.0</ele><time>2026-05-02T10:35:06Z</time></trkpt><trkpt lat="40.42719828237991" lon="9.360319946853906"><ele>806.0</ele><time>2026-05-02T10:35:07Z</time></trkpt><trkpt lat="40.42708858497866" lon="9.36038181978964"><ele>806.0</ele><time>2026-05-02T10:35:08Z</time></trkpt><trkpt lat="40.4269745221123" lon="9.36042647383654"><ele>807.25</ele><time>2026-05-02T10:35:09Z</time></trkpt><trkpt lat="40.42685238658421" lon="9.360455465629865"><ele>808.5</ele><time>2026-05-02T10:35:10Z</time></trkpt><trkpt lat="40.4267245204882" lon="9.360472933878766"><ele>809.75</ele><time>2026-05-02T10:35:11Z</time></trkpt><trkpt lat="40.42659334033086" lon="9.36048138042184"><ele>811.0</ele><time>2026-05-02T10:35:12Z</time></trkpt><trkpt lat="40.42646211705442" lon="9.360491306384109"><ele>811.0</ele><time>2026-05-02T10:35:13Z</time></trkpt><trkpt lat="40.42633662648619" lon="9.360501567684448"><ele>811.0</ele><time>2026-05-02T10:35:14Z</time></trkpt><trkpt lat="40.42621640714357" lon="9.360503745667431"><ele>811.0</ele><time>2026-05-02T10:35:15Z</time></trkpt><trkpt lat="40.42610450179032" lon="9.360477235496774"><ele>811.0</ele><time>2026-05-02T10:35:16Z</time></trkpt><trkpt lat="40.42600304878782" lon="9.360409893549225"><ele>811.75</ele><time>2026-05-02T10:35:17Z</time></trkpt><trkpt lat="40.425902048824" lon="9.360301245579437"><ele>812.5</ele><time>2026-05-02T10:35:18Z</time></trkpt><trkpt lat="40.425799833503774" lon="9.360209971999115"><ele>813.25</ele><time>2026-05-02T10:35:19Z</time></trkpt><trkpt lat="40.42568632488289" lon="9.360172559021803"><ele>814.0</ele><time>2026-05-02T10:35:20Z</time></trkpt><trkpt lat="40.42557079908228" lon="9.360189471091166"><ele>814.25</ele><time>2026-05-02T10:35:21Z</time></trkpt><trkpt lat="40.42545182196434" lon="9.360233181228757"><ele>814.5</ele><time>2026-05-02T10:35:22Z</time></trkpt><trkpt lat="40.42532775715936" lon="9.36028488984847"><ele>814.75</ele><time>2026-05-02T10:35:23Z</time></trkpt><trkpt lat="40.42520194440661" lon="9.360327581813817"><ele>815.0</ele><time>2026-05-02T10:35:24Z</time></trkpt><trkpt lat="40.425073683761156" lon="9.3603559997634"><ele>815.0</ele><time>2026-05-02T10:35:25Z</time></trkpt><trkpt lat="40.42495324130534" lon="9.360350233602425"><ele>815.0</ele><time>2026-05-02T10:35:26Z</time></trkpt><trkpt lat="40.42483873860446" lon="9.360300418391335"><ele>815.0</ele><time>2026-05-02T10:35:27Z</time></trkpt><trkpt lat="40.42472808656541" lon="9.360195188722255"><ele>815.0</ele><time>2026-05-02T10:35:28Z</time></trkpt><trkpt lat="40.424621397982584" lon="9.360069476994422"><ele>816.25</ele><time>2026-05-02T10:35:29Z</time></trkpt><trkpt lat="40.42451044022559" lon="9.359943366185528"><ele>817.5</ele><time>2026-05-02T10:35:30Z</time></trkpt><trkpt lat="40.42439770925049" lon="9.359816121270189"><ele>818.75</ele><time>2026-05-02T10:35:31Z</time></trkpt><trkpt lat="40.424287043633655" lon="9.3596917286342"><ele>820.0</ele><time>2026-05-02T10:35:32Z</time></trkpt><trkpt lat="40.42418128949477" lon="9.3595667468359"><ele>820.0</ele><time>2026-05-02T10:35:33Z</time></trkpt><trkpt lat="40.42407967586037" lon="9.359450917787166"><ele>820.0</ele><time>2026-05-02T10:35:34Z</time></trkpt><trkpt lat="40.423979134576015" lon="9.359346347197787"><ele>820.0</ele><time>2026-05-02T10:35:35Z</time></trkpt><trkpt lat="40.42386523781662" lon="9.359290393868127"><ele>820.0</ele><time>2026-05-02T10:35:36Z</time></trkpt><trkpt lat="40.42374595339915" lon="9.359277323530389"><ele>819.25</ele><time>2026-05-02T10:35:37Z</time></trkpt><trkpt lat="40.42361997240315" lon="9.359316057395782"><ele>818.5</ele><time>2026-05-02T10:35:38Z</time></trkpt><trkpt lat="40.42347810205751" lon="9.359383277117034"><ele>817.75</ele><time>2026-05-02T10:35:39Z</time></trkpt><trkpt lat="40.423331747185316" lon="9.359447094048475"><ele>817.0</ele><time>2026-05-02T10:35:40Z</time></trkpt><trkpt lat="40.42320182574251" lon="9.359480219843906"><ele>817.0</ele><time>2026-05-02T10:35:41Z</time></trkpt><trkpt lat="40.42307707408612" lon="9.359477485023787"><ele>817.0</ele><time>2026-05-02T10:35:42Z</time></trkpt><trkpt lat="40.42296570248599" lon="9.359424577394586"><ele>817.0</ele><time>2026-05-02T10:35:43Z</time></trkpt><trkpt lat="40.422876480198404" lon="9.359315001354782"><ele>817.0</ele><time>2026-05-02T10:35:44Z</time></trkpt><trkpt lat="40.422801322293964" lon="9.359167301350466"><ele>814.5</ele><time>2026-05-02T10:35:45Z</time></trkpt><trkpt lat="40.42275428588981" lon="9.358997039561723"><ele>812.0</ele><time>2026-05-02T10:35:46Z</time></trkpt><trkpt lat="40.422746195285214" lon="9.358799815058259"><ele>809.5</ele><time>2026-05-02T10:35:47Z</time></trkpt><trkpt lat="40.42274741461025" lon="9.358604082768416"><ele>807.0</ele><time>2026-05-02T10:35:48Z</time></trkpt><trkpt lat="40.422746116812284" lon="9.358429372766173"><ele>807.0</ele><time>2026-05-02T10:35:49Z</time></trkpt><trkpt lat="40.42271459312333" lon="9.358297311698898"><ele>807.0</ele><time>2026-05-02T10:35:50Z</time></trkpt><trkpt lat="40.42264719114636" lon="9.358197079452276"><ele>807.0</ele><time>2026-05-02T10:35:51Z</time></trkpt><trkpt lat="40.42255265159054" lon="9.358132285994696"><ele>807.0</ele><time>2026-05-02T10:35:52Z</time></trkpt><trkpt lat="40.42244749286423" lon="9.358099537517864"><ele>807.0</ele><time>2026-05-02T10:35:53Z</time></trkpt><trkpt lat="40.42234364499332" lon="9.358028774222195"><ele>804.25</ele><time>2026-05-02T10:35:54Z</time></trkpt><trkpt lat="40.42225057920898" lon="9.357908783430485"><ele>801.5</ele><time>2026-05-02T10:35:55Z</time></trkpt><trkpt lat="40.422185470548804" lon="9.357749014953674"><ele>798.75</ele><time>2026-05-02T10:35:56Z</time></trkpt><trkpt lat="40.42214502616467" lon="9.357557909061086"><ele>796.0</ele><time>2026-05-02T10:35:57Z</time></trkpt><trkpt lat="40.42210043355087" lon="9.35735596127193"><ele>802.0</ele><time>2026-05-02T10:35:58Z</time></trkpt><trkpt lat="40.42203333846136" lon="9.357157458596095"><ele>808.0</ele><time>2026-05-02T10:35:59Z</time></trkpt><trkpt lat="40.42196989182436" lon="9.35698738864855"><ele>814.0</ele><time>2026-05-02T10:36:00Z</time></trkpt><trkpt lat="40.42189953515107" lon="9.35686298033036"><ele>820.0</ele><time>2026-05-02T10:36:01Z</time></trkpt><trkpt lat="40.421810136044876" lon="9.35677282549482"><ele>820.0</ele><time>2026-05-02T10:36:02Z</time></trkpt><trkpt lat="40.42169631094241" lon="9.356731190140485"><ele>820.0</ele><time>2026-05-02T10:36:03Z</time></trkpt><trkpt lat="40.42156361388367" lon="9.356744436286663"><ele>820.0</ele><time>2026-05-02T10:36:04Z</time></trkpt><trkpt lat="40.421421726595646" lon="9.35677158051681"><ele>820.0</ele><time>2026-05-02T10:36:05Z</time></trkpt><trkpt lat="40.42126697356742" lon="9.356814248551986"><ele>822.3333333333333</ele><time>2026-05-02T10:36:06Z</time></trkpt><trkpt lat="40.421104750041245" lon="9.356890674141077"><ele>824.6666666666667</ele><time>2026-05-02T10:36:07Z</time></trkpt><trkpt lat="40.42093960584403" lon="9.356989913029654"><ele>827.0</ele><time>2026-05-02T10:36:08Z</time></trkpt><trkpt lat="40.42075840339123" lon="9.357092221707143"><ele>827.0</ele><time>2026-05-02T10:36:09Z</time></trkpt><trkpt lat="40.42059005133487" lon="9.357171769447092"><ele>827.0</ele><time>2026-05-02T10:36:10Z</time></trkpt><trkpt lat="40.42044557657663" lon="9.357241375117939"><ele>827.0</ele><time>2026-05-02T10:36:11Z</time></trkpt><trkpt lat="40.42033205381152" lon="9.357330389208498"><ele>826.0</ele><time>2026-05-02T10:36:12Z</time></trkpt><trkpt lat="40.420232721857815" lon="9.357461249835216"><ele>825.0</ele><time>2026-05-02T10:36:13Z</time></trkpt><trkpt lat="40.42013863344324" lon="9.357631514513226"><ele>824.0</ele><time>2026-05-02T10:36:14Z</time></trkpt><trkpt lat="40.4200341403543" lon="9.357793823984931"><ele>824.0</ele><time>2026-05-02T10:36:15Z</time></trkpt><trkpt lat="40.41990822955302" lon="9.357932568553503"><ele>824.0</ele><time>2026-05-02T10:36:16Z</time></trkpt><trkpt lat="40.41975877346681" lon="9.35804450944933"><ele>824.0</ele><time>2026-05-02T10:36:17Z</time></trkpt><trkpt lat="40.419589961479254" lon="9.358137813687822"><ele>823.3333333333334</ele><time>2026-05-02T10:36:18Z</time></trkpt><trkpt lat="40.41942594649265" lon="9.358245280541631"><ele>822.6666666666667</ele><time>2026-05-02T10:36:19Z</time></trkpt><trkpt lat="40.41928940654911" lon="9.358348846754518"><ele>822.0</ele><time>2026-05-02T10:36:20Z</time></trkpt><trkpt lat="40.41915969141117" lon="9.358434826632774"><ele>822.0</ele><time>2026-05-02T10:36:21Z</time></trkpt><trkpt lat="40.41902726652889" lon="9.358489909885963"><ele>822.0</ele><time>2026-05-02T10:36:22Z</time></trkpt><trkpt lat="40.418884574697564" lon="9.358499938094614"><ele>822.0</ele><time>2026-05-02T10:36:23Z</time></trkpt><trkpt lat="40.41872901647015" lon="9.358488922412434"><ele>822.0</ele><time>2026-05-02T10:36:24Z</time></trkpt><trkpt lat="40.418576601485526" lon="9.358506805460312"><ele>823.5</ele><time>2026-05-02T10:36:25Z</time></trkpt><trkpt lat="40.41843992768308" lon="9.358539125235074"><ele>825.0</ele><time>2026-05-02T10:36:26Z</time></trkpt><trkpt lat="40.41831423192641" lon="9.35859404525877"><ele>826.5</ele><time>2026-05-02T10:36:27Z</time></trkpt><trkpt lat="40.418197845547276" lon="9.358694442005485"><ele>828.0</ele><time>2026-05-02T10:36:28Z</time></trkpt><trkpt lat="40.41809477834208" lon="9.35884147009332"><ele>832.0</ele><time>2026-05-02T10:36:29Z</time></trkpt><trkpt lat="40.41800412478867" lon="9.359006441629022"><ele>836.0</ele><time>2026-05-02T10:36:30Z</time></trkpt><trkpt lat="40.4179428766825" lon="9.359192110533492"><ele>840.0</ele><time>2026-05-02T10:36:31Z</time></trkpt><trkpt lat="40.417907218591125" lon="9.359413193466834"><ele>840.0</ele><time>2026-05-02T10:36:32Z</time></trkpt><trkpt lat="40.4178795617813" lon="9.359625613453074"><ele>840.0</ele><time>2026-05-02T10:36:33Z</time></trkpt><trkpt lat="40.41784178729902" lon="9.359810713054674"><ele>840.0</ele><time>2026-05-02T10:36:34Z</time></trkpt><trkpt lat="40.41778283935015" lon="9.359972633526583"><ele>840.0</ele><time>2026-05-02T10:36:35Z</time></trkpt><trkpt lat="40.41770380994924" lon="9.360117582157443"><ele>836.3333333333333</ele><time>2026-05-02T10:36:36Z</time></trkpt><trkpt lat="40.41764738598342" lon="9.360277304863269"><ele>832.6666666666666</ele><time>2026-05-02T10:36:37Z</time></trkpt><trkpt lat="40.41763221511416" lon="9.360465933807417"><ele>829.0</ele><time>2026-05-02T10:36:38Z</time></trkpt><trkpt lat="40.41763504795759" lon="9.360701286191302"><ele>825.3333333333333</ele><time>2026-05-02T10:36:39Z</time></trkpt><trkpt lat="40.41763636481542" lon="9.360937790510295"><ele>821.6666666666667</ele><time>2026-05-02T10:36:40Z</time></trkpt><trkpt lat="40.4176334088809" lon="9.361154448215187"><ele>818.0</ele><time>2026-05-02T10:36:41Z</time></trkpt><trkpt lat="40.417604604201856" lon="9.36136524173278"><ele>819.0</ele><time>2026-05-02T10:36:42Z</time></trkpt><trkpt lat="40.4175373433711" lon="9.361558123072554"><ele>820.0</ele><time>2026-05-02T10:36:43Z</time></trkpt><trkpt lat="40.41745701150552" lon="9.361751633119857"><ele>821.0</ele><time>2026-05-02T10:36:44Z</time></trkpt><trkpt lat="40.41739764288562" lon="9.361940946039965"><ele>821.0</ele><time>2026-05-02T10:36:45Z</time></trkpt><trkpt lat="40.417372242900534" lon="9.362143206249891"><ele>821.0</ele><time>2026-05-02T10:36:46Z</time></trkpt><trkpt lat="40.41736975248754" lon="9.362359890947815"><ele>821.0</ele><time>2026-05-02T10:36:47Z</time></trkpt><trkpt lat="40.417350784331745" lon="9.362560417616661"><ele>817.0</ele><time>2026-05-02T10:36:48Z</time></trkpt><trkpt lat="40.41729143645572" lon="9.362760502324965"><ele>813.0</ele><time>2026-05-02T10:36:49Z</time></trkpt><trkpt lat="40.41719922202254" lon="9.36296266384889"><ele>809.0</ele><time>2026-05-02T10:36:50Z</time></trkpt><trkpt lat="40.41709630393021" lon="9.363170772493874"><ele>818.0</ele><time>2026-05-02T10:36:51Z</time></trkpt><trkpt lat="40.41699121036188" lon="9.363387243764102"><ele>827.0</ele><time>2026-05-02T10:36:52Z</time></trkpt><trkpt lat="40.41689954154763" lon="9.363594619538192"><ele>836.0</ele><time>2026-05-02T10:36:53Z</time></trkpt><trkpt lat="40.41681152124519" lon="9.36378496578579"><ele>828.6666666666667</ele><time>2026-05-02T10:36:54Z</time></trkpt><trkpt lat="40.41672728241928" lon="9.363964143342"><ele>821.3333333333333</ele><time>2026-05-02T10:36:55Z</time></trkpt><trkpt lat="40.416643439524435" lon="9.364123386883614"><ele>814.0</ele><time>2026-05-02T10:36:56Z</time></trkpt><trkpt lat="40.41654215979776" lon="9.364270593717793"><ele>814.0</ele><time>2026-05-02T10:36:57Z</time></trkpt><trkpt lat="40.41641962493985" lon="9.364396440927628"><ele>814.0</ele><time>2026-05-02T10:36:58Z</time></trkpt><trkpt lat="40.41628420290027" lon="9.364491735928622"><ele>814.0</ele><time>2026-05-02T10:36:59Z</time></trkpt><trkpt lat="40.41613798741402" lon="9.364563471472543"><ele>822.0</ele><time>2026-05-02T10:37:00Z</time></trkpt><trkpt lat="40.41598787633637" lon="9.364611705251763"><ele>830.0</ele><time>2026-05-02T10:37:01Z</time></trkpt><trkpt lat="40.41583276905983" lon="9.364638993947384"><ele>838.0</ele><time>2026-05-02T10:37:02Z</time></trkpt><trkpt lat="40.41566721534814" lon="9.364662231423399"><ele>831.25</ele><time>2026-05-02T10:37:03Z</time></trkpt><trkpt lat="40.415539115290365" lon="9.364706195450598"><ele>824.5</ele><time>2026-05-02T10:37:04Z</time></trkpt><trkpt lat="40.41541770724764" lon="9.364756899605371"><ele>817.75</ele><time>2026-05-02T10:37:05Z</time></trkpt><trkpt lat="40.415297757874136" lon="9.364777636534939"><ele>811.0</ele><time>2026-05-02T10:37:06Z</time></trkpt><trkpt lat="40.415186897153255" lon="9.364762402096988"><ele>810.5</ele><time>2026-05-02T10:37:07Z</time></trkpt><trkpt lat="40.4150819205087" lon="9.364709745946238"><ele>810.0</ele><time>2026-05-02T10:37:08Z</time></trkpt><trkpt lat="40.41499000418969" lon="9.364633716077545"><ele>809.5</ele><time>2026-05-02T10:37:09Z</time></trkpt><trkpt lat="40.41490573093846" lon="9.36453101689902"><ele>809.0</ele><time>2026-05-02T10:37:10Z</time></trkpt><trkpt lat="40.41481537771977" lon="9.36441760625926"><ele>811.75</ele><time>2026-05-02T10:37:11Z</time></trkpt><trkpt lat="40.41472385455933" lon="9.364311728799981"><ele>814.5</ele><time>2026-05-02T10:37:12Z</time></trkpt><trkpt lat="40.41464097149653" lon="9.36420155455906"><ele>817.25</ele><time>2026-05-02T10:37:13Z</time></trkpt><trkpt lat="40.414543317529635" lon="9.364118013995757"><ele>820.0</ele><time>2026-05-02T10:37:14Z</time></trkpt><trkpt lat="40.414434483462294" lon="9.364063810703668"><ele>820.0</ele><time>2026-05-02T10:37:15Z</time></trkpt><trkpt lat="40.414327318476644" lon="9.364025150925896"><ele>820.0</ele><time>2026-05-02T10:37:16Z</time></trkpt><trkpt lat="40.41422649142365" lon="9.363966061319472"><ele>820.0</ele><time>2026-05-02T10:37:17Z</time></trkpt><trkpt lat="40.41414714664925" lon="9.363864892022873"><ele>820.0</ele><time>2026-05-02T10:37:18Z</time></trkpt><trkpt lat="40.414083689185084" lon="9.363724634764587"><ele>824.0</ele><time>2026-05-02T10:37:19Z</time></trkpt><trkpt lat="40.41404720763315" lon="9.363565217773488"><ele>828.0</ele><time>2026-05-02T10:37:20Z</time></trkpt><trkpt lat="40.414043656111076" lon="9.36339015293812"><ele>832.0</ele><time>2026-05-02T10:37:21Z</time></trkpt><trkpt lat="40.41405810151199" lon="9.363199743570597"><ele>836.0</ele><time>2026-05-02T10:37:22Z</time></trkpt><trkpt lat="40.41407553201832" lon="9.363011335283884"><ele>837.5999999999999</ele><time>2026-05-02T10:37:23Z</time></trkpt><trkpt lat="40.41408076847159" lon="9.362853282802721"><ele>839.2</ele><time>2026-05-02T10:37:24Z</time></trkpt><trkpt lat="40.41405919558426" lon="9.3627214812216"><ele>840.8</ele><time>2026-05-02T10:37:25Z</time></trkpt><trkpt lat="40.414009997157756" lon="9.36261804630515"><ele>842.4000000000001</ele><time>2026-05-02T10:37:26Z</time></trkpt><trkpt lat="40.41392368795108" lon="9.362557087233437"><ele>844.0</ele><time>2026-05-02T10:37:27Z</time></trkpt><trkpt lat="40.41381592567425" lon="9.362544429930345"><ele>844.0</ele><time>2026-05-02T10:37:28Z</time></trkpt><trkpt lat="40.413685590813365" lon="9.362568742064044"><ele>844.0</ele><time>2026-05-02T10:37:29Z</time></trkpt><trkpt lat="40.41354836418956" lon="9.36260144869449"><ele>844.0</ele><time>2026-05-02T10:37:30Z</time></trkpt><trkpt lat="40.413415615731076" lon="9.362621505250916"><ele>844.0</ele><time>2026-05-02T10:37:31Z</time></trkpt><trkpt lat="40.413292520420086" lon="9.362602956421814"><ele>844.0</ele><time>2026-05-02T10:37:32Z</time></trkpt><trkpt lat="40.4131847439553" lon="9.362531059020451"><ele>844.0</ele><time>2026-05-02T10:37:33Z</time></trkpt><trkpt lat="40.41310427855315" lon="9.362423316584078"><ele>844.0</ele><time>2026-05-02T10:37:34Z</time></trkpt><trkpt lat="40.41303460177552" lon="9.362274915453876"><ele>844.0</ele><time>2026-05-02T10:37:35Z</time></trkpt><trkpt lat="40.41296357213091" lon="9.362101807775435"><ele>840.6666666666666</ele><time>2026-05-02T10:37:36Z</time></trkpt><trkpt lat="40.412893903895856" lon="9.361925485980878"><ele>837.3333333333333</ele><time>2026-05-02T10:37:37Z</time></trkpt><trkpt lat="40.41282764768536" lon="9.361735035963498"><ele>834.0</ele><time>2026-05-02T10:37:38Z</time></trkpt><trkpt lat="40.41278318201292" lon="9.361533201842839"><ele>835.0</ele><time>2026-05-02T10:37:39Z</time></trkpt><trkpt lat="40.41276576805591" lon="9.361335683831829"><ele>836.0</ele><time>2026-05-02T10:37:40Z</time></trkpt><trkpt lat="40.41277475140366" lon="9.361139202802855"><ele>837.0</ele><time>2026-05-02T10:37:41Z</time></trkpt><trkpt lat="40.412814440162805" lon="9.360941756465115"><ele>837.0</ele><time>2026-05-02T10:37:42Z</time></trkpt><trkpt lat="40.41287642778758" lon="9.360741266606952"><ele>837.0</ele><time>2026-05-02T10:37:43Z</time></trkpt><trkpt lat="40.41295555417951" lon="9.36056156486068"><ele>837.0</ele><time>2026-05-02T10:37:44Z</time></trkpt><trkpt lat="40.41306046831968" lon="9.360403512837898"><ele>842.6666666666667</ele><time>2026-05-02T10:37:45Z</time></trkpt><trkpt lat="40.41318721911686" lon="9.360269543600461"><ele>848.3333333333334</ele><time>2026-05-02T10:37:46Z</time></trkpt><trkpt lat="40.4133125654702" lon="9.360134103091674"><ele>854.0</ele><time>2026-05-02T10:37:47Z</time></trkpt><trkpt lat="40.413408126078636" lon="9.359987060813378"><ele>854.0</ele><time>2026-05-02T10:37:48Z</time></trkpt><trkpt lat="40.41347968091871" lon="9.359812019583819"><ele>854.0</ele><time>2026-05-02T10:37:49Z</time></trkpt><trkpt lat="40.41352941864869" lon="9.359608815150498"><ele>854.0</ele><time>2026-05-02T10:37:50Z</time></trkpt><trkpt lat="40.41356139375772" lon="9.35938927144116"><ele>854.3333333333334</ele><time>2026-05-02T10:37:51Z</time></trkpt><trkpt lat="40.413591264521564" lon="9.35916652887678"><ele>854.6666666666667</ele><time>2026-05-02T10:37:52Z</time></trkpt><trkpt lat="40.41361793987642" lon="9.358947443361561"><ele>855.0</ele><time>2026-05-02T10:37:53Z</time></trkpt><trkpt lat="40.41365141747888" lon="9.3587247880944"><ele>855.0</ele><time>2026-05-02T10:37:54Z</time></trkpt><trkpt lat="40.41368650119176" lon="9.358497820742729"><ele>855.0</ele><time>2026-05-02T10:37:55Z</time></trkpt><trkpt lat="40.41369816283168" lon="9.358269561381894"><ele>855.0</ele><time>2026-05-02T10:37:56Z</time></trkpt><trkpt lat="40.41369157038198" lon="9.358056099221603"><ele>857.0</ele><time>2026-05-02T10:37:57Z</time></trkpt><trkpt lat="40.413646414250444" lon="9.357853973245598"><ele>859.0</ele><time>2026-05-02T10:37:58Z</time></trkpt><trkpt lat="40.41358789725674" lon="9.357637873030365"><ele>861.0</ele><time>2026-05-02T10:37:59Z</time></trkpt><trkpt lat="40.4135215569163" lon="9.357438294474592"><ele>861.0</ele><time>2026-05-02T10:38:00Z</time></trkpt><trkpt lat="40.41343711697919" lon="9.357251020926444"><ele>861.0</ele><time>2026-05-02T10:38:01Z</time></trkpt><trkpt lat="40.41332588720255" lon="9.357086461281643"><ele>861.0</ele><time>2026-05-02T10:38:02Z</time></trkpt><trkpt lat="40.41319136168344" lon="9.356940344907677"><ele>861.6666666666667</ele><time>2026-05-02T10:38:03Z</time></trkpt><trkpt lat="40.41304473387144" lon="9.356808015947042"><ele>862.3333333333334</ele><time>2026-05-02T10:38:04Z</time></trkpt><trkpt lat="40.41289517659186" lon="9.356673707129636"><ele>863.0</ele><time>2026-05-02T10:38:05Z</time></trkpt><trkpt lat="40.41274585880678" lon="9.356532648665539"><ele>863.0</ele><time>2026-05-02T10:38:06Z</time></trkpt><trkpt lat="40.41259484661833" lon="9.356391358155593"><ele>863.0</ele><time>2026-05-02T10:38:07Z</time></trkpt><trkpt lat="40.41244239032119" lon="9.356253243418735"><ele>863.0</ele><time>2026-05-02T10:38:08Z</time></trkpt><trkpt lat="40.412289261510956" lon="9.356115129330924"><ele>863.6666666666667</ele><time>2026-05-02T10:38:09Z</time></trkpt><trkpt lat="40.41213880961376" lon="9.355975758375932"><ele>864.3333333333333</ele><time>2026-05-02T10:38:10Z</time></trkpt><trkpt lat="40.41199513672072" lon="9.355840577160683"><ele>865.0</ele><time>2026-05-02T10:38:11Z</time></trkpt><trkpt lat="40.4118578384675" lon="9.355717276082537"><ele>865.0</ele><time>2026-05-02T10:38:12Z</time></trkpt><trkpt lat="40.41172470761897" lon="9.355601959507494"><ele>865.0</ele><time>2026-05-02T10:38:13Z</time></trkpt><trkpt lat="40.41160275953744" lon="9.35548556771626"><ele>865.0</ele><time>2026-05-02T10:38:14Z</time></trkpt><trkpt lat="40.41150518952573" lon="9.355360766183674"><ele>865.0</ele><time>2026-05-02T10:38:15Z</time></trkpt><trkpt lat="40.41143641802352" lon="9.355219508135184"><ele>865.5</ele><time>2026-05-02T10:38:16Z</time></trkpt><trkpt lat="40.41139323568588" lon="9.355060208435447"><ele>866.0</ele><time>2026-05-02T10:38:17Z</time></trkpt><trkpt lat="40.41137064994572" lon="9.354888044274324"><ele>866.5</ele><time>2026-05-02T10:38:18Z</time></trkpt><trkpt lat="40.41136481875166" lon="9.354709341286446"><ele>867.0</ele><time>2026-05-02T10:38:19Z</time></trkpt><trkpt lat="40.411347065842115" lon="9.354541080447035"><ele>867.25</ele><time>2026-05-02T10:38:20Z</time></trkpt><trkpt lat="40.411332403218964" lon="9.354379107113378"><ele>867.5</ele><time>2026-05-02T10:38:21Z</time></trkpt><trkpt lat="40.41131892852919" lon="9.35421575120004"><ele>867.75</ele><time>2026-05-02T10:38:22Z</time></trkpt><trkpt lat="40.411300798985415" lon="9.35404979772174"><ele>868.0</ele><time>2026-05-02T10:38:23Z</time></trkpt><trkpt lat="40.41128188396914" lon="9.353887258867651"><ele>867.8</ele><time>2026-05-02T10:38:24Z</time></trkpt><trkpt lat="40.41126781460787" lon="9.353730523511599"><ele>867.5999999999999</ele><time>2026-05-02T10:38:25Z</time></trkpt><trkpt lat="40.411258085168654" lon="9.353593525381598"><ele>867.4000000000001</ele><time>2026-05-02T10:38:26Z</time></trkpt><trkpt lat="40.41124921890336" lon="9.353488701258781"><ele>867.2</ele><time>2026-05-02T10:38:27Z</time></trkpt><trkpt lat="40.41120301995716" lon="9.353369092607418"><ele>867.0</ele><time>2026-05-02T10:38:29Z</time></trkpt><trkpt lat="40.41111883401156" lon="9.353376093777797"><ele>867.0</ele><time>2026-05-02T10:38:31Z</time></trkpt><trkpt lat="40.411037776755116" lon="9.353495428671815"><ele>867.0</ele><time>2026-05-02T10:38:33Z</time></trkpt><trkpt lat="40.4109842678216" lon="9.353572354870934"><ele>867.0</ele><time>2026-05-02T10:38:34Z</time></trkpt><trkpt lat="40.41091487987556" lon="9.353654459234827"><ele>867.0</ele><time>2026-05-02T10:38:35Z</time></trkpt><trkpt lat="40.410840081039204" lon="9.353729392403242"><ele>867.0</ele><time>2026-05-02T10:38:36Z</time></trkpt><trkpt lat="40.41076410943266" lon="9.353811042371456"><ele>867.2</ele><time>2026-05-02T10:38:37Z</time></trkpt><trkpt lat="40.410688091370055" lon="9.353916323019435"><ele>867.4000000000001</ele><time>2026-05-02T10:38:38Z</time></trkpt><trkpt lat="40.41063038583948" lon="9.354037605494943"><ele>867.5999999999999</ele><time>2026-05-02T10:38:39Z</time></trkpt><trkpt lat="40.410597952263814" lon="9.354169850268315"><ele>867.8</ele><time>2026-05-02T10:38:40Z</time></trkpt><trkpt lat="40.41059662138222" lon="9.3543132891643"><ele>868.0</ele><time>2026-05-02T10:38:41Z</time></trkpt><trkpt lat="40.41061869234143" lon="9.354461008935742"><ele>868.0</ele><time>2026-05-02T10:38:42Z</time></trkpt><trkpt lat="40.410656212467764" lon="9.354608795755615"><ele>868.0</ele><time>2026-05-02T10:38:43Z</time></trkpt><trkpt lat="40.41070301693033" lon="9.35475643426084"><ele>868.0</ele><time>2026-05-02T10:38:44Z</time></trkpt><trkpt lat="40.410747788461755" lon="9.354891439414194"><ele>868.0</ele><time>2026-05-02T10:38:45Z</time></trkpt><trkpt lat="40.41078084123803" lon="9.355032480498457"><ele>867.75</ele><time>2026-05-02T10:38:46Z</time></trkpt><trkpt lat="40.410813062696676" lon="9.355177998171886"><ele>867.5</ele><time>2026-05-02T10:38:47Z</time></trkpt><trkpt lat="40.410853646545576" lon="9.355328842578093"><ele>867.25</ele><time>2026-05-02T10:38:48Z</time></trkpt><trkpt lat="40.410899961316396" lon="9.355482800861344"><ele>867.0</ele><time>2026-05-02T10:38:49Z</time></trkpt><trkpt lat="40.410948363138324" lon="9.355642381198845"><ele>866.25</ele><time>2026-05-02T10:38:50Z</time></trkpt><trkpt lat="40.41099668275215" lon="9.355806344265668"><ele>865.5</ele><time>2026-05-02T10:38:51Z</time></trkpt><trkpt lat="40.41104995168041" lon="9.355971982918359"><ele>864.75</ele><time>2026-05-02T10:38:52Z</time></trkpt><trkpt lat="40.41110164887123" lon="9.356142415549844"><ele>864.0</ele><time>2026-05-02T10:38:53Z</time></trkpt><trkpt lat="40.41115172159322" lon="9.356310999262844"><ele>863.75</ele><time>2026-05-02T10:38:54Z</time></trkpt><trkpt lat="40.41120349502673" lon="9.356478441989713"><ele>863.5</ele><time>2026-05-02T10:38:55Z</time></trkpt><trkpt lat="40.41125551391486" lon="9.356646184693776"><ele>863.25</ele><time>2026-05-02T10:38:56Z</time></trkpt><trkpt lat="40.41130871812662" lon="9.356814236812685"><ele>863.0</ele><time>2026-05-02T10:38:57Z</time></trkpt><trkpt lat="40.411367330106664" lon="9.3569855714169"><ele>863.0</ele><time>2026-05-02T10:38:58Z</time></trkpt><trkpt lat="40.41143091651792" lon="9.357160764287098"><ele>863.0</ele><time>2026-05-02T10:38:59Z</time></trkpt><trkpt lat="40.411495216598226" lon="9.357330846298344"><ele>863.0</ele><time>2026-05-02T10:39:00Z</time></trkpt><trkpt lat="40.41155480062115" lon="9.35749947772105"><ele>863.0</ele><time>2026-05-02T10:39:01Z</time></trkpt><trkpt lat="40.411612925261196" lon="9.35766583015968"><ele>862.0</ele><time>2026-05-02T10:39:02Z</time></trkpt><trkpt lat="40.41166798659173" lon="9.357829996236868"><ele>861.0</ele><time>2026-05-02T10:39:03Z</time></trkpt><trkpt lat="40.411724571407895" lon="9.357991001083983"><ele>860.0</ele><time>2026-05-02T10:39:04Z</time></trkpt><trkpt lat="40.411779851973094" lon="9.358143904646546"><ele>859.0</ele><time>2026-05-02T10:39:05Z</time></trkpt><trkpt lat="40.411831636752666" lon="9.358289833323012"><ele>857.5</ele><time>2026-05-02T10:39:06Z</time></trkpt><trkpt lat="40.4118654586614" lon="9.35843643557766"><ele>856.0</ele><time>2026-05-02T10:39:07Z</time></trkpt><trkpt lat="40.41187759633637" lon="9.358585311352899"><ele>854.5</ele><time>2026-05-02T10:39:08Z</time></trkpt><trkpt lat="40.41187955297934" lon="9.358739445108334"><ele>853.0</ele><time>2026-05-02T10:39:09Z</time></trkpt><trkpt lat="40.411865641010706" lon="9.35889188326942"><ele>850.75</ele><time>2026-05-02T10:39:10Z</time></trkpt><trkpt lat="40.411845457949845" lon="9.359047754349653"><ele>848.5</ele><time>2026-05-02T10:39:11Z</time></trkpt><trkpt lat="40.41183338253474" lon="9.359209667291587"><ele>846.25</ele><time>2026-05-02T10:39:12Z</time></trkpt><trkpt lat="40.411831960438796" lon="9.359371343924426"><ele>844.0</ele><time>2026-05-02T10:39:13Z</time></trkpt><trkpt lat="40.41184678588022" lon="9.359529602286335"><ele>844.0</ele><time>2026-05-02T10:39:14Z</time></trkpt><trkpt lat="40.41187054467336" lon="9.359691938918097"><ele>844.0</ele><time>2026-05-02T10:39:15Z</time></trkpt><trkpt lat="40.411896937913916" lon="9.35985596658436"><ele>844.0</ele><time>2026-05-02T10:39:16Z</time></trkpt><trkpt lat="40.411922933632724" lon="9.360024846028955"><ele>844.0</ele><time>2026-05-02T10:39:17Z</time></trkpt><trkpt lat="40.41195067215289" lon="9.360196863278617"><ele>841.75</ele><time>2026-05-02T10:39:18Z</time></trkpt><trkpt lat="40.41197569559463" lon="9.360375280768222"><ele>839.5</ele><time>2026-05-02T10:39:19Z</time></trkpt><trkpt lat="40.41200112861946" lon="9.360555843913524"><ele>837.25</ele><time>2026-05-02T10:39:20Z</time></trkpt><trkpt lat="40.41202833247962" lon="9.360739205099627"><ele>835.0</ele><time>2026-05-02T10:39:21Z</time></trkpt><trkpt lat="40.41205898478442" lon="9.360921585324153"><ele>834.75</ele><time>2026-05-02T10:39:22Z</time></trkpt><trkpt lat="40.412089715985594" lon="9.361104224733152"><ele>834.5</ele><time>2026-05-02T10:39:23Z</time></trkpt><trkpt lat="40.41211993205163" lon="9.36128804150045"><ele>834.25</ele><time>2026-05-02T10:39:24Z</time></trkpt><trkpt lat="40.4121554646867" lon="9.361471043128406"><ele>834.0</ele><time>2026-05-02T10:39:25Z</time></trkpt><trkpt lat="40.41219488960761" lon="9.361652254459187"><ele>834.0</ele><time>2026-05-02T10:39:26Z</time></trkpt><trkpt lat="40.412235738357154" lon="9.361830286670532"><ele>834.0</ele><time>2026-05-02T10:39:27Z</time></trkpt><trkpt lat="40.412277642794514" lon="9.362006771082125"><ele>834.0</ele><time>2026-05-02T10:39:28Z</time></trkpt><trkpt lat="40.41231867707415" lon="9.362178634942683"><ele>834.0</ele><time>2026-05-02T10:39:29Z</time></trkpt><trkpt lat="40.41236015269077" lon="9.362348323988572"><ele>831.0</ele><time>2026-05-02T10:39:30Z</time></trkpt><trkpt lat="40.4124005592556" lon="9.362514958252715"><ele>828.0</ele><time>2026-05-02T10:39:31Z</time></trkpt><trkpt lat="40.41243545720705" lon="9.362673316503676"><ele>825.0</ele><time>2026-05-02T10:39:32Z</time></trkpt><trkpt lat="40.41246861735831" lon="9.362823312896477"><ele>822.0</ele><time>2026-05-02T10:39:33Z</time></trkpt><trkpt lat="40.41249888211683" lon="9.36295649999567"><ele>819.6</ele><time>2026-05-02T10:39:34Z</time></trkpt><trkpt lat="40.412524508157155" lon="9.363083913610906"><ele>817.2</ele><time>2026-05-02T10:39:35Z</time></trkpt><trkpt lat="40.41253623359625" lon="9.36320848355834"><ele>814.8</ele><time>2026-05-02T10:39:36Z</time></trkpt><trkpt lat="40.41253424414097" lon="9.36333876536116"><ele>812.4</ele><time>2026-05-02T10:39:37Z</time></trkpt><trkpt lat="40.412518368533156" lon="9.363473283783257"><ele>810.0</ele><time>2026-05-02T10:39:38Z</time></trkpt><trkpt lat="40.41249935238408" lon="9.36361108005853"><ele>810.0</ele><time>2026-05-02T10:39:39Z</time></trkpt><trkpt lat="40.41248273436799" lon="9.363746732123028"><ele>810.0</ele><time>2026-05-02T10:39:40Z</time></trkpt><trkpt lat="40.412468231315025" lon="9.363884411205033"><ele>810.0</ele><time>2026-05-02T10:39:41Z</time></trkpt><trkpt lat="40.412455607354346" lon="9.364031202749937"><ele>810.0</ele><time>2026-05-02T10:39:42Z</time></trkpt><trkpt lat="40.41244539747447" lon="9.36417606458045"><ele>810.0</ele><time>2026-05-02T10:39:43Z</time></trkpt><trkpt lat="40.41243259025667" lon="9.364317378374242"><ele>807.0</ele><time>2026-05-02T10:39:44Z</time></trkpt><trkpt lat="40.4124123735128" lon="9.36445432421973"><ele>804.0</ele><time>2026-05-02T10:39:45Z</time></trkpt><trkpt lat="40.41237482867443" lon="9.364562102914153"><ele>801.0</ele><time>2026-05-02T10:39:46Z</time></trkpt><trkpt lat="40.412311734199385" lon="9.36464654201927"><ele>798.0</ele><time>2026-05-02T10:39:47Z</time></trkpt><trkpt lat="40.41222898988184" lon="9.364679617303057"><ele>795.0</ele><time>2026-05-02T10:39:48Z</time></trkpt><trkpt lat="40.412144005280254" lon="9.364665395415612"><ele>794.4</ele><time>2026-05-02T10:39:49Z</time></trkpt><trkpt lat="40.41205159705822" lon="9.364623583308457"><ele>793.8</ele><time>2026-05-02T10:39:50Z</time></trkpt><trkpt lat="40.41195341129338" lon="9.364559539772054"><ele>793.2</ele><time>2026-05-02T10:39:51Z</time></trkpt><trkpt lat="40.41185368098119" lon="9.36448644121231"><ele>792.6</ele><time>2026-05-02T10:39:52Z</time></trkpt><trkpt lat="40.41176713042649" lon="9.364401351881623"><ele>792.0</ele><time>2026-05-02T10:39:53Z</time></trkpt><trkpt lat="40.41169609868491" lon="9.364302267497374"><ele>792.0</ele><time>2026-05-02T10:39:54Z</time></trkpt><trkpt lat="40.41163251656552" lon="9.364202080638096"><ele>792.0</ele><time>2026-05-02T10:39:55Z</time></trkpt><trkpt lat="40.41157134006141" lon="9.364110880574248"><ele>792.0</ele><time>2026-05-02T10:39:56Z</time></trkpt><trkpt lat="40.41150234457718" lon="9.364061955481363"><ele>792.0</ele><time>2026-05-02T10:39:57Z</time></trkpt><trkpt lat="40.411438562765625" lon="9.36405972721934"><ele>792.0</ele><time>2026-05-02T10:39:58Z</time></trkpt><trkpt lat="40.41138352799657" lon="9.364107298102624"><ele>792.0</ele><time>2026-05-02T10:39:59Z</time></trkpt><trkpt lat="40.41136046484178" lon="9.364188314972125"><ele>792.0</ele><time>2026-05-02T10:40:00Z</time></trkpt><trkpt lat="40.411376853000846" lon="9.364270277688188"><ele>792.0</ele><time>2026-05-02T10:40:01Z</time></trkpt><trkpt lat="40.411423640010256" lon="9.364344538906678"><ele>792.0</ele><time>2026-05-02T10:40:02Z</time></trkpt><trkpt lat="40.41149138287986" lon="9.364430107571543"><ele>792.0</ele><time>2026-05-02T10:40:03Z</time></trkpt><trkpt lat="40.41157270445713" lon="9.364530817419848"><ele>792.0</ele><time>2026-05-02T10:40:04Z</time></trkpt><trkpt lat="40.41166623242387" lon="9.364632769995653"><ele>786.75</ele><time>2026-05-02T10:40:05Z</time></trkpt><trkpt lat="40.41176736527516" lon="9.364718214244625"><ele>781.5</ele><time>2026-05-02T10:40:06Z</time></trkpt><trkpt lat="40.411878347800155" lon="9.364803994831808"><ele>776.25</ele><time>2026-05-02T10:40:07Z</time></trkpt><trkpt lat="40.41198302460208" lon="9.364886899641677"><ele>771.0</ele><time>2026-05-02T10:40:08Z</time></trkpt><trkpt lat="40.41208214175248" lon="9.364974608048588"><ele>774.0</ele><time>2026-05-02T10:40:09Z</time></trkpt><trkpt lat="40.41216971731262" lon="9.365075681388738"><ele>777.0</ele><time>2026-05-02T10:40:10Z</time></trkpt><trkpt lat="40.41223274941768" lon="9.365196727309042"><ele>780.0</ele><time>2026-05-02T10:40:11Z</time></trkpt><trkpt lat="40.41228013475039" lon="9.365332198542497"><ele>783.0</ele><time>2026-05-02T10:40:12Z</time></trkpt><trkpt lat="40.412329567909204" lon="9.365462863885645"><ele>780.0</ele><time>2026-05-02T10:40:13Z</time></trkpt><trkpt lat="40.4123892486026" lon="9.365583982363093"><ele>777.0</ele><time>2026-05-02T10:40:14Z</time></trkpt><trkpt lat="40.41246644618387" lon="9.36570415695281"><ele>774.0</ele><time>2026-05-02T10:40:15Z</time></trkpt><trkpt lat="40.412558726774336" lon="9.365819377832127"><ele>771.0</ele><time>2026-05-02T10:40:16Z</time></trkpt><trkpt lat="40.412655699027034" lon="9.365916712085653"><ele>771.0</ele><time>2026-05-02T10:40:17Z</time></trkpt><trkpt lat="40.412753323003216" lon="9.366009958902216"><ele>771.0</ele><time>2026-05-02T10:40:18Z</time></trkpt><trkpt lat="40.41284977827712" lon="9.366071099528394"><ele>771.0</ele><time>2026-05-02T10:40:19Z</time></trkpt><trkpt lat="40.41295402304164" lon="9.366092680827123"><ele>771.0</ele><time>2026-05-02T10:40:20Z</time></trkpt><trkpt lat="40.41305978253486" lon="9.366077342266195"><ele>771.0</ele><time>2026-05-02T10:40:21Z</time></trkpt><trkpt lat="40.41315967751553" lon="9.366054264464028"><ele>770.4</ele><time>2026-05-02T10:40:22Z</time></trkpt><trkpt lat="40.41325802698256" lon="9.366027986569078"><ele>769.8</ele><time>2026-05-02T10:40:23Z</time></trkpt><trkpt lat="40.413345195205245" lon="9.36599917289529"><ele>769.1999999999999</ele><time>2026-05-02T10:40:24Z</time></trkpt><trkpt lat="40.413418998074974" lon="9.365979036982086"><ele>768.5999999999999</ele><time>2026-05-02T10:40:25Z</time></trkpt><trkpt lat="40.41351674975122" lon="9.366027033711402"><ele>768.0</ele><time>2026-05-02T10:40:27Z</time></trkpt><trkpt lat="40.41351383167499" lon="9.366161625655238"><ele>768.0</ele><time>2026-05-02T10:40:29Z</time></trkpt><trkpt lat="40.413413473635536" lon="9.366240562999758"><ele>768.0</ele><time>2026-05-02T10:40:31Z</time></trkpt><trkpt lat="40.41334252671385" lon="9.366272802244254"><ele>768.0</ele><time>2026-05-02T10:40:32Z</time></trkpt><trkpt lat="40.413261145929724" lon="9.366314264025828"><ele>768.0</ele><time>2026-05-02T10:40:33Z</time></trkpt><trkpt lat="40.41317396523576" lon="9.366363378838168"><ele>768.0</ele><time>2026-05-02T10:40:34Z</time></trkpt><trkpt lat="40.41309676576363" lon="9.366411799417973"><ele>766.0</ele><time>2026-05-02T10:40:35Z</time></trkpt><trkpt lat="40.41302558285715" lon="9.366459864049027"><ele>764.0</ele><time>2026-05-02T10:40:36Z</time></trkpt><trkpt lat="40.41293182368269" lon="9.366529754806121"><ele>762.0</ele><time>2026-05-02T10:40:38Z</time></trkpt><trkpt lat="40.412842516914495" lon="9.366519499915023"><ele>760.0</ele><time>2026-05-02T10:40:40Z</time></trkpt><trkpt lat="40.41278137263682" lon="9.366480233878589"><ele>758.0</ele><time>2026-05-02T10:40:41Z</time></trkpt><trkpt lat="40.41270531690713" lon="9.366431152829456"><ele>756.0</ele><time>2026-05-02T10:40:42Z</time></trkpt><trkpt lat="40.41262249170754" lon="9.366373880679399"><ele>759.0</ele><time>2026-05-02T10:40:43Z</time></trkpt><trkpt lat="40.4125464314128" lon="9.366321756395187"><ele>762.0</ele><time>2026-05-02T10:40:44Z</time></trkpt><trkpt lat="40.412462955614764" lon="9.366265237972884"><ele>765.0</ele><time>2026-05-02T10:40:45Z</time></trkpt><trkpt lat="40.41238001162643" lon="9.366207097046933"><ele>768.0</ele><time>2026-05-02T10:40:46Z</time></trkpt><trkpt lat="40.41230023586438" lon="9.366141210030655"><ele>771.0</ele><time>2026-05-02T10:40:47Z</time></trkpt><trkpt lat="40.41221913421624" lon="9.366058131556766"><ele>766.1999999999999</ele><time>2026-05-02T10:40:48Z</time></trkpt><trkpt lat="40.41213828670947" lon="9.365965133538158"><ele>761.4</ele><time>2026-05-02T10:40:49Z</time></trkpt><trkpt lat="40.412056678938306" lon="9.365864280376496"><ele>756.6</ele><time>2026-05-02T10:40:50Z</time></trkpt><trkpt lat="40.41198164761768" lon="9.365765442770696"><ele>751.8</ele><time>2026-05-02T10:40:51Z</time></trkpt><trkpt lat="40.411903858582306" lon="9.365662525419845"><ele>747.0</ele><time>2026-05-02T10:40:52Z</time></trkpt><trkpt lat="40.41181619718491" lon="9.365570706310235"><ele>753.0</ele><time>2026-05-02T10:40:53Z</time></trkpt><trkpt lat="40.41171003955588" lon="9.36549091032718"><ele>759.0</ele><time>2026-05-02T10:40:54Z</time></trkpt><trkpt lat="40.41158936038985" lon="9.365427499722239"><ele>765.0</ele><time>2026-05-02T10:40:55Z</time></trkpt><trkpt lat="40.41147317919075" lon="9.365367633510894"><ele>771.0</ele><time>2026-05-02T10:40:56Z</time></trkpt><trkpt lat="40.41136054080762" lon="9.36531108044173"><ele>763.75</ele><time>2026-05-02T10:40:57Z</time></trkpt><trkpt lat="40.4112523430894" lon="9.365254468463739"><ele>756.5</ele><time>2026-05-02T10:40:58Z</time></trkpt><trkpt lat="40.41114944218127" lon="9.365186467062163"><ele>749.25</ele><time>2026-05-02T10:40:59Z</time></trkpt><trkpt lat="40.41105465803154" lon="9.36510481903843"><ele>742.0</ele><time>2026-05-02T10:41:00Z</time></trkpt><trkpt lat="40.41096181199463" lon="9.365009845100282"><ele>742.0</ele><time>2026-05-02T10:41:01Z</time></trkpt><trkpt lat="40.41086578080617" lon="9.3648969144044"><ele>742.0</ele><time>2026-05-02T10:41:02Z</time></trkpt><trkpt lat="40.41077438455506" lon="9.364782033821479"><ele>742.0</ele><time>2026-05-02T10:41:03Z</time></trkpt><trkpt lat="40.41068573791444" lon="9.36464695403139"><ele>742.0</ele><time>2026-05-02T10:41:04Z</time></trkpt><trkpt lat="40.41060730984799" lon="9.364505668595594"><ele>737.5</ele><time>2026-05-02T10:41:05Z</time></trkpt><trkpt lat="40.410535026313944" lon="9.36435942192464"><ele>733.0</ele><time>2026-05-02T10:41:06Z</time></trkpt><trkpt lat="40.41046814822441" lon="9.364215122533677"><ele>728.5</ele><time>2026-05-02T10:41:07Z</time></trkpt><trkpt lat="40.41040131150723" lon="9.36407276194751"><ele>724.0</ele><time>2026-05-02T10:41:08Z</time></trkpt><trkpt lat="40.41032764463319" lon="9.363938103754872"><ele>731.25</ele><time>2026-05-02T10:41:09Z</time></trkpt><trkpt lat="40.41023802403792" lon="9.36382092400866"><ele>738.5</ele><time>2026-05-02T10:41:10Z</time></trkpt><trkpt lat="40.41013623493805" lon="9.363729129334116"><ele>745.75</ele><time>2026-05-02T10:41:11Z</time></trkpt><trkpt lat="40.410024351177896" lon="9.363667929439112"><ele>753.0</ele><time>2026-05-02T10:41:12Z</time></trkpt><trkpt lat="40.409902805188885" lon="9.36364462859579"><ele>753.0</ele><time>2026-05-02T10:41:13Z</time></trkpt><trkpt lat="40.40977105498376" lon="9.363645120473592"><ele>753.0</ele><time>2026-05-02T10:41:14Z</time></trkpt><trkpt lat="40.40964383382366" lon="9.363642363524256"><ele>753.0</ele><time>2026-05-02T10:41:15Z</time></trkpt><trkpt lat="40.40952326590693" lon="9.36360596549186"><ele>753.0</ele><time>2026-05-02T10:41:16Z</time></trkpt><trkpt lat="40.409407934268295" lon="9.363534762494021"><ele>746.5</ele><time>2026-05-02T10:41:17Z</time></trkpt><trkpt lat="40.40928686724059" lon="9.363441581599353"><ele>740.0</ele><time>2026-05-02T10:41:18Z</time></trkpt><trkpt lat="40.409165069617764" lon="9.363347646122481"><ele>733.5</ele><time>2026-05-02T10:41:19Z</time></trkpt><trkpt lat="40.40904341382571" lon="9.363230648901952"><ele>727.0</ele><time>2026-05-02T10:41:20Z</time></trkpt><trkpt lat="40.408916617974974" lon="9.363097023137954"><ele>724.0</ele><time>2026-05-02T10:41:21Z</time></trkpt><trkpt lat="40.40879247750983" lon="9.362956513467909"><ele>721.0</ele><time>2026-05-02T10:41:22Z</time></trkpt><trkpt lat="40.40866853257853" lon="9.36281951399297"><ele>718.0</ele><time>2026-05-02T10:41:23Z</time></trkpt><trkpt lat="40.40855121773897" lon="9.36267065392558"><ele>718.0</ele><time>2026-05-02T10:41:24Z</time></trkpt><trkpt lat="40.408418901722605" lon="9.362528374192504"><ele>718.0</ele><time>2026-05-02T10:41:25Z</time></trkpt><trkpt lat="40.40827292863394" lon="9.362391250107398"><ele>718.0</ele><time>2026-05-02T10:41:26Z</time></trkpt><trkpt lat="40.408109878254" lon="9.362268732585811"><ele>719.6666666666667</ele><time>2026-05-02T10:41:27Z</time></trkpt><trkpt lat="40.407931844303015" lon="9.36215847225563"><ele>721.3333333333334</ele><time>2026-05-02T10:41:28Z</time></trkpt><trkpt lat="40.40776373476337" lon="9.362065036698873"><ele>723.0</ele><time>2026-05-02T10:41:29Z</time></trkpt><trkpt lat="40.407610243838896" lon="9.361980427662251"><ele>723.0</ele><time>2026-05-02T10:41:30Z</time></trkpt><trkpt lat="40.40746694274828" lon="9.36190199468081"><ele>723.0</ele><time>2026-05-02T10:41:31Z</time></trkpt><trkpt lat="40.407330070966246" lon="9.361824093278988"><ele>723.0</ele><time>2026-05-02T10:41:32Z</time></trkpt><trkpt lat="40.40719806467397" lon="9.361740759388562"><ele>717.75</ele><time>2026-05-02T10:41:33Z</time></trkpt><trkpt lat="40.40706825412612" lon="9.361652943567808"><ele>712.5</ele><time>2026-05-02T10:41:34Z</time></trkpt><trkpt lat="40.406939870413915" lon="9.361568943659018"><ele>707.25</ele><time>2026-05-02T10:41:35Z</time></trkpt><trkpt lat="40.40681386959475" lon="9.361487201179802"><ele>702.0</ele><time>2026-05-02T10:41:36Z</time></trkpt><trkpt lat="40.40669078250565" lon="9.361398630430388"><ele>704.75</ele><time>2026-05-02T10:41:37Z</time></trkpt><trkpt lat="40.406575497139535" lon="9.361309416695349"><ele>707.5</ele><time>2026-05-02T10:41:38Z</time></trkpt><trkpt lat="40.40646254772595" lon="9.36121555736291"><ele>710.25</ele><time>2026-05-02T10:41:39Z</time></trkpt><trkpt lat="40.406356091381156" lon="9.361131065413954"><ele>713.0</ele><time>2026-05-02T10:41:40Z</time></trkpt><trkpt lat="40.40625196448641" lon="9.361052657849902"><ele>713.0</ele><time>2026-05-02T10:41:41Z</time></trkpt><trkpt lat="40.40615287688484" lon="9.36099373319298"><ele>713.0</ele><time>2026-05-02T10:41:42Z</time></trkpt><trkpt lat="40.40605700764348" lon="9.360966342885293"><ele>713.0</ele><time>2026-05-02T10:41:43Z</time></trkpt><trkpt lat="40.40596830803697" lon="9.360972254924127"><ele>713.0</ele><time>2026-05-02T10:41:44Z</time></trkpt><trkpt lat="40.40588977160547" lon="9.361014800828695"><ele>713.0</ele><time>2026-05-02T10:41:45Z</time></trkpt><trkpt lat="40.405829158912056" lon="9.361094814625606"><ele>713.0</ele><time>2026-05-02T10:41:46Z</time></trkpt><trkpt lat="40.405798182302284" lon="9.361210352334043"><ele>713.0</ele><time>2026-05-02T10:41:47Z</time></trkpt><trkpt lat="40.4057901509013" lon="9.361351039970964"><ele>713.0</ele><time>2026-05-02T10:41:48Z</time></trkpt><trkpt lat="40.405793328264956" lon="9.361484255324388"><ele>713.0</ele><time>2026-05-02T10:41:49Z</time></trkpt><trkpt lat="40.40577868161556" lon="9.361596571796522"><ele>713.0</ele><time>2026-05-02T10:41:50Z</time></trkpt><trkpt lat="40.40573789245931" lon="9.361687264252096"><ele>710.5</ele><time>2026-05-02T10:41:51Z</time></trkpt><trkpt lat="40.40567162677335" lon="9.361742007245946"><ele>708.0</ele><time>2026-05-02T10:41:52Z</time></trkpt><trkpt lat="40.405595745972114" lon="9.361751690313245"><ele>705.5</ele><time>2026-05-02T10:41:53Z</time></trkpt><trkpt lat="40.40551588137193" lon="9.361718259668628"><ele>703.0</ele><time>2026-05-02T10:41:54Z</time></trkpt><trkpt lat="40.40543456175587" lon="9.361648100241082"><ele>700.5</ele><time>2026-05-02T10:41:55Z</time></trkpt><trkpt lat="40.40534665259553" lon="9.361562543430784"><ele>698.0</ele><time>2026-05-02T10:41:56Z</time></trkpt><trkpt lat="40.405250183799566" lon="9.361461533056364"><ele>699.25</ele><time>2026-05-02T10:41:57Z</time></trkpt><trkpt lat="40.40516307717433" lon="9.36135700273138"><ele>700.5</ele><time>2026-05-02T10:41:58Z</time></trkpt><trkpt lat="40.40507239343178" lon="9.361233888114908"><ele>701.75</ele><time>2026-05-02T10:41:59Z</time></trkpt><trkpt lat="40.404982951837596" lon="9.36110055163671"><ele>703.0</ele><time>2026-05-02T10:42:00Z</time></trkpt><trkpt lat="40.404897655998724" lon="9.360963802505896"><ele>703.0</ele><time>2026-05-02T10:42:01Z</time></trkpt><trkpt lat="40.40480847659055" lon="9.360836036227802"><ele>703.0</ele><time>2026-05-02T10:42:02Z</time></trkpt><trkpt lat="40.40471056109383" lon="9.36072440113163"><ele>703.0</ele><time>2026-05-02T10:42:03Z</time></trkpt><trkpt lat="40.40461333828973" lon="9.360641983346333"><ele>703.0</ele><time>2026-05-02T10:42:04Z</time></trkpt><trkpt lat="40.40450904317806" lon="9.360605707208611"><ele>700.5999999999999</ele><time>2026-05-02T10:42:05Z</time></trkpt><trkpt lat="40.40441427357546" lon="9.360615435995422"><ele>698.1999999999999</ele><time>2026-05-02T10:42:06Z</time></trkpt><trkpt lat="40.40432741160083" lon="9.360668071970078"><ele>695.8</ele><time>2026-05-02T10:42:07Z</time></trkpt><trkpt lat="40.40426402735788" lon="9.360755099515309"><ele>693.4</ele><time>2026-05-02T10:42:08Z</time></trkpt><trkpt lat="40.404227583571576" lon="9.36087824244811"><ele>691.0</ele><time>2026-05-02T10:42:09Z</time></trkpt><trkpt lat="40.40421728386231" lon="9.36102308074974"><ele>691.0</ele><time>2026-05-02T10:42:10Z</time></trkpt><trkpt lat="40.40421618969202" lon="9.361153537541906"><ele>691.0</ele><time>2026-05-02T10:42:11Z</time></trkpt><trkpt lat="40.40421314849797" lon="9.361282570701421"><ele>691.0</ele><time>2026-05-02T10:42:12Z</time></trkpt><trkpt lat="40.40419653818989" lon="9.361400077046321"><ele>691.0</ele><time>2026-05-02T10:42:13Z</time></trkpt><trkpt lat="40.404157044255214" lon="9.361497401914484"><ele>691.0</ele><time>2026-05-02T10:42:14Z</time></trkpt><trkpt lat="40.404090331612345" lon="9.3615703229018"><ele>688.1999999999999</ele><time>2026-05-02T10:42:15Z</time></trkpt><trkpt lat="40.40400865815577" lon="9.361603370515644"><ele>685.4</ele><time>2026-05-02T10:42:16Z</time></trkpt><trkpt lat="40.40391129173946" lon="9.361602974414838"><ele>682.6</ele><time>2026-05-02T10:42:17Z</time></trkpt><trkpt lat="40.403802789325404" lon="9.361570887431167"><ele>679.8</ele><time>2026-05-02T10:42:18Z</time></trkpt><trkpt lat="40.40369339311516" lon="9.361519957181812"><ele>677.0</ele><time>2026-05-02T10:42:19Z</time></trkpt><trkpt lat="40.40358286079255" lon="9.361434928089043"><ele>678.75</ele><time>2026-05-02T10:42:20Z</time></trkpt><trkpt lat="40.403474278419985" lon="9.361323874265475"><ele>680.5</ele><time>2026-05-02T10:42:21Z</time></trkpt><trkpt lat="40.403361815374105" lon="9.361202873903745"><ele>682.25</ele><time>2026-05-02T10:42:22Z</time></trkpt><trkpt lat="40.40323656773532" lon="9.361079909969394"><ele>684.0</ele><time>2026-05-02T10:42:23Z</time></trkpt><trkpt lat="40.40311103947069" lon="9.360955922392987"><ele>683.75</ele><time>2026-05-02T10:42:24Z</time></trkpt><trkpt lat="40.40298442343694" lon="9.360843988488464"><ele>683.5</ele><time>2026-05-02T10:42:25Z</time></trkpt><trkpt lat="40.40286098128566" lon="9.360738233435725"><ele>683.25</ele><time>2026-05-02T10:42:26Z</time></trkpt><trkpt lat="40.40274462670165" lon="9.360631640454386"><ele>683.0</ele><time>2026-05-02T10:42:27Z</time></trkpt><trkpt lat="40.40263281114964" lon="9.360527617468643"><ele>683.0</ele><time>2026-05-02T10:42:28Z</time></trkpt><trkpt lat="40.402527567736286" lon="9.360421621347603"><ele>683.0</ele><time>2026-05-02T10:42:29Z</time></trkpt><trkpt lat="40.40242194994737" lon="9.360310945859425"><ele>683.0</ele><time>2026-05-02T10:42:30Z</time></trkpt><trkpt lat="40.40230785632083" lon="9.360198306915692"><ele>683.0</ele><time>2026-05-02T10:42:31Z</time></trkpt><trkpt lat="40.40219003016115" lon="9.360082498388834"><ele>673.3333333333333</ele><time>2026-05-02T10:42:32Z</time></trkpt><trkpt lat="40.40206019476251" lon="9.359965215109534"><ele>663.6666666666666</ele><time>2026-05-02T10:42:33Z</time></trkpt><trkpt lat="40.40190953301281" lon="9.359856705504644"><ele>654.0</ele><time>2026-05-02T10:42:34Z</time></trkpt><trkpt lat="40.40174271503648" lon="9.359760526622413"><ele>659.6666666666666</ele><time>2026-05-02T10:42:35Z</time></trkpt><trkpt lat="40.401565262572866" lon="9.359685904337894"><ele>665.3333333333333</ele><time>2026-05-02T10:42:36Z</time></trkpt><trkpt lat="40.401379000279725" lon="9.359626403585318"><ele>671.0</ele><time>2026-05-02T10:42:37Z</time></trkpt><trkpt lat="40.401185146596845" lon="9.3595823193807"><ele>671.0</ele><time>2026-05-02T10:42:38Z</time></trkpt><trkpt lat="40.401001315689975" lon="9.359546528147362"><ele>671.0</ele><time>2026-05-02T10:42:39Z</time></trkpt><trkpt lat="40.400825752667885" lon="9.359499915885712"><ele>671.0</ele><time>2026-05-02T10:42:40Z</time></trkpt><trkpt lat="40.40065559341231" lon="9.359440562478165"><ele>660.0</ele><time>2026-05-02T10:42:41Z</time></trkpt><trkpt lat="40.400491599462505" lon="9.359372267556443"><ele>649.0</ele><time>2026-05-02T10:42:42Z</time></trkpt><trkpt lat="40.40034335302484" lon="9.359295917784332"><ele>638.0</ele><time>2026-05-02T10:42:43Z</time></trkpt><trkpt lat="40.40021374837081" lon="9.359210796989544"><ele>638.0</ele><time>2026-05-02T10:42:44Z</time></trkpt><trkpt lat="40.40010564445369" lon="9.359108132937655"><ele>638.0</ele><time>2026-05-02T10:42:45Z</time></trkpt><trkpt lat="40.40001495036507" lon="9.358951317889755"><ele>638.0</ele><time>2026-05-02T10:42:46Z</time></trkpt><trkpt lat="40.39992490966607" lon="9.358775846148172"><ele>638.0</ele><time>2026-05-02T10:42:47Z</time></trkpt><trkpt lat="40.39982653938271" lon="9.358583818050313"><ele>638.6666666666666</ele><time>2026-05-02T10:42:48Z</time></trkpt><trkpt lat="40.399711421403985" lon="9.35838318615744"><ele>639.3333333333334</ele><time>2026-05-02T10:42:49Z</time></trkpt><trkpt lat="40.399588884383704" lon="9.358181459052856"><ele>640.0</ele><time>2026-05-02T10:42:50Z</time></trkpt><trkpt lat="40.399463687904245" lon="9.35797676913097"><ele>640.0</ele><time>2026-05-02T10:42:51Z</time></trkpt><trkpt lat="40.39933798295722" lon="9.357759098799713"><ele>640.0</ele><time>2026-05-02T10:42:52Z</time></trkpt><trkpt lat="40.39922923275419" lon="9.357542943130055"><ele>640.0</ele><time>2026-05-02T10:42:53Z</time></trkpt><trkpt lat="40.399110749656145" lon="9.35733163231823"><ele>636.0</ele><time>2026-05-02T10:42:54Z</time></trkpt><trkpt lat="40.398976623217436" lon="9.357130595400138"><ele>632.0</ele><time>2026-05-02T10:42:55Z</time></trkpt><trkpt lat="40.39884066266271" lon="9.356953450312426"><ele>628.0</ele><time>2026-05-02T10:42:56Z</time></trkpt><trkpt lat="40.39870603077793" lon="9.35678442094029"><ele>628.0</ele><time>2026-05-02T10:42:57Z</time></trkpt><trkpt lat="40.39856882293547" lon="9.356631068014439"><ele>628.0</ele><time>2026-05-02T10:42:58Z</time></trkpt><trkpt lat="40.39842686027698" lon="9.356501916766568"><ele>628.0</ele><time>2026-05-02T10:42:59Z</time></trkpt><trkpt lat="40.39828343307379" lon="9.3563911753697"><ele>631.6666666666667</ele><time>2026-05-02T10:43:00Z</time></trkpt><trkpt lat="40.39813212911332" lon="9.35630276779793"><ele>635.3333333333334</ele><time>2026-05-02T10:43:01Z</time></trkpt><trkpt lat="40.39797950778255" lon="9.35624453050192"><ele>639.0</ele><time>2026-05-02T10:43:02Z</time></trkpt><trkpt lat="40.39782488480988" lon="9.356225101377"><ele>639.0</ele><time>2026-05-02T10:43:03Z</time></trkpt><trkpt lat="40.39766243479481" lon="9.356232966104702"><ele>639.0</ele><time>2026-05-02T10:43:04Z</time></trkpt><trkpt lat="40.39749032559027" lon="9.356243867685924"><ele>639.0</ele><time>2026-05-02T10:43:05Z</time></trkpt><trkpt lat="40.39733263881819" lon="9.356249023927603"><ele>639.0</ele><time>2026-05-02T10:43:06Z</time></trkpt><trkpt lat="40.397186669117474" lon="9.356259695616389"><ele>639.0</ele><time>2026-05-02T10:43:07Z</time></trkpt><trkpt lat="40.39705874263345" lon="9.356291931704874"><ele>639.0</ele><time>2026-05-02T10:43:08Z</time></trkpt><trkpt lat="40.39695054774353" lon="9.35635315288191"><ele>639.0</ele><time>2026-05-02T10:43:09Z</time></trkpt><trkpt lat="40.39686369468407" lon="9.356443917913525"><ele>635.5</ele><time>2026-05-02T10:43:10Z</time></trkpt><trkpt lat="40.3968017834506" lon="9.356561587392294"><ele>632.0</ele><time>2026-05-02T10:43:11Z</time></trkpt><trkpt lat="40.39676973950064" lon="9.356691080869819"><ele>628.5</ele><time>2026-05-02T10:43:12Z</time></trkpt><trkpt lat="40.39677235081098" lon="9.356841647141502"><ele>625.0</ele><time>2026-05-02T10:43:13Z</time></trkpt><trkpt lat="40.39680297117966" lon="9.357002273713801"><ele>625.0</ele><time>2026-05-02T10:43:14Z</time></trkpt><trkpt lat="40.39686383694869" lon="9.357141518691176"><ele>625.0</ele><time>2026-05-02T10:43:15Z</time></trkpt><trkpt lat="40.39695497467607" lon="9.357265347080766"><ele>625.0</ele><time>2026-05-02T10:43:16Z</time></trkpt><trkpt lat="40.39706720479541" lon="9.357367934718852"><ele>625.0</ele><time>2026-05-02T10:43:17Z</time></trkpt><trkpt lat="40.397188752356065" lon="9.357458394786475"><ele>620.5</ele><time>2026-05-02T10:43:18Z</time></trkpt><trkpt lat="40.39729754869174" lon="9.357555346581591"><ele>616.0</ele><time>2026-05-02T10:43:19Z</time></trkpt><trkpt lat="40.39738670951859" lon="9.357657736351754"><ele>611.5</ele><time>2026-05-02T10:43:20Z</time></trkpt><trkpt lat="40.39744898092189" lon="9.35776405443139"><ele>607.0</ele><time>2026-05-02T10:43:21Z</time></trkpt><trkpt lat="40.397478948091" lon="9.35788958100267"><ele>607.0</ele><time>2026-05-02T10:43:22Z</time></trkpt><trkpt lat="40.3974758267441" lon="9.35803353762463"><ele>607.0</ele><time>2026-05-02T10:43:23Z</time></trkpt><trkpt lat="40.39746241243811" lon="9.358185934900714"><ele>607.0</ele><time>2026-05-02T10:43:24Z</time></trkpt><trkpt lat="40.39743808887232" lon="9.358339361003887"><ele>607.0</ele><time>2026-05-02T10:43:25Z</time></trkpt><trkpt lat="40.39740351056511" lon="9.358490797886375"><ele>607.0</ele><time>2026-05-02T10:43:26Z</time></trkpt><trkpt lat="40.39736284459325" lon="9.358638998086391"><ele>607.0</ele><time>2026-05-02T10:43:27Z</time></trkpt><trkpt lat="40.39731846211599" lon="9.358780978119977"><ele>607.0</ele><time>2026-05-02T10:43:28Z</time></trkpt><trkpt lat="40.39727175269686" lon="9.358920639981372"><ele>607.0</ele><time>2026-05-02T10:43:29Z</time></trkpt><trkpt lat="40.39722586264919" lon="9.35905322334465"><ele>606.2</ele><time>2026-05-02T10:43:30Z</time></trkpt><trkpt lat="40.397158183113234" lon="9.359166467357467"><ele>605.4000000000001</ele><time>2026-05-02T10:43:31Z</time></trkpt><trkpt lat="40.39707246722819" lon="9.359245794774788"><ele>604.5999999999999</ele><time>2026-05-02T10:43:32Z</time></trkpt><trkpt lat="40.396982675699164" lon="9.359280090343585"><ele>603.8</ele><time>2026-05-02T10:43:33Z</time></trkpt><trkpt lat="40.396896193532235" lon="9.359260771075881"><ele>603.0</ele><time>2026-05-02T10:43:34Z</time></trkpt><trkpt lat="40.39680904366327" lon="9.359193300616111"><ele>603.0</ele><time>2026-05-02T10:43:35Z</time></trkpt><trkpt lat="40.39671063281576" lon="9.359086161565909"><ele>603.0</ele><time>2026-05-02T10:43:36Z</time></trkpt><trkpt lat="40.39659615432234" lon="9.35896070658147"><ele>603.0</ele><time>2026-05-02T10:43:37Z</time></trkpt><trkpt lat="40.39648098788591" lon="9.358840644838953"><ele>603.0</ele><time>2026-05-02T10:43:38Z</time></trkpt><trkpt lat="40.39635508525615" lon="9.35871309985242"><ele>603.0</ele><time>2026-05-02T10:43:39Z</time></trkpt><trkpt lat="40.39622861815256" lon="9.35857376444998"><ele>603.0</ele><time>2026-05-02T10:43:40Z</time></trkpt><trkpt lat="40.39610142517903" lon="9.358434933198149"><ele>603.0</ele><time>2026-05-02T10:43:41Z</time></trkpt><trkpt lat="40.39597952195928" lon="9.358313601676382"><ele>603.0</ele><time>2026-05-02T10:43:42Z</time></trkpt><trkpt lat="40.395850965242005" lon="9.358213817279994"><ele>603.0</ele><time>2026-05-02T10:43:43Z</time></trkpt><trkpt lat="40.395723282722614" lon="9.35814302226136"><ele>603.0</ele><time>2026-05-02T10:43:44Z</time></trkpt><trkpt lat="40.39559733446083" lon="9.35810653511354"><ele>603.0</ele><time>2026-05-02T10:43:45Z</time></trkpt><trkpt lat="40.39546994248811" lon="9.35811436628956"><ele>602.25</ele><time>2026-05-02T10:43:46Z</time></trkpt><trkpt lat="40.39533249852453" lon="9.358167780446767"><ele>601.5</ele><time>2026-05-02T10:43:47Z</time></trkpt><trkpt lat="40.395196709523425" lon="9.358254676223758"><ele>600.75</ele><time>2026-05-02T10:43:48Z</time></trkpt><trkpt lat="40.395063875374404" lon="9.358342896518254"><ele>600.0</ele><time>2026-05-02T10:43:49Z</time></trkpt><trkpt lat="40.39493651128091" lon="9.358426481615068"><ele>600.0</ele><time>2026-05-02T10:43:50Z</time></trkpt><trkpt lat="40.39481252618378" lon="9.358501462390421"><ele>600.0</ele><time>2026-05-02T10:43:51Z</time></trkpt><trkpt lat="40.39468700537022" lon="9.358556584968602"><ele>600.0</ele><time>2026-05-02T10:43:52Z</time></trkpt><trkpt lat="40.39455730224946" lon="9.358589990169808"><ele>600.0</ele><time>2026-05-02T10:43:53Z</time></trkpt><trkpt lat="40.39441741942322" lon="9.358600947858953"><ele>600.6666666666666</ele><time>2026-05-02T10:43:54Z</time></trkpt><trkpt lat="40.394267112020025" lon="9.358586280185298"><ele>601.3333333333333</ele><time>2026-05-02T10:43:55Z</time></trkpt><trkpt lat="40.39410905865677" lon="9.3585570390911"><ele>602.0</ele><time>2026-05-02T10:43:56Z</time></trkpt><trkpt lat="40.39395383164754" lon="9.3585273350828"><ele>603.0</ele><time>2026-05-02T10:43:57Z</time></trkpt><trkpt lat="40.39380790319603" lon="9.358521227940535"><ele>604.0</ele><time>2026-05-02T10:43:58Z</time></trkpt><trkpt lat="40.39366198868932" lon="9.358537821600141"><ele>605.0</ele><time>2026-05-02T10:43:59Z</time></trkpt><trkpt lat="40.393517580786444" lon="9.358587182638576"><ele>606.0</ele><time>2026-05-02T10:44:00Z</time></trkpt><trkpt lat="40.39337731331018" lon="9.358670591014034"><ele>606.0</ele><time>2026-05-02T10:44:01Z</time></trkpt><trkpt lat="40.39323924871298" lon="9.358776097962938"><ele>606.0</ele><time>2026-05-02T10:44:02Z</time></trkpt><trkpt lat="40.39310212245628" lon="9.358893781681758"><ele>606.0</ele><time>2026-05-02T10:44:03Z</time></trkpt><trkpt lat="40.39297188746804" lon="9.358997757111464"><ele>601.0</ele><time>2026-05-02T10:44:04Z</time></trkpt><trkpt lat="40.392855526727665" lon="9.359105349217355"><ele>596.0</ele><time>2026-05-02T10:44:05Z</time></trkpt><trkpt lat="40.39275595360625" lon="9.359223303340364"><ele>591.0</ele><time>2026-05-02T10:44:06Z</time></trkpt><trkpt lat="40.39268237173937" lon="9.359357126504621"><ele>586.0</ele><time>2026-05-02T10:44:07Z</time></trkpt><trkpt lat="40.392643215498346" lon="9.359517581738965"><ele>586.0</ele><time>2026-05-02T10:44:08Z</time></trkpt><trkpt lat="40.39263926380016" lon="9.35969463855665"><ele>586.0</ele><time>2026-05-02T10:44:09Z</time></trkpt><trkpt lat="40.3926574504369" lon="9.359890079376669"><ele>586.0</ele><time>2026-05-02T10:44:10Z</time></trkpt><trkpt lat="40.392690121145385" lon="9.360108966563134"><ele>586.0</ele><time>2026-05-02T10:44:11Z</time></trkpt><trkpt lat="40.3927351120207" lon="9.360327289949725"><ele>586.0</ele><time>2026-05-02T10:44:12Z</time></trkpt><trkpt lat="40.39280264450904" lon="9.360558413010489"><ele>586.0</ele><time>2026-05-02T10:44:13Z</time></trkpt><trkpt lat="40.392889809400224" lon="9.36079301202727"><ele>586.0</ele><time>2026-05-02T10:44:14Z</time></trkpt><trkpt lat="40.39298175299111" lon="9.361017153190302"><ele>586.0</ele><time>2026-05-02T10:44:15Z</time></trkpt><trkpt lat="40.393080704240965" lon="9.361255218046539"><ele>586.0</ele><time>2026-05-02T10:44:16Z</time></trkpt><trkpt lat="40.39317954490209" lon="9.361492130585498"><ele>578.3333333333334</ele><time>2026-05-02T10:44:17Z</time></trkpt><trkpt lat="40.39327958878207" lon="9.361712937244484"><ele>570.6666666666666</ele><time>2026-05-02T10:44:18Z</time></trkpt><trkpt lat="40.393380181845686" lon="9.361920822817273"><ele>563.0</ele><time>2026-05-02T10:44:19Z</time></trkpt><trkpt lat="40.39347686809696" lon="9.362130437527336"><ele>565.0</ele><time>2026-05-02T10:44:20Z</time></trkpt><trkpt lat="40.39356035557106" lon="9.362354967554252"><ele>567.0</ele><time>2026-05-02T10:44:21Z</time></trkpt><trkpt lat="40.39362680009106" lon="9.362566067532487"><ele>569.0</ele><time>2026-05-02T10:44:22Z</time></trkpt><trkpt lat="40.39368237552456" lon="9.362763592996926"><ele>569.0</ele><time>2026-05-02T10:44:23Z</time></trkpt><trkpt lat="40.39372862506185" lon="9.362948333347951"><ele>569.0</ele><time>2026-05-02T10:44:24Z</time></trkpt><trkpt lat="40.39375895213342" lon="9.363121054118718"><ele>569.0</ele><time>2026-05-02T10:44:25Z</time></trkpt><trkpt lat="40.393762249698355" lon="9.363276273328687"><ele>569.0</ele><time>2026-05-02T10:44:26Z</time></trkpt><trkpt lat="40.39373303528047" lon="9.363429562042901"><ele>567.75</ele><time>2026-05-02T10:44:27Z</time></trkpt><trkpt lat="40.3936732672074" lon="9.36357708156175"><ele>566.5</ele><time>2026-05-02T10:44:28Z</time></trkpt><trkpt lat="40.39359795087973" lon="9.363728369423486"><ele>565.25</ele><time>2026-05-02T10:44:29Z</time></trkpt><trkpt lat="40.39351946135984" lon="9.363885555405595"><ele>564.0</ele><time>2026-05-02T10:44:30Z</time></trkpt><trkpt lat="40.393437013998856" lon="9.364050744413243"><ele>559.3333333333334</ele><time>2026-05-02T10:44:31Z</time></trkpt><trkpt lat="40.39334944130932" lon="9.364222151998032"><ele>554.6666666666667</ele><time>2026-05-02T10:44:32Z</time></trkpt><trkpt lat="40.393260710019526" lon="9.36439651778298"><ele>550.0</ele><time>2026-05-02T10:44:33Z</time></trkpt><trkpt lat="40.39317827037924" lon="9.364593003318022"><ele>544.0</ele><time>2026-05-02T10:44:34Z</time></trkpt><trkpt lat="40.3931129267095" lon="9.36478464380069"><ele>538.0</ele><time>2026-05-02T10:44:35Z</time></trkpt><trkpt lat="40.3930604368358" lon="9.364975992263583"><ele>532.0</ele><time>2026-05-02T10:44:36Z</time></trkpt><trkpt lat="40.393010140314814" lon="9.3651481429305"><ele>533.5</ele><time>2026-05-02T10:44:37Z</time></trkpt><trkpt lat="40.39293349621749" lon="9.365298934843278"><ele>535.0</ele><time>2026-05-02T10:44:38Z</time></trkpt><trkpt lat="40.39282752586452" lon="9.36543964615655"><ele>536.5</ele><time>2026-05-02T10:44:39Z</time></trkpt><trkpt lat="40.39270686451582" lon="9.36557342614894"><ele>538.0</ele><time>2026-05-02T10:44:40Z</time></trkpt><trkpt lat="40.39257820052093" lon="9.365721615584109"><ele>538.0</ele><time>2026-05-02T10:44:41Z</time></trkpt><trkpt lat="40.39245126574293" lon="9.365872220862775"><ele>538.0</ele><time>2026-05-02T10:44:42Z</time></trkpt><trkpt lat="40.39233712432514" lon="9.366037870392395"><ele>538.0</ele><time>2026-05-02T10:44:43Z</time></trkpt><trkpt lat="40.392237894834906" lon="9.366201890315429"><ele>537.5</ele><time>2026-05-02T10:44:44Z</time></trkpt><trkpt lat="40.392143663341336" lon="9.366356855918863"><ele>537.0</ele><time>2026-05-02T10:44:45Z</time></trkpt><trkpt lat="40.39205011511301" lon="9.36649472432765"><ele>536.5</ele><time>2026-05-02T10:44:46Z</time></trkpt><trkpt lat="40.391947094966135" lon="9.366603443355682"><ele>536.0</ele><time>2026-05-02T10:44:47Z</time></trkpt><trkpt lat="40.39182539300898" lon="9.366674646756008"><ele>536.0</ele><time>2026-05-02T10:44:48Z</time></trkpt><trkpt lat="40.39168148180584" lon="9.366731646267159"><ele>536.0</ele><time>2026-05-02T10:44:49Z</time></trkpt><trkpt lat="40.39152515332945" lon="9.36680167508035"><ele>536.0</ele><time>2026-05-02T10:44:50Z</time></trkpt><trkpt lat="40.391356952469366" lon="9.366881527503937"><ele>542.3333333333333</ele><time>2026-05-02T10:44:51Z</time></trkpt><trkpt lat="40.39118468388072" lon="9.366970209438405"><ele>548.6666666666666</ele><time>2026-05-02T10:44:52Z</time></trkpt><trkpt lat="40.39101328939136" lon="9.36705706762813"><ele>555.0</ele><time>2026-05-02T10:44:53Z</time></trkpt><trkpt lat="40.390861694865684" lon="9.367140109541495"><ele>552.0</ele><time>2026-05-02T10:44:54Z</time></trkpt><trkpt lat="40.390727779308214" lon="9.367236189900838"><ele>549.0</ele><time>2026-05-02T10:44:55Z</time></trkpt><trkpt lat="40.390604533336635" lon="9.367376810551178"><ele>546.0</ele><time>2026-05-02T10:44:56Z</time></trkpt><trkpt lat="40.39048551244309" lon="9.367563506481595"><ele>546.0</ele><time>2026-05-02T10:44:57Z</time></trkpt><trkpt lat="40.39036402713655" lon="9.367775040840451"><ele>546.0</ele><time>2026-05-02T10:44:58Z</time></trkpt><trkpt lat="40.390234957879606" lon="9.367989093792735"><ele>546.0</ele><time>2026-05-02T10:44:59Z</time></trkpt><trkpt lat="40.39011220132131" lon="9.36818996716325"><ele>536.3333333333334</ele><time>2026-05-02T10:45:00Z</time></trkpt><trkpt lat="40.39000002791" lon="9.368372895903123"><ele>526.6666666666667</ele><time>2026-05-02T10:45:01Z</time></trkpt><trkpt lat="40.38988191909495" lon="9.368543500098271"><ele>517.0</ele><time>2026-05-02T10:45:02Z</time></trkpt><trkpt lat="40.389746666986944" lon="9.368702258260187"><ele>515.3333333333334</ele><time>2026-05-02T10:45:03Z</time></trkpt><trkpt lat="40.38960872407077" lon="9.368839787800445"><ele>513.6666666666666</ele><time>2026-05-02T10:45:04Z</time></trkpt><trkpt lat="40.389467797974184" lon="9.368950045930353"><ele>512.0</ele><time>2026-05-02T10:45:05Z</time></trkpt><trkpt lat="40.38931469225656" lon="9.369040527244024"><ele>512.0</ele><time>2026-05-02T10:45:06Z</time></trkpt><trkpt lat="40.38914119744473" lon="9.369111117019404"><ele>512.0</ele><time>2026-05-02T10:45:07Z</time></trkpt><trkpt lat="40.388952670529655" lon="9.369168913994658"><ele>512.0</ele><time>2026-05-02T10:45:08Z</time></trkpt><trkpt lat="40.388771277184055" lon="9.369203747263192"><ele>513.0</ele><time>2026-05-02T10:45:09Z</time></trkpt><trkpt lat="40.38859805076081" lon="9.369246223484764"><ele>514.0</ele><time>2026-05-02T10:45:10Z</time></trkpt><trkpt lat="40.388437202704985" lon="9.36930583018677"><ele>515.0</ele><time>2026-05-02T10:45:11Z</time></trkpt><trkpt lat="40.38828410943583" lon="9.36940229990909"><ele>515.0</ele><time>2026-05-02T10:45:12Z</time></trkpt><trkpt lat="40.3881511242119" lon="9.36949826392806"><ele>515.0</ele><time>2026-05-02T10:45:13Z</time></trkpt><trkpt lat="40.38804112562475" lon="9.369586240049271"><ele>515.0</ele><time>2026-05-02T10:45:14Z</time></trkpt><trkpt lat="40.38795096395216" lon="9.369680417737138"><ele>515.0</ele><time>2026-05-02T10:45:15Z</time></trkpt><trkpt lat="40.38790029212039" lon="9.369788306183072"><ele>516.0</ele><time>2026-05-02T10:45:16Z</time></trkpt><trkpt lat="40.38789355202038" lon="9.369912723182482"><ele>517.0</ele><time>2026-05-02T10:45:17Z</time></trkpt><trkpt lat="40.38793409885288" lon="9.37004061852638"><ele>518.0</ele><time>2026-05-02T10:45:18Z</time></trkpt><trkpt lat="40.38801633284558" lon="9.37016640156903"><ele>519.0</ele><time>2026-05-02T10:45:19Z</time></trkpt><trkpt lat="40.38812200985493" lon="9.370296259066963"><ele>513.3333333333334</ele><time>2026-05-02T10:45:20Z</time></trkpt><trkpt lat="40.38823040501086" lon="9.370442539086547"><ele>507.6666666666667</ele><time>2026-05-02T10:45:21Z</time></trkpt><trkpt lat="40.3883232992323" lon="9.370616131105452"><ele>502.0</ele><time>2026-05-02T10:45:22Z</time></trkpt><trkpt lat="40.388395756543396" lon="9.370816416405754"><ele>502.0</ele><time>2026-05-02T10:45:23Z</time></trkpt><trkpt lat="40.38844709302569" lon="9.371049109596065"><ele>502.0</ele><time>2026-05-02T10:45:24Z</time></trkpt><trkpt lat="40.38851645227544" lon="9.371277519791127"><ele>502.0</ele><time>2026-05-02T10:45:25Z</time></trkpt><trkpt lat="40.38861378332448" lon="9.371481772027442"><ele>502.33333333333337</ele><time>2026-05-02T10:45:26Z</time></trkpt><trkpt lat="40.38872856293246" lon="9.371658237750497"><ele>502.66666666666663</ele><time>2026-05-02T10:45:27Z</time></trkpt><trkpt lat="40.38883354699853" lon="9.371820631889186"><ele>503.0</ele><time>2026-05-02T10:45:28Z</time></trkpt><trkpt lat="40.3889187958795" lon="9.371997667479945"><ele>498.66666666666663</ele><time>2026-05-02T10:45:29Z</time></trkpt><trkpt lat="40.388996474406326" lon="9.372199323458737"><ele>494.33333333333337</ele><time>2026-05-02T10:45:30Z</time></trkpt><trkpt lat="40.38908530780449" lon="9.37237154877499"><ele>490.0</ele><time>2026-05-02T10:45:31Z</time></trkpt><trkpt lat="40.389211540352164" lon="9.372529033588945"><ele>490.0</ele><time>2026-05-02T10:45:32Z</time></trkpt><trkpt lat="40.389349006599154" lon="9.37270897373781"><ele>490.0</ele><time>2026-05-02T10:45:33Z</time></trkpt><trkpt lat="40.38947816975371" lon="9.372906075379237"><ele>490.0</ele><time>2026-05-02T10:45:34Z</time></trkpt><trkpt lat="40.389597415536834" lon="9.373087179548344"><ele>481.6666666666667</ele><time>2026-05-02T10:45:35Z</time></trkpt><trkpt lat="40.38969899516502" lon="9.373267536004079"><ele>473.33333333333337</ele><time>2026-05-02T10:45:36Z</time></trkpt><trkpt lat="40.38977042038425" lon="9.373470869933227"><ele>465.0</ele><time>2026-05-02T10:45:37Z</time></trkpt><trkpt lat="40.389833043946794" lon="9.373699366164372"><ele>469.66666666666663</ele><time>2026-05-02T10:45:38Z</time></trkpt><trkpt lat="40.38989510365073" lon="9.373900011629612"><ele>474.3333333333333</ele><time>2026-05-02T10:45:39Z</time></trkpt><trkpt lat="40.38997409364526" lon="9.37407371466192"><ele>479.0</ele><time>2026-05-02T10:45:40Z</time></trkpt><trkpt lat="40.39007500250797" lon="9.374224313211426"><ele>479.0</ele><time>2026-05-02T10:45:41Z</time></trkpt><trkpt lat="40.3902014776758" lon="9.374356393241897"><ele>479.0</ele><time>2026-05-02T10:45:42Z</time></trkpt><trkpt lat="40.39033029496872" lon="9.374462008721036"><ele>479.0</ele><time>2026-05-02T10:45:43Z</time></trkpt><trkpt lat="40.39043107497165" lon="9.374589704047219"><ele>478.6</ele><time>2026-05-02T10:45:44Z</time></trkpt><trkpt lat="40.390503381434264" lon="9.37473057600257"><ele>478.2</ele><time>2026-05-02T10:45:45Z</time></trkpt><trkpt lat="40.39054125831017" lon="9.374875351647516"><ele>477.80000000000007</ele><time>2026-05-02T10:45:46Z</time></trkpt><trkpt lat="40.390544225726856" lon="9.375001378478885"><ele>477.40000000000003</ele><time>2026-05-02T10:45:47Z</time></trkpt><trkpt lat="40.39051307435074" lon="9.375085837810003"><ele>477.0</ele><time>2026-05-02T10:45:48Z</time></trkpt><trkpt lat="40.390442620736565" lon="9.375133367048297"><ele>477.0</ele><time>2026-05-02T10:45:49Z</time></trkpt><trkpt lat="40.39035919046586" lon="9.375146820140284"><ele>477.0</ele><time>2026-05-02T10:45:50Z</time></trkpt><trkpt lat="40.3902462791274" lon="9.375121131276183"><ele>477.0</ele><time>2026-05-02T10:45:51Z</time></trkpt><trkpt lat="40.39011242677582" lon="9.37508815081226"><ele>477.0</ele><time>2026-05-02T10:45:52Z</time></trkpt><trkpt lat="40.38998129378743" lon="9.375062520705216"><ele>477.0</ele><time>2026-05-02T10:45:53Z</time></trkpt><trkpt lat="40.38985261389443" lon="9.375061773719633"><ele>477.0</ele><time>2026-05-02T10:45:54Z</time></trkpt><trkpt lat="40.38973766161622" lon="9.37509943499555"><ele>477.0</ele><time>2026-05-02T10:45:55Z</time></trkpt><trkpt lat="40.389639312098524" lon="9.37519063081568"><ele>477.0</ele><time>2026-05-02T10:45:56Z</time></trkpt><trkpt lat="40.389555025517765" lon="9.37533551200597"><ele>478.33333333333337</ele><time>2026-05-02T10:45:57Z</time></trkpt><trkpt lat="40.38949104616277" lon="9.375517429420116"><ele>479.6666666666667</ele><time>2026-05-02T10:45:58Z</time></trkpt><trkpt lat="40.389430341792476" lon="9.375725010734708"><ele>481.0</ele><time>2026-05-02T10:45:59Z</time></trkpt><trkpt lat="40.38935443069632" lon="9.375937634383625"><ele>481.0</ele><time>2026-05-02T10:46:00Z</time></trkpt><trkpt lat="40.3892642825759" lon="9.376131049757092"><ele>481.0</ele><time>2026-05-02T10:46:01Z</time></trkpt><trkpt lat="40.38916751110207" lon="9.376330377106376"><ele>481.0</ele><time>2026-05-02T10:46:02Z</time></trkpt><trkpt lat="40.38907171454587" lon="9.376515716551665"><ele>479.6666666666667</ele><time>2026-05-02T10:46:03Z</time></trkpt><trkpt lat="40.38898155285248" lon="9.376686832183992"><ele>478.33333333333337</ele><time>2026-05-02T10:46:04Z</time></trkpt><trkpt lat="40.38888195375843" lon="9.376840996685448"><ele>477.0</ele><time>2026-05-02T10:46:05Z</time></trkpt><trkpt lat="40.38878445080903" lon="9.376982318889391"><ele>477.0</ele><time>2026-05-02T10:46:06Z</time></trkpt><trkpt lat="40.38869099999802" lon="9.377106964905156"><ele>477.00000000000006</ele><time>2026-05-02T10:46:07Z</time></trkpt><trkpt lat="40.38860160083221" lon="9.377203925637454"><ele>477.00000000000006</ele><time>2026-05-02T10:46:08Z</time></trkpt><trkpt lat="40.388519824905444" lon="9.377261797331215"><ele>477.0</ele><time>2026-05-02T10:46:09Z</time></trkpt><trkpt lat="40.388434132574666" lon="9.377282399885086"><ele>477.0</ele><time>2026-05-02T10:46:10Z</time></trkpt><trkpt lat="40.38833604711774" lon="9.377259446796822"><ele>477.0</ele><time>2026-05-02T10:46:11Z</time></trkpt><trkpt lat="40.388231006114374" lon="9.377184062828375"><ele>477.0</ele><time>2026-05-02T10:46:12Z</time></trkpt><trkpt lat="40.3881162715709" lon="9.377078383305221"><ele>477.0</ele><time>2026-05-02T10:46:13.001Z</time></trkpt><trkpt lat="40.38799989874558" lon="9.376983468000834"><ele>477.0</ele><time>2026-05-02T10:46:14.001Z</time></trkpt><trkpt lat="40.38787662609867" lon="9.376886467990461"><ele>473.25</ele><time>2026-05-02T10:46:15Z</time></trkpt><trkpt lat="40.38775953856478" lon="9.376792278833138"><ele>469.5</ele><time>2026-05-02T10:46:16Z</time></trkpt><trkpt lat="40.38763742281293" lon="9.376718565503795"><ele>465.75</ele><time>2026-05-02T10:46:17Z</time></trkpt><trkpt lat="40.38751323025924" lon="9.376680379527523"><ele>462.0</ele><time>2026-05-02T10:46:18Z</time></trkpt><trkpt lat="40.38738571560444" lon="9.37667410506829"><ele>462.0</ele><time>2026-05-02T10:46:19Z</time></trkpt><trkpt lat="40.387266620717824" lon="9.376685746032804"><ele>462.0</ele><time>2026-05-02T10:46:20Z</time></trkpt><trkpt lat="40.38715199422563" lon="9.376694043171536"><ele>462.0</ele><time>2026-05-02T10:46:21Z</time></trkpt><trkpt lat="40.387035013167306" lon="9.376702555497147"><ele>462.0</ele><time>2026-05-02T10:46:22Z</time></trkpt><trkpt lat="40.38693199834941" lon="9.376685641057204"><ele>462.40000000000003</ele><time>2026-05-02T10:46:23Z</time></trkpt><trkpt lat="40.38683578574886" lon="9.376649623218757"><ele>462.80000000000007</ele><time>2026-05-02T10:46:24Z</time></trkpt><trkpt lat="40.38675226883347" lon="9.376577327708597"><ele>463.2</ele><time>2026-05-02T10:46:25Z</time></trkpt><trkpt lat="40.38668615014434" lon="9.376463266036689"><ele>463.6</ele><time>2026-05-02T10:46:26Z</time></trkpt><trkpt lat="40.38663191667734" lon="9.376322920533514"><ele>464.0</ele><time>2026-05-02T10:46:27Z</time></trkpt><trkpt lat="40.38656939657697" lon="9.376167652292825"><ele>464.0</ele><time>2026-05-02T10:46:28Z</time></trkpt><trkpt lat="40.38649780330532" lon="9.376020496249552"><ele>464.0</ele><time>2026-05-02T10:46:29Z</time></trkpt><trkpt lat="40.38641396218623" lon="9.375891291449104"><ele>464.0</ele><time>2026-05-02T10:46:30Z</time></trkpt><trkpt lat="40.38631413944873" lon="9.375788556217842"><ele>464.0</ele><time>2026-05-02T10:46:31Z</time></trkpt><trkpt lat="40.38620611918894" lon="9.375707930805662"><ele>464.25</ele><time>2026-05-02T10:46:32Z</time></trkpt><trkpt lat="40.38609141304618" lon="9.375639803633044"><ele>464.5</ele><time>2026-05-02T10:46:33Z</time></trkpt><trkpt lat="40.385973183239614" lon="9.375578898433586"><ele>464.75</ele><time>2026-05-02T10:46:34Z</time></trkpt><trkpt lat="40.38584912016249" lon="9.375536637962961"><ele>465.0</ele><time>2026-05-02T10:46:35Z</time></trkpt><trkpt lat="40.38571593440472" lon="9.375514765119448"><ele>458.75</ele><time>2026-05-02T10:46:36Z</time></trkpt><trkpt lat="40.38557737633148" lon="9.375525353020375"><ele>452.5</ele><time>2026-05-02T10:46:37Z</time></trkpt><trkpt lat="40.38543835111524" lon="9.375543567963389"><ele>446.25</ele><time>2026-05-02T10:46:38Z</time></trkpt><trkpt lat="40.38530464591109" lon="9.37556021065378"><ele>440.0</ele><time>2026-05-02T10:46:39Z</time></trkpt><trkpt lat="40.38517467549277" lon="9.375578664622774"><ele>439.25</ele><time>2026-05-02T10:46:40Z</time></trkpt><trkpt lat="40.38504803505087" lon="9.375619999021668"><ele>438.5</ele><time>2026-05-02T10:46:41Z</time></trkpt><trkpt lat="40.3849192841642" lon="9.375691898720836"><ele>437.75</ele><time>2026-05-02T10:46:42Z</time></trkpt><trkpt lat="40.38480373259008" lon="9.375797442869821"><ele>437.0</ele><time>2026-05-02T10:46:43Z</time></trkpt><trkpt lat="40.384709701372564" lon="9.375920904852878"><ele>436.25</ele><time>2026-05-02T10:46:44Z</time></trkpt><trkpt lat="40.384633482915845" lon="9.376054703479728"><ele>435.5</ele><time>2026-05-02T10:46:45Z</time></trkpt><trkpt lat="40.384565313973" lon="9.376192195880876"><ele>434.75</ele><time>2026-05-02T10:46:46Z</time></trkpt><trkpt lat="40.384501722830834" lon="9.37632884951403"><ele>434.0</ele><time>2026-05-02T10:46:47Z</time></trkpt><trkpt lat="40.38444415170458" lon="9.37646128345311"><ele>434.0</ele><time>2026-05-02T10:46:48Z</time></trkpt><trkpt lat="40.384382361785235" lon="9.376583121743726"><ele>434.0</ele><time>2026-05-02T10:46:49Z</time></trkpt><trkpt lat="40.38429390295307" lon="9.376684941558564"><ele>434.0</ele><time>2026-05-02T10:46:50Z</time></trkpt><trkpt lat="40.384179950615724" lon="9.37674961684131"><ele>434.0</ele><time>2026-05-02T10:46:51Z</time></trkpt><trkpt lat="40.38404904530193" lon="9.376799088942306"><ele>434.0</ele><time>2026-05-02T10:46:52Z</time></trkpt><trkpt lat="40.38391456117815" lon="9.376852390813093"><ele>434.0</ele><time>2026-05-02T10:46:53Z</time></trkpt><trkpt lat="40.383785331067266" lon="9.376907515437258"><ele>434.0</ele><time>2026-05-02T10:46:54Z</time></trkpt><trkpt lat="40.38365632554952" lon="9.376961940477448"><ele>434.0</ele><time>2026-05-02T10:46:55Z</time></trkpt><trkpt lat="40.383531081469634" lon="9.377013631145124"><ele>435.75</ele><time>2026-05-02T10:46:56Z</time></trkpt><trkpt lat="40.383408852999494" lon="9.377065443544932"><ele>437.5</ele><time>2026-05-02T10:46:57Z</time></trkpt><trkpt lat="40.383291914606914" lon="9.377124715106689"><ele>439.25</ele><time>2026-05-02T10:46:58Z</time></trkpt><trkpt lat="40.38318004961394" lon="9.377190645977684"><ele>441.0</ele><time>2026-05-02T10:46:59Z</time></trkpt><trkpt lat="40.38307034907369" lon="9.377260364236744"><ele>436.75</ele><time>2026-05-02T10:47:00Z</time></trkpt><trkpt lat="40.38296059325413" lon="9.377326069142176"><ele>432.5</ele><time>2026-05-02T10:47:01Z</time></trkpt><trkpt lat="40.38283696009832" lon="9.377371619280467"><ele>428.25</ele><time>2026-05-02T10:47:02Z</time></trkpt><trkpt lat="40.382704360615676" lon="9.377389877452108"><ele>424.0</ele><time>2026-05-02T10:47:03Z</time></trkpt><trkpt lat="40.382579186811014" lon="9.377419361191478"><ele>424.0</ele><time>2026-05-02T10:47:04Z</time></trkpt><trkpt lat="40.382462242304385" lon="9.377490924934419"><ele>424.0</ele><time>2026-05-02T10:47:05Z</time></trkpt><trkpt lat="40.38234873835198" lon="9.377594503582733"><ele>424.0</ele><time>2026-05-02T10:47:06Z</time></trkpt><trkpt lat="40.38224255159744" lon="9.377719110289343"><ele>424.0</ele><time>2026-05-02T10:47:07Z</time></trkpt><trkpt lat="40.382139941159856" lon="9.377828239596301"><ele>426.0</ele><time>2026-05-02T10:47:08Z</time></trkpt><trkpt lat="40.38202257509356" lon="9.377899821410221"><ele>428.0</ele><time>2026-05-02T10:47:09Z</time></trkpt><trkpt lat="40.38189500399497" lon="9.377935964252282"><ele>430.0</ele><time>2026-05-02T10:47:10Z</time></trkpt><trkpt lat="40.38175749013299" lon="9.377944609382823"><ele>432.0</ele><time>2026-05-02T10:47:11Z</time></trkpt><trkpt lat="40.38161016334112" lon="9.377961654174912"><ele>432.0</ele><time>2026-05-02T10:47:12Z</time></trkpt><trkpt lat="40.381473313606115" lon="9.37799527224266"><ele>432.0</ele><time>2026-05-02T10:47:13Z</time></trkpt><trkpt lat="40.38134048503375" lon="9.378035454166522"><ele>432.0</ele><time>2026-05-02T10:47:14Z</time></trkpt><trkpt lat="40.38121627080268" lon="9.378073977926556"><ele>432.0</ele><time>2026-05-02T10:47:15Z</time></trkpt><trkpt lat="40.38110631636172" lon="9.378113645142879"><ele>429.40000000000003</ele><time>2026-05-02T10:47:16Z</time></trkpt><trkpt lat="40.38102105600989" lon="9.378168257092721"><ele>426.80000000000007</ele><time>2026-05-02T10:47:17Z</time></trkpt><trkpt lat="40.3809574740054" lon="9.378250304314397"><ele>424.2</ele><time>2026-05-02T10:47:18Z</time></trkpt><trkpt lat="40.3809338855953" lon="9.378365689730975"><ele>421.6</ele><time>2026-05-02T10:47:19Z</time></trkpt><trkpt lat="40.38094326690124" lon="9.378500018969747"><ele>419.0</ele><time>2026-05-02T10:47:20Z</time></trkpt><trkpt lat="40.380964254215456" lon="9.378657182706183"><ele>419.0</ele><time>2026-05-02T10:47:21Z</time></trkpt><trkpt lat="40.380990041167244" lon="9.378828058930692"><ele>419.0</ele><time>2026-05-02T10:47:22Z</time></trkpt><trkpt lat="40.38101847027703" lon="9.378986680554847"><ele>419.0</ele><time>2026-05-02T10:47:23Z</time></trkpt><trkpt lat="40.381063563003984" lon="9.379138618258052"><ele>419.0</ele><time>2026-05-02T10:47:24Z</time></trkpt><trkpt lat="40.38112241113873" lon="9.37927631658911"><ele>419.25</ele><time>2026-05-02T10:47:25Z</time></trkpt><trkpt lat="40.38118675780524" lon="9.37940471710912"><ele>419.5</ele><time>2026-05-02T10:47:26Z</time></trkpt><trkpt lat="40.38124863360222" lon="9.379531463670139"><ele>419.75</ele><time>2026-05-02T10:47:27Z</time></trkpt><trkpt lat="40.38130333973653" lon="9.37967444904906"><ele>420.0</ele><time>2026-05-02T10:47:28Z</time></trkpt><trkpt lat="40.38135109865232" lon="9.379841668926513"><ele>411.25</ele><time>2026-05-02T10:47:29Z</time></trkpt><trkpt lat="40.381386909265345" lon="9.380021150055097"><ele>402.5</ele><time>2026-05-02T10:47:30Z</time></trkpt><trkpt lat="40.38140695238104" lon="9.380212355806911"><ele>393.75</ele><time>2026-05-02T10:47:31Z</time></trkpt><trkpt lat="40.38141617300756" lon="9.38039309792557"><ele>385.0</ele><time>2026-05-02T10:47:32Z</time></trkpt><trkpt lat="40.381428285055" lon="9.380570835548236"><ele>385.0</ele><time>2026-05-02T10:47:33Z</time></trkpt><trkpt lat="40.38145184895012" lon="9.380738420091781"><ele>385.0</ele><time>2026-05-02T10:47:34Z</time></trkpt><trkpt lat="40.38149409093164" lon="9.380882709580316"><ele>385.0</ele><time>2026-05-02T10:47:35Z</time></trkpt><trkpt lat="40.38154659750909" lon="9.381018975314142"><ele>385.0</ele><time>2026-05-02T10:47:36Z</time></trkpt><trkpt lat="40.38158504858775" lon="9.381144866529922"><ele>385.00000000000006</ele><time>2026-05-02T10:47:37Z</time></trkpt><trkpt lat="40.38159316010581" lon="9.381253614121489"><ele>385.0</ele><time>2026-05-02T10:47:38Z</time></trkpt><trkpt lat="40.38156455145531" lon="9.3813486057898"><ele>385.0</ele><time>2026-05-02T10:47:39Z</time></trkpt><trkpt lat="40.381505288441815" lon="9.38141650678659"><ele>385.0</ele><time>2026-05-02T10:47:40Z</time></trkpt><trkpt lat="40.3814169015052" lon="9.381465516428923"><ele>385.00000000000006</ele><time>2026-05-02T10:47:41Z</time></trkpt><trkpt lat="40.381333766262216" lon="9.381511916150608"><ele>385.0</ele><time>2026-05-02T10:47:42Z</time></trkpt><trkpt lat="40.38126849251427" lon="9.381572046809719"><ele>391.4</ele><time>2026-05-02T10:47:43Z</time></trkpt><trkpt lat="40.38122611620435" lon="9.381654179264125"><ele>397.8</ele><time>2026-05-02T10:47:44Z</time></trkpt><trkpt lat="40.38120964715152" lon="9.381767327659729"><ele>404.20000000000005</ele><time>2026-05-02T10:47:45Z</time></trkpt><trkpt lat="40.38122710284139" lon="9.381906758421524"><ele>410.6</ele><time>2026-05-02T10:47:46Z</time></trkpt><trkpt lat="40.38126597306742" lon="9.382066256402558"><ele>417.0</ele><time>2026-05-02T10:47:47Z</time></trkpt><trkpt lat="40.381310314162356" lon="9.382253331526078"><ele>402.0</ele><time>2026-05-02T10:47:48Z</time></trkpt><trkpt lat="40.381366148954626" lon="9.382446865687415"><ele>387.0</ele><time>2026-05-02T10:47:49Z</time></trkpt><trkpt lat="40.381428472707555" lon="9.382651145425518"><ele>372.0</ele><time>2026-05-02T10:47:50Z</time></trkpt><trkpt lat="40.38146878343906" lon="9.38285398295013"><ele>375.0</ele><time>2026-05-02T10:47:51Z</time></trkpt><trkpt lat="40.3815058636631" lon="9.38304677805139"><ele>378.0</ele><time>2026-05-02T10:47:52Z</time></trkpt><trkpt lat="40.3815617685286" lon="9.383216238093372"><ele>381.0</ele><time>2026-05-02T10:47:53Z</time></trkpt><trkpt lat="40.38164980937168" lon="9.383363174927286"><ele>384.0</ele><time>2026-05-02T10:47:54Z</time></trkpt><trkpt lat="40.381762191780396" lon="9.383498770531615"><ele>384.0</ele><time>2026-05-02T10:47:55Z</time></trkpt><trkpt lat="40.381860718991" lon="9.383631859516413"><ele>384.0</ele><time>2026-05-02T10:47:56.001Z</time></trkpt><trkpt lat="40.38193797305532" lon="9.38378530333517"><ele>384.0</ele><time>2026-05-02T10:47:57.001Z</time></trkpt><trkpt lat="40.38199355666416" lon="9.383956268127134"><ele>384.0</ele><time>2026-05-02T10:47:58.001Z</time></trkpt><trkpt lat="40.38203066969917" lon="9.384149839588648"><ele>386.66666666666663</ele><time>2026-05-02T10:47:59.001Z</time></trkpt><trkpt lat="40.38204029434993" lon="9.384367094989084"><ele>389.3333333333333</ele><time>2026-05-02T10:48:00.001Z</time></trkpt><trkpt lat="40.38203841507804" lon="9.38457866727211"><ele>392.0</ele><time>2026-05-02T10:48:01.001Z</time></trkpt><trkpt lat="40.38204309055196" lon="9.38476114473772"><ele>392.25</ele><time>2026-05-02T10:48:02.001Z</time></trkpt><trkpt lat="40.382073937833646" lon="9.38491831377698"><ele>392.5</ele><time>2026-05-02T10:48:03.001Z</time></trkpt><trkpt lat="40.38214244592466" lon="9.385045238978243"><ele>392.75</ele><time>2026-05-02T10:48:04.001Z</time></trkpt><trkpt lat="40.382249855902074" lon="9.385168419333008"><ele>393.0</ele><time>2026-05-02T10:48:05.001Z</time></trkpt><trkpt lat="40.382353211137215" lon="9.385294705404599"><ele>385.0</ele><time>2026-05-02T10:48:06.001Z</time></trkpt><trkpt lat="40.3824274313681" lon="9.385436550166663"><ele>377.0</ele><time>2026-05-02T10:48:07.001Z</time></trkpt><trkpt lat="40.3824764377901" lon="9.385585145522528"><ele>369.0</ele><time>2026-05-02T10:48:08.001Z</time></trkpt><trkpt lat="40.38249991442853" lon="9.385743088614383"><ele>361.0</ele><time>2026-05-02T10:48:09.001Z</time></trkpt><trkpt lat="40.382493308506014" lon="9.385901166437645"><ele>361.0</ele><time>2026-05-02T10:48:10.001Z</time></trkpt><trkpt lat="40.382449816355944" lon="9.386047287704214"><ele>361.0</ele><time>2026-05-02T10:48:11.001Z</time></trkpt><trkpt lat="40.382370139976096" lon="9.386181203742241"><ele>361.0</ele><time>2026-05-02T10:48:12.001Z</time></trkpt><trkpt lat="40.38225592345839" lon="9.386309554225246"><ele>361.0</ele><time>2026-05-02T10:48:13.001Z</time></trkpt><trkpt lat="40.38214408483389" lon="9.38641545415842"><ele>359.0</ele><time>2026-05-02T10:48:14.001Z</time></trkpt><trkpt lat="40.382034443237" lon="9.386480818992606"><ele>357.0</ele><time>2026-05-02T10:48:15.001Z</time></trkpt><trkpt lat="40.3819194317796" lon="9.386508283542687"><ele>355.0</ele><time>2026-05-02T10:48:16.001Z</time></trkpt><trkpt lat="40.38178776730045" lon="9.386494306220468"><ele>353.0</ele><time>2026-05-02T10:48:17.001Z</time></trkpt><trkpt lat="40.381642096446384" lon="9.386447454422601"><ele>353.0</ele><time>2026-05-02T10:48:18.001Z</time></trkpt><trkpt lat="40.38149590849736" lon="9.386403694321993"><ele>353.0</ele><time>2026-05-02T10:48:19.001Z</time></trkpt><trkpt lat="40.381358690610305" lon="9.38638484109759"><ele>353.0</ele><time>2026-05-02T10:48:20.001Z</time></trkpt><trkpt lat="40.38122998108938" lon="9.38640276021906"><ele>353.0</ele><time>2026-05-02T10:48:21Z</time></trkpt><trkpt lat="40.38110460221801" lon="9.386469254100495"><ele>355.6666666666667</ele><time>2026-05-02T10:48:22Z</time></trkpt><trkpt lat="40.38098661555268" lon="9.386579899068465"><ele>358.3333333333333</ele><time>2026-05-02T10:48:23Z</time></trkpt><trkpt lat="40.38089048986674" lon="9.38672769840097"><ele>361.0</ele><time>2026-05-02T10:48:24Z</time></trkpt><trkpt lat="40.380795649259554" lon="9.386917859319349"><ele>361.0</ele><time>2026-05-02T10:48:25Z</time></trkpt><trkpt lat="40.38069918851768" lon="9.387099217921248"><ele>361.0</ele><time>2026-05-02T10:48:26Z</time></trkpt><trkpt lat="40.380607817857744" lon="9.387260945524476"><ele>361.0</ele><time>2026-05-02T10:48:27Z</time></trkpt><trkpt lat="40.3805150998682" lon="9.387420382540803"><ele>358.5</ele><time>2026-05-02T10:48:28Z</time></trkpt><trkpt lat="40.380428876344276" lon="9.387571741053945"><ele>356.0</ele><time>2026-05-02T10:48:29Z</time></trkpt><trkpt lat="40.38035027056812" lon="9.387696278777177"><ele>353.5</ele><time>2026-05-02T10:48:30Z</time></trkpt><trkpt lat="40.38027202004906" lon="9.387793940158089"><ele>351.0</ele><time>2026-05-02T10:48:31Z</time></trkpt><trkpt lat="40.3801914077239" lon="9.387845141089478"><ele>351.0</ele><time>2026-05-02T10:48:32Z</time></trkpt><trkpt lat="40.38010807173936" lon="9.387846771694361"><ele>351.0</ele><time>2026-05-02T10:48:33Z</time></trkpt><trkpt lat="40.38003616753076" lon="9.387790951997593"><ele>351.0</ele><time>2026-05-02T10:48:34Z</time></trkpt><trkpt lat="40.379959150527846" lon="9.387690515115404"><ele>351.0</ele><time>2026-05-02T10:48:35Z</time></trkpt><trkpt lat="40.379874581590514" lon="9.387607183678707"><ele>351.0</ele><time>2026-05-02T10:48:36Z</time></trkpt><trkpt lat="40.37977283932824" lon="9.387560368185406"><ele>350.8</ele><time>2026-05-02T10:48:37Z</time></trkpt><trkpt lat="40.37966508312212" lon="9.387522563666328"><ele>350.6</ele><time>2026-05-02T10:48:38Z</time></trkpt><trkpt lat="40.379571592174614" lon="9.38747085703659"><ele>350.4</ele><time>2026-05-02T10:48:39Z</time></trkpt><trkpt lat="40.37950005767898" lon="9.387380579451701"><ele>350.2</ele><time>2026-05-02T10:48:40Z</time></trkpt><trkpt lat="40.379444104252514" lon="9.387245618399932"><ele>350.0</ele><time>2026-05-02T10:48:41Z</time></trkpt><trkpt lat="40.379368875193705" lon="9.387089600499081"><ele>350.0</ele><time>2026-05-02T10:48:42Z</time></trkpt><trkpt lat="40.37927632034399" lon="9.386948836941025"><ele>350.0</ele><time>2026-05-02T10:48:43Z</time></trkpt><trkpt lat="40.37918829253759" lon="9.386842532053826"><ele>350.0</ele><time>2026-05-02T10:48:44Z</time></trkpt><trkpt lat="40.37910331829279" lon="9.386767296355853"><ele>350.0</ele><time>2026-05-02T10:48:45Z</time></trkpt><trkpt lat="40.37901624100999" lon="9.386738029410733"><ele>350.0</ele><time>2026-05-02T10:48:46Z</time></trkpt><trkpt lat="40.378919180404125" lon="9.38675694351605"><ele>350.0</ele><time>2026-05-02T10:48:47Z</time></trkpt><trkpt lat="40.37881160550239" lon="9.386817395863414"><ele>350.0</ele><time>2026-05-02T10:48:48Z</time></trkpt><trkpt lat="40.378716145456146" lon="9.386899121760775"><ele>350.0</ele><time>2026-05-02T10:48:49Z</time></trkpt><trkpt lat="40.37863323145558" lon="9.386950179101408"><ele>350.0</ele><time>2026-05-02T10:48:50Z</time></trkpt><trkpt lat="40.37853979350417" lon="9.386954735478733"><ele>346.5</ele><time>2026-05-02T10:48:51Z</time></trkpt><trkpt lat="40.378436188909404" lon="9.386898452720365"><ele>343.0</ele><time>2026-05-02T10:48:52Z</time></trkpt><trkpt lat="40.378307421574945" lon="9.386828637220166"><ele>339.5</ele><time>2026-05-02T10:48:53Z</time></trkpt><trkpt lat="40.37816509349751" lon="9.386773338541435"><ele>336.0</ele><time>2026-05-02T10:48:54Z</time></trkpt><trkpt lat="40.37799811829298" lon="9.386726823162443"><ele>334.0</ele><time>2026-05-02T10:48:55Z</time></trkpt><trkpt lat="40.37783931907235" lon="9.386686593803597"><ele>332.0</ele><time>2026-05-02T10:48:56Z</time></trkpt><trkpt lat="40.3776989716557" lon="9.386653623989503"><ele>330.0</ele><time>2026-05-02T10:48:57Z</time></trkpt><trkpt lat="40.37756879258862" lon="9.386667967495876"><ele>328.0</ele><time>2026-05-02T10:48:58Z</time></trkpt><trkpt lat="40.377439551406624" lon="9.386734439206576"><ele>328.0</ele><time>2026-05-02T10:48:59Z</time></trkpt><trkpt lat="40.3772926756496" lon="9.38683025585976"><ele>328.0</ele><time>2026-05-02T10:49:00Z</time></trkpt><trkpt lat="40.37715476456716" lon="9.386889658438514"><ele>328.0</ele><time>2026-05-02T10:49:01Z</time></trkpt><trkpt lat="40.377040101582544" lon="9.386908399126668"><ele>328.0</ele><time>2026-05-02T10:49:02Z</time></trkpt><trkpt lat="40.37695452279217" lon="9.386897924164032"><ele>326.2</ele><time>2026-05-02T10:49:03Z</time></trkpt><trkpt lat="40.37689292860773" lon="9.386834426548495"><ele>324.4</ele><time>2026-05-02T10:49:04Z</time></trkpt><trkpt lat="40.37684063149363" lon="9.38672374357245"><ele>322.59999999999997</ele><time>2026-05-02T10:49:05Z</time></trkpt><trkpt lat="40.376765464447374" lon="9.386595603205382"><ele>320.79999999999995</ele><time>2026-05-02T10:49:06Z</time></trkpt><trkpt lat="40.37666147819049" lon="9.386489376477172"><ele>319.0</ele><time>2026-05-02T10:49:07Z</time></trkpt><trkpt lat="40.376530836853" lon="9.38642094884121"><ele>319.0</ele><time>2026-05-02T10:49:08Z</time></trkpt><trkpt lat="40.3763718606598" lon="9.386379217439542"><ele>319.0</ele><time>2026-05-02T10:49:09Z</time></trkpt><trkpt lat="40.376207941991424" lon="9.38636610903147"><ele>319.0</ele><time>2026-05-02T10:49:10Z</time></trkpt><trkpt lat="40.37605739806215" lon="9.386369895885688"><ele>320.0</ele><time>2026-05-02T10:49:11Z</time></trkpt><trkpt lat="40.37591813383377" lon="9.38636110427047"><ele>321.0</ele><time>2026-05-02T10:49:12Z</time></trkpt><trkpt lat="40.3757917844639" lon="9.386320492656942"><ele>322.0</ele><time>2026-05-02T10:49:13Z</time></trkpt><trkpt lat="40.37567292489191" lon="9.386226492281791"><ele>323.0</ele><time>2026-05-02T10:49:14Z</time></trkpt><trkpt lat="40.375541023758394" lon="9.386097723079875"><ele>316.6666666666667</ele><time>2026-05-02T10:49:15Z</time></trkpt><trkpt lat="40.375397388996745" lon="9.385973197386758"><ele>310.3333333333333</ele><time>2026-05-02T10:49:16Z</time></trkpt><trkpt lat="40.3752476629267" lon="9.385877413390205"><ele>304.0</ele><time>2026-05-02T10:49:17Z</time></trkpt><trkpt lat="40.37510434272461" lon="9.385799244213997"><ele>304.0</ele><time>2026-05-02T10:49:18Z</time></trkpt><trkpt lat="40.37498912868015" lon="9.385727264952292"><ele>304.0</ele><time>2026-05-02T10:49:19Z</time></trkpt><trkpt lat="40.37490747999625" lon="9.38564587057695"><ele>304.0</ele><time>2026-05-02T10:49:20Z</time></trkpt><trkpt lat="40.37486547604573" lon="9.385544756718494"><ele>304.0</ele><time>2026-05-02T10:49:21Z</time></trkpt><trkpt lat="40.37486455463258" lon="9.385425707528352"><ele>304.0</ele><time>2026-05-02T10:49:22Z</time></trkpt><trkpt lat="40.3748953268088" lon="9.385286932767444"><ele>303.0</ele><time>2026-05-02T10:49:23Z</time></trkpt><trkpt lat="40.37495523741559" lon="9.385140911011911"><ele>302.0</ele><time>2026-05-02T10:49:24Z</time></trkpt><trkpt lat="40.37503974456706" lon="9.38499472459075"><ele>301.0</ele><time>2026-05-02T10:49:25Z</time></trkpt><trkpt lat="40.37514567108273" lon="9.384861457971024"><ele>300.0</ele><time>2026-05-02T10:49:26Z</time></trkpt><trkpt lat="40.375271657284536" lon="9.384762586533595"><ele>303.0</ele><time>2026-05-02T10:49:27Z</time></trkpt><trkpt lat="40.37541150456987" lon="9.384677509430972"><ele>306.0</ele><time>2026-05-02T10:49:28Z</time></trkpt><trkpt lat="40.37551931991677" lon="9.384606467311455"><ele>309.0</ele><time>2026-05-02T10:49:29Z</time></trkpt><trkpt lat="40.37559017841346" lon="9.384515200732725"><ele>312.0</ele><time>2026-05-02T10:49:30Z</time></trkpt><trkpt lat="40.375630951751546" lon="9.384390431132674"><ele>312.0</ele><time>2026-05-02T10:49:31Z</time></trkpt><trkpt lat="40.37563549839382" lon="9.384234420421407"><ele>312.0</ele><time>2026-05-02T10:49:32Z</time></trkpt><trkpt lat="40.37561262637091" lon="9.384060428474593"><ele>312.0</ele><time>2026-05-02T10:49:33Z</time></trkpt><trkpt lat="40.37557231525711" lon="9.383913420770826"><ele>312.0</ele><time>2026-05-02T10:49:34Z</time></trkpt><trkpt lat="40.37550386575733" lon="9.38379283258339"><ele>308.25</ele><time>2026-05-02T10:49:35Z</time></trkpt><trkpt lat="40.37540408541852" lon="9.383688916476503"><ele>304.5</ele><time>2026-05-02T10:49:36Z</time></trkpt><trkpt lat="40.37528687956724" lon="9.38358130594518"><ele>300.75</ele><time>2026-05-02T10:49:37Z</time></trkpt><trkpt lat="40.37516698984964" lon="9.383485173551966"><ele>297.0</ele><time>2026-05-02T10:49:38Z</time></trkpt><trkpt lat="40.375038060594015" lon="9.383399936976192"><ele>297.0</ele><time>2026-05-02T10:49:39Z</time></trkpt><trkpt lat="40.37491118353499" lon="9.383331283910383"><ele>297.0</ele><time>2026-05-02T10:49:40Z</time></trkpt><trkpt lat="40.374780564877234" lon="9.383295493345951"><ele>297.0</ele><time>2026-05-02T10:49:41Z</time></trkpt><trkpt lat="40.37464308831511" lon="9.383290498183467"><ele>297.0</ele><time>2026-05-02T10:49:42Z</time></trkpt><trkpt lat="40.374515435572576" lon="9.383292440809413"><ele>294.3333333333333</ele><time>2026-05-02T10:49:43Z</time></trkpt><trkpt lat="40.37440202671506" lon="9.383280134430391"><ele>291.6666666666667</ele><time>2026-05-02T10:49:44Z</time></trkpt><trkpt lat="40.37431124016184" lon="9.383249655713355"><ele>289.0</ele><time>2026-05-02T10:49:45Z</time></trkpt><trkpt lat="40.374249242352896" lon="9.383192190264506"><ele>286.33333333333337</ele><time>2026-05-02T10:49:46Z</time></trkpt><trkpt lat="40.37421576117281" lon="9.383108372128001"><ele>283.6666666666667</ele><time>2026-05-02T10:49:47Z</time></trkpt><trkpt lat="40.374215743236164" lon="9.383006642532193"><ele>281.0</ele><time>2026-05-02T10:49:48Z</time></trkpt><trkpt lat="40.374252693901894" lon="9.38290886530258"><ele>280.6</ele><time>2026-05-02T10:49:49Z</time></trkpt><trkpt lat="40.374325944017365" lon="9.382820125361281"><ele>280.20000000000005</ele><time>2026-05-02T10:49:50Z</time></trkpt><trkpt lat="40.37442987091141" lon="9.382749553953714"><ele>279.79999999999995</ele><time>2026-05-02T10:49:51Z</time></trkpt><trkpt lat="40.37452140060143" lon="9.382673934508697"><ele>279.4</ele><time>2026-05-02T10:49:52Z</time></trkpt><trkpt lat="40.37458677983112" lon="9.382562760617812"><ele>279.0</ele><time>2026-05-02T10:49:53Z</time></trkpt><trkpt lat="40.374641760290615" lon="9.382409973049157"><ele>279.0</ele><time>2026-05-02T10:49:54Z</time></trkpt><trkpt lat="40.37468439337133" lon="9.38223101682056"><ele>279.0</ele><time>2026-05-02T10:49:55Z</time></trkpt><trkpt lat="40.37472055534815" lon="9.382057469671068"><ele>279.0</ele><time>2026-05-02T10:49:56Z</time></trkpt><trkpt lat="40.374764410836434" lon="9.381890416985232"><ele>279.0</ele><time>2026-05-02T10:49:57Z</time></trkpt><trkpt lat="40.374826193940805" lon="9.381732637519486"><ele>281.5</ele><time>2026-05-02T10:49:58Z</time></trkpt><trkpt lat="40.37490519653405" lon="9.381588429308822"><ele>284.0</ele><time>2026-05-02T10:49:59Z</time></trkpt><trkpt lat="40.374990911233716" lon="9.381463460242113"><ele>286.5</ele><time>2026-05-02T10:50:00Z</time></trkpt><trkpt lat="40.375096136659735" lon="9.381342970468241"><ele>289.0</ele><time>2026-05-02T10:50:01Z</time></trkpt><trkpt lat="40.37522686082387" lon="9.38123999928973"><ele>285.75</ele><time>2026-05-02T10:50:02Z</time></trkpt><trkpt lat="40.37536197087673" lon="9.38115619881442"><ele>282.5</ele><time>2026-05-02T10:50:03Z</time></trkpt><trkpt lat="40.375492408336434" lon="9.381080774507671"><ele>279.25</ele><time>2026-05-02T10:50:04Z</time></trkpt><trkpt lat="40.375626563295704" lon="9.381020514212382"><ele>276.0</ele><time>2026-05-02T10:50:05Z</time></trkpt><trkpt lat="40.375774138759944" lon="9.380996279075742"><ele>276.0</ele><time>2026-05-02T10:50:06Z</time></trkpt><trkpt lat="40.375910195634326" lon="9.38099091974236"><ele>276.0</ele><time>2026-05-02T10:50:07Z</time></trkpt><trkpt lat="40.3760242187408" lon="9.380983643920835"><ele>276.0</ele><time>2026-05-02T10:50:08Z</time></trkpt><trkpt lat="40.37611930757773" lon="9.380942746181091"><ele>276.0</ele><time>2026-05-02T10:50:09Z</time></trkpt><trkpt lat="40.376193819072874" lon="9.380854266634524"><ele>276.0</ele><time>2026-05-02T10:50:10Z</time></trkpt><trkpt lat="40.376256051285516" lon="9.380720791522645"><ele>276.0</ele><time>2026-05-02T10:50:11Z</time></trkpt><trkpt lat="40.37629237792272" lon="9.380587160696598"><ele>276.0</ele><time>2026-05-02T10:50:12.001Z</time></trkpt><trkpt lat="40.37630596884672" lon="9.380454096399632"><ele>276.0</ele><time>2026-05-02T10:50:13.001Z</time></trkpt><trkpt lat="40.37629057636849" lon="9.380316288945947"><ele>276.0</ele><time>2026-05-02T10:50:14.001Z</time></trkpt><trkpt lat="40.376240777018275" lon="9.38016655918355"><ele>275.5</ele><time>2026-05-02T10:50:15.001Z</time></trkpt><trkpt lat="40.376176723794565" lon="9.380019110925463"><ele>275.0</ele><time>2026-05-02T10:50:16.001Z</time></trkpt><trkpt lat="40.37610885793791" lon="9.379887591158305"><ele>274.5</ele><time>2026-05-02T10:50:17.001Z</time></trkpt><trkpt lat="40.37602070191804" lon="9.379766322359048"><ele>274.0</ele><time>2026-05-02T10:50:18.001Z</time></trkpt><trkpt lat="40.37590780022006" lon="9.379658882046341"><ele>274.0</ele><time>2026-05-02T10:50:19.001Z</time></trkpt><trkpt lat="40.37578737314829" lon="9.379567119491256"><ele>274.0</ele><time>2026-05-02T10:50:20.001Z</time></trkpt><trkpt lat="40.375664130431076" lon="9.379478439166057"><ele>274.0</ele><time>2026-05-02T10:50:21.001Z</time></trkpt><trkpt lat="40.37554807917488" lon="9.37938907475185"><ele>274.0</ele><time>2026-05-02T10:50:22.001Z</time></trkpt><trkpt lat="40.37543480522986" lon="9.379306048204905"><ele>270.25</ele><time>2026-05-02T10:50:23.001Z</time></trkpt><trkpt lat="40.375321007175195" lon="9.379232250238621"><ele>266.5</ele><time>2026-05-02T10:50:24.001Z</time></trkpt><trkpt lat="40.375196135600945" lon="9.379188392524943"><ele>262.75</ele><time>2026-05-02T10:50:25.001Z</time></trkpt><trkpt lat="40.37505671999776" lon="9.379178811151128"><ele>259.0</ele><time>2026-05-02T10:50:26.001Z</time></trkpt><trkpt lat="40.374910291743866" lon="9.379174654948947"><ele>259.0</ele><time>2026-05-02T10:50:26.999Z</time></trkpt><trkpt lat="40.374765601571596" lon="9.379154843877048"><ele>259.0</ele><time>2026-05-02T10:50:27.999Z</time></trkpt><trkpt lat="40.37462848845599" lon="9.379120470789966"><ele>259.0</ele><time>2026-05-02T10:50:28.999Z</time></trkpt><trkpt lat="40.37448033440232" lon="9.379078968823519"><ele>259.0</ele><time>2026-05-02T10:50:29.999Z</time></trkpt><trkpt lat="40.37432820337917" lon="9.379018758253801"><ele>260.0</ele><time>2026-05-02T10:50:30.999Z</time></trkpt><trkpt lat="40.37416980964125" lon="9.378925997620156"><ele>261.0</ele><time>2026-05-02T10:50:31.999Z</time></trkpt><trkpt lat="40.37401262229518" lon="9.378842481980168"><ele>262.0</ele><time>2026-05-02T10:50:32.999Z</time></trkpt><trkpt lat="40.37386128642635" lon="9.378780377091092"><ele>258.66666666666663</ele><time>2026-05-02T10:50:33.999Z</time></trkpt><trkpt lat="40.37370983116176" lon="9.378727800487027"><ele>255.33333333333331</ele><time>2026-05-02T10:50:34.999Z</time></trkpt><trkpt lat="40.3735563182202" lon="9.378674058979684"><ele>252.0</ele><time>2026-05-02T10:50:35.999Z</time></trkpt><trkpt lat="40.37339885692914" lon="9.37863726897974"><ele>252.0</ele><time>2026-05-02T10:50:36.999Z</time></trkpt><trkpt lat="40.373250430337464" lon="9.378616215812388"><ele>252.0</ele><time>2026-05-02T10:50:37.999Z</time></trkpt><trkpt lat="40.37310657113805" lon="9.378600359799108"><ele>252.0</ele><time>2026-05-02T10:50:38.999Z</time></trkpt><trkpt lat="40.372986535338825" lon="9.378584956670439"><ele>252.0</ele><time>2026-05-02T10:50:39.999Z</time></trkpt><trkpt lat="40.372889201438305" lon="9.378549460042388"><ele>248.39999999999998</ele><time>2026-05-02T10:50:40.999Z</time></trkpt><trkpt lat="40.37280068852493" lon="9.378474126024509"><ele>244.79999999999998</ele><time>2026-05-02T10:50:42Z</time></trkpt><trkpt lat="40.37274460129089" lon="9.378384461652265"><ele>241.2</ele><time>2026-05-02T10:50:43Z</time></trkpt><trkpt lat="40.37272464355011" lon="9.378270798441026"><ele>237.6</ele><time>2026-05-02T10:50:44Z</time></trkpt><trkpt lat="40.37274817884314" lon="9.3781359524997"><ele>234.0</ele><time>2026-05-02T10:50:45Z</time></trkpt><trkpt lat="40.37279528497316" lon="9.377972299044295"><ele>232.5</ele><time>2026-05-02T10:50:46Z</time></trkpt><trkpt lat="40.372844468710994" lon="9.377802462428138"><ele>231.0</ele><time>2026-05-02T10:50:47Z</time></trkpt><trkpt lat="40.372882789252934" lon="9.377639067467824"><ele>229.5</ele><time>2026-05-02T10:50:48Z</time></trkpt><trkpt lat="40.372913975490576" lon="9.37748878069796"><ele>228.0</ele><time>2026-05-02T10:50:49Z</time></trkpt><trkpt lat="40.37297405537483" lon="9.377359059036356"><ele>227.25</ele><time>2026-05-02T10:50:50Z</time></trkpt><trkpt lat="40.37307081048972" lon="9.377249762905498"><ele>226.5</ele><time>2026-05-02T10:50:51Z</time></trkpt><trkpt lat="40.37319886328711" lon="9.377142621570357"><ele>225.75</ele><time>2026-05-02T10:50:52Z</time></trkpt><trkpt lat="40.37333718596725" lon="9.377036146891255"><ele>225.0</ele><time>2026-05-02T10:50:53Z</time></trkpt><trkpt lat="40.3734791952036" lon="9.376926278158228"><ele>225.0</ele><time>2026-05-02T10:50:54Z</time></trkpt><trkpt lat="40.37361115476357" lon="9.376822600110234"><ele>225.0</ele><time>2026-05-02T10:50:55Z</time></trkpt><trkpt lat="40.373737859868086" lon="9.376730702947567"><ele>225.0</ele><time>2026-05-02T10:50:56Z</time></trkpt><trkpt lat="40.37386191588904" lon="9.376647519648634"><ele>225.0</ele><time>2026-05-02T10:50:57Z</time></trkpt><trkpt lat="40.373987317510796" lon="9.376561128905147"><ele>226.75</ele><time>2026-05-02T10:50:58Z</time></trkpt><trkpt lat="40.374116639959915" lon="9.376458012952614"><ele>228.5</ele><time>2026-05-02T10:50:59Z</time></trkpt><trkpt lat="40.374237011394136" lon="9.376348159920504"><ele>230.25</ele><time>2026-05-02T10:51:00Z</time></trkpt><trkpt lat="40.374352640542575" lon="9.376243761924794"><ele>232.0</ele><time>2026-05-02T10:51:01Z</time></trkpt><trkpt lat="40.37446632462843" lon="9.376151752928209"><ele>231.75</ele><time>2026-05-02T10:51:02Z</time></trkpt><trkpt lat="40.37456530867584" lon="9.376061620339906"><ele>231.5</ele><time>2026-05-02T10:51:03Z</time></trkpt><trkpt lat="40.374642531408426" lon="9.375955904879238"><ele>231.25</ele><time>2026-05-02T10:51:04Z</time></trkpt><trkpt lat="40.374689463580886" lon="9.375828119228126"><ele>231.0</ele><time>2026-05-02T10:51:05Z</time></trkpt><trkpt lat="40.37470356380141" lon="9.375680845603911"><ele>227.0</ele><time>2026-05-02T10:51:06Z</time></trkpt><trkpt lat="40.37468104060635" lon="9.375513248239033"><ele>223.0</ele><time>2026-05-02T10:51:07Z</time></trkpt><trkpt lat="40.374645612733794" lon="9.375333158101828"><ele>219.0</ele><time>2026-05-02T10:51:08Z</time></trkpt><trkpt lat="40.37461076720742" lon="9.375176139108543"><ele>215.0</ele><time>2026-05-02T10:51:09Z</time></trkpt><trkpt lat="40.37456726776257" lon="9.375041670188745"><ele>215.0</ele><time>2026-05-02T10:51:10Z</time></trkpt><trkpt lat="40.37449737538233" lon="9.374937110198045"><ele>215.0</ele><time>2026-05-02T10:51:11Z</time></trkpt><trkpt lat="40.37439968470161" lon="9.374872461636363"><ele>215.0</ele><time>2026-05-02T10:51:12Z</time></trkpt><trkpt lat="40.374272201138496" lon="9.374843848544966"><ele>215.0</ele><time>2026-05-02T10:51:13Z</time></trkpt><trkpt lat="40.37412232368162" lon="9.37481748235747"><ele>215.0</ele><time>2026-05-02T10:51:14Z</time></trkpt><trkpt lat="40.37398917317736" lon="9.374772381038929"><ele>215.0</ele><time>2026-05-02T10:51:15Z</time></trkpt><trkpt lat="40.3738666527128" lon="9.374707613838826"><ele>215.0</ele><time>2026-05-02T10:51:16Z</time></trkpt><trkpt lat="40.373753101632694" lon="9.37464100617135"><ele>215.0</ele><time>2026-05-02T10:51:17Z</time></trkpt><trkpt lat="40.37364226516331" lon="9.374554831628364"><ele>213.75</ele><time>2026-05-02T10:51:18Z</time></trkpt><trkpt lat="40.37353569879378" lon="9.374436796328165"><ele>212.5</ele><time>2026-05-02T10:51:19Z</time></trkpt><trkpt lat="40.37344974213645" lon="9.3742924449174"><ele>211.25</ele><time>2026-05-02T10:51:20Z</time></trkpt><trkpt lat="40.3733823745676" lon="9.374145799662282"><ele>210.0</ele><time>2026-05-02T10:51:21Z</time></trkpt><trkpt lat="40.37333638778402" lon="9.373995626135265"><ele>210.25</ele><time>2026-05-02T10:51:22Z</time></trkpt><trkpt lat="40.37331883179031" lon="9.373843133019127"><ele>210.5</ele><time>2026-05-02T10:51:23Z</time></trkpt><trkpt lat="40.37332239235466" lon="9.373686906022176"><ele>210.75</ele><time>2026-05-02T10:51:24Z</time></trkpt><trkpt lat="40.37331744825243" lon="9.373539875733849"><ele>211.0</ele><time>2026-05-02T10:51:25Z</time></trkpt><trkpt lat="40.37328524572662" lon="9.373402160548627"><ele>211.0</ele><time>2026-05-02T10:51:26Z</time></trkpt><trkpt lat="40.37322259964152" lon="9.373286323813055"><ele>211.0</ele><time>2026-05-02T10:51:27Z</time></trkpt><trkpt lat="40.37313761251785" lon="9.373188487613021"><ele>211.0</ele><time>2026-05-02T10:51:28Z</time></trkpt><trkpt lat="40.37303838956073" lon="9.37310110572936"><ele>211.0</ele><time>2026-05-02T10:51:29Z</time></trkpt><trkpt lat="40.37292857823126" lon="9.373013433141992"><ele>210.25</ele><time>2026-05-02T10:51:30Z</time></trkpt><trkpt lat="40.372816477758704" lon="9.372917354443738"><ele>209.5</ele><time>2026-05-02T10:51:31Z</time></trkpt><trkpt lat="40.37271234387849" lon="9.372803960312659"><ele>208.75</ele><time>2026-05-02T10:51:32Z</time></trkpt><trkpt lat="40.37262729761274" lon="9.372669411478226"><ele>208.0</ele><time>2026-05-02T10:51:33Z</time></trkpt><trkpt lat="40.37254692533155" lon="9.372532989096335"><ele>208.0</ele><time>2026-05-02T10:51:34Z</time></trkpt><trkpt lat="40.37246079472844" lon="9.3724215425311"><ele>208.0</ele><time>2026-05-02T10:51:35Z</time></trkpt><trkpt lat="40.37236123354937" lon="9.372330189928928"><ele>208.0</ele><time>2026-05-02T10:51:36Z</time></trkpt><trkpt lat="40.3722523830142" lon="9.372274037459746"><ele>208.0</ele><time>2026-05-02T10:51:37Z</time></trkpt><trkpt lat="40.37213993831946" lon="9.37226287087959"><ele>205.0</ele><time>2026-05-02T10:51:38Z</time></trkpt><trkpt lat="40.37202729653789" lon="9.372301587016905"><ele>202.0</ele><time>2026-05-02T10:51:39Z</time></trkpt><trkpt lat="40.371917874557695" lon="9.37236943942136"><ele>199.0</ele><time>2026-05-02T10:51:40Z</time></trkpt><trkpt lat="40.37180149691698" lon="9.37244756678646"><ele>196.0</ele><time>2026-05-02T10:51:41Z</time></trkpt><trkpt lat="40.37169129885948" lon="9.372522713302178"><ele>196.0</ele><time>2026-05-02T10:51:42Z</time></trkpt><trkpt lat="40.37158296673256" lon="9.37259522295297"><ele>196.0</ele><time>2026-05-02T10:51:43Z</time></trkpt><trkpt lat="40.371475807954674" lon="9.372655062034953"><ele>196.0</ele><time>2026-05-02T10:51:44Z</time></trkpt><trkpt lat="40.371365371171024" lon="9.372682741169656"><ele>196.0</ele><time>2026-05-02T10:51:45Z</time></trkpt><trkpt lat="40.37125806226771" lon="9.372672619812755"><ele>193.5</ele><time>2026-05-02T10:51:46Z</time></trkpt><trkpt lat="40.37116024866165" lon="9.37262027502489"><ele>191.0</ele><time>2026-05-02T10:51:47Z</time></trkpt><trkpt lat="40.371069865990826" lon="9.372526080367331"><ele>188.5</ele><time>2026-05-02T10:51:48Z</time></trkpt><trkpt lat="40.37097194815685" lon="9.372414513688817"><ele>186.0</ele><time>2026-05-02T10:51:49Z</time></trkpt><trkpt lat="40.37086512082533" lon="9.372302669928521"><ele>186.0</ele><time>2026-05-02T10:51:50Z</time></trkpt><trkpt lat="40.37076395686244" lon="9.37219833142389"><ele>186.0</ele><time>2026-05-02T10:51:51Z</time></trkpt><trkpt lat="40.37067601952088" lon="9.372082447286555"><ele>186.0</ele><time>2026-05-02T10:51:52Z</time></trkpt><trkpt lat="40.37060323003733" lon="9.37195596774735"><ele>186.0</ele><time>2026-05-02T10:51:53Z</time></trkpt><trkpt lat="40.370549138328045" lon="9.371816388665566"><ele>188.5</ele><time>2026-05-02T10:51:54Z</time></trkpt><trkpt lat="40.37052935707286" lon="9.371665186038527"><ele>191.0</ele><time>2026-05-02T10:51:55Z</time></trkpt><trkpt lat="40.37053919836851" lon="9.371508898497865"><ele>193.5</ele><time>2026-05-02T10:51:56Z</time></trkpt><trkpt lat="40.370562740469566" lon="9.371341912652166"><ele>196.0</ele><time>2026-05-02T10:51:57Z</time></trkpt><trkpt lat="40.370565982134025" lon="9.371185730976432"><ele>197.0</ele><time>2026-05-02T10:51:58Z</time></trkpt><trkpt lat="40.370534329220014" lon="9.371040302524477"><ele>198.0</ele><time>2026-05-02T10:51:59Z</time></trkpt><trkpt lat="40.37046786992403" lon="9.37091863893161"><ele>199.0</ele><time>2026-05-02T10:52:00Z</time></trkpt><trkpt lat="40.37037926741533" lon="9.370827534266775"><ele>200.0</ele><time>2026-05-02T10:52:01Z</time></trkpt><trkpt lat="40.37027650191565" lon="9.370779985667033"><ele>196.6</ele><time>2026-05-02T10:52:02Z</time></trkpt><trkpt lat="40.37016713913892" lon="9.370776033302732"><ele>193.2</ele><time>2026-05-02T10:52:03Z</time></trkpt><trkpt lat="40.37006119684005" lon="9.37080175651771"><ele>189.8</ele><time>2026-05-02T10:52:04Z</time></trkpt><trkpt lat="40.369971803059244" lon="9.370864737893582"><ele>186.4</ele><time>2026-05-02T10:52:05Z</time></trkpt><trkpt lat="40.36988559485809" lon="9.370959553146232"><ele>183.0</ele><time>2026-05-02T10:52:06Z</time></trkpt><trkpt lat="40.36979384842953" lon="9.371082855371872"><ele>183.0</ele><time>2026-05-02T10:52:07Z</time></trkpt><trkpt lat="40.36970613805863" lon="9.371213135878063"><ele>183.0</ele><time>2026-05-02T10:52:08Z</time></trkpt><trkpt lat="40.36963679871401" lon="9.37134956567499"><ele>183.0</ele><time>2026-05-02T10:52:09Z</time></trkpt><trkpt lat="40.369590629334745" lon="9.371497593271494"><ele>183.0</ele><time>2026-05-02T10:52:10Z</time></trkpt><trkpt lat="40.36957283664055" lon="9.371652630964398"><ele>181.0</ele><time>2026-05-02T10:52:11Z</time></trkpt><trkpt lat="40.36958032559549" lon="9.371816565643021"><ele>179.0</ele><time>2026-05-02T10:52:12Z</time></trkpt><trkpt lat="40.3695948489104" lon="9.371994486764084"><ele>177.0</ele><time>2026-05-02T10:52:13Z</time></trkpt><trkpt lat="40.36961170714204" lon="9.372187340473781"><ele>175.0</ele><time>2026-05-02T10:52:14Z</time></trkpt><trkpt lat="40.36962808443464" lon="9.372388620757132"><ele>172.33333333333334</ele><time>2026-05-02T10:52:15Z</time></trkpt><trkpt lat="40.36963878962808" lon="9.372594472903314"><ele>169.66666666666666</ele><time>2026-05-02T10:52:16Z</time></trkpt><trkpt lat="40.36964750337508" lon="9.372794454643707"><ele>167.0</ele><time>2026-05-02T10:52:17Z</time></trkpt><trkpt lat="40.369661502160156" lon="9.372990505495975"><ele>165.75</ele><time>2026-05-02T10:52:18Z</time></trkpt><trkpt lat="40.369674481531085" lon="9.37318249079994"><ele>164.5</ele><time>2026-05-02T10:52:19Z</time></trkpt><trkpt lat="40.36967742821775" lon="9.373367415370161"><ele>163.25</ele><time>2026-05-02T10:52:20Z</time></trkpt><trkpt lat="40.36965945649287" lon="9.373548182391579"><ele>162.0</ele><time>2026-05-02T10:52:21Z</time></trkpt><trkpt lat="40.369620722251014" lon="9.373716295264567"><ele>160.25</ele><time>2026-05-02T10:52:22Z</time></trkpt><trkpt lat="40.36955988846249" lon="9.373870337746594"><ele>158.5</ele><time>2026-05-02T10:52:23Z</time></trkpt><trkpt lat="40.369472153385324" lon="9.374011433897378"><ele>156.75</ele><time>2026-05-02T10:52:24.001Z</time></trkpt><trkpt lat="40.36936728050857" lon="9.374134024529933"><ele>155.0</ele><time>2026-05-02T10:52:25.001Z</time></trkpt><trkpt lat="40.369256849931915" lon="9.374240059092875"><ele>155.0</ele><time>2026-05-02T10:52:26.001Z</time></trkpt><trkpt lat="40.3691483906138" lon="9.374344662253755"><ele>155.0</ele><time>2026-05-02T10:52:27.001Z</time></trkpt><trkpt lat="40.36903757419875" lon="9.374452322805599"><ele>155.0</ele><time>2026-05-02T10:52:28.001Z</time></trkpt><trkpt lat="40.36892400532796" lon="9.374565424790463"><ele>155.0</ele><time>2026-05-02T10:52:29.001Z</time></trkpt><trkpt lat="40.368815307774" lon="9.374690632196662"><ele>153.33333333333331</ele><time>2026-05-02T10:52:30.001Z</time></trkpt><trkpt lat="40.36870932424573" lon="9.374829787744785"><ele>151.66666666666666</ele><time>2026-05-02T10:52:31.001Z</time></trkpt><trkpt lat="40.368597837957694" lon="9.374980839517326"><ele>150.0</ele><time>2026-05-02T10:52:32.001Z</time></trkpt><trkpt lat="40.36848441695648" lon="9.375134028383242"><ele>150.0</ele><time>2026-05-02T10:52:32.999Z</time></trkpt><trkpt lat="40.36838148461757" lon="9.375299172163466"><ele>150.0</ele><time>2026-05-02T10:52:33.999Z</time></trkpt><trkpt lat="40.36828761271069" lon="9.375474433391217"><ele>150.0</ele><time>2026-05-02T10:52:34.999Z</time></trkpt><trkpt lat="40.36822005568057" lon="9.375671538355371"><ele>150.33333333333334</ele><time>2026-05-02T10:52:35.999Z</time></trkpt><trkpt lat="40.36817825307423" lon="9.37587746769617"><ele>150.66666666666669</ele><time>2026-05-02T10:52:36.999Z</time></trkpt><trkpt lat="40.36814645200301" lon="9.37607558991718"><ele>151.0</ele><time>2026-05-02T10:52:37.999Z</time></trkpt><trkpt lat="40.368128497018425" lon="9.376294014313759"><ele>151.0</ele><time>2026-05-02T10:52:38.999Z</time></trkpt><trkpt lat="40.3681275600217" lon="9.376524600122915"><ele>151.0</ele><time>2026-05-02T10:52:39.999Z</time></trkpt><trkpt lat="40.368138058755775" lon="9.376754292820598"><ele>151.0</ele><time>2026-05-02T10:52:40.999Z</time></trkpt><trkpt lat="40.368150026872684" lon="9.376969990128105"><ele>151.0</ele><time>2026-05-02T10:52:41.999Z</time></trkpt><trkpt lat="40.368162399942726" lon="9.377169409817434"><ele>151.0</ele><time>2026-05-02T10:52:42.999Z</time></trkpt><trkpt lat="40.368168319277075" lon="9.377363122539023"><ele>151.0</ele><time>2026-05-02T10:52:43.999Z</time></trkpt><trkpt lat="40.36817719524962" lon="9.377557340771936"><ele>151.0</ele><time>2026-05-02T10:52:44.999Z</time></trkpt><trkpt lat="40.36820502827808" lon="9.377749111361641"><ele>149.66666666666669</ele><time>2026-05-02T10:52:45.999Z</time></trkpt><trkpt lat="40.36826422368638" lon="9.377942005159499"><ele>148.33333333333334</ele><time>2026-05-02T10:52:46.999Z</time></trkpt><trkpt lat="40.368334784612244" lon="9.378152420408894"><ele>147.0</ele><time>2026-05-02T10:52:47.999Z</time></trkpt><trkpt lat="40.36839174048231" lon="9.378380740701354"><ele>146.66666666666666</ele><time>2026-05-02T10:52:48.999Z</time></trkpt><trkpt lat="40.36841732197395" lon="9.3786030424979"><ele>146.33333333333331</ele><time>2026-05-02T10:52:49.999Z</time></trkpt><trkpt lat="40.368415871779554" lon="9.378817387727107"><ele>146.0</ele><time>2026-05-02T10:52:50.999Z</time></trkpt><trkpt lat="40.36839028524049" lon="9.379043680502784"><ele>146.0</ele><time>2026-05-02T10:52:51.999Z</time></trkpt><trkpt lat="40.3683700807568" lon="9.3792817230116"><ele>146.0</ele><time>2026-05-02T10:52:52.999Z</time></trkpt><trkpt lat="40.3683622617263" lon="9.379526640539778"><ele>146.0</ele><time>2026-05-02T10:52:53.999Z</time></trkpt><trkpt lat="40.368358615525224" lon="9.379758887624515"><ele>145.33333333333331</ele><time>2026-05-02T10:52:54.999Z</time></trkpt><trkpt lat="40.36835633962536" lon="9.379982409299249"><ele>144.66666666666666</ele><time>2026-05-02T10:52:55.999Z</time></trkpt><trkpt lat="40.36835604914148" lon="9.380198254479224"><ele>144.0</ele><time>2026-05-02T10:52:56.999Z</time></trkpt><trkpt lat="40.3683534628244" lon="9.380417027139414"><ele>143.66666666666666</ele><time>2026-05-02T10:52:57.999Z</time></trkpt><trkpt lat="40.36835386750541" lon="9.380637168038486"><ele>143.33333333333331</ele><time>2026-05-02T10:52:59Z</time></trkpt><trkpt lat="40.368354047069175" lon="9.38085058023353"><ele>143.0</ele><time>2026-05-02T10:53:00Z</time></trkpt><trkpt lat="40.36835086168034" lon="9.38106076033038"><ele>143.0</ele><time>2026-05-02T10:53:01Z</time></trkpt><trkpt lat="40.36834710722638" lon="9.381272577061026"><ele>143.0</ele><time>2026-05-02T10:53:02Z</time></trkpt><trkpt lat="40.368332808392516" lon="9.381488947075136"><ele>143.0</ele><time>2026-05-02T10:53:03Z</time></trkpt><trkpt lat="40.36830610865155" lon="9.381708425528714"><ele>143.0</ele><time>2026-05-02T10:53:04Z</time></trkpt><trkpt lat="40.36826606310943" lon="9.381929219090862"><ele>143.0</ele><time>2026-05-02T10:53:05Z</time></trkpt><trkpt lat="40.36822088099092" lon="9.38215328622484"><ele>143.0</ele><time>2026-05-02T10:53:06Z</time></trkpt><trkpt lat="40.36817456172422" lon="9.382372107416222"><ele>143.0</ele><time>2026-05-02T10:53:07Z</time></trkpt><trkpt lat="40.36812118685616" lon="9.382588980044213"><ele>143.0</ele><time>2026-05-02T10:53:08Z</time></trkpt><trkpt lat="40.36807804058379" lon="9.38280554847512"><ele>143.0</ele><time>2026-05-02T10:53:09Z</time></trkpt><trkpt lat="40.36804285032427" lon="9.383018503800876"><ele>141.0</ele><time>2026-05-02T10:53:10Z</time></trkpt><trkpt lat="40.368016634268294" lon="9.383227475083796"><ele>139.0</ele><time>2026-05-02T10:53:11Z</time></trkpt><trkpt lat="40.367999359622274" lon="9.383429813254894"><ele>137.0</ele><time>2026-05-02T10:53:12Z</time></trkpt><trkpt lat="40.367985116356586" lon="9.383632778381624"><ele>137.0</ele><time>2026-05-02T10:53:13Z</time></trkpt><trkpt lat="40.367975519968304" lon="9.383826034009417"><ele>137.0</ele><time>2026-05-02T10:53:14Z</time></trkpt><trkpt lat="40.3679710080865" lon="9.384018933751385"><ele>137.0</ele><time>2026-05-02T10:53:15Z</time></trkpt><trkpt lat="40.367985273564784" lon="9.384214039053234"><ele>137.0</ele><time>2026-05-02T10:53:16Z</time></trkpt><trkpt lat="40.36802692668106" lon="9.384388529677105"><ele>137.5</ele><time>2026-05-02T10:53:17Z</time></trkpt><trkpt lat="40.36808117780876" lon="9.384560485095609"><ele>138.0</ele><time>2026-05-02T10:53:18Z</time></trkpt><trkpt lat="40.368135614526224" lon="9.384736889999457"><ele>138.5</ele><time>2026-05-02T10:53:19Z</time></trkpt><trkpt lat="40.36818831137831" lon="9.384919524499194"><ele>139.0</ele><time>2026-05-02T10:53:20Z</time></trkpt><trkpt lat="40.36823956427525" lon="9.385094368018748"><ele>139.0</ele><time>2026-05-02T10:53:21Z</time></trkpt><trkpt lat="40.36828862741974" lon="9.385268837145144"><ele>139.0</ele><time>2026-05-02T10:53:22Z</time></trkpt><trkpt lat="40.36833195439013" lon="9.385446410763704"><ele>139.0</ele><time>2026-05-02T10:53:23Z</time></trkpt><trkpt lat="40.36836091109127" lon="9.385619452589925"><ele>139.0</ele><time>2026-05-02T10:53:24Z</time></trkpt><trkpt lat="40.36836793819642" lon="9.385783146426078"><ele>139.2</ele><time>2026-05-02T10:53:25Z</time></trkpt><trkpt lat="40.36834723862916" lon="9.385934398304352"><ele>139.4</ele><time>2026-05-02T10:53:26Z</time></trkpt><trkpt lat="40.36830432760614" lon="9.386071530666706"><ele>139.6</ele><time>2026-05-02T10:53:27Z</time></trkpt><trkpt lat="40.36824589953823" lon="9.386193785786437"><ele>139.8</ele><time>2026-05-02T10:53:28Z</time></trkpt><trkpt lat="40.368171103957835" lon="9.386285407108248"><ele>140.0</ele><time>2026-05-02T10:53:29Z</time></trkpt><trkpt lat="40.368081508406874" lon="9.386338775096693"><ele>138.75</ele><time>2026-05-02T10:53:30Z</time></trkpt><trkpt lat="40.36798287004282" lon="9.386357922365749"><ele>137.5</ele><time>2026-05-02T10:53:31Z</time></trkpt><trkpt lat="40.36787574940723" lon="9.386352537072794"><ele>136.25</ele><time>2026-05-02T10:53:32Z</time></trkpt><trkpt lat="40.367754961181305" lon="9.386343495323647"><ele>135.0</ele><time>2026-05-02T10:53:33Z</time></trkpt><trkpt lat="40.36762497149809" lon="9.386343303322807"><ele>135.0</ele><time>2026-05-02T10:53:34Z</time></trkpt><trkpt lat="40.36749072795222" lon="9.386348407906933"><ele>135.0</ele><time>2026-05-02T10:53:35Z</time></trkpt><trkpt lat="40.36736443793758" lon="9.386344646703169"><ele>135.0</ele><time>2026-05-02T10:53:36Z</time></trkpt><trkpt lat="40.36725008343754" lon="9.386335493471401"><ele>135.0</ele><time>2026-05-02T10:53:37Z</time></trkpt><trkpt lat="40.367155673768636" lon="9.386329499482972"><ele>136.0</ele><time>2026-05-02T10:53:38Z</time></trkpt><trkpt lat="40.36708913875004" lon="9.38634233617329"><ele>137.0</ele><time>2026-05-02T10:53:39Z</time></trkpt><trkpt lat="40.367022253123075" lon="9.386416158012752"><ele>138.0</ele><time>2026-05-02T10:53:41Z</time></trkpt><trkpt lat="40.367009002397026" lon="9.386537847246943"><ele>139.0</ele><time>2026-05-02T10:53:43Z</time></trkpt><trkpt lat="40.36700229844969" lon="9.386620910255512"><ele>140.0</ele><time>2026-05-02T10:53:44Z</time></trkpt><trkpt lat="40.36698175617353" lon="9.386718426557499"><ele>141.0</ele><time>2026-05-02T10:53:45Z</time></trkpt><trkpt lat="40.36695340786026" lon="9.386831612608049"><ele>141.2</ele><time>2026-05-02T10:53:46Z</time></trkpt><trkpt lat="40.366921901143364" lon="9.3869692302023"><ele>141.39999999999998</ele><time>2026-05-02T10:53:47Z</time></trkpt><trkpt lat="40.36689611307061" lon="9.387101570981986"><ele>141.6</ele><time>2026-05-02T10:53:48Z</time></trkpt><trkpt lat="40.366866572300204" lon="9.38724248380464"><ele>141.79999999999998</ele><time>2026-05-02T10:53:49Z</time></trkpt><trkpt lat="40.36683517758832" lon="9.387380690235496"><ele>142.0</ele><time>2026-05-02T10:53:50Z</time></trkpt><trkpt lat="40.366798272293124" lon="9.38750609132591"><ele>141.66666666666669</ele><time>2026-05-02T10:53:51Z</time></trkpt><trkpt lat="40.36675598707865" lon="9.387620238217313"><ele>141.33333333333334</ele><time>2026-05-02T10:53:52Z</time></trkpt><trkpt lat="40.36671135604761" lon="9.387720263037792"><ele>141.0</ele><time>2026-05-02T10:53:53Z</time></trkpt><trkpt lat="40.366668261697136" lon="9.387802392668572"><ele>140.66666666666666</ele><time>2026-05-02T10:53:54Z</time></trkpt><trkpt lat="40.36661160884254" lon="9.387891217876142"><ele>140.33333333333331</ele><time>2026-05-02T10:53:56Z</time></trkpt><trkpt lat="40.366571092640044" lon="9.387992076586565"><ele>140.0</ele><time>2026-05-02T10:54:39.999Z</time></trkpt><trkpt lat="40.36653374272589" lon="9.38807752562383"><ele>140.0</ele><time>2026-05-02T10:54:40.999Z</time></trkpt><trkpt lat="40.366492120393836" lon="9.38816185078719"><ele>140.0</ele><time>2026-05-02T10:54:41.999Z</time></trkpt><trkpt lat="40.366441374277606" lon="9.388253750234277"><ele>140.0</ele><time>2026-05-02T10:54:42.999Z</time></trkpt><trkpt lat="40.36636637693528" lon="9.388367463850194"><ele>140.0</ele><time>2026-05-02T10:54:43.999Z</time></trkpt><trkpt lat="40.3662874038727" lon="9.388465243835455"><ele>140.0</ele><time>2026-05-02T10:54:44.999Z</time></trkpt><trkpt lat="40.366199225742676" lon="9.388550770317911"><ele>140.0</ele><time>2026-05-02T10:54:45.999Z</time></trkpt><trkpt lat="40.36610513682966" lon="9.388633435551723"><ele>140.0</ele><time>2026-05-02T10:54:46.999Z</time></trkpt><trkpt lat="40.36600467252627" lon="9.388729253000776"><ele>140.0</ele><time>2026-05-02T10:54:47.999Z</time></trkpt><trkpt lat="40.365890010086225" lon="9.38884085756736"><ele>140.0</ele><time>2026-05-02T10:54:48.999Z</time></trkpt><trkpt lat="40.36578157827197" lon="9.388947201082658"><ele>139.66666666666666</ele><time>2026-05-02T10:54:49.999Z</time></trkpt><trkpt lat="40.365665377601324" lon="9.389056579608027"><ele>139.33333333333334</ele><time>2026-05-02T10:54:50.999Z</time></trkpt><trkpt lat="40.36554552933036" lon="9.389173656222086"><ele>139.0</ele><time>2026-05-02T10:54:51.999Z</time></trkpt><trkpt lat="40.365417842753985" lon="9.389298577537398"><ele>139.0</ele><time>2026-05-02T10:54:52.999Z</time></trkpt><trkpt lat="40.36529257953136" lon="9.389420071714897"><ele>139.0</ele><time>2026-05-02T10:54:53.999Z</time></trkpt><trkpt lat="40.36517188755558" lon="9.389548060690071"><ele>139.0</ele><time>2026-05-02T10:54:54.999Z</time></trkpt><trkpt lat="40.36504872448638" lon="9.389674737455024"><ele>138.0</ele><time>2026-05-02T10:54:55.999Z</time></trkpt><trkpt lat="40.36492295090158" lon="9.389802051422983"><ele>137.0</ele><time>2026-05-02T10:54:56.999Z</time></trkpt><trkpt lat="40.36479952678579" lon="9.389926535256171"><ele>136.0</ele><time>2026-05-02T10:54:57.999Z</time></trkpt><trkpt lat="40.36466710985611" lon="9.390040371533892"><ele>136.0</ele><time>2026-05-02T10:54:58.999Z</time></trkpt><trkpt lat="40.364539447275064" lon="9.390157305966241"><ele>136.0</ele><time>2026-05-02T10:54:59.999Z</time></trkpt><trkpt lat="40.36441003676147" lon="9.390275128603763"><ele>136.0</ele><time>2026-05-02T10:55:00.999Z</time></trkpt><trkpt lat="40.36427869421392" lon="9.390388552834358"><ele>136.0</ele><time>2026-05-02T10:55:01.999Z</time></trkpt><trkpt lat="40.364154640122486" lon="9.390502775013472"><ele>136.0</ele><time>2026-05-02T10:55:02.999Z</time></trkpt><trkpt lat="40.36403265193237" lon="9.39061594862912"><ele>136.0</ele><time>2026-05-02T10:55:03.999Z</time></trkpt><trkpt lat="40.36391579380812" lon="9.390733974754971"><ele>136.0</ele><time>2026-05-02T10:55:04.999Z</time></trkpt><trkpt lat="40.36380066250833" lon="9.390856846446782"><ele>135.0</ele><time>2026-05-02T10:55:05.999Z</time></trkpt><trkpt lat="40.36368163333278" lon="9.390975043647416"><ele>134.0</ele><time>2026-05-02T10:55:06.999Z</time></trkpt><trkpt lat="40.363561640615195" lon="9.391088638864225"><ele>133.0</ele><time>2026-05-02T10:55:07.999Z</time></trkpt><trkpt lat="40.36344060658051" lon="9.39120501185385"><ele>132.0</ele><time>2026-05-02T10:55:08.999Z</time></trkpt><trkpt lat="40.363331135809865" lon="9.39130931204502"><ele>132.0</ele><time>2026-05-02T10:55:09.999Z</time></trkpt><trkpt lat="40.3632279588147" lon="9.39140738345912"><ele>132.0</ele><time>2026-05-02T10:55:11Z</time></trkpt><trkpt lat="40.363130937656" lon="9.391511223502238"><ele>132.0</ele><time>2026-05-02T10:55:12Z</time></trkpt><trkpt lat="40.36303887109203" lon="9.391629737968037"><ele>132.0</ele><time>2026-05-02T10:55:13Z</time></trkpt><trkpt lat="40.362944827771884" lon="9.391749819677669"><ele>132.0</ele><time>2026-05-02T10:55:14Z</time></trkpt><trkpt lat="40.36285200736052" lon="9.39187943965773"><ele>132.0</ele><time>2026-05-02T10:55:15Z</time></trkpt><trkpt lat="40.3627597835111" lon="9.392023289790263"><ele>132.0</ele><time>2026-05-02T10:55:16Z</time></trkpt><trkpt lat="40.36266653389517" lon="9.39217522018222"><ele>132.0</ele><time>2026-05-02T10:55:17Z</time></trkpt><trkpt lat="40.36257060580749" lon="9.39233179775266"><ele>131.66666666666666</ele><time>2026-05-02T10:55:18Z</time></trkpt><trkpt lat="40.362474149627296" lon="9.3924884796139"><ele>131.33333333333331</ele><time>2026-05-02T10:55:19Z</time></trkpt><trkpt lat="40.362377981593035" lon="9.392647676796804"><ele>131.0</ele><time>2026-05-02T10:55:20Z</time></trkpt><trkpt lat="40.36228319262685" lon="9.392811280347496"><ele>132.33333333333331</ele><time>2026-05-02T10:55:21Z</time></trkpt><trkpt lat="40.362184046263344" lon="9.392978550746784"><ele>133.66666666666666</ele><time>2026-05-02T10:55:22Z</time></trkpt><trkpt lat="40.36208127895634" lon="9.393149862396637"><ele>135.0</ele><time>2026-05-02T10:55:23Z</time></trkpt><trkpt lat="40.36196982984962" lon="9.393327147865357"><ele>135.0</ele><time>2026-05-02T10:55:24Z</time></trkpt><trkpt lat="40.36185482754842" lon="9.393511112125948"><ele>135.0</ele><time>2026-05-02T10:55:25Z</time></trkpt><trkpt lat="40.361739970595664" lon="9.393699126439234"><ele>135.0</ele><time>2026-05-02T10:55:26Z</time></trkpt><trkpt lat="40.36162330276637" lon="9.393891039945002"><ele>134.33333333333334</ele><time>2026-05-02T10:55:27Z</time></trkpt><trkpt lat="40.361509442046064" lon="9.394079116113241"><ele>133.66666666666669</ele><time>2026-05-02T10:55:28Z</time></trkpt><trkpt lat="40.36139402865059" lon="9.394266459643694"><ele>133.0</ele><time>2026-05-02T10:55:29Z</time></trkpt><trkpt lat="40.36128177677572" lon="9.394446282498574"><ele>135.0</ele><time>2026-05-02T10:55:30Z</time></trkpt><trkpt lat="40.36117752755393" lon="9.39461248850446"><ele>137.0</ele><time>2026-05-02T10:55:31Z</time></trkpt><trkpt lat="40.361080334727966" lon="9.394772841280853"><ele>139.0</ele><time>2026-05-02T10:55:32Z</time></trkpt><trkpt lat="40.360988253922244" lon="9.394925885524573"><ele>139.0</ele><time>2026-05-02T10:55:33Z</time></trkpt><trkpt lat="40.36090416799605" lon="9.39506622913622"><ele>139.0</ele><time>2026-05-02T10:55:34Z</time></trkpt><trkpt lat="40.3608263829758" lon="9.395198372524598"><ele>139.0</ele><time>2026-05-02T10:55:35Z</time></trkpt><trkpt lat="40.36073745453043" lon="9.395334093315148"><ele>139.0</ele><time>2026-05-02T10:55:36Z</time></trkpt><trkpt lat="40.360633330037736" lon="9.39545449384994"><ele>140.66666666666669</ele><time>2026-05-02T10:55:37Z</time></trkpt><trkpt lat="40.36050243070185" lon="9.39555478328722"><ele>142.33333333333334</ele><time>2026-05-02T10:55:38Z</time></trkpt><trkpt lat="40.36035405734462" lon="9.395647693734201"><ele>144.0</ele><time>2026-05-02T10:55:39Z</time></trkpt><trkpt lat="40.360189104595825" lon="9.395726417054806"><ele>144.0</ele><time>2026-05-02T10:55:40Z</time></trkpt><trkpt lat="40.360034527206075" lon="9.395800205688094"><ele>144.0</ele><time>2026-05-02T10:55:41Z</time></trkpt><trkpt lat="40.35990171319404" lon="9.395873444779639"><ele>144.0</ele><time>2026-05-02T10:55:42Z</time></trkpt><trkpt lat="40.35977818818611" lon="9.39592485751338"><ele>144.0</ele><time>2026-05-02T10:55:43Z</time></trkpt><trkpt lat="40.359653981977445" lon="9.395956877599891"><ele>145.25</ele><time>2026-05-02T10:55:44Z</time></trkpt><trkpt lat="40.35952516400072" lon="9.3959615862429"><ele>146.5</ele><time>2026-05-02T10:55:45Z</time></trkpt><trkpt lat="40.359387529907664" lon="9.395937798869864"><ele>147.75</ele><time>2026-05-02T10:55:46Z</time></trkpt><trkpt lat="40.35924144547946" lon="9.395896313454195"><ele>149.0</ele><time>2026-05-02T10:55:47Z</time></trkpt><trkpt lat="40.35908863272568" lon="9.395844781334398"><ele>149.0</ele><time>2026-05-02T10:55:48Z</time></trkpt><trkpt lat="40.35892793135754" lon="9.395787604059963"><ele>149.0</ele><time>2026-05-02T10:55:49Z</time></trkpt><trkpt lat="40.35876313210521" lon="9.39572880961728"><ele>149.0</ele><time>2026-05-02T10:55:50Z</time></trkpt><trkpt lat="40.35858493032853" lon="9.395668431502486"><ele>148.0</ele><time>2026-05-02T10:55:51Z</time></trkpt><trkpt lat="40.35839933112871" lon="9.395599141319272"><ele>147.0</ele><time>2026-05-02T10:55:52Z</time></trkpt><trkpt lat="40.35820570170958" lon="9.395529148215086"><ele>146.0</ele><time>2026-05-02T10:55:53Z</time></trkpt><trkpt lat="40.35800484819086" lon="9.395457839118935"><ele>150.66666666666666</ele><time>2026-05-02T10:55:54Z</time></trkpt><trkpt lat="40.3577931840458" lon="9.39538124282806"><ele>155.33333333333334</ele><time>2026-05-02T10:55:55Z</time></trkpt><trkpt lat="40.35757341483928" lon="9.395306225069024"><ele>160.0</ele><time>2026-05-02T10:55:56Z</time></trkpt><trkpt lat="40.35735352768613" lon="9.395231102631396"><ele>158.0</ele><time>2026-05-02T10:55:57Z</time></trkpt><trkpt lat="40.357133342844534" lon="9.395151897580057"><ele>156.0</ele><time>2026-05-02T10:55:58Z</time></trkpt><trkpt lat="40.35691567001267" lon="9.3950769578669"><ele>156.0</ele><time>2026-05-02T10:55:59Z</time></trkpt><trkpt lat="40.35670080968683" lon="9.39499742520612"><ele>156.0</ele><time>2026-05-02T10:56:00Z</time></trkpt><trkpt lat="40.35648676941886" lon="9.39492138146824"><ele>156.0</ele><time>2026-05-02T10:56:01Z</time></trkpt><trkpt lat="40.35627416771845" lon="9.394843678476319"><ele>157.0</ele><time>2026-05-02T10:56:02Z</time></trkpt><trkpt lat="40.35606268411026" lon="9.394766506978367"><ele>158.0</ele><time>2026-05-02T10:56:03Z</time></trkpt><trkpt lat="40.35584300536477" lon="9.394686809210343"><ele>159.0</ele><time>2026-05-02T10:56:04Z</time></trkpt><trkpt lat="40.35561934081543" lon="9.394606562280332"><ele>162.66666666666666</ele><time>2026-05-02T10:56:05Z</time></trkpt><trkpt lat="40.35540811827272" lon="9.394531616071404"><ele>166.33333333333331</ele><time>2026-05-02T10:56:06Z</time></trkpt><trkpt lat="40.35520149539461" lon="9.394460763904705"><ele>170.0</ele><time>2026-05-02T10:56:07Z</time></trkpt><trkpt lat="40.35498986196953" lon="9.394399923940563"><ele>170.0</ele><time>2026-05-02T10:56:08Z</time></trkpt><trkpt lat="40.35477310127997" lon="9.394357401936304"><ele>170.0</ele><time>2026-05-02T10:56:09Z</time></trkpt><trkpt lat="40.35454988941694" lon="9.394323854203936"><ele>170.0</ele><time>2026-05-02T10:56:10Z</time></trkpt><trkpt lat="40.35432069264557" lon="9.39428883066346"><ele>170.0</ele><time>2026-05-02T10:56:11Z</time></trkpt><trkpt lat="40.35408273607893" lon="9.394243287623786"><ele>170.0</ele><time>2026-05-02T10:56:12Z</time></trkpt><trkpt lat="40.35384391851379" lon="9.394202388040869"><ele>172.5</ele><time>2026-05-02T10:56:13Z</time></trkpt><trkpt lat="40.35360541563433" lon="9.394164538056406"><ele>175.0</ele><time>2026-05-02T10:56:14Z</time></trkpt><trkpt lat="40.3533690132681" lon="9.394126412205015"><ele>175.0</ele><time>2026-05-02T10:56:15Z</time></trkpt><trkpt lat="40.353149536086576" lon="9.39408728969233"><ele>175.0</ele><time>2026-05-02T10:56:16.001Z</time></trkpt><trkpt lat="40.35294317090924" lon="9.394054968691062"><ele>175.0</ele><time>2026-05-02T10:56:17.001Z</time></trkpt><trkpt lat="40.35273991982682" lon="9.394025484503503"><ele>176.33333333333334</ele><time>2026-05-02T10:56:18.001Z</time></trkpt><trkpt lat="40.352544733845505" lon="9.393995666065562"><ele>177.66666666666666</ele><time>2026-05-02T10:56:19.001Z</time></trkpt><trkpt lat="40.352350193077235" lon="9.393959720188672"><ele>179.0</ele><time>2026-05-02T10:56:20.001Z</time></trkpt><trkpt lat="40.35215600275747" lon="9.393924729929985"><ele>179.66666666666666</ele><time>2026-05-02T10:56:21.001Z</time></trkpt><trkpt lat="40.351961233503154" lon="9.393894755070692"><ele>180.33333333333334</ele><time>2026-05-02T10:56:22.001Z</time></trkpt><trkpt lat="40.351789821826685" lon="9.39387509427905"><ele>181.0</ele><time>2026-05-02T10:56:23.001Z</time></trkpt><trkpt lat="40.351626832390984" lon="9.393868051847639"><ele>181.0</ele><time>2026-05-02T10:56:24.001Z</time></trkpt><trkpt lat="40.351479692044656" lon="9.393878678907123"><ele>181.0</ele><time>2026-05-02T10:56:25.001Z</time></trkpt><trkpt lat="40.35134676774708" lon="9.39390178457567"><ele>181.0</ele><time>2026-05-02T10:56:26.001Z</time></trkpt><trkpt lat="40.351225598038305" lon="9.393922533857028"><ele>181.0</ele><time>2026-05-02T10:56:27.001Z</time></trkpt><trkpt lat="40.35113443929254" lon="9.393917830195235"><ele>181.5</ele><time>2026-05-02T10:56:28.001Z</time></trkpt><trkpt lat="40.35106002319953" lon="9.393881196618137"><ele>182.0</ele><time>2026-05-02T10:56:29.001Z</time></trkpt><trkpt lat="40.35100402082675" lon="9.393805123976975"><ele>182.5</ele><time>2026-05-02T10:56:30.001Z</time></trkpt><trkpt lat="40.35097788442133" lon="9.393702919467609"><ele>183.0</ele><time>2026-05-02T10:56:31.001Z</time></trkpt><trkpt lat="40.35098627158154" lon="9.393583996470529"><ele>183.5</ele><time>2026-05-02T10:56:32.001Z</time></trkpt><trkpt lat="40.351024529188486" lon="9.393492886988433"><ele>184.0</ele><time>2026-05-02T10:56:33.001Z</time></trkpt><trkpt lat="40.35109499173433" lon="9.393425598519743"><ele>185.5</ele><time>2026-05-02T10:56:34.001Z</time></trkpt><trkpt lat="40.35119059258003" lon="9.393380061954216"><ele>187.0</ele><time>2026-05-02T10:56:35.001Z</time></trkpt><trkpt lat="40.35131085159093" lon="9.39336722023599"><ele>188.5</ele><time>2026-05-02T10:56:36.001Z</time></trkpt><trkpt lat="40.35143806258091" lon="9.393363338662104"><ele>190.0</ele><time>2026-05-02T10:56:37.001Z</time></trkpt><trkpt lat="40.35156739332021" lon="9.39334682566651"><ele>190.0</ele><time>2026-05-02T10:56:38.001Z</time></trkpt><trkpt lat="40.351711768162836" lon="9.393317140002718"><ele>190.0</ele><time>2026-05-02T10:56:39.001Z</time></trkpt><trkpt lat="40.351852778512765" lon="9.393280503046821"><ele>190.0</ele><time>2026-05-02T10:56:40.001Z</time></trkpt><trkpt lat="40.35196571422734" lon="9.393223886195601"><ele>190.0</ele><time>2026-05-02T10:56:41.001Z</time></trkpt><trkpt lat="40.352036608384445" lon="9.393155782240171"><ele>190.0</ele><time>2026-05-02T10:56:42.001Z</time></trkpt><trkpt lat="40.35208175297049" lon="9.393036715271771"><ele>190.0</ele><time>2026-05-02T10:56:44.001Z</time></trkpt><trkpt lat="40.35209835931158" lon="9.392919425078842"><ele>190.0</ele><time>2026-05-02T10:56:45.999Z</time></trkpt><trkpt lat="40.35210787738451" lon="9.392835141291028"><ele>190.0</ele><time>2026-05-02T10:56:46.999Z</time></trkpt><trkpt lat="40.35212621067263" lon="9.39273568453755"><ele>190.0</ele><time>2026-05-02T10:56:47.999Z</time></trkpt><trkpt lat="40.35215273475751" lon="9.392626602430134"><ele>190.0</ele><time>2026-05-02T10:56:48.999Z</time></trkpt><trkpt lat="40.352196122823386" lon="9.392516530887418"><ele>191.6</ele><time>2026-05-02T10:56:49.999Z</time></trkpt><trkpt lat="40.35225530528031" lon="9.392435930331478"><ele>193.2</ele><time>2026-05-02T10:56:50.999Z</time></trkpt><trkpt lat="40.352330347360194" lon="9.39238070158617"><ele>194.8</ele><time>2026-05-02T10:56:51.999Z</time></trkpt><trkpt lat="40.35242359076008" lon="9.392356643885657"><ele>196.4</ele><time>2026-05-02T10:56:52.999Z</time></trkpt><trkpt lat="40.352536731734126" lon="9.392356072053916"><ele>198.0</ele><time>2026-05-02T10:56:53.999Z</time></trkpt><trkpt lat="40.35265809308058" lon="9.392368680018057"><ele>198.0</ele><time>2026-05-02T10:56:54.999Z</time></trkpt><trkpt lat="40.35278490188599" lon="9.392381679935282"><ele>198.0</ele><time>2026-05-02T10:56:55.999Z</time></trkpt><trkpt lat="40.35292079847679" lon="9.392379108273534"><ele>198.0</ele><time>2026-05-02T10:56:56.999Z</time></trkpt><trkpt lat="40.3530634705363" lon="9.39234678467704"><ele>198.0</ele><time>2026-05-02T10:56:57.999Z</time></trkpt><trkpt lat="40.35320396512613" lon="9.392296686061814"><ele>198.75</ele><time>2026-05-02T10:56:58.999Z</time></trkpt><trkpt lat="40.35335059439691" lon="9.39224188696553"><ele>199.5</ele><time>2026-05-02T10:56:59.999Z</time></trkpt><trkpt lat="40.353495310529" lon="9.392198459389368"><ele>200.25</ele><time>2026-05-02T10:57:00.999Z</time></trkpt><trkpt lat="40.3536129743883" lon="9.392159753846261"><ele>201.0</ele><time>2026-05-02T10:57:01.999Z</time></trkpt><trkpt lat="40.35370808386314" lon="9.392102006390779"><ele>200.75</ele><time>2026-05-02T10:57:02.999Z</time></trkpt><trkpt lat="40.353777231286855" lon="9.39201735852525"><ele>200.5</ele><time>2026-05-02T10:57:03.999Z</time></trkpt><trkpt lat="40.353818658419016" lon="9.39189918639676"><ele>200.25</ele><time>2026-05-02T10:57:04.999Z</time></trkpt><trkpt lat="40.35385843773976" lon="9.391733727328733"><ele>200.0</ele><time>2026-05-02T10:57:05.999Z</time></trkpt><trkpt lat="40.35389173884795" lon="9.391547920539121"><ele>200.0</ele><time>2026-05-02T10:57:06.999Z</time></trkpt><trkpt lat="40.353924818463334" lon="9.391343843251143"><ele>200.0</ele><time>2026-05-02T10:57:07.999Z</time></trkpt><trkpt lat="40.353959370300295" lon="9.391142322674934"><ele>200.0</ele><time>2026-05-02T10:57:08.999Z</time></trkpt><trkpt lat="40.354000529834096" lon="9.390941390316124"><ele>202.5</ele><time>2026-05-02T10:57:10Z</time></trkpt><trkpt lat="40.35405460246781" lon="9.39077388621962"><ele>205.0</ele><time>2026-05-02T10:57:11Z</time></trkpt><trkpt lat="40.35412963253078" lon="9.390641497957729"><ele>207.5</ele><time>2026-05-02T10:57:12Z</time></trkpt><trkpt lat="40.35423220219334" lon="9.390529148955675"><ele>210.0</ele><time>2026-05-02T10:57:13Z</time></trkpt><trkpt lat="40.35435640294607" lon="9.390436645666977"><ele>212.75</ele><time>2026-05-02T10:57:14Z</time></trkpt><trkpt lat="40.35445728212018" lon="9.390356118724583"><ele>215.5</ele><time>2026-05-02T10:57:15Z</time></trkpt><trkpt lat="40.35452099752315" lon="9.390241945257774"><ele>218.25</ele><time>2026-05-02T10:57:16Z</time></trkpt><trkpt lat="40.35456024327038" lon="9.390081492332918"><ele>221.0</ele><time>2026-05-02T10:57:17Z</time></trkpt><trkpt lat="40.35458825587382" lon="9.389879757395901"><ele>221.0</ele><time>2026-05-02T10:57:18Z</time></trkpt><trkpt lat="40.35459457397719" lon="9.389680023396421"><ele>221.0</ele><time>2026-05-02T10:57:19Z</time></trkpt><trkpt lat="40.35460832150153" lon="9.38951656655957"><ele>221.0</ele><time>2026-05-02T10:57:20Z</time></trkpt><trkpt lat="40.35465007573492" lon="9.389379304029916"><ele>221.0</ele><time>2026-05-02T10:57:21Z</time></trkpt><trkpt lat="40.354710887939156" lon="9.38928082866976"><ele>220.75</ele><time>2026-05-02T10:57:22Z</time></trkpt><trkpt lat="40.3547810873892" lon="9.389231756972636"><ele>220.5</ele><time>2026-05-02T10:57:23Z</time></trkpt><trkpt lat="40.354886163771404" lon="9.389195729499312"><ele>220.25</ele><time>2026-05-02T10:57:24Z</time></trkpt><trkpt lat="40.35501512078375" lon="9.389176953224398"><ele>220.0</ele><time>2026-05-02T10:57:25Z</time></trkpt><trkpt lat="40.3551536767557" lon="9.389154986697442"><ele>220.0</ele><time>2026-05-02T10:57:26Z</time></trkpt><trkpt lat="40.35529807280862" lon="9.38911685967568"><ele>220.0</ele><time>2026-05-02T10:57:27Z</time></trkpt><trkpt lat="40.35541244404431" lon="9.389067903851519"><ele>220.0</ele><time>2026-05-02T10:57:28Z</time></trkpt><trkpt lat="40.35550395383469" lon="9.388987699388718"><ele>220.0</ele><time>2026-05-02T10:57:29Z</time></trkpt><trkpt lat="40.355581700855524" lon="9.388859895918083"><ele>222.33333333333331</ele><time>2026-05-02T10:57:30Z</time></trkpt><trkpt lat="40.35565749907757" lon="9.388684079436066"><ele>224.66666666666669</ele><time>2026-05-02T10:57:31Z</time></trkpt><trkpt lat="40.35572207505357" lon="9.388505886158768"><ele>227.0</ele><time>2026-05-02T10:57:32Z</time></trkpt><trkpt lat="40.35579685367122" lon="9.388312617684345"><ele>227.0</ele><time>2026-05-02T10:57:33Z</time></trkpt><trkpt lat="40.35587328144175" lon="9.388157034878182"><ele>227.0</ele><time>2026-05-02T10:57:34Z</time></trkpt><trkpt lat="40.355959009886774" lon="9.38805022275216"><ele>227.0</ele><time>2026-05-02T10:57:35Z</time></trkpt><trkpt lat="40.35605606470144" lon="9.38797820946319"><ele>227.0</ele><time>2026-05-02T10:57:36Z</time></trkpt><trkpt lat="40.35618134799048" lon="9.387930643422388"><ele>227.25</ele><time>2026-05-02T10:57:37Z</time></trkpt><trkpt lat="40.35630853435412" lon="9.38789745360811"><ele>227.5</ele><time>2026-05-02T10:57:38Z</time></trkpt><trkpt lat="40.356403283021976" lon="9.387836649834277"><ele>227.75</ele><time>2026-05-02T10:57:39Z</time></trkpt><trkpt lat="40.3564918712753" lon="9.38773081586061"><ele>228.0</ele><time>2026-05-02T10:57:40Z</time></trkpt><trkpt lat="40.35655899001525" lon="9.3875862259589"><ele>228.0</ele><time>2026-05-02T10:57:41Z</time></trkpt><trkpt lat="40.35662118799661" lon="9.387408124807159"><ele>228.0</ele><time>2026-05-02T10:57:42Z</time></trkpt><trkpt lat="40.356694831267916" lon="9.387218021085168"><ele>228.0</ele><time>2026-05-02T10:57:43Z</time></trkpt><trkpt lat="40.356781360342595" lon="9.387030094543663"><ele>229.75</ele><time>2026-05-02T10:57:44Z</time></trkpt><trkpt lat="40.356868248176816" lon="9.386833971039499"><ele>231.5</ele><time>2026-05-02T10:57:45Z</time></trkpt><trkpt lat="40.356923882313055" lon="9.386678939007908"><ele>233.25</ele><time>2026-05-02T10:57:46Z</time></trkpt><trkpt lat="40.35694525282762" lon="9.386539876605053"><ele>235.0</ele><time>2026-05-02T10:57:47Z</time></trkpt><trkpt lat="40.35692969593158" lon="9.386390930089917"><ele>235.5</ele><time>2026-05-02T10:57:48Z</time></trkpt><trkpt lat="40.3568812660068" lon="9.386234527747735"><ele>236.0</ele><time>2026-05-02T10:57:49Z</time></trkpt><trkpt lat="40.35681356844291" lon="9.386057502921833"><ele>236.5</ele><time>2026-05-02T10:57:50Z</time></trkpt><trkpt lat="40.356745508782915" lon="9.385874467916345"><ele>237.0</ele><time>2026-05-02T10:57:51Z</time></trkpt><trkpt lat="40.35667628845461" lon="9.385676142762042"><ele>236.33333333333331</ele><time>2026-05-02T10:57:52Z</time></trkpt><trkpt lat="40.35659535031871" lon="9.385451318857923"><ele>235.66666666666666</ele><time>2026-05-02T10:57:53Z</time></trkpt><trkpt lat="40.35651196155637" lon="9.385231162782725"><ele>235.0</ele><time>2026-05-02T10:57:54Z</time></trkpt><trkpt lat="40.356418219186196" lon="9.385000230207126"><ele>237.0</ele><time>2026-05-02T10:57:55Z</time></trkpt><trkpt lat="40.35632181556851" lon="9.384784486751217"><ele>239.0</ele><time>2026-05-02T10:57:56Z</time></trkpt><trkpt lat="40.35623911795103" lon="9.384593304559159"><ele>241.0</ele><time>2026-05-02T10:57:57.001Z</time></trkpt><trkpt lat="40.35616403107678" lon="9.38443089992733"><ele>241.0</ele><time>2026-05-02T10:57:58.001Z</time></trkpt><trkpt lat="40.35608373608433" lon="9.384288222898437"><ele>241.0</ele><time>2026-05-02T10:57:59.001Z</time></trkpt><trkpt lat="40.35598023664719" lon="9.384170042546849"><ele>241.0</ele><time>2026-05-02T10:58:00.001Z</time></trkpt><trkpt lat="40.35585072963216" lon="9.384078925065083"><ele>241.0</ele><time>2026-05-02T10:58:01.001Z</time></trkpt><trkpt lat="40.35570201963833" lon="9.384011609449939"><ele>241.0</ele><time>2026-05-02T10:58:02.001Z</time></trkpt><trkpt lat="40.355574230065315" lon="9.38396708624147"><ele>241.0</ele><time>2026-05-02T10:58:03.001Z</time></trkpt><trkpt lat="40.355459760937514" lon="9.383952857455837"><ele>241.0</ele><time>2026-05-02T10:58:04.001Z</time></trkpt><trkpt lat="40.35535828710687" lon="9.383982645641233"><ele>241.0</ele><time>2026-05-02T10:58:05.001Z</time></trkpt><trkpt lat="40.35527273499022" lon="9.38406915575505"><ele>240.75</ele><time>2026-05-02T10:58:06.001Z</time></trkpt><trkpt lat="40.35519405075436" lon="9.384197072419889"><ele>240.5</ele><time>2026-05-02T10:58:07.001Z</time></trkpt><trkpt lat="40.35511300370785" lon="9.384372899797224"><ele>240.25</ele><time>2026-05-02T10:58:08.001Z</time></trkpt><trkpt lat="40.35503067757809" lon="9.384557542334313"><ele>240.0</ele><time>2026-05-02T10:58:09.001Z</time></trkpt><trkpt lat="40.35492830581161" lon="9.38475246516931"><ele>241.25</ele><time>2026-05-02T10:58:10.001Z</time></trkpt><trkpt lat="40.35481963333794" lon="9.384922437546072"><ele>242.5</ele><time>2026-05-02T10:58:11.001Z</time></trkpt><trkpt lat="40.354716369435096" lon="9.385052925503112"><ele>243.75</ele><time>2026-05-02T10:58:12.001Z</time></trkpt><trkpt lat="40.35460144733738" lon="9.385146288576296"><ele>245.0</ele><time>2026-05-02T10:58:13.001Z</time></trkpt><trkpt lat="40.354467958382926" lon="9.385209050285757"><ele>245.0</ele><time>2026-05-02T10:58:14.001Z</time></trkpt><trkpt lat="40.354342841870036" lon="9.385271704287133"><ele>245.0</ele><time>2026-05-02T10:58:15.001Z</time></trkpt><trkpt lat="40.354234373738876" lon="9.385379299547646"><ele>245.0</ele><time>2026-05-02T10:58:16.001Z</time></trkpt><trkpt lat="40.35412309038739" lon="9.385526468744336"><ele>245.0</ele><time>2026-05-02T10:58:17.001Z</time></trkpt><trkpt lat="40.354026365590656" lon="9.38565358483697"><ele>245.6</ele><time>2026-05-02T10:58:18.001Z</time></trkpt><trkpt lat="40.353928102288414" lon="9.385729627285201"><ele>246.2</ele><time>2026-05-02T10:58:19.001Z</time></trkpt><trkpt lat="40.3538319721545" lon="9.385738188448515"><ele>246.8</ele><time>2026-05-02T10:58:20.001Z</time></trkpt><trkpt lat="40.353747081799554" lon="9.38569775209131"><ele>247.4</ele><time>2026-05-02T10:58:21.001Z</time></trkpt><trkpt lat="40.35365882656357" lon="9.385617411055435"><ele>248.0</ele><time>2026-05-02T10:58:22.001Z</time></trkpt><trkpt lat="40.35355151775142" lon="9.385507959408589"><ele>248.0</ele><time>2026-05-02T10:58:23.001Z</time></trkpt><trkpt lat="40.35343092617266" lon="9.38538406684128"><ele>248.0</ele><time>2026-05-02T10:58:24.001Z</time></trkpt><trkpt lat="40.35331680232888" lon="9.385290504441903"><ele>248.0</ele><time>2026-05-02T10:58:25.001Z</time></trkpt><trkpt lat="40.35321087254368" lon="9.38523144975235"><ele>248.0</ele><time>2026-05-02T10:58:26.001Z</time></trkpt><trkpt lat="40.353096045708455" lon="9.385205129802985"><ele>248.5</ele><time>2026-05-02T10:58:27.001Z</time></trkpt><trkpt lat="40.352968299717276" lon="9.385218278519307"><ele>249.0</ele><time>2026-05-02T10:58:28.001Z</time></trkpt><trkpt lat="40.35283226988015" lon="9.385269333302448"><ele>249.5</ele><time>2026-05-02T10:58:29.001Z</time></trkpt><trkpt lat="40.35268327315256" lon="9.385328971440261"><ele>250.0</ele><time>2026-05-02T10:58:30.001Z</time></trkpt><trkpt lat="40.3525436235323" lon="9.385376542307942"><ele>250.0</ele><time>2026-05-02T10:58:31.001Z</time></trkpt><trkpt lat="40.35241926613471" lon="9.385432391074321"><ele>250.0</ele><time>2026-05-02T10:58:32.001Z</time></trkpt><trkpt lat="40.3523074773836" lon="9.385526504085094"><ele>250.0</ele><time>2026-05-02T10:58:33.001Z</time></trkpt><trkpt lat="40.35220989218129" lon="9.385661584793699"><ele>250.0</ele><time>2026-05-02T10:58:34.001Z</time></trkpt><trkpt lat="40.35212223889767" lon="9.38582944760522"><ele>253.0</ele><time>2026-05-02T10:58:35.001Z</time></trkpt><trkpt lat="40.35203493119171" lon="9.386010768288175"><ele>256.0</ele><time>2026-05-02T10:58:36.001Z</time></trkpt><trkpt lat="40.35193815364308" lon="9.386194261529115"><ele>259.0</ele><time>2026-05-02T10:58:37.001Z</time></trkpt><trkpt lat="40.351828772726265" lon="9.386356936010236"><ele>265.66666666666663</ele><time>2026-05-02T10:58:38.001Z</time></trkpt><trkpt lat="40.35170244846805" lon="9.386491036059361"><ele>272.3333333333333</ele><time>2026-05-02T10:58:39.001Z</time></trkpt><trkpt lat="40.3515569609142" lon="9.386597326867289"><ele>279.0</ele><time>2026-05-02T10:58:40.001Z</time></trkpt><trkpt lat="40.3514024786694" lon="9.386698983267387"><ele>276.0</ele><time>2026-05-02T10:58:41.001Z</time></trkpt><trkpt lat="40.35124452376447" lon="9.386802531064571"><ele>273.0</ele><time>2026-05-02T10:58:42.001Z</time></trkpt><trkpt lat="40.35110435485374" lon="9.386907738145256"><ele>270.0</ele><time>2026-05-02T10:58:43.001Z</time></trkpt><trkpt lat="40.35098363371391" lon="9.387028085127769"><ele>273.6666666666667</ele><time>2026-05-02T10:58:44.001Z</time></trkpt><trkpt lat="40.35087543458301" lon="9.38718456990695"><ele>277.33333333333337</ele><time>2026-05-02T10:58:45.001Z</time></trkpt><trkpt lat="40.35078222402472" lon="9.387373576673058"><ele>281.0</ele><time>2026-05-02T10:58:46.001Z</time></trkpt><trkpt lat="40.350694385368584" lon="9.387576163398304"><ele>281.0</ele><time>2026-05-02T10:58:47.001Z</time></trkpt><trkpt lat="40.350604537720265" lon="9.387785940532392"><ele>281.0</ele><time>2026-05-02T10:58:48.001Z</time></trkpt><trkpt lat="40.350508509130975" lon="9.387995900353866"><ele>281.0</ele><time>2026-05-02T10:58:49.001Z</time></trkpt><trkpt lat="40.3504094927674" lon="9.38820267211556"><ele>281.25</ele><time>2026-05-02T10:58:50.001Z</time></trkpt><trkpt lat="40.350323063003536" lon="9.388380847675945"><ele>281.5</ele><time>2026-05-02T10:58:51Z</time></trkpt><trkpt lat="40.35024106959202" lon="9.388545547095577"><ele>281.75</ele><time>2026-05-02T10:58:52Z</time></trkpt><trkpt lat="40.35016211578611" lon="9.388681420940364"><ele>282.0</ele><time>2026-05-02T10:58:53Z</time></trkpt><trkpt lat="40.35006693952831" lon="9.388792696701483"><ele>283.75</ele><time>2026-05-02T10:58:54Z</time></trkpt><trkpt lat="40.349946820210555" lon="9.388882524825199"><ele>285.5</ele><time>2026-05-02T10:58:55Z</time></trkpt><trkpt lat="40.34982367618081" lon="9.388938371858982"><ele>287.25</ele><time>2026-05-02T10:58:56Z</time></trkpt><trkpt lat="40.349709943066216" lon="9.388946703043036"><ele>289.0</ele><time>2026-05-02T10:58:57Z</time></trkpt><trkpt lat="40.34959893607977" lon="9.388900224311397"><ele>289.0</ele><time>2026-05-02T10:58:58Z</time></trkpt><trkpt lat="40.3494969192698" lon="9.38883105993285"><ele>289.0</ele><time>2026-05-02T10:58:59Z</time></trkpt><trkpt lat="40.3493895776599" lon="9.388788518567358"><ele>289.0</ele><time>2026-05-02T10:59:00Z</time></trkpt><trkpt lat="40.34927561104669" lon="9.388801701652966"><ele>289.0</ele><time>2026-05-02T10:59:01Z</time></trkpt><trkpt lat="40.34915473057473" lon="9.388869572335098"><ele>289.0</ele><time>2026-05-02T10:59:02Z</time></trkpt><trkpt lat="40.3490313267748" lon="9.3889742356307"><ele>289.0</ele><time>2026-05-02T10:59:03Z</time></trkpt><trkpt lat="40.34891960581346" lon="9.38908681932871"><ele>289.0</ele><time>2026-05-02T10:59:04Z</time></trkpt><trkpt lat="40.348784910484724" lon="9.389201145905282"><ele>289.0</ele><time>2026-05-02T10:59:05Z</time></trkpt><trkpt lat="40.34863002229507" lon="9.389293543985833"><ele>293.66666666666663</ele><time>2026-05-02T10:59:06Z</time></trkpt><trkpt lat="40.3484561523095" lon="9.389384689965892"><ele>298.3333333333333</ele><time>2026-05-02T10:59:07Z</time></trkpt><trkpt lat="40.34828453222262" lon="9.389470006839451"><ele>303.0</ele><time>2026-05-02T10:59:08Z</time></trkpt><trkpt lat="40.34810035649739" lon="9.389544046350068"><ele>301.6666666666667</ele><time>2026-05-02T10:59:09Z</time></trkpt><trkpt lat="40.34790349038257" lon="9.38960388301549"><ele>300.33333333333337</ele><time>2026-05-02T10:59:10Z</time></trkpt><trkpt lat="40.34769679236958" lon="9.389660265134482"><ele>299.0</ele><time>2026-05-02T10:59:11Z</time></trkpt><trkpt lat="40.34749981111455" lon="9.389716725745355"><ele>299.0</ele><time>2026-05-02T10:59:12Z</time></trkpt><trkpt lat="40.34731145501429" lon="9.389774911315346"><ele>299.0</ele><time>2026-05-02T10:59:13Z</time></trkpt><trkpt lat="40.3471402570177" lon="9.389820541617718"><ele>299.0</ele><time>2026-05-02T10:59:14Z</time></trkpt><trkpt lat="40.346980006105454" lon="9.389853421234394"><ele>301.6666666666667</ele><time>2026-05-02T10:59:15Z</time></trkpt><trkpt lat="40.34683070510787" lon="9.389864689947846"><ele>304.3333333333333</ele><time>2026-05-02T10:59:16Z</time></trkpt><trkpt lat="40.34668571334408" lon="9.389835255237458"><ele>307.0</ele><time>2026-05-02T10:59:17Z</time></trkpt><trkpt lat="40.34653629831759" lon="9.389768926395321"><ele>307.0</ele><time>2026-05-02T10:59:18Z</time></trkpt><trkpt lat="40.34640880157128" lon="9.389717640708785"><ele>307.0</ele><time>2026-05-02T10:59:19Z</time></trkpt><trkpt lat="40.346270125008" lon="9.389709543742093"><ele>307.0</ele><time>2026-05-02T10:59:20Z</time></trkpt><trkpt lat="40.3461225169474" lon="9.389747351072858"><ele>307.0</ele><time>2026-05-02T10:59:21Z</time></trkpt><trkpt lat="40.345972979240216" lon="9.389829101855689"><ele>309.0</ele><time>2026-05-02T10:59:22Z</time></trkpt><trkpt lat="40.345833142075605" lon="9.389918180802123"><ele>311.0</ele><time>2026-05-02T10:59:23Z</time></trkpt><trkpt lat="40.345702601826396" lon="9.389970500158121"><ele>313.0</ele><time>2026-05-02T10:59:24Z</time></trkpt><trkpt lat="40.3455629594266" lon="9.389976137889027"><ele>315.0</ele><time>2026-05-02T10:59:25Z</time></trkpt><trkpt lat="40.345411060674586" lon="9.389951470726599"><ele>315.0</ele><time>2026-05-02T10:59:26Z</time></trkpt><trkpt lat="40.345268248217565" lon="9.38991448954779"><ele>315.0</ele><time>2026-05-02T10:59:27Z</time></trkpt><trkpt lat="40.345154262018355" lon="9.389870179183117"><ele>315.0</ele><time>2026-05-02T10:59:28Z</time></trkpt><trkpt lat="40.34506277396238" lon="9.389797348617744"><ele>315.0</ele><time>2026-05-02T10:59:29Z</time></trkpt><trkpt lat="40.344995898924644" lon="9.389681526534357"><ele>320.0</ele><time>2026-05-02T10:59:30Z</time></trkpt><trkpt lat="40.344949535641156" lon="9.389532804340353"><ele>325.0</ele><time>2026-05-02T10:59:31Z</time></trkpt><trkpt lat="40.34491915979053" lon="9.389358178898428"><ele>330.0</ele><time>2026-05-02T10:59:32Z</time></trkpt><trkpt lat="40.34487804319472" lon="9.389198312029952"><ele>335.0</ele><time>2026-05-02T10:59:33Z</time></trkpt><trkpt lat="40.344798065067415" lon="9.38907784828404"><ele>338.0</ele><time>2026-05-02T10:59:34Z</time></trkpt><trkpt lat="40.34468704704186" lon="9.388981039421944"><ele>341.0</ele><time>2026-05-02T10:59:35Z</time></trkpt><trkpt lat="40.34455730533513" lon="9.388883894100475"><ele>344.0</ele><time>2026-05-02T10:59:36Z</time></trkpt><trkpt lat="40.34442473701794" lon="9.388783278371918"><ele>347.0</ele><time>2026-05-02T10:59:37.001Z</time></trkpt><trkpt lat="40.344284939736525" lon="9.388690529307024"><ele>347.0</ele><time>2026-05-02T10:59:38.001Z</time></trkpt><trkpt lat="40.34415729059327" lon="9.388629213841979"><ele>347.0</ele><time>2026-05-02T10:59:39.001Z</time></trkpt><trkpt lat="40.34402891830758" lon="9.388597977796973"><ele>347.0</ele><time>2026-05-02T10:59:40.001Z</time></trkpt><trkpt lat="40.343889877531716" lon="9.388610039304988"><ele>347.0</ele><time>2026-05-02T10:59:41.001Z</time></trkpt><trkpt lat="40.343736920922574" lon="9.388677614028277"><ele>352.0</ele><time>2026-05-02T10:59:42.001Z</time></trkpt><trkpt lat="40.34357815752232" lon="9.388767472609814"><ele>357.0</ele><time>2026-05-02T10:59:43.001Z</time></trkpt><trkpt lat="40.34340840323744" lon="9.388854195431309"><ele>362.0</ele><time>2026-05-02T10:59:44.001Z</time></trkpt><trkpt lat="40.34322733184686" lon="9.388919180528394"><ele>359.0</ele><time>2026-05-02T10:59:45.001Z</time></trkpt><trkpt lat="40.34303653478256" lon="9.388965486137732"><ele>356.0</ele><time>2026-05-02T10:59:46.001Z</time></trkpt><trkpt lat="40.34285477073832" lon="9.388992089271802"><ele>353.0</ele><time>2026-05-02T10:59:47.001Z</time></trkpt><trkpt lat="40.34270074937334" lon="9.389012366512713"><ele>353.0</ele><time>2026-05-02T10:59:48.001Z</time></trkpt><trkpt lat="40.34258255425932" lon="9.389041018477435"><ele>353.0</ele><time>2026-05-02T10:59:49.001Z</time></trkpt><trkpt lat="40.34249064692005" lon="9.389108924465132"><ele>353.0</ele><time>2026-05-02T10:59:50.001Z</time></trkpt><trkpt lat="40.34242907858572" lon="9.38922350701514"><ele>353.0</ele><time>2026-05-02T10:59:51.001Z</time></trkpt><trkpt lat="40.342398760900316" lon="9.389373714020849"><ele>353.0</ele><time>2026-05-02T10:59:52.001Z</time></trkpt><trkpt lat="40.342376185340235" lon="9.38953876275428"><ele>353.0</ele><time>2026-05-02T10:59:53.001Z</time></trkpt><trkpt lat="40.342312425160536" lon="9.389658606736043"><ele>353.0</ele><time>2026-05-02T10:59:54.001Z</time></trkpt><trkpt lat="40.342222463161036" lon="9.389755989489037"><ele>353.0</ele><time>2026-05-02T10:59:55.001Z</time></trkpt><trkpt lat="40.342112396249696" lon="9.389816035240093"><ele>352.5</ele><time>2026-05-02T10:59:56.001Z</time></trkpt><trkpt lat="40.341984261350035" lon="9.389831317136487"><ele>352.0</ele><time>2026-05-02T10:59:57.001Z</time></trkpt><trkpt lat="40.34184424201298" lon="9.389841261896434"><ele>351.5</ele><time>2026-05-02T10:59:58.001Z</time></trkpt><trkpt lat="40.34169140488399" lon="9.389865401538461"><ele>351.0</ele><time>2026-05-02T10:59:59.001Z</time></trkpt><trkpt lat="40.34154947478704" lon="9.389903316116628"><ele>351.0</ele><time>2026-05-02T11:00:00.001Z</time></trkpt><trkpt lat="40.34142158913647" lon="9.38990431659569"><ele>351.0</ele><time>2026-05-02T11:00:01.001Z</time></trkpt><trkpt lat="40.341295698442856" lon="9.389863243758953"><ele>351.0</ele><time>2026-05-02T11:00:02.001Z</time></trkpt><trkpt lat="40.34116510995408" lon="9.389775980236207"><ele>351.0</ele><time>2026-05-02T11:00:03.001Z</time></trkpt><trkpt lat="40.341032824007044" lon="9.389673892664728"><ele>360.6666666666667</ele><time>2026-05-02T11:00:04.001Z</time></trkpt><trkpt lat="40.340899784644535" lon="9.38955482069306"><ele>370.33333333333337</ele><time>2026-05-02T11:00:05.001Z</time></trkpt><trkpt lat="40.340756415234665" lon="9.389427129656314"><ele>380.0</ele><time>2026-05-02T11:00:06.001Z</time></trkpt><trkpt lat="40.340611766816224" lon="9.389320370021128"><ele>377.0</ele><time>2026-05-02T11:00:07.001Z</time></trkpt><trkpt lat="40.34047385628756" lon="9.389250085691744"><ele>374.0</ele><time>2026-05-02T11:00:08.001Z</time></trkpt><trkpt lat="40.34032235885813" lon="9.38920639091408"><ele>371.0</ele><time>2026-05-02T11:00:09.001Z</time></trkpt><trkpt lat="40.340148488406435" lon="9.38917753615772"><ele>371.0</ele><time>2026-05-02T11:00:10.001Z</time></trkpt><trkpt lat="40.33996172463229" lon="9.389148968359757"><ele>371.0</ele><time>2026-05-02T11:00:11.001Z</time></trkpt><trkpt lat="40.339782627134795" lon="9.389120512018028"><ele>371.0</ele><time>2026-05-02T11:00:12.001Z</time></trkpt><trkpt lat="40.339583950282275" lon="9.389091008593018"><ele>370.6666666666667</ele><time>2026-05-02T11:00:13.001Z</time></trkpt><trkpt lat="40.339383361158994" lon="9.38906294349434"><ele>370.3333333333333</ele><time>2026-05-02T11:00:14.001Z</time></trkpt><trkpt lat="40.339199484151685" lon="9.389036818111103"><ele>370.0</ele><time>2026-05-02T11:00:15.001Z</time></trkpt><trkpt lat="40.33902343453479" lon="9.388998181640368"><ele>370.3333333333333</ele><time>2026-05-02T11:00:16.001Z</time></trkpt><trkpt lat="40.33885374788205" lon="9.388934091364707"><ele>370.6666666666667</ele><time>2026-05-02T11:00:17.001Z</time></trkpt><trkpt lat="40.33868520129375" lon="9.388853752400715"><ele>371.0</ele><time>2026-05-02T11:00:18.001Z</time></trkpt><trkpt lat="40.33852532448067" lon="9.388784194342355"><ele>385.0</ele><time>2026-05-02T11:00:19.001Z</time></trkpt><trkpt lat="40.33837008184963" lon="9.388749020372218"><ele>399.0</ele><time>2026-05-02T11:00:20.001Z</time></trkpt><trkpt lat="40.33821086635478" lon="9.388749249581213"><ele>413.0</ele><time>2026-05-02T11:00:21.001Z</time></trkpt><trkpt lat="40.33805030518842" lon="9.388790002855647"><ele>402.0</ele><time>2026-05-02T11:00:22.001Z</time></trkpt><trkpt lat="40.33789343382224" lon="9.388852098484586"><ele>391.0</ele><time>2026-05-02T11:00:23.001Z</time></trkpt><trkpt lat="40.337745837920835" lon="9.388909176706335"><ele>380.0</ele><time>2026-05-02T11:00:24.001Z</time></trkpt><trkpt lat="40.3376074087025" lon="9.388939539318148"><ele>380.0</ele><time>2026-05-02T11:00:25.001Z</time></trkpt><trkpt lat="40.33746061450999" lon="9.38893376747641"><ele>380.0</ele><time>2026-05-02T11:00:26.001Z</time></trkpt><trkpt lat="40.33730335437045" lon="9.388890189965455"><ele>380.0</ele><time>2026-05-02T11:00:27.001Z</time></trkpt><trkpt lat="40.33714224890266" lon="9.388828399537513"><ele>389.75</ele><time>2026-05-02T11:00:28.001Z</time></trkpt><trkpt lat="40.33699115592463" lon="9.388760080311707"><ele>399.5</ele><time>2026-05-02T11:00:29.001Z</time></trkpt><trkpt lat="40.33685171322706" lon="9.38870920647482"><ele>409.25</ele><time>2026-05-02T11:00:30.001Z</time></trkpt><trkpt lat="40.336722969760345" lon="9.388695248205275"><ele>419.0</ele><time>2026-05-02T11:00:31.001Z</time></trkpt><trkpt lat="40.33659385845934" lon="9.388726175886532"><ele>419.0</ele><time>2026-05-02T11:00:32.001Z</time></trkpt><trkpt lat="40.33648094158953" lon="9.388737872743546"><ele>419.0</ele><time>2026-05-02T11:00:33.001Z</time></trkpt><trkpt lat="40.33637519936306" lon="9.38870161877729"><ele>419.0</ele><time>2026-05-02T11:00:34.001Z</time></trkpt><trkpt lat="40.336266068338" lon="9.38861420299298"><ele>419.0</ele><time>2026-05-02T11:00:35.001Z</time></trkpt><trkpt lat="40.336155668797154" lon="9.388513911486962"><ele>419.25</ele><time>2026-05-02T11:00:36.002Z</time></trkpt><trkpt lat="40.33605172129931" lon="9.388450644375068"><ele>419.5</ele><time>2026-05-02T11:00:37.002Z</time></trkpt><trkpt lat="40.335942682871085" lon="9.388434467473026"><ele>419.75</ele><time>2026-05-02T11:00:38.002Z</time></trkpt><trkpt lat="40.335825300721815" lon="9.388469888794956"><ele>420.0</ele><time>2026-05-02T11:00:39.002Z</time></trkpt><trkpt lat="40.33570471062283" lon="9.388552228265878"><ele>420.0</ele><time>2026-05-02T11:00:40.002Z</time></trkpt><trkpt lat="40.33558432597368" lon="9.388668631321341"><ele>420.0</ele><time>2026-05-02T11:00:41.002Z</time></trkpt><trkpt lat="40.33545264164358" lon="9.388790218070255"><ele>420.0</ele><time>2026-05-02T11:00:42.002Z</time></trkpt><trkpt lat="40.335320007931195" lon="9.38887149700612"><ele>416.25</ele><time>2026-05-02T11:00:43.002Z</time></trkpt><trkpt lat="40.33517931237034" lon="9.388911942598376"><ele>412.5</ele><time>2026-05-02T11:00:44.002Z</time></trkpt><trkpt lat="40.3350277103985" lon="9.388929494852182"><ele>408.75</ele><time>2026-05-02T11:00:45.002Z</time></trkpt><trkpt lat="40.334874549713874" lon="9.388930073772702"><ele>405.0</ele><time>2026-05-02T11:00:46.002Z</time></trkpt><trkpt lat="40.33471572830052" lon="9.388908775387662"><ele>405.0</ele><time>2026-05-02T11:00:47.002Z</time></trkpt><trkpt lat="40.334547766127976" lon="9.388848843659366"><ele>405.0</ele><time>2026-05-02T11:00:48.002Z</time></trkpt><trkpt lat="40.33437194340055" lon="9.388778746054987"><ele>405.0</ele><time>2026-05-02T11:00:49.002Z</time></trkpt><trkpt lat="40.33418920541504" lon="9.388709336239838"><ele>416.0</ele><time>2026-05-02T11:00:50.002Z</time></trkpt><trkpt lat="40.33400689568604" lon="9.388636475200489"><ele>427.0</ele><time>2026-05-02T11:00:51.002Z</time></trkpt><trkpt lat="40.33383129368534" lon="9.3885624886228"><ele>438.0</ele><time>2026-05-02T11:00:52.002Z</time></trkpt><trkpt lat="40.33366948350166" lon="9.388490183194472"><ele>438.0</ele><time>2026-05-02T11:00:53.002Z</time></trkpt><trkpt lat="40.33351518353573" lon="9.38843724072927"><ele>438.0</ele><time>2026-05-02T11:00:54.002Z</time></trkpt><trkpt lat="40.33336509367033" lon="9.388410647710392"><ele>438.0</ele><time>2026-05-02T11:00:55.002Z</time></trkpt><trkpt lat="40.3332189271757" lon="9.388421885827878"><ele>438.0</ele><time>2026-05-02T11:00:56.002Z</time></trkpt><trkpt lat="40.33306856551258" lon="9.388481998612459"><ele>438.0</ele><time>2026-05-02T11:00:57Z</time></trkpt><trkpt lat="40.332920266133705" lon="9.38855842384691"><ele>438.0</ele><time>2026-05-02T11:00:58Z</time></trkpt><trkpt lat="40.33277749297437" lon="9.388607989469559"><ele>440.0</ele><time>2026-05-02T11:00:59Z</time></trkpt><trkpt lat="40.332625157747394" lon="9.388623683192456"><ele>442.0</ele><time>2026-05-02T11:01:00Z</time></trkpt><trkpt lat="40.332459750639494" lon="9.388604064020962"><ele>444.0</ele><time>2026-05-02T11:01:01Z</time></trkpt><trkpt lat="40.33228801759579" lon="9.388555285889392"><ele>446.5</ele><time>2026-05-02T11:01:02Z</time></trkpt><trkpt lat="40.33213798919321" lon="9.388506875144996"><ele>449.0</ele><time>2026-05-02T11:01:03Z</time></trkpt><trkpt lat="40.33201118706287" lon="9.388469639756208"><ele>451.5</ele><time>2026-05-02T11:01:04Z</time></trkpt><trkpt lat="40.331898170758656" lon="9.388464614308486"><ele>454.0</ele><time>2026-05-02T11:01:05Z</time></trkpt><trkpt lat="40.33178941324194" lon="9.388508060892974"><ele>454.0</ele><time>2026-05-02T11:01:06Z</time></trkpt><trkpt lat="40.331700408612264" lon="9.388598364363169"><ele>454.0</ele><time>2026-05-02T11:01:07Z</time></trkpt><trkpt lat="40.33162238695656" lon="9.388729983258573"><ele>454.0</ele><time>2026-05-02T11:01:08Z</time></trkpt><trkpt lat="40.33155179520487" lon="9.388892477473743"><ele>454.0</ele><time>2026-05-02T11:01:09Z</time></trkpt><trkpt lat="40.33148879483248" lon="9.389079330795012"><ele>457.25</ele><time>2026-05-02T11:01:10Z</time></trkpt><trkpt lat="40.331425160831394" lon="9.389259356231987"><ele>460.5</ele><time>2026-05-02T11:01:11Z</time></trkpt><trkpt lat="40.33136952342092" lon="9.389412678935829"><ele>463.75</ele><time>2026-05-02T11:01:12Z</time></trkpt><trkpt lat="40.3313370694059" lon="9.38955491277431"><ele>467.0</ele><time>2026-05-02T11:01:13Z</time></trkpt><trkpt lat="40.33132897134005" lon="9.389691037952065"><ele>467.0</ele><time>2026-05-02T11:01:14Z</time></trkpt><trkpt lat="40.33135359418867" lon="9.389824800276275"><ele>467.0</ele><time>2026-05-02T11:01:15Z</time></trkpt><trkpt lat="40.33141890197778" lon="9.389940108232055"><ele>467.0</ele><time>2026-05-02T11:01:16Z</time></trkpt><trkpt lat="40.3315158102066" lon="9.390060189539634"><ele>467.0</ele><time>2026-05-02T11:01:17Z</time></trkpt><trkpt lat="40.331631396424186" lon="9.390184036054523"><ele>464.66666666666663</ele><time>2026-05-02T11:01:18Z</time></trkpt><trkpt lat="40.33176384572012" lon="9.390319893971316"><ele>462.33333333333337</ele><time>2026-05-02T11:01:19Z</time></trkpt><trkpt lat="40.331904559601966" lon="9.39046603766488"><ele>460.0</ele><time>2026-05-02T11:01:20Z</time></trkpt><trkpt lat="40.33204546207955" lon="9.390615978236845"><ele>460.0</ele><time>2026-05-02T11:01:21Z</time></trkpt><trkpt lat="40.33218226613076" lon="9.390767386340096"><ele>460.0</ele><time>2026-05-02T11:01:22Z</time></trkpt><trkpt lat="40.332308055878336" lon="9.390902753980452"><ele>460.0</ele><time>2026-05-02T11:01:23Z</time></trkpt><trkpt lat="40.33241866026332" lon="9.391025905447297"><ele>457.6666666666667</ele><time>2026-05-02T11:01:24.001Z</time></trkpt><trkpt lat="40.33251538281077" lon="9.391161017983489"><ele>455.33333333333337</ele><time>2026-05-02T11:01:25.001Z</time></trkpt><trkpt lat="40.33260261739182" lon="9.39132673681738"><ele>453.0</ele><time>2026-05-02T11:01:26.001Z</time></trkpt><trkpt lat="40.33267555821598" lon="9.391509643765575"><ele>453.0</ele><time>2026-05-02T11:01:27.001Z</time></trkpt><trkpt lat="40.332739999052485" lon="9.391701477985055"><ele>453.0</ele><time>2026-05-02T11:01:28.001Z</time></trkpt><trkpt lat="40.33279843244586" lon="9.391877681980223"><ele>453.0</ele><time>2026-05-02T11:01:29.001Z</time></trkpt><trkpt lat="40.3328404352015" lon="9.392029358152444"><ele>453.0</ele><time>2026-05-02T11:01:30.001Z</time></trkpt><trkpt lat="40.332856776397506" lon="9.39218272877371"><ele>453.5</ele><time>2026-05-02T11:01:31.001Z</time></trkpt><trkpt lat="40.33284166986422" lon="9.39234139018661"><ele>454.0</ele><time>2026-05-02T11:01:32.001Z</time></trkpt><trkpt lat="40.332796719373" lon="9.39250649579599"><ele>454.5</ele><time>2026-05-02T11:01:33.001Z</time></trkpt><trkpt lat="40.332728840462536" lon="9.392679283765654"><ele>455.0</ele><time>2026-05-02T11:01:34.001Z</time></trkpt><trkpt lat="40.332654698123115" lon="9.392851979938484"><ele>455.0</ele><time>2026-05-02T11:01:35.001Z</time></trkpt><trkpt lat="40.33259034692608" lon="9.392996836235518"><ele>455.0</ele><time>2026-05-02T11:01:36.001Z</time></trkpt><trkpt lat="40.33252604645732" lon="9.393116275368143"><ele>455.0</ele><time>2026-05-02T11:01:37.001Z</time></trkpt><trkpt lat="40.3324519360606" lon="9.393210235929288"><ele>455.0</ele><time>2026-05-02T11:01:38.001Z</time></trkpt><trkpt lat="40.33237244518049" lon="9.393277153446917"><ele>455.0</ele><time>2026-05-02T11:01:39.001Z</time></trkpt><trkpt lat="40.33229172192737" lon="9.393313530270973"><ele>452.4</ele><time>2026-05-02T11:01:40.001Z</time></trkpt><trkpt lat="40.332207404422206" lon="9.393317346107125"><ele>449.8</ele><time>2026-05-02T11:01:41.001Z</time></trkpt><trkpt lat="40.332126151191694" lon="9.393297903141654"><ele>447.20000000000005</ele><time>2026-05-02T11:01:42.001Z</time></trkpt><trkpt lat="40.332050273072106" lon="9.393259799540632"><ele>444.6</ele><time>2026-05-02T11:01:43.001Z</time></trkpt><trkpt lat="40.33199102317171" lon="9.393212480302939"><ele>442.0</ele><time>2026-05-02T11:01:44.001Z</time></trkpt><trkpt lat="40.32922419234542" lon="9.415232069818359"><ele>396.75</ele><time>2026-05-02T11:06:38.001Z</time></trkpt><trkpt lat="40.32913984114404" lon="9.415384613757494"><ele>351.5</ele><time>2026-05-02T11:06:39.001Z</time></trkpt><trkpt lat="40.329054884233685" lon="9.415528253202396"><ele>306.25</ele><time>2026-05-02T11:06:40.001Z</time></trkpt><trkpt lat="40.328973162116554" lon="9.415672919044297"><ele>261.0</ele><time>2026-05-02T11:06:41.001Z</time></trkpt><trkpt lat="40.32888772163543" lon="9.415817261742257"><ele>259.5</ele><time>2026-05-02T11:06:42.001Z</time></trkpt><trkpt lat="40.32879876106483" lon="9.415960570359651"><ele>258.0</ele><time>2026-05-02T11:06:43.001Z</time></trkpt><trkpt lat="40.32870515448228" lon="9.416101616286685"><ele>256.5</ele><time>2026-05-02T11:06:44.001Z</time></trkpt><trkpt lat="40.328602383575785" lon="9.416223284022069"><ele>255.0</ele><time>2026-05-02T11:06:45.001Z</time></trkpt><trkpt lat="40.328496789969044" lon="9.416325571977245"><ele>254.0</ele><time>2026-05-02T11:06:46.001Z</time></trkpt><trkpt lat="40.32838391992169" lon="9.416402175021533"><ele>253.0</ele><time>2026-05-02T11:06:47.001Z</time></trkpt><trkpt lat="40.328262682475334" lon="9.416476294065397"><ele>252.0</ele><time>2026-05-02T11:06:48.001Z</time></trkpt><trkpt lat="40.32814472882352" lon="9.416563693000201"><ele>251.0</ele><time>2026-05-02T11:06:49.001Z</time></trkpt><trkpt lat="40.32802836318426" lon="9.416646762914159"><ele>251.0</ele><time>2026-05-02T11:06:50.001Z</time></trkpt><trkpt lat="40.327912617782154" lon="9.416732538106734"><ele>251.0</ele><time>2026-05-02T11:06:51.001Z</time></trkpt><trkpt lat="40.327793123634166" lon="9.416799379903669"><ele>251.0</ele><time>2026-05-02T11:06:52.001Z</time></trkpt><trkpt lat="40.32767127674262" lon="9.416849236576816"><ele>251.0</ele><time>2026-05-02T11:06:53.001Z</time></trkpt><trkpt lat="40.327543570945274" lon="9.416890660564537"><ele>251.0</ele><time>2026-05-02T11:06:54.001Z</time></trkpt><trkpt lat="40.3274152622932" lon="9.416915289237185"><ele>251.0</ele><time>2026-05-02T11:06:55.001Z</time></trkpt><trkpt lat="40.32728595594432" lon="9.416933359591786"><ele>251.0</ele><time>2026-05-02T11:06:56.001Z</time></trkpt><trkpt lat="40.32701100622636" lon="9.416969806971748"><ele>250.25</ele><time>2026-05-02T11:06:58.002Z</time></trkpt><trkpt lat="40.326884330542185" lon="9.416981442077649"><ele>249.5</ele><time>2026-05-02T11:06:59.002Z</time></trkpt><trkpt lat="40.32674622561264" lon="9.416994316737663"><ele>248.75</ele><time>2026-05-02T11:07:00.002Z</time></trkpt><trkpt lat="40.32660505798036" lon="9.416990606075126"><ele>248.0</ele><time>2026-05-02T11:07:01.002Z</time></trkpt><trkpt lat="40.3264641191597" lon="9.416973304247081"><ele>246.75</ele><time>2026-05-02T11:07:02.002Z</time></trkpt><trkpt lat="40.32632130322181" lon="9.416947603216947"><ele>245.5</ele><time>2026-05-02T11:07:03.002Z</time></trkpt><trkpt lat="40.32618269946761" lon="9.416924941158278"><ele>244.25</ele><time>2026-05-02T11:07:04.002Z</time></trkpt><trkpt lat="40.32604131070525" lon="9.416907868725207"><ele>243.0</ele><time>2026-05-02T11:07:05.002Z</time></trkpt><trkpt lat="40.325896656971686" lon="9.416893025825443"><ele>243.0</ele><time>2026-05-02T11:07:06.002Z</time></trkpt><trkpt lat="40.32575776176904" lon="9.416880014000656"><ele>243.0</ele><time>2026-05-02T11:07:07.002Z</time></trkpt><trkpt lat="40.325617345074086" lon="9.416851852062704"><ele>243.0</ele><time>2026-05-02T11:07:08.002Z</time></trkpt><trkpt lat="40.32548230001719" lon="9.416825396114751"><ele>243.0</ele><time>2026-05-02T11:07:09.002Z</time></trkpt><trkpt lat="40.32535630768824" lon="9.416787587187217"><ele>241.25</ele><time>2026-05-02T11:07:10.002Z</time></trkpt><trkpt lat="40.32523852832261" lon="9.416737074974773"><ele>239.5</ele><time>2026-05-02T11:07:11.002Z</time></trkpt><trkpt lat="40.32513508681727" lon="9.416665720816066"><ele>237.75</ele><time>2026-05-02T11:07:12.002Z</time></trkpt><trkpt lat="40.325028676982846" lon="9.41658389674074"><ele>236.0</ele><time>2026-05-02T11:07:13.002Z</time></trkpt><trkpt lat="40.324923208898525" lon="9.416498066930888"><ele>236.0</ele><time>2026-05-02T11:07:14.001Z</time></trkpt><trkpt lat="40.32481292016914" lon="9.41640703783082"><ele>236.0</ele><time>2026-05-02T11:07:15.001Z</time></trkpt><trkpt lat="40.32469677706434" lon="9.416318004582102"><ele>236.0</ele><time>2026-05-02T11:07:16.001Z</time></trkpt><trkpt lat="40.3245733654687" lon="9.416247397447192"><ele>236.0</ele><time>2026-05-02T11:07:17.001Z</time></trkpt><trkpt lat="40.324307932271005" lon="9.416148036426671"><ele>236.0</ele><time>2026-05-02T11:07:19.001Z</time></trkpt><trkpt lat="40.324175419958664" lon="9.41611821563973"><ele>236.0</ele><time>2026-05-02T11:07:20.001Z</time></trkpt><trkpt lat="40.324046645369016" lon="9.416090101646233"><ele>236.0</ele><time>2026-05-02T11:07:21.001Z</time></trkpt><trkpt lat="40.3239232537417" lon="9.416044385675097"><ele>236.0</ele><time>2026-05-02T11:07:22.001Z</time></trkpt><trkpt lat="40.32380020686574" lon="9.41596973427952"><ele>233.75</ele><time>2026-05-02T11:07:23.001Z</time></trkpt><trkpt lat="40.32367402806807" lon="9.415882548165184"><ele>231.5</ele><time>2026-05-02T11:07:24.001Z</time></trkpt><trkpt lat="40.323546374023636" lon="9.415791794239034"><ele>229.25</ele><time>2026-05-02T11:07:25.001Z</time></trkpt><trkpt lat="40.32341709163259" lon="9.415694475780302"><ele>227.0</ele><time>2026-05-02T11:07:26Z</time></trkpt><trkpt lat="40.32328978542089" lon="9.415585637456578"><ele>227.0</ele><time>2026-05-02T11:07:27Z</time></trkpt><trkpt lat="40.32316682309712" lon="9.415482386577645"><ele>227.0</ele><time>2026-05-02T11:07:28Z</time></trkpt><trkpt lat="40.32304485626469" lon="9.415387680867111"><ele>227.0</ele><time>2026-05-02T11:07:29Z</time></trkpt><trkpt lat="40.32291815393929" lon="9.415301651933774"><ele>227.0</ele><time>2026-05-02T11:07:30Z</time></trkpt><trkpt lat="40.32277824648973" lon="9.41524339402417"><ele>227.0</ele><time>2026-05-02T11:07:31Z</time></trkpt><trkpt lat="40.32263129548519" lon="9.415212437717923"><ele>227.0</ele><time>2026-05-02T11:07:32Z</time></trkpt><trkpt lat="40.32248013284828" lon="9.415203337026542"><ele>227.0</ele><time>2026-05-02T11:07:33.001Z</time></trkpt><trkpt lat="40.32232775759586" lon="9.415198510431871"><ele>227.25</ele><time>2026-05-02T11:07:34.001Z</time></trkpt><trkpt lat="40.322177843901926" lon="9.415196768930718"><ele>227.5</ele><time>2026-05-02T11:07:35.001Z</time></trkpt><trkpt lat="40.32203540415177" lon="9.415190650039706"><ele>227.75</ele><time>2026-05-02T11:07:36.001Z</time></trkpt><trkpt lat="40.32189459497078" lon="9.415188487736833"><ele>228.0</ele><time>2026-05-02T11:07:37.001Z</time></trkpt><trkpt lat="40.3217540846218" lon="9.415196435980969"><ele>228.0</ele><time>2026-05-02T11:07:38.001Z</time></trkpt><trkpt lat="40.32150023871335" lon="9.415266044750316"><ele>228.0</ele><time>2026-05-02T11:07:40.001Z</time></trkpt><trkpt lat="40.32138184945956" lon="9.415314082281416"><ele>228.0</ele><time>2026-05-02T11:07:41.001Z</time></trkpt><trkpt lat="40.32126598413388" lon="9.415367800212953"><ele>227.5</ele><time>2026-05-02T11:07:42.001Z</time></trkpt><trkpt lat="40.32115108419625" lon="9.41543352475901"><ele>227.0</ele><time>2026-05-02T11:07:43.001Z</time></trkpt><trkpt lat="40.32103969305596" lon="9.41549957940545"><ele>226.5</ele><time>2026-05-02T11:07:44.001Z</time></trkpt><trkpt lat="40.32092919438895" lon="9.415562079414439"><ele>226.0</ele><time>2026-05-02T11:07:45.001Z</time></trkpt><trkpt lat="40.32081638422447" lon="9.415624001190428"><ele>224.75</ele><time>2026-05-02T11:07:46.001Z</time></trkpt><trkpt lat="40.32069960243328" lon="9.415687708675573"><ele>223.5</ele><time>2026-05-02T11:07:47.001Z</time></trkpt><trkpt lat="40.32057796487445" lon="9.415744867749725"><ele>222.25</ele><time>2026-05-02T11:07:48.001Z</time></trkpt><trkpt lat="40.32045016884791" lon="9.415788319069648"><ele>221.0</ele><time>2026-05-02T11:07:49.001Z</time></trkpt><trkpt lat="40.320313290776" lon="9.415813541839507"><ele>220.33333333333334</ele><time>2026-05-02T11:07:50.001Z</time></trkpt><trkpt lat="40.32015678426445" lon="9.415827624540738"><ele>219.66666666666669</ele><time>2026-05-02T11:07:51.001Z</time></trkpt><trkpt lat="40.31999833581864" lon="9.415827152535469"><ele>219.0</ele><time>2026-05-02T11:07:52.001Z</time></trkpt><trkpt lat="40.319840163949344" lon="9.415817615370665"><ele>217.66666666666669</ele><time>2026-05-02T11:07:53.001Z</time></trkpt><trkpt lat="40.31968419649845" lon="9.41580481646075"><ele>216.33333333333334</ele><time>2026-05-02T11:07:54.001Z</time></trkpt><trkpt lat="40.31953465768281" lon="9.415787098694189"><ele>215.0</ele><time>2026-05-02T11:07:55.001Z</time></trkpt><trkpt lat="40.31939119945358" lon="9.415766233553313"><ele>215.0</ele><time>2026-05-02T11:07:56.001Z</time></trkpt><trkpt lat="40.31925395611925" lon="9.41574327656921"><ele>215.0</ele><time>2026-05-02T11:07:57.001Z</time></trkpt><trkpt lat="40.319122822119844" lon="9.415715558508124"><ele>215.0</ele><time>2026-05-02T11:07:58.001Z</time></trkpt><trkpt lat="40.319000405852314" lon="9.41567582557574"><ele>215.0</ele><time>2026-05-02T11:07:59.001Z</time></trkpt><trkpt lat="40.318779385879445" lon="9.415581081943685"><ele>214.75</ele><time>2026-05-02T11:08:01.001Z</time></trkpt><trkpt lat="40.31867340485706" lon="9.41553792302438"><ele>214.5</ele><time>2026-05-02T11:08:02.001Z</time></trkpt><trkpt lat="40.318562025517274" lon="9.415492924180764"><ele>214.25</ele><time>2026-05-02T11:08:03.001Z</time></trkpt><trkpt lat="40.31844352782376" lon="9.415456837440852"><ele>214.0</ele><time>2026-05-02T11:08:04.001Z</time></trkpt><trkpt lat="40.318319042364536" lon="9.4154445554044"><ele>214.0</ele><time>2026-05-02T11:08:05.001Z</time></trkpt><trkpt lat="40.318193927139006" lon="9.41545944941307"><ele>214.0</ele><time>2026-05-02T11:08:06.001Z</time></trkpt><trkpt lat="40.31807786320371" lon="9.415493387556008"><ele>214.0</ele><time>2026-05-02T11:08:07.001Z</time></trkpt><trkpt lat="40.317971845148186" lon="9.415532354077014"><ele>214.0</ele><time>2026-05-02T11:08:08.001Z</time></trkpt><trkpt lat="40.31787221817544" lon="9.415565914105185"><ele>214.0</ele><time>2026-05-02T11:08:09.001Z</time></trkpt><trkpt lat="40.31776529019435" lon="9.41558290198667"><ele>214.0</ele><time>2026-05-02T11:08:10.001Z</time></trkpt><trkpt lat="40.31765104257992" lon="9.415583687931143"><ele>214.0</ele><time>2026-05-02T11:08:11.001Z</time></trkpt><trkpt lat="40.31753108459486" lon="9.415566642720037"><ele>214.0</ele><time>2026-05-02T11:08:12.001Z</time></trkpt><trkpt lat="40.31740899266516" lon="9.41553803825129"><ele>214.0</ele><time>2026-05-02T11:08:13.001Z</time></trkpt><trkpt lat="40.31729505969535" lon="9.415511463365972"><ele>213.99999999999997</ele><time>2026-05-02T11:08:14.001Z</time></trkpt><trkpt lat="40.317194006233905" lon="9.41549017353999"><ele>213.99999999999997</ele><time>2026-05-02T11:08:15.001Z</time></trkpt><trkpt lat="40.31710266825925" lon="9.415471874454465"><ele>214.0</ele><time>2026-05-02T11:08:16.001Z</time></trkpt><trkpt lat="40.317023970084875" lon="9.415458473162673"><ele>214.0</ele><time>2026-05-02T11:08:17.001Z</time></trkpt><trkpt lat="40.31696070479841" lon="9.415449007816624"><ele>214.75</ele><time>2026-05-02T11:08:18.001Z</time></trkpt><trkpt lat="40.31689754285997" lon="9.415439752979895"><ele>215.5</ele><time>2026-05-02T11:08:20.001Z</time></trkpt><trkpt lat="40.316749672825004" lon="9.415139798661563"><ele>216.25</ele><time>2026-05-02T11:09:31Z</time></trkpt><trkpt lat="40.31674014953612" lon="9.415011266455469"><ele>217.0</ele><time>2026-05-02T11:09:32Z</time></trkpt><trkpt lat="40.31673483339954" lon="9.414884761335468"><ele>217.0</ele><time>2026-05-02T11:09:33Z</time></trkpt><trkpt lat="40.31672333365194" lon="9.414746914818602"><ele>217.0</ele><time>2026-05-02T11:09:34Z</time></trkpt><trkpt lat="40.31670613523883" lon="9.414597760280342"><ele>217.0</ele><time>2026-05-02T11:09:35Z</time></trkpt><trkpt lat="40.316683800826425" lon="9.414427199174629"><ele>217.0</ele><time>2026-05-02T11:09:36Z</time></trkpt><trkpt lat="40.31665775150069" lon="9.41424833961057"><ele>218.25</ele><time>2026-05-02T11:09:37Z</time></trkpt><trkpt lat="40.31662948902128" lon="9.414085523321688"><ele>219.5</ele><time>2026-05-02T11:09:38Z</time></trkpt><trkpt lat="40.316600016649254" lon="9.413919130006045"><ele>220.75</ele><time>2026-05-02T11:09:39Z</time></trkpt><trkpt lat="40.31656979861509" lon="9.413752671159994"><ele>222.0</ele><time>2026-05-02T11:09:40Z</time></trkpt><trkpt lat="40.31653812361564" lon="9.413581067260662"><ele>223.0</ele><time>2026-05-02T11:09:41Z</time></trkpt><trkpt lat="40.316507274573475" lon="9.413400035130499"><ele>224.0</ele><time>2026-05-02T11:09:42Z</time></trkpt><trkpt lat="40.316475732332236" lon="9.413210919888098"><ele>225.0</ele><time>2026-05-02T11:09:43Z</time></trkpt><trkpt lat="40.31644260765547" lon="9.413011722681684"><ele>226.0</ele><time>2026-05-02T11:09:44Z</time></trkpt><trkpt lat="40.316408662825225" lon="9.412803624678522"><ele>228.0</ele><time>2026-05-02T11:09:45Z</time></trkpt><trkpt lat="40.31637547233585" lon="9.412588524869308"><ele>230.0</ele><time>2026-05-02T11:09:46Z</time></trkpt><trkpt lat="40.31634178540695" lon="9.412381723548037"><ele>232.0</ele><time>2026-05-02T11:09:47Z</time></trkpt><trkpt lat="40.31630662984989" lon="9.412177154778217"><ele>232.0</ele><time>2026-05-02T11:09:48Z</time></trkpt><trkpt lat="40.31627215819654" lon="9.411971243939618"><ele>232.0</ele><time>2026-05-02T11:09:49Z</time></trkpt><trkpt lat="40.316200260543305" lon="9.411542191514593"><ele>232.66666666666666</ele><time>2026-05-02T11:09:51Z</time></trkpt><trkpt lat="40.31616308462548" lon="9.411321585917952"><ele>233.33333333333331</ele><time>2026-05-02T11:09:52Z</time></trkpt><trkpt lat="40.316125958590426" lon="9.411098659440304"><ele>234.0</ele><time>2026-05-02T11:09:53Z</time></trkpt><trkpt lat="40.31608671087675" lon="9.410874417438597"><ele>234.0</ele><time>2026-05-02T11:09:54Z</time></trkpt><trkpt lat="40.31604765067339" lon="9.410646143499372"><ele>234.0</ele><time>2026-05-02T11:09:55Z</time></trkpt><trkpt lat="40.31601028573343" lon="9.410418369275375"><ele>234.0</ele><time>2026-05-02T11:09:56Z</time></trkpt><trkpt lat="40.31597271654412" lon="9.410192174772348"><ele>234.66666666666669</ele><time>2026-05-02T11:09:57.001Z</time></trkpt><trkpt lat="40.31593103722558" lon="9.409970184458844"><ele>235.33333333333334</ele><time>2026-05-02T11:09:58.001Z</time></trkpt><trkpt lat="40.315879077202744" lon="9.409752472684575"><ele>236.0</ele><time>2026-05-02T11:09:59.001Z</time></trkpt><trkpt lat="40.315814220089834" lon="9.409543999485503"><ele>236.0</ele><time>2026-05-02T11:10:00.001Z</time></trkpt><trkpt lat="40.3157336582258" lon="9.409346022305646"><ele>236.0</ele><time>2026-05-02T11:10:01.001Z</time></trkpt><trkpt lat="40.31563869111972" lon="9.409151937269135"><ele>236.0</ele><time>2026-05-02T11:10:02.001Z</time></trkpt><trkpt lat="40.315537576349506" lon="9.408950025856198"><ele>235.0</ele><time>2026-05-02T11:10:03.001Z</time></trkpt><trkpt lat="40.31543112388291" lon="9.408735442532612"><ele>234.0</ele><time>2026-05-02T11:10:04.001Z</time></trkpt><trkpt lat="40.31532212876727" lon="9.408518859630423"><ele>233.0</ele><time>2026-05-02T11:10:05.001Z</time></trkpt><trkpt lat="40.315207808972374" lon="9.408294647421352"><ele>233.0</ele><time>2026-05-02T11:10:06.001Z</time></trkpt><trkpt lat="40.31508863880826" lon="9.40805980079499"><ele>233.0</ele><time>2026-05-02T11:10:07.001Z</time></trkpt><trkpt lat="40.3149685026506" lon="9.407821844343584"><ele>233.0</ele><time>2026-05-02T11:10:08.001Z</time></trkpt><trkpt lat="40.314845008201104" lon="9.407580131357596"><ele>232.0</ele><time>2026-05-02T11:10:09.001Z</time></trkpt><trkpt lat="40.31472064851773" lon="9.407335363136696"><ele>231.0</ele><time>2026-05-02T11:10:10.001Z</time></trkpt><trkpt lat="40.314468545613174" lon="9.406842789937965"><ele>231.0</ele><time>2026-05-02T11:10:12.001Z</time></trkpt><trkpt lat="40.314341785468095" lon="9.406593911873333"><ele>231.0</ele><time>2026-05-02T11:10:13.001Z</time></trkpt><trkpt lat="40.31421717272988" lon="9.406345440015242"><ele>234.0</ele><time>2026-05-02T11:10:14.001Z</time></trkpt><trkpt lat="40.31409081022791" lon="9.406091893383705"><ele>237.0</ele><time>2026-05-02T11:10:15.001Z</time></trkpt><trkpt lat="40.31396304338521" lon="9.405838850994966"><ele>237.0</ele><time>2026-05-02T11:10:16.001Z</time></trkpt><trkpt lat="40.313837345509896" lon="9.405585794732072"><ele>237.0</ele><time>2026-05-02T11:10:17.001Z</time></trkpt><trkpt lat="40.31370997527582" lon="9.405334015126927"><ele>237.0</ele><time>2026-05-02T11:10:18.001Z</time></trkpt><trkpt lat="40.313582318368084" lon="9.405083475192711"><ele>237.0</ele><time>2026-05-02T11:10:19.001Z</time></trkpt><trkpt lat="40.313457351476714" lon="9.404836254297763"><ele>238.0</ele><time>2026-05-02T11:10:20.001Z</time></trkpt><trkpt lat="40.313335696630425" lon="9.404595409047655"><ele>239.0</ele><time>2026-05-02T11:10:21.001Z</time></trkpt><trkpt lat="40.31321578769182" lon="9.404349539144336"><ele>240.0</ele><time>2026-05-02T11:10:22.001Z</time></trkpt><trkpt lat="40.313090607053" lon="9.404106951686218"><ele>239.5</ele><time>2026-05-02T11:10:23.001Z</time></trkpt><trkpt lat="40.312957019337816" lon="9.403850193272868"><ele>239.0</ele><time>2026-05-02T11:10:24.001Z</time></trkpt><trkpt lat="40.31281676684338" lon="9.403585396953474"><ele>240.5</ele><time>2026-05-02T11:10:25.001Z</time></trkpt><trkpt lat="40.31267487258446" lon="9.403308883793233"><ele>242.0</ele><time>2026-05-02T11:10:26.001Z</time></trkpt><trkpt lat="40.31252992693389" lon="9.403023548880428"><ele>243.5</ele><time>2026-05-02T11:10:27.001Z</time></trkpt><trkpt lat="40.312384665222424" lon="9.402733358564792"><ele>245.0</ele><time>2026-05-02T11:10:28.001Z</time></trkpt><trkpt lat="40.31224118573369" lon="9.402440694269947"><ele>246.0</ele><time>2026-05-02T11:10:29.001Z</time></trkpt><trkpt lat="40.31209865706285" lon="9.4021535541367"><ele>247.0</ele><time>2026-05-02T11:10:30.001Z</time></trkpt><trkpt lat="40.31196235359336" lon="9.401882106342864"><ele>247.0</ele><time>2026-05-02T11:10:31.001Z</time></trkpt><trkpt lat="40.31171317253794" lon="9.40138570949813"><ele>251.0</ele><time>2026-05-02T11:10:33.001Z</time></trkpt><trkpt lat="40.31158858014245" lon="9.40114532148896"><ele>255.0</ele><time>2026-05-02T11:10:34.001Z</time></trkpt><trkpt lat="40.31145991050372" lon="9.400893882128065"><ele>254.0</ele><time>2026-05-02T11:10:35.001Z</time></trkpt><trkpt lat="40.31132245686811" lon="9.400624811632738"><ele>253.0</ele><time>2026-05-02T11:10:36.001Z</time></trkpt><trkpt lat="40.31117914881578" lon="9.400342222203236"><ele>253.0</ele><time>2026-05-02T11:10:37.001Z</time></trkpt><trkpt lat="40.31103221498705" lon="9.400047692478173"><ele>253.0</ele><time>2026-05-02T11:10:38.001Z</time></trkpt><trkpt lat="40.31088199942307" lon="9.399746420760659"><ele>254.0</ele><time>2026-05-02T11:10:39.001Z</time></trkpt><trkpt lat="40.31073462505477" lon="9.399451709598738"><ele>255.0</ele><time>2026-05-02T11:10:40.001Z</time></trkpt><trkpt lat="40.31059563880661" lon="9.399171614746498"><ele>255.5</ele><time>2026-05-02T11:10:41.001Z</time></trkpt><trkpt lat="40.310462537091134" lon="9.39890449140797"><ele>256.0</ele><time>2026-05-02T11:10:42.001Z</time></trkpt><trkpt lat="40.31033602575696" lon="9.39865129189656"><ele>256.0</ele><time>2026-05-02T11:10:43.001Z</time></trkpt><trkpt lat="40.31021012375202" lon="9.398400347019761"><ele>256.0</ele><time>2026-05-02T11:10:44.001Z</time></trkpt><trkpt lat="40.31009795671384" lon="9.398178681819388"><ele>256.0</ele><time>2026-05-02T11:10:45.001Z</time></trkpt><trkpt lat="40.309999925696275" lon="9.397988355961404"><ele>257.0</ele><time>2026-05-02T11:10:46.001Z</time></trkpt><trkpt lat="40.30991302266718" lon="9.397817319072992"><ele>258.0</ele><time>2026-05-02T11:10:47.001Z</time></trkpt><trkpt lat="40.309844053560795" lon="9.397658542259792"><ele>259.0</ele><time>2026-05-02T11:10:48.001Z</time></trkpt><trkpt lat="40.30979421226375" lon="9.397484228123373"><ele>260.0</ele><time>2026-05-02T11:10:49.001Z</time></trkpt><trkpt lat="40.309782486657234" lon="9.39729118866691"><ele>262.33333333333337</ele><time>2026-05-02T11:10:50.001Z</time></trkpt><trkpt lat="40.3097986404712" lon="9.397081575198902"><ele>264.6666666666667</ele><time>2026-05-02T11:10:51.001Z</time></trkpt><trkpt lat="40.309840261059406" lon="9.396852059490373"><ele>267.0</ele><time>2026-05-02T11:10:52.001Z</time></trkpt><trkpt lat="40.30993416564896" lon="9.396395599499186"><ele>269.0</ele><time>2026-05-02T11:10:54.001Z</time></trkpt><trkpt lat="40.309967171811536" lon="9.39621281938027"><ele>271.0</ele><time>2026-05-02T11:10:55.001Z</time></trkpt><trkpt lat="40.3099742211617" lon="9.396051341131281"><ele>273.0</ele><time>2026-05-02T11:10:56.001Z</time></trkpt><trkpt lat="40.30994538204366" lon="9.39590574695693"><ele>275.0</ele><time>2026-05-02T11:10:57.001Z</time></trkpt><trkpt lat="40.30987853191332" lon="9.395772432751885"><ele>275.0</ele><time>2026-05-02T11:10:58.001Z</time></trkpt><trkpt lat="40.30977765504142" lon="9.395660842950235"><ele>275.0</ele><time>2026-05-02T11:10:59.001Z</time></trkpt><trkpt lat="40.3096460551692" lon="9.395549389695008"><ele>275.0</ele><time>2026-05-02T11:11:00.002Z</time></trkpt><trkpt lat="40.309523866001555" lon="9.39542671783974"><ele>275.0</ele><time>2026-05-02T11:11:01.002Z</time></trkpt><trkpt lat="40.309421271728596" lon="9.39527276143476"><ele>275.0</ele><time>2026-05-02T11:11:02.002Z</time></trkpt><trkpt lat="40.30933728329645" lon="9.395086255590297"><ele>275.0</ele><time>2026-05-02T11:11:03.002Z</time></trkpt><trkpt lat="40.309266199458435" lon="9.39487610866388"><ele>275.0</ele><time>2026-05-02T11:11:04.002Z</time></trkpt><trkpt lat="40.30919836438554" lon="9.394650758658674"><ele>279.0</ele><time>2026-05-02T11:11:05.002Z</time></trkpt><trkpt lat="40.30913518930895" lon="9.394423316094594"><ele>283.0</ele><time>2026-05-02T11:11:06.002Z</time></trkpt><trkpt lat="40.30906958691305" lon="9.394186929170175"><ele>287.0</ele><time>2026-05-02T11:11:07.002Z</time></trkpt><trkpt lat="40.30901170323294" lon="9.393980409398603"><ele>287.75</ele><time>2026-05-02T11:11:08.002Z</time></trkpt><trkpt lat="40.30896258415058" lon="9.393784149788655"><ele>288.5</ele><time>2026-05-02T11:11:09.002Z</time></trkpt><trkpt lat="40.30893933639449" lon="9.393602677274298"><ele>289.25</ele><time>2026-05-02T11:11:10.002Z</time></trkpt><trkpt lat="40.30894435851632" lon="9.393431585837144"><ele>290.0</ele><time>2026-05-02T11:11:11.002Z</time></trkpt><trkpt lat="40.308975309241625" lon="9.393266531536247"><ele>290.0</ele><time>2026-05-02T11:11:12.002Z</time></trkpt><trkpt lat="40.30903806946501" lon="9.393106452274065"><ele>290.0</ele><time>2026-05-02T11:11:13.002Z</time></trkpt><trkpt lat="40.30926047132339" lon="9.392839373987687"><ele>290.0</ele><time>2026-05-02T11:11:15.002Z</time></trkpt><trkpt lat="40.30940727117904" lon="9.392716050454084"><ele>287.33333333333337</ele><time>2026-05-02T11:11:16.002Z</time></trkpt><trkpt lat="40.30955083835028" lon="9.392570396544123"><ele>284.6666666666667</ele><time>2026-05-02T11:11:17.002Z</time></trkpt><trkpt lat="40.3096724422167" lon="9.392403351455963"><ele>282.0</ele><time>2026-05-02T11:11:18.002Z</time></trkpt><trkpt lat="40.30976915812848" lon="9.392212983889378"><ele>286.6666666666667</ele><time>2026-05-02T11:11:19.002Z</time></trkpt><trkpt lat="40.30984184790744" lon="9.391996719850939"><ele>291.33333333333337</ele><time>2026-05-02T11:11:20.002Z</time></trkpt><trkpt lat="40.309885940070295" lon="9.391771714612103"><ele>296.0</ele><time>2026-05-02T11:11:21.002Z</time></trkpt><trkpt lat="40.30990104811323" lon="9.391540600795054"><ele>298.6666666666667</ele><time>2026-05-02T11:11:22.002Z</time></trkpt><trkpt lat="40.309889910171776" lon="9.39130667911688"><ele>301.3333333333333</ele><time>2026-05-02T11:11:23.002Z</time></trkpt><trkpt lat="40.30985300307194" lon="9.391067981026199"><ele>304.0</ele><time>2026-05-02T11:11:24.002Z</time></trkpt><trkpt lat="40.30979875278289" lon="9.39083128060046"><ele>304.0</ele><time>2026-05-02T11:11:25.002Z</time></trkpt><trkpt lat="40.30974741681168" lon="9.39059516229171"><ele>304.0</ele><time>2026-05-02T11:11:26Z</time></trkpt><trkpt lat="40.30972358517904" lon="9.390354939744562"><ele>304.0</ele><time>2026-05-02T11:11:27Z</time></trkpt><trkpt lat="40.30972795853094" lon="9.390108361184103"><ele>304.0</ele><time>2026-05-02T11:11:28Z</time></trkpt><trkpt lat="40.30975311942872" lon="9.389856060985148"><ele>304.0</ele><time>2026-05-02T11:11:29Z</time></trkpt><trkpt lat="40.30980564173651" lon="9.38960705930174"><ele>304.0</ele><time>2026-05-02T11:11:30Z</time></trkpt><trkpt lat="40.30988270446587" lon="9.38935362863564"><ele>304.0</ele><time>2026-05-02T11:11:31Z</time></trkpt><trkpt lat="40.309976260879125" lon="9.389086376359847"><ele>304.0</ele><time>2026-05-02T11:11:32Z</time></trkpt><trkpt lat="40.3100633034617" lon="9.388835044471689"><ele>304.0</ele><time>2026-05-02T11:11:33Z</time></trkpt><trkpt lat="40.310137989048734" lon="9.388575322262872"><ele>304.0</ele><time>2026-05-02T11:11:34Z</time></trkpt><trkpt lat="40.31023562699624" lon="9.38800307639444"><ele>304.0</ele><time>2026-05-02T11:11:36Z</time></trkpt><trkpt lat="40.31026215207203" lon="9.387691460991316"><ele>304.0</ele><time>2026-05-02T11:11:37Z</time></trkpt><trkpt lat="40.31028302217749" lon="9.387365620914478"><ele>304.0</ele><time>2026-05-02T11:11:38Z</time></trkpt><trkpt lat="40.31030056383232" lon="9.387046252103342"><ele>305.0</ele><time>2026-05-02T11:11:39Z</time></trkpt><trkpt lat="40.31031674474322" lon="9.38672828183233"><ele>306.0</ele><time>2026-05-02T11:11:40Z</time></trkpt><trkpt lat="40.310332570644235" lon="9.386422175602833"><ele>306.6666666666667</ele><time>2026-05-02T11:11:41Z</time></trkpt><trkpt lat="40.31035002819327" lon="9.386139981209736"><ele>307.33333333333337</ele><time>2026-05-02T11:11:42Z</time></trkpt><trkpt lat="40.31036073435868" lon="9.38587784163172"><ele>308.0</ele><time>2026-05-02T11:11:43Z</time></trkpt><trkpt lat="40.310359315081854" lon="9.38563835953099"><ele>310.0</ele><time>2026-05-02T11:11:44Z</time></trkpt><trkpt lat="40.31033857091925" lon="9.38542081038862"><ele>312.0</ele><time>2026-05-02T11:11:45Z</time></trkpt><trkpt lat="40.31028989744737" lon="9.385218651483948"><ele>314.0</ele><time>2026-05-02T11:11:46Z</time></trkpt><trkpt lat="40.31020934206463" lon="9.38502138329736"><ele>314.0</ele><time>2026-05-02T11:11:47Z</time></trkpt><trkpt lat="40.310110355706" lon="9.384828483930798"><ele>314.0</ele><time>2026-05-02T11:11:48Z</time></trkpt><trkpt lat="40.310029215364146" lon="9.38462543896863"><ele>314.0</ele><time>2026-05-02T11:11:49Z</time></trkpt><trkpt lat="40.30997066731407" lon="9.384400981693302"><ele>316.6666666666667</ele><time>2026-05-02T11:11:50Z</time></trkpt><trkpt lat="40.30992609867074" lon="9.384153387440666"><ele>319.3333333333333</ele><time>2026-05-02T11:11:51Z</time></trkpt><trkpt lat="40.309890900487055" lon="9.383900241252999"><ele>322.0</ele><time>2026-05-02T11:11:52Z</time></trkpt><trkpt lat="40.309856878187574" lon="9.383660476310455"><ele>323.3333333333333</ele><time>2026-05-02T11:11:53Z</time></trkpt><trkpt lat="40.309817410022" lon="9.383438307356993"><ele>324.6666666666667</ele><time>2026-05-02T11:11:54Z</time></trkpt><trkpt lat="40.30976818102947" lon="9.383248767613487"><ele>326.0</ele><time>2026-05-02T11:11:55Z</time></trkpt><trkpt lat="40.309584852590795" lon="9.38293864082454"><ele>326.0</ele><time>2026-05-02T11:11:57Z</time></trkpt><trkpt lat="40.30947925516843" lon="9.382777083181436"><ele>326.0</ele><time>2026-05-02T11:11:58Z</time></trkpt><trkpt lat="40.30939532383872" lon="9.382589896034885"><ele>326.0</ele><time>2026-05-02T11:11:59Z</time></trkpt><trkpt lat="40.30933183558117" lon="9.38237798886549"><ele>328.33333333333337</ele><time>2026-05-02T11:12:00Z</time></trkpt><trkpt lat="40.30927249842301" lon="9.382154880748843"><ele>330.6666666666667</ele><time>2026-05-02T11:12:01Z</time></trkpt><trkpt lat="40.309213250962415" lon="9.381948862006245"><ele>333.0</ele><time>2026-05-02T11:12:02Z</time></trkpt><trkpt lat="40.30913461540202" lon="9.381752501710478"><ele>333.0</ele><time>2026-05-02T11:12:03Z</time></trkpt><trkpt lat="40.30902080574733" lon="9.38157180990211"><ele>333.0</ele><time>2026-05-02T11:12:04Z</time></trkpt><trkpt lat="40.3088819009754" lon="9.381396606654373"><ele>333.0</ele><time>2026-05-02T11:12:05Z</time></trkpt><trkpt lat="40.30874766213895" lon="9.381230138085279"><ele>333.6666666666667</ele><time>2026-05-02T11:12:06Z</time></trkpt><trkpt lat="40.3086013445586" lon="9.381049311106516"><ele>334.33333333333337</ele><time>2026-05-02T11:12:07Z</time></trkpt><trkpt lat="40.30846497525462" lon="9.380880096534359"><ele>335.0</ele><time>2026-05-02T11:12:08Z</time></trkpt><trkpt lat="40.3083407421726" lon="9.38072014022985"><ele>335.0</ele><time>2026-05-02T11:12:09Z</time></trkpt><trkpt lat="40.30823400846032" lon="9.380560973588427"><ele>335.0</ele><time>2026-05-02T11:12:10Z</time></trkpt><trkpt lat="40.308149890607446" lon="9.380397475851208"><ele>335.0</ele><time>2026-05-02T11:12:11Z</time></trkpt><trkpt lat="40.308095703197665" lon="9.380212718831189"><ele>334.0</ele><time>2026-05-02T11:12:12Z</time></trkpt><trkpt lat="40.30805961350647" lon="9.380002580059704"><ele>333.0</ele><time>2026-05-02T11:12:13Z</time></trkpt><trkpt lat="40.30803939620362" lon="9.37977006009742"><ele>332.0</ele><time>2026-05-02T11:12:14.001Z</time></trkpt><trkpt lat="40.30802354533166" lon="9.379518519143572"><ele>335.0</ele><time>2026-05-02T11:12:15.001Z</time></trkpt><trkpt lat="40.308011349685174" lon="9.379271696264873"><ele>338.0</ele><time>2026-05-02T11:12:16.001Z</time></trkpt><trkpt lat="40.307980788369946" lon="9.378764368390618"><ele>339.25</ele><time>2026-05-02T11:12:18.001Z</time></trkpt><trkpt lat="40.30796091305958" lon="9.378562633747796"><ele>340.5</ele><time>2026-05-02T11:12:19.001Z</time></trkpt><trkpt lat="40.3079263652076" lon="9.378386190832611"><ele>341.75</ele><time>2026-05-02T11:12:20.001Z</time></trkpt><trkpt lat="40.30786812538893" lon="9.378233379911153"><ele>343.0</ele><time>2026-05-02T11:12:21.001Z</time></trkpt><trkpt lat="40.307784528412725" lon="9.378117923756063"><ele>343.0</ele><time>2026-05-02T11:12:22.001Z</time></trkpt><trkpt lat="40.30767238929624" lon="9.378045711642892"><ele>343.0</ele><time>2026-05-02T11:12:23.001Z</time></trkpt><trkpt lat="40.30753098641917" lon="9.378019901452058"><ele>343.0</ele><time>2026-05-02T11:12:24.001Z</time></trkpt><trkpt lat="40.30736816870982" lon="9.37802835650445"><ele>343.0</ele><time>2026-05-02T11:12:25.001Z</time></trkpt><trkpt lat="40.30721085778248" lon="9.37803716717198"><ele>344.25</ele><time>2026-05-02T11:12:26.001Z</time></trkpt><trkpt lat="40.30706687182946" lon="9.378026472200514"><ele>345.5</ele><time>2026-05-02T11:12:27.001Z</time></trkpt><trkpt lat="40.306924458352924" lon="9.377993671212616"><ele>346.75</ele><time>2026-05-02T11:12:28.001Z</time></trkpt><trkpt lat="40.30682216097268" lon="9.377942478758056"><ele>348.0</ele><time>2026-05-02T11:12:29.001Z</time></trkpt><trkpt lat="40.30675840465998" lon="9.377873851240231"><ele>348.0</ele><time>2026-05-02T11:12:30.001Z</time></trkpt><trkpt lat="40.306713447115214" lon="9.37777712143932"><ele>348.0</ele><time>2026-05-02T11:12:31.001Z</time></trkpt><trkpt lat="40.30668630094518" lon="9.37764304955982"><ele>348.0</ele><time>2026-05-02T11:12:32.001Z</time></trkpt><trkpt lat="40.30666627828148" lon="9.37748478340729"><ele>348.0</ele><time>2026-05-02T11:12:33.001Z</time></trkpt><trkpt lat="40.30663898215624" lon="9.377306945952984"><ele>346.0</ele><time>2026-05-02T11:12:34.001Z</time></trkpt><trkpt lat="40.3066034992794" lon="9.377147281912919"><ele>344.0</ele><time>2026-05-02T11:12:35.001Z</time></trkpt><trkpt lat="40.306544400199506" lon="9.377007158379255"><ele>342.0</ele><time>2026-05-02T11:12:36.001Z</time></trkpt><trkpt lat="40.30645377669784" lon="9.376883612082931"><ele>340.0</ele><time>2026-05-02T11:12:37.001Z</time></trkpt><trkpt lat="40.30618696722294" lon="9.376722813969446"><ele>340.0</ele><time>2026-05-02T11:12:39.001Z</time></trkpt><trkpt lat="40.30604131690496" lon="9.376644188232003"><ele>340.0</ele><time>2026-05-02T11:12:40.001Z</time></trkpt><trkpt lat="40.30589811574001" lon="9.376530776303868"><ele>340.0</ele><time>2026-05-02T11:12:41.001Z</time></trkpt><trkpt lat="40.30576657634218" lon="9.376393038919801"><ele>337.0</ele><time>2026-05-02T11:12:42.001Z</time></trkpt><trkpt lat="40.305653259322284" lon="9.376250646182251"><ele>334.0</ele><time>2026-05-02T11:12:43.001Z</time></trkpt><trkpt lat="40.3055462780456" lon="9.376080826873956"><ele>331.0</ele><time>2026-05-02T11:12:44.001Z</time></trkpt><trkpt lat="40.30544978660351" lon="9.37589109560485"><ele>331.0</ele><time>2026-05-02T11:12:45.001Z</time></trkpt><trkpt lat="40.30536188517035" lon="9.37567620336341"><ele>331.0</ele><time>2026-05-02T11:12:46.001Z</time></trkpt><trkpt lat="40.305279614494864" lon="9.37545274902951"><ele>331.0</ele><time>2026-05-02T11:12:47.001Z</time></trkpt><trkpt lat="40.30519687498118" lon="9.375248919988412"><ele>333.3333333333333</ele><time>2026-05-02T11:12:48.001Z</time></trkpt><trkpt lat="40.30509056278607" lon="9.375054177518887"><ele>335.6666666666667</ele><time>2026-05-02T11:12:49.001Z</time></trkpt><trkpt lat="40.304952871142625" lon="9.374872594747284"><ele>338.0</ele><time>2026-05-02T11:12:50.001Z</time></trkpt><trkpt lat="40.30480544248765" lon="9.374694544775508"><ele>333.6666666666667</ele><time>2026-05-02T11:12:51.001Z</time></trkpt><trkpt lat="40.30468023541681" lon="9.374518872295681"><ele>329.3333333333333</ele><time>2026-05-02T11:12:52.001Z</time></trkpt><trkpt lat="40.30458114067667" lon="9.374339129231673"><ele>325.0</ele><time>2026-05-02T11:12:53.001Z</time></trkpt><trkpt lat="40.30449566727224" lon="9.374197143020176"><ele>325.0</ele><time>2026-05-02T11:12:54.001Z</time></trkpt><trkpt lat="40.30439340978256" lon="9.374098541038647"><ele>325.0</ele><time>2026-05-02T11:12:55.001Z</time></trkpt><trkpt lat="40.304261833863414" lon="9.374033008627917"><ele>325.0</ele><time>2026-05-02T11:12:56.001Z</time></trkpt><trkpt lat="40.30413246687431" lon="9.373972561655474"><ele>325.0</ele><time>2026-05-02T11:12:57.001Z</time></trkpt><trkpt lat="40.304025365206755" lon="9.373901230052628"><ele>320.3333333333333</ele><time>2026-05-02T11:12:58.001Z</time></trkpt><trkpt lat="40.303874653983925" lon="9.373644153464713"><ele>315.6666666666667</ele><time>2026-05-02T11:13:00.001Z</time></trkpt><trkpt lat="40.303822042120025" lon="9.373456540004858"><ele>311.0</ele><time>2026-05-02T11:13:01.001Z</time></trkpt><trkpt lat="40.30377234774733" lon="9.37325677535954"><ele>311.0</ele><time>2026-05-02T11:13:02.001Z</time></trkpt><trkpt lat="40.3037203154063" lon="9.373034735067543"><ele>311.0</ele><time>2026-05-02T11:13:03.001Z</time></trkpt><trkpt lat="40.30366311126411" lon="9.372787818148392"><ele>311.0</ele><time>2026-05-02T11:13:04.001Z</time></trkpt><trkpt lat="40.3036036884794" lon="9.372536615656365"><ele>311.0</ele><time>2026-05-02T11:13:05.001Z</time></trkpt><trkpt lat="40.303542928591696" lon="9.37227939771596"><ele>311.0</ele><time>2026-05-02T11:13:06.001Z</time></trkpt><trkpt lat="40.30348890303649" lon="9.37203157449074"><ele>311.0</ele><time>2026-05-02T11:13:07.001Z</time></trkpt><trkpt lat="40.303436167357724" lon="9.371792964690846"><ele>312.6666666666667</ele><time>2026-05-02T11:13:08.001Z</time></trkpt><trkpt lat="40.30338178992064" lon="9.371557653813994"><ele>314.3333333333333</ele><time>2026-05-02T11:13:09.001Z</time></trkpt><trkpt lat="40.303327411455605" lon="9.371324593903932"><ele>316.0</ele><time>2026-05-02T11:13:10.001Z</time></trkpt><trkpt lat="40.30327215121085" lon="9.371101797574502"><ele>317.0</ele><time>2026-05-02T11:13:11.001Z</time></trkpt><trkpt lat="40.30322060008205" lon="9.370890821508159"><ele>318.0</ele><time>2026-05-02T11:13:12.001Z</time></trkpt><trkpt lat="40.30317168865797" lon="9.370689897889303"><ele>319.0</ele><time>2026-05-02T11:13:13.002Z</time></trkpt><trkpt lat="40.303126515114585" lon="9.370498213492652"><ele>319.0</ele><time>2026-05-02T11:13:14.002Z</time></trkpt><trkpt lat="40.30308893303272" lon="9.370300389934762"><ele>319.0</ele><time>2026-05-02T11:13:15.002Z</time></trkpt><trkpt lat="40.303061015506394" lon="9.37009420167732"><ele>319.0</ele><time>2026-05-02T11:13:16.002Z</time></trkpt><trkpt lat="40.30305861733791" lon="9.369877985409515"><ele>312.0</ele><time>2026-05-02T11:13:17.002Z</time></trkpt><trkpt lat="40.303074558839576" lon="9.36967880791954"><ele>305.0</ele><time>2026-05-02T11:13:18.002Z</time></trkpt><trkpt lat="40.30307939884575" lon="9.369493662260208"><ele>298.0</ele><time>2026-05-02T11:13:19.002Z</time></trkpt><trkpt lat="40.302996068934284" lon="9.369140567926387"><ele>298.0</ele><time>2026-05-02T11:13:21.002Z</time></trkpt><trkpt lat="40.302946064690154" lon="9.368971299037986"><ele>298.0</ele><time>2026-05-02T11:13:22.002Z</time></trkpt><trkpt lat="40.30292550627059" lon="9.368806204854083"><ele>298.0</ele><time>2026-05-02T11:13:23.002Z</time></trkpt><trkpt lat="40.302941046077336" lon="9.368632899659254"><ele>298.0</ele><time>2026-05-02T11:13:24.002Z</time></trkpt><trkpt lat="40.30298234902568" lon="9.368445757763604"><ele>298.0</ele><time>2026-05-02T11:13:25.002Z</time></trkpt><trkpt lat="40.30304041635718" lon="9.36825824379771"><ele>298.0</ele><time>2026-05-02T11:13:26.002Z</time></trkpt><trkpt lat="40.30308996464635" lon="9.368057671107133"><ele>298.0</ele><time>2026-05-02T11:13:27.002Z</time></trkpt><trkpt lat="40.303117691915666" lon="9.367846603510994"><ele>297.66666666666663</ele><time>2026-05-02T11:13:28.002Z</time></trkpt><trkpt lat="40.30311577350834" lon="9.367624567305699"><ele>297.3333333333333</ele><time>2026-05-02T11:13:29.002Z</time></trkpt><trkpt lat="40.30309639930726" lon="9.367385888590746"><ele>297.0</ele><time>2026-05-02T11:13:30.002Z</time></trkpt><trkpt lat="40.303073227318684" lon="9.367137216025757"><ele>297.0</ele><time>2026-05-02T11:13:31.002Z</time></trkpt><trkpt lat="40.30305415361889" lon="9.366893850036542"><ele>297.0</ele><time>2026-05-02T11:13:31.999Z</time></trkpt><trkpt lat="40.30303398956079" lon="9.36663504142256"><ele>297.0</ele><time>2026-05-02T11:13:32.999Z</time></trkpt><trkpt lat="40.30301344170943" lon="9.366385940289181"><ele>297.3333333333333</ele><time>2026-05-02T11:13:33.999Z</time></trkpt><trkpt lat="40.30299530201445" lon="9.366158061044954"><ele>297.66666666666663</ele><time>2026-05-02T11:13:34.999Z</time></trkpt><trkpt lat="40.30297640638457" lon="9.365942178460596"><ele>298.0</ele><time>2026-05-02T11:13:35.999Z</time></trkpt><trkpt lat="40.30296173538337" lon="9.365740919775503"><ele>298.0</ele><time>2026-05-02T11:13:36.999Z</time></trkpt><trkpt lat="40.30295924316187" lon="9.365554074205555"><ele>298.0</ele><time>2026-05-02T11:13:37.999Z</time></trkpt><trkpt lat="40.30297330250723" lon="9.365359412732019"><ele>298.0</ele><time>2026-05-02T11:13:38.999Z</time></trkpt><trkpt lat="40.303002021140685" lon="9.365160025626375"><ele>298.0</ele><time>2026-05-02T11:13:39.999Z</time></trkpt><trkpt lat="40.303078640973915" lon="9.364809472743039"><ele>301.25</ele><time>2026-05-02T11:13:41.999Z</time></trkpt><trkpt lat="40.303130322799525" lon="9.36466228163098"><ele>304.5</ele><time>2026-05-02T11:13:42.999Z</time></trkpt><trkpt lat="40.30319773484946" lon="9.364535511017229"><ele>307.75</ele><time>2026-05-02T11:13:43.999Z</time></trkpt><trkpt lat="40.30329349308424" lon="9.364416464079822"><ele>311.0</ele><time>2026-05-02T11:13:44.999Z</time></trkpt><trkpt lat="40.30341038210007" lon="9.364290967713975"><ele>311.0</ele><time>2026-05-02T11:13:45.999Z</time></trkpt><trkpt lat="40.303532597173344" lon="9.364161137213161"><ele>311.0</ele><time>2026-05-02T11:13:47Z</time></trkpt><trkpt lat="40.30363780714738" lon="9.36404303923586"><ele>311.0</ele><time>2026-05-02T11:13:48Z</time></trkpt><trkpt lat="40.3037212388616" lon="9.363935434813751"><ele>311.0</ele><time>2026-05-02T11:13:49Z</time></trkpt><trkpt lat="40.3037757470196" lon="9.363827724966692"><ele>311.0</ele><time>2026-05-02T11:13:50Z</time></trkpt><trkpt lat="40.30379079125267" lon="9.36371665134766"><ele>311.0</ele><time>2026-05-02T11:13:51Z</time></trkpt><trkpt lat="40.30377338717059" lon="9.363596819962536"><ele>311.0</ele><time>2026-05-02T11:13:52Z</time></trkpt><trkpt lat="40.30371461603503" lon="9.363490996526943"><ele>311.0</ele><time>2026-05-02T11:13:53Z</time></trkpt><trkpt lat="40.303623909378956" lon="9.363393296035369"><ele>311.0</ele><time>2026-05-02T11:13:54Z</time></trkpt><trkpt lat="40.30353056397787" lon="9.363296954307732"><ele>311.0</ele><time>2026-05-02T11:13:55Z</time></trkpt><trkpt lat="40.303446373174076" lon="9.36321034183633"><ele>311.0</ele><time>2026-05-02T11:13:56Z</time></trkpt><trkpt lat="40.303370830946704" lon="9.36312282463679"><ele>311.0</ele><time>2026-05-02T11:13:57Z</time></trkpt><trkpt lat="40.303304661007076" lon="9.363017260711853"><ele>311.0</ele><time>2026-05-02T11:13:58Z</time></trkpt><trkpt lat="40.30326090034347" lon="9.362890261180022"><ele>311.0</ele><time>2026-05-02T11:13:59Z</time></trkpt><trkpt lat="40.30325681316853" lon="9.362737564430248"><ele>314.33333333333337</ele><time>2026-05-02T11:14:00Z</time></trkpt><trkpt lat="40.30326949612431" lon="9.362558957562294"><ele>317.6666666666667</ele><time>2026-05-02T11:14:01Z</time></trkpt><trkpt lat="40.30331354256634" lon="9.362179895676698"><ele>321.0</ele><time>2026-05-02T11:14:03Z</time></trkpt><trkpt lat="40.30332137533905" lon="9.361992079500238"><ele>321.5</ele><time>2026-05-02T11:14:04Z</time></trkpt><trkpt lat="40.303306054571756" lon="9.361817670908273"><ele>322.0</ele><time>2026-05-02T11:14:05Z</time></trkpt><trkpt lat="40.30327107061432" lon="9.361653936570624"><ele>322.5</ele><time>2026-05-02T11:14:06Z</time></trkpt><trkpt lat="40.3032237213073" lon="9.361494747521235"><ele>323.0</ele><time>2026-05-02T11:14:07Z</time></trkpt><trkpt lat="40.30317452463708" lon="9.361331606729891"><ele>324.25</ele><time>2026-05-02T11:14:08Z</time></trkpt><trkpt lat="40.303121125217395" lon="9.361168225659812"><ele>325.5</ele><time>2026-05-02T11:14:09Z</time></trkpt><trkpt lat="40.3030702759256" lon="9.36101068024578"><ele>326.75</ele><time>2026-05-02T11:14:10Z</time></trkpt><trkpt lat="40.303023441132304" lon="9.360856861338513"><ele>328.0</ele><time>2026-05-02T11:14:11Z</time></trkpt><trkpt lat="40.30297921518224" lon="9.360713261788524"><ele>324.2</ele><time>2026-05-02T11:14:12Z</time></trkpt><trkpt lat="40.30293606755215" lon="9.360577435667949"><ele>320.4</ele><time>2026-05-02T11:14:13Z</time></trkpt><trkpt lat="40.30290476276609" lon="9.360444227838025"><ele>316.59999999999997</ele><time>2026-05-02T11:14:14Z</time></trkpt><trkpt lat="40.30288766559429" lon="9.360313332064814"><ele>312.79999999999995</ele><time>2026-05-02T11:14:15Z</time></trkpt><trkpt lat="40.302892607020404" lon="9.360184268555754"><ele>309.0</ele><time>2026-05-02T11:14:16Z</time></trkpt><trkpt lat="40.3029012655504" lon="9.36007951693804"><ele>309.0</ele><time>2026-05-02T11:14:17Z</time></trkpt><trkpt lat="40.30288224418147" lon="9.359963078240987"><ele>309.0</ele><time>2026-05-02T11:14:19Z</time></trkpt><trkpt lat="40.30282254631618" lon="9.359922990024026"><ele>309.0</ele><time>2026-05-02T11:14:21Z</time></trkpt><trkpt lat="40.3027544200713" lon="9.359956269852361"><ele>309.0</ele><time>2026-05-02T11:14:44.001Z</time></trkpt><trkpt lat="40.302588859846615" lon="9.359957986858545"><ele>309.0</ele><time>2026-05-02T11:14:48.001Z</time></trkpt><trkpt lat="40.30251504259117" lon="9.35994254239432"><ele>309.0</ele><time>2026-05-02T11:14:49.001Z</time></trkpt><trkpt lat="40.302421054405826" lon="9.359918754283665"><ele>309.0</ele><time>2026-05-02T11:14:50.001Z</time></trkpt><trkpt lat="40.302326651367075" lon="9.359900782481153"><ele>309.0</ele><time>2026-05-02T11:14:51.001Z</time></trkpt><trkpt lat="40.3022353008454" lon="9.35990817374379"><ele>309.0</ele><time>2026-05-02T11:14:52.001Z</time></trkpt><trkpt lat="40.30215334163286" lon="9.359943860808944"><ele>309.0</ele><time>2026-05-02T11:14:53.001Z</time></trkpt><trkpt lat="40.30208760917797" lon="9.360006302473288"><ele>306.6666666666667</ele><time>2026-05-02T11:14:54.001Z</time></trkpt><trkpt lat="40.30204263449492" lon="9.360096130211348"><ele>304.3333333333333</ele><time>2026-05-02T11:14:55.001Z</time></trkpt><trkpt lat="40.30202758671329" lon="9.360200858142829"><ele>302.0</ele><time>2026-05-02T11:14:56.001Z</time></trkpt><trkpt lat="40.302043232782054" lon="9.360302082951025"><ele>299.66666666666663</ele><time>2026-05-02T11:14:57.001Z</time></trkpt><trkpt lat="40.302084287075296" lon="9.360390590369775"><ele>297.3333333333333</ele><time>2026-05-02T11:14:58.001Z</time></trkpt><trkpt lat="40.302148657419366" lon="9.36046260249655"><ele>295.0</ele><time>2026-05-02T11:14:59.001Z</time></trkpt><trkpt lat="40.30222988396438" lon="9.360506745433382"><ele>296.8333333333333</ele><time>2026-05-02T11:15:00.001Z</time></trkpt><trkpt lat="40.302319324108765" lon="9.360540549280424"><ele>298.66666666666663</ele><time>2026-05-02T11:15:01.001Z</time></trkpt><trkpt lat="40.30240234728535" lon="9.360573341570026"><ele>300.5</ele><time>2026-05-02T11:15:02.001Z</time></trkpt><trkpt lat="40.302487298745476" lon="9.360607069921157"><ele>302.3333333333333</ele><time>2026-05-02T11:15:03.001Z</time></trkpt><trkpt lat="40.30255818744477" lon="9.360658062018256"><ele>304.1666666666667</ele><time>2026-05-02T11:15:04.001Z</time></trkpt><trkpt lat="40.302614196732904" lon="9.36073212917023"><ele>306.0</ele><time>2026-05-02T11:15:05.001Z</time></trkpt><trkpt lat="40.30268638805355" lon="9.360962267861304"><ele>306.0</ele><time>2026-05-02T11:15:07.001Z</time></trkpt><trkpt lat="40.3027132797934" lon="9.361116997117527"><ele>306.0</ele><time>2026-05-02T11:15:08.001Z</time></trkpt><trkpt lat="40.3027427168388" lon="9.361270162401214"><ele>306.0</ele><time>2026-05-02T11:15:09.001Z</time></trkpt><trkpt lat="40.302773285935906" lon="9.36142768975066"><ele>306.0</ele><time>2026-05-02T11:15:10.001Z</time></trkpt><trkpt lat="40.30280460216526" lon="9.361577001546486"><ele>304.5</ele><time>2026-05-02T11:15:11.001Z</time></trkpt><trkpt lat="40.30283219738805" lon="9.361711520686875"><ele>303.0</ele><time>2026-05-02T11:15:12.001Z</time></trkpt><trkpt lat="40.302845274179106" lon="9.36182543337755"><ele>301.5</ele><time>2026-05-02T11:15:13.001Z</time></trkpt><trkpt lat="40.3028390338674" lon="9.361925237790532"><ele>300.0</ele><time>2026-05-02T11:15:14.001Z</time></trkpt><trkpt lat="40.302802406268015" lon="9.362005706809784"><ele>298.5</ele><time>2026-05-02T11:15:15.001Z</time></trkpt><trkpt lat="40.30274353663423" lon="9.362063765166738"><ele>297.0</ele><time>2026-05-02T11:15:16.001Z</time></trkpt><trkpt lat="40.30264680418082" lon="9.362100661461778"><ele>297.0</ele><time>2026-05-02T11:15:17.001Z</time></trkpt><trkpt lat="40.30253729101529" lon="9.36213761595456"><ele>297.0</ele><time>2026-05-02T11:15:18.001Z</time></trkpt><trkpt lat="40.302446486588906" lon="9.362201872959142"><ele>297.0</ele><time>2026-05-02T11:15:19.001Z</time></trkpt><trkpt lat="40.302375480980345" lon="9.362294690746591"><ele>297.0</ele><time>2026-05-02T11:15:20.002Z</time></trkpt><trkpt lat="40.30232156242837" lon="9.362395177634294"><ele>297.0</ele><time>2026-05-02T11:15:21.002Z</time></trkpt><trkpt lat="40.30227857586751" lon="9.362474242786694"><ele>293.25</ele><time>2026-05-02T11:15:22.002Z</time></trkpt><trkpt lat="40.30217009147324" lon="9.362505597714197"><ele>289.5</ele><time>2026-05-02T11:15:24.002Z</time></trkpt><trkpt lat="40.30210084521917" lon="9.362367257945737"><ele>285.75</ele><time>2026-05-02T11:15:26.002Z</time></trkpt><trkpt lat="40.30213203292773" lon="9.362101687409588"><ele>282.0</ele><time>2026-05-02T11:15:28.002Z</time></trkpt><trkpt lat="40.30216538843154" lon="9.361967506419358"><ele>282.0</ele><time>2026-05-02T11:15:29.002Z</time></trkpt><trkpt lat="40.302188168168236" lon="9.36184875037523"><ele>282.0</ele><time>2026-05-02T11:15:30.002Z</time></trkpt><trkpt lat="40.302179188957204" lon="9.361744224116064"><ele>282.0</ele><time>2026-05-02T11:15:31.002Z</time></trkpt><trkpt lat="40.30213315522796" lon="9.361655205661956"><ele>282.0</ele><time>2026-05-02T11:15:32.002Z</time></trkpt><trkpt lat="40.30204886632488" lon="9.361605939510595"><ele>282.0</ele><time>2026-05-02T11:15:33.002Z</time></trkpt><trkpt lat="40.30193744419141" lon="9.361580979845872"><ele>282.0</ele><time>2026-05-02T11:15:34.002Z</time></trkpt><trkpt lat="40.301826920178904" lon="9.361563101567798"><ele>282.0</ele><time>2026-05-02T11:15:35.002Z</time></trkpt><trkpt lat="40.30171362303585" lon="9.361542191800911"><ele>282.0</ele><time>2026-05-02T11:15:36.002Z</time></trkpt><trkpt lat="40.30160173740249" lon="9.361530163301529"><ele>282.0</ele><time>2026-05-02T11:15:37.002Z</time></trkpt><trkpt lat="40.30149824243842" lon="9.361542835170908"><ele>282.0</ele><time>2026-05-02T11:15:37.999Z</time></trkpt><trkpt lat="40.30139623205433" lon="9.361594835084214"><ele>281.0</ele><time>2026-05-02T11:15:38.999Z</time></trkpt><trkpt lat="40.30130174297386" lon="9.361666601079452"><ele>280.0</ele><time>2026-05-02T11:15:39.999Z</time></trkpt><trkpt lat="40.30119825875953" lon="9.361755988658016"><ele>279.0</ele><time>2026-05-02T11:15:40.999Z</time></trkpt><trkpt lat="40.30109198758738" lon="9.361820622759778"><ele>278.0</ele><time>2026-05-02T11:15:41.999Z</time></trkpt><trkpt lat="40.300991042571134" lon="9.36186437699634"><ele>278.0</ele><time>2026-05-02T11:15:42.999Z</time></trkpt><trkpt lat="40.30089344478312" lon="9.361889230102117"><ele>278.0</ele><time>2026-05-02T11:15:43.999Z</time></trkpt><trkpt lat="40.30079209335102" lon="9.361890758626359"><ele>278.0</ele><time>2026-05-02T11:15:44.999Z</time></trkpt><trkpt lat="40.30068375871389" lon="9.361860426002686"><ele>278.0</ele><time>2026-05-02T11:15:45.999Z</time></trkpt><trkpt lat="40.30058046983273" lon="9.361824841263891"><ele>278.0</ele><time>2026-05-02T11:15:46.999Z</time></trkpt><trkpt lat="40.30039004567462" lon="9.361738477749164"><ele>275.6</ele><time>2026-05-02T11:15:48.999Z</time></trkpt><trkpt lat="40.30031795376321" lon="9.361696386249527"><ele>273.20000000000005</ele><time>2026-05-02T11:15:49.999Z</time></trkpt><trkpt lat="40.300251166642965" lon="9.361654806312366"><ele>270.8</ele><time>2026-05-02T11:15:50.999Z</time></trkpt><trkpt lat="40.30012031020907" lon="9.361535903336813"><ele>268.40000000000003</ele><time>2026-05-02T11:15:51.999Z</time></trkpt><trkpt lat="40.300061510764394" lon="9.361441480287365"><ele>266.0</ele><time>2026-05-02T11:15:52.999Z</time></trkpt><trkpt lat="40.3000188769513" lon="9.3613390553379"><ele>266.0</ele><time>2026-05-02T11:15:53.999Z</time></trkpt><trkpt lat="40.299994445641225" lon="9.36122446814206"><ele>266.0</ele><time>2026-05-02T11:15:54.999Z</time></trkpt><trkpt lat="40.29998410355151" lon="9.361078343643511"><ele>266.0</ele><time>2026-05-02T11:15:55.999Z</time></trkpt><trkpt lat="40.29998789086572" lon="9.360933079857514"><ele>266.0</ele><time>2026-05-02T11:15:57Z</time></trkpt><trkpt lat="40.30000530959614" lon="9.360798260947272"><ele>266.0</ele><time>2026-05-02T11:15:58Z</time></trkpt><trkpt lat="40.300036367690076" lon="9.360669513949878"><ele>266.0</ele><time>2026-05-02T11:15:59Z</time></trkpt><trkpt lat="40.30008082852402" lon="9.36054396580515"><ele>266.0</ele><time>2026-05-02T11:16:00Z</time></trkpt><trkpt lat="40.300142054899155" lon="9.360424436348033"><ele>266.0</ele><time>2026-05-02T11:16:01Z</time></trkpt><trkpt lat="40.30021125559959" lon="9.360314668006458"><ele>266.0</ele><time>2026-05-02T11:16:02Z</time></trkpt><trkpt lat="40.30029887947203" lon="9.360184005262768"><ele>267.0</ele><time>2026-05-02T11:16:03Z</time></trkpt><trkpt lat="40.30038367727777" lon="9.360060979168733"><ele>268.0</ele><time>2026-05-02T11:16:04Z</time></trkpt><trkpt lat="40.30046973542214" lon="9.359940625552866"><ele>269.0</ele><time>2026-05-02T11:16:05Z</time></trkpt><trkpt lat="40.300567153303774" lon="9.359822874963026"><ele>270.0</ele><time>2026-05-02T11:16:06Z</time></trkpt><trkpt lat="40.30066407101521" lon="9.359715175757676"><ele>269.6666666666667</ele><time>2026-05-02T11:16:07Z</time></trkpt><trkpt lat="40.30076081413088" lon="9.35960822979909"><ele>269.33333333333337</ele><time>2026-05-02T11:16:08Z</time></trkpt><trkpt lat="40.30097523666864" lon="9.359378917550606"><ele>269.0</ele><time>2026-05-02T11:16:10Z</time></trkpt><trkpt lat="40.301098344285165" lon="9.359274942652581"><ele>269.0</ele><time>2026-05-02T11:16:11Z</time></trkpt><trkpt lat="40.301220444924176" lon="9.35916836244764"><ele>269.0</ele><time>2026-05-02T11:16:12Z</time></trkpt><trkpt lat="40.301332190061416" lon="9.359051463012703"><ele>269.0</ele><time>2026-05-02T11:16:13Z</time></trkpt><trkpt lat="40.30140743507724" lon="9.358881052731858"><ele>269.0</ele><time>2026-05-02T11:16:14Z</time></trkpt><trkpt lat="40.301459636785616" lon="9.358707196007881"><ele>272.6666666666667</ele><time>2026-05-02T11:16:15Z</time></trkpt><trkpt lat="40.30149313780672" lon="9.35851764355166"><ele>276.3333333333333</ele><time>2026-05-02T11:16:16Z</time></trkpt><trkpt lat="40.301501107425864" lon="9.358307831837696"><ele>280.0</ele><time>2026-05-02T11:16:17Z</time></trkpt><trkpt lat="40.30150022354963" lon="9.358091327657498"><ele>280.66666666666663</ele><time>2026-05-02T11:16:18Z</time></trkpt><trkpt lat="40.30149521841689" lon="9.357876503400943"><ele>281.3333333333333</ele><time>2026-05-02T11:16:19Z</time></trkpt><trkpt lat="40.301499587187735" lon="9.357619679889615"><ele>282.0</ele><time>2026-05-02T11:16:20Z</time></trkpt><trkpt lat="40.30149895586838" lon="9.357389529473203"><ele>282.0</ele><time>2026-05-02T11:16:21Z</time></trkpt><trkpt lat="40.30149776392071" lon="9.357164203544878"><ele>282.0</ele><time>2026-05-02T11:16:22Z</time></trkpt><trkpt lat="40.301511781271266" lon="9.35696207275573"><ele>282.0</ele><time>2026-05-02T11:16:23Z</time></trkpt><trkpt lat="40.30154214102971" lon="9.356760506165877"><ele>282.0</ele><time>2026-05-02T11:16:24Z</time></trkpt><trkpt lat="40.301594590990874" lon="9.356562862457976"><ele>282.0</ele><time>2026-05-02T11:16:25Z</time></trkpt><trkpt lat="40.30165938756354" lon="9.356358601786528"><ele>282.0</ele><time>2026-05-02T11:16:26Z</time></trkpt><trkpt lat="40.30175010519344" lon="9.35615645267307"><ele>280.6666666666667</ele><time>2026-05-02T11:16:27Z</time></trkpt><trkpt lat="40.30183347093129" lon="9.355911630999417"><ele>279.33333333333337</ele><time>2026-05-02T11:16:28Z</time></trkpt><trkpt lat="40.301912402191874" lon="9.355680389745356"><ele>278.0</ele><time>2026-05-02T11:16:29Z</time></trkpt><trkpt lat="40.30206690480895" lon="9.355239678691104"><ele>275.33333333333337</ele><time>2026-05-02T11:16:31Z</time></trkpt><trkpt lat="40.30214185034277" lon="9.35503002915764"><ele>272.6666666666667</ele><time>2026-05-02T11:16:32.001Z</time></trkpt><trkpt lat="40.302223176819446" lon="9.354831845243641"><ele>270.0</ele><time>2026-05-02T11:16:33.001Z</time></trkpt><trkpt lat="40.30231971328732" lon="9.354662991659762"><ele>270.0</ele><time>2026-05-02T11:16:34.001Z</time></trkpt><trkpt lat="40.30243578400721" lon="9.354509994416981"><ele>270.0</ele><time>2026-05-02T11:16:35.001Z</time></trkpt><trkpt lat="40.30258008106869" lon="9.354371289197829"><ele>270.0</ele><time>2026-05-02T11:16:36.001Z</time></trkpt><trkpt lat="40.30272170569279" lon="9.354211431758799"><ele>270.0</ele><time>2026-05-02T11:16:37.001Z</time></trkpt><trkpt lat="40.302851990205205" lon="9.354012774179944"><ele>270.0</ele><time>2026-05-02T11:16:38.001Z</time></trkpt><trkpt lat="40.3029799556402" lon="9.353789842714084"><ele>270.0</ele><time>2026-05-02T11:16:39.001Z</time></trkpt><trkpt lat="40.30310894770821" lon="9.353565609570122"><ele>267.6666666666667</ele><time>2026-05-02T11:16:40.001Z</time></trkpt><trkpt lat="40.303242223937104" lon="9.353355962997723"><ele>265.33333333333337</ele><time>2026-05-02T11:16:41.001Z</time></trkpt><trkpt lat="40.303399798012514" lon="9.353166255041558"><ele>263.0</ele><time>2026-05-02T11:16:42.001Z</time></trkpt><trkpt lat="40.30356880331728" lon="9.352993247152712"><ele>263.0</ele><time>2026-05-02T11:16:43.001Z</time></trkpt><trkpt lat="40.303728659128566" lon="9.352824172814906"><ele>263.0</ele><time>2026-05-02T11:16:44.001Z</time></trkpt><trkpt lat="40.30387858584194" lon="9.352667117282184"><ele>263.0</ele><time>2026-05-02T11:16:45.001Z</time></trkpt><trkpt lat="40.30402937970009" lon="9.352512257099827"><ele>264.6666666666667</ele><time>2026-05-02T11:16:46.001Z</time></trkpt><trkpt lat="40.30417637310028" lon="9.352348536248734"><ele>266.3333333333333</ele><time>2026-05-02T11:16:47.001Z</time></trkpt><trkpt lat="40.30431358851056" lon="9.35217185105483"><ele>268.0</ele><time>2026-05-02T11:16:48.001Z</time></trkpt><trkpt lat="40.304447919363945" lon="9.35198902637304"><ele>268.0</ele><time>2026-05-02T11:16:49.001Z</time></trkpt><trkpt lat="40.30458630579728" lon="9.351805690521408"><ele>268.0</ele><time>2026-05-02T11:16:50.001Z</time></trkpt><trkpt lat="40.30484712257916" lon="9.351449382750182"><ele>273.3333333333333</ele><time>2026-05-02T11:16:52.001Z</time></trkpt><trkpt lat="40.30495700136247" lon="9.351285409866279"><ele>278.6666666666667</ele><time>2026-05-02T11:16:53.001Z</time></trkpt><trkpt lat="40.305047429418806" lon="9.351112193483665"><ele>284.0</ele><time>2026-05-02T11:16:54.001Z</time></trkpt><trkpt lat="40.30510962780026" lon="9.350927265544636"><ele>284.0</ele><time>2026-05-02T11:16:55.001Z</time></trkpt><trkpt lat="40.30514148878223" lon="9.35073097363986"><ele>284.0</ele><time>2026-05-02T11:16:56.001Z</time></trkpt><trkpt lat="40.30515008279876" lon="9.350525031078012"><ele>284.0</ele><time>2026-05-02T11:16:57.001Z</time></trkpt><trkpt lat="40.30515815748277" lon="9.350317420670981"><ele>284.5</ele><time>2026-05-02T11:16:58.001Z</time></trkpt><trkpt lat="40.30517438513044" lon="9.350134885202712"><ele>285.0</ele><time>2026-05-02T11:16:59.001Z</time></trkpt><trkpt lat="40.30521373543674" lon="9.349972975456076"><ele>285.5</ele><time>2026-05-02T11:17:00.001Z</time></trkpt><trkpt lat="40.305273982959534" lon="9.349842776781475"><ele>286.0</ele><time>2026-05-02T11:17:01.001Z</time></trkpt><trkpt lat="40.30536027667644" lon="9.349749893691035"><ele>286.25</ele><time>2026-05-02T11:17:02.001Z</time></trkpt><trkpt lat="40.30546589574719" lon="9.349701207832728"><ele>286.5</ele><time>2026-05-02T11:17:03.001Z</time></trkpt><trkpt lat="40.30558435197419" lon="9.34968522487415"><ele>286.75</ele><time>2026-05-02T11:17:04.001Z</time></trkpt><trkpt lat="40.30572228553448" lon="9.349699611630781"><ele>287.0</ele><time>2026-05-02T11:17:05.001Z</time></trkpt><trkpt lat="40.30587216392391" lon="9.349732862942066"><ele>288.5</ele><time>2026-05-02T11:17:06.001Z</time></trkpt><trkpt lat="40.30601983100435" lon="9.349766280129893"><ele>290.0</ele><time>2026-05-02T11:17:07.001Z</time></trkpt><trkpt lat="40.30616879904988" lon="9.349791128753607"><ele>291.5</ele><time>2026-05-02T11:17:08.001Z</time></trkpt><trkpt lat="40.30631072801271" lon="9.349777570661589"><ele>293.0</ele><time>2026-05-02T11:17:09.001Z</time></trkpt><trkpt lat="40.30645650034169" lon="9.349727613285737"><ele>292.0</ele><time>2026-05-02T11:17:10.001Z</time></trkpt><trkpt lat="40.30660416142708" lon="9.349643385242313"><ele>291.0</ele><time>2026-05-02T11:17:11.001Z</time></trkpt><trkpt lat="40.30693023895751" lon="9.349441412852295"><ele>291.0</ele><time>2026-05-02T11:17:13.001Z</time></trkpt><trkpt lat="40.30708658860318" lon="9.349346099139872"><ele>291.0</ele><time>2026-05-02T11:17:14.001Z</time></trkpt><trkpt lat="40.30723585014188" lon="9.349247984182345"><ele>291.0</ele><time>2026-05-02T11:17:15.001Z</time></trkpt><trkpt lat="40.30737638411586" lon="9.349148064528276"><ele>292.75</ele><time>2026-05-02T11:17:16.001Z</time></trkpt><trkpt lat="40.307510421350806" lon="9.349051012320729"><ele>294.5</ele><time>2026-05-02T11:17:17.001Z</time></trkpt><trkpt lat="40.307633347430446" lon="9.348946424949803"><ele>296.25</ele><time>2026-05-02T11:17:18.002Z</time></trkpt><trkpt lat="40.30775614308449" lon="9.348835220772873"><ele>298.0</ele><time>2026-05-02T11:17:19.002Z</time></trkpt><trkpt lat="40.30787927538856" lon="9.348717594062649"><ele>298.0</ele><time>2026-05-02T11:17:20.002Z</time></trkpt><trkpt lat="40.30800452606844" lon="9.348598274725067"><ele>298.0</ele><time>2026-05-02T11:17:21.002Z</time></trkpt><trkpt lat="40.308138912850616" lon="9.348475989984069"><ele>298.0</ele><time>2026-05-02T11:17:22.002Z</time></trkpt><trkpt lat="40.30826973515461" lon="9.348361783812098"><ele>300.5</ele><time>2026-05-02T11:17:23.002Z</time></trkpt><trkpt lat="40.30840189572673" lon="9.348251412355882"><ele>303.0</ele><time>2026-05-02T11:17:24.002Z</time></trkpt><trkpt lat="40.308526873378945" lon="9.348152882810954"><ele>305.5</ele><time>2026-05-02T11:17:25.002Z</time></trkpt><trkpt lat="40.308645604309056" lon="9.348059680123992"><ele>308.0</ele><time>2026-05-02T11:17:26.002Z</time></trkpt><trkpt lat="40.30875145755432" lon="9.347959179877428"><ele>308.0</ele><time>2026-05-02T11:17:27.002Z</time></trkpt><trkpt lat="40.308836553073164" lon="9.347842237085876"><ele>308.0</ele><time>2026-05-02T11:17:28.002Z</time></trkpt><trkpt lat="40.3088850602349" lon="9.347709764476415"><ele>308.0</ele><time>2026-05-02T11:17:29.002Z</time></trkpt><trkpt lat="40.30890026579625" lon="9.347577593584388"><ele>308.0</ele><time>2026-05-02T11:17:30.002Z</time></trkpt><trkpt lat="40.30888353044265" lon="9.347446172789782"><ele>308.0</ele><time>2026-05-02T11:17:31.002Z</time></trkpt><trkpt lat="40.308840184227286" lon="9.34731336649752"><ele>309.33333333333337</ele><time>2026-05-02T11:17:32.002Z</time></trkpt><trkpt lat="40.30866381763843" lon="9.347120257915421"><ele>310.6666666666667</ele><time>2026-05-02T11:17:34.002Z</time></trkpt><trkpt lat="40.30854202346612" lon="9.347051960372372"><ele>312.0</ele><time>2026-05-02T11:17:35.002Z</time></trkpt><trkpt lat="40.30842336739732" lon="9.346990242165566"><ele>312.0</ele><time>2026-05-02T11:17:36.002Z</time></trkpt><trkpt lat="40.30830925899003" lon="9.34691752808485"><ele>312.0</ele><time>2026-05-02T11:17:37.002Z</time></trkpt><trkpt lat="40.30821797306579" lon="9.346825101310472"><ele>312.0</ele><time>2026-05-02T11:17:38.002Z</time></trkpt><trkpt lat="40.30815328431545" lon="9.34672410524898"><ele>312.0</ele><time>2026-05-02T11:17:39.002Z</time></trkpt><trkpt lat="40.308118209155175" lon="9.346640917085864"><ele>312.0</ele><time>2026-05-02T11:17:40.002Z</time></trkpt><trkpt lat="40.308087158497365" lon="9.346556991969539"><ele>310.5</ele><time>2026-05-02T11:17:43.002Z</time></trkpt><trkpt lat="40.30804005519947" lon="9.346481790939926"><ele>309.0</ele><time>2026-05-02T11:17:57Z</time></trkpt><trkpt lat="40.30782370657637" lon="9.346579793798243"><ele>307.5</ele><time>2026-05-02T11:18:00Z</time></trkpt><trkpt lat="40.307718196200554" lon="9.34662094793494"><ele>306.0</ele><time>2026-05-02T11:18:01Z</time></trkpt><trkpt lat="40.307610707833405" lon="9.346660825662552"><ele>306.0</ele><time>2026-05-02T11:18:02Z</time></trkpt><trkpt lat="40.307492224264784" lon="9.346693654219253"><ele>306.0</ele><time>2026-05-02T11:18:03Z</time></trkpt><trkpt lat="40.307376526447385" lon="9.346729180887731"><ele>306.0</ele><time>2026-05-02T11:18:04Z</time></trkpt><trkpt lat="40.307272472036416" lon="9.346761681750744"><ele>306.0</ele><time>2026-05-02T11:18:05Z</time></trkpt><trkpt lat="40.307177264309935" lon="9.346763512896205"><ele>306.0</ele><time>2026-05-02T11:18:06Z</time></trkpt><trkpt lat="40.30709466769454" lon="9.346712463557317"><ele>306.2</ele><time>2026-05-02T11:18:07Z</time></trkpt><trkpt lat="40.307039966674715" lon="9.346628391909446"><ele>306.40000000000003</ele><time>2026-05-02T11:18:08Z</time></trkpt><trkpt lat="40.30702477507368" lon="9.346518478498567"><ele>306.6</ele><time>2026-05-02T11:18:09Z</time></trkpt><trkpt lat="40.30705137280865" lon="9.346411932269483"><ele>306.8</ele><time>2026-05-02T11:18:10Z</time></trkpt><trkpt lat="40.30711997894663" lon="9.346316408166564"><ele>307.0</ele><time>2026-05-02T11:18:11Z</time></trkpt><trkpt lat="40.30722450387048" lon="9.346251050067094"><ele>306.5</ele><time>2026-05-02T11:18:12Z</time></trkpt><trkpt lat="40.307347195939485" lon="9.346200428846782"><ele>306.0</ele><time>2026-05-02T11:18:13Z</time></trkpt><trkpt lat="40.307475075867465" lon="9.346148202476922"><ele>305.5</ele><time>2026-05-02T11:18:14Z</time></trkpt><trkpt lat="40.3075897738654" lon="9.346089201624613"><ele>305.0</ele><time>2026-05-02T11:18:15Z</time></trkpt><trkpt lat="40.30768325591475" lon="9.34601224614595"><ele>305.0</ele><time>2026-05-02T11:18:16Z</time></trkpt><trkpt lat="40.30774679224891" lon="9.345917167145725"><ele>305.0</ele><time>2026-05-02T11:18:17Z</time></trkpt><trkpt lat="40.30776751440267" lon="9.345804934517105"><ele>305.0</ele><time>2026-05-02T11:18:18Z</time></trkpt><trkpt lat="40.30768634211924" lon="9.34559145869318"><ele>305.0</ele><time>2026-05-02T11:18:20Z</time></trkpt><trkpt lat="40.30759309752579" lon="9.345526785840269"><ele>305.75</ele><time>2026-05-02T11:18:21Z</time></trkpt><trkpt lat="40.30747594151161" lon="9.345509185786808"><ele>306.5</ele><time>2026-05-02T11:18:22Z</time></trkpt><trkpt lat="40.307333376522706" lon="9.345508675928125"><ele>307.25</ele><time>2026-05-02T11:18:23Z</time></trkpt><trkpt lat="40.307190989887495" lon="9.345506090229705"><ele>308.0</ele><time>2026-05-02T11:18:24.001Z</time></trkpt><trkpt lat="40.30704489484878" lon="9.345500169370528"><ele>308.0</ele><time>2026-05-02T11:18:25.001Z</time></trkpt><trkpt lat="40.30688846329765" lon="9.345499840514995"><ele>308.0</ele><time>2026-05-02T11:18:26.001Z</time></trkpt><trkpt lat="40.30672550710339" lon="9.345502186201944"><ele>308.0</ele><time>2026-05-02T11:18:27.001Z</time></trkpt><trkpt lat="40.30656032096077" lon="9.345501417331686"><ele>309.0</ele><time>2026-05-02T11:18:28.001Z</time></trkpt><trkpt lat="40.30639927420038" lon="9.345490074390485"><ele>310.0</ele><time>2026-05-02T11:18:29.001Z</time></trkpt><trkpt lat="40.30624468837206" lon="9.345483357569805"><ele>311.0</ele><time>2026-05-02T11:18:30.001Z</time></trkpt><trkpt lat="40.30610449920748" lon="9.345477807770527"><ele>311.0</ele><time>2026-05-02T11:18:31.001Z</time></trkpt><trkpt lat="40.30596957713657" lon="9.345489724563237"><ele>311.0</ele><time>2026-05-02T11:18:32.001Z</time></trkpt><trkpt lat="40.30584173455216" lon="9.34552028117308"><ele>311.0</ele><time>2026-05-02T11:18:33.001Z</time></trkpt><trkpt lat="40.30572261668317" lon="9.345587973835336"><ele>311.0</ele><time>2026-05-02T11:18:34.001Z</time></trkpt><trkpt lat="40.30561511719124" lon="9.345691633996912"><ele>313.33333333333337</ele><time>2026-05-02T11:18:35.001Z</time></trkpt><trkpt lat="40.30550628514198" lon="9.345827609516862"><ele>315.6666666666667</ele><time>2026-05-02T11:18:36.001Z</time></trkpt><trkpt lat="40.30538228569023" lon="9.345951513076797"><ele>318.0</ele><time>2026-05-02T11:18:37.001Z</time></trkpt><trkpt lat="40.30524631051576" lon="9.346040640054824"><ele>318.0</ele><time>2026-05-02T11:18:38.001Z</time></trkpt><trkpt lat="40.30509645163977" lon="9.346115742659954"><ele>318.0</ele><time>2026-05-02T11:18:39.001Z</time></trkpt><trkpt lat="40.30478408564823" lon="9.346261752771381"><ele>317.6666666666667</ele><time>2026-05-02T11:18:41.001Z</time></trkpt><trkpt lat="40.30462918015018" lon="9.346339191981656"><ele>317.33333333333337</ele><time>2026-05-02T11:18:42.001Z</time></trkpt><trkpt lat="40.30448166832357" lon="9.346431231995195"><ele>317.0</ele><time>2026-05-02T11:18:43.001Z</time></trkpt><trkpt lat="40.30434969308658" lon="9.346543885464076"><ele>317.0</ele><time>2026-05-02T11:18:44.001Z</time></trkpt><trkpt lat="40.30422793884507" lon="9.346682129011453"><ele>317.0</ele><time>2026-05-02T11:18:45.001Z</time></trkpt><trkpt lat="40.3041174888773" lon="9.346843613512261"><ele>317.0</ele><time>2026-05-02T11:18:46.001Z</time></trkpt><trkpt lat="40.30399359462422" lon="9.346979821521305"><ele>321.33333333333337</ele><time>2026-05-02T11:18:47.001Z</time></trkpt><trkpt lat="40.303893262878" lon="9.347166062133677"><ele>325.6666666666667</ele><time>2026-05-02T11:18:48.001Z</time></trkpt><trkpt lat="40.30380919864259" lon="9.347358633733164"><ele>330.0</ele><time>2026-05-02T11:18:49.001Z</time></trkpt><trkpt lat="40.303750930548325" lon="9.347542994479491"><ele>330.0</ele><time>2026-05-02T11:18:50.001Z</time></trkpt><trkpt lat="40.303706602356996" lon="9.347716630045278"><ele>330.0</ele><time>2026-05-02T11:18:51.001Z</time></trkpt><trkpt lat="40.30365788971384" lon="9.34786952896481"><ele>330.0</ele><time>2026-05-02T11:18:52.001Z</time></trkpt><trkpt lat="40.30360853136669" lon="9.348001071492877"><ele>330.0</ele><time>2026-05-02T11:18:53.001Z</time></trkpt><trkpt lat="40.30354485974729" lon="9.348116481251486"><ele>327.75</ele><time>2026-05-02T11:18:54.001Z</time></trkpt><trkpt lat="40.303447661257934" lon="9.348207606971641"><ele>325.5</ele><time>2026-05-02T11:18:55.001Z</time></trkpt><trkpt lat="40.303332876498686" lon="9.348258717814183"><ele>323.25</ele><time>2026-05-02T11:18:56.001Z</time></trkpt><trkpt lat="40.30319259397373" lon="9.348267507919182"><ele>321.0</ele><time>2026-05-02T11:18:57.001Z</time></trkpt><trkpt lat="40.30304134623644" lon="9.348259005819298"><ele>321.0</ele><time>2026-05-02T11:18:58.001Z</time></trkpt><trkpt lat="40.302886344295835" lon="9.348265318718338"><ele>321.0</ele><time>2026-05-02T11:18:59.001Z</time></trkpt><trkpt lat="40.302731843505185" lon="9.34830860013935"><ele>321.0</ele><time>2026-05-02T11:19:00.001Z</time></trkpt><trkpt lat="40.30244514550946" lon="9.34847015162849"><ele>321.0</ele><time>2026-05-02T11:19:02.001Z</time></trkpt><trkpt lat="40.302323995567164" lon="9.348556168230527"><ele>321.0</ele><time>2026-05-02T11:19:03.001Z</time></trkpt><trkpt lat="40.30221687028658" lon="9.348650740621963"><ele>321.0</ele><time>2026-05-02T11:19:04.001Z</time></trkpt><trkpt lat="40.30211777024718" lon="9.348779056223137"><ele>321.0</ele><time>2026-05-02T11:19:05.001Z</time></trkpt><trkpt lat="40.30203505701584" lon="9.34892174099215"><ele>320.2</ele><time>2026-05-02T11:19:06.001Z</time></trkpt><trkpt lat="40.301966543940914" lon="9.34906394265264"><ele>319.40000000000003</ele><time>2026-05-02T11:19:07.001Z</time></trkpt><trkpt lat="40.30189824694681" lon="9.349192004745756"><ele>318.6</ele><time>2026-05-02T11:19:08.002Z</time></trkpt><trkpt lat="40.301827107717784" lon="9.34928852344022"><ele>317.8</ele><time>2026-05-02T11:19:09.002Z</time></trkpt><trkpt lat="40.30174691631902" lon="9.349332542685573"><ele>317.0</ele><time>2026-05-02T11:19:10.002Z</time></trkpt><trkpt lat="40.30164963211752" lon="9.349369170146058"><ele>317.0</ele><time>2026-05-02T11:19:11.002Z</time></trkpt><trkpt lat="40.30154673197778" lon="9.349380559598112"><ele>317.0</ele><time>2026-05-02T11:19:12.002Z</time></trkpt><trkpt lat="40.3014332632544" lon="9.349373930095497"><ele>317.0</ele><time>2026-05-02T11:19:13.002Z</time></trkpt><trkpt lat="40.30130451872865" lon="9.34936288392122"><ele>317.0</ele><time>2026-05-02T11:19:14.002Z</time></trkpt><trkpt lat="40.301169429820725" lon="9.349344875322139"><ele>315.25</ele><time>2026-05-02T11:19:15.002Z</time></trkpt><trkpt lat="40.30103214309683" lon="9.349329223901123"><ele>313.5</ele><time>2026-05-02T11:19:16.002Z</time></trkpt><trkpt lat="40.30089047522298" lon="9.349314940052142"><ele>311.75</ele><time>2026-05-02T11:19:17.002Z</time></trkpt><trkpt lat="40.30074200473929" lon="9.349324077679372"><ele>310.0</ele><time>2026-05-02T11:19:18.002Z</time></trkpt><trkpt lat="40.300592417515006" lon="9.34937521200864"><ele>311.0</ele><time>2026-05-02T11:19:19.002Z</time></trkpt><trkpt lat="40.300445533002645" lon="9.349454822998297"><ele>312.0</ele><time>2026-05-02T11:19:20.002Z</time></trkpt><trkpt lat="40.300312360813564" lon="9.349521931269255"><ele>313.0</ele><time>2026-05-02T11:19:21.002Z</time></trkpt><trkpt lat="40.30000055480194" lon="9.349563694940754"><ele>313.0</ele><time>2026-05-02T11:19:23.002Z</time></trkpt><trkpt lat="40.29984373084288" lon="9.349559325816738"><ele>313.0</ele><time>2026-05-02T11:19:24.002Z</time></trkpt><trkpt lat="40.2997044988827" lon="9.349544939369904"><ele>313.0</ele><time>2026-05-02T11:19:25.002Z</time></trkpt><trkpt lat="40.299570852355174" lon="9.349533033562198"><ele>313.0</ele><time>2026-05-02T11:19:26.002Z</time></trkpt><trkpt lat="40.299445116046186" lon="9.349484564094539"><ele>308.5</ele><time>2026-05-02T11:19:27.002Z</time></trkpt><trkpt lat="40.29932946411401" lon="9.349410995365188"><ele>304.0</ele><time>2026-05-02T11:19:28.002Z</time></trkpt><trkpt lat="40.29922822445096" lon="9.349297829573464"><ele>299.5</ele><time>2026-05-02T11:19:29.002Z</time></trkpt><trkpt lat="40.29913979471644" lon="9.349159524067463"><ele>295.0</ele><time>2026-05-02T11:19:30.002Z</time></trkpt><trkpt lat="40.29907845535163" lon="9.349001324763233"><ele>295.0</ele><time>2026-05-02T11:19:31.002Z</time></trkpt><trkpt lat="40.29905223462905" lon="9.34883088501969"><ele>295.0</ele><time>2026-05-02T11:19:32.002Z</time></trkpt><trkpt lat="40.299052006656915" lon="9.34864932220093"><ele>295.0</ele><time>2026-05-02T11:19:33.002Z</time></trkpt><trkpt lat="40.29907403713495" lon="9.348458273063128"><ele>295.0</ele><time>2026-05-02T11:19:34.002Z</time></trkpt><trkpt lat="40.299116668032305" lon="9.348245412408918"><ele>292.66666666666663</ele><time>2026-05-02T11:19:35.002Z</time></trkpt><trkpt lat="40.29916020048887" lon="9.348018777209012"><ele>290.3333333333333</ele><time>2026-05-02T11:19:36.002Z</time></trkpt><trkpt lat="40.29920043305742" lon="9.347788724138892"><ele>288.0</ele><time>2026-05-02T11:19:37.002Z</time></trkpt><trkpt lat="40.299244376816084" lon="9.347535264710963"><ele>288.0</ele><time>2026-05-02T11:19:38.002Z</time></trkpt><trkpt lat="40.29928610839629" lon="9.34729928128613"><ele>288.0</ele><time>2026-05-02T11:19:39.002Z</time></trkpt><trkpt lat="40.29932632359159" lon="9.34709250310187"><ele>288.0</ele><time>2026-05-02T11:19:40.002Z</time></trkpt><trkpt lat="40.29935682056374" lon="9.346897053445828"><ele>285.5</ele><time>2026-05-02T11:19:41.002Z</time></trkpt><trkpt lat="40.299363852133986" lon="9.346706426136434"><ele>283.0</ele><time>2026-05-02T11:19:42.002Z</time></trkpt><trkpt lat="40.29929813716487" lon="9.346311455281997"><ele>282.66666666666663</ele><time>2026-05-02T11:19:44.002Z</time></trkpt><trkpt lat="40.29926007752433" lon="9.34611835536809"><ele>282.3333333333333</ele><time>2026-05-02T11:19:45.002Z</time></trkpt><trkpt lat="40.29926597779693" lon="9.345910477108687"><ele>282.0</ele><time>2026-05-02T11:19:46.002Z</time></trkpt><trkpt lat="40.29929615628779" lon="9.345691724657415"><ele>283.25</ele><time>2026-05-02T11:19:47.002Z</time></trkpt><trkpt lat="40.299313944484055" lon="9.345493212529064"><ele>284.5</ele><time>2026-05-02T11:19:48.002Z</time></trkpt><trkpt lat="40.29930933111583" lon="9.345323817601328"><ele>285.75</ele><time>2026-05-02T11:19:49.002Z</time></trkpt><trkpt lat="40.29927256967128" lon="9.34517572583194"><ele>287.0</ele><time>2026-05-02T11:19:50Z</time></trkpt><trkpt lat="40.299202333246804" lon="9.345051968296156"><ele>287.0</ele><time>2026-05-02T11:19:51Z</time></trkpt><trkpt lat="40.299105854941324" lon="9.344932960991686"><ele>287.0</ele><time>2026-05-02T11:19:52Z</time></trkpt><trkpt lat="40.29900256644911" lon="9.344850447939814"><ele>287.0</ele><time>2026-05-02T11:19:53Z</time></trkpt><trkpt lat="40.29888548124293" lon="9.344808774920295"><ele>287.0</ele><time>2026-05-02T11:19:54Z</time></trkpt><trkpt lat="40.29876253791622" lon="9.3448053455446"><ele>288.5</ele><time>2026-05-02T11:19:55Z</time></trkpt><trkpt lat="40.298638855525404" lon="9.344840158954637"><ele>290.0</ele><time>2026-05-02T11:19:56Z</time></trkpt><trkpt lat="40.298522901105265" lon="9.344914527195304"><ele>291.5</ele><time>2026-05-02T11:19:57Z</time></trkpt><trkpt lat="40.298416440046154" lon="9.34502805607931"><ele>293.0</ele><time>2026-05-02T11:19:58Z</time></trkpt><trkpt lat="40.29831460765536" lon="9.34517265687694"><ele>293.0</ele><time>2026-05-02T11:19:59Z</time></trkpt><trkpt lat="40.2982050934964" lon="9.345328994783744"><ele>293.0</ele><time>2026-05-02T11:20:00Z</time></trkpt><trkpt lat="40.29809001564191" lon="9.34549797751189"><ele>293.0</ele><time>2026-05-02T11:20:01Z</time></trkpt><trkpt lat="40.297968074781835" lon="9.345669067151002"><ele>295.5</ele><time>2026-05-02T11:20:02Z</time></trkpt><trkpt lat="40.29783305449805" lon="9.345860927996094"><ele>298.0</ele><time>2026-05-02T11:20:03Z</time></trkpt><trkpt lat="40.29754559092297" lon="9.346261429148454"><ele>302.0</ele><time>2026-05-02T11:20:05Z</time></trkpt><trkpt lat="40.29738727618419" lon="9.346484215607756"><ele>306.0</ele><time>2026-05-02T11:20:06Z</time></trkpt><trkpt lat="40.297229443087936" lon="9.346698623006578"><ele>306.0</ele><time>2026-05-02T11:20:07Z</time></trkpt><trkpt lat="40.29708645053397" lon="9.346891873643873"><ele>306.0</ele><time>2026-05-02T11:20:08Z</time></trkpt><trkpt lat="40.29694848182639" lon="9.347071576243637"><ele>306.0</ele><time>2026-05-02T11:20:09Z</time></trkpt><trkpt lat="40.29681743948512" lon="9.347253463600476"><ele>302.6666666666667</ele><time>2026-05-02T11:20:10Z</time></trkpt><trkpt lat="40.29670003773184" lon="9.347422571354214"><ele>299.33333333333337</ele><time>2026-05-02T11:20:11Z</time></trkpt><trkpt lat="40.296598996646054" lon="9.347622090148231"><ele>296.0</ele><time>2026-05-02T11:20:12Z</time></trkpt><trkpt lat="40.2965198673848" lon="9.347827242563266"><ele>296.0</ele><time>2026-05-02T11:20:13Z</time></trkpt><trkpt lat="40.29644010542847" lon="9.348037957767643"><ele>296.0</ele><time>2026-05-02T11:20:14Z</time></trkpt><trkpt lat="40.296364412680205" lon="9.348250343729907"><ele>296.0</ele><time>2026-05-02T11:20:15Z</time></trkpt><trkpt lat="40.296292381735775" lon="9.348460156195504"><ele>296.0</ele><time>2026-05-02T11:20:16Z</time></trkpt><trkpt lat="40.29621966585322" lon="9.348646972391839"><ele>296.0</ele><time>2026-05-02T11:20:17Z</time></trkpt><trkpt lat="40.29615188684387" lon="9.348833533822615"><ele>296.0</ele><time>2026-05-02T11:20:18Z</time></trkpt><trkpt lat="40.296084345868344" lon="9.349007774449866"><ele>296.0</ele><time>2026-05-02T11:20:19Z</time></trkpt><trkpt lat="40.29602543632874" lon="9.349172079841875"><ele>296.0</ele><time>2026-05-02T11:20:20Z</time></trkpt><trkpt lat="40.295958468140924" lon="9.34932081000897"><ele>296.0</ele><time>2026-05-02T11:20:21Z</time></trkpt><trkpt lat="40.295871709533046" lon="9.349443388325197"><ele>296.0</ele><time>2026-05-02T11:20:22Z</time></trkpt><trkpt lat="40.295764444660335" lon="9.34952262790876"><ele>296.0</ele><time>2026-05-02T11:20:23Z</time></trkpt><trkpt lat="40.295647018687966" lon="9.349565862841322"><ele>296.0</ele><time>2026-05-02T11:20:24.001Z</time></trkpt><trkpt lat="40.295407044562666" lon="9.349549467479038"><ele>296.0</ele><time>2026-05-02T11:20:26.001Z</time></trkpt><trkpt lat="40.2952937514819" lon="9.349492622309464"><ele>293.25</ele><time>2026-05-02T11:20:27.001Z</time></trkpt><trkpt lat="40.29517941738388" lon="9.349410749896698"><ele>290.5</ele><time>2026-05-02T11:20:28.001Z</time></trkpt><trkpt lat="40.295083241903285" lon="9.349312840423545"><ele>287.75</ele><time>2026-05-02T11:20:29.001Z</time></trkpt><trkpt lat="40.295008004779405" lon="9.349192389924115"><ele>285.0</ele><time>2026-05-02T11:20:30.001Z</time></trkpt><trkpt lat="40.29495714913784" lon="9.34904188505335"><ele>288.3333333333333</ele><time>2026-05-02T11:20:31.001Z</time></trkpt><trkpt lat="40.294909268644304" lon="9.348858568265094"><ele>291.66666666666663</ele><time>2026-05-02T11:20:32.001Z</time></trkpt><trkpt lat="40.29485193703511" lon="9.34865601246549"><ele>295.0</ele><time>2026-05-02T11:20:33.001Z</time></trkpt><trkpt lat="40.29476664572008" lon="9.348457539242668"><ele>289.0</ele><time>2026-05-02T11:20:34.001Z</time></trkpt><trkpt lat="40.29466687520706" lon="9.348272723082918"><ele>283.0</ele><time>2026-05-02T11:20:35.001Z</time></trkpt><trkpt lat="40.29455424425684" lon="9.348079405501146"><ele>277.0</ele><time>2026-05-02T11:20:36.001Z</time></trkpt><trkpt lat="40.29444304347652" lon="9.347888062996109"><ele>277.0</ele><time>2026-05-02T11:20:37.001Z</time></trkpt><trkpt lat="40.29433690528479" lon="9.347693718827134"><ele>277.0</ele><time>2026-05-02T11:20:38.001Z</time></trkpt><trkpt lat="40.29424227802658" lon="9.347475029448331"><ele>277.0</ele><time>2026-05-02T11:20:39.001Z</time></trkpt><trkpt lat="40.29415823633986" lon="9.347245544506125"><ele>279.3333333333333</ele><time>2026-05-02T11:20:40.001Z</time></trkpt><trkpt lat="40.29408407396676" lon="9.347010408073885"><ele>281.6666666666667</ele><time>2026-05-02T11:20:41.001Z</time></trkpt><trkpt lat="40.29401975080625" lon="9.346786863197677"><ele>284.0</ele><time>2026-05-02T11:20:42.001Z</time></trkpt><trkpt lat="40.29395977744179" lon="9.346574226122902"><ele>278.6666666666667</ele><time>2026-05-02T11:20:43.001Z</time></trkpt><trkpt lat="40.29389631896683" lon="9.346384164433964"><ele>273.3333333333333</ele><time>2026-05-02T11:20:44.001Z</time></trkpt><trkpt lat="40.29383975602126" lon="9.34621795071168"><ele>268.0</ele><time>2026-05-02T11:20:45.001Z</time></trkpt><trkpt lat="40.293682920833625" lon="9.345934052958006"><ele>268.0</ele><time>2026-05-02T11:20:47.001Z</time></trkpt><trkpt lat="40.29357758289775" lon="9.345844427794107"><ele>268.0</ele><time>2026-05-02T11:20:48.001Z</time></trkpt><trkpt lat="40.29345673609377" lon="9.345780901544225"><ele>268.0</ele><time>2026-05-02T11:20:49.001Z</time></trkpt><trkpt lat="40.29332176586018" lon="9.345765620519025"><ele>268.0</ele><time>2026-05-02T11:20:50.001Z</time></trkpt><trkpt lat="40.29318485772363" lon="9.345794680059486"><ele>268.0</ele><time>2026-05-02T11:20:51.001Z</time></trkpt><trkpt lat="40.29306205527649" lon="9.345868791337292"><ele>268.0</ele><time>2026-05-02T11:20:52.001Z</time></trkpt><trkpt lat="40.29295820793539" lon="9.34598439744694"><ele>268.0</ele><time>2026-05-02T11:20:53.001Z</time></trkpt><trkpt lat="40.29285566258756" lon="9.346099249949702"><ele>268.0</ele><time>2026-05-02T11:20:54.001Z</time></trkpt><trkpt lat="40.29274042993412" lon="9.346171799523532"><ele>268.0</ele><time>2026-05-02T11:20:55.001Z</time></trkpt><trkpt lat="40.29261538460397" lon="9.3462175857013"><ele>268.0</ele><time>2026-05-02T11:20:56.001Z</time></trkpt><trkpt lat="40.292478392230656" lon="9.346223425962052"><ele>268.0</ele><time>2026-05-02T11:20:57.001Z</time></trkpt><trkpt lat="40.2923371826965" lon="9.34619716234117"><ele>268.0</ele><time>2026-05-02T11:20:58.001Z</time></trkpt><trkpt lat="40.292204484098285" lon="9.346120261698859"><ele>264.0</ele><time>2026-05-02T11:20:59.001Z</time></trkpt><trkpt lat="40.29206976288221" lon="9.346013391815067"><ele>260.0</ele><time>2026-05-02T11:21:00.001Z</time></trkpt><trkpt lat="40.29194589281016" lon="9.345873710831304"><ele>256.0</ele><time>2026-05-02T11:21:01.001Z</time></trkpt><trkpt lat="40.29181244485715" lon="9.345740569745397"><ele>256.0</ele><time>2026-05-02T11:21:02.001Z</time></trkpt><trkpt lat="40.291676128564816" lon="9.345623229228604"><ele>256.0</ele><time>2026-05-02T11:21:03.001Z</time></trkpt><trkpt lat="40.29152055018311" lon="9.345550937997704"><ele>256.0</ele><time>2026-05-02T11:21:04.001Z</time></trkpt><trkpt lat="40.29135282738006" lon="9.34551294923301"><ele>266.0</ele><time>2026-05-02T11:21:05.001Z</time></trkpt><trkpt lat="40.29117091952958" lon="9.345495714800537"><ele>276.0</ele><time>2026-05-02T11:21:06.001Z</time></trkpt><trkpt lat="40.29081666105865" lon="9.345453239330665"><ele>276.0</ele><time>2026-05-02T11:21:08.001Z</time></trkpt><trkpt lat="40.290644023865326" lon="9.34541418439398"><ele>276.0</ele><time>2026-05-02T11:21:09.001Z</time></trkpt><trkpt lat="40.290477324638864" lon="9.345354522574116"><ele>276.0</ele><time>2026-05-02T11:21:10.002Z</time></trkpt><trkpt lat="40.290313722405365" lon="9.345267497303697"><ele>272.3333333333333</ele><time>2026-05-02T11:21:11.002Z</time></trkpt><trkpt lat="40.290158566325545" lon="9.345157514520464"><ele>268.66666666666663</ele><time>2026-05-02T11:21:12.002Z</time></trkpt><trkpt lat="40.290013174395355" lon="9.345036859107296"><ele>265.0</ele><time>2026-05-02T11:21:13.002Z</time></trkpt><trkpt lat="40.28988465862715" lon="9.344899081326552"><ele>265.0</ele><time>2026-05-02T11:21:14.002Z</time></trkpt><trkpt lat="40.28977389028193" lon="9.344749015546086"><ele>265.0</ele><time>2026-05-02T11:21:15.002Z</time></trkpt><trkpt lat="40.28968242569686" lon="9.344591613866111"><ele>265.0</ele><time>2026-05-02T11:21:16.002Z</time></trkpt><trkpt lat="40.289606541733086" lon="9.344429110530635"><ele>262.3333333333333</ele><time>2026-05-02T11:21:17.002Z</time></trkpt><trkpt lat="40.28954512477877" lon="9.344249605925862"><ele>259.6666666666667</ele><time>2026-05-02T11:21:18.002Z</time></trkpt><trkpt lat="40.28949479882769" lon="9.344045153316992"><ele>257.0</ele><time>2026-05-02T11:21:19.002Z</time></trkpt><trkpt lat="40.289454793821875" lon="9.343815865328983"><ele>256.6666666666667</ele><time>2026-05-02T11:21:20.002Z</time></trkpt><trkpt lat="40.28941268181454" lon="9.343557366150938"><ele>256.3333333333333</ele><time>2026-05-02T11:21:21.002Z</time></trkpt><trkpt lat="40.289369173856116" lon="9.343358108327378"><ele>256.0</ele><time>2026-05-02T11:21:22.002Z</time></trkpt><trkpt lat="40.28930417016974" lon="9.343154789561265"><ele>255.33333333333331</ele><time>2026-05-02T11:21:23.002Z</time></trkpt><trkpt lat="40.2892265008955" lon="9.342964715006289"><ele>254.66666666666669</ele><time>2026-05-02T11:21:24.002Z</time></trkpt><trkpt lat="40.28913185845835" lon="9.34279538818131"><ele>254.0</ele><time>2026-05-02T11:21:25.002Z</time></trkpt><trkpt lat="40.289032350187654" lon="9.342655868046759"><ele>254.0</ele><time>2026-05-02T11:21:26.002Z</time></trkpt><trkpt lat="40.288924118912796" lon="9.34256049038465"><ele>254.0</ele><time>2026-05-02T11:21:27.002Z</time></trkpt><trkpt lat="40.2886945741539" lon="9.342474110527016"><ele>254.0</ele><time>2026-05-02T11:21:29.002Z</time></trkpt><trkpt lat="40.28858082314427" lon="9.34247581816651"><ele>254.0</ele><time>2026-05-02T11:21:30.002Z</time></trkpt><trkpt lat="40.28846456543115" lon="9.34251369981364"><ele>254.0</ele><time>2026-05-02T11:21:31.002Z</time></trkpt><trkpt lat="40.288360418865516" lon="9.342588987125005"><ele>254.0</ele><time>2026-05-02T11:21:32.002Z</time></trkpt><trkpt lat="40.288271708751985" lon="9.342703188933353"><ele>254.0</ele><time>2026-05-02T11:21:33.002Z</time></trkpt><trkpt lat="40.288201433992" lon="9.342861701968665"><ele>254.0</ele><time>2026-05-02T11:21:34.002Z</time></trkpt><trkpt lat="40.28813257700532" lon="9.343043637684698"><ele>254.0</ele><time>2026-05-02T11:21:35.002Z</time></trkpt><trkpt lat="40.28806349683213" lon="9.343239993137338"><ele>254.0</ele><time>2026-05-02T11:21:36.002Z</time></trkpt><trkpt lat="40.28798954606828" lon="9.343448320987399"><ele>256.6666666666667</ele><time>2026-05-02T11:21:37.002Z</time></trkpt><trkpt lat="40.28790430053429" lon="9.343661002401822"><ele>259.3333333333333</ele><time>2026-05-02T11:21:38.002Z</time></trkpt><trkpt lat="40.28780624604458" lon="9.343877788131358"><ele>262.0</ele><time>2026-05-02T11:21:39.002Z</time></trkpt><trkpt lat="40.28769980217905" lon="9.344093025450537"><ele>262.0</ele><time>2026-05-02T11:21:40.002Z</time></trkpt><trkpt lat="40.28760118566311" lon="9.344299627074617"><ele>262.0</ele><time>2026-05-02T11:21:41.002Z</time></trkpt><trkpt lat="40.287506060553085" lon="9.344495306941837"><ele>262.0</ele><time>2026-05-02T11:21:42.002Z</time></trkpt><trkpt lat="40.287419193072346" lon="9.344672166160542"><ele>261.0</ele><time>2026-05-02T11:21:43.002Z</time></trkpt><trkpt lat="40.28734701685618" lon="9.34483741177985"><ele>260.0</ele><time>2026-05-02T11:21:44.002Z</time></trkpt><trkpt lat="40.28727754962016" lon="9.34498043467941"><ele>259.0</ele><time>2026-05-02T11:21:45.002Z</time></trkpt><trkpt lat="40.28720768155908" lon="9.345102036012188"><ele>258.0</ele><time>2026-05-02T11:21:46.002Z</time></trkpt><trkpt lat="40.287125088593" lon="9.345190165268846"><ele>260.25</ele><time>2026-05-02T11:21:47.002Z</time></trkpt><trkpt lat="40.287030118561056" lon="9.345236051982077"><ele>262.5</ele><time>2026-05-02T11:21:48.002Z</time></trkpt><trkpt lat="40.28680722198524" lon="9.345206428308735"><ele>264.75</ele><time>2026-05-02T11:21:50.002Z</time></trkpt><trkpt lat="40.286710861405815" lon="9.3451259018507"><ele>267.0</ele><time>2026-05-02T11:21:51.002Z</time></trkpt><trkpt lat="40.28663065485422" lon="9.344997554770341"><ele>267.0</ele><time>2026-05-02T11:21:52.002Z</time></trkpt><trkpt lat="40.28655805424138" lon="9.344842162859265"><ele>267.0</ele><time>2026-05-02T11:21:53.002Z</time></trkpt><trkpt lat="40.28648386049939" lon="9.344663023014247"><ele>267.0</ele><time>2026-05-02T11:21:54.002Z</time></trkpt><trkpt lat="40.28641944703261" lon="9.344479469528252"><ele>267.0</ele><time>2026-05-02T11:21:55.002Z</time></trkpt><trkpt lat="40.28634403676233" lon="9.344286189903176"><ele>266.0</ele><time>2026-05-02T11:21:55.997Z</time></trkpt><trkpt lat="40.286263945229045" lon="9.344082899689033"><ele>265.0</ele><time>2026-05-02T11:21:56.997Z</time></trkpt><trkpt lat="40.2861955913003" lon="9.343895672200691"><ele>264.0</ele><time>2026-05-02T11:21:57.998Z</time></trkpt><trkpt lat="40.28612767209696" lon="9.343729223727207"><ele>264.0</ele><time>2026-05-02T11:21:58.998Z</time></trkpt><trkpt lat="40.286051819522854" lon="9.343590875192273"><ele>264.0</ele><time>2026-05-02T11:21:59.998Z</time></trkpt><trkpt lat="40.28595889625122" lon="9.343492320391498"><ele>264.0</ele><time>2026-05-02T11:22:00.998Z</time></trkpt><trkpt lat="40.28584963889941" lon="9.343431738962066"><ele>264.0</ele><time>2026-05-02T11:22:01.998Z</time></trkpt><trkpt lat="40.28572162002431" lon="9.343422159695606"><ele>265.25</ele><time>2026-05-02T11:22:02.998Z</time></trkpt><trkpt lat="40.285595341466404" lon="9.343455346333597"><ele>266.5</ele><time>2026-05-02T11:22:03.998Z</time></trkpt><trkpt lat="40.28546590326189" lon="9.343524117785442"><ele>267.75</ele><time>2026-05-02T11:22:04.998Z</time></trkpt><trkpt lat="40.28532891104837" lon="9.343563036544639"><ele>269.0</ele><time>2026-05-02T11:22:05.998Z</time></trkpt><trkpt lat="40.28519781442026" lon="9.343550143983263"><ele>269.0</ele><time>2026-05-02T11:22:06.998Z</time></trkpt><trkpt lat="40.28506922481377" lon="9.3435001640078"><ele>269.0</ele><time>2026-05-02T11:22:07.998Z</time></trkpt><trkpt lat="40.28493522571575" lon="9.34342136043583"><ele>269.0</ele><time>2026-05-02T11:22:08.998Z</time></trkpt><trkpt lat="40.284642287531305" lon="9.343206019321068"><ele>270.33333333333337</ele><time>2026-05-02T11:22:10.998Z</time></trkpt><trkpt lat="40.284493577132075" lon="9.343091810563552"><ele>271.6666666666667</ele><time>2026-05-02T11:22:11.998Z</time></trkpt><trkpt lat="40.284338476196226" lon="9.34298242983668"><ele>273.0</ele><time>2026-05-02T11:22:12.998Z</time></trkpt><trkpt lat="40.284173662085934" lon="9.342877809786996"><ele>273.0</ele><time>2026-05-02T11:22:13.998Z</time></trkpt><trkpt lat="40.284005549156554" lon="9.342783648244882"><ele>273.0</ele><time>2026-05-02T11:22:14.999Z</time></trkpt><trkpt lat="40.28383053257003" lon="9.342701835297326"><ele>273.0</ele><time>2026-05-02T11:22:15.999Z</time></trkpt><trkpt lat="40.283644978375335" lon="9.342635947765734"><ele>270.0</ele><time>2026-05-02T11:22:16.999Z</time></trkpt><trkpt lat="40.28345482170879" lon="9.342596138871857"><ele>267.0</ele><time>2026-05-02T11:22:17.999Z</time></trkpt><trkpt lat="40.283267518588936" lon="9.342581334291253"><ele>264.0</ele><time>2026-05-02T11:22:18.999Z</time></trkpt><trkpt lat="40.28308783652536" lon="9.342569226536162"><ele>262.6666666666667</ele><time>2026-05-02T11:22:19.999Z</time></trkpt><trkpt lat="40.282919873176674" lon="9.342537385219538"><ele>261.33333333333337</ele><time>2026-05-02T11:22:20.999Z</time></trkpt><trkpt lat="40.28275691654865" lon="9.342477768484615"><ele>260.0</ele><time>2026-05-02T11:22:21.999Z</time></trkpt><trkpt lat="40.28259504248554" lon="9.342394327212997"><ele>260.0</ele><time>2026-05-02T11:22:22.999Z</time></trkpt><trkpt lat="40.28242947797544" lon="9.342296209205053"><ele>260.0</ele><time>2026-05-02T11:22:23.999Z</time></trkpt><trkpt lat="40.28226223205798" lon="9.342180814765424"><ele>260.0</ele><time>2026-05-02T11:22:24.999Z</time></trkpt><trkpt lat="40.28209095754024" lon="9.34205595584898"><ele>262.6666666666667</ele><time>2026-05-02T11:22:25.999Z</time></trkpt><trkpt lat="40.28191872287664" lon="9.341924986410906"><ele>265.3333333333333</ele><time>2026-05-02T11:22:26.999Z</time></trkpt><trkpt lat="40.28175162212788" lon="9.341797940851036"><ele>268.0</ele><time>2026-05-02T11:22:27.999Z</time></trkpt><trkpt lat="40.28158027094198" lon="9.341681217167842"><ele>269.0</ele><time>2026-05-02T11:22:28.999Z</time></trkpt><trkpt lat="40.281419801704914" lon="9.341554417417466"><ele>270.0</ele><time>2026-05-02T11:22:29.999Z</time></trkpt><trkpt lat="40.28111111175125" lon="9.341315187962353"><ele>270.0</ele><time>2026-05-02T11:22:32Z</time></trkpt><trkpt lat="40.28096765966657" lon="9.341200521357267"><ele>270.0</ele><time>2026-05-02T11:22:33Z</time></trkpt><trkpt lat="40.28083278799255" lon="9.341076984635327"><ele>270.0</ele><time>2026-05-02T11:22:34Z</time></trkpt><trkpt lat="40.28071184291072" lon="9.340933934799622"><ele>270.0</ele><time>2026-05-02T11:22:35Z</time></trkpt><trkpt lat="40.280603058125266" lon="9.340769010348744"><ele>270.0</ele><time>2026-05-02T11:22:36Z</time></trkpt><trkpt lat="40.28051180198924" lon="9.340584000398163"><ele>270.0</ele><time>2026-05-02T11:22:37Z</time></trkpt><trkpt lat="40.28044072847393" lon="9.340387994230849"><ele>269.3333333333333</ele><time>2026-05-02T11:22:38Z</time></trkpt><trkpt lat="40.280389225499434" lon="9.340177725715792"><ele>268.66666666666663</ele><time>2026-05-02T11:22:39Z</time></trkpt><trkpt lat="40.28034793592661" lon="9.33995731658198"><ele>268.0</ele><time>2026-05-02T11:22:40Z</time></trkpt><trkpt lat="40.280305720496784" lon="9.33973350422691"><ele>268.0</ele><time>2026-05-02T11:22:41Z</time></trkpt><trkpt lat="40.280260058597506" lon="9.339507848165145"><ele>268.0</ele><time>2026-05-02T11:22:42Z</time></trkpt><trkpt lat="40.28021758465127" lon="9.339282326419088"><ele>268.0</ele><time>2026-05-02T11:22:43Z</time></trkpt><trkpt lat="40.2801787956538" lon="9.339056789372826"><ele>267.3333333333333</ele><time>2026-05-02T11:22:44Z</time></trkpt><trkpt lat="40.2801392425195" lon="9.338825701433246"><ele>266.6666666666667</ele><time>2026-05-02T11:22:45Z</time></trkpt><trkpt lat="40.28009891988743" lon="9.338592353717267"><ele>266.0</ele><time>2026-05-02T11:22:46Z</time></trkpt><trkpt lat="40.28006042287722" lon="9.338360061440916"><ele>266.0</ele><time>2026-05-02T11:22:47Z</time></trkpt><trkpt lat="40.28001982621558" lon="9.338132134898236"><ele>266.0</ele><time>2026-05-02T11:22:48Z</time></trkpt><trkpt lat="40.27998175645579" lon="9.337903126599414"><ele>266.0</ele><time>2026-05-02T11:22:49Z</time></trkpt><trkpt lat="40.279939126970845" lon="9.337676400272965"><ele>264.0</ele><time>2026-05-02T11:22:50Z</time></trkpt><trkpt lat="40.27988934980796" lon="9.337448840059553"><ele>262.0</ele><time>2026-05-02T11:22:51Z</time></trkpt><trkpt lat="40.279767758734565" lon="9.336997898267775"><ele>261.3333333333333</ele><time>2026-05-02T11:22:53Z</time></trkpt><trkpt lat="40.27969514550905" lon="9.336782631740547"><ele>260.6666666666667</ele><time>2026-05-02T11:22:54Z</time></trkpt><trkpt lat="40.279609305262724" lon="9.336580441110955"><ele>260.0</ele><time>2026-05-02T11:22:55Z</time></trkpt><trkpt lat="40.279504871153" lon="9.336393477135148"><ele>257.33333333333337</ele><time>2026-05-02T11:22:56Z</time></trkpt><trkpt lat="40.27938489317301" lon="9.336220119809987"><ele>254.66666666666669</ele><time>2026-05-02T11:22:57Z</time></trkpt><trkpt lat="40.279255469971226" lon="9.336055781654204"><ele>252.0</ele><time>2026-05-02T11:22:58Z</time></trkpt><trkpt lat="40.279126526834" lon="9.335897585546624"><ele>252.0</ele><time>2026-05-02T11:22:59Z</time></trkpt><trkpt lat="40.27899693737634" lon="9.335751615326087"><ele>252.0</ele><time>2026-05-02T11:23:00.001Z</time></trkpt><trkpt lat="40.27886348816676" lon="9.335624466858073"><ele>252.0</ele><time>2026-05-02T11:23:01.001Z</time></trkpt><trkpt lat="40.27871793602864" lon="9.335516757659109"><ele>253.33333333333331</ele><time>2026-05-02T11:23:02.001Z</time></trkpt><trkpt lat="40.278558497657244" lon="9.33542756647131"><ele>254.66666666666666</ele><time>2026-05-02T11:23:03.001Z</time></trkpt><trkpt lat="40.27839395556977" lon="9.335352478656729"><ele>256.0</ele><time>2026-05-02T11:23:04.001Z</time></trkpt><trkpt lat="40.27822400508261" lon="9.335276487270958"><ele>255.66666666666666</ele><time>2026-05-02T11:23:05.001Z</time></trkpt><trkpt lat="40.278051806097" lon="9.335198504295535"><ele>255.33333333333331</ele><time>2026-05-02T11:23:06.001Z</time></trkpt><trkpt lat="40.277881548664816" lon="9.335122898234879"><ele>255.0</ele><time>2026-05-02T11:23:07.001Z</time></trkpt><trkpt lat="40.277718293385604" lon="9.335049515118799"><ele>255.0</ele><time>2026-05-02T11:23:08.001Z</time></trkpt><trkpt lat="40.277566251736324" lon="9.33498127265288"><ele>255.0</ele><time>2026-05-02T11:23:09.001Z</time></trkpt><trkpt lat="40.277425518178696" lon="9.33492501012994"><ele>255.0</ele><time>2026-05-02T11:23:10.001Z</time></trkpt><trkpt lat="40.27727715276458" lon="9.334896080935707"><ele>257.0</ele><time>2026-05-02T11:23:11.001Z</time></trkpt><trkpt lat="40.27712231105424" lon="9.334896086384889"><ele>259.0</ele><time>2026-05-02T11:23:12.001Z</time></trkpt><trkpt lat="40.276789198118834" lon="9.33493948716055"><ele>259.0</ele><time>2026-05-02T11:23:14.001Z</time></trkpt><trkpt lat="40.27662021358502" lon="9.334966559910272"><ele>259.0</ele><time>2026-05-02T11:23:15.001Z</time></trkpt><trkpt lat="40.276445396639666" lon="9.33499587057968"><ele>259.0</ele><time>2026-05-02T11:23:16.001Z</time></trkpt><trkpt lat="40.2762693784169" lon="9.335020535003691"><ele>260.66666666666663</ele><time>2026-05-02T11:23:17.001Z</time></trkpt><trkpt lat="40.27609082057609" lon="9.33504579064968"><ele>262.3333333333333</ele><time>2026-05-02T11:23:18.001Z</time></trkpt><trkpt lat="40.27590699536304" lon="9.33506997051034"><ele>264.0</ele><time>2026-05-02T11:23:19.001Z</time></trkpt><trkpt lat="40.27572323616225" lon="9.335097235531645"><ele>265.0</ele><time>2026-05-02T11:23:20.001Z</time></trkpt><trkpt lat="40.27553924665017" lon="9.33512022052676"><ele>266.0</ele><time>2026-05-02T11:23:21.001Z</time></trkpt><trkpt lat="40.27535936372141" lon="9.335143117310901"><ele>267.0</ele><time>2026-05-02T11:23:22.001Z</time></trkpt><trkpt lat="40.27519439903201" lon="9.335166561965373"><ele>267.0</ele><time>2026-05-02T11:23:23.001Z</time></trkpt><trkpt lat="40.275041472600385" lon="9.335187051282407"><ele>267.0</ele><time>2026-05-02T11:23:24.001Z</time></trkpt><trkpt lat="40.274894998107136" lon="9.335215317877433"><ele>267.0</ele><time>2026-05-02T11:23:25.001Z</time></trkpt><trkpt lat="40.27475576594135" lon="9.335276231116527"><ele>267.0</ele><time>2026-05-02T11:23:26.001Z</time></trkpt><trkpt lat="40.27462301166886" lon="9.335374812415782"><ele>267.0</ele><time>2026-05-02T11:23:27.001Z</time></trkpt><trkpt lat="40.274490743117646" lon="9.335501457979598"><ele>267.0</ele><time>2026-05-02T11:23:28.001Z</time></trkpt><trkpt lat="40.27435784591449" lon="9.335653892180893"><ele>267.0</ele><time>2026-05-02T11:23:29.001Z</time></trkpt><trkpt lat="40.27422050496354" lon="9.33581777895323"><ele>267.0</ele><time>2026-05-02T11:23:30.001Z</time></trkpt><trkpt lat="40.274078083690384" lon="9.335989236605057"><ele>267.0</ele><time>2026-05-02T11:23:31.001Z</time></trkpt><trkpt lat="40.27393238964802" lon="9.336166813865734"><ele>267.0</ele><time>2026-05-02T11:23:32.001Z</time></trkpt><trkpt lat="40.273787212126436" lon="9.336343904530231"><ele>271.0</ele><time>2026-05-02T11:23:33.001Z</time></trkpt><trkpt lat="40.27349805900077" lon="9.336696373169278"><ele>275.0</ele><time>2026-05-02T11:23:35.002Z</time></trkpt><trkpt lat="40.273350269746935" lon="9.33687350170138"><ele>275.0</ele><time>2026-05-02T11:23:36.002Z</time></trkpt><trkpt lat="40.27320640397134" lon="9.337044435536978"><ele>275.0</ele><time>2026-05-02T11:23:37.002Z</time></trkpt><trkpt lat="40.27305768110955" lon="9.337219147528783"><ele>275.0</ele><time>2026-05-02T11:23:38.002Z</time></trkpt><trkpt lat="40.272901612467905" lon="9.33738983180404"><ele>275.6666666666667</ele><time>2026-05-02T11:23:39.002Z</time></trkpt><trkpt lat="40.27273512832162" lon="9.337551359458319"><ele>276.3333333333333</ele><time>2026-05-02T11:23:40.002Z</time></trkpt><trkpt lat="40.27256332584393" lon="9.337706072645448"><ele>277.0</ele><time>2026-05-02T11:23:41.002Z</time></trkpt><trkpt lat="40.272390178982924" lon="9.337857456698377"><ele>277.0</ele><time>2026-05-02T11:23:42.002Z</time></trkpt><trkpt lat="40.27221666500597" lon="9.338004628444493"><ele>277.0</ele><time>2026-05-02T11:23:43.002Z</time></trkpt><trkpt lat="40.27204465528767" lon="9.338151276434257"><ele>277.0</ele><time>2026-05-02T11:23:44.002Z</time></trkpt><trkpt lat="40.27187177075352" lon="9.338298615441213"><ele>277.0</ele><time>2026-05-02T11:23:45.002Z</time></trkpt><trkpt lat="40.27169951587963" lon="9.338446782662349"><ele>277.0</ele><time>2026-05-02T11:23:46.002Z</time></trkpt><trkpt lat="40.271529667414526" lon="9.338594310851988"><ele>277.0</ele><time>2026-05-02T11:23:47.002Z</time></trkpt><trkpt lat="40.27135852959819" lon="9.338736309666"><ele>277.66666666666663</ele><time>2026-05-02T11:23:48.002Z</time></trkpt><trkpt lat="40.27118723205498" lon="9.338881184218756"><ele>278.3333333333333</ele><time>2026-05-02T11:23:49.002Z</time></trkpt><trkpt lat="40.27101994289034" lon="9.339024418462815"><ele>279.0</ele><time>2026-05-02T11:23:50.002Z</time></trkpt><trkpt lat="40.27085240766009" lon="9.339166481374216"><ele>279.0</ele><time>2026-05-02T11:23:51.002Z</time></trkpt><trkpt lat="40.27068861097119" lon="9.33930075827669"><ele>279.0</ele><time>2026-05-02T11:23:52.002Z</time></trkpt><trkpt lat="40.27052971192764" lon="9.339433707629746"><ele>279.0</ele><time>2026-05-02T11:23:53.002Z</time></trkpt><trkpt lat="40.27037409431109" lon="9.339567020776522"><ele>271.5</ele><time>2026-05-02T11:23:54.002Z</time></trkpt><trkpt lat="40.270046943232195" lon="9.339818544584153"><ele>264.0</ele><time>2026-05-02T11:23:56.002Z</time></trkpt><trkpt lat="40.26987275504572" lon="9.339919291396107"><ele>262.6666666666667</ele><time>2026-05-02T11:23:57.002Z</time></trkpt><trkpt lat="40.26969856366124" lon="9.339998371256726"><ele>261.33333333333337</ele><time>2026-05-02T11:23:58.002Z</time></trkpt><trkpt lat="40.26952729713771" lon="9.340061494198915"><ele>260.0</ele><time>2026-05-02T11:23:59.002Z</time></trkpt><trkpt lat="40.26935058358538" lon="9.340107788797223"><ele>260.0</ele><time>2026-05-02T11:24:00.002Z</time></trkpt><trkpt lat="40.26917055053228" lon="9.340126980397802"><ele>260.0</ele><time>2026-05-02T11:24:01.002Z</time></trkpt><trkpt lat="40.26898179775125" lon="9.340117303752539"><ele>260.0</ele><time>2026-05-02T11:24:02Z</time></trkpt><trkpt lat="40.2687802978101" lon="9.340084098006367"><ele>258.33333333333337</ele><time>2026-05-02T11:24:03Z</time></trkpt><trkpt lat="40.268570232676296" lon="9.340038733740878"><ele>256.6666666666667</ele><time>2026-05-02T11:24:04Z</time></trkpt><trkpt lat="40.26834972892037" lon="9.339990956712292"><ele>255.0</ele><time>2026-05-02T11:24:05Z</time></trkpt><trkpt lat="40.26812479128227" lon="9.339940763400595"><ele>254.0</ele><time>2026-05-02T11:24:06Z</time></trkpt><trkpt lat="40.267901760060205" lon="9.339889570012275"><ele>253.0</ele><time>2026-05-02T11:24:07Z</time></trkpt><trkpt lat="40.26768524795543" lon="9.339839873917409"><ele>252.0</ele><time>2026-05-02T11:24:08Z</time></trkpt><trkpt lat="40.26747442358224" lon="9.339792800335522"><ele>253.33333333333331</ele><time>2026-05-02T11:24:09Z</time></trkpt><trkpt lat="40.26726107501405" lon="9.339750878926516"><ele>254.66666666666666</ele><time>2026-05-02T11:24:10Z</time></trkpt><trkpt lat="40.267048701191285" lon="9.33970629434536"><ele>256.0</ele><time>2026-05-02T11:24:11Z</time></trkpt><trkpt lat="40.266839041705566" lon="9.339664327979706"><ele>256.0</ele><time>2026-05-02T11:24:12Z</time></trkpt><trkpt lat="40.26663481612918" lon="9.339619216235771"><ele>256.0</ele><time>2026-05-02T11:24:13Z</time></trkpt><trkpt lat="40.26643987923213" lon="9.339574859427184"><ele>256.0</ele><time>2026-05-02T11:24:14Z</time></trkpt><trkpt lat="40.26625143526749" lon="9.33953271548333"><ele>255.0</ele><time>2026-05-02T11:24:15Z</time></trkpt><trkpt lat="40.26589217622482" lon="9.339457227513138"><ele>254.0</ele><time>2026-05-02T11:24:17Z</time></trkpt><trkpt lat="40.265720819152875" lon="9.3394207547958"><ele>253.0</ele><time>2026-05-02T11:24:18Z</time></trkpt><trkpt lat="40.26554516205459" lon="9.339384909041847"><ele>252.0</ele><time>2026-05-02T11:24:19Z</time></trkpt><trkpt lat="40.265365997598686" lon="9.339345851572121"><ele>251.0</ele><time>2026-05-02T11:24:20Z</time></trkpt><trkpt lat="40.265181733239345" lon="9.33930410283347"><ele>251.0</ele><time>2026-05-02T11:24:21Z</time></trkpt><trkpt lat="40.264994587566164" lon="9.339260530150312"><ele>251.0</ele><time>2026-05-02T11:24:22Z</time></trkpt><trkpt lat="40.264804122522364" lon="9.339217809547003"><ele>251.0</ele><time>2026-05-02T11:24:23Z</time></trkpt><trkpt lat="40.26460809707177" lon="9.339182270747635"><ele>250.33333333333334</ele><time>2026-05-02T11:24:24Z</time></trkpt><trkpt lat="40.264408463894" lon="9.339138582560262"><ele>249.66666666666669</ele><time>2026-05-02T11:24:25.001Z</time></trkpt><trkpt lat="40.26420446677449" lon="9.339092882445"><ele>249.0</ele><time>2026-05-02T11:24:26.001Z</time></trkpt><trkpt lat="40.26399520733305" lon="9.339048899946128"><ele>249.66666666666669</ele><time>2026-05-02T11:24:27.001Z</time></trkpt><trkpt lat="40.26378549300442" lon="9.339007057664483"><ele>250.33333333333334</ele><time>2026-05-02T11:24:28.001Z</time></trkpt><trkpt lat="40.26357747468463" lon="9.338963729292507"><ele>251.0</ele><time>2026-05-02T11:24:29.001Z</time></trkpt><trkpt lat="40.2633682630873" lon="9.33891826252651"><ele>252.0</ele><time>2026-05-02T11:24:30.001Z</time></trkpt><trkpt lat="40.263158647195205" lon="9.338869651522645"><ele>253.0</ele><time>2026-05-02T11:24:31.001Z</time></trkpt><trkpt lat="40.262953899257326" lon="9.33882185303849"><ele>254.0</ele><time>2026-05-02T11:24:32.001Z</time></trkpt><trkpt lat="40.26276144326925" lon="9.338779156100479"><ele>254.66666666666669</ele><time>2026-05-02T11:24:33.001Z</time></trkpt><trkpt lat="40.262577352138216" lon="9.338743291822384"><ele>255.33333333333331</ele><time>2026-05-02T11:24:34.001Z</time></trkpt><trkpt lat="40.26239838322494" lon="9.338708549937856"><ele>256.0</ele><time>2026-05-02T11:24:35.001Z</time></trkpt><trkpt lat="40.262220236523504" lon="9.338671118669945"><ele>256.0</ele><time>2026-05-02T11:24:36.001Z</time></trkpt><trkpt lat="40.26186367936117" lon="9.33859954307096"><ele>256.0</ele><time>2026-05-02T11:24:38.001Z</time></trkpt><trkpt lat="40.26169150909785" lon="9.33856174893753"><ele>256.0</ele><time>2026-05-02T11:24:39.001Z</time></trkpt><trkpt lat="40.261521714346465" lon="9.338518795925701"><ele>256.0</ele><time>2026-05-02T11:24:40.001Z</time></trkpt><trkpt lat="40.26136012094792" lon="9.338462043049443"><ele>256.0</ele><time>2026-05-02T11:24:41.001Z</time></trkpt><trkpt lat="40.2612062508146" lon="9.338384045727414"><ele>255.66666666666666</ele><time>2026-05-02T11:24:42.001Z</time></trkpt><trkpt lat="40.2610658079623" lon="9.338284773448095"><ele>255.33333333333331</ele><time>2026-05-02T11:24:43.001Z</time></trkpt><trkpt lat="40.260944507564744" lon="9.338167937790951"><ele>255.0</ele><time>2026-05-02T11:24:44.001Z</time></trkpt><trkpt lat="40.260829495671224" lon="9.338030050696162"><ele>255.0</ele><time>2026-05-02T11:24:45.001Z</time></trkpt><trkpt lat="40.26072367787498" lon="9.33786840872574"><ele>255.0</ele><time>2026-05-02T11:24:46.001Z</time></trkpt><trkpt lat="40.26062135689318" lon="9.33771433442095"><ele>255.0</ele><time>2026-05-02T11:24:47.001Z</time></trkpt><trkpt lat="40.26051074811274" lon="9.337577296770688"><ele>252.33333333333331</ele><time>2026-05-02T11:24:48.001Z</time></trkpt><trkpt lat="40.260377076779946" lon="9.33745708719702"><ele>249.66666666666666</ele><time>2026-05-02T11:24:49.001Z</time></trkpt><trkpt lat="40.260224686565465" lon="9.337357253543296"><ele>247.0</ele><time>2026-05-02T11:24:50.001Z</time></trkpt><trkpt lat="40.26006085197951" lon="9.337279796217409"><ele>247.0</ele><time>2026-05-02T11:24:51.001Z</time></trkpt><trkpt lat="40.25989753612028" lon="9.337219572466923"><ele>247.0</ele><time>2026-05-02T11:24:52.001Z</time></trkpt><trkpt lat="40.25973482743178" lon="9.3371849224274"><ele>247.0</ele><time>2026-05-02T11:24:53.001Z</time></trkpt><trkpt lat="40.25957208125771" lon="9.337188841223762"><ele>248.66666666666666</ele><time>2026-05-02T11:24:54.001Z</time></trkpt><trkpt lat="40.25940719666342" lon="9.33722753684384"><ele>250.33333333333331</ele><time>2026-05-02T11:24:55.001Z</time></trkpt><trkpt lat="40.259238198075394" lon="9.337291857273497"><ele>252.0</ele><time>2026-05-02T11:24:56.001Z</time></trkpt><trkpt lat="40.25906688890227" lon="9.337365350538555"><ele>254.5</ele><time>2026-05-02T11:24:57.001Z</time></trkpt><trkpt lat="40.258705202549706" lon="9.337502535453638"><ele>257.0</ele><time>2026-05-02T11:24:59.001Z</time></trkpt><trkpt lat="40.25853212736829" lon="9.337554023307385"><ele>257.0</ele><time>2026-05-02T11:25:00.001Z</time></trkpt><trkpt lat="40.25835465449694" lon="9.337588570631313"><ele>257.0</ele><time>2026-05-02T11:25:01.001Z</time></trkpt><trkpt lat="40.25817187703739" lon="9.337594354679881"><ele>257.0</ele><time>2026-05-02T11:25:02.001Z</time></trkpt><trkpt lat="40.25798350586826" lon="9.337577541794033"><ele>255.33333333333334</ele><time>2026-05-02T11:25:03.002Z</time></trkpt><trkpt lat="40.2577941723031" lon="9.337548934801806"><ele>253.66666666666669</ele><time>2026-05-02T11:25:04.002Z</time></trkpt><trkpt lat="40.25760436731878" lon="9.337509834599318"><ele>252.0</ele><time>2026-05-02T11:25:05.002Z</time></trkpt><trkpt lat="40.25741421356357" lon="9.33746342062882"><ele>250.66666666666669</ele><time>2026-05-02T11:25:06.002Z</time></trkpt><trkpt lat="40.257225592517685" lon="9.337416593743054"><ele>249.33333333333334</ele><time>2026-05-02T11:25:07.002Z</time></trkpt><trkpt lat="40.25703671452302" lon="9.337368226123125"><ele>248.0</ele><time>2026-05-02T11:25:08.002Z</time></trkpt><trkpt lat="40.25684667071068" lon="9.337322041556577"><ele>248.0</ele><time>2026-05-02T11:25:09.002Z</time></trkpt><trkpt lat="40.25665421164798" lon="9.337275128397168"><ele>248.0</ele><time>2026-05-02T11:25:10.002Z</time></trkpt><trkpt lat="40.25646043703957" lon="9.337226649392539"><ele>248.0</ele><time>2026-05-02T11:25:11.002Z</time></trkpt><trkpt lat="40.25626722349063" lon="9.33717926625526"><ele>249.0</ele><time>2026-05-02T11:25:12.002Z</time></trkpt><trkpt lat="40.25607528732587" lon="9.337131988250476"><ele>250.0</ele><time>2026-05-02T11:25:13.002Z</time></trkpt><trkpt lat="40.25588461718315" lon="9.337084504053449"><ele>251.0</ele><time>2026-05-02T11:25:14.002Z</time></trkpt><trkpt lat="40.255696194264466" lon="9.337036032671472"><ele>251.66666666666669</ele><time>2026-05-02T11:25:15.002Z</time></trkpt><trkpt lat="40.255508786628106" lon="9.336985724496442"><ele>252.33333333333331</ele><time>2026-05-02T11:25:16.002Z</time></trkpt><trkpt lat="40.255319003070646" lon="9.336938235415403"><ele>253.0</ele><time>2026-05-02T11:25:17.002Z</time></trkpt><trkpt lat="40.25513515798825" lon="9.336893247938677"><ele>253.0</ele><time>2026-05-02T11:25:18.002Z</time></trkpt><trkpt lat="40.254789170074766" lon="9.336815259955557"><ele>253.0</ele><time>2026-05-02T11:25:20.002Z</time></trkpt><trkpt lat="40.254634162692945" lon="9.33677863599637"><ele>254.0</ele><time>2026-05-02T11:25:21.002Z</time></trkpt><trkpt lat="40.25448310752428" lon="9.336739826312263"><ele>255.0</ele><time>2026-05-02T11:25:22.002Z</time></trkpt><trkpt lat="40.25432354234474" lon="9.336698063809337"><ele>256.0</ele><time>2026-05-02T11:25:23.002Z</time></trkpt><trkpt lat="40.254160027619115" lon="9.336658127310981"><ele>256.0</ele><time>2026-05-02T11:25:24.002Z</time></trkpt><trkpt lat="40.253984327288045" lon="9.33662035973326"><ele>256.0</ele><time>2026-05-02T11:25:25.002Z</time></trkpt><trkpt lat="40.25380127488933" lon="9.336585475060016"><ele>256.0</ele><time>2026-05-02T11:25:26.002Z</time></trkpt><trkpt lat="40.25360525076605" lon="9.336547012275725"><ele>256.0</ele><time>2026-05-02T11:25:27.002Z</time></trkpt><trkpt lat="40.25340147314821" lon="9.336511827342196"><ele>256.0</ele><time>2026-05-02T11:25:28.002Z</time></trkpt><trkpt lat="40.25318863853689" lon="9.336469381945799"><ele>256.0</ele><time>2026-05-02T11:25:29.002Z</time></trkpt><trkpt lat="40.25297068792408" lon="9.336421023528208"><ele>261.0</ele><time>2026-05-02T11:25:30.002Z</time></trkpt><trkpt lat="40.252747831055395" lon="9.336375006650192"><ele>266.0</ele><time>2026-05-02T11:25:31.002Z</time></trkpt><trkpt lat="40.25252124192624" lon="9.33632935207554"><ele>266.0</ele><time>2026-05-02T11:25:32.002Z</time></trkpt><trkpt lat="40.25229524780751" lon="9.336278703483991"><ele>266.0</ele><time>2026-05-02T11:25:33.002Z</time></trkpt><trkpt lat="40.25206770067974" lon="9.336224420175904"><ele>262.5</ele><time>2026-05-02T11:25:34.002Z</time></trkpt><trkpt lat="40.251837978307115" lon="9.336167214633877"><ele>259.0</ele><time>2026-05-02T11:25:35.002Z</time></trkpt><trkpt lat="40.2516090728536" lon="9.33610774994833"><ele>259.0</ele><time>2026-05-02T11:25:36.002Z</time></trkpt><trkpt lat="40.251385925258624" lon="9.336048182679102"><ele>259.0</ele><time>2026-05-02T11:25:37.002Z</time></trkpt><trkpt lat="40.25116672021038" lon="9.335989544638979"><ele>259.0</ele><time>2026-05-02T11:25:38.002Z</time></trkpt><trkpt lat="40.25095026695213" lon="9.335932757837686"><ele>259.0</ele><time>2026-05-02T11:25:39.002Z</time></trkpt><trkpt lat="40.25052685051339" lon="9.33581565422273"><ele>259.66666666666663</ele><time>2026-05-02T11:25:41.003Z</time></trkpt><trkpt lat="40.25031932159039" lon="9.335756005401132"><ele>260.3333333333333</ele><time>2026-05-02T11:25:42.003Z</time></trkpt><trkpt lat="40.25011317147042" lon="9.335698759769155"><ele>261.0</ele><time>2026-05-02T11:25:43.003Z</time></trkpt><trkpt lat="40.24990715694718" lon="9.335644490180195"><ele>261.0</ele><time>2026-05-02T11:25:44.003Z</time></trkpt><trkpt lat="40.24970192415571" lon="9.335593708379802"><ele>261.0</ele><time>2026-05-02T11:25:45.003Z</time></trkpt><trkpt lat="40.24949839301416" lon="9.33553890913576"><ele>261.0</ele><time>2026-05-02T11:25:46.003Z</time></trkpt><trkpt lat="40.249294804852035" lon="9.335483451682371"><ele>262.3333333333333</ele><time>2026-05-02T11:25:47.003Z</time></trkpt><trkpt lat="40.249091305684665" lon="9.335427858710077"><ele>263.66666666666663</ele><time>2026-05-02T11:25:48.003Z</time></trkpt><trkpt lat="40.24888917867569" lon="9.335371403012232"><ele>265.0</ele><time>2026-05-02T11:25:49.003Z</time></trkpt><trkpt lat="40.24868634502113" lon="9.335316623541079"><ele>265.0</ele><time>2026-05-02T11:25:50.003Z</time></trkpt><trkpt lat="40.248483906177164" lon="9.335259317599785"><ele>265.0</ele><time>2026-05-02T11:25:51.003Z</time></trkpt><trkpt lat="40.248280847848726" lon="9.33520374265755"><ele>265.0</ele><time>2026-05-02T11:25:52.003Z</time></trkpt><trkpt lat="40.24807693457639" lon="9.335148778978192"><ele>265.3333333333333</ele><time>2026-05-02T11:25:53.003Z</time></trkpt><trkpt lat="40.24786700058469" lon="9.33509079079769"><ele>265.6666666666667</ele><time>2026-05-02T11:25:54.003Z</time></trkpt><trkpt lat="40.247654203175735" lon="9.335035727389647"><ele>266.0</ele><time>2026-05-02T11:25:55.003Z</time></trkpt><trkpt lat="40.24744116713339" lon="9.334974036939602"><ele>266.33333333333337</ele><time>2026-05-02T11:25:56.003Z</time></trkpt><trkpt lat="40.24723065987935" lon="9.334912285209137"><ele>266.6666666666667</ele><time>2026-05-02T11:25:57.003Z</time></trkpt><trkpt lat="40.24702800390926" lon="9.334855071623041"><ele>267.0</ele><time>2026-05-02T11:25:58.003Z</time></trkpt><trkpt lat="40.24682627987555" lon="9.334799393319457"><ele>267.0</ele><time>2026-05-02T11:25:59.003Z</time></trkpt><trkpt lat="40.24662662824706" lon="9.334743276259312"><ele>267.0</ele><time>2026-05-02T11:26:00.003Z</time></trkpt><trkpt lat="40.24623344647012" lon="9.334629545232305"><ele>271.0</ele><time>2026-05-02T11:26:02.003Z</time></trkpt><trkpt lat="40.246040038436796" lon="9.334573704984512"><ele>275.0</ele><time>2026-05-02T11:26:03.003Z</time></trkpt><trkpt lat="40.24585028762958" lon="9.334517035759546"><ele>279.0</ele><time>2026-05-02T11:26:04.003Z</time></trkpt><trkpt lat="40.245663624939326" lon="9.334462887612576"><ele>281.6666666666667</ele><time>2026-05-02T11:26:05.003Z</time></trkpt><trkpt lat="40.245477965389256" lon="9.33441162653186"><ele>284.33333333333337</ele><time>2026-05-02T11:26:06.003Z</time></trkpt><trkpt lat="40.24529734157029" lon="9.33436526789032"><ele>287.0</ele><time>2026-05-02T11:26:07.003Z</time></trkpt><trkpt lat="40.24513136506787" lon="9.33432589531119"><ele>287.0</ele><time>2026-05-02T11:26:08.002Z</time></trkpt><trkpt lat="40.24497922269456" lon="9.334294650198121"><ele>287.0</ele><time>2026-05-02T11:26:09.002Z</time></trkpt><trkpt lat="40.24482482132709" lon="9.334282207015917"><ele>287.0</ele><time>2026-05-02T11:26:10.002Z</time></trkpt><trkpt lat="40.244670264573664" lon="9.334306288704479"><ele>288.6666666666667</ele><time>2026-05-02T11:26:11.002Z</time></trkpt><trkpt lat="40.24450778730952" lon="9.3343609244357"><ele>290.3333333333333</ele><time>2026-05-02T11:26:12.002Z</time></trkpt><trkpt lat="40.244341618662105" lon="9.334418568001162"><ele>292.0</ele><time>2026-05-02T11:26:13.002Z</time></trkpt><trkpt lat="40.24417614403208" lon="9.334477693466663"><ele>292.0</ele><time>2026-05-02T11:26:14.001Z</time></trkpt><trkpt lat="40.24401773976109" lon="9.334522787086962"><ele>292.0</ele><time>2026-05-02T11:26:15.001Z</time></trkpt><trkpt lat="40.243862594893514" lon="9.33456068113003"><ele>292.0</ele><time>2026-05-02T11:26:16.001Z</time></trkpt><trkpt lat="40.24371710180898" lon="9.33459330157698"><ele>294.0</ele><time>2026-05-02T11:26:17.001Z</time></trkpt><trkpt lat="40.24356478462591" lon="9.334607522329357"><ele>296.0</ele><time>2026-05-02T11:26:18.001Z</time></trkpt><trkpt lat="40.24340741185011" lon="9.334620262070409"><ele>298.0</ele><time>2026-05-02T11:26:19.001Z</time></trkpt><trkpt lat="40.243263676227265" lon="9.334641587628603"><ele>299.5</ele><time>2026-05-02T11:26:20.001Z</time></trkpt><trkpt lat="40.24308578955125" lon="9.334638184536079"><ele>301.0</ele><time>2026-05-02T11:26:21.001Z</time></trkpt><trkpt lat="40.242770838830324" lon="9.334668035458384"><ele>301.0</ele><time>2026-05-02T11:26:23.001Z</time></trkpt><trkpt lat="40.24261678132181" lon="9.33467463639477"><ele>301.0</ele><time>2026-05-02T11:26:24.001Z</time></trkpt><trkpt lat="40.2424754177892" lon="9.334673779981664"><ele>301.0</ele><time>2026-05-02T11:26:25.001Z</time></trkpt><trkpt lat="40.242345255669875" lon="9.334661213674897"><ele>301.0</ele><time>2026-05-02T11:26:26.001Z</time></trkpt><trkpt lat="40.242207841680155" lon="9.334617796525944"><ele>297.66666666666663</ele><time>2026-05-02T11:26:27.001Z</time></trkpt><trkpt lat="40.24207470365117" lon="9.334532029169296"><ele>294.3333333333333</ele><time>2026-05-02T11:26:28.001Z</time></trkpt><trkpt lat="40.24194788415207" lon="9.33440684131481"><ele>291.0</ele><time>2026-05-02T11:26:29.001Z</time></trkpt><trkpt lat="40.24183648303414" lon="9.33427496350322"><ele>291.0</ele><time>2026-05-02T11:26:30.001Z</time></trkpt><trkpt lat="40.241755176589535" lon="9.334119213975546"><ele>291.0</ele><time>2026-05-02T11:26:31.001Z</time></trkpt><trkpt lat="40.241692806507615" lon="9.333927012785736"><ele>291.0</ele><time>2026-05-02T11:26:32.001Z</time></trkpt><trkpt lat="40.24162020822362" lon="9.333721171285765"><ele>290.3333333333333</ele><time>2026-05-02T11:26:33.001Z</time></trkpt><trkpt lat="40.24152513256334" lon="9.33352086806502"><ele>289.66666666666663</ele><time>2026-05-02T11:26:34.001Z</time></trkpt><trkpt lat="40.24140786358586" lon="9.333338540418096"><ele>289.0</ele><time>2026-05-02T11:26:35.001Z</time></trkpt><trkpt lat="40.241263208658694" lon="9.333152493008239"><ele>290.3333333333333</ele><time>2026-05-02T11:26:36.001Z</time></trkpt><trkpt lat="40.24111822821075" lon="9.332987795398406"><ele>291.6666666666667</ele><time>2026-05-02T11:26:37.001Z</time></trkpt><trkpt lat="40.24098365448558" lon="9.332845624957399"><ele>293.0</ele><time>2026-05-02T11:26:38.001Z</time></trkpt><trkpt lat="40.24087017044578" lon="9.332717606645799"><ele>293.0</ele><time>2026-05-02T11:26:39.001Z</time></trkpt><trkpt lat="40.24075887235142" lon="9.332607619718964"><ele>293.0</ele><time>2026-05-02T11:26:40.001Z</time></trkpt><trkpt lat="40.24063939380439" lon="9.332529415319806"><ele>293.0</ele><time>2026-05-02T11:26:41.001Z</time></trkpt><trkpt lat="40.24051400516758" lon="9.332482302348778"><ele>293.0</ele><time>2026-05-02T11:26:42.001Z</time></trkpt><trkpt lat="40.24019903909717" lon="9.332466626722434"><ele>292.33333333333337</ele><time>2026-05-02T11:26:44.001Z</time></trkpt><trkpt lat="40.24002036909509" lon="9.332465347166288"><ele>291.6666666666667</ele><time>2026-05-02T11:26:45.001Z</time></trkpt><trkpt lat="40.23983754281829" lon="9.332460888541597"><ele>291.0</ele><time>2026-05-02T11:26:46.001Z</time></trkpt><trkpt lat="40.23965657113163" lon="9.332451445919185"><ele>289.6666666666667</ele><time>2026-05-02T11:26:47.001Z</time></trkpt><trkpt lat="40.23946405172867" lon="9.332434843053054"><ele>288.33333333333337</ele><time>2026-05-02T11:26:48.001Z</time></trkpt><trkpt lat="40.23926400317163" lon="9.332413147884239"><ele>287.0</ele><time>2026-05-02T11:26:49.001Z</time></trkpt><trkpt lat="40.2390527521696" lon="9.332394842104012"><ele>286.33333333333337</ele><time>2026-05-02T11:26:50.001Z</time></trkpt><trkpt lat="40.238840008392394" lon="9.332380131829256"><ele>285.6666666666667</ele><time>2026-05-02T11:26:51.001Z</time></trkpt><trkpt lat="40.238637131754906" lon="9.33236273756214"><ele>285.0</ele><time>2026-05-02T11:26:52.001Z</time></trkpt><trkpt lat="40.23843009184644" lon="9.332345059295998"><ele>285.0</ele><time>2026-05-02T11:26:53.001Z</time></trkpt><trkpt lat="40.23822086493273" lon="9.332331791801774"><ele>285.0</ele><time>2026-05-02T11:26:54.001Z</time></trkpt><trkpt lat="40.23800497354167" lon="9.332315211470975"><ele>285.0</ele><time>2026-05-02T11:26:55.001Z</time></trkpt><trkpt lat="40.237782069948075" lon="9.33229917433909"><ele>285.3333333333333</ele><time>2026-05-02T11:26:56.001Z</time></trkpt><trkpt lat="40.237566143892074" lon="9.33228310190443"><ele>285.66666666666663</ele><time>2026-05-02T11:26:57.001Z</time></trkpt><trkpt lat="40.23734869963705" lon="9.332269389483036"><ele>286.0</ele><time>2026-05-02T11:26:58.001Z</time></trkpt><trkpt lat="40.23712924382748" lon="9.332250207642662"><ele>286.0</ele><time>2026-05-02T11:26:59.002Z</time></trkpt><trkpt lat="40.236916244705796" lon="9.332230454505682"><ele>286.0</ele><time>2026-05-02T11:27:00.002Z</time></trkpt><trkpt lat="40.236697460031195" lon="9.332209944664841"><ele>286.0</ele><time>2026-05-02T11:27:01.002Z</time></trkpt><trkpt lat="40.23648585441396" lon="9.332190999260954"><ele>289.5</ele><time>2026-05-02T11:27:02.002Z</time></trkpt><trkpt lat="40.236280863549894" lon="9.332175555988634"><ele>293.0</ele><time>2026-05-02T11:27:03.002Z</time></trkpt><trkpt lat="40.23587600175496" lon="9.332145916281407"><ele>293.0</ele><time>2026-05-02T11:27:05.002Z</time></trkpt><trkpt lat="40.23568100533073" lon="9.332127970853188"><ele>293.0</ele><time>2026-05-02T11:27:06.002Z</time></trkpt><trkpt lat="40.23549395785996" lon="9.332108012812371"><ele>293.0</ele><time>2026-05-02T11:27:07.002Z</time></trkpt><trkpt lat="40.23531275489423" lon="9.33209341241816"><ele>295.0</ele><time>2026-05-02T11:27:08.002Z</time></trkpt><trkpt lat="40.23513952611918" lon="9.332081246251045"><ele>297.0</ele><time>2026-05-02T11:27:09.002Z</time></trkpt><trkpt lat="40.23496402865446" lon="9.332066774963254"><ele>299.0</ele><time>2026-05-02T11:27:10.002Z</time></trkpt><trkpt lat="40.23479637870432" lon="9.332048854110012"><ele>301.75</ele><time>2026-05-02T11:27:11.002Z</time></trkpt><trkpt lat="40.23464355388661" lon="9.332023518301348"><ele>304.5</ele><time>2026-05-02T11:27:12.002Z</time></trkpt><trkpt lat="40.234504173835155" lon="9.332012558568781"><ele>307.25</ele><time>2026-05-02T11:27:13.002Z</time></trkpt><trkpt lat="40.234380730130084" lon="9.332011922217163"><ele>310.0</ele><time>2026-05-02T11:27:14.002Z</time></trkpt><trkpt lat="40.23427568945154" lon="9.332043756426533"><ele>310.0</ele><time>2026-05-02T11:27:15.002Z</time></trkpt><trkpt lat="40.23419520880928" lon="9.332108455180979"><ele>310.0</ele><time>2026-05-02T11:27:16.002Z</time></trkpt><trkpt lat="40.23412925325979" lon="9.332207248421984"><ele>310.0</ele><time>2026-05-02T11:27:17.002Z</time></trkpt><trkpt lat="40.23409457738195" lon="9.332340391437555"><ele>310.0</ele><time>2026-05-02T11:27:18.002Z</time></trkpt><trkpt lat="40.23408907644443" lon="9.332502913084689"><ele>310.0</ele><time>2026-05-02T11:27:19.002Z</time></trkpt><trkpt lat="40.23409253307467" lon="9.332676020989888"><ele>308.3333333333333</ele><time>2026-05-02T11:27:20.002Z</time></trkpt><trkpt lat="40.23409634007895" lon="9.332867815133682"><ele>306.6666666666667</ele><time>2026-05-02T11:27:21.002Z</time></trkpt><trkpt lat="40.23409025281907" lon="9.333070742333486"><ele>305.0</ele><time>2026-05-02T11:27:22.002Z</time></trkpt><trkpt lat="40.234089925006764" lon="9.333280296851996"><ele>305.0</ele><time>2026-05-02T11:27:23.002Z</time></trkpt><trkpt lat="40.23409088819662" lon="9.33349304602768"><ele>305.0</ele><time>2026-05-02T11:27:24.002Z</time></trkpt><trkpt lat="40.23408981252347" lon="9.333892464380346"><ele>306.25</ele><time>2026-05-02T11:27:26.002Z</time></trkpt><trkpt lat="40.234083420128485" lon="9.33407262527029"><ele>307.5</ele><time>2026-05-02T11:27:27.002Z</time></trkpt><trkpt lat="40.23406126136848" lon="9.334254587745953"><ele>308.75</ele><time>2026-05-02T11:27:28.002Z</time></trkpt><trkpt lat="40.234010993891815" lon="9.334436543166484"><ele>310.0</ele><time>2026-05-02T11:27:29.002Z</time></trkpt><trkpt lat="40.23393904781011" lon="9.334614156267756"><ele>312.0</ele><time>2026-05-02T11:27:30.002Z</time></trkpt><trkpt lat="40.23384587221905" lon="9.334797420573832"><ele>314.0</ele><time>2026-05-02T11:27:31.002Z</time></trkpt><trkpt lat="40.23374960613871" lon="9.334986470814632"><ele>316.0</ele><time>2026-05-02T11:27:32.002Z</time></trkpt><trkpt lat="40.233667839882926" lon="9.335163169312962"><ele>316.0</ele><time>2026-05-02T11:27:33.002Z</time></trkpt><trkpt lat="40.23358956461448" lon="9.335326585794965"><ele>316.0</ele><time>2026-05-02T11:27:34.002Z</time></trkpt><trkpt lat="40.23350943540715" lon="9.335473624814368"><ele>316.0</ele><time>2026-05-02T11:27:35.002Z</time></trkpt><trkpt lat="40.23341943133974" lon="9.335588105006941"><ele>316.0</ele><time>2026-05-02T11:27:36.002Z</time></trkpt><trkpt lat="40.233312052983564" lon="9.335657671273864"><ele>315.25</ele><time>2026-05-02T11:27:37.002Z</time></trkpt><trkpt lat="40.23318964237302" lon="9.335695460837428"><ele>314.5</ele><time>2026-05-02T11:27:38.002Z</time></trkpt><trkpt lat="40.233048800112556" lon="9.33570229990663"><ele>313.75</ele><time>2026-05-02T11:27:39.002Z</time></trkpt><trkpt lat="40.23289609947314" lon="9.33571106310025"><ele>313.0</ele><time>2026-05-02T11:27:40.002Z</time></trkpt><trkpt lat="40.2327527820002" lon="9.335716231533311"><ele>313.0</ele><time>2026-05-02T11:27:41.002Z</time></trkpt><trkpt lat="40.23262016571612" lon="9.335730842141023"><ele>313.0</ele><time>2026-05-02T11:27:42.002Z</time></trkpt><trkpt lat="40.2325006341382" lon="9.335760597590975"><ele>313.0</ele><time>2026-05-02T11:27:43.002Z</time></trkpt><trkpt lat="40.23239754084877" lon="9.335822523026525"><ele>313.0</ele><time>2026-05-02T11:27:44.003Z</time></trkpt><trkpt lat="40.232312726066034" lon="9.335931353833999"><ele>312.3333333333333</ele><time>2026-05-02T11:27:45.003Z</time></trkpt><trkpt lat="40.23217378642987" lon="9.3362393659165"><ele>311.6666666666667</ele><time>2026-05-02T11:27:47.003Z</time></trkpt><trkpt lat="40.232098663046884" lon="9.336390500178922"><ele>311.0</ele><time>2026-05-02T11:27:48.003Z</time></trkpt><trkpt lat="40.23200849371933" lon="9.336512038398908"><ele>311.0</ele><time>2026-05-02T11:27:49.003Z</time></trkpt><trkpt lat="40.2318987795055" lon="9.336598869816184"><ele>311.0</ele><time>2026-05-02T11:27:50.003Z</time></trkpt><trkpt lat="40.23176874020189" lon="9.336653926534098"><ele>311.0</ele><time>2026-05-02T11:27:51.003Z</time></trkpt><trkpt lat="40.23162263128201" lon="9.336679213961249"><ele>311.0</ele><time>2026-05-02T11:27:52.003Z</time></trkpt><trkpt lat="40.23146348103919" lon="9.336693216914533"><ele>312.6666666666667</ele><time>2026-05-02T11:27:53.003Z</time></trkpt><trkpt lat="40.23129526900728" lon="9.336705259453723"><ele>314.3333333333333</ele><time>2026-05-02T11:27:54.003Z</time></trkpt><trkpt lat="40.23111680103486" lon="9.33672192076206"><ele>316.0</ele><time>2026-05-02T11:27:55.003Z</time></trkpt><trkpt lat="40.23093740168866" lon="9.336753660913018"><ele>316.0</ele><time>2026-05-02T11:27:56.003Z</time></trkpt><trkpt lat="40.230741560554" lon="9.336755207197214"><ele>316.0</ele><time>2026-05-02T11:27:57.003Z</time></trkpt><trkpt lat="40.2305440297383" lon="9.336739143600322"><ele>316.0</ele><time>2026-05-02T11:27:58.003Z</time></trkpt><trkpt lat="40.23034334694887" lon="9.336693152202846"><ele>315.3333333333333</ele><time>2026-05-02T11:27:59.003Z</time></trkpt><trkpt lat="40.23014892339851" lon="9.33663716636377"><ele>314.6666666666667</ele><time>2026-05-02T11:28:00.003Z</time></trkpt><trkpt lat="40.22995587605381" lon="9.336577433449142"><ele>314.0</ele><time>2026-05-02T11:28:01.003Z</time></trkpt><trkpt lat="40.2297620570026" lon="9.336512341421907"><ele>315.6666666666667</ele><time>2026-05-02T11:28:02.003Z</time></trkpt><trkpt lat="40.22957641011635" lon="9.336452579343892"><ele>317.3333333333333</ele><time>2026-05-02T11:28:03.003Z</time></trkpt><trkpt lat="40.2293992058524" lon="9.336399877784684"><ele>319.0</ele><time>2026-05-02T11:28:04.003Z</time></trkpt><trkpt lat="40.22922831565229" lon="9.33634509281921"><ele>319.66666666666663</ele><time>2026-05-02T11:28:05.003Z</time></trkpt><trkpt lat="40.22906704635008" lon="9.336290493855614"><ele>320.3333333333333</ele><time>2026-05-02T11:28:06.003Z</time></trkpt><trkpt lat="40.22880041525598" lon="9.336226295791999"><ele>321.0</ele><time>2026-05-02T11:28:08.003Z</time></trkpt><trkpt lat="40.228683832502504" lon="9.336235106575973"><ele>322.5</ele><time>2026-05-02T11:28:09.003Z</time></trkpt><trkpt lat="40.228587705600724" lon="9.336279483806562"><ele>324.0</ele><time>2026-05-02T11:28:10.003Z</time></trkpt><trkpt lat="40.228486678185966" lon="9.336361395919702"><ele>325.5</ele><time>2026-05-02T11:28:11.003Z</time></trkpt><trkpt lat="40.22840339452489" lon="9.336465502633777"><ele>327.0</ele><time>2026-05-02T11:28:12.003Z</time></trkpt><trkpt lat="40.228356939608396" lon="9.336603239551748"><ele>327.0</ele><time>2026-05-02T11:28:13.003Z</time></trkpt><trkpt lat="40.22833134042348" lon="9.336766479325052"><ele>327.0</ele><time>2026-05-02T11:28:14.002Z</time></trkpt><trkpt lat="40.22834841193018" lon="9.336937733909245"><ele>327.0</ele><time>2026-05-02T11:28:15.002Z</time></trkpt><trkpt lat="40.228408593241156" lon="9.337112157276154"><ele>327.0</ele><time>2026-05-02T11:28:16.002Z</time></trkpt><trkpt lat="40.22849196796941" lon="9.337285669162888"><ele>329.0</ele><time>2026-05-02T11:28:17.002Z</time></trkpt><trkpt lat="40.22857089815944" lon="9.337474523279035"><ele>331.0</ele><time>2026-05-02T11:28:18.002Z</time></trkpt><trkpt lat="40.22866724057216" lon="9.337685792435108"><ele>333.0</ele><time>2026-05-02T11:28:19.002Z</time></trkpt><trkpt lat="40.228770315445196" lon="9.337917031864748"><ele>334.3333333333333</ele><time>2026-05-02T11:28:20.002Z</time></trkpt><trkpt lat="40.22887697011378" lon="9.338163486679253"><ele>335.66666666666663</ele><time>2026-05-02T11:28:21.002Z</time></trkpt><trkpt lat="40.22897497473414" lon="9.338386911185268"><ele>337.0</ele><time>2026-05-02T11:28:22.002Z</time></trkpt><trkpt lat="40.229063666031614" lon="9.338586004734793"><ele>336.0</ele><time>2026-05-02T11:28:23.002Z</time></trkpt><trkpt lat="40.229145947777894" lon="9.33877093604843"><ele>335.0</ele><time>2026-05-02T11:28:24.002Z</time></trkpt><trkpt lat="40.229210484983035" lon="9.338929551625716"><ele>334.0</ele><time>2026-05-02T11:28:25.002Z</time></trkpt><trkpt lat="40.22924647718273" lon="9.3390715191813"><ele>333.0</ele><time>2026-05-02T11:28:26.002Z</time></trkpt><trkpt lat="40.2292391952807" lon="9.339205707696864"><ele>333.0</ele><time>2026-05-02T11:28:27.001Z</time></trkpt><trkpt lat="40.22911501546899" lon="9.33935138761301"><ele>333.0</ele><time>2026-05-02T11:28:29.001Z</time></trkpt><trkpt lat="40.229015773578745" lon="9.339385816635021"><ele>333.0</ele><time>2026-05-02T11:28:30.001Z</time></trkpt><trkpt lat="40.228895920990205" lon="9.339406326806717"><ele>333.0</ele><time>2026-05-02T11:28:31.001Z</time></trkpt><trkpt lat="40.22874813456466" lon="9.339426973882508"><ele>336.6666666666667</ele><time>2026-05-02T11:28:32.001Z</time></trkpt><trkpt lat="40.22858558117384" lon="9.339450757601563"><ele>340.33333333333337</ele><time>2026-05-02T11:28:33.001Z</time></trkpt><trkpt lat="40.22840213201211" lon="9.33948716931004"><ele>344.0</ele><time>2026-05-02T11:28:34.001Z</time></trkpt><trkpt lat="40.22820644286412" lon="9.339523959603483"><ele>347.33333333333337</ele><time>2026-05-02T11:28:35.001Z</time></trkpt><trkpt lat="40.22801158953237" lon="9.339556598812873"><ele>350.6666666666667</ele><time>2026-05-02T11:28:36.001Z</time></trkpt><trkpt lat="40.22783711517056" lon="9.339587073363685"><ele>354.0</ele><time>2026-05-02T11:28:37.001Z</time></trkpt><trkpt lat="40.22767566180768" lon="9.339628602613983"><ele>354.0</ele><time>2026-05-02T11:28:38.001Z</time></trkpt><trkpt lat="40.22753165662644" lon="9.339691215079696"><ele>354.0</ele><time>2026-05-02T11:28:39.001Z</time></trkpt><trkpt lat="40.227410646583564" lon="9.339775619404657"><ele>354.0</ele><time>2026-05-02T11:28:40.001Z</time></trkpt><trkpt lat="40.227300343471924" lon="9.33990813821507"><ele>354.0</ele><time>2026-05-02T11:28:41.001Z</time></trkpt><trkpt lat="40.227174414018215" lon="9.340073450199878"><ele>355.3333333333333</ele><time>2026-05-02T11:28:42.001Z</time></trkpt><trkpt lat="40.227039868149596" lon="9.340197951445198"><ele>356.66666666666663</ele><time>2026-05-02T11:28:43.001Z</time></trkpt><trkpt lat="40.22688341421666" lon="9.340280552033155"><ele>358.0</ele><time>2026-05-02T11:28:44.001Z</time></trkpt><trkpt lat="40.226731148472275" lon="9.340365546184506"><ele>358.0</ele><time>2026-05-02T11:28:45.001Z</time></trkpt><trkpt lat="40.22660548364603" lon="9.340396344930909"><ele>358.0</ele><time>2026-05-02T11:28:46.001Z</time></trkpt><trkpt lat="40.226506722467796" lon="9.340486598983354"><ele>358.0</ele><time>2026-05-02T11:28:47.001Z</time></trkpt><trkpt lat="40.22643568544188" lon="9.340616353161883"><ele>358.0</ele><time>2026-05-02T11:28:48.001Z</time></trkpt><trkpt lat="40.226324668772136" lon="9.340985296262385"><ele>357.66666666666663</ele><time>2026-05-02T11:28:50.001Z</time></trkpt><trkpt lat="40.226246016864465" lon="9.341150393791624"><ele>357.3333333333333</ele><time>2026-05-02T11:28:51.001Z</time></trkpt><trkpt lat="40.22613583274085" lon="9.341285159519384"><ele>357.0</ele><time>2026-05-02T11:28:52.001Z</time></trkpt><trkpt lat="40.2259991308515" lon="9.341394283667803"><ele>357.0</ele><time>2026-05-02T11:28:53.001Z</time></trkpt><trkpt lat="40.22583855218369" lon="9.341502793301192"><ele>357.0</ele><time>2026-05-02T11:28:54.001Z</time></trkpt><trkpt lat="40.22567222661287" lon="9.341602675863294"><ele>357.0</ele><time>2026-05-02T11:28:55.001Z</time></trkpt><trkpt lat="40.22553599171314" lon="9.341689170526253"><ele>357.0</ele><time>2026-05-02T11:28:56.001Z</time></trkpt><trkpt lat="40.22541893733984" lon="9.341770889456113"><ele>357.0</ele><time>2026-05-02T11:28:57.001Z</time></trkpt><trkpt lat="40.225325288607294" lon="9.341879296521736"><ele>357.0</ele><time>2026-05-02T11:28:58.001Z</time></trkpt><trkpt lat="40.225258846705415" lon="9.342032727456452"><ele>357.0</ele><time>2026-05-02T11:28:59.001Z</time></trkpt><trkpt lat="40.22521487633273" lon="9.34223400189323"><ele>360.0</ele><time>2026-05-02T11:29:00.002Z</time></trkpt><trkpt lat="40.22517677213585" lon="9.342452435939652"><ele>363.0</ele><time>2026-05-02T11:29:01.002Z</time></trkpt><trkpt lat="40.22513798379621" lon="9.342686907315064"><ele>366.0</ele><time>2026-05-02T11:29:02.002Z</time></trkpt><trkpt lat="40.22509051697412" lon="9.342921365996396"><ele>367.5</ele><time>2026-05-02T11:29:03.002Z</time></trkpt><trkpt lat="40.225041303776905" lon="9.343131870660507"><ele>369.0</ele><time>2026-05-02T11:29:04.002Z</time></trkpt><trkpt lat="40.22500416916321" lon="9.343320109432087"><ele>370.5</ele><time>2026-05-02T11:29:05.002Z</time></trkpt><trkpt lat="40.22499352814251" lon="9.343482139490874"><ele>372.0</ele><time>2026-05-02T11:29:06.002Z</time></trkpt><trkpt lat="40.22500970620979" lon="9.343668531343093"><ele>372.0</ele><time>2026-05-02T11:29:07.002Z</time></trkpt><trkpt lat="40.22506944803969" lon="9.343813313211498"><ele>372.0</ele><time>2026-05-02T11:29:08.002Z</time></trkpt><trkpt lat="40.22513746876905" lon="9.343943173052569"><ele>372.0</ele><time>2026-05-02T11:29:09.002Z</time></trkpt><trkpt lat="40.225251596951" lon="9.344168466423518"><ele>373.3333333333333</ele><time>2026-05-02T11:29:11.002Z</time></trkpt><trkpt lat="40.22525193584205" lon="9.344268260025373"><ele>374.6666666666667</ele><time>2026-05-02T11:29:12.002Z</time></trkpt><trkpt lat="40.225219838925696" lon="9.34434427622957"><ele>376.0</ele><time>2026-05-02T11:29:13.002Z</time></trkpt><trkpt lat="40.225153087525435" lon="9.344387895813872"><ele>377.33333333333337</ele><time>2026-05-02T11:29:14.002Z</time></trkpt><trkpt lat="40.225069878409236" lon="9.344373000176944"><ele>378.6666666666667</ele><time>2026-05-02T11:29:15.002Z</time></trkpt><trkpt lat="40.22497743824079" lon="9.34432492713882"><ele>380.0</ele><time>2026-05-02T11:29:16.002Z</time></trkpt><trkpt lat="40.22487065918209" lon="9.34424767069239"><ele>383.33333333333337</ele><time>2026-05-02T11:29:17.002Z</time></trkpt><trkpt lat="40.22475418341884" lon="9.34415331655077"><ele>386.6666666666667</ele><time>2026-05-02T11:29:18.002Z</time></trkpt><trkpt lat="40.224620550428604" lon="9.344055982848802"><ele>390.0</ele><time>2026-05-02T11:29:19.002Z</time></trkpt><trkpt lat="40.22447062734871" lon="9.343952844055778"><ele>386.6666666666667</ele><time>2026-05-02T11:29:20.002Z</time></trkpt><trkpt lat="40.224309811569185" lon="9.343844995908361"><ele>383.33333333333337</ele><time>2026-05-02T11:29:21.002Z</time></trkpt><trkpt lat="40.22416333606729" lon="9.343749161612617"><ele>380.0</ele><time>2026-05-02T11:29:22.002Z</time></trkpt><trkpt lat="40.22404163889018" lon="9.343662847087204"><ele>380.5</ele><time>2026-05-02T11:29:23.002Z</time></trkpt><trkpt lat="40.223926158346984" lon="9.343618420411275"><ele>381.0</ele><time>2026-05-02T11:29:24.002Z</time></trkpt><trkpt lat="40.22381792003793" lon="9.343630441340538"><ele>381.5</ele><time>2026-05-02T11:29:25.002Z</time></trkpt><trkpt lat="40.22371627424149" lon="9.343706819363241"><ele>382.0</ele><time>2026-05-02T11:29:26.002Z</time></trkpt><trkpt lat="40.22362390614468" lon="9.34382199847705"><ele>384.5</ele><time>2026-05-02T11:29:27.002Z</time></trkpt><trkpt lat="40.22352026865675" lon="9.343954200344186"><ele>387.0</ele><time>2026-05-02T11:29:28.002Z</time></trkpt><trkpt lat="40.22339572669981" lon="9.344051921005482"><ele>389.5</ele><time>2026-05-02T11:29:29.002Z</time></trkpt><trkpt lat="40.223265214714" lon="9.344112553637583"><ele>392.0</ele><time>2026-05-02T11:29:30.002Z</time></trkpt><trkpt lat="40.222978611368845" lon="9.344102150350901"><ele>394.25</ele><time>2026-05-02T11:29:32.002Z</time></trkpt><trkpt lat="40.222833826259105" lon="9.344048547959783"><ele>396.5</ele><time>2026-05-02T11:29:33.002Z</time></trkpt><trkpt lat="40.222711351034576" lon="9.343967677126308"><ele>398.75</ele><time>2026-05-02T11:29:34.002Z</time></trkpt><trkpt lat="40.22260475185453" lon="9.343843249486026"><ele>401.0</ele><time>2026-05-02T11:29:35.002Z</time></trkpt><trkpt lat="40.22250218833701" lon="9.343676562334405"><ele>401.0</ele><time>2026-05-02T11:29:36.002Z</time></trkpt><trkpt lat="40.222415432950136" lon="9.343483571640002"><ele>401.0</ele><time>2026-05-02T11:29:37.002Z</time></trkpt><trkpt lat="40.22232578053948" lon="9.343276355518366"><ele>401.0</ele><time>2026-05-02T11:29:38.002Z</time></trkpt><trkpt lat="40.22222208646448" lon="9.34307278248609"><ele>405.3333333333333</ele><time>2026-05-02T11:29:39.002Z</time></trkpt><trkpt lat="40.22209699309168" lon="9.34288370729773"><ele>409.66666666666663</ele><time>2026-05-02T11:29:40.002Z</time></trkpt><trkpt lat="40.22194791153011" lon="9.34269471931862"><ele>414.0</ele><time>2026-05-02T11:29:41.002Z</time></trkpt><trkpt lat="40.22178919555834" lon="9.342505762582244"><ele>414.0</ele><time>2026-05-02T11:29:42.002Z</time></trkpt><trkpt lat="40.221632414880375" lon="9.342301205675104"><ele>414.0</ele><time>2026-05-02T11:29:43.002Z</time></trkpt><trkpt lat="40.22149246572345" lon="9.342099806870287"><ele>414.0</ele><time>2026-05-02T11:29:44.002Z</time></trkpt><trkpt lat="40.22134106896524" lon="9.34191280443048"><ele>418.0</ele><time>2026-05-02T11:29:45.002Z</time></trkpt><trkpt lat="40.22117147114075" lon="9.341751346730442"><ele>422.0</ele><time>2026-05-02T11:29:46.002Z</time></trkpt><trkpt lat="40.22098266271922" lon="9.341600049727454"><ele>426.0</ele><time>2026-05-02T11:29:47.002Z</time></trkpt><trkpt lat="40.22081082711863" lon="9.34146334355799"><ele>423.33333333333337</ele><time>2026-05-02T11:29:48.002Z</time></trkpt><trkpt lat="40.220668464897216" lon="9.341339787781273"><ele>420.6666666666667</ele><time>2026-05-02T11:29:49.002Z</time></trkpt><trkpt lat="40.2205371960926" lon="9.341236904872083"><ele>418.0</ele><time>2026-05-02T11:29:50.002Z</time></trkpt><trkpt lat="40.22042362200734" lon="9.341150330794374"><ele>418.0</ele><time>2026-05-02T11:29:51.002Z</time></trkpt><trkpt lat="40.22023169454068" lon="9.341065048395972"><ele>418.0</ele><time>2026-05-02T11:29:53.002Z</time></trkpt><trkpt lat="40.22016854890092" lon="9.341099791621973"><ele>418.0</ele><time>2026-05-02T11:29:54.002Z</time></trkpt><trkpt lat="40.22013807952432" lon="9.341185778055864"><ele>418.0</ele><time>2026-05-02T11:29:55.002Z</time></trkpt><trkpt lat="40.220153240730866" lon="9.341295798033904"><ele>418.0</ele><time>2026-05-02T11:29:56.003Z</time></trkpt><trkpt lat="40.22021108709109" lon="9.341380197385575"><ele>423.5</ele><time>2026-05-02T11:29:57.003Z</time></trkpt><trkpt lat="40.22030354367884" lon="9.341457814218302"><ele>429.0</ele><time>2026-05-02T11:29:58.003Z</time></trkpt><trkpt lat="40.22040693731512" lon="9.341529753111276"><ele>434.5</ele><time>2026-05-02T11:29:59.003Z</time></trkpt><trkpt lat="40.22048473291156" lon="9.34161244292665"><ele>440.0</ele><time>2026-05-02T11:30:00.003Z</time></trkpt><trkpt lat="40.22061444748889" lon="9.341722891616108"><ele>435.3333333333333</ele><time>2026-05-02T11:30:01.003Z</time></trkpt><trkpt lat="40.22075465841165" lon="9.341835662292764"><ele>430.66666666666663</ele><time>2026-05-02T11:30:02.003Z</time></trkpt><trkpt lat="40.22088189289316" lon="9.341940592696378"><ele>426.0</ele><time>2026-05-02T11:30:03.003Z</time></trkpt><trkpt lat="40.22098717399459" lon="9.34205251881171"><ele>426.0</ele><time>2026-05-02T11:30:04.003Z</time></trkpt><trkpt lat="40.22104938338844" lon="9.34218283541482"><ele>426.0</ele><time>2026-05-02T11:30:05.003Z</time></trkpt><trkpt lat="40.221094949915816" lon="9.342335619298916"><ele>426.0</ele><time>2026-05-02T11:30:06.003Z</time></trkpt><trkpt lat="40.22112685114096" lon="9.342514904048205"><ele>426.0</ele><time>2026-05-02T11:30:07.003Z</time></trkpt><trkpt lat="40.221175309681406" lon="9.342690346710393"><ele>431.5</ele><time>2026-05-02T11:30:08.003Z</time></trkpt><trkpt lat="40.22120749343451" lon="9.34288335478181"><ele>437.0</ele><time>2026-05-02T11:30:09.003Z</time></trkpt><trkpt lat="40.22124499052288" lon="9.343075416897339"><ele>442.5</ele><time>2026-05-02T11:30:10.003Z</time></trkpt><trkpt lat="40.22127628155504" lon="9.343254116307751"><ele>448.0</ele><time>2026-05-02T11:30:11.003Z</time></trkpt><trkpt lat="40.221290413212216" lon="9.343422007196533"><ele>448.0</ele><time>2026-05-02T11:30:12.003Z</time></trkpt><trkpt lat="40.22123487162726" lon="9.343676596938932"><ele>448.0</ele><time>2026-05-02T11:30:14.003Z</time></trkpt><trkpt lat="40.22115635538721" lon="9.343789326486398"><ele>448.0</ele><time>2026-05-02T11:30:15.003Z</time></trkpt><trkpt lat="40.22105646472396" lon="9.343908583980758"><ele>448.0</ele><time>2026-05-02T11:30:16.003Z</time></trkpt><trkpt lat="40.22095933414693" lon="9.344038815668076"><ele>448.0</ele><time>2026-05-02T11:30:17.003Z</time></trkpt><trkpt lat="40.220878737218904" lon="9.344180631792874"><ele>448.0</ele><time>2026-05-02T11:30:18.003Z</time></trkpt><trkpt lat="40.22079457068123" lon="9.344339401957557"><ele>448.0</ele><time>2026-05-02T11:30:19.003Z</time></trkpt><trkpt lat="40.22069491602645" lon="9.344482954942986"><ele>452.6666666666667</ele><time>2026-05-02T11:30:20.002Z</time></trkpt><trkpt lat="40.220583214536305" lon="9.344616723696516"><ele>457.33333333333337</ele><time>2026-05-02T11:30:21.002Z</time></trkpt><trkpt lat="40.220462431486474" lon="9.344753088498466"><ele>462.0</ele><time>2026-05-02T11:30:22.002Z</time></trkpt><trkpt lat="40.22032984603727" lon="9.344899837719568"><ele>462.0</ele><time>2026-05-02T11:30:23.002Z</time></trkpt><trkpt lat="40.22020558877838" lon="9.34503876688224"><ele>462.0</ele><time>2026-05-02T11:30:24.002Z</time></trkpt><trkpt lat="40.22008110891425" lon="9.345178612326713"><ele>462.0</ele><time>2026-05-02T11:30:25.002Z</time></trkpt><trkpt lat="40.21996103188279" lon="9.34531804806806"><ele>462.0</ele><time>2026-05-02T11:30:26.002Z</time></trkpt><trkpt lat="40.21984546711161" lon="9.345463480415908"><ele>462.0</ele><time>2026-05-02T11:30:27.002Z</time></trkpt><trkpt lat="40.219744182098516" lon="9.345625910435407"><ele>462.0</ele><time>2026-05-02T11:30:28.002Z</time></trkpt><trkpt lat="40.219660744596894" lon="9.345814455865199"><ele>464.0</ele><time>2026-05-02T11:30:29.002Z</time></trkpt><trkpt lat="40.21958581678371" lon="9.346011253374789"><ele>466.0</ele><time>2026-05-02T11:30:30.001Z</time></trkpt><trkpt lat="40.219510658897455" lon="9.346205801767105"><ele>468.0</ele><time>2026-05-02T11:30:31.001Z</time></trkpt><trkpt lat="40.2194364595949" lon="9.346392455259311"><ele>468.0</ele><time>2026-05-02T11:30:32.001Z</time></trkpt><trkpt lat="40.21936958282301" lon="9.346566268671696"><ele>468.0</ele><time>2026-05-02T11:30:33.001Z</time></trkpt><trkpt lat="40.21924932922384" lon="9.346876781319759"><ele>468.0</ele><time>2026-05-02T11:30:35.001Z</time></trkpt><trkpt lat="40.219177958813965" lon="9.347003408778217"><ele>468.0</ele><time>2026-05-02T11:30:36.001Z</time></trkpt><trkpt lat="40.21909025450095" lon="9.347117695322458"><ele>468.0</ele><time>2026-05-02T11:30:37.001Z</time></trkpt><trkpt lat="40.219000557178866" lon="9.347225282342936"><ele>468.0</ele><time>2026-05-02T11:30:38.001Z</time></trkpt><trkpt lat="40.21890715197336" lon="9.347330546269633"><ele>468.0</ele><time>2026-05-02T11:30:39.001Z</time></trkpt><trkpt lat="40.21880761484221" lon="9.347429695305893"><ele>471.5</ele><time>2026-05-02T11:30:40.001Z</time></trkpt><trkpt lat="40.21870337692801" lon="9.347525776157424"><ele>475.0</ele><time>2026-05-02T11:30:41.001Z</time></trkpt><trkpt lat="40.21859628373422" lon="9.3476191225675"><ele>478.5</ele><time>2026-05-02T11:30:42.001Z</time></trkpt><trkpt lat="40.21848681199106" lon="9.347711971618741"><ele>482.0</ele><time>2026-05-02T11:30:43.001Z</time></trkpt><trkpt lat="40.2183672928981" lon="9.347806003386319"><ele>482.0</ele><time>2026-05-02T11:30:44.001Z</time></trkpt><trkpt lat="40.2182358256713" lon="9.34789340517549"><ele>482.0</ele><time>2026-05-02T11:30:45.001Z</time></trkpt><trkpt lat="40.21809347736397" lon="9.347969104148126"><ele>482.0</ele><time>2026-05-02T11:30:46.001Z</time></trkpt><trkpt lat="40.21794515822257" lon="9.348034514730848"><ele>478.66666666666663</ele><time>2026-05-02T11:30:47.001Z</time></trkpt><trkpt lat="40.217797366692544" lon="9.34810154814583"><ele>475.33333333333337</ele><time>2026-05-02T11:30:48.001Z</time></trkpt><trkpt lat="40.21764969479769" lon="9.34817087331671"><ele>472.0</ele><time>2026-05-02T11:30:49.001Z</time></trkpt><trkpt lat="40.2174953887195" lon="9.348237087291787"><ele>472.0</ele><time>2026-05-02T11:30:50.001Z</time></trkpt><trkpt lat="40.21734469526342" lon="9.348291845374481"><ele>472.0</ele><time>2026-05-02T11:30:51.001Z</time></trkpt><trkpt lat="40.21718605011309" lon="9.34833962234471"><ele>472.0</ele><time>2026-05-02T11:30:52.001Z</time></trkpt><trkpt lat="40.217026729368015" lon="9.34838630953183"><ele>484.5</ele><time>2026-05-02T11:30:53.001Z</time></trkpt><trkpt lat="40.21687299050349" lon="9.348447982398469"><ele>497.0</ele><time>2026-05-02T11:30:54.001Z</time></trkpt><trkpt lat="40.21660106230563" lon="9.34864811198628"><ele>497.0</ele><time>2026-05-02T11:30:56.001Z</time></trkpt><trkpt lat="40.216489380271604" lon="9.348771539421634"><ele>497.0</ele><time>2026-05-02T11:30:57.001Z</time></trkpt><trkpt lat="40.216390889143184" lon="9.348901234467302"><ele>497.0</ele><time>2026-05-02T11:30:58.001Z</time></trkpt><trkpt lat="40.21630648291426" lon="9.349032304738722"><ele>497.0</ele><time>2026-05-02T11:30:59.001Z</time></trkpt><trkpt lat="40.21623294526263" lon="9.349164772440037"><ele>499.5</ele><time>2026-05-02T11:31:00.001Z</time></trkpt><trkpt lat="40.21619219956705" lon="9.349302587921128"><ele>502.0</ele><time>2026-05-02T11:31:01.001Z</time></trkpt><trkpt lat="40.21617356068789" lon="9.349468445407192"><ele>504.5</ele><time>2026-05-02T11:31:02.001Z</time></trkpt><trkpt lat="40.21620317892659" lon="9.349651114758014"><ele>507.0</ele><time>2026-05-02T11:31:03.001Z</time></trkpt><trkpt lat="40.21625718812044" lon="9.349846641343715"><ele>507.66666666666663</ele><time>2026-05-02T11:31:04.001Z</time></trkpt><trkpt lat="40.21628364754878" lon="9.350046562671286"><ele>508.3333333333333</ele><time>2026-05-02T11:31:05.001Z</time></trkpt><trkpt lat="40.216309999683915" lon="9.350254514718808"><ele>509.0</ele><time>2026-05-02T11:31:06.001Z</time></trkpt><trkpt lat="40.21632617540713" lon="9.350464461427038"><ele>510.0</ele><time>2026-05-02T11:31:07.001Z</time></trkpt><trkpt lat="40.21632070404935" lon="9.350672086860893"><ele>511.0</ele><time>2026-05-02T11:31:08.001Z</time></trkpt><trkpt lat="40.21629294391954" lon="9.350878024994945"><ele>512.0</ele><time>2026-05-02T11:31:09.001Z</time></trkpt><trkpt lat="40.21624347472019" lon="9.35108362295263"><ele>512.0</ele><time>2026-05-02T11:31:10.001Z</time></trkpt><trkpt lat="40.2161738511534" lon="9.351291700370266"><ele>512.0</ele><time>2026-05-02T11:31:11.001Z</time></trkpt><trkpt lat="40.21608922477104" lon="9.351498969487164"><ele>512.0</ele><time>2026-05-02T11:31:12.001Z</time></trkpt><trkpt lat="40.21600275919858" lon="9.351697822070506"><ele>513.6666666666666</ele><time>2026-05-02T11:31:13.001Z</time></trkpt><trkpt lat="40.2159145782434" lon="9.35190519954196"><ele>515.3333333333334</ele><time>2026-05-02T11:31:14.001Z</time></trkpt><trkpt lat="40.21581947719535" lon="9.35212153989015"><ele>517.0</ele><time>2026-05-02T11:31:15.001Z</time></trkpt><trkpt lat="40.21562122249004" lon="9.352564510048945"><ele>517.0</ele><time>2026-05-02T11:31:17.001Z</time></trkpt><trkpt lat="40.2155250964883" lon="9.352786427764459"><ele>517.0</ele><time>2026-05-02T11:31:18.001Z</time></trkpt><trkpt lat="40.215430137577556" lon="9.353007044315175"><ele>517.0</ele><time>2026-05-02T11:31:19.001Z</time></trkpt><trkpt lat="40.21533498542268" lon="9.35322538790687"><ele>516.3333333333334</ele><time>2026-05-02T11:31:20.001Z</time></trkpt><trkpt lat="40.21524353821792" lon="9.353439038777339"><ele>515.6666666666666</ele><time>2026-05-02T11:31:21.001Z</time></trkpt><trkpt lat="40.21515175067247" lon="9.353649191022145"><ele>515.0</ele><time>2026-05-02T11:31:22.001Z</time></trkpt><trkpt lat="40.21506203356208" lon="9.353849046346895"><ele>515.0</ele><time>2026-05-02T11:31:23.001Z</time></trkpt><trkpt lat="40.214976717542164" lon="9.354032287713778"><ele>515.0</ele><time>2026-05-02T11:31:24.002Z</time></trkpt><trkpt lat="40.214885930079724" lon="9.354194478519792"><ele>515.0</ele><time>2026-05-02T11:31:25.002Z</time></trkpt><trkpt lat="40.214785617895636" lon="9.354339244153232"><ele>515.0</ele><time>2026-05-02T11:31:26.002Z</time></trkpt><trkpt lat="40.214673688251835" lon="9.354467324164348"><ele>515.0</ele><time>2026-05-02T11:31:27.002Z</time></trkpt><trkpt lat="40.21455725823463" lon="9.354585431288855"><ele>515.0</ele><time>2026-05-02T11:31:28.002Z</time></trkpt><trkpt lat="40.2144447198532" lon="9.35468891621237"><ele>515.0</ele><time>2026-05-02T11:31:29.002Z</time></trkpt><trkpt lat="40.2143239430495" lon="9.354790476934989"><ele>515.0</ele><time>2026-05-02T11:31:30.002Z</time></trkpt><trkpt lat="40.21419438953931" lon="9.354885587308306"><ele>515.0</ele><time>2026-05-02T11:31:31.002Z</time></trkpt><trkpt lat="40.214049553465415" lon="9.354970766188298"><ele>515.0</ele><time>2026-05-02T11:31:32.002Z</time></trkpt><trkpt lat="40.21390062731108" lon="9.355061867902197"><ele>522.3333333333333</ele><time>2026-05-02T11:31:33.002Z</time></trkpt><trkpt lat="40.213757202596064" lon="9.355150829458536"><ele>529.6666666666666</ele><time>2026-05-02T11:31:34.002Z</time></trkpt><trkpt lat="40.21360931232142" lon="9.355226988073364"><ele>537.0</ele><time>2026-05-02T11:31:35.002Z</time></trkpt><trkpt lat="40.213454809922446" lon="9.355282729429874"><ele>539.5</ele><time>2026-05-02T11:31:36.002Z</time></trkpt><trkpt lat="40.21315575516403" lon="9.355326540832865"><ele>542.0</ele><time>2026-05-02T11:31:38.002Z</time></trkpt><trkpt lat="40.21300247054145" lon="9.355304486028095"><ele>542.0</ele><time>2026-05-02T11:31:39.002Z</time></trkpt><trkpt lat="40.212862141166276" lon="9.355278631600637"><ele>542.0</ele><time>2026-05-02T11:31:40.002Z</time></trkpt><trkpt lat="40.212730410790456" lon="9.355278937129544"><ele>542.0</ele><time>2026-05-02T11:31:41.002Z</time></trkpt><trkpt lat="40.21260885200532" lon="9.35532236077105"><ele>542.0</ele><time>2026-05-02T11:31:42.002Z</time></trkpt><trkpt lat="40.2124994129193" lon="9.355411318701087"><ele>542.5</ele><time>2026-05-02T11:31:43.002Z</time></trkpt><trkpt lat="40.212413403647034" lon="9.355542548987042"><ele>543.0</ele><time>2026-05-02T11:31:44.002Z</time></trkpt><trkpt lat="40.21234415274352" lon="9.355703283696725"><ele>543.5</ele><time>2026-05-02T11:31:45.002Z</time></trkpt><trkpt lat="40.21227689257029" lon="9.355884051465498"><ele>544.0</ele><time>2026-05-02T11:31:46.002Z</time></trkpt><trkpt lat="40.21220641132412" lon="9.356063377835213"><ele>544.0</ele><time>2026-05-02T11:31:47.002Z</time></trkpt><trkpt lat="40.212137103455056" lon="9.356216226630266"><ele>544.0</ele><time>2026-05-02T11:31:48.002Z</time></trkpt><trkpt lat="40.21206719305439" lon="9.356352571699126"><ele>544.0</ele><time>2026-05-02T11:31:49.002Z</time></trkpt><trkpt lat="40.21200001995393" lon="9.3564716579841"><ele>544.0</ele><time>2026-05-02T11:31:50.002Z</time></trkpt><trkpt lat="40.21192747521507" lon="9.356555226339307"><ele>544.0</ele><time>2026-05-02T11:31:51.002Z</time></trkpt><trkpt lat="40.21184489940562" lon="9.35658863230298"><ele>544.0</ele><time>2026-05-02T11:31:52.002Z</time></trkpt><trkpt lat="40.211777760738656" lon="9.35655740883395"><ele>544.0</ele><time>2026-05-02T11:31:53.002Z</time></trkpt><trkpt lat="40.21172904985917" lon="9.356489803240633"><ele>544.0</ele><time>2026-05-02T11:31:54.002Z</time></trkpt><trkpt lat="40.211719165154754" lon="9.356399567585267"><ele>544.0</ele><time>2026-05-02T11:31:55.002Z</time></trkpt><trkpt lat="40.2117333302371" lon="9.356293319047019"><ele>544.0</ele><time>2026-05-02T11:31:56.002Z</time></trkpt><trkpt lat="40.21175176995913" lon="9.356172738077213"><ele>544.0</ele><time>2026-05-02T11:31:57.002Z</time></trkpt><trkpt lat="40.211795365163304" lon="9.355894148055201"><ele>544.0</ele><time>2026-05-02T11:31:59.002Z</time></trkpt><trkpt lat="40.21181486881037" lon="9.355750565552665"><ele>544.0</ele><time>2026-05-02T11:32:00.002Z</time></trkpt><trkpt lat="40.21183573793764" lon="9.355597800134785"><ele>544.0</ele><time>2026-05-02T11:32:01.002Z</time></trkpt><trkpt lat="40.211857258913135" lon="9.355437896604034"><ele>546.25</ele><time>2026-05-02T11:32:02.002Z</time></trkpt><trkpt lat="40.21187822111484" lon="9.355274514399266"><ele>548.5</ele><time>2026-05-02T11:32:03.002Z</time></trkpt><trkpt lat="40.211898298586746" lon="9.355119076926298"><ele>550.75</ele><time>2026-05-02T11:32:04.002Z</time></trkpt><trkpt lat="40.211919730856884" lon="9.354973439852921"><ele>553.0</ele><time>2026-05-02T11:32:05.002Z</time></trkpt><trkpt lat="40.21195060629024" lon="9.354841422722417"><ele>553.0</ele><time>2026-05-02T11:32:06.002Z</time></trkpt><trkpt lat="40.21199892990492" lon="9.3547385845022"><ele>553.0</ele><time>2026-05-02T11:32:07.002Z</time></trkpt><trkpt lat="40.212061515192445" lon="9.354659879730113"><ele>553.0</ele><time>2026-05-02T11:32:08.002Z</time></trkpt><trkpt lat="40.212135144010084" lon="9.354588128601085"><ele>553.0</ele><time>2026-05-02T11:32:09.002Z</time></trkpt><trkpt lat="40.212218989257025" lon="9.35452380053552"><ele>553.0</ele><time>2026-05-02T11:32:10.002Z</time></trkpt><trkpt lat="40.21230653046333" lon="9.354461607643488"><ele>554.8</ele><time>2026-05-02T11:32:11.002Z</time></trkpt><trkpt lat="40.21240263982286" lon="9.354411702484867"><ele>556.5999999999999</ele><time>2026-05-02T11:32:12.002Z</time></trkpt><trkpt lat="40.212510441937894" lon="9.35438256020917"><ele>558.4000000000001</ele><time>2026-05-02T11:32:13.002Z</time></trkpt><trkpt lat="40.21262491997617" lon="9.354374779833257"><ele>560.2</ele><time>2026-05-02T11:32:14.002Z</time></trkpt><trkpt lat="40.212735654982026" lon="9.354382649763895"><ele>562.0</ele><time>2026-05-02T11:32:15.002Z</time></trkpt><trkpt lat="40.21283502397909" lon="9.35437678607897"><ele>562.0</ele><time>2026-05-02T11:32:16.002Z</time></trkpt><trkpt lat="40.2129261589634" lon="9.354339225361434"><ele>562.0</ele><time>2026-05-02T11:32:17.002Z</time></trkpt><trkpt lat="40.21299697558603" lon="9.354249568766509"><ele>562.0</ele><time>2026-05-02T11:32:18.002Z</time></trkpt><trkpt lat="40.21301276832945" lon="9.354021967599174"><ele>562.0</ele><time>2026-05-02T11:32:20.002Z</time></trkpt><trkpt lat="40.212956471956915" lon="9.35393449526556"><ele>562.0</ele><time>2026-05-02T11:32:21.002Z</time></trkpt><trkpt lat="40.212888011565454" lon="9.353877895488331"><ele>562.0</ele><time>2026-05-02T11:32:22.002Z</time></trkpt><trkpt lat="40.212822958827715" lon="9.353838039841161"><ele>562.0</ele><time>2026-05-02T11:32:23.002Z</time></trkpt><trkpt lat="40.21274336137016" lon="9.353810188109433"><ele>562.0</ele><time>2026-05-02T11:32:24.002Z</time></trkpt><trkpt lat="40.21265392264987" lon="9.353785661211173"><ele>562.0</ele><time>2026-05-02T11:32:25.002Z</time></trkpt><trkpt lat="40.212557297557154" lon="9.3537536370547"><ele>562.0</ele><time>2026-05-02T11:32:26.002Z</time></trkpt><trkpt lat="40.2124565976581" lon="9.353714011374535"><ele>564.0</ele><time>2026-05-02T11:32:27.002Z</time></trkpt><trkpt lat="40.21235106942914" lon="9.353671983034197"><ele>566.0</ele><time>2026-05-02T11:32:28.002Z</time></trkpt><trkpt lat="40.21223802149077" lon="9.353634831831458"><ele>568.0</ele><time>2026-05-02T11:32:29.002Z</time></trkpt><trkpt lat="40.21211949911661" lon="9.35359513372664"><ele>570.0</ele><time>2026-05-02T11:32:30.001Z</time></trkpt><trkpt lat="40.2120095599522" lon="9.353557753064472"><ele>570.5</ele><time>2026-05-02T11:32:31.001Z</time></trkpt><trkpt lat="40.21189407859469" lon="9.35352041477877"><ele>571.0</ele><time>2026-05-02T11:32:32.001Z</time></trkpt><trkpt lat="40.211777179929676" lon="9.353481210757193"><ele>571.5</ele><time>2026-05-02T11:32:33.001Z</time></trkpt><trkpt lat="40.211657367965124" lon="9.353434063720034"><ele>572.0</ele><time>2026-05-02T11:32:34.001Z</time></trkpt><trkpt lat="40.21153565244886" lon="9.353386272697367"><ele>572.5</ele><time>2026-05-02T11:32:35.001Z</time></trkpt><trkpt lat="40.211409337921936" lon="9.353340451443994"><ele>573.0</ele><time>2026-05-02T11:32:36.001Z</time></trkpt><trkpt lat="40.21128345240663" lon="9.353296247169546"><ele>573.5</ele><time>2026-05-02T11:32:37.001Z</time></trkpt><trkpt lat="40.21115867831947" lon="9.35325050933205"><ele>574.0</ele><time>2026-05-02T11:32:38.001Z</time></trkpt><trkpt lat="40.21103312200735" lon="9.353206560593508"><ele>574.0</ele><time>2026-05-02T11:32:39.001Z</time></trkpt><trkpt lat="40.21078604576225" lon="9.353124332703452"><ele>574.0</ele><time>2026-05-02T11:32:41.001Z</time></trkpt><trkpt lat="40.21066398894631" lon="9.353081437855337"><ele>574.0</ele><time>2026-05-02T11:32:42.001Z</time></trkpt><trkpt lat="40.21054185913446" lon="9.353036346606906"><ele>578.25</ele><time>2026-05-02T11:32:43.001Z</time></trkpt><trkpt lat="40.21042210859299" lon="9.35298801357123"><ele>582.5</ele><time>2026-05-02T11:32:44.001Z</time></trkpt><trkpt lat="40.21030357396104" lon="9.352933739201193"><ele>586.75</ele><time>2026-05-02T11:32:45.001Z</time></trkpt><trkpt lat="40.21019135709612" lon="9.352865947032965"><ele>591.0</ele><time>2026-05-02T11:32:46.001Z</time></trkpt><trkpt lat="40.21009001817579" lon="9.35278421044878"><ele>591.0</ele><time>2026-05-02T11:32:47.001Z</time></trkpt><trkpt lat="40.21000098614995" lon="9.352692088150178"><ele>591.0</ele><time>2026-05-02T11:32:48.001Z</time></trkpt><trkpt lat="40.209916642071185" lon="9.352601480182251"><ele>591.0</ele><time>2026-05-02T11:32:49.001Z</time></trkpt><trkpt lat="40.2098291925317" lon="9.352523840624846"><ele>591.0</ele><time>2026-05-02T11:32:50.001Z</time></trkpt><trkpt lat="40.209732949683314" lon="9.352474017049314"><ele>591.0</ele><time>2026-05-02T11:32:51.001Z</time></trkpt><trkpt lat="40.20962885208299" lon="9.35244828254946"><ele>590.25</ele><time>2026-05-02T11:32:52.001Z</time></trkpt><trkpt lat="40.209516343096816" lon="9.352437347811085"><ele>589.5</ele><time>2026-05-02T11:32:53.001Z</time></trkpt><trkpt lat="40.20940239268299" lon="9.352420718283831"><ele>588.75</ele><time>2026-05-02T11:32:54.001Z</time></trkpt><trkpt lat="40.209289129753756" lon="9.352402022028253"><ele>588.0</ele><time>2026-05-02T11:32:55.001Z</time></trkpt><trkpt lat="40.20917856052405" lon="9.352378876258914"><ele>588.0</ele><time>2026-05-02T11:32:56.001Z</time></trkpt><trkpt lat="40.20907011813999" lon="9.35234730527143"><ele>588.0</ele><time>2026-05-02T11:32:57.001Z</time></trkpt><trkpt lat="40.20896476673368" lon="9.352300112043533"><ele>588.0</ele><time>2026-05-02T11:32:58.001Z</time></trkpt><trkpt lat="40.20886672501163" lon="9.352240284518938"><ele>588.0</ele><time>2026-05-02T11:32:59.001Z</time></trkpt><trkpt lat="40.208770377738595" lon="9.35217377539454"><ele>588.0</ele><time>2026-05-02T11:33:00.001Z</time></trkpt><trkpt lat="40.20858755528546" lon="9.352059805856333"><ele>589.6666666666666</ele><time>2026-05-02T11:33:02.001Z</time></trkpt><trkpt lat="40.20851036087635" lon="9.352012525850972"><ele>591.3333333333334</ele><time>2026-05-02T11:33:03.001Z</time></trkpt><trkpt lat="40.20844173739836" lon="9.351978052325276"><ele>593.0</ele><time>2026-05-02T11:33:04.001Z</time></trkpt><trkpt lat="40.20837111367398" lon="9.351975833136605"><ele>594.6666666666667</ele><time>2026-05-02T11:33:05.001Z</time></trkpt><trkpt lat="40.208305675716176" lon="9.351988889001056"><ele>596.3333333333334</ele><time>2026-05-02T11:33:06.001Z</time></trkpt><trkpt lat="40.208199990520185" lon="9.351998250288316"><ele>598.0</ele><time>2026-05-02T11:33:08.001Z</time></trkpt><trkpt lat="40.208088780659466" lon="9.351946493032226"><ele>598.0</ele><time>2026-05-02T11:33:10.001Z</time></trkpt><trkpt lat="40.20802773655961" lon="9.351911354099839"><ele>598.0</ele><time>2026-05-02T11:33:11.001Z</time></trkpt><trkpt lat="40.20796090995044" lon="9.35188815248732"><ele>598.0</ele><time>2026-05-02T11:33:12.001Z</time></trkpt><trkpt lat="40.20789388890351" lon="9.351882970459362"><ele>598.0</ele><time>2026-05-02T11:33:13.001Z</time></trkpt><trkpt lat="40.20782163593277" lon="9.35188974833121"><ele>598.0</ele><time>2026-05-02T11:33:14.001Z</time></trkpt><trkpt lat="40.20774775955746" lon="9.351907226324952"><ele>598.0</ele><time>2026-05-02T11:33:15.001Z</time></trkpt><trkpt lat="40.20767564224509" lon="9.351935185957531"><ele>598.0</ele><time>2026-05-02T11:33:16.001Z</time></trkpt><trkpt lat="40.20760768167949" lon="9.351963901904185"><ele>598.0</ele><time>2026-05-02T11:33:17.001Z</time></trkpt><trkpt lat="40.207543255198" lon="9.351991991584198"><ele>598.0</ele><time>2026-05-02T11:33:18.001Z</time></trkpt><trkpt lat="40.207482867035345" lon="9.352017710251413"><ele>598.0</ele><time>2026-05-02T11:33:19.001Z</time></trkpt><trkpt lat="40.20736865855186" lon="9.35206844567001"><ele>598.0</ele><time>2026-05-02T11:33:21.001Z</time></trkpt><trkpt lat="40.20718999382187" lon="9.352160268498842"><ele>598.0</ele><time>2026-05-02T11:33:25.001Z</time></trkpt><trkpt lat="40.20712578428136" lon="9.352178280647069"><ele>597.3333333333334</ele><time>2026-05-02T11:33:26.001Z</time></trkpt><trkpt lat="40.20704730033763" lon="9.35220416088766"><ele>596.6666666666667</ele><time>2026-05-02T11:33:27.001Z</time></trkpt><trkpt lat="40.20697184928338" lon="9.352232208682224"><ele>596.0</ele><time>2026-05-02T11:33:28.001Z</time></trkpt><trkpt lat="40.20689613397038" lon="9.352262096516188"><ele>595.3333333333334</ele><time>2026-05-02T11:33:29.001Z</time></trkpt><trkpt lat="40.20681612748643" lon="9.352295033221116"><ele>594.6666666666666</ele><time>2026-05-02T11:33:30.001Z</time></trkpt><trkpt lat="40.20673059828694" lon="9.352330841632051"><ele>594.0</ele><time>2026-05-02T11:33:31.001Z</time></trkpt><trkpt lat="40.206641313295435" lon="9.352369144958125"><ele>594.0</ele><time>2026-05-02T11:33:32.001Z</time></trkpt><trkpt lat="40.2065504979631" lon="9.352406323753389"><ele>594.0</ele><time>2026-05-02T11:33:33.001Z</time></trkpt><trkpt lat="40.20645687596382" lon="9.352441136020857"><ele>594.0</ele><time>2026-05-02T11:33:34.001Z</time></trkpt><trkpt lat="40.20636419701833" lon="9.35247662449948"><ele>594.0</ele><time>2026-05-02T11:33:35.001Z</time></trkpt><trkpt lat="40.206271780377165" lon="9.352508652991395"><ele>594.0</ele><time>2026-05-02T11:33:36.001Z</time></trkpt><trkpt lat="40.2061839011359" lon="9.352543055829342"><ele>595.5</ele><time>2026-05-02T11:33:37.001Z</time></trkpt><trkpt lat="40.20610417163919" lon="9.352573754929558"><ele>597.0</ele><time>2026-05-02T11:33:38.001Z</time></trkpt><trkpt lat="40.206026294016326" lon="9.352604259360112"><ele>598.5</ele><time>2026-05-02T11:33:39.001Z</time></trkpt><trkpt lat="40.20594756376274" lon="9.352638817915668"><ele>600.0</ele><time>2026-05-02T11:33:40.001Z</time></trkpt><trkpt lat="40.205874830431796" lon="9.352673718386507"><ele>601.5</ele><time>2026-05-02T11:33:41.001Z</time></trkpt><trkpt lat="40.20580137642526" lon="9.3527145784823"><ele>603.0</ele><time>2026-05-02T11:33:42.001Z</time></trkpt><trkpt lat="40.20565166317437" lon="9.352815973070156"><ele>604.1666666666666</ele><time>2026-05-02T11:33:44.001Z</time></trkpt><trkpt lat="40.205576847768604" lon="9.352872179765523"><ele>605.3333333333334</ele><time>2026-05-02T11:33:45.001Z</time></trkpt><trkpt lat="40.2055128818339" lon="9.352924582306088"><ele>606.5</ele><time>2026-05-02T11:33:46.001Z</time></trkpt><trkpt lat="40.205455706293584" lon="9.352970476155852"><ele>607.6666666666667</ele><time>2026-05-02T11:33:47.001Z</time></trkpt><trkpt lat="40.205355940321546" lon="9.353045371373863"><ele>608.8333333333334</ele><time>2026-05-02T11:33:49.001Z</time></trkpt><trkpt lat="40.20529376544379" lon="9.353094784266935"><ele>610.0</ele><time>2026-05-02T11:33:51.001Z</time></trkpt><trkpt lat="40.20524899152043" lon="9.353204474557064"><ele>610.0</ele><time>2026-05-02T11:34:01.002Z</time></trkpt><trkpt lat="40.20524828965867" lon="9.353290259934855"><ele>610.0</ele><time>2026-05-02T11:34:02.002Z</time></trkpt><trkpt lat="40.205279775894454" lon="9.353446515727649"><ele>610.0</ele><time>2026-05-02T11:34:04.002Z</time></trkpt><trkpt lat="40.205311410238195" lon="9.353632987149533"><ele>610.0</ele><time>2026-05-02T11:34:06.002Z</time></trkpt><trkpt lat="40.20532524665656" lon="9.35374577770986"><ele>610.0</ele><time>2026-05-02T11:34:07.002Z</time></trkpt><trkpt lat="40.205346067192444" lon="9.353854269349359"><ele>609.1666666666667</ele><time>2026-05-02T11:34:08.002Z</time></trkpt><trkpt lat="40.2053712047932" lon="9.353961427953816"><ele>608.3333333333334</ele><time>2026-05-02T11:34:09.002Z</time></trkpt><trkpt lat="40.205392960477965" lon="9.354077521487767"><ele>607.5</ele><time>2026-05-02T11:34:10.002Z</time></trkpt><trkpt lat="40.20540691932911" lon="9.354189024952639"><ele>606.6666666666666</ele><time>2026-05-02T11:34:11.002Z</time></trkpt><trkpt lat="40.20541394216068" lon="9.354298464160015"><ele>605.8333333333333</ele><time>2026-05-02T11:34:12.002Z</time></trkpt><trkpt lat="40.20540549242412" lon="9.354403663374455"><ele>605.0</ele><time>2026-05-02T11:34:13.002Z</time></trkpt><trkpt lat="40.2053903423416" lon="9.35450577151244"><ele>605.0</ele><time>2026-05-02T11:34:14.002Z</time></trkpt><trkpt lat="40.205366611942075" lon="9.354601289415275"><ele>605.0</ele><time>2026-05-02T11:34:15.002Z</time></trkpt><trkpt lat="40.20534081827383" lon="9.354696424162146"><ele>605.0</ele><time>2026-05-02T11:34:16.002Z</time></trkpt><trkpt lat="40.20531237867957" lon="9.354782992735615"><ele>605.0</ele><time>2026-05-02T11:34:17.002Z</time></trkpt><trkpt lat="40.20528510744037" lon="9.354865573397488"><ele>605.0</ele><time>2026-05-02T11:34:18.002Z</time></trkpt><trkpt lat="40.20526341754777" lon="9.354950455320829"><ele>605.0</ele><time>2026-05-02T11:34:19.002Z</time></trkpt><trkpt lat="40.20524465302011" lon="9.355033570867425"><ele>605.0</ele><time>2026-05-02T11:34:20.002Z</time></trkpt><trkpt lat="40.20520211575484" lon="9.355158635837842"><ele>604.0</ele><time>2026-05-02T11:34:22.002Z</time></trkpt><trkpt lat="40.20514886364031" lon="9.355216717381046"><ele>603.0</ele><time>2026-05-02T11:34:25.002Z</time></trkpt><trkpt lat="40.20510978380269" lon="9.35541520784248"><ele>602.0</ele><time>2026-05-02T11:34:32.001Z</time></trkpt><trkpt lat="40.20509286732013" lon="9.355495938700454"><ele>601.0</ele><time>2026-05-02T11:34:35.001Z</time></trkpt><trkpt lat="40.20514721969708" lon="9.355538024823733"><ele>600.0</ele><time>2026-05-02T11:34:43.001Z</time></trkpt><trkpt lat="40.20517864294239" lon="9.355428696994903"><ele>599.0</ele><time>2026-05-02T11:34:47.001Z</time></trkpt><trkpt lat="40.20523313225345" lon="9.355098018359257"><ele>599.0</ele><time>2026-05-02T11:34:51.001Z</time></trkpt><trkpt lat="40.205256275799385" lon="9.355001708256921"><ele>599.0</ele><time>2026-05-02T11:34:52.001Z</time></trkpt><trkpt lat="40.20528422775029" lon="9.354906666654434"><ele>599.0</ele><time>2026-05-02T11:34:53.001Z</time></trkpt><trkpt lat="40.20531174625554" lon="9.354817491385342"><ele>599.0</ele><time>2026-05-02T11:34:54.001Z</time></trkpt><trkpt lat="40.205342301010496" lon="9.35472323903478"><ele>599.0</ele><time>2026-05-02T11:34:55.001Z</time></trkpt><trkpt lat="40.205366459867186" lon="9.354645415176922"><ele>599.0</ele><time>2026-05-02T11:34:56.001Z</time></trkpt><trkpt lat="40.205357671964855" lon="9.354545063012385"><ele>599.0</ele><time>2026-05-02T11:34:58.001Z</time></trkpt><trkpt lat="40.20525834441111" lon="9.354515822643558"><ele>600.5</ele><time>2026-05-02T11:35:01.001Z</time></trkpt><trkpt lat="40.20513716862813" lon="9.35454088734215"><ele>602.0</ele><time>2026-05-02T11:35:03.001Z</time></trkpt><trkpt lat="40.205026041495564" lon="9.354548929979817"><ele>603.5</ele><time>2026-05-02T11:35:05.001Z</time></trkpt><trkpt lat="40.20491703730654" lon="9.354576847899121"><ele>605.0</ele><time>2026-05-02T11:35:07.001Z</time></trkpt><trkpt lat="40.204803838651756" lon="9.354710014759519"><ele>604.0</ele><time>2026-05-02T11:35:12.001Z</time></trkpt><trkpt lat="40.204839760746786" lon="9.354785233669146"><ele>603.0</ele><time>2026-05-02T11:35:14.001Z</time></trkpt><trkpt lat="40.20487673552749" lon="9.354863692228847"><ele>602.0</ele><time>2026-05-02T11:35:16.001Z</time></trkpt><trkpt lat="40.20492512319936" lon="9.354968744949362"><ele>601.0</ele><time>2026-05-02T11:35:18.001Z</time></trkpt><trkpt lat="40.204967989088104" lon="9.355037646850503"><ele>600.0</ele><time>2026-05-02T11:35:20.001Z</time></trkpt><trkpt lat="40.20503257947184" lon="9.355075891289337"><ele>599.0</ele><time>2026-05-02T11:35:23.001Z</time></trkpt><trkpt lat="40.205104669180834" lon="9.355155313695231"><ele>599.0</ele><time>2026-05-02T11:35:25.001Z</time></trkpt><trkpt lat="40.20514394880929" lon="9.355246810572105"><ele>599.0</ele><time>2026-05-02T11:35:28.001Z</time></trkpt></trkseg><trkseg><trkpt lat="40.20482674631254" lon="9.35477730390559"><ele>615.0</ele><time>2026-05-02T12:13:41.001Z</time></trkpt><trkpt lat="40.20479728052885" lon="9.354851045402228"><ele>615.0</ele><time>2026-05-02T12:13:50.002Z</time></trkpt><trkpt lat="40.2048263512928" lon="9.354979852223169"><ele>615.0</ele><time>2026-05-02T12:13:59.998Z</time></trkpt><trkpt lat="40.20409329585619" lon="9.355066073883076"><ele>615.0</ele><time>2026-05-02T12:23:04Z</time></trkpt><trkpt lat="40.20410384691201" lon="9.354974368277691"><ele>615.0</ele><time>2026-05-02T12:23:11Z</time></trkpt><trkpt lat="40.204115588561166" lon="9.354886814117478"><ele>615.0</ele><time>2026-05-02T12:23:16Z</time></trkpt><trkpt lat="40.20414799771959" lon="9.354798610102856"><ele>615.0</ele><time>2026-05-02T12:23:27Z</time></trkpt><trkpt lat="40.204213494176464" lon="9.354767375435605"><ele>615.0</ele><time>2026-05-02T12:23:37Z</time></trkpt><trkpt lat="40.20428549205961" lon="9.35477915587398"><ele>615.0</ele><time>2026-05-02T12:23:43Z</time></trkpt><trkpt lat="40.204337578808776" lon="9.354845214402479"><ele>615.0</ele><time>2026-05-02T12:23:49Z</time></trkpt><trkpt lat="40.204256781919504" lon="9.354802911124239"><ele>615.0</ele><time>2026-05-02T12:24:03.992Z</time></trkpt><trkpt lat="40.204179745284" lon="9.35480802169586"><ele>615.0</ele><time>2026-05-02T12:24:11.994Z</time></trkpt><trkpt lat="40.20411454232081" lon="9.354778975269411"><ele>615.0</ele><time>2026-05-02T12:24:16.995Z</time></trkpt><trkpt lat="40.20408566196428" lon="9.354695721600118"><ele>615.0</ele><time>2026-05-02T12:24:22.996Z</time></trkpt><trkpt lat="40.20404334297257" lon="9.354633390054754"><ele>615.0</ele><time>2026-05-02T12:24:25.996Z</time></trkpt><trkpt lat="40.204067602706054" lon="9.354552211215491"><ele>615.0</ele><time>2026-05-02T12:24:28.997Z</time></trkpt><trkpt lat="40.204092301303184" lon="9.35445980188694"><ele>615.0</ele><time>2026-05-02T12:24:32.997Z</time></trkpt><trkpt lat="40.20416066903479" lon="9.354398132680583"><ele>614.8571428571428</ele><time>2026-05-02T12:24:39.997Z</time></trkpt><trkpt lat="40.20422476143278" lon="9.35433478682845"><ele>614.7142857142858</ele><time>2026-05-02T12:24:44.998Z</time></trkpt><trkpt lat="40.2042886203998" lon="9.35435233568594"><ele>614.5714285714286</ele><time>2026-05-02T12:24:47.998Z</time></trkpt><trkpt lat="40.20434380040129" lon="9.354410114799622"><ele>614.4285714285713</ele><time>2026-05-02T12:24:52.998Z</time></trkpt><trkpt lat="40.204377300369515" lon="9.354490010432878"><ele>614.2857142857142</ele><time>2026-05-02T12:24:58.998Z</time></trkpt><trkpt lat="40.2044393214508" lon="9.354507600488677"><ele>614.1428571428571</ele><time>2026-05-02T12:25:05.999Z</time></trkpt><trkpt lat="40.20450429268003" lon="9.35451679036259"><ele>614.0</ele><time>2026-05-02T12:25:10.999Z</time></trkpt><trkpt lat="40.204568918316646" lon="9.354532687041624"><ele>613.9999999999999</ele><time>2026-05-02T12:25:14.999Z</time></trkpt><trkpt lat="40.20463625033751" lon="9.354557291212915"><ele>614.0</ele><time>2026-05-02T12:25:21.999Z</time></trkpt><trkpt lat="40.20470149614953" lon="9.354575588134283"><ele>614.0</ele><time>2026-05-02T12:25:27.999Z</time></trkpt><trkpt lat="40.204775368155104" lon="9.354601963363503"><ele>614.0</ele><time>2026-05-02T12:25:34.999Z</time></trkpt><trkpt lat="40.20480583896884" lon="9.354677264407869"><ele>614.0</ele><time>2026-05-02T12:25:39Z</time></trkpt><trkpt lat="40.20484801619324" lon="9.354757659096272"><ele>613.9999999999999</ele><time>2026-05-02T12:25:44Z</time></trkpt><trkpt lat="40.204879835696474" lon="9.354839884799611"><ele>614.0</ele><time>2026-05-02T12:25:49Z</time></trkpt><trkpt lat="40.20491079651395" lon="9.3549183904024"><ele>611.8571428571428</ele><time>2026-05-02T12:25:54Z</time></trkpt><trkpt lat="40.2049514804703" lon="9.354985570075279"><ele>609.7142857142857</ele><time>2026-05-02T12:26:00Z</time></trkpt><trkpt lat="40.20500208771051" lon="9.355051267094376"><ele>607.5714285714286</ele><time>2026-05-02T12:26:05.998Z</time></trkpt><trkpt lat="40.2050555653635" lon="9.355115251785568"><ele>605.4285714285713</ele><time>2026-05-02T12:26:11.998Z</time></trkpt><trkpt lat="40.205098578232274" lon="9.355175632121181"><ele>603.2857142857142</ele><time>2026-05-02T12:31:38.001Z</time></trkpt><trkpt lat="40.20515206224871" lon="9.355248308281205"><ele>601.1428571428571</ele><time>2026-05-02T12:31:41.001Z</time></trkpt><trkpt lat="40.20515144327732" lon="9.355356081052964"><ele>599.0</ele><time>2026-05-02T12:31:44.001Z</time></trkpt><trkpt lat="40.205137208630376" lon="9.355467063210087"><ele>599.0</ele><time>2026-05-02T12:31:47.001Z</time></trkpt><trkpt lat="40.205135345953614" lon="9.35555945796144"><ele>599.0</ele><time>2026-05-02T12:31:50.001Z</time></trkpt><trkpt lat="40.20513904107366" lon="9.355644558422547"><ele>599.0</ele><time>2026-05-02T12:31:53.001Z</time></trkpt><trkpt lat="40.2051320788552" lon="9.355751088049026"><ele>599.0</ele><time>2026-05-02T12:31:56.001Z</time></trkpt><trkpt lat="40.2051652752243" lon="9.355828266675646"><ele>599.0</ele><time>2026-05-02T12:31:59.001Z</time></trkpt><trkpt lat="40.20519619556157" lon="9.355746367701451"><ele>599.0</ele><time>2026-05-02T12:32:02.001Z</time></trkpt><trkpt lat="40.20516676554942" lon="9.355643043616345"><ele>599.0</ele><time>2026-05-02T12:32:04.001Z</time></trkpt><trkpt lat="40.205144425032465" lon="9.35553575844535"><ele>599.0</ele><time>2026-05-02T12:32:06.001Z</time></trkpt><trkpt lat="40.20508110191406" lon="9.355457297602385"><ele>599.0</ele><time>2026-05-02T12:32:08.001Z</time></trkpt><trkpt lat="40.20498917130077" lon="9.355402319413502"><ele>599.0</ele><time>2026-05-02T12:32:10.001Z</time></trkpt><trkpt lat="40.204907560641175" lon="9.35535338493476"><ele>599.0</ele><time>2026-05-02T12:32:12.001Z</time></trkpt><trkpt lat="40.20481606286486" lon="9.355249787115664"><ele>599.0</ele><time>2026-05-02T12:32:14.001Z</time></trkpt><trkpt lat="40.204761019500694" lon="9.355202916118708"><ele>602.2</ele><time>2026-05-02T12:32:15.001Z</time></trkpt><trkpt lat="40.20469676746432" lon="9.35516717056164"><ele>605.4</ele><time>2026-05-02T12:32:16.001Z</time></trkpt><trkpt lat="40.204642547041914" lon="9.355119603975472"><ele>608.6</ele><time>2026-05-02T12:32:17.001Z</time></trkpt><trkpt lat="40.20455319017463" lon="9.35500769481682"><ele>611.8</ele><time>2026-05-02T12:32:19.001Z</time></trkpt><trkpt lat="40.2044598075202" lon="9.354935664356741"><ele>615.0</ele><time>2026-05-02T12:32:20.999Z</time></trkpt><trkpt lat="40.20437018111462" lon="9.35485469463584"><ele>615.0</ele><time>2026-05-02T12:32:22.999Z</time></trkpt><trkpt lat="40.20428661320708" lon="9.354800164055368"><ele>615.0</ele><time>2026-05-02T12:32:24.999Z</time></trkpt><trkpt lat="40.20419470200786" lon="9.354779372931631"><ele>615.0</ele><time>2026-05-02T12:32:26.999Z</time></trkpt><trkpt lat="40.204096702911954" lon="9.354805204362046"><ele>615.0</ele><time>2026-05-02T12:32:29.999Z</time></trkpt><trkpt lat="40.2040135345888" lon="9.35484512027431"><ele>615.0</ele><time>2026-05-02T12:32:31.999Z</time></trkpt><trkpt lat="40.20392960981012" lon="9.354891329167776"><ele>617.2857142857142</ele><time>2026-05-02T12:32:33.999Z</time></trkpt><trkpt lat="40.20389342005475" lon="9.354962701490559"><ele>619.5714285714287</ele><time>2026-05-02T12:32:34.999Z</time></trkpt><trkpt lat="40.20387500247918" lon="9.355041900621337"><ele>621.8571428571429</ele><time>2026-05-02T12:32:37Z</time></trkpt><trkpt lat="40.203836950154596" lon="9.355113832266444"><ele>624.1428571428571</ele><time>2026-05-02T12:32:39Z</time></trkpt><trkpt lat="40.20375345491521" lon="9.355138905303622"><ele>626.4285714285713</ele><time>2026-05-02T12:32:41Z</time></trkpt><trkpt lat="40.20368821798553" lon="9.355122537492571"><ele>628.7142857142858</ele><time>2026-05-02T12:32:44Z</time></trkpt><trkpt lat="40.20367677671742" lon="9.355011031755526"><ele>631.0</ele><time>2026-05-02T12:32:45Z</time></trkpt><trkpt lat="40.20365914999744" lon="9.354901805859662"><ele>631.0</ele><time>2026-05-02T12:32:47Z</time></trkpt><trkpt lat="40.20362151243101" lon="9.354787071881812"><ele>631.0</ele><time>2026-05-02T12:32:50Z</time></trkpt><trkpt lat="40.203647779911705" lon="9.354662216261163"><ele>631.0</ele><time>2026-05-02T12:32:53Z</time></trkpt><trkpt lat="40.203654411223525" lon="9.354529233225236"><ele>631.0</ele><time>2026-05-02T12:32:55Z</time></trkpt><trkpt lat="40.20365376957013" lon="9.35440305451566"><ele>631.0</ele><time>2026-05-02T12:32:57Z</time></trkpt><trkpt lat="40.20364610070194" lon="9.354286745550572"><ele>631.0</ele><time>2026-05-02T12:32:59Z</time></trkpt><trkpt lat="40.20363988982889" lon="9.354192658901187"><ele>631.0</ele><time>2026-05-02T12:33:01Z</time></trkpt><trkpt lat="40.20363530750216" lon="9.354105069332718"><ele>631.0</ele><time>2026-05-02T12:33:03Z</time></trkpt><trkpt lat="40.20364063457802" lon="9.354003529657318"><ele>631.0</ele><time>2026-05-02T12:33:05Z</time></trkpt><trkpt lat="40.20368940675479" lon="9.353882549807297"><ele>631.0</ele><time>2026-05-02T12:33:07Z</time></trkpt><trkpt lat="40.20371774736029" lon="9.353773950431938"><ele>631.0</ele><time>2026-05-02T12:33:09Z</time></trkpt><trkpt lat="40.20371573749369" lon="9.353643704295026"><ele>631.3333333333334</ele><time>2026-05-02T12:33:11Z</time></trkpt><trkpt lat="40.20372458932592" lon="9.353552202376646"><ele>631.6666666666667</ele><time>2026-05-02T12:33:22Z</time></trkpt><trkpt lat="40.20365744259181" lon="9.353495401326423"><ele>632.0</ele><time>2026-05-02T12:33:24Z</time></trkpt><trkpt lat="40.203720955729224" lon="9.353428054348784"><ele>632.3333333333334</ele><time>2026-05-02T12:33:25Z</time></trkpt><trkpt lat="40.20370668428978" lon="9.3533396437511"><ele>632.6666666666666</ele><time>2026-05-02T12:33:35Z</time></trkpt><trkpt lat="40.20370228879835" lon="9.353243692136044"><ele>633.0</ele><time>2026-05-02T12:33:38.001Z</time></trkpt><trkpt lat="40.203718760394864" lon="9.352996477480355"><ele>632.6</ele><time>2026-05-02T12:33:41.001Z</time></trkpt><trkpt lat="40.203746047125456" lon="9.352910833168341"><ele>632.1999999999999</ele><time>2026-05-02T12:33:43.001Z</time></trkpt><trkpt lat="40.20378996130796" lon="9.352804682706433"><ele>631.8</ele><time>2026-05-02T12:33:45.001Z</time></trkpt><trkpt lat="40.20382227783687" lon="9.352697780635438"><ele>631.4</ele><time>2026-05-02T12:33:47.001Z</time></trkpt><trkpt lat="40.203995844135406" lon="9.352578716870427"><ele>631.0</ele><time>2026-05-02T12:33:48.001Z</time></trkpt><trkpt lat="40.20407438757046" lon="9.35237696039977"><ele>631.0</ele><time>2026-05-02T12:33:55.001Z</time></trkpt><trkpt lat="40.20411033745008" lon="9.352256669734752"><ele>631.0</ele><time>2026-05-02T12:33:57.001Z</time></trkpt><trkpt lat="40.20422877540752" lon="9.352248764741159"><ele>631.0</ele><time>2026-05-02T12:33:58.001Z</time></trkpt><trkpt lat="40.20425281298311" lon="9.352128184985778"><ele>631.0</ele><time>2026-05-02T12:34:00.001Z</time></trkpt><trkpt lat="40.204263238775944" lon="9.35193041421185"><ele>633.8</ele><time>2026-05-02T12:34:02.001Z</time></trkpt><trkpt lat="40.20433562293467" lon="9.351870604969411"><ele>636.6</ele><time>2026-05-02T12:34:04.001Z</time></trkpt><trkpt lat="40.20440269747136" lon="9.35179439577905"><ele>639.4</ele><time>2026-05-02T12:34:06.001Z</time></trkpt><trkpt lat="40.20442955459344" lon="9.351685200399162"><ele>642.2</ele><time>2026-05-02T12:34:08.001Z</time></trkpt><trkpt lat="40.20450842505204" lon="9.351590301806686"><ele>645.0</ele><time>2026-05-02T12:34:09.001Z</time></trkpt><trkpt lat="40.20460940169749" lon="9.351515597817048"><ele>645.0</ele><time>2026-05-02T12:34:11.001Z</time></trkpt><trkpt lat="40.20470236651635" lon="9.351451543976786"><ele>645.0</ele><time>2026-05-02T12:34:13.001Z</time></trkpt><trkpt lat="40.20479770641147" lon="9.351386471754154"><ele>645.0</ele><time>2026-05-02T12:34:15.001Z</time></trkpt><trkpt lat="40.20487007866282" lon="9.351343101435234"><ele>645.0</ele><time>2026-05-02T12:34:16.001Z</time></trkpt><trkpt lat="40.20494988358242" lon="9.35130428828183"><ele>645.0</ele><time>2026-05-02T12:34:17.001Z</time></trkpt><trkpt lat="40.205024618060385" lon="9.351278423377321"><ele>647.2</ele><time>2026-05-02T12:34:18.001Z</time></trkpt><trkpt lat="40.20513222682758" lon="9.351238764209665"><ele>649.4</ele><time>2026-05-02T12:34:20.001Z</time></trkpt><trkpt lat="40.20524541839113" lon="9.351197030714806"><ele>651.5999999999999</ele><time>2026-05-02T12:34:22.001Z</time></trkpt><trkpt lat="40.20535394054486" lon="9.351156454410864"><ele>653.8</ele><time>2026-05-02T12:34:24.001Z</time></trkpt><trkpt lat="40.20544327686045" lon="9.351119420858339"><ele>656.0</ele><time>2026-05-02T12:34:26.001Z</time></trkpt><trkpt lat="40.205528898532286" lon="9.351048544542081"><ele>656.0</ele><time>2026-05-02T12:34:29Z</time></trkpt><trkpt lat="40.20556892142129" lon="9.35096426641878"><ele>656.0</ele><time>2026-05-02T12:34:32Z</time></trkpt><trkpt lat="40.20585132535494" lon="9.35111461716837"><ele>656.0</ele><time>2026-05-02T12:34:33Z</time></trkpt><trkpt lat="40.20589305374298" lon="9.350979344340127"><ele>655.0</ele><time>2026-05-02T12:34:35Z</time></trkpt><trkpt lat="40.20590700931942" lon="9.350816914634763"><ele>654.0</ele><time>2026-05-02T12:34:37Z</time></trkpt><trkpt lat="40.20593150435316" lon="9.35066749375859"><ele>653.0</ele><time>2026-05-02T12:34:39Z</time></trkpt><trkpt lat="40.20598316481141" lon="9.350558819439934"><ele>652.0</ele><time>2026-05-02T12:34:41Z</time></trkpt><trkpt lat="40.2060606453211" lon="9.350466687206366"><ele>651.0</ele><time>2026-05-02T12:34:43Z</time></trkpt><trkpt lat="40.206148552534934" lon="9.350377582124265"><ele>651.0</ele><time>2026-05-02T12:34:45Z</time></trkpt><trkpt lat="40.20624979129825" lon="9.350289765905844"><ele>651.0</ele><time>2026-05-02T12:34:47Z</time></trkpt><trkpt lat="40.20633126078375" lon="9.350203210330278"><ele>651.0</ele><time>2026-05-02T12:34:49Z</time></trkpt><trkpt lat="40.206389534900914" lon="9.350062956929792"><ele>651.0</ele><time>2026-05-02T12:34:51Z</time></trkpt><trkpt lat="40.206402401745805" lon="9.349975331212438"><ele>651.0</ele><time>2026-05-02T12:34:52Z</time></trkpt><trkpt lat="40.20640944496327" lon="9.349887214257501"><ele>651.0</ele><time>2026-05-02T12:34:53Z</time></trkpt><trkpt lat="40.206413464901374" lon="9.349737006732289"><ele>651.0</ele><time>2026-05-02T12:34:55Z</time></trkpt><trkpt lat="40.206415850658765" lon="9.349599567526624"><ele>651.0</ele><time>2026-05-02T12:34:57Z</time></trkpt><trkpt lat="40.20642386688339" lon="9.349476684735722"><ele>651.0</ele><time>2026-05-02T12:34:59Z</time></trkpt><trkpt lat="40.206419211766544" lon="9.349378763063994"><ele>651.0</ele><time>2026-05-02T12:35:01Z</time></trkpt><trkpt lat="40.20641666288686" lon="9.349291683518597"><ele>651.4</ele><time>2026-05-02T12:35:03Z</time></trkpt><trkpt lat="40.20639217294467" lon="9.349200065431711"><ele>651.8</ele><time>2026-05-02T12:35:10Z</time></trkpt><trkpt lat="40.206316298877" lon="9.349091461714005"><ele>652.1999999999999</ele><time>2026-05-02T12:35:12Z</time></trkpt><trkpt lat="40.20623817049934" lon="9.348990317822432"><ele>652.5999999999999</ele><time>2026-05-02T12:35:14Z</time></trkpt><trkpt lat="40.20615830177038" lon="9.348869741887166"><ele>653.0</ele><time>2026-05-02T12:35:16Z</time></trkpt><trkpt lat="40.20610176703131" lon="9.348807420655422"><ele>650.8333333333333</ele><time>2026-05-02T12:35:17Z</time></trkpt><trkpt lat="40.20603826181502" lon="9.348737993023489"><ele>648.6666666666666</ele><time>2026-05-02T12:35:18Z</time></trkpt><trkpt lat="40.205979150318015" lon="9.348672767904338"><ele>646.5</ele><time>2026-05-02T12:35:19Z</time></trkpt><trkpt lat="40.20591851125852" lon="9.348626738371332"><ele>644.3333333333334</ele><time>2026-05-02T12:35:20Z</time></trkpt><trkpt lat="40.20586234581172" lon="9.34856752324828"><ele>642.1666666666667</ele><time>2026-05-02T12:35:21Z</time></trkpt><trkpt lat="40.20579750662534" lon="9.348513480257596"><ele>640.0</ele><time>2026-05-02T12:35:22Z</time></trkpt><trkpt lat="40.20573001102463" lon="9.348471109865125"><ele>641.4</ele><time>2026-05-02T12:35:23Z</time></trkpt><trkpt lat="40.205661934071244" lon="9.348446390721882"><ele>642.8</ele><time>2026-05-02T12:35:24Z</time></trkpt><trkpt lat="40.20554902149393" lon="9.348405646185105"><ele>644.2</ele><time>2026-05-02T12:35:26Z</time></trkpt><trkpt lat="40.205423762960635" lon="9.348456783816905"><ele>645.6</ele><time>2026-05-02T12:35:28Z</time></trkpt><trkpt lat="40.2053670577075" lon="9.34855018511188"><ele>647.0</ele><time>2026-05-02T12:35:30Z</time></trkpt><trkpt lat="40.20529002542321" lon="9.348610694234953"><ele>647.0</ele><time>2026-05-02T12:35:32.001Z</time></trkpt><trkpt lat="40.205195199720634" lon="9.348632273061144"><ele>647.0</ele><time>2026-05-02T12:35:34.001Z</time></trkpt><trkpt lat="40.205079919556525" lon="9.348626423563298"><ele>647.0</ele><time>2026-05-02T12:35:36.001Z</time></trkpt><trkpt lat="40.205010650032975" lon="9.34860863911084"><ele>647.0</ele><time>2026-05-02T12:35:37.001Z</time></trkpt><trkpt lat="40.204930443120034" lon="9.34858403971326"><ele>647.0</ele><time>2026-05-02T12:35:38.001Z</time></trkpt><trkpt lat="40.20484218451536" lon="9.348542883181318"><ele>649.0</ele><time>2026-05-02T12:35:39.001Z</time></trkpt><trkpt lat="40.20477164593229" lon="9.348502772414145"><ele>651.0</ele><time>2026-05-02T12:35:40.001Z</time></trkpt><trkpt lat="40.20470410415498" lon="9.348457751067608"><ele>653.0</ele><time>2026-05-02T12:35:41.001Z</time></trkpt><trkpt lat="40.204634049810146" lon="9.348409066261766"><ele>655.0</ele><time>2026-05-02T12:35:42.001Z</time></trkpt><trkpt lat="40.20456504838571" lon="9.34836471619781"><ele>657.0</ele><time>2026-05-02T12:35:43.001Z</time></trkpt><trkpt lat="40.20448589083105" lon="9.348341046582606"><ele>659.0</ele><time>2026-05-02T12:35:44.001Z</time></trkpt><trkpt lat="40.2044118026172" lon="9.348303255003577"><ele>659.0</ele><time>2026-05-02T12:35:45.001Z</time></trkpt><trkpt lat="40.204328647716835" lon="9.348270866274365"><ele>659.0</ele><time>2026-05-02T12:35:46.001Z</time></trkpt><trkpt lat="40.20424844643755" lon="9.348224687294257"><ele>659.0</ele><time>2026-05-02T12:35:47.001Z</time></trkpt><trkpt lat="40.204160580958565" lon="9.348201358337619"><ele>659.0</ele><time>2026-05-02T12:35:48.001Z</time></trkpt><trkpt lat="40.2040706022715" lon="9.34818631298779"><ele>659.0</ele><time>2026-05-02T12:35:49.001Z</time></trkpt><trkpt lat="40.203982533040154" lon="9.348168739446196"><ele>659.0</ele><time>2026-05-02T12:35:50.001Z</time></trkpt><trkpt lat="40.20389173821695" lon="9.348156192036578"><ele>658.4000000000001</ele><time>2026-05-02T12:35:51.001Z</time></trkpt><trkpt lat="40.20381124654232" lon="9.348100384383478"><ele>657.8</ele><time>2026-05-02T12:35:52.001Z</time></trkpt><trkpt lat="40.203740833078484" lon="9.348019545342204"><ele>657.2</ele><time>2026-05-02T12:35:53.001Z</time></trkpt><trkpt lat="40.203653535994135" lon="9.347983878594981"><ele>656.5999999999999</ele><time>2026-05-02T12:35:54.001Z</time></trkpt><trkpt lat="40.20357450273305" lon="9.347918016170908"><ele>656.0</ele><time>2026-05-02T12:35:55.001Z</time></trkpt><trkpt lat="40.20347349257048" lon="9.347907002903161"><ele>656.0</ele><time>2026-05-02T12:35:56.001Z</time></trkpt><trkpt lat="40.20337520065568" lon="9.347877001246463"><ele>656.0</ele><time>2026-05-02T12:35:57.001Z</time></trkpt><trkpt lat="40.203272283149204" lon="9.347841690884502"><ele>656.0</ele><time>2026-05-02T12:35:58.001Z</time></trkpt><trkpt lat="40.20316618634648" lon="9.347788995822954"><ele>656.0</ele><time>2026-05-02T12:35:59.001Z</time></trkpt><trkpt lat="40.20306913228603" lon="9.347723730825468"><ele>656.0</ele><time>2026-05-02T12:36:00.001Z</time></trkpt><trkpt lat="40.20297792474934" lon="9.34765465470809"><ele>659.5999999999999</ele><time>2026-05-02T12:36:01.001Z</time></trkpt><trkpt lat="40.202891499940684" lon="9.347581704175207"><ele>663.2</ele><time>2026-05-02T12:36:02.001Z</time></trkpt><trkpt lat="40.20280276720209" lon="9.347513768833998"><ele>666.8</ele><time>2026-05-02T12:36:03.001Z</time></trkpt><trkpt lat="40.20270923765413" lon="9.347450899264933"><ele>670.4000000000001</ele><time>2026-05-02T12:36:04.001Z</time></trkpt><trkpt lat="40.20261508901937" lon="9.347390898250994"><ele>674.0</ele><time>2026-05-02T12:36:05.001Z</time></trkpt><trkpt lat="40.202526306922294" lon="9.34731183161593"><ele>674.0</ele><time>2026-05-02T12:36:06.001Z</time></trkpt><trkpt lat="40.20242265919157" lon="9.347269889199769"><ele>674.0</ele><time>2026-05-02T12:36:07.001Z</time></trkpt><trkpt lat="40.20231460853437" lon="9.347246305765427"><ele>674.0</ele><time>2026-05-02T12:36:08.001Z</time></trkpt><trkpt lat="40.20220411706135" lon="9.347239277434376"><ele>674.0</ele><time>2026-05-02T12:36:09.001Z</time></trkpt><trkpt lat="40.20209061534799" lon="9.347241068551147"><ele>674.0</ele><time>2026-05-02T12:36:10.001Z</time></trkpt><trkpt lat="40.201976732415744" lon="9.347242733211209"><ele>677.5</ele><time>2026-05-02T12:36:11.001Z</time></trkpt><trkpt lat="40.20186196893668" lon="9.347239389175392"><ele>681.0</ele><time>2026-05-02T12:36:12.001Z</time></trkpt><trkpt lat="40.20174464381479" lon="9.3472451169158"><ele>684.5</ele><time>2026-05-02T12:36:13.001Z</time></trkpt><trkpt lat="40.20162767592532" lon="9.347211644320115"><ele>688.0</ele><time>2026-05-02T12:36:14.001Z</time></trkpt><trkpt lat="40.201513359849606" lon="9.347168279470136"><ele>684.5999999999999</ele><time>2026-05-02T12:36:15.001Z</time></trkpt><trkpt lat="40.201403651710734" lon="9.347119054736654"><ele>681.1999999999999</ele><time>2026-05-02T12:36:16.001Z</time></trkpt><trkpt lat="40.201300676508666" lon="9.34707552140997"><ele>677.8</ele><time>2026-05-02T12:36:17.001Z</time></trkpt><trkpt lat="40.20119930925199" lon="9.347057446623738"><ele>674.4</ele><time>2026-05-02T12:36:18.001Z</time></trkpt><trkpt lat="40.20109337965415" lon="9.347045465176453"><ele>671.0</ele><time>2026-05-02T12:36:19.001Z</time></trkpt><trkpt lat="40.20100073998103" lon="9.347120849948098"><ele>671.0</ele><time>2026-05-02T12:36:20.001Z</time></trkpt><trkpt lat="40.20091924270829" lon="9.347206865825706"><ele>671.0</ele><time>2026-05-02T12:36:21.001Z</time></trkpt><trkpt lat="40.200848700201114" lon="9.347320639582257"><ele>671.0</ele><time>2026-05-02T12:36:22.001Z</time></trkpt><trkpt lat="40.200784467916904" lon="9.347447357429715"><ele>671.0</ele><time>2026-05-02T12:36:23.001Z</time></trkpt><trkpt lat="40.20072022716734" lon="9.34758357176518"><ele>671.0</ele><time>2026-05-02T12:36:24.001Z</time></trkpt><trkpt lat="40.20065114612572" lon="9.347719623224119"><ele>671.0</ele><time>2026-05-02T12:36:25.001Z</time></trkpt><trkpt lat="40.200583256051075" lon="9.34786299730271"><ele>671.0</ele><time>2026-05-02T12:36:26.001Z</time></trkpt><trkpt lat="40.20051412100018" lon="9.348009514325463"><ele>671.0</ele><time>2026-05-02T12:36:27.001Z</time></trkpt><trkpt lat="40.200456508677625" lon="9.348170109933557"><ele>674.0</ele><time>2026-05-02T12:36:28.001Z</time></trkpt><trkpt lat="40.200406890142055" lon="9.348339714656943"><ele>677.0</ele><time>2026-05-02T12:36:29.001Z</time></trkpt><trkpt lat="40.20036164525347" lon="9.348513969359239"><ele>680.0</ele><time>2026-05-02T12:36:30.001Z</time></trkpt><trkpt lat="40.20031046215218" lon="9.348696345427221"><ele>683.0</ele><time>2026-05-02T12:36:31.001Z</time></trkpt><trkpt lat="40.20025114538601" lon="9.348885096842023"><ele>687.6666666666666</ele><time>2026-05-02T12:36:32.001Z</time></trkpt><trkpt lat="40.20018373663388" lon="9.349061719943107"><ele>692.3333333333334</ele><time>2026-05-02T12:36:33Z</time></trkpt><trkpt lat="40.20010378851279" lon="9.349232243258342"><ele>697.0</ele><time>2026-05-02T12:36:34Z</time></trkpt><trkpt lat="40.20000867352181" lon="9.349389839270133"><ele>697.0</ele><time>2026-05-02T12:36:35Z</time></trkpt><trkpt lat="40.1999022708678" lon="9.349532208549446"><ele>697.0</ele><time>2026-05-02T12:36:36Z</time></trkpt><trkpt lat="40.19979174526892" lon="9.349670661919085"><ele>697.0</ele><time>2026-05-02T12:36:37Z</time></trkpt><trkpt lat="40.199687558238125" lon="9.349816214531929"><ele>699.3333333333334</ele><time>2026-05-02T12:36:38Z</time></trkpt><trkpt lat="40.19959248066821" lon="9.34997441933127"><ele>701.6666666666666</ele><time>2026-05-02T12:36:39Z</time></trkpt><trkpt lat="40.19950329608805" lon="9.350136749710423"><ele>704.0</ele><time>2026-05-02T12:36:40Z</time></trkpt><trkpt lat="40.19941466677271" lon="9.350294572741975"><ele>704.0</ele><time>2026-05-02T12:36:41Z</time></trkpt><trkpt lat="40.19933776449418" lon="9.350473786546067"><ele>704.0</ele><time>2026-05-02T12:36:42Z</time></trkpt><trkpt lat="40.199227752682276" lon="9.350589583677861"><ele>704.0</ele><time>2026-05-02T12:36:43Z</time></trkpt><trkpt lat="40.19913679940567" lon="9.350730250853985"><ele>704.0</ele><time>2026-05-02T12:36:44Z</time></trkpt><trkpt lat="40.19903388403586" lon="9.350854847720878"><ele>707.25</ele><time>2026-05-02T12:36:45Z</time></trkpt><trkpt lat="40.1989179208118" lon="9.350954349777473"><ele>710.5</ele><time>2026-05-02T12:36:46Z</time></trkpt><trkpt lat="40.198790996066634" lon="9.351023083399129"><ele>713.75</ele><time>2026-05-02T12:36:47Z</time></trkpt><trkpt lat="40.19865727122957" lon="9.351061073942972"><ele>717.0</ele><time>2026-05-02T12:36:48Z</time></trkpt><trkpt lat="40.1985197487501" lon="9.351070425038392"><ele>717.0</ele><time>2026-05-02T12:36:49Z</time></trkpt><trkpt lat="40.198385446285506" lon="9.351036636845125"><ele>717.0</ele><time>2026-05-02T12:36:50Z</time></trkpt><trkpt lat="40.19826418325346" lon="9.351007531478285"><ele>717.0</ele><time>2026-05-02T12:36:51Z</time></trkpt><trkpt lat="40.19814766407702" lon="9.350982781408021"><ele>717.0</ele><time>2026-05-02T12:36:52Z</time></trkpt><trkpt lat="40.198060756625736" lon="9.350901672253777"><ele>719.8</ele><time>2026-05-02T12:36:53Z</time></trkpt><trkpt lat="40.19797506017821" lon="9.350819014160168"><ele>722.6</ele><time>2026-05-02T12:36:54Z</time></trkpt><trkpt lat="40.19789132560059" lon="9.350758518086844"><ele>725.4</ele><time>2026-05-02T12:36:55Z</time></trkpt><trkpt lat="40.19780068203444" lon="9.35073239654241"><ele>728.1999999999999</ele><time>2026-05-02T12:36:56Z</time></trkpt><trkpt lat="40.197711353413304" lon="9.350741285274365"><ele>731.0</ele><time>2026-05-02T12:36:57Z</time></trkpt><trkpt lat="40.19762991887783" lon="9.350784762338977"><ele>731.0</ele><time>2026-05-02T12:36:58Z</time></trkpt><trkpt lat="40.1975602092154" lon="9.350858247677499"><ele>731.0</ele><time>2026-05-02T12:36:59Z</time></trkpt><trkpt lat="40.1975084971828" lon="9.350959505385882"><ele>731.0</ele><time>2026-05-02T12:37:00Z</time></trkpt><trkpt lat="40.19748882577109" lon="9.351076230946642"><ele>731.0</ele><time>2026-05-02T12:37:01Z</time></trkpt><trkpt lat="40.197498589433906" lon="9.351197369563787"><ele>731.0</ele><time>2026-05-02T12:37:02Z</time></trkpt><trkpt lat="40.1975372206022" lon="9.351313274314286"><ele>733.1999999999999</ele><time>2026-05-02T12:37:03.001Z</time></trkpt><trkpt lat="40.19759816966775" lon="9.351411577924537"><ele>735.4</ele><time>2026-05-02T12:37:04.001Z</time></trkpt><trkpt lat="40.197679461543046" lon="9.351491613095227"><ele>737.6</ele><time>2026-05-02T12:37:05.001Z</time></trkpt><trkpt lat="40.19776908545154" lon="9.351559669524777"><ele>739.8</ele><time>2026-05-02T12:37:06.001Z</time></trkpt><trkpt lat="40.1978637710576" lon="9.351623403553665"><ele>742.0</ele><time>2026-05-02T12:37:07.001Z</time></trkpt><trkpt lat="40.19795929540875" lon="9.351688459938504"><ele>742.0</ele><time>2026-05-02T12:37:08.001Z</time></trkpt><trkpt lat="40.19805567436189" lon="9.351756479068026"><ele>742.0</ele><time>2026-05-02T12:37:09.001Z</time></trkpt><trkpt lat="40.19815364572509" lon="9.351825767326506"><ele>742.0</ele><time>2026-05-02T12:37:10.001Z</time></trkpt><trkpt lat="40.19825130687743" lon="9.351895107648225"><ele>742.0</ele><time>2026-05-02T12:37:11.001Z</time></trkpt><trkpt lat="40.198352143096876" lon="9.351968406954168"><ele>742.0</ele><time>2026-05-02T12:37:12.001Z</time></trkpt><trkpt lat="40.19845909738032" lon="9.352048611373807"><ele>743.75</ele><time>2026-05-02T12:37:13.001Z</time></trkpt><trkpt lat="40.19856044079019" lon="9.352122734058602"><ele>745.5</ele><time>2026-05-02T12:37:14.001Z</time></trkpt><trkpt lat="40.198660740539935" lon="9.35219681756366"><ele>747.25</ele><time>2026-05-02T12:37:15.001Z</time></trkpt><trkpt lat="40.198763159254725" lon="9.35226685588117"><ele>749.0</ele><time>2026-05-02T12:37:16.001Z</time></trkpt><trkpt lat="40.19886522415561" lon="9.352312214243447"><ele>749.0</ele><time>2026-05-02T12:37:17.001Z</time></trkpt><trkpt lat="40.19897172412569" lon="9.3523234768511"><ele>749.0</ele><time>2026-05-02T12:37:18.001Z</time></trkpt><trkpt lat="40.19907677169447" lon="9.35229634761025"><ele>749.0</ele><time>2026-05-02T12:37:19.001Z</time></trkpt><trkpt lat="40.19917564590393" lon="9.352241968584162"><ele>749.0</ele><time>2026-05-02T12:37:20.001Z</time></trkpt><trkpt lat="40.19926710350816" lon="9.35216787702686"><ele>749.0</ele><time>2026-05-02T12:37:21.001Z</time></trkpt><trkpt lat="40.19935000345883" lon="9.352079845366314"><ele>745.8000000000001</ele><time>2026-05-02T12:37:22.001Z</time></trkpt><trkpt lat="40.199430872569344" lon="9.351984420694498"><ele>742.6</ele><time>2026-05-02T12:37:23.001Z</time></trkpt><trkpt lat="40.19951205528622" lon="9.351889249097315"><ele>739.4</ele><time>2026-05-02T12:37:24.001Z</time></trkpt><trkpt lat="40.19959419056699" lon="9.35179831041496"><ele>736.2</ele><time>2026-05-02T12:37:25.001Z</time></trkpt><trkpt lat="40.199672271305765" lon="9.35171166371216"><ele>733.0</ele><time>2026-05-02T12:37:26.001Z</time></trkpt><trkpt lat="40.1997389851215" lon="9.35163456756316"><ele>733.0</ele><time>2026-05-02T12:37:27.001Z</time></trkpt><trkpt lat="40.19980116415002" lon="9.351569403720813"><ele>733.0</ele><time>2026-05-02T12:37:28.001Z</time></trkpt><trkpt lat="40.19987535276368" lon="9.351528840646104"><ele>733.0</ele><time>2026-05-02T12:37:29.001Z</time></trkpt><trkpt lat="40.199956647559496" lon="9.351525359115142"><ele>733.0</ele><time>2026-05-02T12:37:30.001Z</time></trkpt><trkpt lat="40.2000265936882" lon="9.351565156797779"><ele>733.0</ele><time>2026-05-02T12:37:31.001Z</time></trkpt><trkpt lat="40.20006979794332" lon="9.351645067984231"><ele>733.0</ele><time>2026-05-02T12:37:32.001Z</time></trkpt><trkpt lat="40.200079767508726" lon="9.35174460543211"><ele>733.0</ele><time>2026-05-02T12:37:33.001Z</time></trkpt><trkpt lat="40.2000517299509" lon="9.351841973492498"><ele>733.0</ele><time>2026-05-02T12:37:34.001Z</time></trkpt><trkpt lat="40.199998886871455" lon="9.351929574051226"><ele>733.0</ele><time>2026-05-02T12:37:35.001Z</time></trkpt><trkpt lat="40.19991699617382" lon="9.352001588818514"><ele>733.0</ele><time>2026-05-02T12:37:36.001Z</time></trkpt><trkpt lat="40.19984915664686" lon="9.35210563304211"><ele>733.0</ele><time>2026-05-02T12:37:37.001Z</time></trkpt><trkpt lat="40.19976888978991" lon="9.352203846844002"><ele>736.5</ele><time>2026-05-02T12:37:38.001Z</time></trkpt><trkpt lat="40.19968427071741" lon="9.352306928781045"><ele>740.0</ele><time>2026-05-02T12:37:39.001Z</time></trkpt><trkpt lat="40.19959476157079" lon="9.352416638207957"><ele>743.5</ele><time>2026-05-02T12:37:40.001Z</time></trkpt><trkpt lat="40.19951063567986" lon="9.352520517799693"><ele>747.0</ele><time>2026-05-02T12:37:41.001Z</time></trkpt><trkpt lat="40.19942542599691" lon="9.352622362830017"><ele>747.0</ele><time>2026-05-02T12:37:42.001Z</time></trkpt><trkpt lat="40.19934356729706" lon="9.352721700759972"><ele>747.0</ele><time>2026-05-02T12:37:43.001Z</time></trkpt><trkpt lat="40.199263484839385" lon="9.352818562909953"><ele>747.0</ele><time>2026-05-02T12:37:44.001Z</time></trkpt><trkpt lat="40.19918308076698" lon="9.352909942086317"><ele>747.0</ele><time>2026-05-02T12:37:45.001Z</time></trkpt><trkpt lat="40.19909181061623" lon="9.352989960713993"><ele>747.0</ele><time>2026-05-02T12:37:46.001Z</time></trkpt><trkpt lat="40.19899039081968" lon="9.35304893337437"><ele>752.0</ele><time>2026-05-02T12:37:47.001Z</time></trkpt><trkpt lat="40.198880439814005" lon="9.353086042408203"><ele>757.0</ele><time>2026-05-02T12:37:48.001Z</time></trkpt><trkpt lat="40.198763787899566" lon="9.353097280978462"><ele>762.0</ele><time>2026-05-02T12:37:49.001Z</time></trkpt><trkpt lat="40.19864294219085" lon="9.353065800826672"><ele>767.0</ele><time>2026-05-02T12:37:50.001Z</time></trkpt><trkpt lat="40.198515777762566" lon="9.353062634914004"><ele>765.75</ele><time>2026-05-02T12:37:51.001Z</time></trkpt><trkpt lat="40.19838835305331" lon="9.353033005381343"><ele>764.5</ele><time>2026-05-02T12:37:52.001Z</time></trkpt><trkpt lat="40.19825706231382" lon="9.353007363327595"><ele>763.25</ele><time>2026-05-02T12:37:53.001Z</time></trkpt><trkpt lat="40.198124192352566" lon="9.352964618780325"><ele>762.0</ele><time>2026-05-02T12:37:54.001Z</time></trkpt><trkpt lat="40.19798316989104" lon="9.352956689756175"><ele>762.0</ele><time>2026-05-02T12:37:55.001Z</time></trkpt><trkpt lat="40.19784239046544" lon="9.352927787489424"><ele>762.0</ele><time>2026-05-02T12:37:56.001Z</time></trkpt><trkpt lat="40.19769923440651" lon="9.352895235575682"><ele>762.0</ele><time>2026-05-02T12:37:57.001Z</time></trkpt><trkpt lat="40.19755434269706" lon="9.352863345665103"><ele>762.0</ele><time>2026-05-02T12:37:58.001Z</time></trkpt><trkpt lat="40.19740825310741" lon="9.352832311427626"><ele>767.6666666666667</ele><time>2026-05-02T12:37:59.001Z</time></trkpt><trkpt lat="40.197259682813915" lon="9.352810359494981"><ele>773.3333333333334</ele><time>2026-05-02T12:38:00.001Z</time></trkpt><trkpt lat="40.19710562265687" lon="9.352786337367986"><ele>779.0</ele><time>2026-05-02T12:38:01.001Z</time></trkpt><trkpt lat="40.19696053709251" lon="9.352761300221136"><ele>779.0</ele><time>2026-05-02T12:38:02.001Z</time></trkpt><trkpt lat="40.196817826593595" lon="9.35273215685149"><ele>779.0</ele><time>2026-05-02T12:38:03.001Z</time></trkpt><trkpt lat="40.196691990523284" lon="9.352674042248198"><ele>779.0</ele><time>2026-05-02T12:38:04.001Z</time></trkpt><trkpt lat="40.196592081683136" lon="9.352581363657071"><ele>779.0</ele><time>2026-05-02T12:38:05.001Z</time></trkpt><trkpt lat="40.19650235100155" lon="9.352544582082547"><ele>781.75</ele><time>2026-05-02T12:38:06.001Z</time></trkpt><trkpt lat="40.19644208605446" lon="9.352495473313603"><ele>784.5</ele><time>2026-05-02T12:38:07.001Z</time></trkpt><trkpt lat="40.19648004264772" lon="9.352187123628589"><ele>787.25</ele><time>2026-05-02T12:38:08.001Z</time></trkpt><trkpt lat="40.19647038015396" lon="9.352045291684117"><ele>790.0</ele><time>2026-05-02T12:38:09.001Z</time></trkpt><trkpt lat="40.19643781025597" lon="9.351900019982411"><ele>790.0</ele><time>2026-05-02T12:38:10.001Z</time></trkpt><trkpt lat="40.196365867663935" lon="9.351768484942523"><ele>790.0</ele><time>2026-05-02T12:38:11.001Z</time></trkpt><trkpt lat="40.196268260609116" lon="9.351637926234597"><ele>790.0</ele><time>2026-05-02T12:38:12.001Z</time></trkpt><trkpt lat="40.196169579138584" lon="9.351505145983372"><ele>790.0</ele><time>2026-05-02T12:38:13.001Z</time></trkpt><trkpt lat="40.19607220523073" lon="9.351388258895971"><ele>787.25</ele><time>2026-05-02T12:38:14.001Z</time></trkpt><trkpt lat="40.19597317390522" lon="9.351308327261112"><ele>784.5</ele><time>2026-05-02T12:38:15.001Z</time></trkpt><trkpt lat="40.19586331644424" lon="9.351267090386894"><ele>781.75</ele><time>2026-05-02T12:38:16.001Z</time></trkpt><trkpt lat="40.19574852501181" lon="9.35128164696649"><ele>779.0</ele><time>2026-05-02T12:38:17.001Z</time></trkpt><trkpt lat="40.195638498255896" lon="9.351345810411845"><ele>781.25</ele><time>2026-05-02T12:38:18.001Z</time></trkpt><trkpt lat="40.19553779895245" lon="9.351449937481938"><ele>783.5</ele><time>2026-05-02T12:38:19.001Z</time></trkpt><trkpt lat="40.195447264512495" lon="9.351583100499754"><ele>785.75</ele><time>2026-05-02T12:38:20.001Z</time></trkpt><trkpt lat="40.195361914836205" lon="9.351723511860033"><ele>788.0</ele><time>2026-05-02T12:38:21.001Z</time></trkpt><trkpt lat="40.195271571794486" lon="9.351857998579643"><ele>788.0</ele><time>2026-05-02T12:38:22.001Z</time></trkpt><trkpt lat="40.19521593145304" lon="9.352008934776277"><ele>788.0</ele><time>2026-05-02T12:38:23.001Z</time></trkpt><trkpt lat="40.19517274430002" lon="9.352175080780677"><ele>788.0</ele><time>2026-05-02T12:38:24.001Z</time></trkpt><trkpt lat="40.19513729186871" lon="9.352346074192027"><ele>788.0</ele><time>2026-05-02T12:38:25.001Z</time></trkpt><trkpt lat="40.195096925686755" lon="9.352512507081117"><ele>788.25</ele><time>2026-05-02T12:38:26.001Z</time></trkpt><trkpt lat="40.195058245716716" lon="9.35266288310372"><ele>788.5</ele><time>2026-05-02T12:38:27.001Z</time></trkpt><trkpt lat="40.19501234282633" lon="9.352801642623268"><ele>788.75</ele><time>2026-05-02T12:38:28.001Z</time></trkpt><trkpt lat="40.19492677816773" lon="9.35291352209678"><ele>789.0</ele><time>2026-05-02T12:38:29.001Z</time></trkpt><trkpt lat="40.19482378349875" lon="9.353013338360286"><ele>792.75</ele><time>2026-05-02T12:38:30.001Z</time></trkpt><trkpt lat="40.194715803396114" lon="9.353098897748813"><ele>796.5</ele><time>2026-05-02T12:38:31.001Z</time></trkpt><trkpt lat="40.19460064563553" lon="9.353188695644809"><ele>800.25</ele><time>2026-05-02T12:38:32.001Z</time></trkpt><trkpt lat="40.19447663656499" lon="9.353329140934934"><ele>804.0</ele><time>2026-05-02T12:38:33.001Z</time></trkpt><trkpt lat="40.19436285601754" lon="9.353501741352783"><ele>804.0</ele><time>2026-05-02T12:38:34.001Z</time></trkpt><trkpt lat="40.19424594221731" lon="9.35367868366895"><ele>804.0</ele><time>2026-05-02T12:38:35.001Z</time></trkpt><trkpt lat="40.1941255615693" lon="9.353857421889149"><ele>804.0</ele><time>2026-05-02T12:38:36.001Z</time></trkpt><trkpt lat="40.1940030502333" lon="9.354039323701771"><ele>805.6666666666667</ele><time>2026-05-02T12:38:37.001Z</time></trkpt><trkpt lat="40.193876042361346" lon="9.35422790185823"><ele>807.3333333333334</ele><time>2026-05-02T12:38:38.001Z</time></trkpt><trkpt lat="40.19376071520587" lon="9.354428710794954"><ele>809.0</ele><time>2026-05-02T12:38:39.001Z</time></trkpt><trkpt lat="40.193633970153535" lon="9.354610859035695"><ele>813.6666666666667</ele><time>2026-05-02T12:38:40.001Z</time></trkpt><trkpt lat="40.19351619751884" lon="9.354789136315688"><ele>818.3333333333333</ele><time>2026-05-02T12:38:41.001Z</time></trkpt><trkpt lat="40.19340542762384" lon="9.354954211037548"><ele>823.0</ele><time>2026-05-02T12:38:42.001Z</time></trkpt><trkpt lat="40.19329878822193" lon="9.355097738062051"><ele>823.0</ele><time>2026-05-02T12:38:43.001Z</time></trkpt><trkpt lat="40.19318876955178" lon="9.355206791268133"><ele>823.0</ele><time>2026-05-02T12:38:44.001Z</time></trkpt><trkpt lat="40.193071522746735" lon="9.355268711873071"><ele>823.0</ele><time>2026-05-02T12:38:45.001Z</time></trkpt><trkpt lat="40.19294451676197" lon="9.355280803768133"><ele>823.0</ele><time>2026-05-02T12:38:46.001Z</time></trkpt><trkpt lat="40.19281865607464" lon="9.35524845428358"><ele>825.0</ele><time>2026-05-02T12:38:47.001Z</time></trkpt><trkpt lat="40.19269402748422" lon="9.355183540681226"><ele>827.0</ele><time>2026-05-02T12:38:48.001Z</time></trkpt><trkpt lat="40.19256322004237" lon="9.355100518211637"><ele>829.0</ele><time>2026-05-02T12:38:49.001Z</time></trkpt><trkpt lat="40.19244452976656" lon="9.354995842738917"><ele>831.0</ele><time>2026-05-02T12:38:50.001Z</time></trkpt><trkpt lat="40.19235623850329" lon="9.354873856957317"><ele>836.0</ele><time>2026-05-02T12:38:51.001Z</time></trkpt><trkpt lat="40.192285359956614" lon="9.35474406659515"><ele>841.0</ele><time>2026-05-02T12:38:52.001Z</time></trkpt><trkpt lat="40.19223239973915" lon="9.354593376133748"><ele>846.0</ele><time>2026-05-02T12:38:53.001Z</time></trkpt><trkpt lat="40.19219588217957" lon="9.354428727588623"><ele>851.0</ele><time>2026-05-02T12:38:54.001Z</time></trkpt><trkpt lat="40.19217269741403" lon="9.354252766799352"><ele>851.0</ele><time>2026-05-02T12:38:55.001Z</time></trkpt><trkpt lat="40.19214372839809" lon="9.354064765217098"><ele>851.0</ele><time>2026-05-02T12:38:56.001Z</time></trkpt><trkpt lat="40.19210980979975" lon="9.35386859450854"><ele>851.0</ele><time>2026-05-02T12:38:57.001Z</time></trkpt><trkpt lat="40.192076513068436" lon="9.353676387617687"><ele>850.25</ele><time>2026-05-02T12:38:58.001Z</time></trkpt><trkpt lat="40.19204931051095" lon="9.353497775614029"><ele>849.5</ele><time>2026-05-02T12:38:59.001Z</time></trkpt><trkpt lat="40.19199861030043" lon="9.35333385742621"><ele>848.75</ele><time>2026-05-02T12:39:00.001Z</time></trkpt><trkpt lat="40.191940697757815" lon="9.353180686848225"><ele>848.0</ele><time>2026-05-02T12:39:01.001Z</time></trkpt><trkpt lat="40.19184677165664" lon="9.353070527500629"><ele>849.25</ele><time>2026-05-02T12:39:02.001Z</time></trkpt><trkpt lat="40.19172844894127" lon="9.353007470876921"><ele>850.5</ele><time>2026-05-02T12:39:03.001Z</time></trkpt><trkpt lat="40.19160325488622" lon="9.352993102322129"><ele>851.75</ele><time>2026-05-02T12:39:04.001Z</time></trkpt><trkpt lat="40.19146921644536" lon="9.353020666324712"><ele>853.0</ele><time>2026-05-02T12:39:05.001Z</time></trkpt><trkpt lat="40.19133783034062" lon="9.353054711774893"><ele>853.75</ele><time>2026-05-02T12:39:06.001Z</time></trkpt><trkpt lat="40.19120455978613" lon="9.353092822288804"><ele>854.5</ele><time>2026-05-02T12:39:07.001Z</time></trkpt><trkpt lat="40.19106683493783" lon="9.353129584783053"><ele>855.25</ele><time>2026-05-02T12:39:08.001Z</time></trkpt><trkpt lat="40.19092689830815" lon="9.353165462255497"><ele>856.0</ele><time>2026-05-02T12:39:09.001Z</time></trkpt><trkpt lat="40.19078937698168" lon="9.35319591383251"><ele>858.75</ele><time>2026-05-02T12:39:10.001Z</time></trkpt><trkpt lat="40.190661065545264" lon="9.353213488389471"><ele>861.5</ele><time>2026-05-02T12:39:11.001Z</time></trkpt><trkpt lat="40.190542369046355" lon="9.353167315956494"><ele>864.25</ele><time>2026-05-02T12:39:12.001Z</time></trkpt><trkpt lat="40.19042992478781" lon="9.353087391663939"><ele>867.0</ele><time>2026-05-02T12:39:13.001Z</time></trkpt><trkpt lat="40.19033705073365" lon="9.35296386593707"><ele>867.0</ele><time>2026-05-02T12:39:14.001Z</time></trkpt><trkpt lat="40.19026909349843" lon="9.352805537893458"><ele>867.0</ele><time>2026-05-02T12:39:15.001Z</time></trkpt><trkpt lat="40.19021748499902" lon="9.35262543372547"><ele>867.0</ele><time>2026-05-02T12:39:16.001Z</time></trkpt><trkpt lat="40.19017051644177" lon="9.35242523712143"><ele>867.0</ele><time>2026-05-02T12:39:17.001Z</time></trkpt><trkpt lat="40.19013563294489" lon="9.352233902540208"><ele>866.0</ele><time>2026-05-02T12:39:18.001Z</time></trkpt><trkpt lat="40.19010084568993" lon="9.352050311962897"><ele>865.0</ele><time>2026-05-02T12:39:19.001Z</time></trkpt><trkpt lat="40.190060997839915" lon="9.351882046522492"><ele>864.0</ele><time>2026-05-02T12:39:20.001Z</time></trkpt><trkpt lat="40.190007279546606" lon="9.351730987852479"><ele>863.0</ele><time>2026-05-02T12:39:21.001Z</time></trkpt><trkpt lat="40.18990613214136" lon="9.351640491503607"><ele>867.0</ele><time>2026-05-02T12:39:23.001Z</time></trkpt><trkpt lat="40.189824179915355" lon="9.351540283971973"><ele>871.0</ele><time>2026-05-02T12:39:24.001Z</time></trkpt><trkpt lat="40.18971773878169" lon="9.351454507668969"><ele>875.0</ele><time>2026-05-02T12:39:25.001Z</time></trkpt><trkpt lat="40.18959874852901" lon="9.351390656652239"><ele>879.0</ele><time>2026-05-02T12:39:26.001Z</time></trkpt><trkpt lat="40.1894829355767" lon="9.351378064796691"><ele>879.0</ele><time>2026-05-02T12:39:27.001Z</time></trkpt><trkpt lat="40.18937668434227" lon="9.351421541857183"><ele>879.0</ele><time>2026-05-02T12:39:28.001Z</time></trkpt><trkpt lat="40.189272680383596" lon="9.351482232904297"><ele>879.0</ele><time>2026-05-02T12:39:29.001Z</time></trkpt><trkpt lat="40.18916243749634" lon="9.351474336050279"><ele>879.0</ele><time>2026-05-02T12:39:30.001Z</time></trkpt><trkpt lat="40.1890554904489" lon="9.351420250367214"><ele>878.0</ele><time>2026-05-02T12:39:31.001Z</time></trkpt><trkpt lat="40.188930732318994" lon="9.351350228904192"><ele>877.0</ele><time>2026-05-02T12:39:32.001Z</time></trkpt><trkpt lat="40.188801804015725" lon="9.35127297214618"><ele>876.0</ele><time>2026-05-02T12:39:33.001Z</time></trkpt><trkpt lat="40.18866701822277" lon="9.351192205395877"><ele>875.0</ele><time>2026-05-02T12:39:34.001Z</time></trkpt><trkpt lat="40.188526267511754" lon="9.351126428152668"><ele>875.0</ele><time>2026-05-02T12:39:35.001Z</time></trkpt><trkpt lat="40.1884069436876" lon="9.35104494472023"><ele>875.0</ele><time>2026-05-02T12:39:36.001Z</time></trkpt><trkpt lat="40.18829047894814" lon="9.351003825027062"><ele>875.0</ele><time>2026-05-02T12:39:37.001Z</time></trkpt><trkpt lat="40.18817083444457" lon="9.35100450512819"><ele>875.0</ele><time>2026-05-02T12:39:38.001Z</time></trkpt><trkpt lat="40.1880507623778" lon="9.351059977552813"><ele>877.5</ele><time>2026-05-02T12:39:39.001Z</time></trkpt><trkpt lat="40.187939165948926" lon="9.351157251289406"><ele>880.0</ele><time>2026-05-02T12:39:40.001Z</time></trkpt><trkpt lat="40.187831875211565" lon="9.351284382965977"><ele>882.5</ele><time>2026-05-02T12:39:41.001Z</time></trkpt><trkpt lat="40.187729836188055" lon="9.351428211416208"><ele>885.0</ele><time>2026-05-02T12:39:42.001Z</time></trkpt><trkpt lat="40.18762260045243" lon="9.35156995017591"><ele>886.5</ele><time>2026-05-02T12:39:43.001Z</time></trkpt><trkpt lat="40.18749611905051" lon="9.351686968177194"><ele>888.0</ele><time>2026-05-02T12:39:44.001Z</time></trkpt><trkpt lat="40.18736131909453" lon="9.351729222443968"><ele>889.5</ele><time>2026-05-02T12:39:45.001Z</time></trkpt><trkpt lat="40.18723816645195" lon="9.351697961124424"><ele>891.0</ele><time>2026-05-02T12:39:46.001Z</time></trkpt><trkpt lat="40.187141492592716" lon="9.351649677527462"><ele>892.25</ele><time>2026-05-02T12:39:47.001Z</time></trkpt><trkpt lat="40.18706203221913" lon="9.351566796295884"><ele>893.5</ele><time>2026-05-02T12:39:48.001Z</time></trkpt><trkpt lat="40.18698859520064" lon="9.351454631051391"><ele>894.75</ele><time>2026-05-02T12:39:49.001Z</time></trkpt><trkpt lat="40.18689603015585" lon="9.351341406339696"><ele>896.0</ele><time>2026-05-02T12:39:50.001Z</time></trkpt><trkpt lat="40.186816019471586" lon="9.351214512528232"><ele>896.0</ele><time>2026-05-02T12:39:51.001Z</time></trkpt><trkpt lat="40.186730533135886" lon="9.351076035287122"><ele>896.0</ele><time>2026-05-02T12:39:52.001Z</time></trkpt><trkpt lat="40.18664821843374" lon="9.350919174456802"><ele>896.0</ele><time>2026-05-02T12:39:53.001Z</time></trkpt><trkpt lat="40.186572461341875" lon="9.350752503681377"><ele>896.0</ele><time>2026-05-02T12:39:54.001Z</time></trkpt><trkpt lat="40.18650472437987" lon="9.350576772546543"><ele>902.25</ele><time>2026-05-02T12:39:55.001Z</time></trkpt><trkpt lat="40.186440933925766" lon="9.350407458903444"><ele>908.5</ele><time>2026-05-02T12:39:56.001Z</time></trkpt><trkpt lat="40.18638054730787" lon="9.350230218049528"><ele>914.75</ele><time>2026-05-02T12:39:57.001Z</time></trkpt><trkpt lat="40.186318565600544" lon="9.350055473110537"><ele>921.0</ele><time>2026-05-02T12:39:58.001Z</time></trkpt><trkpt lat="40.18626438239492" lon="9.349900057418992"><ele>921.0</ele><time>2026-05-02T12:39:59.001Z</time></trkpt><trkpt lat="40.186201727744425" lon="9.349768135884334"><ele>921.0</ele><time>2026-05-02T12:40:00.001Z</time></trkpt><trkpt lat="40.18611949233827" lon="9.349652736761037"><ele>921.0</ele><time>2026-05-02T12:40:01.001Z</time></trkpt><trkpt lat="40.18602019970299" lon="9.34956828318235"><ele>921.0</ele><time>2026-05-02T12:40:02.001Z</time></trkpt><trkpt lat="40.18590954852763" lon="9.349491432054446"><ele>920.0</ele><time>2026-05-02T12:40:03.001Z</time></trkpt><trkpt lat="40.185782619420614" lon="9.349503174361148"><ele>919.0</ele><time>2026-05-02T12:40:04.001Z</time></trkpt><trkpt lat="40.185655426542276" lon="9.34953370582262"><ele>918.0</ele><time>2026-05-02T12:40:05.001Z</time></trkpt><trkpt lat="40.18552867121196" lon="9.349582994945411"><ele>917.0</ele><time>2026-05-02T12:40:06.001Z</time></trkpt><trkpt lat="40.185392306447966" lon="9.349613799493103"><ele>919.0</ele><time>2026-05-02T12:40:07.001Z</time></trkpt><trkpt lat="40.18526019471168" lon="9.349663753066231"><ele>921.0</ele><time>2026-05-02T12:40:08.001Z</time></trkpt><trkpt lat="40.18511577500452" lon="9.349677832370576"><ele>923.0</ele><time>2026-05-02T12:40:09.001Z</time></trkpt><trkpt lat="40.18496724368739" lon="9.349686227695921"><ele>925.0</ele><time>2026-05-02T12:40:10.001Z</time></trkpt><trkpt lat="40.184819573686326" lon="9.34969203691564"><ele>926.5</ele><time>2026-05-02T12:40:11.001Z</time></trkpt><trkpt lat="40.18466053538111" lon="9.349708284278782"><ele>928.0</ele><time>2026-05-02T12:40:12.001Z</time></trkpt><trkpt lat="40.184526399738985" lon="9.349739327181917"><ele>929.5</ele><time>2026-05-02T12:40:13.001Z</time></trkpt><trkpt lat="40.184389138377625" lon="9.349777640228563"><ele>931.0</ele><time>2026-05-02T12:40:14.001Z</time></trkpt><trkpt lat="40.18426960778495" lon="9.349835317876988"><ele>931.1999999999999</ele><time>2026-05-02T12:40:15.001Z</time></trkpt><trkpt lat="40.18415892885096" lon="9.349876454506616"><ele>931.3999999999999</ele><time>2026-05-02T12:40:16.001Z</time></trkpt><trkpt lat="40.184065408859986" lon="9.349915933735291"><ele>931.6</ele><time>2026-05-02T12:40:17.001Z</time></trkpt><trkpt lat="40.18396590135105" lon="9.349941341282143"><ele>931.8</ele><time>2026-05-02T12:40:18.001Z</time></trkpt><trkpt lat="40.18388545603051" lon="9.349969847128621"><ele>932.0</ele><time>2026-05-02T12:40:19.001Z</time></trkpt><trkpt lat="40.18380318588278" lon="9.349993343073514"><ele>933.2</ele><time>2026-05-02T12:40:20.001Z</time></trkpt><trkpt lat="40.18370830806899" lon="9.349992107227509"><ele>934.4000000000001</ele><time>2026-05-02T12:40:21.001Z</time></trkpt><trkpt lat="40.18361901162022" lon="9.349956683432223"><ele>935.5999999999999</ele><time>2026-05-02T12:40:22.001Z</time></trkpt><trkpt lat="40.18354440196173" lon="9.349888645272785"><ele>936.8</ele><time>2026-05-02T12:40:23.001Z</time></trkpt><trkpt lat="40.18348779073888" lon="9.349797163693191"><ele>938.0</ele><time>2026-05-02T12:40:24.001Z</time></trkpt><trkpt lat="40.18346215946442" lon="9.349690092289869"><ele>938.0</ele><time>2026-05-02T12:40:25.001Z</time></trkpt><trkpt lat="40.18343620922879" lon="9.349567399392573"><ele>938.0</ele><time>2026-05-02T12:40:26.001Z</time></trkpt><trkpt lat="40.18344065503503" lon="9.34944204346317"><ele>938.0</ele><time>2026-05-02T12:40:27.001Z</time></trkpt><trkpt lat="40.18346310494327" lon="9.349310877772862"><ele>938.0</ele><time>2026-05-02T12:40:28.001Z</time></trkpt><trkpt lat="40.183485220902654" lon="9.349187327106394"><ele>938.0</ele><time>2026-05-02T12:40:29.001Z</time></trkpt><trkpt lat="40.18348586255104" lon="9.349080583573912"><ele>938.0</ele><time>2026-05-02T12:40:30.001Z</time></trkpt><trkpt lat="40.183466898255354" lon="9.348987317218729"><ele>938.0</ele><time>2026-05-02T12:40:31.001Z</time></trkpt><trkpt lat="40.18343023314316" lon="9.348893911499427"><ele>938.0</ele><time>2026-05-02T12:40:32.001Z</time></trkpt><trkpt lat="40.183371685274366" lon="9.348796390619265"><ele>938.0</ele><time>2026-05-02T12:40:33.001Z</time></trkpt><trkpt lat="40.18330333463237" lon="9.348706686157358"><ele>938.0</ele><time>2026-05-02T12:40:34.001Z</time></trkpt><trkpt lat="40.18322053622169" lon="9.34860875319774"><ele>940.0</ele><time>2026-05-02T12:40:35.001Z</time></trkpt><trkpt lat="40.183145805874005" lon="9.348493310566456"><ele>942.0</ele><time>2026-05-02T12:40:36.001Z</time></trkpt><trkpt lat="40.18307183617295" lon="9.348403136642695"><ele>944.0</ele><time>2026-05-02T12:40:37.001Z</time></trkpt><trkpt lat="40.182957806702014" lon="9.348281575750734"><ele>946.0</ele><time>2026-05-02T12:40:38.001Z</time></trkpt><trkpt lat="40.18285934366588" lon="9.34816733626414"><ele>946.0</ele><time>2026-05-02T12:40:39.001Z</time></trkpt><trkpt lat="40.18277090910739" lon="9.348061092012738"><ele>946.0</ele><time>2026-05-02T12:40:40.001Z</time></trkpt><trkpt lat="40.182685648278984" lon="9.347953448180466"><ele>946.0</ele><time>2026-05-02T12:40:41.001Z</time></trkpt><trkpt lat="40.182594389191586" lon="9.347845260727407"><ele>946.0</ele><time>2026-05-02T12:40:42.001Z</time></trkpt><trkpt lat="40.182503080215845" lon="9.347733356022097"><ele>943.25</ele><time>2026-05-02T12:40:43.001Z</time></trkpt><trkpt lat="40.18240886533725" lon="9.347617217048123"><ele>940.5</ele><time>2026-05-02T12:40:44.001Z</time></trkpt><trkpt lat="40.182314701067554" lon="9.347506510195732"><ele>937.75</ele><time>2026-05-02T12:40:45.002Z</time></trkpt><trkpt lat="40.182219292692224" lon="9.347400221078734"><ele>935.0</ele><time>2026-05-02T12:40:46.002Z</time></trkpt><trkpt lat="40.182115344994415" lon="9.34729647148664"><ele>934.25</ele><time>2026-05-02T12:40:47.002Z</time></trkpt><trkpt lat="40.18200635333742" lon="9.347202208630593"><ele>933.5</ele><time>2026-05-02T12:40:48.002Z</time></trkpt><trkpt lat="40.181886721781794" lon="9.347115569883382"><ele>932.75</ele><time>2026-05-02T12:40:49.002Z</time></trkpt><trkpt lat="40.18176270837302" lon="9.34701954100846"><ele>932.0</ele><time>2026-05-02T12:40:50.001Z</time></trkpt><trkpt lat="40.181620677889335" lon="9.346971712158945"><ele>935.25</ele><time>2026-05-02T12:40:51.001Z</time></trkpt><trkpt lat="40.181489312838764" lon="9.346913240756411"><ele>938.5</ele><time>2026-05-02T12:40:52.001Z</time></trkpt><trkpt lat="40.1813609321627" lon="9.346859073020255"><ele>941.75</ele><time>2026-05-02T12:40:53.001Z</time></trkpt><trkpt lat="40.18122814481247" lon="9.346801453748844"><ele>945.0</ele><time>2026-05-02T12:40:54.001Z</time></trkpt><trkpt lat="40.181096610380486" lon="9.34674829464953"><ele>945.0</ele><time>2026-05-02T12:40:55.001Z</time></trkpt><trkpt lat="40.18096251480102" lon="9.346698780920015"><ele>945.0</ele><time>2026-05-02T12:40:56.001Z</time></trkpt><trkpt lat="40.18082224628762" lon="9.346622219370175"><ele>945.0</ele><time>2026-05-02T12:40:57.001Z</time></trkpt><trkpt lat="40.180693558770095" lon="9.346579054600708"><ele>945.0</ele><time>2026-05-02T12:40:58.001Z</time></trkpt><trkpt lat="40.180572058178086" lon="9.34649299628527"><ele>948.75</ele><time>2026-05-02T12:40:59.001Z</time></trkpt><trkpt lat="40.18047923237106" lon="9.34637371664484"><ele>952.5</ele><time>2026-05-02T12:41:00.001Z</time></trkpt><trkpt lat="40.18038761236297" lon="9.346266225855626"><ele>956.25</ele><time>2026-05-02T12:41:01.001Z</time></trkpt><trkpt lat="40.18033422238023" lon="9.346119160829769"><ele>960.0</ele><time>2026-05-02T12:41:02.001Z</time></trkpt><trkpt lat="40.18030138135757" lon="9.345959911590272"><ele>960.0</ele><time>2026-05-02T12:41:03.001Z</time></trkpt><trkpt lat="40.18021891654698" lon="9.345842477640122"><ele>960.0</ele><time>2026-05-02T12:41:04.001Z</time></trkpt><trkpt lat="40.1802491025397" lon="9.345631802888022"><ele>960.0</ele><time>2026-05-02T12:41:05.001Z</time></trkpt><trkpt lat="40.18021862668426" lon="9.345468040751713"><ele>960.0</ele><time>2026-05-02T12:41:06.001Z</time></trkpt><trkpt lat="40.180179670419896" lon="9.345331658693462"><ele>959.25</ele><time>2026-05-02T12:41:07.001Z</time></trkpt><trkpt lat="40.18012517836586" lon="9.345209231323631"><ele>958.5</ele><time>2026-05-02T12:41:08.001Z</time></trkpt><trkpt lat="40.18004656732677" lon="9.345111056970003"><ele>957.75</ele><time>2026-05-02T12:41:09.001Z</time></trkpt><trkpt lat="40.179943018528995" lon="9.345056364300612"><ele>957.0</ele><time>2026-05-02T12:41:10.001Z</time></trkpt><trkpt lat="40.179820438263455" lon="9.345023598844683"><ele>957.0</ele><time>2026-05-02T12:41:11.001Z</time></trkpt><trkpt lat="40.179690941774446" lon="9.345001481456398"><ele>957.0</ele><time>2026-05-02T12:41:12.001Z</time></trkpt><trkpt lat="40.17956146565574" lon="9.344963024779682"><ele>957.0</ele><time>2026-05-02T12:41:13.001Z</time></trkpt><trkpt lat="40.17942245474957" lon="9.344967303599075"><ele>957.0</ele><time>2026-05-02T12:41:14.001Z</time></trkpt><trkpt lat="40.179279147493105" lon="9.344932141620735"><ele>957.0</ele><time>2026-05-02T12:41:15.001Z</time></trkpt><trkpt lat="40.17912258087765" lon="9.344915014590367"><ele>957.0</ele><time>2026-05-02T12:41:16.001Z</time></trkpt><trkpt lat="40.17896474355458" lon="9.344897748558326"><ele>957.0</ele><time>2026-05-02T12:41:17.001Z</time></trkpt><trkpt lat="40.17879558853207" lon="9.344888967497157"><ele>959.3333333333333</ele><time>2026-05-02T12:41:18.001Z</time></trkpt><trkpt lat="40.17863164855958" lon="9.344879024641969"><ele>961.6666666666666</ele><time>2026-05-02T12:41:19.001Z</time></trkpt><trkpt lat="40.17847647865219" lon="9.344860296455241"><ele>964.0</ele><time>2026-05-02T12:41:20.001Z</time></trkpt><trkpt lat="40.17832533815776" lon="9.344840795938149"><ele>964.0</ele><time>2026-05-02T12:41:21.001Z</time></trkpt><trkpt lat="40.17818795294364" lon="9.344824940147788"><ele>964.0</ele><time>2026-05-02T12:41:22.001Z</time></trkpt><trkpt lat="40.17804691535394" lon="9.344819206663724"><ele>964.0</ele><time>2026-05-02T12:41:23.001Z</time></trkpt><trkpt lat="40.17792862319924" lon="9.34484354239326"><ele>964.0</ele><time>2026-05-02T12:41:24.001Z</time></trkpt><trkpt lat="40.177818443177" lon="9.344899035000665"><ele>963.0</ele><time>2026-05-02T12:41:25.001Z</time></trkpt><trkpt lat="40.17771654832172" lon="9.344971040905584"><ele>962.0</ele><time>2026-05-02T12:41:26.001Z</time></trkpt><trkpt lat="40.17764141594322" lon="9.345104739266802"><ele>961.0</ele><time>2026-05-02T12:41:27.001Z</time></trkpt><trkpt lat="40.177547274888774" lon="9.345206765197911"><ele>960.0</ele><time>2026-05-02T12:41:28.001Z</time></trkpt><trkpt lat="40.177466424191515" lon="9.345328476439628"><ele>960.0</ele><time>2026-05-02T12:41:29.001Z</time></trkpt><trkpt lat="40.177388401304995" lon="9.345431903567459"><ele>960.0</ele><time>2026-05-02T12:41:30.001Z</time></trkpt><trkpt lat="40.17731269777071" lon="9.345527644426477"><ele>960.0</ele><time>2026-05-02T12:41:31.001Z</time></trkpt><trkpt lat="40.177211089850935" lon="9.345569988431244"><ele>960.0</ele><time>2026-05-02T12:41:32.001Z</time></trkpt><trkpt lat="40.17712550383175" lon="9.345603706585022"><ele>960.0</ele><time>2026-05-02T12:41:33.001Z</time></trkpt><trkpt lat="40.17703678726829" lon="9.345587160731771"><ele>959.6</ele><time>2026-05-02T12:41:34.001Z</time></trkpt><trkpt lat="40.17695543357474" lon="9.345539305084532"><ele>959.2</ele><time>2026-05-02T12:41:35.001Z</time></trkpt><trkpt lat="40.17688516474823" lon="9.345444838106962"><ele>958.8</ele><time>2026-05-02T12:41:36.001Z</time></trkpt><trkpt lat="40.1767915790187" lon="9.345380835899332"><ele>958.4</ele><time>2026-05-02T12:41:37.001Z</time></trkpt><trkpt lat="40.176714478503044" lon="9.345332559850881"><ele>958.0</ele><time>2026-05-02T12:41:38.001Z</time></trkpt><trkpt lat="40.17662529185833" lon="9.345292515881177"><ele>956.75</ele><time>2026-05-02T12:41:39.001Z</time></trkpt><trkpt lat="40.17651843027942" lon="9.34533198923393"><ele>955.5</ele><time>2026-05-02T12:41:40.001Z</time></trkpt><trkpt lat="40.17640815185432" lon="9.34536510731642"><ele>954.25</ele><time>2026-05-02T12:41:41.001Z</time></trkpt><trkpt lat="40.176314672804025" lon="9.34546103961738"><ele>953.0</ele><time>2026-05-02T12:41:42.001Z</time></trkpt><trkpt lat="40.17620996390401" lon="9.345528516821382"><ele>958.5</ele><time>2026-05-02T12:41:43.001Z</time></trkpt><trkpt lat="40.17610774889451" lon="9.345606335770805"><ele>964.0</ele><time>2026-05-02T12:41:44.001Z</time></trkpt><trkpt lat="40.175999975795825" lon="9.345682500883626"><ele>969.5</ele><time>2026-05-02T12:41:45.001Z</time></trkpt><trkpt lat="40.17589080151697" lon="9.345740014788731"><ele>975.0</ele><time>2026-05-02T12:41:46.001Z</time></trkpt><trkpt lat="40.17577362373869" lon="9.345776823088409"><ele>974.0</ele><time>2026-05-02T12:41:47.001Z</time></trkpt><trkpt lat="40.175652343561616" lon="9.345805471957853"><ele>973.0</ele><time>2026-05-02T12:41:48.001Z</time></trkpt><trkpt lat="40.175527048497976" lon="9.345843597977428"><ele>972.0</ele><time>2026-05-02T12:41:49.001Z</time></trkpt><trkpt lat="40.17540265730189" lon="9.345867122568645"><ele>971.0</ele><time>2026-05-02T12:41:50.001Z</time></trkpt><trkpt lat="40.175264631522424" lon="9.345893208740312"><ele>971.0</ele><time>2026-05-02T12:41:51.001Z</time></trkpt><trkpt lat="40.17512042906072" lon="9.345894512962644"><ele>971.0</ele><time>2026-05-02T12:41:52.001Z</time></trkpt><trkpt lat="40.17497801146329" lon="9.345916497758509"><ele>971.0</ele><time>2026-05-02T12:41:53.001Z</time></trkpt><trkpt lat="40.17483642746552" lon="9.345945471849246"><ele>971.0</ele><time>2026-05-02T12:41:54.001Z</time></trkpt><trkpt lat="40.17470240081305" lon="9.345982791783726"><ele>969.75</ele><time>2026-05-02T12:41:55.001Z</time></trkpt><trkpt lat="40.17457381991105" lon="9.34602238739435"><ele>968.5</ele><time>2026-05-02T12:41:56.001Z</time></trkpt><trkpt lat="40.1744529269292" lon="9.346059615564634"><ele>967.25</ele><time>2026-05-02T12:41:57.001Z</time></trkpt><trkpt lat="40.174329183715265" lon="9.346098162304141"><ele>966.0</ele><time>2026-05-02T12:41:58.001Z</time></trkpt><trkpt lat="40.17420841856395" lon="9.34614084223563"><ele>966.0</ele><time>2026-05-02T12:41:59.001Z</time></trkpt><trkpt lat="40.17408890924787" lon="9.346197559942222"><ele>966.0</ele><time>2026-05-02T12:42:00.001Z</time></trkpt><trkpt lat="40.17397925011866" lon="9.346291490669017"><ele>966.0</ele><time>2026-05-02T12:42:01.001Z</time></trkpt><trkpt lat="40.17386183639297" lon="9.34636317369556"><ele>966.0</ele><time>2026-05-02T12:42:02.001Z</time></trkpt><trkpt lat="40.17375886218342" lon="9.346486481342318"><ele>968.25</ele><time>2026-05-02T12:42:03.001Z</time></trkpt><trkpt lat="40.173643157789215" lon="9.346572676601447"><ele>970.5</ele><time>2026-05-02T12:42:04.001Z</time></trkpt><trkpt lat="40.17353394877274" lon="9.346675242517366"><ele>972.75</ele><time>2026-05-02T12:42:05.001Z</time></trkpt><trkpt lat="40.173423232167174" lon="9.346778986983349"><ele>975.0</ele><time>2026-05-02T12:42:06.001Z</time></trkpt><trkpt lat="40.173317761734246" lon="9.346877815641767"><ele>975.0</ele><time>2026-05-02T12:42:07.001Z</time></trkpt><trkpt lat="40.17321131312355" lon="9.346978587722665"><ele>975.0</ele><time>2026-05-02T12:42:08.001Z</time></trkpt><trkpt lat="40.17310631878689" lon="9.347078366243599"><ele>975.0</ele><time>2026-05-02T12:42:09.001Z</time></trkpt><trkpt lat="40.17300229206199" lon="9.34717809488503"><ele>975.0</ele><time>2026-05-02T12:42:10.001Z</time></trkpt><trkpt lat="40.17289840940007" lon="9.347279125064812"><ele>977.0</ele><time>2026-05-02T12:42:11.001Z</time></trkpt><trkpt lat="40.1727927431245" lon="9.347382230008687"><ele>979.0</ele><time>2026-05-02T12:42:12.001Z</time></trkpt><trkpt lat="40.17269955553952" lon="9.347501168468831"><ele>981.0</ele><time>2026-05-02T12:42:13.001Z</time></trkpt><trkpt lat="40.17260482675612" lon="9.347589480091267"><ele>983.0</ele><time>2026-05-02T12:42:14.001Z</time></trkpt><trkpt lat="40.17250111769527" lon="9.347669791383948"><ele>983.0</ele><time>2026-05-02T12:42:15.001Z</time></trkpt><trkpt lat="40.17241770439944" lon="9.34775204224596"><ele>983.0</ele><time>2026-05-02T12:42:16.001Z</time></trkpt><trkpt lat="40.172344165894884" lon="9.347851799680827"><ele>983.0</ele><time>2026-05-02T12:42:17.001Z</time></trkpt><trkpt lat="40.172269056838445" lon="9.34791936333349"><ele>983.0</ele><time>2026-05-02T12:42:18.001Z</time></trkpt><trkpt lat="40.1721923084101" lon="9.347988934354934"><ele>983.0</ele><time>2026-05-02T12:42:19.001Z</time></trkpt><trkpt lat="40.17212243718567" lon="9.348053952842811"><ele>983.6666666666667</ele><time>2026-05-02T12:42:20.001Z</time></trkpt><trkpt lat="40.17205659024112" lon="9.348113719536936"><ele>984.3333333333334</ele><time>2026-05-02T12:42:21.001Z</time></trkpt><trkpt lat="40.1719831104781" lon="9.348177292849542"><ele>985.0</ele><time>2026-05-02T12:42:22.001Z</time></trkpt><trkpt lat="40.171901877704386" lon="9.34823835993276"><ele>985.6666666666667</ele><time>2026-05-02T12:42:23.001Z</time></trkpt><trkpt lat="40.171817087704866" lon="9.34826037231124"><ele>986.3333333333334</ele><time>2026-05-02T12:42:24.001Z</time></trkpt><trkpt lat="40.17175503909926" lon="9.348285537638064"><ele>987.0</ele><time>2026-05-02T12:42:25.001Z</time></trkpt><trkpt lat="40.17165292884166" lon="9.348303294356185"><ele>987.0</ele><time>2026-05-02T12:42:27.001Z</time></trkpt><trkpt lat="40.17158865291627" lon="9.348126300388744"><ele>987.0</ele><time>2026-05-02T12:42:29.001Z</time></trkpt><trkpt lat="40.17154775588118" lon="9.347982088466635"><ele>987.0</ele><time>2026-05-02T12:42:30.001Z</time></trkpt><trkpt lat="40.171505537663236" lon="9.347828193657442"><ele>987.0</ele><time>2026-05-02T12:42:31.001Z</time></trkpt><trkpt lat="40.171461805826304" lon="9.347664024051728"><ele>986.25</ele><time>2026-05-02T12:42:32.001Z</time></trkpt><trkpt lat="40.17142253952246" lon="9.347509147114128"><ele>985.5</ele><time>2026-05-02T12:42:33.001Z</time></trkpt><trkpt lat="40.171377932938974" lon="9.34733545107014"><ele>984.75</ele><time>2026-05-02T12:42:34.001Z</time></trkpt><trkpt lat="40.17132789568306" lon="9.347143732012386"><ele>984.0</ele><time>2026-05-02T12:42:35.001Z</time></trkpt><trkpt lat="40.171277232355166" lon="9.346954726297428"><ele>984.0</ele><time>2026-05-02T12:42:36.001Z</time></trkpt><trkpt lat="40.171225869760484" lon="9.346763111892484"><ele>984.0</ele><time>2026-05-02T12:42:37.001Z</time></trkpt><trkpt lat="40.17116754182024" lon="9.346544863862125"><ele>984.0</ele><time>2026-05-02T12:42:38.001Z</time></trkpt><trkpt lat="40.17110117727267" lon="9.346292292319642"><ele>983.0</ele><time>2026-05-02T12:42:39.001Z</time></trkpt><trkpt lat="40.171029867571995" lon="9.346020900341358"><ele>982.0</ele><time>2026-05-02T12:42:40.001Z</time></trkpt><trkpt lat="40.170954405286764" lon="9.345731541221495"><ele>980.5</ele><time>2026-05-02T12:42:41.001Z</time></trkpt><trkpt lat="40.17087827343043" lon="9.345434632075698"><ele>979.0</ele><time>2026-05-02T12:42:42.001Z</time></trkpt><trkpt lat="40.170803225592465" lon="9.345139240407784"><ele>979.0</ele><time>2026-05-02T12:42:43.001Z</time></trkpt><trkpt lat="40.170718497126025" lon="9.34487401119213"><ele>979.0</ele><time>2026-05-02T12:42:44.001Z</time></trkpt><trkpt lat="40.170648455408184" lon="9.344603621620635"><ele>979.0</ele><time>2026-05-02T12:42:45.001Z</time></trkpt><trkpt lat="40.17057860957797" lon="9.344343485048388"><ele>979.3333333333333</ele><time>2026-05-02T12:42:46.001Z</time></trkpt><trkpt lat="40.170510414184264" lon="9.344089451820349"><ele>979.6666666666667</ele><time>2026-05-02T12:42:47.001Z</time></trkpt><trkpt lat="40.17045689998918" lon="9.343829263947491"><ele>980.0</ele><time>2026-05-02T12:42:48.001Z</time></trkpt><trkpt lat="40.17039218952702" lon="9.34358021975289"><ele>980.0</ele><time>2026-05-02T12:42:49.001Z</time></trkpt><trkpt lat="40.170329491556814" lon="9.343334065757501"><ele>980.0</ele><time>2026-05-02T12:42:50.001Z</time></trkpt><trkpt lat="40.17026546560904" lon="9.343087483998051"><ele>980.0</ele><time>2026-05-02T12:42:51.002Z</time></trkpt><trkpt lat="40.17020125264235" lon="9.342855729524349"><ele>979.3333333333334</ele><time>2026-05-02T12:42:52.002Z</time></trkpt><trkpt lat="40.170122610968285" lon="9.342625919394205"><ele>978.6666666666667</ele><time>2026-05-02T12:42:53.002Z</time></trkpt><trkpt lat="40.17003130726529" lon="9.342409987705556"><ele>978.0</ele><time>2026-05-02T12:42:54.002Z</time></trkpt><trkpt lat="40.169939885136415" lon="9.342198367380131"><ele>976.0</ele><time>2026-05-02T12:42:55.002Z</time></trkpt><trkpt lat="40.16984085866783" lon="9.341974330249974"><ele>974.0</ele><time>2026-05-02T12:42:56.002Z</time></trkpt><trkpt lat="40.169746511162764" lon="9.341763814868056"><ele>972.0</ele><time>2026-05-02T12:42:57.002Z</time></trkpt><trkpt lat="40.16965114363022" lon="9.341551827889306"><ele>972.6666666666667</ele><time>2026-05-02T12:42:58.002Z</time></trkpt><trkpt lat="40.169556472048384" lon="9.341342217740513"><ele>973.3333333333334</ele><time>2026-05-02T12:42:59.002Z</time></trkpt><trkpt lat="40.169464514335644" lon="9.34113572766495"><ele>974.0</ele><time>2026-05-02T12:43:00.001Z</time></trkpt><trkpt lat="40.16937197268403" lon="9.340926286261588"><ele>974.0</ele><time>2026-05-02T12:43:01.001Z</time></trkpt><trkpt lat="40.169282984588925" lon="9.340735065009499"><ele>974.0</ele><time>2026-05-02T12:43:02.001Z</time></trkpt><trkpt lat="40.169192060077954" lon="9.340523415536092"><ele>974.0</ele><time>2026-05-02T12:43:03.001Z</time></trkpt><trkpt lat="40.16908984310412" lon="9.340337808182207"><ele>975.0</ele><time>2026-05-02T12:43:04.001Z</time></trkpt><trkpt lat="40.16900020998726" lon="9.34014039883346"><ele>976.0</ele><time>2026-05-02T12:43:05.001Z</time></trkpt><trkpt lat="40.168907557884" lon="9.33994486498421"><ele>977.0</ele><time>2026-05-02T12:43:06.001Z</time></trkpt><trkpt lat="40.16881767486373" lon="9.339748851776564"><ele>977.3333333333334</ele><time>2026-05-02T12:43:07.001Z</time></trkpt><trkpt lat="40.168723154657435" lon="9.339541593157566"><ele>977.6666666666667</ele><time>2026-05-02T12:43:08.001Z</time></trkpt><trkpt lat="40.16863133790435" lon="9.33934087290486"><ele>978.0</ele><time>2026-05-02T12:43:09.001Z</time></trkpt><trkpt lat="40.16854121365318" lon="9.339141562765567"><ele>978.0</ele><time>2026-05-02T12:43:10.001Z</time></trkpt><trkpt lat="40.16846707155504" lon="9.33894184434356"><ele>978.0</ele><time>2026-05-02T12:43:11.001Z</time></trkpt><trkpt lat="40.168391377034304" lon="9.338754812248945"><ele>978.0</ele><time>2026-05-02T12:43:12.001Z</time></trkpt><trkpt lat="40.16833576076533" lon="9.338569204814549"><ele>977.75</ele><time>2026-05-02T12:43:13.001Z</time></trkpt><trkpt lat="40.168297878110614" lon="9.33839452000362"><ele>977.5</ele><time>2026-05-02T12:43:14.001Z</time></trkpt><trkpt lat="40.168302126958025" lon="9.33821553737016"><ele>977.25</ele><time>2026-05-02T12:43:15.001Z</time></trkpt><trkpt lat="40.168341873944186" lon="9.338033124426167"><ele>977.0</ele><time>2026-05-02T12:43:16.001Z</time></trkpt><trkpt lat="40.16837685129749" lon="9.33782995700297"><ele>977.0</ele><time>2026-05-02T12:43:17.001Z</time></trkpt><trkpt lat="40.16840201471519" lon="9.337613700518357"><ele>977.0</ele><time>2026-05-02T12:43:18.001Z</time></trkpt><trkpt lat="40.168445154897505" lon="9.337388034562752"><ele>977.0</ele><time>2026-05-02T12:43:19.001Z</time></trkpt><trkpt lat="40.16848853721761" lon="9.337160587620055"><ele>977.0</ele><time>2026-05-02T12:43:20.001Z</time></trkpt><trkpt lat="40.168528774651804" lon="9.336924808223978"><ele>977.0</ele><time>2026-05-02T12:43:21.001Z</time></trkpt><trkpt lat="40.16856389218202" lon="9.336694863157003"><ele>977.0</ele><time>2026-05-02T12:43:22.001Z</time></trkpt><trkpt lat="40.16860017867958" lon="9.336462429208021"><ele>977.0</ele><time>2026-05-02T12:43:23.001Z</time></trkpt><trkpt lat="40.16861356771887" lon="9.336235350256443"><ele>977.0</ele><time>2026-05-02T12:43:24.001Z</time></trkpt><trkpt lat="40.16862127235761" lon="9.33602347455963"><ele>977.0</ele><time>2026-05-02T12:43:25.001Z</time></trkpt><trkpt lat="40.16862192478946" lon="9.33582434699093"><ele>977.0</ele><time>2026-05-02T12:43:26.001Z</time></trkpt><trkpt lat="40.16860598617759" lon="9.335647116059624"><ele>977.0</ele><time>2026-05-02T12:43:27.001Z</time></trkpt><trkpt lat="40.1685726741721" lon="9.335480380662872"><ele>977.0</ele><time>2026-05-02T12:43:28.001Z</time></trkpt><trkpt lat="40.16851361602821" lon="9.335329720750527"><ele>977.0</ele><time>2026-05-02T12:43:29.001Z</time></trkpt><trkpt lat="40.1684282923204" lon="9.335181476590181"><ele>977.6666666666667</ele><time>2026-05-02T12:43:30.001Z</time></trkpt><trkpt lat="40.168343900532356" lon="9.335024103096327"><ele>978.3333333333333</ele><time>2026-05-02T12:43:31.001Z</time></trkpt><trkpt lat="40.168220019422805" lon="9.33488243041525"><ele>979.0</ele><time>2026-05-02T12:43:32.001Z</time></trkpt><trkpt lat="40.16801364947181" lon="9.334817336429612"><ele>975.3333333333333</ele><time>2026-05-02T12:43:33.001Z</time></trkpt><trkpt lat="40.1678679614729" lon="9.334683935326208"><ele>971.6666666666667</ele><time>2026-05-02T12:43:34.001Z</time></trkpt><trkpt lat="40.16770859561091" lon="9.334557795263025"><ele>968.0</ele><time>2026-05-02T12:43:35.001Z</time></trkpt><trkpt lat="40.1675529609432" lon="9.334422827921959"><ele>969.3333333333334</ele><time>2026-05-02T12:43:36.001Z</time></trkpt><trkpt lat="40.167320555641524" lon="9.334359418334682"><ele>970.6666666666667</ele><time>2026-05-02T12:43:37.001Z</time></trkpt><trkpt lat="40.16725329055924" lon="9.334200008931495"><ele>972.0</ele><time>2026-05-02T12:43:38.001Z</time></trkpt><trkpt lat="40.16715200238952" lon="9.334081616556952"><ele>972.0</ele><time>2026-05-02T12:43:39.001Z</time></trkpt><trkpt lat="40.167065823323604" lon="9.333963056106214"><ele>972.0</ele><time>2026-05-02T12:43:40.001Z</time></trkpt><trkpt lat="40.16701379644871" lon="9.333822821140133"><ele>972.0</ele><time>2026-05-02T12:43:41.001Z</time></trkpt><trkpt lat="40.16699019707597" lon="9.333672293801769"><ele>972.0</ele><time>2026-05-02T12:43:42.001Z</time></trkpt><trkpt lat="40.16699354945618" lon="9.333499754168551"><ele>972.0</ele><time>2026-05-02T12:43:43.001Z</time></trkpt><trkpt lat="40.1670126375076" lon="9.333355502510129"><ele>972.0</ele><time>2026-05-02T12:43:44.001Z</time></trkpt><trkpt lat="40.167023936414026" lon="9.333137037880425"><ele>972.0</ele><time>2026-05-02T12:43:45.001Z</time></trkpt><trkpt lat="40.16701402922417" lon="9.332971719866618"><ele>972.0</ele><time>2026-05-02T12:43:46.001Z</time></trkpt><trkpt lat="40.16697169875954" lon="9.332821278184396"><ele>971.75</ele><time>2026-05-02T12:43:47.001Z</time></trkpt><trkpt lat="40.16689360054604" lon="9.332689858673085"><ele>971.5</ele><time>2026-05-02T12:43:48.001Z</time></trkpt><trkpt lat="40.16679121112317" lon="9.332581974215094"><ele>971.25</ele><time>2026-05-02T12:43:49.001Z</time></trkpt><trkpt lat="40.166672080745286" lon="9.332466089432707"><ele>971.0</ele><time>2026-05-02T12:43:50.001Z</time></trkpt><trkpt lat="40.16652615346313" lon="9.33237634056613"><ele>972.0</ele><time>2026-05-02T12:43:51.001Z</time></trkpt><trkpt lat="40.16638681983017" lon="9.332243276034173"><ele>973.0</ele><time>2026-05-02T12:43:52.001Z</time></trkpt><trkpt lat="40.16623683532985" lon="9.332125762282946"><ele>974.0</ele><time>2026-05-02T12:43:53.001Z</time></trkpt><trkpt lat="40.16607799918174" lon="9.332001313209956"><ele>971.6666666666667</ele><time>2026-05-02T12:43:54.001Z</time></trkpt><trkpt lat="40.16590738510825" lon="9.331891420252072"><ele>969.3333333333333</ele><time>2026-05-02T12:43:55.001Z</time></trkpt><trkpt lat="40.16575331193855" lon="9.331744678806572"><ele>967.0</ele><time>2026-05-02T12:43:56.001Z</time></trkpt><trkpt lat="40.16558504348459" lon="9.331611205015442"><ele>967.0</ele><time>2026-05-02T12:43:57.001Z</time></trkpt><trkpt lat="40.16542391668502" lon="9.33148339612575"><ele>967.0</ele><time>2026-05-02T12:43:58.001Z</time></trkpt><trkpt lat="40.16526645198855" lon="9.331360178060608"><ele>967.0</ele><time>2026-05-02T12:43:59.001Z</time></trkpt><trkpt lat="40.165106099054334" lon="9.33125901255581"><ele>966.6666666666666</ele><time>2026-05-02T12:44:00.001Z</time></trkpt><trkpt lat="40.164962568750695" lon="9.331123442158862"><ele>966.3333333333333</ele><time>2026-05-02T12:44:01.001Z</time></trkpt><trkpt lat="40.16480881887572" lon="9.331027038577163"><ele>966.0</ele><time>2026-05-02T12:44:02.001Z</time></trkpt><trkpt lat="40.164674008466285" lon="9.33088702262232"><ele>965.3333333333333</ele><time>2026-05-02T12:44:03.001Z</time></trkpt><trkpt lat="40.164537127212014" lon="9.330752875504231"><ele>964.6666666666666</ele><time>2026-05-02T12:44:04.001Z</time></trkpt><trkpt lat="40.164401969377494" lon="9.330602700218586"><ele>964.0</ele><time>2026-05-02T12:44:05.001Z</time></trkpt><trkpt lat="40.16426323968221" lon="9.330460909628032"><ele>963.3333333333333</ele><time>2026-05-02T12:44:06.001Z</time></trkpt><trkpt lat="40.16413378284442" lon="9.330280338890264"><ele>962.6666666666667</ele><time>2026-05-02T12:44:07.001Z</time></trkpt><trkpt lat="40.164000343049906" lon="9.330138496506244"><ele>962.0</ele><time>2026-05-02T12:44:08.001Z</time></trkpt><trkpt lat="40.16387606491097" lon="9.329979813912825"><ele>962.0</ele><time>2026-05-02T12:44:09.001Z</time></trkpt><trkpt lat="40.16374352731531" lon="9.329833309832475"><ele>962.0</ele><time>2026-05-02T12:44:10.001Z</time></trkpt><trkpt lat="40.163613997453204" lon="9.32969340924711"><ele>962.0</ele><time>2026-05-02T12:44:11.001Z</time></trkpt><trkpt lat="40.16348499490531" lon="9.329562666836946"><ele>963.6666666666667</ele><time>2026-05-02T12:44:12.001Z</time></trkpt><trkpt lat="40.16336438767737" lon="9.329421515737524"><ele>965.3333333333333</ele><time>2026-05-02T12:44:13.001Z</time></trkpt><trkpt lat="40.163233313949206" lon="9.329291945651681"><ele>967.0</ele><time>2026-05-02T12:44:14.001Z</time></trkpt><trkpt lat="40.16311439858277" lon="9.329162803722339"><ele>964.6666666666666</ele><time>2026-05-02T12:44:15.001Z</time></trkpt><trkpt lat="40.162997998593696" lon="9.32901188346908"><ele>962.3333333333333</ele><time>2026-05-02T12:44:16.001Z</time></trkpt><trkpt lat="40.162892382940576" lon="9.328846317784175"><ele>960.0</ele><time>2026-05-02T12:44:17.001Z</time></trkpt><trkpt lat="40.16279403537389" lon="9.328666475345955"><ele>960.0</ele><time>2026-05-02T12:44:18.001Z</time></trkpt><trkpt lat="40.16270568658622" lon="9.328493542166267"><ele>960.0</ele><time>2026-05-02T12:44:19.001Z</time></trkpt><trkpt lat="40.16262245736361" lon="9.328338420011951"><ele>960.0</ele><time>2026-05-02T12:44:20.001Z</time></trkpt><trkpt lat="40.16252843315517" lon="9.328191884802795"><ele>960.5</ele><time>2026-05-02T12:44:21.001Z</time></trkpt><trkpt lat="40.16244242756106" lon="9.328048280537963"><ele>961.0</ele><time>2026-05-02T12:44:22.001Z</time></trkpt><trkpt lat="40.16236081984329" lon="9.327885821043806"><ele>961.5</ele><time>2026-05-02T12:44:23.001Z</time></trkpt><trkpt lat="40.16226206015836" lon="9.327743976210277"><ele>962.0</ele><time>2026-05-02T12:44:24.001Z</time></trkpt><trkpt lat="40.16215902733555" lon="9.327609659959316"><ele>960.0</ele><time>2026-05-02T12:44:25.001Z</time></trkpt><trkpt lat="40.1620533437462" lon="9.327479081719854"><ele>958.0</ele><time>2026-05-02T12:44:26.001Z</time></trkpt><trkpt lat="40.16194526184299" lon="9.327352810541097"><ele>956.0</ele><time>2026-05-02T12:44:27.001Z</time></trkpt><trkpt lat="40.161838662161465" lon="9.32722755674311"><ele>954.0</ele><time>2026-05-02T12:44:28.001Z</time></trkpt><trkpt lat="40.16173180111645" lon="9.327102028609124"><ele>954.0</ele><time>2026-05-02T12:44:29.001Z</time></trkpt><trkpt lat="40.161614525296955" lon="9.32699094399619"><ele>954.0</ele><time>2026-05-02T12:44:30.001Z</time></trkpt><trkpt lat="40.1615102708362" lon="9.326867647168239"><ele>954.0</ele><time>2026-05-02T12:44:31.001Z</time></trkpt><trkpt lat="40.161403821194135" lon="9.326735193054382"><ele>954.0</ele><time>2026-05-02T12:44:32.001Z</time></trkpt><trkpt lat="40.1612750048412" lon="9.32663784776791"><ele>951.3333333333333</ele><time>2026-05-02T12:44:33.001Z</time></trkpt><trkpt lat="40.16112763853553" lon="9.326587780734933"><ele>948.6666666666666</ele><time>2026-05-02T12:44:34.001Z</time></trkpt><trkpt lat="40.160980740379124" lon="9.326527927399706"><ele>946.0</ele><time>2026-05-02T12:44:35.001Z</time></trkpt><trkpt lat="40.16083846961343" lon="9.326447759035238"><ele>945.3333333333333</ele><time>2026-05-02T12:44:36.001Z</time></trkpt><trkpt lat="40.160682620271125" lon="9.32640665836142"><ele>944.6666666666667</ele><time>2026-05-02T12:44:37.001Z</time></trkpt><trkpt lat="40.160540257405394" lon="9.326346863277246"><ele>944.0</ele><time>2026-05-02T12:44:38.001Z</time></trkpt><trkpt lat="40.16039722592808" lon="9.326287911801787"><ele>944.0</ele><time>2026-05-02T12:44:39.001Z</time></trkpt><trkpt lat="40.16025792633922" lon="9.326232657033335"><ele>944.0</ele><time>2026-05-02T12:44:40.001Z</time></trkpt><trkpt lat="40.16011736323007" lon="9.326173374040222"><ele>944.0</ele><time>2026-05-02T12:44:41.001Z</time></trkpt><trkpt lat="40.15996852520945" lon="9.326182437577287"><ele>944.0</ele><time>2026-05-02T12:44:42.001Z</time></trkpt><trkpt lat="40.159825650382736" lon="9.326158551661374"><ele>942.25</ele><time>2026-05-02T12:44:43.001Z</time></trkpt><trkpt lat="40.159683223646695" lon="9.326153684685183"><ele>940.5</ele><time>2026-05-02T12:44:44.001Z</time></trkpt><trkpt lat="40.15953236904124" lon="9.326153899006206"><ele>938.75</ele><time>2026-05-02T12:44:45.001Z</time></trkpt><trkpt lat="40.159390866386794" lon="9.32608294498539"><ele>937.0</ele><time>2026-05-02T12:44:46.001Z</time></trkpt><trkpt lat="40.159239794463204" lon="9.326023589683068"><ele>937.0</ele><time>2026-05-02T12:44:47.001Z</time></trkpt><trkpt lat="40.159076008139856" lon="9.325971627444412"><ele>937.0</ele><time>2026-05-02T12:44:48.001Z</time></trkpt><trkpt lat="40.15892270469179" lon="9.3258891208443"><ele>937.0</ele><time>2026-05-02T12:44:49.001Z</time></trkpt><trkpt lat="40.15876557133891" lon="9.32582489811431"><ele>934.6666666666666</ele><time>2026-05-02T12:44:50.001Z</time></trkpt><trkpt lat="40.158605188013865" lon="9.325759423704142"><ele>932.3333333333333</ele><time>2026-05-02T12:44:51.001Z</time></trkpt><trkpt lat="40.15844341561739" lon="9.325694367254718"><ele>930.0</ele><time>2026-05-02T12:44:52.001Z</time></trkpt><trkpt lat="40.15828301824877" lon="9.325630642725203"><ele>929.0</ele><time>2026-05-02T12:44:53.001Z</time></trkpt><trkpt lat="40.15812163228744" lon="9.325566525450721"><ele>928.0</ele><time>2026-05-02T12:44:54.001Z</time></trkpt><trkpt lat="40.15795874113031" lon="9.32550203793691"><ele>927.0</ele><time>2026-05-02T12:44:55.001Z</time></trkpt><trkpt lat="40.15779658106263" lon="9.325441067964263"><ele>926.6666666666667</ele><time>2026-05-02T12:44:56.001Z</time></trkpt><trkpt lat="40.15763205041721" lon="9.325404586557708"><ele>926.3333333333334</ele><time>2026-05-02T12:44:57.001Z</time></trkpt><trkpt lat="40.157474421942645" lon="9.325347754290863"><ele>926.0</ele><time>2026-05-02T12:44:58.001Z</time></trkpt><trkpt lat="40.15731870547264" lon="9.32529509334738"><ele>925.0</ele><time>2026-05-02T12:44:59.001Z</time></trkpt><trkpt lat="40.15717218412074" lon="9.325223052284613"><ele>924.0</ele><time>2026-05-02T12:45:00.001Z</time></trkpt><trkpt lat="40.157025162839105" lon="9.325171754463625"><ele>923.0</ele><time>2026-05-02T12:45:01.001Z</time></trkpt><trkpt lat="40.156879339253464" lon="9.325118853533295"><ele>923.0</ele><time>2026-05-02T12:45:02.001Z</time></trkpt><trkpt lat="40.15673276454154" lon="9.325083404418452"><ele>923.0</ele><time>2026-05-02T12:45:03.001Z</time></trkpt><trkpt lat="40.156597260865645" lon="9.325011997271448"><ele>923.0</ele><time>2026-05-02T12:45:04.001Z</time></trkpt><trkpt lat="40.15646718518391" lon="9.324922513347481"><ele>923.0</ele><time>2026-05-02T12:45:05.001Z</time></trkpt><trkpt lat="40.1563535276556" lon="9.324799454061516"><ele>922.25</ele><time>2026-05-02T12:45:06.001Z</time></trkpt><trkpt lat="40.15622535431591" lon="9.324697447806434"><ele>921.5</ele><time>2026-05-02T12:45:07.001Z</time></trkpt><trkpt lat="40.15610988531742" lon="9.324578796166804"><ele>920.75</ele><time>2026-05-02T12:45:08.001Z</time></trkpt><trkpt lat="40.15600002771" lon="9.324468904039612"><ele>920.0</ele><time>2026-05-02T12:45:09.001Z</time></trkpt><trkpt lat="40.15590367720669" lon="9.324349019781124"><ele>920.0</ele><time>2026-05-02T12:45:10.001Z</time></trkpt><trkpt lat="40.1557928093263" lon="9.324273393857037"><ele>920.0</ele><time>2026-05-02T12:45:11.001Z</time></trkpt><trkpt lat="40.155669938140996" lon="9.324224804330724"><ele>920.0</ele><time>2026-05-02T12:45:12.001Z</time></trkpt><trkpt lat="40.15553453053394" lon="9.324216205022497"><ele>920.0</ele><time>2026-05-02T12:45:13.001Z</time></trkpt><trkpt lat="40.15540099529512" lon="9.324231855129"><ele>920.0</ele><time>2026-05-02T12:45:14.001Z</time></trkpt><trkpt lat="40.15526574405121" lon="9.324247563716266"><ele>920.0</ele><time>2026-05-02T12:45:15.001Z</time></trkpt><trkpt lat="40.15512716904066" lon="9.324265076580176"><ele>920.0</ele><time>2026-05-02T12:45:16.001Z</time></trkpt><trkpt lat="40.154982985471044" lon="9.324283298244513"><ele>920.0</ele><time>2026-05-02T12:45:17.001Z</time></trkpt><trkpt lat="40.15483708978249" lon="9.324301736283001"><ele>919.5</ele><time>2026-05-02T12:45:18.001Z</time></trkpt><trkpt lat="40.15469426581597" lon="9.324321880324755"><ele>919.0</ele><time>2026-05-02T12:45:19.001Z</time></trkpt><trkpt lat="40.15455442286254" lon="9.324345481192333"><ele>918.5</ele><time>2026-05-02T12:45:20.001Z</time></trkpt><trkpt lat="40.1544202934503" lon="9.32439703588007"><ele>918.0</ele><time>2026-05-02T12:45:21.001Z</time></trkpt><trkpt lat="40.15424792225867" lon="9.324563228986774"><ele>918.0</ele><time>2026-05-02T12:45:22.001Z</time></trkpt><trkpt lat="40.15415560675527" lon="9.324494429656138"><ele>918.0</ele><time>2026-05-02T12:45:23.001Z</time></trkpt><trkpt lat="40.15403831582606" lon="9.324485116499078"><ele>918.0</ele><time>2026-05-02T12:45:24.001Z</time></trkpt><trkpt lat="40.153918688170734" lon="9.324467890548148"><ele>918.0</ele><time>2026-05-02T12:45:25.001Z</time></trkpt><trkpt lat="40.15380552848599" lon="9.324416447192263"><ele>917.5</ele><time>2026-05-02T12:45:26.001Z</time></trkpt><trkpt lat="40.15370905684077" lon="9.324315319862238"><ele>917.0</ele><time>2026-05-02T12:45:27.001Z</time></trkpt><trkpt lat="40.15359334143521" lon="9.324234116978818"><ele>916.5</ele><time>2026-05-02T12:45:28.001Z</time></trkpt><trkpt lat="40.153483530518166" lon="9.32412761308631"><ele>916.0</ele><time>2026-05-02T12:45:29.001Z</time></trkpt><trkpt lat="40.153373870251876" lon="9.324016804598404"><ele>916.0</ele><time>2026-05-02T12:45:30.001Z</time></trkpt><trkpt lat="40.153274654265545" lon="9.323898561305024"><ele>916.0</ele><time>2026-05-02T12:45:31.001Z</time></trkpt><trkpt lat="40.153183456298954" lon="9.323771408340543"><ele>916.0</ele><time>2026-05-02T12:45:32.001Z</time></trkpt><trkpt lat="40.153102836463674" lon="9.323632692031984"><ele>916.0</ele><time>2026-05-02T12:45:33.001Z</time></trkpt><trkpt lat="40.153029812663" lon="9.323481975750548"><ele>915.5</ele><time>2026-05-02T12:45:34.001Z</time></trkpt><trkpt lat="40.15295951897618" lon="9.323326022869654"><ele>915.0</ele><time>2026-05-02T12:45:35.001Z</time></trkpt><trkpt lat="40.152892303850415" lon="9.323157735809536"><ele>914.5</ele><time>2026-05-02T12:45:36.001Z</time></trkpt><trkpt lat="40.1528308757413" lon="9.322988214723042"><ele>914.0</ele><time>2026-05-02T12:45:37.001Z</time></trkpt><trkpt lat="40.15277809490195" lon="9.322817078089024"><ele>914.0</ele><time>2026-05-02T12:45:38.001Z</time></trkpt><trkpt lat="40.152733806816784" lon="9.322646923916535"><ele>914.0</ele><time>2026-05-02T12:45:39.001Z</time></trkpt><trkpt lat="40.15268960926537" lon="9.322471510630816"><ele>914.0</ele><time>2026-05-02T12:45:40.001Z</time></trkpt><trkpt lat="40.15264927028155" lon="9.322297238264408"><ele>914.0</ele><time>2026-05-02T12:45:41.001Z</time></trkpt><trkpt lat="40.152616733804834" lon="9.32210948835854"><ele>914.3333333333334</ele><time>2026-05-02T12:45:42.001Z</time></trkpt><trkpt lat="40.152543048474335" lon="9.321927040427534"><ele>914.6666666666667</ele><time>2026-05-02T12:45:43.001Z</time></trkpt><trkpt lat="40.15245424591906" lon="9.321763323565271"><ele>915.0</ele><time>2026-05-02T12:45:44.001Z</time></trkpt><trkpt lat="40.15236171000901" lon="9.321612736358247"><ele>915.0</ele><time>2026-05-02T12:45:45.001Z</time></trkpt><trkpt lat="40.15228153540123" lon="9.321462857081896"><ele>915.0</ele><time>2026-05-02T12:45:46.001Z</time></trkpt><trkpt lat="40.15220406396996" lon="9.321307826836517"><ele>915.0</ele><time>2026-05-02T12:45:47.001Z</time></trkpt><trkpt lat="40.15216108371216" lon="9.321132395346208"><ele>915.0</ele><time>2026-05-02T12:45:48.001Z</time></trkpt><trkpt lat="40.15213107054131" lon="9.320946458071111"><ele>914.5</ele><time>2026-05-02T12:45:49.001Z</time></trkpt><trkpt lat="40.15210419641394" lon="9.320756345285378"><ele>914.0</ele><time>2026-05-02T12:45:50.001Z</time></trkpt><trkpt lat="40.15208007103161" lon="9.320566228126445"><ele>913.5</ele><time>2026-05-02T12:45:51.001Z</time></trkpt><trkpt lat="40.152055273815535" lon="9.320383884429967"><ele>913.0</ele><time>2026-05-02T12:45:52Z</time></trkpt><trkpt lat="40.15203341193893" lon="9.320203291541233"><ele>913.0</ele><time>2026-05-02T12:45:53Z</time></trkpt><trkpt lat="40.1520126122614" lon="9.320022865918201"><ele>913.0</ele><time>2026-05-02T12:45:54Z</time></trkpt><trkpt lat="40.15199142721828" lon="9.319842049166516"><ele>913.0</ele><time>2026-05-02T12:45:55Z</time></trkpt><trkpt lat="40.15196760826291" lon="9.31966188208187"><ele>913.0</ele><time>2026-05-02T12:45:56Z</time></trkpt><trkpt lat="40.151948227507695" lon="9.319480326159434"><ele>913.0</ele><time>2026-05-02T12:45:57Z</time></trkpt><trkpt lat="40.15193425829213" lon="9.319304545791285"><ele>913.0</ele><time>2026-05-02T12:45:58Z</time></trkpt><trkpt lat="40.15192014600334" lon="9.319126266683865"><ele>913.0</ele><time>2026-05-02T12:45:59Z</time></trkpt><trkpt lat="40.15190755145385" lon="9.318943907388132"><ele>913.0</ele><time>2026-05-02T12:46:00Z</time></trkpt><trkpt lat="40.15189434944286" lon="9.318762301213363"><ele>913.0</ele><time>2026-05-02T12:46:01Z</time></trkpt><trkpt lat="40.15188353949465" lon="9.31857951104505"><ele>913.0</ele><time>2026-05-02T12:46:02Z</time></trkpt><trkpt lat="40.151881121572686" lon="9.318409419143341"><ele>913.0</ele><time>2026-05-02T12:46:03Z</time></trkpt><trkpt lat="40.15189448781945" lon="9.318248736990421"><ele>913.0</ele><time>2026-05-02T12:46:04Z</time></trkpt><trkpt lat="40.1519295825881" lon="9.318095653572373"><ele>914.75</ele><time>2026-05-02T12:46:05Z</time></trkpt><trkpt lat="40.15198706773549" lon="9.317962586786832"><ele>916.5</ele><time>2026-05-02T12:46:06Z</time></trkpt><trkpt lat="40.15207382130791" lon="9.317821857213566"><ele>918.25</ele><time>2026-05-02T12:46:07Z</time></trkpt><trkpt lat="40.15215704010972" lon="9.317682513065275"><ele>920.0</ele><time>2026-05-02T12:46:08Z</time></trkpt><trkpt lat="40.15223204784055" lon="9.317537585090514"><ele>920.0</ele><time>2026-05-02T12:46:09Z</time></trkpt><trkpt lat="40.15229171168617" lon="9.317383304057882"><ele>920.0</ele><time>2026-05-02T12:46:10Z</time></trkpt><trkpt lat="40.15233549053182" lon="9.317218041070642"><ele>920.0</ele><time>2026-05-02T12:46:11Z</time></trkpt><trkpt lat="40.152360524408735" lon="9.317039683903051"><ele>920.0</ele><time>2026-05-02T12:46:12Z</time></trkpt><trkpt lat="40.15236471172795" lon="9.316852226621481"><ele>920.5</ele><time>2026-05-02T12:46:13Z</time></trkpt><trkpt lat="40.15237929270803" lon="9.31666572642992"><ele>921.0</ele><time>2026-05-02T12:46:14Z</time></trkpt><trkpt lat="40.15236685688212" lon="9.316482293040519"><ele>921.5</ele><time>2026-05-02T12:46:15Z</time></trkpt><trkpt lat="40.152339404432524" lon="9.316301963321072"><ele>922.0</ele><time>2026-05-02T12:46:16Z</time></trkpt><trkpt lat="40.152309178333304" lon="9.316126093778276"><ele>919.25</ele><time>2026-05-02T12:46:17Z</time></trkpt><trkpt lat="40.152269662538174" lon="9.315949136727893"><ele>916.5</ele><time>2026-05-02T12:46:18Z</time></trkpt><trkpt lat="40.152219886188576" lon="9.3157741598716"><ele>913.75</ele><time>2026-05-02T12:46:19Z</time></trkpt><trkpt lat="40.152167692684976" lon="9.31560057765457"><ele>911.0</ele><time>2026-05-02T12:46:20Z</time></trkpt><trkpt lat="40.1521157915458" lon="9.315427967767029"><ele>908.5</ele><time>2026-05-02T12:46:21Z</time></trkpt><trkpt lat="40.152064026577804" lon="9.315258389632087"><ele>906.0</ele><time>2026-05-02T12:46:22Z</time></trkpt><trkpt lat="40.15201336784062" lon="9.315093441724802"><ele>903.5</ele><time>2026-05-02T12:46:23Z</time></trkpt><trkpt lat="40.15196312593737" lon="9.314930518861056"><ele>901.0</ele><time>2026-05-02T12:46:24Z</time></trkpt><trkpt lat="40.15189803607245" lon="9.314774692031111"><ele>899.25</ele><time>2026-05-02T12:46:25Z</time></trkpt><trkpt lat="40.15180817151679" lon="9.314629297493862"><ele>897.5</ele><time>2026-05-02T12:46:26Z</time></trkpt><trkpt lat="40.15170167300819" lon="9.314495370475086"><ele>895.75</ele><time>2026-05-02T12:46:27Z</time></trkpt><trkpt lat="40.15159245963703" lon="9.3143590797377"><ele>894.0</ele><time>2026-05-02T12:46:28Z</time></trkpt><trkpt lat="40.15148060182223" lon="9.314218041396813"><ele>894.0</ele><time>2026-05-02T12:46:29Z</time></trkpt><trkpt lat="40.15137172319419" lon="9.314079490539608"><ele>894.0</ele><time>2026-05-02T12:46:30Z</time></trkpt><trkpt lat="40.15126355587804" lon="9.313941939381007"><ele>894.0</ele><time>2026-05-02T12:46:31Z</time></trkpt><trkpt lat="40.15114961847411" lon="9.313808308279066"><ele>892.25</ele><time>2026-05-02T12:46:32Z</time></trkpt><trkpt lat="40.151025733695604" lon="9.313691196806712"><ele>890.5</ele><time>2026-05-02T12:46:33Z</time></trkpt><trkpt lat="40.15089636512661" lon="9.31359829317522"><ele>888.75</ele><time>2026-05-02T12:46:34Z</time></trkpt><trkpt lat="40.150774765334894" lon="9.313520592876285"><ele>887.0</ele><time>2026-05-02T12:46:35Z</time></trkpt><trkpt lat="40.150655981793385" lon="9.313463100711163"><ele>886.5</ele><time>2026-05-02T12:46:36Z</time></trkpt><trkpt lat="40.15056585486066" lon="9.313357986075662"><ele>886.0</ele><time>2026-05-02T12:46:37Z</time></trkpt><trkpt lat="40.15050183581318" lon="9.31321794230551"><ele>885.5</ele><time>2026-05-02T12:46:38Z</time></trkpt><trkpt lat="40.150450832262635" lon="9.313072911360136"><ele>885.0</ele><time>2026-05-02T12:46:39Z</time></trkpt><trkpt lat="40.15040951394278" lon="9.312931213176777"><ele>884.6666666666666</ele><time>2026-05-02T12:46:40Z</time></trkpt><trkpt lat="40.15036598022147" lon="9.31280691221157"><ele>884.3333333333333</ele><time>2026-05-02T12:46:41Z</time></trkpt><trkpt lat="40.150331961340136" lon="9.312709045913607"><ele>884.0</ele><time>2026-05-02T12:46:42Z</time></trkpt><trkpt lat="40.15030501760052" lon="9.312630292655163"><ele>883.6666666666666</ele><time>2026-05-02T12:46:43Z</time></trkpt><trkpt lat="40.15027464893585" lon="9.312556442801766"><ele>883.3333333333333</ele><time>2026-05-02T12:46:45Z</time></trkpt><trkpt lat="40.150186555946036" lon="9.312488845670925"><ele>883.0</ele><time>2026-05-02T12:46:49Z</time></trkpt><trkpt lat="40.150120983223445" lon="9.31251970709043"><ele>883.0</ele><time>2026-05-02T12:46:50Z</time></trkpt><trkpt lat="40.15004649488884" lon="9.312571358517959"><ele>883.0</ele><time>2026-05-02T12:46:51Z</time></trkpt><trkpt lat="40.14997742100807" lon="9.31261808801086"><ele>883.0</ele><time>2026-05-02T12:46:52Z</time></trkpt><trkpt lat="40.14990189226682" lon="9.312669044188778"><ele>883.0</ele><time>2026-05-02T12:46:53Z</time></trkpt><trkpt lat="40.14981050354843" lon="9.31271786356495"><ele>883.0</ele><time>2026-05-02T12:46:54Z</time></trkpt><trkpt lat="40.149712631110184" lon="9.312778978845856"><ele>882.25</ele><time>2026-05-02T12:46:55Z</time></trkpt><trkpt lat="40.14960523324894" lon="9.312845870969435"><ele>881.5</ele><time>2026-05-02T12:46:56Z</time></trkpt><trkpt lat="40.14948487606833" lon="9.312899891991"><ele>880.75</ele><time>2026-05-02T12:46:57Z</time></trkpt><trkpt lat="40.149361365815125" lon="9.312973899525165"><ele>880.0</ele><time>2026-05-02T12:46:58Z</time></trkpt><trkpt lat="40.1492391390372" lon="9.313065140886732"><ele>880.25</ele><time>2026-05-02T12:46:59Z</time></trkpt><trkpt lat="40.14910417832091" lon="9.31314104280263"><ele>880.5</ele><time>2026-05-02T12:47:00Z</time></trkpt><trkpt lat="40.14897391580399" lon="9.31321803556734"><ele>880.75</ele><time>2026-05-02T12:47:01Z</time></trkpt><trkpt lat="40.148846320886996" lon="9.31329656644214"><ele>881.0</ele><time>2026-05-02T12:47:02Z</time></trkpt><trkpt lat="40.148723398646176" lon="9.313374721109298"><ele>880.25</ele><time>2026-05-02T12:47:03.001Z</time></trkpt><trkpt lat="40.14860031000941" lon="9.313454266445035"><ele>879.5</ele><time>2026-05-02T12:47:04.001Z</time></trkpt><trkpt lat="40.14847810039931" lon="9.313531402264452"><ele>878.75</ele><time>2026-05-02T12:47:05.001Z</time></trkpt><trkpt lat="40.1483533366816" lon="9.3136036908777"><ele>878.0</ele><time>2026-05-02T12:47:06.001Z</time></trkpt><trkpt lat="40.14822265658507" lon="9.313669914143203"><ele>877.75</ele><time>2026-05-02T12:47:07.001Z</time></trkpt><trkpt lat="40.14809529328353" lon="9.31372967205102"><ele>877.5</ele><time>2026-05-02T12:47:08.001Z</time></trkpt><trkpt lat="40.14796911844089" lon="9.313784630608092"><ele>877.25</ele><time>2026-05-02T12:47:09.001Z</time></trkpt><trkpt lat="40.14784256130459" lon="9.313815904942794"><ele>877.0</ele><time>2026-05-02T12:47:10.001Z</time></trkpt><trkpt lat="40.14772705579426" lon="9.313864978027008"><ele>877.0</ele><time>2026-05-02T12:47:11.001Z</time></trkpt><trkpt lat="40.14761692436221" lon="9.313911767906921"><ele>877.0</ele><time>2026-05-02T12:47:12.001Z</time></trkpt><trkpt lat="40.14751103398689" lon="9.313956651955749"><ele>877.0</ele><time>2026-05-02T12:47:13.001Z</time></trkpt><trkpt lat="40.14740691882176" lon="9.314000405703972"><ele>877.0</ele><time>2026-05-02T12:47:14.001Z</time></trkpt><trkpt lat="40.14730541385642" lon="9.314043062532315"><ele>877.0</ele><time>2026-05-02T12:47:15.001Z</time></trkpt><trkpt lat="40.147210003464934" lon="9.314083158154551"><ele>876.9999999999999</ele><time>2026-05-02T12:47:16.001Z</time></trkpt><trkpt lat="40.147127589532055" lon="9.314117636803747"><ele>877.0</ele><time>2026-05-02T12:47:17.001Z</time></trkpt><trkpt lat="40.14706455171157" lon="9.314165842331366"><ele>877.0</ele><time>2026-05-02T12:47:18.001Z</time></trkpt><trkpt lat="40.14696500205913" lon="9.314207652635195"><ele>877.0</ele><time>2026-05-02T12:47:20.001Z</time></trkpt><trkpt lat="40.146894249356976" lon="9.31421479742922"><ele>876.9999999999999</ele><time>2026-05-02T12:47:22.001Z</time></trkpt><trkpt lat="40.1468600108178" lon="9.31431642841368"><ele>877.0</ele><time>2026-05-02T12:47:24.001Z</time></trkpt><trkpt lat="40.14684788390743" lon="9.31444500745183"><ele>876.9999999999999</ele><time>2026-05-02T12:47:26.001Z</time></trkpt><trkpt lat="40.14687064918889" lon="9.314522570291453"><ele>877.0</ele><time>2026-05-02T12:47:27.001Z</time></trkpt><trkpt lat="40.1469690182958" lon="9.314641313129655"><ele>877.0</ele><time>2026-05-02T12:47:29.001Z</time></trkpt><trkpt lat="40.14702568211169" lon="9.314683752684033"><ele>877.0</ele><time>2026-05-02T12:47:30Z</time></trkpt><trkpt lat="40.14708753595811" lon="9.314741147892438"><ele>876.9999999999999</ele><time>2026-05-02T12:47:31Z</time></trkpt><trkpt lat="40.14714510247581" lon="9.3148255646643"><ele>877.0</ele><time>2026-05-02T12:47:32Z</time></trkpt><trkpt lat="40.147197002799075" lon="9.31493455646446"><ele>878.2</ele><time>2026-05-02T12:47:33Z</time></trkpt><trkpt lat="40.147234821411985" lon="9.315065588109114"><ele>879.4000000000001</ele><time>2026-05-02T12:47:34Z</time></trkpt><trkpt lat="40.147253884962424" lon="9.315186673569068"><ele>880.5999999999999</ele><time>2026-05-02T12:47:35Z</time></trkpt><trkpt lat="40.1472581322197" lon="9.315317006871268"><ele>881.8</ele><time>2026-05-02T12:47:36Z</time></trkpt><trkpt lat="40.147242375204165" lon="9.315453555409697"><ele>883.0</ele><time>2026-05-02T12:47:37Z</time></trkpt><trkpt lat="40.14720990340404" lon="9.315584686119678"><ele>884.25</ele><time>2026-05-02T12:47:38Z</time></trkpt><trkpt lat="40.14715018735573" lon="9.315699918026743"><ele>885.5</ele><time>2026-05-02T12:47:39Z</time></trkpt><trkpt lat="40.14707448101358" lon="9.315805218431564"><ele>886.75</ele><time>2026-05-02T12:47:40Z</time></trkpt><trkpt lat="40.14698056536833" lon="9.315905375451477"><ele>888.0</ele><time>2026-05-02T12:47:41Z</time></trkpt><trkpt lat="40.14687078529298" lon="9.316008245631684"><ele>888.0</ele><time>2026-05-02T12:47:42Z</time></trkpt><trkpt lat="40.14676294538958" lon="9.316108407650253"><ele>888.0</ele><time>2026-05-02T12:47:43Z</time></trkpt><trkpt lat="40.14665007639821" lon="9.316206357820857"><ele>888.0</ele><time>2026-05-02T12:47:44Z</time></trkpt><trkpt lat="40.14653806228071" lon="9.31631133156799"><ele>888.0</ele><time>2026-05-02T12:47:45Z</time></trkpt><trkpt lat="40.1464242500206" lon="9.316415433290544"><ele>886.5</ele><time>2026-05-02T12:47:46Z</time></trkpt><trkpt lat="40.14630455907457" lon="9.316517214362586"><ele>885.0</ele><time>2026-05-02T12:47:47Z</time></trkpt><trkpt lat="40.14618045058331" lon="9.316615432326758"><ele>883.5</ele><time>2026-05-02T12:47:48Z</time></trkpt><trkpt lat="40.14605041958795" lon="9.31671813932404"><ele>882.0</ele><time>2026-05-02T12:47:49Z</time></trkpt><trkpt lat="40.145917780499914" lon="9.31682299149469"><ele>882.0</ele><time>2026-05-02T12:47:50Z</time></trkpt><trkpt lat="40.14578918018686" lon="9.316932138581436"><ele>882.0</ele><time>2026-05-02T12:47:51Z</time></trkpt><trkpt lat="40.1456562882426" lon="9.317042041470373"><ele>882.0</ele><time>2026-05-02T12:47:52Z</time></trkpt><trkpt lat="40.145522035117665" lon="9.31714942979489"><ele>881.0</ele><time>2026-05-02T12:47:53Z</time></trkpt><trkpt lat="40.145385900264664" lon="9.317259701483149"><ele>880.0</ele><time>2026-05-02T12:47:54Z</time></trkpt><trkpt lat="40.14524723705549" lon="9.317373604171554"><ele>879.0</ele><time>2026-05-02T12:47:55Z</time></trkpt><trkpt lat="40.1451092091343" lon="9.31748522901918"><ele>879.0</ele><time>2026-05-02T12:47:56Z</time></trkpt><trkpt lat="40.14496923020286" lon="9.317602779776506"><ele>879.0</ele><time>2026-05-02T12:47:57Z</time></trkpt><trkpt lat="40.144829170429745" lon="9.31771893060759"><ele>879.0</ele><time>2026-05-02T12:47:58Z</time></trkpt><trkpt lat="40.144684254940124" lon="9.317835516100475"><ele>878.3333333333333</ele><time>2026-05-02T12:47:59Z</time></trkpt><trkpt lat="40.14453796165848" lon="9.317954746902592"><ele>877.6666666666666</ele><time>2026-05-02T12:48:00Z</time></trkpt><trkpt lat="40.14438837185644" lon="9.318077470153442"><ele>877.0</ele><time>2026-05-02T12:48:01Z</time></trkpt><trkpt lat="40.14423615737949" lon="9.318202413354538"><ele>879.3333333333333</ele><time>2026-05-02T12:48:02Z</time></trkpt><trkpt lat="40.144077850514144" lon="9.318330112428523"><ele>881.6666666666667</ele><time>2026-05-02T12:48:03Z</time></trkpt><trkpt lat="40.14392963162211" lon="9.318448735648476"><ele>884.0</ele><time>2026-05-02T12:48:04Z</time></trkpt><trkpt lat="40.14378444454694" lon="9.31856907019446"><ele>884.3333333333334</ele><time>2026-05-02T12:48:05Z</time></trkpt><trkpt lat="40.14363460668427" lon="9.318685456238363"><ele>884.6666666666667</ele><time>2026-05-02T12:48:06Z</time></trkpt><trkpt lat="40.14348581111804" lon="9.318806863043681"><ele>885.0</ele><time>2026-05-02T12:48:07Z</time></trkpt><trkpt lat="40.14333493798821" lon="9.318928542318329"><ele>887.6666666666667</ele><time>2026-05-02T12:48:08Z</time></trkpt><trkpt lat="40.14318356898377" lon="9.319053337038202"><ele>890.3333333333334</ele><time>2026-05-02T12:48:09Z</time></trkpt><trkpt lat="40.143024951717095" lon="9.319178893115712"><ele>893.0</ele><time>2026-05-02T12:48:10Z</time></trkpt><trkpt lat="40.142875099552796" lon="9.319307704863187"><ele>893.0</ele><time>2026-05-02T12:48:11Z</time></trkpt><trkpt lat="40.14272060997003" lon="9.319429719820981"><ele>893.0</ele><time>2026-05-02T12:48:12Z</time></trkpt><trkpt lat="40.142572900210105" lon="9.319546238759028"><ele>893.0</ele><time>2026-05-02T12:48:13Z</time></trkpt><trkpt lat="40.14242716893078" lon="9.319664454190832"><ele>895.6666666666667</ele><time>2026-05-02T12:48:14Z</time></trkpt><trkpt lat="40.14227299314494" lon="9.319791463061843"><ele>898.3333333333333</ele><time>2026-05-02T12:48:15Z</time></trkpt><trkpt lat="40.14211628487688" lon="9.31992491109498"><ele>901.0</ele><time>2026-05-02T12:48:16Z</time></trkpt><trkpt lat="40.141959407974674" lon="9.320049851935437"><ele>901.0</ele><time>2026-05-02T12:48:17Z</time></trkpt><trkpt lat="40.1418078276011" lon="9.32015950085466"><ele>901.0</ele><time>2026-05-02T12:48:18Z</time></trkpt><trkpt lat="40.14166126652564" lon="9.320276682473114"><ele>901.0</ele><time>2026-05-02T12:48:19Z</time></trkpt><trkpt lat="40.14152285407749" lon="9.320391690489839"><ele>901.5</ele><time>2026-05-02T12:48:20Z</time></trkpt><trkpt lat="40.14139396273877" lon="9.320502682539324"><ele>902.0</ele><time>2026-05-02T12:48:21Z</time></trkpt><trkpt lat="40.14126884900886" lon="9.320605606363769"><ele>902.5</ele><time>2026-05-02T12:48:22Z</time></trkpt><trkpt lat="40.14115125218612" lon="9.320703065676192"><ele>903.0</ele><time>2026-05-02T12:48:23Z</time></trkpt><trkpt lat="40.14103727120487" lon="9.320789936519356"><ele>903.25</ele><time>2026-05-02T12:48:24Z</time></trkpt><trkpt lat="40.14092461333011" lon="9.320882255918047"><ele>903.5</ele><time>2026-05-02T12:48:25Z</time></trkpt><trkpt lat="40.140811428372416" lon="9.320976036076292"><ele>903.75</ele><time>2026-05-02T12:48:26Z</time></trkpt><trkpt lat="40.14069614155509" lon="9.32106873171966"><ele>904.0</ele><time>2026-05-02T12:48:27Z</time></trkpt><trkpt lat="40.140579995501696" lon="9.321163911675962"><ele>904.0</ele><time>2026-05-02T12:48:28Z</time></trkpt><trkpt lat="40.14046504889235" lon="9.321259090675413"><ele>904.0</ele><time>2026-05-02T12:48:29Z</time></trkpt><trkpt lat="40.1403491205627" lon="9.321357839654636"><ele>904.0</ele><time>2026-05-02T12:48:30Z</time></trkpt><trkpt lat="40.140234432482515" lon="9.321451790371164"><ele>904.0</ele><time>2026-05-02T12:48:31Z</time></trkpt><trkpt lat="40.140118978119375" lon="9.321542996065396"><ele>905.25</ele><time>2026-05-02T12:48:32Z</time></trkpt><trkpt lat="40.14000370545208" lon="9.321633503057996"><ele>906.5</ele><time>2026-05-02T12:48:33Z</time></trkpt><trkpt lat="40.13988673271248" lon="9.321726334702454"><ele>907.75</ele><time>2026-05-02T12:48:34Z</time></trkpt><trkpt lat="40.13977261737769" lon="9.321819554699838"><ele>909.0</ele><time>2026-05-02T12:48:35Z</time></trkpt><trkpt lat="40.13965997379375" lon="9.321916618130057"><ele>909.0</ele><time>2026-05-02T12:48:36Z</time></trkpt><trkpt lat="40.13954632639864" lon="9.322007997946354"><ele>909.0</ele><time>2026-05-02T12:48:37Z</time></trkpt><trkpt lat="40.139433607118214" lon="9.322101467990164"><ele>909.0</ele><time>2026-05-02T12:48:38Z</time></trkpt><trkpt lat="40.139321622244665" lon="9.322193586332858"><ele>909.0</ele><time>2026-05-02T12:48:39Z</time></trkpt><trkpt lat="40.13921099540656" lon="9.322284272563113"><ele>909.25</ele><time>2026-05-02T12:48:40Z</time></trkpt><trkpt lat="40.139098234561196" lon="9.322373163817364"><ele>909.5</ele><time>2026-05-02T12:48:41Z</time></trkpt><trkpt lat="40.13898664004885" lon="9.32246306232711"><ele>909.75</ele><time>2026-05-02T12:48:42Z</time></trkpt><trkpt lat="40.138873372979255" lon="9.322552225170003"><ele>910.0</ele><time>2026-05-02T12:48:43Z</time></trkpt><trkpt lat="40.13876098062546" lon="9.322641474901438"><ele>910.0</ele><time>2026-05-02T12:48:44Z</time></trkpt><trkpt lat="40.13865139082919" lon="9.322730857277968"><ele>910.0</ele><time>2026-05-02T12:48:45Z</time></trkpt><trkpt lat="40.13854211657776" lon="9.322819492444237"><ele>910.0</ele><time>2026-05-02T12:48:46Z</time></trkpt><trkpt lat="40.13843137680237" lon="9.322906646613546"><ele>910.0</ele><time>2026-05-02T12:48:47Z</time></trkpt><trkpt lat="40.13832055320377" lon="9.322995132971133"><ele>910.0</ele><time>2026-05-02T12:48:48Z</time></trkpt><trkpt lat="40.13820667186557" lon="9.32308662412141"><ele>910.0</ele><time>2026-05-02T12:48:49Z</time></trkpt><trkpt lat="40.138094996806544" lon="9.323182460840474"><ele>910.0</ele><time>2026-05-02T12:48:50Z</time></trkpt><trkpt lat="40.13795894862033" lon="9.323286814057688"><ele>910.0</ele><time>2026-05-02T12:48:51Z</time></trkpt><trkpt lat="40.13780299229155" lon="9.323404512597902"><ele>910.0</ele><time>2026-05-02T12:48:52Z</time></trkpt><trkpt lat="40.13763976947286" lon="9.32354028801998"><ele>910.0</ele><time>2026-05-02T12:48:53Z</time></trkpt><trkpt lat="40.1374703465231" lon="9.323682999930524"><ele>910.0</ele><time>2026-05-02T12:48:54Z</time></trkpt><trkpt lat="40.13729033431637" lon="9.323836786405186"><ele>910.5</ele><time>2026-05-02T12:48:55Z</time></trkpt><trkpt lat="40.13710295460984" lon="9.32399429491173"><ele>911.0</ele><time>2026-05-02T12:48:56Z</time></trkpt><trkpt lat="40.13690972845295" lon="9.324152249548904"><ele>911.0</ele><time>2026-05-02T12:48:57Z</time></trkpt><trkpt lat="40.136713938117495" lon="9.324310459717555"><ele>911.0</ele><time>2026-05-02T12:48:58Z</time></trkpt><trkpt lat="40.13651721268862" lon="9.324471568060329"><ele>911.5</ele><time>2026-05-02T12:48:59Z</time></trkpt><trkpt lat="40.13632069402809" lon="9.324632279837983"><ele>912.0</ele><time>2026-05-02T12:49:00Z</time></trkpt><trkpt lat="40.136124269494516" lon="9.3247947992201"><ele>912.0</ele><time>2026-05-02T12:49:01Z</time></trkpt><trkpt lat="40.13592801750065" lon="9.324957466791295"><ele>912.0</ele><time>2026-05-02T12:49:02Z</time></trkpt><trkpt lat="40.13573229388567" lon="9.325116651598776"><ele>909.0</ele><time>2026-05-02T12:49:03Z</time></trkpt><trkpt lat="40.13553852528734" lon="9.325272643598913"><ele>906.0</ele><time>2026-05-02T12:49:04Z</time></trkpt><trkpt lat="40.13534605170441" lon="9.325427877175946"><ele>907.6666666666667</ele><time>2026-05-02T12:49:05Z</time></trkpt><trkpt lat="40.135155509463424" lon="9.325583989743516"><ele>909.3333333333334</ele><time>2026-05-02T12:49:06Z</time></trkpt><trkpt lat="40.13496745224921" lon="9.325739143094424"><ele>911.0</ele><time>2026-05-02T12:49:07Z</time></trkpt><trkpt lat="40.13477950502553" lon="9.325891383043489"><ele>911.0</ele><time>2026-05-02T12:49:08Z</time></trkpt><trkpt lat="40.13459326392577" lon="9.326040026191915"><ele>911.0</ele><time>2026-05-02T12:49:09Z</time></trkpt><trkpt lat="40.13441106587623" lon="9.326186423150295"><ele>911.0</ele><time>2026-05-02T12:49:10Z</time></trkpt><trkpt lat="40.13423188797612" lon="9.326331104450514"><ele>912.6666666666667</ele><time>2026-05-02T12:49:11Z</time></trkpt><trkpt lat="40.134054698751946" lon="9.326474039934185"><ele>914.3333333333333</ele><time>2026-05-02T12:49:12Z</time></trkpt><trkpt lat="40.133874294750434" lon="9.326620991175556"><ele>916.0</ele><time>2026-05-02T12:49:13Z</time></trkpt><trkpt lat="40.13369413106809" lon="9.326769090012043"><ele>916.0</ele><time>2026-05-02T12:49:14Z</time></trkpt><trkpt lat="40.13351369886289" lon="9.326916877542509"><ele>916.0</ele><time>2026-05-02T12:49:15Z</time></trkpt><trkpt lat="40.133330728279304" lon="9.327061831739968"><ele>916.0</ele><time>2026-05-02T12:49:16Z</time></trkpt><trkpt lat="40.1331491295208" lon="9.327205229944406"><ele>916.6666666666666</ele><time>2026-05-02T12:49:17Z</time></trkpt><trkpt lat="40.13297101373092" lon="9.327351785656079"><ele>917.3333333333333</ele><time>2026-05-02T12:49:18Z</time></trkpt><trkpt lat="40.13279313793043" lon="9.327495041197457"><ele>918.0</ele><time>2026-05-02T12:49:19Z</time></trkpt><trkpt lat="40.13261785118394" lon="9.327637588863285"><ele>918.0</ele><time>2026-05-02T12:49:20Z</time></trkpt><trkpt lat="40.13244520439014" lon="9.327778537319277"><ele>918.0</ele><time>2026-05-02T12:49:21Z</time></trkpt><trkpt lat="40.13227364971534" lon="9.32791838870076"><ele>918.0</ele><time>2026-05-02T12:49:22Z</time></trkpt><trkpt lat="40.13210037458763" lon="9.328055685302797"><ele>920.0</ele><time>2026-05-02T12:49:23Z</time></trkpt><trkpt lat="40.13192696805942" lon="9.328189072402678"><ele>922.0</ele><time>2026-05-02T12:49:24Z</time></trkpt><trkpt lat="40.13175310352981" lon="9.328320371802853"><ele>924.0</ele><time>2026-05-02T12:49:25Z</time></trkpt><trkpt lat="40.13157601960419" lon="9.328447037095534"><ele>924.6666666666667</ele><time>2026-05-02T12:49:26Z</time></trkpt><trkpt lat="40.13139929790488" lon="9.328571030573451"><ele>925.3333333333334</ele><time>2026-05-02T12:49:27Z</time></trkpt><trkpt lat="40.13122207853727" lon="9.328695183295018"><ele>926.0</ele><time>2026-05-02T12:49:28Z</time></trkpt><trkpt lat="40.1310403897769" lon="9.328816968540155"><ele>927.0</ele><time>2026-05-02T12:49:29Z</time></trkpt><trkpt lat="40.13085505740805" lon="9.328937233803112"><ele>928.0</ele><time>2026-05-02T12:49:30Z</time></trkpt><trkpt lat="40.13066989043447" lon="9.329057501944748"><ele>929.0</ele><time>2026-05-02T12:49:31Z</time></trkpt><trkpt lat="40.13048346325542" lon="9.329176011736855"><ele>929.6666666666667</ele><time>2026-05-02T12:49:32Z</time></trkpt><trkpt lat="40.13029487962826" lon="9.329291593010298"><ele>930.3333333333333</ele><time>2026-05-02T12:49:33Z</time></trkpt><trkpt lat="40.13010658419869" lon="9.329405280595429"><ele>931.0</ele><time>2026-05-02T12:49:34Z</time></trkpt><trkpt lat="40.12991726277397" lon="9.329515927480337"><ele>931.3333333333333</ele><time>2026-05-02T12:49:35Z</time></trkpt><trkpt lat="40.1297290294665" lon="9.329622397712791"><ele>931.6666666666667</ele><time>2026-05-02T12:49:36Z</time></trkpt><trkpt lat="40.12953834552709" lon="9.329726103070191"><ele>932.0</ele><time>2026-05-02T12:49:37Z</time></trkpt><trkpt lat="40.12934597494214" lon="9.329827346563135"><ele>932.0</ele><time>2026-05-02T12:49:38Z</time></trkpt><trkpt lat="40.129152410955726" lon="9.329926560134549"><ele>932.0</ele><time>2026-05-02T12:49:39Z</time></trkpt><trkpt lat="40.12896028067478" lon="9.330021681438243"><ele>932.0</ele><time>2026-05-02T12:49:40Z</time></trkpt><trkpt lat="40.12876924929993" lon="9.330111635643481"><ele>930.3333333333334</ele><time>2026-05-02T12:49:41Z</time></trkpt><trkpt lat="40.128576871497486" lon="9.33019867917103"><ele>928.6666666666667</ele><time>2026-05-02T12:49:42Z</time></trkpt><trkpt lat="40.128384606403216" lon="9.330282552123355"><ele>927.0</ele><time>2026-05-02T12:49:43Z</time></trkpt><trkpt lat="40.12819299591914" lon="9.330363252629178"><ele>927.0</ele><time>2026-05-02T12:49:44Z</time></trkpt><trkpt lat="40.128002040203924" lon="9.330440882196998"><ele>927.0</ele><time>2026-05-02T12:49:45Z</time></trkpt><trkpt lat="40.127811424567874" lon="9.33051713998712"><ele>927.0</ele><time>2026-05-02T12:49:46Z</time></trkpt><trkpt lat="40.12762276288557" lon="9.330590734468974"><ele>928.3333333333333</ele><time>2026-05-02T12:49:47Z</time></trkpt><trkpt lat="40.12743360352281" lon="9.330661478308711"><ele>929.6666666666666</ele><time>2026-05-02T12:49:48Z</time></trkpt><trkpt lat="40.12723841088181" lon="9.330729242184818"><ele>931.0</ele><time>2026-05-02T12:49:49Z</time></trkpt><trkpt lat="40.127031482909295" lon="9.330794479425972"><ele>931.3333333333333</ele><time>2026-05-02T12:49:50Z</time></trkpt><trkpt lat="40.12681768410441" lon="9.330861532553302"><ele>931.6666666666667</ele><time>2026-05-02T12:49:51Z</time></trkpt><trkpt lat="40.12659656247965" lon="9.330925016977732"><ele>932.0</ele><time>2026-05-02T12:49:52Z</time></trkpt><trkpt lat="40.12636254204268" lon="9.3309893026186"><ele>932.0</ele><time>2026-05-02T12:49:53Z</time></trkpt><trkpt lat="40.12611304361524" lon="9.331060120959043"><ele>932.0</ele><time>2026-05-02T12:49:54Z</time></trkpt><trkpt lat="40.1258518196142" lon="9.331129245630208"><ele>930.5</ele><time>2026-05-02T12:49:55Z</time></trkpt><trkpt lat="40.125587513347774" lon="9.331196155429996"><ele>929.0</ele><time>2026-05-02T12:49:56Z</time></trkpt><trkpt lat="40.12532212452193" lon="9.331258615330825"><ele>929.0</ele><time>2026-05-02T12:49:57Z</time></trkpt><trkpt lat="40.12505871848968" lon="9.33132020590152"><ele>929.0</ele><time>2026-05-02T12:49:58Z</time></trkpt><trkpt lat="40.12479342257314" lon="9.331383993446325"><ele>932.0</ele><time>2026-05-02T12:49:59Z</time></trkpt><trkpt lat="40.1245245599063" lon="9.331451297310252"><ele>935.0</ele><time>2026-05-02T12:50:00Z</time></trkpt><trkpt lat="40.12425022807819" lon="9.331520169867355"><ele>935.0</ele><time>2026-05-02T12:50:01Z</time></trkpt><trkpt lat="40.12397342808475" lon="9.331587660359693"><ele>935.0</ele><time>2026-05-02T12:50:02Z</time></trkpt><trkpt lat="40.12369160990277" lon="9.331656123190335"><ele>935.0</ele><time>2026-05-02T12:50:03Z</time></trkpt><trkpt lat="40.123408611948605" lon="9.33172713210439"><ele>935.0</ele><time>2026-05-02T12:50:04Z</time></trkpt><trkpt lat="40.12312674281457" lon="9.331800672106061"><ele>936.0</ele><time>2026-05-02T12:50:05Z</time></trkpt><trkpt lat="40.12284805897948" lon="9.331880678271899"><ele>937.0</ele><time>2026-05-02T12:50:06Z</time></trkpt><trkpt lat="40.122570266082114" lon="9.331969257855663"><ele>936.0</ele><time>2026-05-02T12:50:07Z</time></trkpt><trkpt lat="40.12229420482869" lon="9.332066228373185"><ele>935.0</ele><time>2026-05-02T12:50:08Z</time></trkpt><trkpt lat="40.122016355999094" lon="9.332150990612103"><ele>937.5</ele><time>2026-05-02T12:50:09Z</time></trkpt><trkpt lat="40.12174289685822" lon="9.332270659244392"><ele>940.0</ele><time>2026-05-02T12:50:10Z</time></trkpt><trkpt lat="40.121473700876706" lon="9.332425111477761"><ele>940.5</ele><time>2026-05-02T12:50:11Z</time></trkpt><trkpt lat="40.12119092362069" lon="9.332552564423487"><ele>941.0</ele><time>2026-05-02T12:50:12Z</time></trkpt><trkpt lat="40.120916206711584" lon="9.332712539692785"><ele>941.5</ele><time>2026-05-02T12:50:13Z</time></trkpt><trkpt lat="40.12064591884912" lon="9.332889134770646"><ele>942.0</ele><time>2026-05-02T12:50:14Z</time></trkpt><trkpt lat="40.12038117277313" lon="9.333073315973216"><ele>942.0</ele><time>2026-05-02T12:50:15Z</time></trkpt><trkpt lat="40.12012319076138" lon="9.333263727354936"><ele>942.0</ele><time>2026-05-02T12:50:16Z</time></trkpt><trkpt lat="40.119878167679396" lon="9.3334758599907"><ele>939.0</ele><time>2026-05-02T12:50:17Z</time></trkpt><trkpt lat="40.11962744787441" lon="9.333668073910303"><ele>936.0</ele><time>2026-05-02T12:50:18Z</time></trkpt><trkpt lat="40.11937964515748" lon="9.33386243219713"><ele>938.5</ele><time>2026-05-02T12:50:19Z</time></trkpt><trkpt lat="40.1191335248302" lon="9.334058981647045"><ele>941.0</ele><time>2026-05-02T12:50:20Z</time></trkpt><trkpt lat="40.11888686040391" lon="9.3342579604371"><ele>941.0</ele><time>2026-05-02T12:50:21Z</time></trkpt><trkpt lat="40.11863537565106" lon="9.334464912221643"><ele>941.0</ele><time>2026-05-02T12:50:22Z</time></trkpt><trkpt lat="40.11837703226825" lon="9.334676221123322"><ele>941.5</ele><time>2026-05-02T12:50:23Z</time></trkpt><trkpt lat="40.11810845546929" lon="9.334871460803685"><ele>942.0</ele><time>2026-05-02T12:50:24Z</time></trkpt><trkpt lat="40.117851151710454" lon="9.335078881937342"><ele>942.0</ele><time>2026-05-02T12:50:25Z</time></trkpt><trkpt lat="40.11759670211425" lon="9.335283558129964"><ele>942.0</ele><time>2026-05-02T12:50:26Z</time></trkpt><trkpt lat="40.11734915011468" lon="9.335483259866631"><ele>941.0</ele><time>2026-05-02T12:50:27Z</time></trkpt><trkpt lat="40.11710584128297" lon="9.335680181818843"><ele>940.0</ele><time>2026-05-02T12:50:28Z</time></trkpt><trkpt lat="40.11686602017914" lon="9.335874280949055"><ele>940.0</ele><time>2026-05-02T12:50:29Z</time></trkpt><trkpt lat="40.11662848815875" lon="9.336066527435598"><ele>940.0</ele><time>2026-05-02T12:50:30Z</time></trkpt><trkpt lat="40.116391952267" lon="9.336257967623741"><ele>943.0</ele><time>2026-05-02T12:50:31Z</time></trkpt><trkpt lat="40.11615604114733" lon="9.336448986035053"><ele>946.0</ele><time>2026-05-02T12:50:32Z</time></trkpt><trkpt lat="40.11591905992079" lon="9.336642149764522"><ele>946.5</ele><time>2026-05-02T12:50:33Z</time></trkpt><trkpt lat="40.1156848675698" lon="9.336850799893437"><ele>947.0</ele><time>2026-05-02T12:50:34Z</time></trkpt><trkpt lat="40.11544399099988" lon="9.337040168088713"><ele>950.5</ele><time>2026-05-02T12:50:35Z</time></trkpt><trkpt lat="40.11520254035511" lon="9.337232672780683"><ele>954.0</ele><time>2026-05-02T12:50:36Z</time></trkpt><trkpt lat="40.114960619612646" lon="9.33742662102057"><ele>951.5</ele><time>2026-05-02T12:50:37Z</time></trkpt><trkpt lat="40.114718896548354" lon="9.337621706903805"><ele>949.0</ele><time>2026-05-02T12:50:38Z</time></trkpt><trkpt lat="40.1144782772792" lon="9.337816981120985"><ele>949.0</ele><time>2026-05-02T12:50:39Z</time></trkpt><trkpt lat="40.11424051427596" lon="9.338010013117273"><ele>949.0</ele><time>2026-05-02T12:50:40Z</time></trkpt><trkpt lat="40.114004602880385" lon="9.338202625869142"><ele>949.5</ele><time>2026-05-02T12:50:40.999Z</time></trkpt><trkpt lat="40.11376982402812" lon="9.338394642707156"><ele>950.0</ele><time>2026-05-02T12:50:41.999Z</time></trkpt><trkpt lat="40.113536163547536" lon="9.338584658954392"><ele>950.0</ele><time>2026-05-02T12:50:42.999Z</time></trkpt><trkpt lat="40.11330564857475" lon="9.33877253316835"><ele>950.0</ele><time>2026-05-02T12:50:43.999Z</time></trkpt><trkpt lat="40.11307417088314" lon="9.338958491865252"><ele>954.5</ele><time>2026-05-02T12:50:44.999Z</time></trkpt><trkpt lat="40.11284285304081" lon="9.339141838223018"><ele>959.0</ele><time>2026-05-02T12:50:45.999Z</time></trkpt><trkpt lat="40.112613388170246" lon="9.339324840326448"><ele>957.0</ele><time>2026-05-02T12:50:46.999Z</time></trkpt><trkpt lat="40.112385074269454" lon="9.33950866639632"><ele>955.0</ele><time>2026-05-02T12:50:47.999Z</time></trkpt><trkpt lat="40.11215652952924" lon="9.33969033777066"><ele>961.5</ele><time>2026-05-02T12:50:48.999Z</time></trkpt><trkpt lat="40.1119208317937" lon="9.339874504484648"><ele>968.0</ele><time>2026-05-02T12:50:49.999Z</time></trkpt><trkpt lat="40.11167717785676" lon="9.340060333413236"><ele>963.0</ele><time>2026-05-02T12:50:50.999Z</time></trkpt><trkpt lat="40.11143258089714" lon="9.340245042963145"><ele>958.0</ele><time>2026-05-02T12:50:51.999Z</time></trkpt><trkpt lat="40.11118959112956" lon="9.340423694184238"><ele>956.5</ele><time>2026-05-02T12:50:52.999Z</time></trkpt><trkpt lat="40.1109470910763" lon="9.340597080606468"><ele>955.0</ele><time>2026-05-02T12:50:53.999Z</time></trkpt><trkpt lat="40.110708214094835" lon="9.34076351316452"><ele>955.0</ele><time>2026-05-02T12:50:54.999Z</time></trkpt><trkpt lat="40.11047170758172" lon="9.340923904442262"><ele>955.0</ele><time>2026-05-02T12:50:55.999Z</time></trkpt><trkpt lat="40.11023741447133" lon="9.341079086194792"><ele>955.0</ele><time>2026-05-02T12:50:56.999Z</time></trkpt><trkpt lat="40.11000944799527" lon="9.341227862490058"><ele>955.0</ele><time>2026-05-02T12:50:57.999Z</time></trkpt><trkpt lat="40.10978287853435" lon="9.34137466927358"><ele>959.0</ele><time>2026-05-02T12:50:58.999Z</time></trkpt><trkpt lat="40.10955728632586" lon="9.341520524060941"><ele>963.0</ele><time>2026-05-02T12:50:59.999Z</time></trkpt><trkpt lat="40.10932468879874" lon="9.341669561058126"><ele>963.0</ele><time>2026-05-02T12:51:00.999Z</time></trkpt><trkpt lat="40.109089569957966" lon="9.341822095555914"><ele>963.0</ele><time>2026-05-02T12:51:01.999Z</time></trkpt><trkpt lat="40.10885494753169" lon="9.341971812900743"><ele>965.5</ele><time>2026-05-02T12:51:02.999Z</time></trkpt><trkpt lat="40.10862695061376" lon="9.342116723952369"><ele>968.0</ele><time>2026-05-02T12:51:03.999Z</time></trkpt><trkpt lat="40.10840948060278" lon="9.342255483581836"><ele>965.0</ele><time>2026-05-02T12:51:04.999Z</time></trkpt><trkpt lat="40.10819777599733" lon="9.342391940721518"><ele>962.0</ele><time>2026-05-02T12:51:05.999Z</time></trkpt><trkpt lat="40.10798839181264" lon="9.342529270271474"><ele>962.0</ele><time>2026-05-02T12:51:06.999Z</time></trkpt><trkpt lat="40.1077794900971" lon="9.342667170198286"><ele>962.0</ele><time>2026-05-02T12:51:07.999Z</time></trkpt><trkpt lat="40.10757748593865" lon="9.342796093680473"><ele>960.5</ele><time>2026-05-02T12:51:08.999Z</time></trkpt><trkpt lat="40.107377894524596" lon="9.342924988716872"><ele>959.0</ele><time>2026-05-02T12:51:09.999Z</time></trkpt><trkpt lat="40.107167514261306" lon="9.343058079641056"><ele>966.0</ele><time>2026-05-02T12:51:10.999Z</time></trkpt><trkpt lat="40.10695472843461" lon="9.343192404882181"><ele>973.0</ele><time>2026-05-02T12:51:11.999Z</time></trkpt><trkpt lat="40.10674083717638" lon="9.343326638592737"><ele>969.0</ele><time>2026-05-02T12:51:12.999Z</time></trkpt><trkpt lat="40.10652291902824" lon="9.343463063943434"><ele>965.0</ele><time>2026-05-02T12:51:14Z</time></trkpt><trkpt lat="40.106304932613625" lon="9.343605687615979"><ele>965.0</ele><time>2026-05-02T12:51:15Z</time></trkpt><trkpt lat="40.10608089223909" lon="9.34375299877404"><ele>965.0</ele><time>2026-05-02T12:51:16Z</time></trkpt><trkpt lat="40.10585820436464" lon="9.343898747798546"><ele>963.5</ele><time>2026-05-02T12:51:17Z</time></trkpt><trkpt lat="40.10563948152591" lon="9.344045827537109"><ele>962.0</ele><time>2026-05-02T12:51:18Z</time></trkpt><trkpt lat="40.105423959199264" lon="9.344190127493754"><ele>962.0</ele><time>2026-05-02T12:51:19Z</time></trkpt><trkpt lat="40.10521190625745" lon="9.344332341957932"><ele>962.0</ele><time>2026-05-02T12:51:20Z</time></trkpt><trkpt lat="40.10500071899178" lon="9.34447637666103"><ele>962.0</ele><time>2026-05-02T12:51:21Z</time></trkpt><trkpt lat="40.104790732349876" lon="9.344614707548542"><ele>962.0</ele><time>2026-05-02T12:51:22Z</time></trkpt><trkpt lat="40.10457942962432" lon="9.344750661303523"><ele>966.5</ele><time>2026-05-02T12:51:23Z</time></trkpt><trkpt lat="40.10436455943668" lon="9.344888627562247"><ele>971.0</ele><time>2026-05-02T12:51:24Z</time></trkpt><trkpt lat="40.10415113032602" lon="9.345026609443439"><ele>967.5</ele><time>2026-05-02T12:51:25Z</time></trkpt><trkpt lat="40.10393652597125" lon="9.345172295995683"><ele>964.0</ele><time>2026-05-02T12:51:26Z</time></trkpt><trkpt lat="40.103699248432434" lon="9.345306429593895"><ele>964.0</ele><time>2026-05-02T12:51:27Z</time></trkpt><trkpt lat="40.10346619480092" lon="9.345457698256686"><ele>964.0</ele><time>2026-05-02T12:51:28Z</time></trkpt><trkpt lat="40.10331942304073" lon="9.345565402540926"><ele>964.0</ele><time>2026-05-02T12:51:29Z</time></trkpt><trkpt lat="40.10311358260998" lon="9.34569682811203"><ele>964.5</ele><time>2026-05-02T12:51:30Z</time></trkpt><trkpt lat="40.1029096381981" lon="9.345826131823827"><ele>965.0</ele><time>2026-05-02T12:51:31Z</time></trkpt><trkpt lat="40.10270564822455" lon="9.345956870190232"><ele>965.0</ele><time>2026-05-02T12:51:32Z</time></trkpt><trkpt lat="40.10249899178874" lon="9.346091056642962"><ele>965.0</ele><time>2026-05-02T12:51:33Z</time></trkpt><trkpt lat="40.10228733851977" lon="9.346227946029952"><ele>966.5</ele><time>2026-05-02T12:51:34Z</time></trkpt><trkpt lat="40.10207381756066" lon="9.346366999508362"><ele>968.0</ele><time>2026-05-02T12:51:35Z</time></trkpt><trkpt lat="40.10185717281392" lon="9.346508771153859"><ele>971.5</ele><time>2026-05-02T12:51:36Z</time></trkpt><trkpt lat="40.101638170693796" lon="9.3466517123965"><ele>975.0</ele><time>2026-05-02T12:51:37Z</time></trkpt><trkpt lat="40.10141390569804" lon="9.346795347599414"><ele>975.0</ele><time>2026-05-02T12:51:38Z</time></trkpt><trkpt lat="40.10118811310884" lon="9.346942379418104"><ele>975.0</ele><time>2026-05-02T12:51:39Z</time></trkpt><trkpt lat="40.100962481772974" lon="9.347096240974123"><ele>978.5</ele><time>2026-05-02T12:51:40Z</time></trkpt><trkpt lat="40.10073769871114" lon="9.347252528289893"><ele>982.0</ele><time>2026-05-02T12:51:41Z</time></trkpt><trkpt lat="40.100513070823034" lon="9.34741674811956"><ele>982.0</ele><time>2026-05-02T12:51:42Z</time></trkpt><trkpt lat="40.10028809527384" lon="9.347589872997982"><ele>982.0</ele><time>2026-05-02T12:51:43Z</time></trkpt><trkpt lat="40.10006870686391" lon="9.347778867233899"><ele>982.0</ele><time>2026-05-02T12:51:44Z</time></trkpt><trkpt lat="40.0998538397146" lon="9.347980892914775"><ele>982.0</ele><time>2026-05-02T12:51:45Z</time></trkpt><trkpt lat="40.0996415431134" lon="9.348194961644209"><ele>982.0</ele><time>2026-05-02T12:51:46Z</time></trkpt><trkpt lat="40.09943009540275" lon="9.34841739185773"><ele>982.0</ele><time>2026-05-02T12:51:47Z</time></trkpt><trkpt lat="40.09922307171887" lon="9.348639251926786"><ele>982.0</ele><time>2026-05-02T12:51:48Z</time></trkpt><trkpt lat="40.09901964337408" lon="9.348859832013922"><ele>982.0</ele><time>2026-05-02T12:51:49Z</time></trkpt><trkpt lat="40.09881803141675" lon="9.349079573292887"><ele>982.0</ele><time>2026-05-02T12:51:50Z</time></trkpt><trkpt lat="40.09862023204266" lon="9.34929795322044"><ele>982.0</ele><time>2026-05-02T12:51:51Z</time></trkpt><trkpt lat="40.098415500475866" lon="9.34951177260781"><ele>983.5</ele><time>2026-05-02T12:51:52Z</time></trkpt><trkpt lat="40.09821421784736" lon="9.349728441898202"><ele>985.0</ele><time>2026-05-02T12:51:53Z</time></trkpt><trkpt lat="40.09801841011779" lon="9.3499427319768"><ele>985.0</ele><time>2026-05-02T12:51:54Z</time></trkpt><trkpt lat="40.097823972799084" lon="9.350155445706203"><ele>985.0</ele><time>2026-05-02T12:51:55Z</time></trkpt><trkpt lat="40.097630701748486" lon="9.350362924712803"><ele>994.0</ele><time>2026-05-02T12:51:56Z</time></trkpt><trkpt lat="40.09743089176314" lon="9.350559972386511"><ele>1003.0</ele><time>2026-05-02T12:51:57Z</time></trkpt><trkpt lat="40.097225833492054" lon="9.350749369655757"><ele>1003.0</ele><time>2026-05-02T12:51:58Z</time></trkpt><trkpt lat="40.097013960785524" lon="9.35092609496194"><ele>1003.0</ele><time>2026-05-02T12:51:59Z</time></trkpt><trkpt lat="40.096795635022666" lon="9.351099863984809"><ele>1003.0</ele><time>2026-05-02T12:52:00Z</time></trkpt><trkpt lat="40.09657041099579" lon="9.351265065551198"><ele>1003.0</ele><time>2026-05-02T12:52:01Z</time></trkpt><trkpt lat="40.096337283484054" lon="9.351417568892286"><ele>1003.0</ele><time>2026-05-02T12:52:02Z</time></trkpt><trkpt lat="40.09609546405836" lon="9.351558301469465"><ele>1003.0</ele><time>2026-05-02T12:52:03Z</time></trkpt><trkpt lat="40.095851329632445" lon="9.351688017157494"><ele>1002.0</ele><time>2026-05-02T12:52:04Z</time></trkpt><trkpt lat="40.09560435949377" lon="9.35180578427985"><ele>1001.0</ele><time>2026-05-02T12:52:05Z</time></trkpt><trkpt lat="40.0953602146609" lon="9.351903356289647"><ele>1001.0</ele><time>2026-05-02T12:52:06Z</time></trkpt><trkpt lat="40.09511415864495" lon="9.35198426109016"><ele>1001.0</ele><time>2026-05-02T12:52:07Z</time></trkpt><trkpt lat="40.094871786132856" lon="9.35205229481574"><ele>996.5</ele><time>2026-05-02T12:52:08Z</time></trkpt><trkpt lat="40.09462776803185" lon="9.352106698405928"><ele>992.0</ele><time>2026-05-02T12:52:09Z</time></trkpt><trkpt lat="40.094385394039605" lon="9.352150167748244"><ele>992.0</ele><time>2026-05-02T12:52:10Z</time></trkpt><trkpt lat="40.09414664175397" lon="9.352182758691061"><ele>992.0</ele><time>2026-05-02T12:52:11Z</time></trkpt><trkpt lat="40.09390760584034" lon="9.352206943878135"><ele>997.5</ele><time>2026-05-02T12:52:12Z</time></trkpt><trkpt lat="40.09366270141442" lon="9.352219801189039"><ele>1003.0</ele><time>2026-05-02T12:52:13Z</time></trkpt><trkpt lat="40.09341184895258" lon="9.35222656637026"><ele>1014.0</ele><time>2026-05-02T12:52:14Z</time></trkpt><trkpt lat="40.093159569447835" lon="9.352228609432993"><ele>1025.0</ele><time>2026-05-02T12:52:15Z</time></trkpt><trkpt lat="40.09290872760472" lon="9.352228538529138"><ele>1025.0</ele><time>2026-05-02T12:52:16Z</time></trkpt><trkpt lat="40.09266155903139" lon="9.352228641895406"><ele>1025.0</ele><time>2026-05-02T12:52:17Z</time></trkpt><trkpt lat="40.09240962983705" lon="9.352230276563212"><ele>1031.0</ele><time>2026-05-02T12:52:18Z</time></trkpt><trkpt lat="40.09216180230811" lon="9.35223359461697"><ele>1037.0</ele><time>2026-05-02T12:52:19Z</time></trkpt><trkpt lat="40.09191341291297" lon="9.352247139839081"><ele>1037.0</ele><time>2026-05-02T12:52:20Z</time></trkpt><trkpt lat="40.09166599220388" lon="9.352280411850773"><ele>1037.0</ele><time>2026-05-02T12:52:21Z</time></trkpt><trkpt lat="40.09142677819026" lon="9.352321727262709"><ele>1036.5</ele><time>2026-05-02T12:52:22Z</time></trkpt><trkpt lat="40.09118693811706" lon="9.352377421693962"><ele>1036.0</ele><time>2026-05-02T12:52:23Z</time></trkpt><trkpt lat="40.09095368401774" lon="9.352458567353558"><ele>1034.0</ele><time>2026-05-02T12:52:24Z</time></trkpt><trkpt lat="40.09071017008034" lon="9.352553917992946"><ele>1032.0</ele><time>2026-05-02T12:52:25Z</time></trkpt><trkpt lat="40.09046671043401" lon="9.35266336278037"><ele>1032.0</ele><time>2026-05-02T12:52:26Z</time></trkpt><trkpt lat="40.09022290071444" lon="9.352790798184552"><ele>1032.0</ele><time>2026-05-02T12:52:27Z</time></trkpt><trkpt lat="40.08997992061473" lon="9.352932197596882"><ele>1037.5</ele><time>2026-05-02T12:52:28Z</time></trkpt><trkpt lat="40.089735460577465" lon="9.353073425010717"><ele>1043.0</ele><time>2026-05-02T12:52:29Z</time></trkpt><trkpt lat="40.08949409113182" lon="9.353225201323669"><ele>1043.0</ele><time>2026-05-02T12:52:30Z</time></trkpt><trkpt lat="40.089250918956935" lon="9.353377942651596"><ele>1043.0</ele><time>2026-05-02T12:52:31Z</time></trkpt><trkpt lat="40.089007352949324" lon="9.353533189919604"><ele>1037.0</ele><time>2026-05-02T12:52:32Z</time></trkpt><trkpt lat="40.08876854038195" lon="9.353687625053034"><ele>1031.0</ele><time>2026-05-02T12:52:33Z</time></trkpt><trkpt lat="40.088538692567916" lon="9.353837434119312"><ele>1032.5</ele><time>2026-05-02T12:52:34Z</time></trkpt><trkpt lat="40.08830920230519" lon="9.35398831213821"><ele>1034.0</ele><time>2026-05-02T12:52:35Z</time></trkpt><trkpt lat="40.088078972043355" lon="9.354125595922543"><ele>1034.0</ele><time>2026-05-02T12:52:36Z</time></trkpt><trkpt lat="40.08784501237983" lon="9.354250380676042"><ele>1034.0</ele><time>2026-05-02T12:52:37Z</time></trkpt><trkpt lat="40.08760987964578" lon="9.354358082495057"><ele>1040.0</ele><time>2026-05-02T12:52:38Z</time></trkpt><trkpt lat="40.08737204877333" lon="9.354451694869017"><ele>1046.0</ele><time>2026-05-02T12:52:39Z</time></trkpt><trkpt lat="40.08713174941791" lon="9.354524096381299"><ele>1046.0</ele><time>2026-05-02T12:52:40Z</time></trkpt><trkpt lat="40.0868913585554" lon="9.354576767624549"><ele>1046.0</ele><time>2026-05-02T12:52:41Z</time></trkpt><trkpt lat="40.086648777595165" lon="9.354606973016915"><ele>1046.5</ele><time>2026-05-02T12:52:42Z</time></trkpt><trkpt lat="40.08640207259831" lon="9.354616634408208"><ele>1047.0</ele><time>2026-05-02T12:52:43Z</time></trkpt><trkpt lat="40.08614851162374" lon="9.354610567244476"><ele>1047.0</ele><time>2026-05-02T12:52:44Z</time></trkpt><trkpt lat="40.08589569446842" lon="9.354597627712442"><ele>1047.0</ele><time>2026-05-02T12:52:45Z</time></trkpt><trkpt lat="40.08564342114522" lon="9.354580367249572"><ele>1050.0</ele><time>2026-05-02T12:52:46Z</time></trkpt><trkpt lat="40.08539179861247" lon="9.354571501891407"><ele>1053.0</ele><time>2026-05-02T12:52:47Z</time></trkpt><trkpt lat="40.085144009092446" lon="9.354568820440665"><ele>1057.0</ele><time>2026-05-02T12:52:48Z</time></trkpt><trkpt lat="40.0848992811213" lon="9.354569715073907"><ele>1061.0</ele><time>2026-05-02T12:52:49Z</time></trkpt><trkpt lat="40.084666078326194" lon="9.35459137994267"><ele>1061.0</ele><time>2026-05-02T12:52:50Z</time></trkpt><trkpt lat="40.08441372583931" lon="9.354631168077516"><ele>1061.0</ele><time>2026-05-02T12:52:51Z</time></trkpt><trkpt lat="40.08422475223718" lon="9.354675815269337"><ele>1061.0</ele><time>2026-05-02T12:52:52Z</time></trkpt><trkpt lat="40.084028573771846" lon="9.354742195821528"><ele>1067.0</ele><time>2026-05-02T12:52:53Z</time></trkpt><trkpt lat="40.08384386705913" lon="9.354816449676147"><ele>1073.0</ele><time>2026-05-02T12:52:54Z</time></trkpt><trkpt lat="40.083652963063436" lon="9.354882997372519"><ele>1079.0</ele><time>2026-05-02T12:52:55Z</time></trkpt><trkpt lat="40.08347476059413" lon="9.354991659147883"><ele>1079.0</ele><time>2026-05-02T12:52:56Z</time></trkpt><trkpt lat="40.08328743762426" lon="9.355079546180988"><ele>1079.0</ele><time>2026-05-02T12:52:57.014Z</time></trkpt><trkpt lat="40.08309959206302" lon="9.355168782444668"><ele>1079.0</ele><time>2026-05-02T12:52:58.016Z</time></trkpt><trkpt lat="40.08291698100274" lon="9.35525731122631"><ele>1083.6666666666667</ele><time>2026-05-02T12:52:59.021Z</time></trkpt><trkpt lat="40.08273460335238" lon="9.35534701915228"><ele>1088.3333333333333</ele><time>2026-05-02T12:53:00.023Z</time></trkpt><trkpt lat="40.08255177533574" lon="9.355433431393806"><ele>1093.0</ele><time>2026-05-02T12:53:01.026Z</time></trkpt><trkpt lat="40.08198856037926" lon="9.35575856993522"><ele>1098.6666666666665</ele><time>2026-05-02T12:53:04.192Z</time></trkpt><trkpt lat="40.08180767961179" lon="9.35585364369209"><ele>1104.3333333333333</ele><time>2026-05-02T12:53:05.192Z</time></trkpt><trkpt lat="40.08162678872162" lon="9.355948720146625"><ele>1110.0</ele><time>2026-05-02T12:53:06.192Z</time></trkpt><trkpt lat="40.081452134014484" lon="9.356063906131686"><ele>1115.0</ele><time>2026-05-02T12:53:07.192Z</time></trkpt><trkpt lat="40.081265041217534" lon="9.35613908866188"><ele>1120.0</ele><time>2026-05-02T12:53:08.192Z</time></trkpt><trkpt lat="40.08108433808303" lon="9.356234752345259"><ele>1125.0</ele><time>2026-05-02T12:53:09.192Z</time></trkpt><trkpt lat="40.08090990087168" lon="9.356350509990946"><ele>1128.3333333333333</ele><time>2026-05-02T12:53:10.192Z</time></trkpt><trkpt lat="40.08072292025615" lon="9.356426085787529"><ele>1131.6666666666665</ele><time>2026-05-02T12:53:11.192Z</time></trkpt><trkpt lat="40.080548492095055" lon="9.356541838652385"><ele>1135.0</ele><time>2026-05-02T12:53:12.192Z</time></trkpt><trkpt lat="40.080361515273864" lon="9.356617412451511"><ele>1135.0</ele><time>2026-05-02T12:53:13.192Z</time></trkpt><trkpt lat="40.0801812385947" lon="9.356712850355327"><ele>1135.0</ele><time>2026-05-02T12:53:14.189Z</time></trkpt><trkpt lat="40.08000091348886" lon="9.356808313891952"><ele>1135.0</ele><time>2026-05-02T12:53:15.187Z</time></trkpt><trkpt lat="40.07982623287907" lon="9.356924200393278"><ele>1142.6666666666665</ele><time>2026-05-02T12:53:16.189Z</time></trkpt><trkpt lat="40.079638751896624" lon="9.357000041089458"><ele>1150.3333333333333</ele><time>2026-05-02T12:53:17.191Z</time></trkpt><trkpt lat="40.07945849942423" lon="9.35709459862136"><ele>1158.0</ele><time>2026-05-02T12:53:18.188Z</time></trkpt><trkpt lat="40.07927668077063" lon="9.357188987305493"><ele>1156.0</ele><time>2026-05-02T12:53:19.192Z</time></trkpt><trkpt lat="40.079102292496714" lon="9.357302865910953"><ele>1154.0</ele><time>2026-05-02T12:53:20.188Z</time></trkpt><trkpt lat="40.078915062188756" lon="9.3573767166957"><ele>1152.0</ele><time>2026-05-02T12:53:21.187Z</time></trkpt><trkpt lat="40.078739249704626" lon="9.357491334658357"><ele>1157.3333333333333</ele><time>2026-05-02T12:53:22.192Z</time></trkpt><trkpt lat="40.078552766274676" lon="9.35756479920527"><ele>1162.6666666666665</ele><time>2026-05-02T12:53:23.187Z</time></trkpt><trkpt lat="40.07837766555341" lon="9.357679046172112"><ele>1168.0</ele><time>2026-05-02T12:53:24.187Z</time></trkpt><trkpt lat="40.078195658091346" lon="9.357773532880406"><ele>1172.6666666666665</ele><time>2026-05-02T12:53:25.192Z</time></trkpt><trkpt lat="40.07801502276146" lon="9.357869343808472"><ele>1177.3333333333333</ele><time>2026-05-02T12:53:26.192Z</time></trkpt><trkpt lat="40.077829048196115" lon="9.35794902954269"><ele>1182.0</ele><time>2026-05-02T12:53:27.192Z</time></trkpt><trkpt lat="40.077656151307195" lon="9.358068604449153"><ele>1182.0</ele><time>2026-05-02T12:53:28.192Z</time></trkpt><trkpt lat="40.07747717375867" lon="9.358167980369313"><ele>1182.0</ele><time>2026-05-02T12:53:29.189Z</time></trkpt><trkpt lat="40.077291123302366" lon="9.358245442884908"><ele>1182.0</ele><time>2026-05-02T12:53:30.188Z</time></trkpt><trkpt lat="40.07710931824744" lon="9.35833992799817"><ele>1188.0</ele><time>2026-05-02T12:53:31.192Z</time></trkpt><trkpt lat="40.07692871618073" lon="9.3584337879269"><ele>1194.0</ele><time>2026-05-02T12:53:32.188Z</time></trkpt><trkpt lat="40.07674718469938" lon="9.358528130870674"><ele>1200.0</ele><time>2026-05-02T12:53:33.19Z</time></trkpt><trkpt lat="40.07656646125404" lon="9.35862205387104"><ele>1208.6666666666667</ele><time>2026-05-02T12:53:34.188Z</time></trkpt><trkpt lat="40.07639080678907" lon="9.358736636901499"><ele>1217.3333333333335</ele><time>2026-05-02T12:53:35.192Z</time></trkpt><trkpt lat="40.07620971636616" lon="9.358831014319982"><ele>1226.0</ele><time>2026-05-02T12:53:36.192Z</time></trkpt><trkpt lat="40.07602927500054" lon="9.358926213967626"><ele>1227.6666666666667</ele><time>2026-05-02T12:53:37.19Z</time></trkpt><trkpt lat="40.075848132014166" lon="9.359021783785657"><ele>1229.3333333333333</ele><time>2026-05-02T12:53:38.192Z</time></trkpt><trkpt lat="40.07566109485922" lon="9.359097066338446"><ele>1231.0</ele><time>2026-05-02T12:53:39.191Z</time></trkpt><trkpt lat="40.07548041467453" lon="9.359192391974469"><ele>1237.0</ele><time>2026-05-02T12:53:40.191Z</time></trkpt><trkpt lat="40.07529964067764" lon="9.359287767116573"><ele>1243.0</ele><time>2026-05-02T12:53:41.191Z</time></trkpt><trkpt lat="40.07512498193098" lon="9.3594033128928"><ele>1249.0</ele><time>2026-05-02T12:53:42.191Z</time></trkpt><trkpt lat="40.074937929400186" lon="9.35947860352272"><ele>1249.3333333333333</ele><time>2026-05-02T12:53:43.192Z</time></trkpt><trkpt lat="40.07476450388868" lon="9.35959582431673"><ele>1249.6666666666667</ele><time>2026-05-02T12:53:44.189Z</time></trkpt><trkpt lat="40.07458397153664" lon="9.359693743632503"><ele>1250.0</ele><time>2026-05-02T12:53:45.191Z</time></trkpt><trkpt lat="40.07439713284841" lon="9.35976985226478"><ele>1244.3333333333335</ele><time>2026-05-02T12:53:46.191Z</time></trkpt><trkpt lat="40.074222787702205" lon="9.359885805935177"><ele>1238.6666666666667</ele><time>2026-05-02T12:53:47.191Z</time></trkpt><trkpt lat="40.074035875653806" lon="9.35996159565166"><ele>1233.0</ele><time>2026-05-02T12:53:48.191Z</time></trkpt><trkpt lat="40.073855359993026" lon="9.360057731917921"><ele>1224.6666666666667</ele><time>2026-05-02T12:53:49.191Z</time></trkpt><trkpt lat="40.07368190145248" lon="9.36017423362762"><ele>1216.3333333333335</ele><time>2026-05-02T12:53:50.188Z</time></trkpt><trkpt lat="40.073494675612835" lon="9.36025121515459"><ele>1208.0</ele><time>2026-05-02T12:53:51.191Z</time></trkpt><trkpt lat="40.073320484024734" lon="9.360367973150321"><ele>1198.3333333333335</ele><time>2026-05-02T12:53:52.192Z</time></trkpt><trkpt lat="40.07313437025627" lon="9.360443559847646"><ele>1188.6666666666667</ele><time>2026-05-02T12:53:53.187Z</time></trkpt><trkpt lat="40.07295318210588" lon="9.360539950853171"><ele>1179.0</ele><time>2026-05-02T12:53:54.191Z</time></trkpt><trkpt lat="40.07277902251569" lon="9.360656027317319"><ele>1172.0</ele><time>2026-05-02T12:53:55.19Z</time></trkpt><trkpt lat="40.072598020428664" lon="9.36075168168578"><ele>1165.0</ele><time>2026-05-02T12:53:56.191Z</time></trkpt><trkpt lat="40.07241724566546" lon="9.360847061619962"><ele>1158.0</ele><time>2026-05-02T12:53:57.191Z</time></trkpt><trkpt lat="40.07223072126742" lon="9.360922078029027"><ele>1148.0</ele><time>2026-05-02T12:53:58.189Z</time></trkpt><trkpt lat="40.07205582870283" lon="9.361037751545357"><ele>1138.0</ele><time>2026-05-02T12:53:59.191Z</time></trkpt><trkpt lat="40.071874894414016" lon="9.361133250434845"><ele>1128.0</ele><time>2026-05-02T12:54:00.191Z</time></trkpt><trkpt lat="40.07169484106515" lon="9.36122838099317"><ele>1128.0</ele><time>2026-05-02T12:54:01.188Z</time></trkpt><trkpt lat="40.071513968743595" lon="9.36132394425286"><ele>1128.0</ele><time>2026-05-02T12:54:02.188Z</time></trkpt><trkpt lat="40.07133264453045" lon="9.36141974626789"><ele>1128.0</ele><time>2026-05-02T12:54:03.191Z</time></trkpt><trkpt lat="40.07115249556337" lon="9.361514948905121"><ele>1128.0</ele><time>2026-05-02T12:54:04.188Z</time></trkpt><trkpt lat="40.07096497827815" lon="9.361591079130433"><ele>1128.0</ele><time>2026-05-02T12:54:05.191Z</time></trkpt><trkpt lat="40.07078450044972" lon="9.36168688978877"><ele>1128.0</ele><time>2026-05-02T12:54:06.19Z</time></trkpt><trkpt lat="40.07060370684673" lon="9.361782868230977"><ele>1119.0</ele><time>2026-05-02T12:54:07.191Z</time></trkpt><trkpt lat="40.07042932577225" lon="9.361898698437843"><ele>1110.0</ele><time>2026-05-02T12:54:08.191Z</time></trkpt><trkpt lat="40.070248520262" lon="9.361993986994936"><ele>1101.0</ele><time>2026-05-02T12:54:09.191Z</time></trkpt><trkpt lat="40.07006145211599" lon="9.362069182662953"><ele>1090.3333333333333</ele><time>2026-05-02T12:54:10.191Z</time></trkpt><trkpt lat="40.069878869725045" lon="9.362165407619708"><ele>1079.6666666666665</ele><time>2026-05-02T12:54:11.201Z</time></trkpt><trkpt lat="40.06970697116948" lon="9.362279395506816"><ele>1069.0</ele><time>2026-05-02T12:54:12.186Z</time></trkpt><trkpt lat="40.06951895201416" lon="9.362354793732427"><ele>1065.5</ele><time>2026-05-02T12:54:13.191Z</time></trkpt><trkpt lat="40.06933802860406" lon="9.36244975422606"><ele>1062.0</ele><time>2026-05-02T12:54:14.191Z</time></trkpt><trkpt lat="40.06906268941289" lon="9.362591680326837"><ele>1058.0</ele><time>2026-05-02T12:54:14.999Z</time></trkpt><trkpt lat="40.06888291344013" lon="9.362665822692442"><ele>1054.0</ele><time>2026-05-02T12:54:15.999Z</time></trkpt><trkpt lat="40.06868400997099" lon="9.362737913845756"><ele>1050.0</ele><time>2026-05-02T12:54:16.999Z</time></trkpt><trkpt lat="40.06849199979606" lon="9.362824547422756"><ele>1047.6666666666667</ele><time>2026-05-02T12:54:17.999Z</time></trkpt><trkpt lat="40.06826660697735" lon="9.362869030469673"><ele>1045.3333333333335</ele><time>2026-05-02T12:54:18.999Z</time></trkpt><trkpt lat="40.06805162457472" lon="9.36290290625736"><ele>1043.0</ele><time>2026-05-02T12:54:19.999Z</time></trkpt><trkpt lat="40.06782075334062" lon="9.36291612400072"><ele>1043.0</ele><time>2026-05-02T12:54:21Z</time></trkpt><trkpt lat="40.067596167949866" lon="9.362933899828784"><ele>1043.0</ele><time>2026-05-02T12:54:22Z</time></trkpt><trkpt lat="40.067367228757135" lon="9.362945401706597"><ele>1049.5</ele><time>2026-05-02T12:54:23Z</time></trkpt><trkpt lat="40.067129328555524" lon="9.362949169207692"><ele>1056.0</ele><time>2026-05-02T12:54:24Z</time></trkpt><trkpt lat="40.06688730944241" lon="9.36295548968165"><ele>1056.0</ele><time>2026-05-02T12:54:25Z</time></trkpt><trkpt lat="40.06665503875173" lon="9.362959577007292"><ele>1056.0</ele><time>2026-05-02T12:54:26Z</time></trkpt><trkpt lat="40.06642500530717" lon="9.362962228916933"><ele>1057.5</ele><time>2026-05-02T12:54:27Z</time></trkpt><trkpt lat="40.06619275651175" lon="9.362966714941829"><ele>1059.0</ele><time>2026-05-02T12:54:28Z</time></trkpt><trkpt lat="40.06595814762087" lon="9.362977936662798"><ele>1056.5</ele><time>2026-05-02T12:54:29Z</time></trkpt><trkpt lat="40.06572785239941" lon="9.362995037208323"><ele>1054.0</ele><time>2026-05-02T12:54:30Z</time></trkpt><trkpt lat="40.06548127681368" lon="9.363014288213959"><ele>1043.5</ele><time>2026-05-02T12:54:31Z</time></trkpt><trkpt lat="40.06524054531077" lon="9.363064009379755"><ele>1033.0</ele><time>2026-05-02T12:54:32Z</time></trkpt><trkpt lat="40.06500152964548" lon="9.363131185587651"><ele>1038.0</ele><time>2026-05-02T12:54:33Z</time></trkpt><trkpt lat="40.06476623861038" lon="9.3632161906288"><ele>1043.0</ele><time>2026-05-02T12:54:34Z</time></trkpt><trkpt lat="40.06453376893726" lon="9.363313165395901"><ele>1043.0</ele><time>2026-05-02T12:54:35Z</time></trkpt><trkpt lat="40.064308225181" lon="9.363436100580046"><ele>1043.0</ele><time>2026-05-02T12:54:36Z</time></trkpt><trkpt lat="40.06408935236372" lon="9.363577661046357"><ele>1047.5</ele><time>2026-05-02T12:54:37Z</time></trkpt><trkpt lat="40.06386093867011" lon="9.363707963012038"><ele>1052.0</ele><time>2026-05-02T12:54:38Z</time></trkpt><trkpt lat="40.063625408667264" lon="9.36383274515664"><ele>1041.0</ele><time>2026-05-02T12:54:39Z</time></trkpt><trkpt lat="40.06339024267701" lon="9.363945341888256"><ele>1030.0</ele><time>2026-05-02T12:54:40Z</time></trkpt><trkpt lat="40.06315349944291" lon="9.364043340135408"><ele>1029.5</ele><time>2026-05-02T12:54:41Z</time></trkpt><trkpt lat="40.06291306039101" lon="9.364122247606002"><ele>1029.0</ele><time>2026-05-02T12:54:42Z</time></trkpt><trkpt lat="40.062672103130815" lon="9.364187464483472"><ele>1026.0</ele><time>2026-05-02T12:54:43Z</time></trkpt><trkpt lat="40.06243101854894" lon="9.36423862331003"><ele>1023.0</ele><time>2026-05-02T12:54:44Z</time></trkpt><trkpt lat="40.062190117836266" lon="9.364273917496986"><ele>1023.0</ele><time>2026-05-02T12:54:45Z</time></trkpt><trkpt lat="40.061952014036656" lon="9.364289843968685"><ele>1023.0</ele><time>2026-05-02T12:54:46Z</time></trkpt><trkpt lat="40.06171596869305" lon="9.364283218319589"><ele>1018.0</ele><time>2026-05-02T12:54:47Z</time></trkpt><trkpt lat="40.06148122760775" lon="9.36425402297176"><ele>1013.0</ele><time>2026-05-02T12:54:48Z</time></trkpt><trkpt lat="40.06124739101995" lon="9.364201425948762"><ele>1013.0</ele><time>2026-05-02T12:54:49Z</time></trkpt><trkpt lat="40.06101313770297" lon="9.364122831912479"><ele>1013.0</ele><time>2026-05-02T12:54:50Z</time></trkpt><trkpt lat="40.06078400249151" lon="9.364024546118452"><ele>1017.0</ele><time>2026-05-02T12:54:51Z</time></trkpt><trkpt lat="40.06055555296907" lon="9.36391078624464"><ele>1021.0</ele><time>2026-05-02T12:54:52Z</time></trkpt><trkpt lat="40.060326147143" lon="9.363787504556964"><ele>1021.0</ele><time>2026-05-02T12:54:53Z</time></trkpt><trkpt lat="40.06010051592188" lon="9.363664022110015"><ele>1021.0</ele><time>2026-05-02T12:54:54Z</time></trkpt><trkpt lat="40.05987325785357" lon="9.363541131546867"><ele>1014.5</ele><time>2026-05-02T12:54:55Z</time></trkpt><trkpt lat="40.059643522581304" lon="9.363427782255627"><ele>1008.0</ele><time>2026-05-02T12:54:56Z</time></trkpt><trkpt lat="40.0594175082621" lon="9.3633076322651"><ele>1008.0</ele><time>2026-05-02T12:54:57Z</time></trkpt><trkpt lat="40.0591777561361" lon="9.36322999165473"><ele>1008.0</ele><time>2026-05-02T12:54:58Z</time></trkpt><trkpt lat="40.0589317771568" lon="9.363183070934953"><ele>1005.0</ele><time>2026-05-02T12:54:59Z</time></trkpt><trkpt lat="40.05868652276662" lon="9.363155546436468"><ele>1002.0</ele><time>2026-05-02T12:55:00Z</time></trkpt><trkpt lat="40.05843894797745" lon="9.363140906152513"><ele>1001.0</ele><time>2026-05-02T12:55:01Z</time></trkpt><trkpt lat="40.05818948985124" lon="9.363144302372717"><ele>1000.0</ele><time>2026-05-02T12:55:02Z</time></trkpt><trkpt lat="40.05794448338847" lon="9.363186089961857"><ele>1000.0</ele><time>2026-05-02T12:55:03Z</time></trkpt><trkpt lat="40.05770176898346" lon="9.363211826963317"><ele>1000.0</ele><time>2026-05-02T12:55:04Z</time></trkpt><trkpt lat="40.05745875738605" lon="9.363246462767545"><ele>996.0</ele><time>2026-05-02T12:55:05Z</time></trkpt><trkpt lat="40.05721900691296" lon="9.363284959672404"><ele>992.0</ele><time>2026-05-02T12:55:06Z</time></trkpt><trkpt lat="40.0569823995039" lon="9.363323471570634"><ele>992.0</ele><time>2026-05-02T12:55:07Z</time></trkpt><trkpt lat="40.05674676337933" lon="9.363363369867255"><ele>992.0</ele><time>2026-05-02T12:55:08Z</time></trkpt><trkpt lat="40.05650988578485" lon="9.363404468424463"><ele>990.5</ele><time>2026-05-02T12:55:09Z</time></trkpt><trkpt lat="40.056271583671325" lon="9.363444096375673"><ele>989.0</ele><time>2026-05-02T12:55:10Z</time></trkpt><trkpt lat="40.05603143348977" lon="9.363481073898226"><ele>989.0</ele><time>2026-05-02T12:55:11Z</time></trkpt><trkpt lat="40.05579313133705" lon="9.363517223614487"><ele>989.0</ele><time>2026-05-02T12:55:12Z</time></trkpt><trkpt lat="40.0555551690909" lon="9.363553487080994"><ele>991.0</ele><time>2026-05-02T12:55:13Z</time></trkpt><trkpt lat="40.05532061249892" lon="9.36359176591021"><ele>993.0</ele><time>2026-05-02T12:55:14Z</time></trkpt><trkpt lat="40.05508986559729" lon="9.36363266367706"><ele>991.0</ele><time>2026-05-02T12:55:15Z</time></trkpt><trkpt lat="40.05485498745902" lon="9.363649092057337"><ele>989.0</ele><time>2026-05-02T12:55:16Z</time></trkpt><trkpt lat="40.05461965266517" lon="9.363684927880472"><ele>989.0</ele><time>2026-05-02T12:55:17Z</time></trkpt><trkpt lat="40.05439092749114" lon="9.363720674710404"><ele>989.0</ele><time>2026-05-02T12:55:18Z</time></trkpt><trkpt lat="40.05416764900738" lon="9.363777398856167"><ele>984.6666666666667</ele><time>2026-05-02T12:55:19Z</time></trkpt><trkpt lat="40.053947731336336" lon="9.363809689163773"><ele>980.3333333333333</ele><time>2026-05-02T12:55:20Z</time></trkpt><trkpt lat="40.05372765390796" lon="9.363843780088452"><ele>976.0</ele><time>2026-05-02T12:55:21Z</time></trkpt><trkpt lat="40.05350874492425" lon="9.363875940206189"><ele>973.0</ele><time>2026-05-02T12:55:22Z</time></trkpt><trkpt lat="40.053289826886406" lon="9.36391177813584"><ele>970.0</ele><time>2026-05-02T12:55:23Z</time></trkpt><trkpt lat="40.05306834280593" lon="9.363948914917234"><ele>967.0</ele><time>2026-05-02T12:55:24Z</time></trkpt><trkpt lat="40.05284961283209" lon="9.363992662332668"><ele>968.0</ele><time>2026-05-02T12:55:25Z</time></trkpt><trkpt lat="40.052628062148116" lon="9.364049795937023"><ele>969.0</ele><time>2026-05-02T12:55:26Z</time></trkpt><trkpt lat="40.05240932732554" lon="9.364123515993015"><ele>969.0</ele><time>2026-05-02T12:55:27Z</time></trkpt><trkpt lat="40.05218484002733" lon="9.36421734321858"><ele>969.0</ele><time>2026-05-02T12:55:28Z</time></trkpt><trkpt lat="40.051964343980906" lon="9.364330470901788"><ele>969.0</ele><time>2026-05-02T12:55:29Z</time></trkpt><trkpt lat="40.0517419443343" lon="9.364440316261787"><ele>969.0</ele><time>2026-05-02T12:55:30Z</time></trkpt><trkpt lat="40.05153415915554" lon="9.364592041016003"><ele>970.0</ele><time>2026-05-02T12:55:31Z</time></trkpt><trkpt lat="40.05133317444909" lon="9.364760935271915"><ele>971.0</ele><time>2026-05-02T12:55:32Z</time></trkpt><trkpt lat="40.05113932627389" lon="9.364944332048507"><ele>971.0</ele><time>2026-05-02T12:55:33Z</time></trkpt><trkpt lat="40.05096231961722" lon="9.365146067928885"><ele>971.0</ele><time>2026-05-02T12:55:34Z</time></trkpt><trkpt lat="40.050791118635296" lon="9.365352809498656"><ele>973.3333333333334</ele><time>2026-05-02T12:55:35Z</time></trkpt><trkpt lat="40.050631757533736" lon="9.365551205242788"><ele>975.6666666666667</ele><time>2026-05-02T12:55:36Z</time></trkpt><trkpt lat="40.050478838725034" lon="9.36574706852401"><ele>978.0</ele><time>2026-05-02T12:55:37Z</time></trkpt><trkpt lat="40.05033181374408" lon="9.365942828032418"><ele>978.0</ele><time>2026-05-02T12:55:38Z</time></trkpt><trkpt lat="40.0501993853847" lon="9.366150451150494"><ele>978.0</ele><time>2026-05-02T12:55:39Z</time></trkpt><trkpt lat="40.050053234097845" lon="9.366336899874339"><ele>978.0</ele><time>2026-05-02T12:55:40Z</time></trkpt><trkpt lat="40.04990307178387" lon="9.366516818704284"><ele>978.0</ele><time>2026-05-02T12:55:41Z</time></trkpt><trkpt lat="40.04974220017101" lon="9.366691118681429"><ele>978.0</ele><time>2026-05-02T12:55:42Z</time></trkpt><trkpt lat="40.049576234707345" lon="9.366853986121017"><ele>978.0</ele><time>2026-05-02T12:55:43Z</time></trkpt><trkpt lat="40.04940295293014" lon="9.367005720269768"><ele>978.0</ele><time>2026-05-02T12:55:44Z</time></trkpt><trkpt lat="40.04921954098795" lon="9.367140463020812"><ele>978.0</ele><time>2026-05-02T12:55:45Z</time></trkpt><trkpt lat="40.04902234315914" lon="9.367264216767126"><ele>978.0</ele><time>2026-05-02T12:55:46Z</time></trkpt><trkpt lat="40.04880611200694" lon="9.36735977856787"><ele>973.0</ele><time>2026-05-02T12:55:47Z</time></trkpt><trkpt lat="40.04858460963599" lon="9.36746353497066"><ele>968.0</ele><time>2026-05-02T12:55:48Z</time></trkpt><trkpt lat="40.04834949725287" lon="9.367553251464262"><ele>972.0</ele><time>2026-05-02T12:55:49Z</time></trkpt><trkpt lat="40.04809216638005" lon="9.367643010938702"><ele>976.0</ele><time>2026-05-02T12:55:50Z</time></trkpt><trkpt lat="40.04782020740838" lon="9.36773896052499"><ele>976.0</ele><time>2026-05-02T12:55:51Z</time></trkpt><trkpt lat="40.04754479713214" lon="9.367839104496676"><ele>976.0</ele><time>2026-05-02T12:55:52Z</time></trkpt><trkpt lat="40.04726714042749" lon="9.367936707581356"><ele>966.0</ele><time>2026-05-02T12:55:53Z</time></trkpt><trkpt lat="40.04698597117213" lon="9.368035444451657"><ele>956.0</ele><time>2026-05-02T12:55:54Z</time></trkpt><trkpt lat="40.04670656665865" lon="9.368132676479458"><ele>956.5</ele><time>2026-05-02T12:55:55Z</time></trkpt><trkpt lat="40.046423509069804" lon="9.368231179722526"><ele>957.0</ele><time>2026-05-02T12:55:56Z</time></trkpt><trkpt lat="40.04613897318123" lon="9.368331146205463"><ele>957.0</ele><time>2026-05-02T12:55:57Z</time></trkpt><trkpt lat="40.04585350279185" lon="9.368454665753095"><ele>957.0</ele><time>2026-05-02T12:55:58Z</time></trkpt><trkpt lat="40.045560503332155" lon="9.368554446845724"><ele>962.5</ele><time>2026-05-02T12:55:58.999Z</time></trkpt><trkpt lat="40.04526799533475" lon="9.368654700828396"><ele>968.0</ele><time>2026-05-02T12:55:59.999Z</time></trkpt><trkpt lat="40.04497694878128" lon="9.368755469482812"><ele>973.0</ele><time>2026-05-02T12:56:00.999Z</time></trkpt><trkpt lat="40.044687091933675" lon="9.368857582242939"><ele>978.0</ele><time>2026-05-02T12:56:01.999Z</time></trkpt><trkpt lat="40.04439914960715" lon="9.36896053548671"><ele>972.0</ele><time>2026-05-02T12:56:02.999Z</time></trkpt><trkpt lat="40.04411324528227" lon="9.369064192106045"><ele>966.0</ele><time>2026-05-02T12:56:03.999Z</time></trkpt><trkpt lat="40.0438307473393" lon="9.369165448820816"><ele>966.0</ele><time>2026-05-02T12:56:04.999Z</time></trkpt><trkpt lat="40.04355233787272" lon="9.369265364307536"><ele>966.0</ele><time>2026-05-02T12:56:05.999Z</time></trkpt><trkpt lat="40.04328028438866" lon="9.369364533915316"><ele>965.5</ele><time>2026-05-02T12:56:06.999Z</time></trkpt><trkpt lat="40.04301214887078" lon="9.369466804750248"><ele>965.0</ele><time>2026-05-02T12:56:07.999Z</time></trkpt><trkpt lat="40.04274399318274" lon="9.369554227186422"><ele>965.0</ele><time>2026-05-02T12:56:08.999Z</time></trkpt><trkpt lat="40.042485681701685" lon="9.369665904671985"><ele>965.0</ele><time>2026-05-02T12:56:09.999Z</time></trkpt><trkpt lat="40.04223571126082" lon="9.36979573441654"><ele>961.0</ele><time>2026-05-02T12:56:10.999Z</time></trkpt><trkpt lat="40.041997995556166" lon="9.36994947539074"><ele>957.0</ele><time>2026-05-02T12:56:11.999Z</time></trkpt><trkpt lat="40.041757753980846" lon="9.370090129561179"><ele>966.0</ele><time>2026-05-02T12:56:12.999Z</time></trkpt><trkpt lat="40.041514262404306" lon="9.370218686737708"><ele>975.0</ele><time>2026-05-02T12:56:13.999Z</time></trkpt><trkpt lat="40.04128396601752" lon="9.370378864476514"><ele>965.0</ele><time>2026-05-02T12:56:14.999Z</time></trkpt><trkpt lat="40.04105670664612" lon="9.37054503821735"><ele>955.0</ele><time>2026-05-02T12:56:15.999Z</time></trkpt><trkpt lat="40.040839008300395" lon="9.370715815556373"><ele>959.5</ele><time>2026-05-02T12:56:16.999Z</time></trkpt><trkpt lat="40.04062746566594" lon="9.370892907739645"><ele>964.0</ele><time>2026-05-02T12:56:17.999Z</time></trkpt><trkpt lat="40.04042721371789" lon="9.371092228791229"><ele>964.0</ele><time>2026-05-02T12:56:18.999Z</time></trkpt><trkpt lat="40.040225084595036" lon="9.37128131758109"><ele>964.0</ele><time>2026-05-02T12:56:19.999Z</time></trkpt><trkpt lat="40.04002908526127" lon="9.371477929389965"><ele>956.0</ele><time>2026-05-02T12:56:20.999Z</time></trkpt><trkpt lat="40.03983460965371" lon="9.371686520997944"><ele>948.0</ele><time>2026-05-02T12:56:21.999Z</time></trkpt><trkpt lat="40.03963981113129" lon="9.371900890622275"><ele>948.0</ele><time>2026-05-02T12:56:22.999Z</time></trkpt><trkpt lat="40.03944760922885" lon="9.372121608333893"><ele>948.0</ele><time>2026-05-02T12:56:23.999Z</time></trkpt><trkpt lat="40.03926112900286" lon="9.372352979037222"><ele>952.0</ele><time>2026-05-02T12:56:24.999Z</time></trkpt><trkpt lat="40.03908036096883" lon="9.372592811781264"><ele>956.0</ele><time>2026-05-02T12:56:25.999Z</time></trkpt><trkpt lat="40.03890152282848" lon="9.372841278450107"><ele>953.5</ele><time>2026-05-02T12:56:27Z</time></trkpt><trkpt lat="40.0387252547986" lon="9.373091303375155"><ele>951.0</ele><time>2026-05-02T12:56:28Z</time></trkpt><trkpt lat="40.0385454483066" lon="9.373344991362925"><ele>951.0</ele><time>2026-05-02T12:56:29Z</time></trkpt><trkpt lat="40.03836401197099" lon="9.373599803404346"><ele>951.0</ele><time>2026-05-02T12:56:30Z</time></trkpt><trkpt lat="40.03818356689158" lon="9.373851069368081"><ele>955.0</ele><time>2026-05-02T12:56:31Z</time></trkpt><trkpt lat="40.0380020869932" lon="9.37409685725878"><ele>959.0</ele><time>2026-05-02T12:56:32Z</time></trkpt><trkpt lat="40.03781537189876" lon="9.374333841956123"><ele>959.0</ele><time>2026-05-02T12:56:33Z</time></trkpt><trkpt lat="40.03762393446248" lon="9.374553860342887"><ele>959.0</ele><time>2026-05-02T12:56:34Z</time></trkpt><trkpt lat="40.03742173188709" lon="9.374749269488403"><ele>958.0</ele><time>2026-05-02T12:56:35Z</time></trkpt><trkpt lat="40.03720936241157" lon="9.374921660650374"><ele>957.0</ele><time>2026-05-02T12:56:36Z</time></trkpt><trkpt lat="40.03698986883787" lon="9.375079364393137"><ele>957.0</ele><time>2026-05-02T12:56:37Z</time></trkpt><trkpt lat="40.03676265793996" lon="9.375217118157558"><ele>957.0</ele><time>2026-05-02T12:56:38Z</time></trkpt><trkpt lat="40.03652593358467" lon="9.37533374332892"><ele>956.0</ele><time>2026-05-02T12:56:39Z</time></trkpt><trkpt lat="40.036284372626454" lon="9.37543551819179"><ele>955.0</ele><time>2026-05-02T12:56:40Z</time></trkpt><trkpt lat="40.036040118909526" lon="9.375527262461274"><ele>947.5</ele><time>2026-05-02T12:56:41Z</time></trkpt><trkpt lat="40.03579563699448" lon="9.375608952162654"><ele>940.0</ele><time>2026-05-02T12:56:42Z</time></trkpt><trkpt lat="40.03555356603909" lon="9.375680067659331"><ele>940.0</ele><time>2026-05-02T12:56:43Z</time></trkpt><trkpt lat="40.0353144177002" lon="9.37575101069647"><ele>940.0</ele><time>2026-05-02T12:56:44Z</time></trkpt><trkpt lat="40.03507811115012" lon="9.375822883479445"><ele>939.5</ele><time>2026-05-02T12:56:45Z</time></trkpt><trkpt lat="40.03484737229611" lon="9.375891953083602"><ele>939.0</ele><time>2026-05-02T12:56:46Z</time></trkpt><trkpt lat="40.03462466916572" lon="9.375959765989132"><ele>939.0</ele><time>2026-05-02T12:56:47Z</time></trkpt><trkpt lat="40.034407819009644" lon="9.376026574382966"><ele>939.0</ele><time>2026-05-02T12:56:48Z</time></trkpt><trkpt lat="40.034192465767916" lon="9.376092880246382"><ele>939.0</ele><time>2026-05-02T12:56:49Z</time></trkpt><trkpt lat="40.0339720666365" lon="9.376157790250907"><ele>946.0</ele><time>2026-05-02T12:56:50Z</time></trkpt><trkpt lat="40.03374372698818" lon="9.37622634539295"><ele>953.0</ele><time>2026-05-02T12:56:51Z</time></trkpt><trkpt lat="40.03351137108565" lon="9.376296924372653"><ele>951.0</ele><time>2026-05-02T12:56:52Z</time></trkpt><trkpt lat="40.033283179384355" lon="9.37636490048682"><ele>949.0</ele><time>2026-05-02T12:56:53Z</time></trkpt><trkpt lat="40.03304657165134" lon="9.376438626129476"><ele>949.0</ele><time>2026-05-02T12:56:54Z</time></trkpt><trkpt lat="40.03280770221811" lon="9.3765119273778"><ele>949.0</ele><time>2026-05-02T12:56:55Z</time></trkpt><trkpt lat="40.03256295979604" lon="9.376590047932993"><ele>950.5</ele><time>2026-05-02T12:56:56Z</time></trkpt><trkpt lat="40.032316352147625" lon="9.376663984363978"><ele>952.0</ele><time>2026-05-02T12:56:57Z</time></trkpt><trkpt lat="40.03206671483186" lon="9.3767386047301"><ele>952.0</ele><time>2026-05-02T12:56:58Z</time></trkpt><trkpt lat="40.031816096449134" lon="9.3768139684506"><ele>952.0</ele><time>2026-05-02T12:56:59Z</time></trkpt><trkpt lat="40.03156118600312" lon="9.376891928385447"><ele>952.5</ele><time>2026-05-02T12:57:00Z</time></trkpt><trkpt lat="40.03130631351033" lon="9.37696929845535"><ele>953.0</ele><time>2026-05-02T12:57:01Z</time></trkpt><trkpt lat="40.031051590971444" lon="9.377045745449903"><ele>956.0</ele><time>2026-05-02T12:57:02Z</time></trkpt><trkpt lat="40.0308027385583" lon="9.37712175354797"><ele>959.0</ele><time>2026-05-02T12:57:03Z</time></trkpt><trkpt lat="40.030563264559305" lon="9.377198416016796"><ele>950.5</ele><time>2026-05-02T12:57:04Z</time></trkpt><trkpt lat="40.03032923780362" lon="9.37727860561053"><ele>942.0</ele><time>2026-05-02T12:57:05Z</time></trkpt><trkpt lat="40.03009938886442" lon="9.377371577920387"><ele>947.0</ele><time>2026-05-02T12:57:06Z</time></trkpt><trkpt lat="40.029870821016964" lon="9.377481926613696"><ele>952.0</ele><time>2026-05-02T12:57:07Z</time></trkpt><trkpt lat="40.0296466120176" lon="9.377609142836697"><ele>952.0</ele><time>2026-05-02T12:57:08Z</time></trkpt><trkpt lat="40.02942827368676" lon="9.377752399461862"><ele>952.0</ele><time>2026-05-02T12:57:09Z</time></trkpt><trkpt lat="40.02921871393312" lon="9.377913032464145"><ele>956.0</ele><time>2026-05-02T12:57:10Z</time></trkpt><trkpt lat="40.02901503963078" lon="9.378088646498357"><ele>960.0</ele><time>2026-05-02T12:57:11Z</time></trkpt><trkpt lat="40.02882399141133" lon="9.37828597899829"><ele>960.0</ele><time>2026-05-02T12:57:12Z</time></trkpt><trkpt lat="40.02864131021634" lon="9.378501188749729"><ele>960.0</ele><time>2026-05-02T12:57:13Z</time></trkpt><trkpt lat="40.02847029729291" lon="9.378738240400917"><ele>960.0</ele><time>2026-05-02T12:57:14Z</time></trkpt><trkpt lat="40.02830919879704" lon="9.378991211277047"><ele>960.0</ele><time>2026-05-02T12:57:15Z</time></trkpt><trkpt lat="40.028146447000836" lon="9.379244648182024"><ele>960.0</ele><time>2026-05-02T12:57:16Z</time></trkpt><trkpt lat="40.0280210068202" lon="9.379536412402846"><ele>960.0</ele><time>2026-05-02T12:57:17Z</time></trkpt><trkpt lat="40.027891932630034" lon="9.379825661033559"><ele>953.0</ele><time>2026-05-02T12:57:18Z</time></trkpt><trkpt lat="40.0277689497545" lon="9.380122354443312"><ele>946.0</ele><time>2026-05-02T12:57:19Z</time></trkpt><trkpt lat="40.02765303940854" lon="9.380421393075594"><ele>943.0</ele><time>2026-05-02T12:57:20Z</time></trkpt><trkpt lat="40.027542859409095" lon="9.380719845497428"><ele>940.0</ele><time>2026-05-02T12:57:21Z</time></trkpt><trkpt lat="40.02743875147603" lon="9.381013257338786"><ele>951.0</ele><time>2026-05-02T12:57:22Z</time></trkpt><trkpt lat="40.02733888033093" lon="9.381305602456273"><ele>962.0</ele><time>2026-05-02T12:57:23Z</time></trkpt><trkpt lat="40.027243188817536" lon="9.381600163165784"><ele>962.0</ele><time>2026-05-02T12:57:24Z</time></trkpt><trkpt lat="40.02714863564659" lon="9.381896634471921"><ele>962.0</ele><time>2026-05-02T12:57:25Z</time></trkpt><trkpt lat="40.02705690765615" lon="9.382192727018413"><ele>957.0</ele><time>2026-05-02T12:57:26Z</time></trkpt><trkpt lat="40.02696933825835" lon="9.382492292922795"><ele>952.0</ele><time>2026-05-02T12:57:27Z</time></trkpt><trkpt lat="40.026890711606406" lon="9.3827932632289"><ele>946.0</ele><time>2026-05-02T12:57:28Z</time></trkpt><trkpt lat="40.02682086164929" lon="9.383100194118638"><ele>940.0</ele><time>2026-05-02T12:57:29Z</time></trkpt><trkpt lat="40.026766352180026" lon="9.383410568194178"><ele>940.0</ele><time>2026-05-02T12:57:30Z</time></trkpt><trkpt lat="40.02672676819901" lon="9.383733474785288"><ele>940.0</ele><time>2026-05-02T12:57:31Z</time></trkpt><trkpt lat="40.02669848198179" lon="9.384058877756393"><ele>936.0</ele><time>2026-05-02T12:57:32Z</time></trkpt><trkpt lat="40.02667978624639" lon="9.384379339488166"><ele>932.0</ele><time>2026-05-02T12:57:33Z</time></trkpt><trkpt lat="40.026659348004635" lon="9.384690078581928"><ele>939.5</ele><time>2026-05-02T12:57:34Z</time></trkpt><trkpt lat="40.02663855501082" lon="9.384992372392277"><ele>947.0</ele><time>2026-05-02T12:57:35Z</time></trkpt><trkpt lat="40.02661531156388" lon="9.385293592606915"><ele>945.5</ele><time>2026-05-02T12:57:36Z</time></trkpt><trkpt lat="40.02658813047873" lon="9.385590049874615"><ele>944.0</ele><time>2026-05-02T12:57:37Z</time></trkpt><trkpt lat="40.026551804774044" lon="9.385880889719298"><ele>944.0</ele><time>2026-05-02T12:57:38Z</time></trkpt><trkpt lat="40.026496840467644" lon="9.386176630975594"><ele>944.0</ele><time>2026-05-02T12:57:39Z</time></trkpt><trkpt lat="40.026435686705504" lon="9.386460658603504"><ele>940.0</ele><time>2026-05-02T12:57:40Z</time></trkpt><trkpt lat="40.026359004644014" lon="9.386742903048804"><ele>936.0</ele><time>2026-05-02T12:57:41Z</time></trkpt><trkpt lat="40.02627104351184" lon="9.387025300776509"><ele>928.5</ele><time>2026-05-02T12:57:42Z</time></trkpt><trkpt lat="40.026162819512464" lon="9.387307849122632"><ele>921.0</ele><time>2026-05-02T12:57:43Z</time></trkpt><trkpt lat="40.02603661794846" lon="9.387576417419"><ele>921.0</ele><time>2026-05-02T12:57:44Z</time></trkpt><trkpt lat="40.025898559698724" lon="9.387831019106446"><ele>921.0</ele><time>2026-05-02T12:57:45Z</time></trkpt><trkpt lat="40.02574640075233" lon="9.388071606005038"><ele>914.5</ele><time>2026-05-02T12:57:46Z</time></trkpt><trkpt lat="40.02558286781321" lon="9.388300526814806"><ele>908.0</ele><time>2026-05-02T12:57:47Z</time></trkpt><trkpt lat="40.02541339397687" lon="9.388513136625363"><ele>908.0</ele><time>2026-05-02T12:57:48Z</time></trkpt><trkpt lat="40.02524352861316" lon="9.388695880487122"><ele>908.0</ele><time>2026-05-02T12:57:49Z</time></trkpt><trkpt lat="40.025051954493456" lon="9.388874574799445"><ele>907.5</ele><time>2026-05-02T12:57:50Z</time></trkpt><trkpt lat="40.02485042123508" lon="9.389043248407383"><ele>907.0</ele><time>2026-05-02T12:57:51Z</time></trkpt><trkpt lat="40.0246379562544" lon="9.38920120002209"><ele>907.0</ele><time>2026-05-02T12:57:52Z</time></trkpt><trkpt lat="40.02442731081898" lon="9.389342548866908"><ele>907.0</ele><time>2026-05-02T12:57:53Z</time></trkpt><trkpt lat="40.02420677933451" lon="9.389491960001783"><ele>905.0</ele><time>2026-05-02T12:57:54Z</time></trkpt><trkpt lat="40.02393603010448" lon="9.389703368397408"><ele>903.0</ele><time>2026-05-02T12:57:55Z</time></trkpt><trkpt lat="40.02370290008104" lon="9.389886048277175"><ele>903.0</ele><time>2026-05-02T12:57:56Z</time></trkpt><trkpt lat="40.02346057917309" lon="9.39005354013479"><ele>903.0</ele><time>2026-05-02T12:57:57Z</time></trkpt><trkpt lat="40.02321650628676" lon="9.390226868525337"><ele>901.5</ele><time>2026-05-02T12:57:58Z</time></trkpt><trkpt lat="40.02297381166026" lon="9.390398599336175"><ele>900.0</ele><time>2026-05-02T12:57:59Z</time></trkpt><trkpt lat="40.02272855883492" lon="9.390571063133686"><ele>900.0</ele><time>2026-05-02T12:58:00Z</time></trkpt><trkpt lat="40.02248513808881" lon="9.39073837598013"><ele>900.0</ele><time>2026-05-02T12:58:01Z</time></trkpt><trkpt lat="40.022249507021165" lon="9.390909992276043"><ele>897.0</ele><time>2026-05-02T12:58:01.999Z</time></trkpt><trkpt lat="40.02201052014033" lon="9.391056840559175"><ele>894.0</ele><time>2026-05-02T12:58:02.999Z</time></trkpt><trkpt lat="40.02178629251901" lon="9.391236715503561"><ele>897.5</ele><time>2026-05-02T12:58:03.999Z</time></trkpt><trkpt lat="40.02154465560051" lon="9.391369818159603"><ele>901.0</ele><time>2026-05-02T12:58:04.999Z</time></trkpt><trkpt lat="40.02130940348821" lon="9.39150589720187"><ele>901.0</ele><time>2026-05-02T12:58:05.999Z</time></trkpt><trkpt lat="40.02107665563521" lon="9.391622024495641"><ele>901.0</ele><time>2026-05-02T12:58:06.999Z</time></trkpt><trkpt lat="40.02084089208769" lon="9.391713399598899"><ele>900.0</ele><time>2026-05-02T12:58:07.999Z</time></trkpt><trkpt lat="40.02059622887403" lon="9.391781722012649"><ele>899.0</ele><time>2026-05-02T12:58:08.999Z</time></trkpt><trkpt lat="40.02035113835259" lon="9.391830713657038"><ele>899.0</ele><time>2026-05-02T12:58:09.999Z</time></trkpt><trkpt lat="40.020101194819595" lon="9.39185397757517"><ele>899.0</ele><time>2026-05-02T12:58:10.999Z</time></trkpt><trkpt lat="40.01985166809398" lon="9.39185840761272"><ele>893.5</ele><time>2026-05-02T12:58:11.999Z</time></trkpt><trkpt lat="40.019606341192684" lon="9.39183858357031"><ele>888.0</ele><time>2026-05-02T12:58:12.999Z</time></trkpt><trkpt lat="40.01935308878312" lon="9.391797096403911"><ele>890.5</ele><time>2026-05-02T12:58:13.999Z</time></trkpt><trkpt lat="40.019097366117755" lon="9.391747750519414"><ele>893.0</ele><time>2026-05-02T12:58:14.999Z</time></trkpt><trkpt lat="40.01883410552439" lon="9.391692136701208"><ele>893.0</ele><time>2026-05-02T12:58:15.999Z</time></trkpt><trkpt lat="40.01857471103407" lon="9.391651297397642"><ele>893.0</ele><time>2026-05-02T12:58:16.999Z</time></trkpt><trkpt lat="40.01832011602929" lon="9.391582593070547"><ele>894.5</ele><time>2026-05-02T12:58:17.999Z</time></trkpt><trkpt lat="40.018062885283705" lon="9.39155930044716"><ele>896.0</ele><time>2026-05-02T12:58:18.999Z</time></trkpt><trkpt lat="40.01780670346758" lon="9.39154812098333"><ele>896.0</ele><time>2026-05-02T12:58:19.999Z</time></trkpt><trkpt lat="40.01754283642427" lon="9.391548913654319"><ele>896.0</ele><time>2026-05-02T12:58:20.999Z</time></trkpt><trkpt lat="40.0172831340057" lon="9.391582262958746"><ele>891.0</ele><time>2026-05-02T12:58:21.999Z</time></trkpt><trkpt lat="40.01704483766172" lon="9.391633672947016"><ele>886.0</ele><time>2026-05-02T12:58:22.999Z</time></trkpt><trkpt lat="40.01681275396277" lon="9.391706306822059"><ele>880.5</ele><time>2026-05-02T12:58:23.999Z</time></trkpt><trkpt lat="40.0165740766642" lon="9.391784736257176"><ele>875.0</ele><time>2026-05-02T12:58:24.999Z</time></trkpt><trkpt lat="40.01635274935361" lon="9.39189717203568"><ele>875.0</ele><time>2026-05-02T12:58:25.999Z</time></trkpt><trkpt lat="40.01614015159477" lon="9.392045712499892"><ele>875.0</ele><time>2026-05-02T12:58:26.999Z</time></trkpt><trkpt lat="40.01592590965497" lon="9.392193428602134"><ele>876.3333333333334</ele><time>2026-05-02T12:58:27.999Z</time></trkpt><trkpt lat="40.01573956757458" lon="9.39235006604978"><ele>877.6666666666667</ele><time>2026-05-02T12:58:28.999Z</time></trkpt><trkpt lat="40.01554578776969" lon="9.392505324353511"><ele>879.0</ele><time>2026-05-02T12:58:29.999Z</time></trkpt><trkpt lat="40.015373360592996" lon="9.39272013829039"><ele>879.0</ele><time>2026-05-02T12:58:30.999Z</time></trkpt><trkpt lat="40.01519762624501" lon="9.392921445500223"><ele>879.0</ele><time>2026-05-02T12:58:31.999Z</time></trkpt><trkpt lat="40.015040198097694" lon="9.393140207976458"><ele>891.0</ele><time>2026-05-02T12:58:32.999Z</time></trkpt><trkpt lat="40.01489539011671" lon="9.393374235913974"><ele>903.0</ele><time>2026-05-02T12:58:33.999Z</time></trkpt><trkpt lat="40.01476468104704" lon="9.393608142109061"><ele>901.3333333333333</ele><time>2026-05-02T12:58:34.999Z</time></trkpt><trkpt lat="40.01464663506894" lon="9.393847047891253"><ele>899.6666666666666</ele><time>2026-05-02T12:58:35.999Z</time></trkpt><trkpt lat="40.01454300679091" lon="9.394092474873224"><ele>898.0</ele><time>2026-05-02T12:58:36.999Z</time></trkpt><trkpt lat="40.01445334274504" lon="9.394342240315925"><ele>898.0</ele><time>2026-05-02T12:58:37.999Z</time></trkpt><trkpt lat="40.01436915679715" lon="9.394605693737134"><ele>898.0</ele><time>2026-05-02T12:58:38.999Z</time></trkpt><trkpt lat="40.014295848336204" lon="9.394878958669793"><ele>898.0</ele><time>2026-05-02T12:58:39.999Z</time></trkpt><trkpt lat="40.01423887554034" lon="9.395163104895179"><ele>894.5</ele><time>2026-05-02T12:58:40.999Z</time></trkpt><trkpt lat="40.01419144318546" lon="9.395464757770126"><ele>891.0</ele><time>2026-05-02T12:58:41.999Z</time></trkpt><trkpt lat="40.01415899011037" lon="9.395785165587688"><ele>904.0</ele><time>2026-05-02T12:58:42.999Z</time></trkpt><trkpt lat="40.014146666387575" lon="9.396092365527819"><ele>917.0</ele><time>2026-05-02T12:58:43.999Z</time></trkpt><trkpt lat="40.014142922338124" lon="9.396409532385759"><ele>918.5</ele><time>2026-05-02T12:58:44.999Z</time></trkpt><trkpt lat="40.0141468616222" lon="9.39673437032201"><ele>920.0</ele><time>2026-05-02T12:58:45.999Z</time></trkpt><trkpt lat="40.01414991989549" lon="9.397059443972282"><ele>900.0</ele><time>2026-05-02T12:58:46.999Z</time></trkpt><trkpt lat="40.014167977299785" lon="9.397381907003526"><ele>880.0</ele><time>2026-05-02T12:58:47.999Z</time></trkpt><trkpt lat="40.014186849562805" lon="9.397698946919911"><ele>878.5</ele><time>2026-05-02T12:58:48.999Z</time></trkpt><trkpt lat="40.01420328145433" lon="9.398004784429183"><ele>877.0</ele><time>2026-05-02T12:58:49.999Z</time></trkpt><trkpt lat="40.01421925035965" lon="9.398292325924885"><ele>877.0</ele><time>2026-05-02T12:58:50.999Z</time></trkpt><trkpt lat="40.014236777507236" lon="9.398565265234392"><ele>877.0</ele><time>2026-05-02T12:58:51.999Z</time></trkpt><trkpt lat="40.01425192385027" lon="9.39881349467921"><ele>877.0</ele><time>2026-05-02T12:58:52.999Z</time></trkpt><trkpt lat="40.0142623200939" lon="9.399048228806587"><ele>878.0</ele><time>2026-05-02T12:58:53.999Z</time></trkpt><trkpt lat="40.014271938994646" lon="9.399265926682666"><ele>879.0</ele><time>2026-05-02T12:58:54.999Z</time></trkpt><trkpt lat="40.0142857729764" lon="9.399465912858695"><ele>880.0</ele><time>2026-05-02T12:58:55.999Z</time></trkpt><trkpt lat="40.01429727231964" lon="9.399633944103272"><ele>880.0</ele><time>2026-05-02T12:58:56.999Z</time></trkpt><trkpt lat="40.01429249087017" lon="9.399770964743476"><ele>880.0</ele><time>2026-05-02T12:58:57.999Z</time></trkpt><trkpt lat="40.01429744271229" lon="9.39987411299972"><ele>880.0</ele><time>2026-05-02T12:58:58.999Z</time></trkpt><trkpt lat="40.0144489264553" lon="9.3998948487899"><ele>880.0</ele><time>2026-05-02T12:59:00.999Z</time></trkpt><trkpt lat="40.014562910813" lon="9.39993750717799"><ele>879.9999999999999</ele><time>2026-05-02T12:59:02.999Z</time></trkpt><trkpt lat="40.01462923947366" lon="9.399964600215482"><ele>880.0</ele><time>2026-05-02T12:59:03.999Z</time></trkpt><trkpt lat="40.014704135799356" lon="9.399944052587301"><ele>880.0</ele><time>2026-05-02T12:59:04.999Z</time></trkpt><trkpt lat="40.01477937141583" lon="9.39991725852596"><ele>880.0</ele><time>2026-05-02T12:59:05.999Z</time></trkpt><trkpt lat="40.01485268832804" lon="9.39987463123998"><ele>879.9999999999999</ele><time>2026-05-02T12:59:06.999Z</time></trkpt><trkpt lat="40.01493229249431" lon="9.399814222442275"><ele>880.0</ele><time>2026-05-02T12:59:07.999Z</time></trkpt><trkpt lat="40.01501564851056" lon="9.399727415858928"><ele>877.25</ele><time>2026-05-02T12:59:08.999Z</time></trkpt><trkpt lat="40.015104783282425" lon="9.399623871872796"><ele>874.5</ele><time>2026-05-02T12:59:09.999Z</time></trkpt><trkpt lat="40.01520490333461" lon="9.39951593663496"><ele>871.75</ele><time>2026-05-02T12:59:10.999Z</time></trkpt><trkpt lat="40.0153123910582" lon="9.399388222406488"><ele>869.0</ele><time>2026-05-02T12:59:11.999Z</time></trkpt><trkpt lat="40.015419735834854" lon="9.399262855596778"><ele>869.0</ele><time>2026-05-02T12:59:12.999Z</time></trkpt><trkpt lat="40.01552864651924" lon="9.399137031893337"><ele>869.0</ele><time>2026-05-02T12:59:13.999Z</time></trkpt><trkpt lat="40.01563263683968" lon="9.39901689243051"><ele>869.0</ele><time>2026-05-02T12:59:14.999Z</time></trkpt><trkpt lat="40.01573368615736" lon="9.398894614245371"><ele>869.0</ele><time>2026-05-02T12:59:15.999Z</time></trkpt><trkpt lat="40.01583028395276" lon="9.39877659367217"><ele>870.8000000000001</ele><time>2026-05-02T12:59:16.999Z</time></trkpt><trkpt lat="40.01591700980826" lon="9.398673485139042"><ele>872.6000000000001</ele><time>2026-05-02T12:59:17.999Z</time></trkpt><trkpt lat="40.01599569502445" lon="9.398585168466841"><ele>874.4</ele><time>2026-05-02T12:59:18.999Z</time></trkpt><trkpt lat="40.01606520771424" lon="9.398518954649074"><ele>876.2</ele><time>2026-05-02T12:59:19.999Z</time></trkpt><trkpt lat="40.01612626802678" lon="9.398487756000389"><ele>878.0</ele><time>2026-05-02T12:59:20.999Z</time></trkpt><trkpt lat="40.01622021001447" lon="9.398517504729252"><ele>878.0</ele><time>2026-05-02T12:59:22.999Z</time></trkpt><trkpt lat="40.01629193198211" lon="9.39864913706065"><ele>878.0</ele><time>2026-05-02T12:59:24.999Z</time></trkpt><trkpt lat="40.01632059550188" lon="9.398757319523583"><ele>878.0</ele><time>2026-05-02T12:59:25.999Z</time></trkpt><trkpt lat="40.0163280082979" lon="9.39889827785503"><ele>878.0</ele><time>2026-05-02T12:59:26.999Z</time></trkpt><trkpt lat="40.01635323212319" lon="9.399051329618612"><ele>878.0</ele><time>2026-05-02T12:59:27.999Z</time></trkpt><trkpt lat="40.01638065298029" lon="9.399198752638013"><ele>876.0</ele><time>2026-05-02T12:59:28.999Z</time></trkpt><trkpt lat="40.016418555129526" lon="9.399359796939363"><ele>874.0</ele><time>2026-05-02T12:59:29.999Z</time></trkpt><trkpt lat="40.0164791114442" lon="9.399534012441054"><ele>872.0</ele><time>2026-05-02T12:59:30.999Z</time></trkpt><trkpt lat="40.0165241934285" lon="9.39972534560328"><ele>870.0</ele><time>2026-05-02T12:59:31.999Z</time></trkpt><trkpt lat="40.0165542326591" lon="9.39990937052751"><ele>868.25</ele><time>2026-05-02T12:59:32.999Z</time></trkpt><trkpt lat="40.01657344144914" lon="9.400100451229111"><ele>866.5</ele><time>2026-05-02T12:59:33.999Z</time></trkpt><trkpt lat="40.01657516911455" lon="9.400299181865059"><ele>864.75</ele><time>2026-05-02T12:59:34.999Z</time></trkpt><trkpt lat="40.016556099968795" lon="9.400491606957212"><ele>863.0</ele><time>2026-05-02T12:59:35.999Z</time></trkpt><trkpt lat="40.016526327484094" lon="9.400683256620713"><ele>862.3333333333334</ele><time>2026-05-02T12:59:36.999Z</time></trkpt><trkpt lat="40.01649177786659" lon="9.400874456191055"><ele>861.6666666666667</ele><time>2026-05-02T12:59:37.999Z</time></trkpt><trkpt lat="40.01644806045578" lon="9.40106359291923"><ele>861.0</ele><time>2026-05-02T12:59:38.999Z</time></trkpt><trkpt lat="40.016397429747904" lon="9.401252357515794"><ele>862.3333333333333</ele><time>2026-05-02T12:59:39.999Z</time></trkpt><trkpt lat="40.01634179081518" lon="9.401447081782923"><ele>863.6666666666666</ele><time>2026-05-02T12:59:40.999Z</time></trkpt><trkpt lat="40.01628939512127" lon="9.401642503617484"><ele>865.0</ele><time>2026-05-02T12:59:41.999Z</time></trkpt><trkpt lat="40.0162386557815" lon="9.401829676311193"><ele>865.0</ele><time>2026-05-02T12:59:42.999Z</time></trkpt><trkpt lat="40.0161810065453" lon="9.402001838514746"><ele>865.0</ele><time>2026-05-02T12:59:43.999Z</time></trkpt><trkpt lat="40.01611400952816" lon="9.402153284860598"><ele>865.0</ele><time>2026-05-02T12:59:44.999Z</time></trkpt><trkpt lat="40.01602566504855" lon="9.402293321195266"><ele>865.0</ele><time>2026-05-02T12:59:45.999Z</time></trkpt><trkpt lat="40.01592626268914" lon="9.402408192069196"><ele>865.0</ele><time>2026-05-02T12:59:46.999Z</time></trkpt><trkpt lat="40.01582042705999" lon="9.40251425586175"><ele>865.0</ele><time>2026-05-02T12:59:47.999Z</time></trkpt><trkpt lat="40.01572444584449" lon="9.402611623159283"><ele>865.0</ele><time>2026-05-02T12:59:48.999Z</time></trkpt><trkpt lat="40.01564465067654" lon="9.402717443064283"><ele>865.0</ele><time>2026-05-02T12:59:49.999Z</time></trkpt><trkpt lat="40.01559249175912" lon="9.402837485509352"><ele>865.0</ele><time>2026-05-02T12:59:50.999Z</time></trkpt><trkpt lat="40.01556600325609" lon="9.402964742554094"><ele>865.0</ele><time>2026-05-02T12:59:51.999Z</time></trkpt><trkpt lat="40.01555992897353" lon="9.403082956437007"><ele>865.0</ele><time>2026-05-02T12:59:52.999Z</time></trkpt><trkpt lat="40.01557926324305" lon="9.403190028623051"><ele>865.0</ele><time>2026-05-02T12:59:53.999Z</time></trkpt><trkpt lat="40.01562931167097" lon="9.403282383770817"><ele>865.0</ele><time>2026-05-02T12:59:54.999Z</time></trkpt><trkpt lat="40.015714599991085" lon="9.403344484940767"><ele>867.75</ele><time>2026-05-02T12:59:55.999Z</time></trkpt><trkpt lat="40.0158314324555" lon="9.403376729693374"><ele>870.5</ele><time>2026-05-02T12:59:56.999Z</time></trkpt><trkpt lat="40.01596896065961" lon="9.403409937795518"><ele>873.25</ele><time>2026-05-02T12:59:57.999Z</time></trkpt><trkpt lat="40.016107702683335" lon="9.403445415074849"><ele>876.0</ele><time>2026-05-02T12:59:58.999Z</time></trkpt><trkpt lat="40.01624509824119" lon="9.403482158341099"><ele>876.0</ele><time>2026-05-02T12:59:59.999Z</time></trkpt><trkpt lat="40.01638433583417" lon="9.403522266160213"><ele>876.0</ele><time>2026-05-02T13:00:00.999Z</time></trkpt><trkpt lat="40.01651233375148" lon="9.403569894495819"><ele>876.0</ele><time>2026-05-02T13:00:01.999Z</time></trkpt><trkpt lat="40.016635422444374" lon="9.403631583601452"><ele>876.0</ele><time>2026-05-02T13:00:02.999Z</time></trkpt><trkpt lat="40.016746055422104" lon="9.403717734759578"><ele>874.5999999999999</ele><time>2026-05-02T13:00:03.999Z</time></trkpt><trkpt lat="40.016829693969115" lon="9.403834441052542"><ele>873.1999999999999</ele><time>2026-05-02T13:00:04.999Z</time></trkpt><trkpt lat="40.01692118340302" lon="9.403915217623066"><ele>871.8000000000001</ele><time>2026-05-02T13:00:05.999Z</time></trkpt><trkpt lat="40.016983229814834" lon="9.40401331522988"><ele>870.4000000000001</ele><time>2026-05-02T13:00:06.999Z</time></trkpt><trkpt lat="40.017018026967904" lon="9.404113289506064"><ele>869.0</ele><time>2026-05-02T13:00:07.999Z</time></trkpt><trkpt lat="40.01701137763716" lon="9.40421513650628"><ele>869.0000000000001</ele><time>2026-05-02T13:00:08.999Z</time></trkpt><trkpt lat="40.01695708247839" lon="9.404287718813354"><ele>869.0</ele><time>2026-05-02T13:00:09.999Z</time></trkpt><trkpt lat="40.016912042304305" lon="9.404380001594241"><ele>869.0</ele><time>2026-05-02T13:00:10.999Z</time></trkpt><trkpt lat="40.01684255580155" lon="9.404445170920312"><ele>869.0</ele><time>2026-05-02T13:00:11.999Z</time></trkpt><trkpt lat="40.01675971541753" lon="9.404493209948846"><ele>869.0000000000001</ele><time>2026-05-02T13:00:12.999Z</time></trkpt><trkpt lat="40.01666200261502" lon="9.404510639148077"><ele>869.0</ele><time>2026-05-02T13:00:13.999Z</time></trkpt><trkpt lat="40.01654939582724" lon="9.404488845306204"><ele>868.0</ele><time>2026-05-02T13:00:14.999Z</time></trkpt><trkpt lat="40.01642567645855" lon="9.404469025401427"><ele>867.0</ele><time>2026-05-02T13:00:15.999Z</time></trkpt><trkpt lat="40.01628642368348" lon="9.404463419758342"><ele>866.0</ele><time>2026-05-02T13:00:16.999Z</time></trkpt><trkpt lat="40.01614713916989" lon="9.404478853324026"><ele>865.0</ele><time>2026-05-02T13:00:17.999Z</time></trkpt><trkpt lat="40.016016350953464" lon="9.404516323392485"><ele>865.0</ele><time>2026-05-02T13:00:18.999Z</time></trkpt><trkpt lat="40.015880685986794" lon="9.404556172074418"><ele>865.0</ele><time>2026-05-02T13:00:19.999Z</time></trkpt><trkpt lat="40.01573843025823" lon="9.404597053601714"><ele>865.0</ele><time>2026-05-02T13:00:20.999Z</time></trkpt><trkpt lat="40.01559322840405" lon="9.404620261099163"><ele>865.0</ele><time>2026-05-02T13:00:21.999Z</time></trkpt><trkpt lat="40.0154522864435" lon="9.404604878990916"><ele>865.0</ele><time>2026-05-02T13:00:22.999Z</time></trkpt><trkpt lat="40.01532176562105" lon="9.404568175162815"><ele>865.0</ele><time>2026-05-02T13:00:23.999Z</time></trkpt><trkpt lat="40.01520060424913" lon="9.404551222238938"><ele>865.0</ele><time>2026-05-02T13:00:24.999Z</time></trkpt><trkpt lat="40.01508827619512" lon="9.404570456061744"><ele>865.0</ele><time>2026-05-02T13:00:25.999Z</time></trkpt><trkpt lat="40.01498704068926" lon="9.404631284936974"><ele>864.25</ele><time>2026-05-02T13:00:26.999Z</time></trkpt><trkpt lat="40.014881942211005" lon="9.404707662749106"><ele>863.5</ele><time>2026-05-02T13:00:27.999Z</time></trkpt><trkpt lat="40.01479756410294" lon="9.404827465753833"><ele>862.75</ele><time>2026-05-02T13:00:28.999Z</time></trkpt><trkpt lat="40.01474119919553" lon="9.404984606712034"><ele>862.0</ele><time>2026-05-02T13:00:29.999Z</time></trkpt><trkpt lat="40.01470122490506" lon="9.405151055358276"><ele>862.0</ele><time>2026-05-02T13:00:30.999Z</time></trkpt><trkpt lat="40.01466395652235" lon="9.405333591014664"><ele>862.0</ele><time>2026-05-02T13:00:31.999Z</time></trkpt><trkpt lat="40.01462326321033" lon="9.405518261831139"><ele>862.0</ele><time>2026-05-02T13:00:32.999Z</time></trkpt><trkpt lat="40.014593700198816" lon="9.405699085926754"><ele>862.0</ele><time>2026-05-02T13:00:33.999Z</time></trkpt><trkpt lat="40.01451957854735" lon="9.40587088051353"><ele>863.6666666666666</ele><time>2026-05-02T13:00:34.999Z</time></trkpt><trkpt lat="40.014468804104084" lon="9.406056563711983"><ele>865.3333333333333</ele><time>2026-05-02T13:00:35.999Z</time></trkpt><trkpt lat="40.01438138128107" lon="9.406221878540908"><ele>867.0</ele><time>2026-05-02T13:00:36.999Z</time></trkpt><trkpt lat="40.014256013002715" lon="9.406348199910829"><ele>867.6666666666667</ele><time>2026-05-02T13:00:37.999Z</time></trkpt><trkpt lat="40.014130993524425" lon="9.406483291803504"><ele>868.3333333333334</ele><time>2026-05-02T13:00:38.998Z</time></trkpt><trkpt lat="40.01401446920724" lon="9.406634927344546"><ele>869.0</ele><time>2026-05-02T13:00:39.998Z</time></trkpt><trkpt lat="40.013885121855786" lon="9.406770839243547"><ele>869.0</ele><time>2026-05-02T13:00:40.998Z</time></trkpt><trkpt lat="40.013760578830976" lon="9.406906005568827"><ele>869.0</ele><time>2026-05-02T13:00:41.998Z</time></trkpt><trkpt lat="40.01363923753872" lon="9.407037747410183"><ele>869.0</ele><time>2026-05-02T13:00:42.998Z</time></trkpt><trkpt lat="40.01352451657744" lon="9.40716168805499"><ele>869.5</ele><time>2026-05-02T13:00:43.998Z</time></trkpt><trkpt lat="40.01341427776082" lon="9.407281496730336"><ele>870.0</ele><time>2026-05-02T13:00:44.998Z</time></trkpt><trkpt lat="40.01330653900467" lon="9.407396746667633"><ele>870.5</ele><time>2026-05-02T13:00:45.998Z</time></trkpt><trkpt lat="40.0132036627917" lon="9.407505990248977"><ele>871.0</ele><time>2026-05-02T13:00:46.999Z</time></trkpt><trkpt lat="40.01310580774011" lon="9.407605854163988"><ele>871.0</ele><time>2026-05-02T13:00:47.999Z</time></trkpt><trkpt lat="40.013008508151586" lon="9.407707850773813"><ele>871.0</ele><time>2026-05-02T13:00:48.999Z</time></trkpt><trkpt lat="40.01290321026932" lon="9.407807531598621"><ele>871.0</ele><time>2026-05-02T13:00:49.999Z</time></trkpt><trkpt lat="40.01278505013197" lon="9.407890466133836"><ele>871.0</ele><time>2026-05-02T13:00:50.999Z</time></trkpt><trkpt lat="40.012661808509804" lon="9.407940486835868"><ele>871.0</ele><time>2026-05-02T13:00:51.999Z</time></trkpt><trkpt lat="40.01253377214558" lon="9.407976341018584"><ele>871.0</ele><time>2026-05-02T13:00:52.999Z</time></trkpt><trkpt lat="40.01240525473682" lon="9.407999800607708"><ele>871.0</ele><time>2026-05-02T13:00:53.999Z</time></trkpt><trkpt lat="40.012274330273534" lon="9.408026680520654"><ele>871.0</ele><time>2026-05-02T13:00:54.999Z</time></trkpt><trkpt lat="40.01214576711567" lon="9.408061974899738"><ele>873.25</ele><time>2026-05-02T13:00:55.999Z</time></trkpt><trkpt lat="40.012011052586054" lon="9.408090883448008"><ele>875.5</ele><time>2026-05-02T13:00:56.999Z</time></trkpt><trkpt lat="40.01187659690559" lon="9.408174183471116"><ele>877.75</ele><time>2026-05-02T13:00:57.999Z</time></trkpt><trkpt lat="40.011751244105255" lon="9.4082824754305"><ele>880.0</ele><time>2026-05-02T13:00:58.999Z</time></trkpt><trkpt lat="40.01163920239246" lon="9.408373028022746"><ele>880.0</ele><time>2026-05-02T13:00:59.999Z</time></trkpt><trkpt lat="40.01152527876292" lon="9.408398508566137"><ele>880.0</ele><time>2026-05-02T13:01:00.999Z</time></trkpt><trkpt lat="40.01140136814927" lon="9.408398698870545"><ele>880.0</ele><time>2026-05-02T13:01:01.999Z</time></trkpt><trkpt lat="40.011281743554996" lon="9.408413239505268"><ele>880.0</ele><time>2026-05-02T13:01:02.999Z</time></trkpt><trkpt lat="40.011173921951155" lon="9.408411020938324"><ele>880.0</ele><time>2026-05-02T13:01:03.999Z</time></trkpt><trkpt lat="40.011062019168484" lon="9.408427990769704"><ele>880.0</ele><time>2026-05-02T13:01:04.999Z</time></trkpt><trkpt lat="40.01094870447371" lon="9.408450812405277"><ele>880.0</ele><time>2026-05-02T13:01:05.999Z</time></trkpt><trkpt lat="40.01084387034209" lon="9.408525095716547"><ele>880.0</ele><time>2026-05-02T13:01:06.999Z</time></trkpt><trkpt lat="40.010748733501174" lon="9.408610624150386"><ele>878.25</ele><time>2026-05-02T13:01:07.999Z</time></trkpt><trkpt lat="40.01065207261432" lon="9.408691367190265"><ele>876.5</ele><time>2026-05-02T13:01:08.999Z</time></trkpt><trkpt lat="40.01055296538679" lon="9.408752782708738"><ele>874.75</ele><time>2026-05-02T13:01:09.999Z</time></trkpt><trkpt lat="40.010445815344696" lon="9.408805957360741"><ele>873.0</ele><time>2026-05-02T13:01:10.999Z</time></trkpt><trkpt lat="40.01033943469133" lon="9.408852925359902"><ele>875.0</ele><time>2026-05-02T13:01:11.999Z</time></trkpt><trkpt lat="40.01023411071312" lon="9.408900895227065"><ele>877.0</ele><time>2026-05-02T13:01:12.999Z</time></trkpt><trkpt lat="40.0101317077783" lon="9.408964848103746"><ele>879.0</ele><time>2026-05-02T13:01:13.999Z</time></trkpt><trkpt lat="40.010036423051865" lon="9.409052345271602"><ele>881.0</ele><time>2026-05-02T13:01:14.999Z</time></trkpt><trkpt lat="40.00995684230106" lon="9.409139275251567"><ele>883.0</ele><time>2026-05-02T13:01:15.999Z</time></trkpt><trkpt lat="40.00987773657635" lon="9.409220814680593"><ele>883.0</ele><time>2026-05-02T13:01:16.999Z</time></trkpt><trkpt lat="40.00978474762544" lon="9.409294626993985"><ele>883.0</ele><time>2026-05-02T13:01:17.999Z</time></trkpt><trkpt lat="40.00968050643352" lon="9.409356157001811"><ele>883.0</ele><time>2026-05-02T13:01:18.999Z</time></trkpt><trkpt lat="40.00957566489976" lon="9.40941355828267"><ele>883.0</ele><time>2026-05-02T13:01:19.999Z</time></trkpt><trkpt lat="40.009460072097845" lon="9.409476845940022"><ele>883.0</ele><time>2026-05-02T13:01:20.999Z</time></trkpt><trkpt lat="40.009347581088676" lon="9.40953783210834"><ele>883.0</ele><time>2026-05-02T13:01:21.999Z</time></trkpt><trkpt lat="40.00922061584561" lon="9.409606094909204"><ele>883.0</ele><time>2026-05-02T13:01:22.999Z</time></trkpt><trkpt lat="40.00910395104737" lon="9.409671373040258"><ele>883.0</ele><time>2026-05-02T13:01:23.999Z</time></trkpt><trkpt lat="40.00898961887933" lon="9.409735345947276"><ele>886.75</ele><time>2026-05-02T13:01:24.999Z</time></trkpt><trkpt lat="40.00888064503561" lon="9.409817493980263"><ele>890.5</ele><time>2026-05-02T13:01:25.999Z</time></trkpt><trkpt lat="40.00876007501804" lon="9.409860961068995"><ele>894.25</ele><time>2026-05-02T13:01:26.999Z</time></trkpt><trkpt lat="40.00865227505329" lon="9.409933778658647"><ele>898.0</ele><time>2026-05-02T13:01:27.999Z</time></trkpt><trkpt lat="40.00853698823646" lon="9.40997147266021"><ele>898.0</ele><time>2026-05-02T13:01:28.999Z</time></trkpt><trkpt lat="40.008419016616095" lon="9.409982161134655"><ele>898.0</ele><time>2026-05-02T13:01:29.999Z</time></trkpt><trkpt lat="40.00830428065659" lon="9.40996942477235"><ele>898.0</ele><time>2026-05-02T13:01:30.999Z</time></trkpt><trkpt lat="40.00818512726193" lon="9.409954291501121"><ele>898.0</ele><time>2026-05-02T13:01:31.999Z</time></trkpt><trkpt lat="40.008066310573284" lon="9.409935785667125"><ele>899.0</ele><time>2026-05-02T13:01:32.999Z</time></trkpt><trkpt lat="40.007943598005184" lon="9.40992514237193"><ele>900.0</ele><time>2026-05-02T13:01:33.999Z</time></trkpt><trkpt lat="40.00782980173278" lon="9.409916751511007"><ele>901.0</ele><time>2026-05-02T13:01:34.999Z</time></trkpt><trkpt lat="40.007712494373926" lon="9.409903635715123"><ele>902.0</ele><time>2026-05-02T13:01:35.999Z</time></trkpt><trkpt lat="40.00759878814497" lon="9.409901675679672"><ele>902.6</ele><time>2026-05-02T13:01:36.999Z</time></trkpt><trkpt lat="40.007487022236724" lon="9.409902710269979"><ele>903.2</ele><time>2026-05-02T13:01:37.999Z</time></trkpt><trkpt lat="40.00737487104497" lon="9.409907941113165"><ele>903.8</ele><time>2026-05-02T13:01:38.999Z</time></trkpt><trkpt lat="40.007263805276494" lon="9.409919699583536"><ele>904.4</ele><time>2026-05-02T13:01:39.999Z</time></trkpt><trkpt lat="40.00715298235708" lon="9.409923418396039"><ele>905.0</ele><time>2026-05-02T13:01:40.999Z</time></trkpt><trkpt lat="40.00704220518545" lon="9.409934771474234"><ele>905.0</ele><time>2026-05-02T13:01:41.999Z</time></trkpt><trkpt lat="40.006928866363864" lon="9.409941177774405"><ele>905.0</ele><time>2026-05-02T13:01:42.999Z</time></trkpt><trkpt lat="40.00681375353621" lon="9.409947464238037"><ele>905.0</ele><time>2026-05-02T13:01:43.999Z</time></trkpt><trkpt lat="40.00670450006081" lon="9.409953601875609"><ele>905.0</ele><time>2026-05-02T13:01:44.999Z</time></trkpt><trkpt lat="40.0065923665607" lon="9.40995100376844"><ele>905.25</ele><time>2026-05-02T13:01:45.999Z</time></trkpt><trkpt lat="40.006478823731584" lon="9.409946340054649"><ele>905.5</ele><time>2026-05-02T13:01:46.999Z</time></trkpt><trkpt lat="40.00636451060051" lon="9.409938900581265"><ele>905.75</ele><time>2026-05-02T13:01:47.999Z</time></trkpt><trkpt lat="40.00624891913972" lon="9.40993098126922"><ele>906.0</ele><time>2026-05-02T13:01:48.999Z</time></trkpt><trkpt lat="40.00613856428941" lon="9.409926381847619"><ele>906.0</ele><time>2026-05-02T13:01:49.999Z</time></trkpt><trkpt lat="40.00603716591263" lon="9.409923220754184"><ele>906.0</ele><time>2026-05-02T13:01:50.999Z</time></trkpt><trkpt lat="40.00593784139089" lon="9.409903268768089"><ele>906.0</ele><time>2026-05-02T13:01:51.999Z</time></trkpt><trkpt lat="40.00585102313045" lon="9.409931729071525"><ele>906.0</ele><time>2026-05-02T13:01:52.999Z</time></trkpt><trkpt lat="40.005778136196504" lon="9.409922343454634"><ele>906.0</ele><time>2026-05-02T13:01:53.999Z</time></trkpt><trkpt lat="40.005716941546495" lon="9.409943928959368"><ele>906.0</ele><time>2026-05-02T13:01:54.999Z</time></trkpt><trkpt lat="40.00563621983571" lon="9.409950321789252"><ele>905.5</ele><time>2026-05-02T13:01:56.999Z</time></trkpt><trkpt lat="40.00556426299498" lon="9.409967401880676"><ele>905.0</ele><time>2026-05-02T13:02:07.999Z</time></trkpt><trkpt lat="40.005483049394314" lon="9.409984643564393"><ele>904.5</ele><time>2026-05-02T13:09:17Z</time></trkpt><trkpt lat="40.00537744567868" lon="9.410017587402912"><ele>904.0</ele><time>2026-05-02T13:09:19Z</time></trkpt><trkpt lat="40.00530888391653" lon="9.410029201535487"><ele>903.5</ele><time>2026-05-02T13:09:20Z</time></trkpt><trkpt lat="40.00523970389251" lon="9.41004187722085"><ele>903.0</ele><time>2026-05-02T13:09:21Z</time></trkpt><trkpt lat="40.005126857508365" lon="9.410059905543466"><ele>903.0</ele><time>2026-05-02T13:09:23Z</time></trkpt><trkpt lat="40.00504813245197" lon="9.410056299159569"><ele>903.0</ele><time>2026-05-02T13:09:25Z</time></trkpt><trkpt lat="40.004981616846614" lon="9.410106435493743"><ele>903.0</ele><time>2026-05-02T13:10:14Z</time></trkpt><trkpt lat="40.00488348234636" lon="9.410134633289706"><ele>903.0</ele><time>2026-05-02T13:10:16Z</time></trkpt><trkpt lat="40.004778965807525" lon="9.410178283203841"><ele>903.0</ele><time>2026-05-02T13:10:18Z</time></trkpt><trkpt lat="40.004718978543806" lon="9.410203937755337"><ele>903.0</ele><time>2026-05-02T13:10:19Z</time></trkpt><trkpt lat="40.00463687792252" lon="9.410239322009568"><ele>901.2</ele><time>2026-05-02T13:10:20Z</time></trkpt><trkpt lat="40.004558185769646" lon="9.4102735658339"><ele>899.4</ele><time>2026-05-02T13:10:21.001Z</time></trkpt><trkpt lat="40.00447395615629" lon="9.410309840610344"><ele>897.6000000000001</ele><time>2026-05-02T13:10:22.001Z</time></trkpt><trkpt lat="40.00438295713729" lon="9.41034747285418"><ele>895.8000000000001</ele><time>2026-05-02T13:10:23.001Z</time></trkpt><trkpt lat="40.004287932132" lon="9.410385209790501"><ele>894.0</ele><time>2026-05-02T13:10:24.001Z</time></trkpt><trkpt lat="40.00419345199846" lon="9.410435192405638"><ele>893.8000000000001</ele><time>2026-05-02T13:10:25.001Z</time></trkpt><trkpt lat="40.004087028006374" lon="9.410456191718836"><ele>893.6000000000001</ele><time>2026-05-02T13:10:26.001Z</time></trkpt><trkpt lat="40.00397584576483" lon="9.41046704642561"><ele>893.4</ele><time>2026-05-02T13:10:27.001Z</time></trkpt><trkpt lat="40.003861993624625" lon="9.41047720788593"><ele>893.2</ele><time>2026-05-02T13:10:28.001Z</time></trkpt><trkpt lat="40.00374791028327" lon="9.410466239532568"><ele>893.0</ele><time>2026-05-02T13:10:29.001Z</time></trkpt><trkpt lat="40.003640380776936" lon="9.410478477187432"><ele>898.4</ele><time>2026-05-02T13:10:30.001Z</time></trkpt><trkpt lat="40.00353694643947" lon="9.410495436352765"><ele>903.8</ele><time>2026-05-02T13:10:31.001Z</time></trkpt><trkpt lat="40.00343247708226" lon="9.410518947741215"><ele>909.2</ele><time>2026-05-02T13:10:32.001Z</time></trkpt><trkpt lat="40.00332961398633" lon="9.410563927669717"><ele>914.6</ele><time>2026-05-02T13:10:33.001Z</time></trkpt><trkpt lat="40.00322265976233" lon="9.410588801223138"><ele>920.0</ele><time>2026-05-02T13:10:34.001Z</time></trkpt><trkpt lat="40.003111390742085" lon="9.410608888804722"><ele>920.0</ele><time>2026-05-02T13:10:35.001Z</time></trkpt><trkpt lat="40.00299447107879" lon="9.410635350754674"><ele>920.0</ele><time>2026-05-02T13:10:36.001Z</time></trkpt><trkpt lat="40.002871298593504" lon="9.410663984019303"><ele>920.0</ele><time>2026-05-02T13:10:37.001Z</time></trkpt><trkpt lat="40.002743155338244" lon="9.410692567316191"><ele>920.0</ele><time>2026-05-02T13:10:38.001Z</time></trkpt><trkpt lat="40.00261483872202" lon="9.410725921266913"><ele>918.75</ele><time>2026-05-02T13:10:39.001Z</time></trkpt><trkpt lat="40.00248815337714" lon="9.410770435604526"><ele>917.5</ele><time>2026-05-02T13:10:40.001Z</time></trkpt><trkpt lat="40.002356716358314" lon="9.410807733042018"><ele>916.25</ele><time>2026-05-02T13:10:41.001Z</time></trkpt><trkpt lat="40.0022436622969" lon="9.41089815459779"><ele>915.0</ele><time>2026-05-02T13:10:42.001Z</time></trkpt><trkpt lat="40.00213165006262" lon="9.410974190871443"><ele>915.0</ele><time>2026-05-02T13:10:43.001Z</time></trkpt><trkpt lat="40.00202509710119" lon="9.41105217295701"><ele>915.0</ele><time>2026-05-02T13:10:44.001Z</time></trkpt><trkpt lat="40.00191675812115" lon="9.41112701621686"><ele>915.0</ele><time>2026-05-02T13:10:45.001Z</time></trkpt><trkpt lat="40.001812787322926" lon="9.411206340705835"><ele>915.0</ele><time>2026-05-02T13:10:46.001Z</time></trkpt><trkpt lat="40.001719039389236" lon="9.411280626965272"><ele>916.1666666666666</ele><time>2026-05-02T13:10:47.001Z</time></trkpt><trkpt lat="40.00163756035031" lon="9.41134624383204"><ele>917.3333333333333</ele><time>2026-05-02T13:10:48.001Z</time></trkpt><trkpt lat="40.001560921644256" lon="9.411410717158477"><ele>918.5</ele><time>2026-05-02T13:10:49.001Z</time></trkpt><trkpt lat="40.00149651343419" lon="9.411487589050413"><ele>919.6666666666666</ele><time>2026-05-02T13:10:50.001Z</time></trkpt><trkpt lat="40.001452541064985" lon="9.411585791496584"><ele>920.8333333333333</ele><time>2026-05-02T13:10:51.001Z</time></trkpt><trkpt lat="40.00142543005577" lon="9.411689918056686"><ele>922.0</ele><time>2026-05-02T13:10:52.001Z</time></trkpt><trkpt lat="40.001420830390096" lon="9.411796435616598"><ele>921.9999999999999</ele><time>2026-05-02T13:10:53.001Z</time></trkpt><trkpt lat="40.001438795614774" lon="9.411900035613263"><ele>922.0</ele><time>2026-05-02T13:10:54.001Z</time></trkpt><trkpt lat="40.0014724307316" lon="9.411990924679406"><ele>922.0</ele><time>2026-05-02T13:10:55.001Z</time></trkpt><trkpt lat="40.00152487531061" lon="9.412068772025073"><ele>922.0</ele><time>2026-05-02T13:10:56.001Z</time></trkpt><trkpt lat="40.0016048304208" lon="9.41212483675854"><ele>921.9999999999999</ele><time>2026-05-02T13:10:57.001Z</time></trkpt><trkpt lat="40.00170396306339" lon="9.412162211469836"><ele>922.0</ele><time>2026-05-02T13:10:58.001Z</time></trkpt><trkpt lat="40.00181602583752" lon="9.41219753406585"><ele>922.0</ele><time>2026-05-02T13:10:59.001Z</time></trkpt><trkpt lat="40.00193194012948" lon="9.412239507489945"><ele>922.0</ele><time>2026-05-02T13:11:00.001Z</time></trkpt><trkpt lat="40.00204200394875" lon="9.41230614814024"><ele>922.0</ele><time>2026-05-02T13:11:01.001Z</time></trkpt><trkpt lat="40.00215112660815" lon="9.412383925187806"><ele>922.0</ele><time>2026-05-02T13:11:02.001Z</time></trkpt><trkpt lat="40.00224981525042" lon="9.412460374820325"><ele>922.0</ele><time>2026-05-02T13:11:03.001Z</time></trkpt><trkpt lat="40.002337677337756" lon="9.41253451648009"><ele>922.0</ele><time>2026-05-02T13:11:04.001Z</time></trkpt><trkpt lat="40.00240972871265" lon="9.412611950426687"><ele>922.0</ele><time>2026-05-02T13:11:05.001Z</time></trkpt><trkpt lat="40.00246210341372" lon="9.412707906975884"><ele>922.0</ele><time>2026-05-02T13:11:06.001Z</time></trkpt><trkpt lat="40.002489386461626" lon="9.412814713684478"><ele>922.0</ele><time>2026-05-02T13:11:07.001Z</time></trkpt><trkpt lat="40.00249917792878" lon="9.412926652937587"><ele>919.9999999999999</ele><time>2026-05-02T13:11:08Z</time></trkpt><trkpt lat="40.0024824314751" lon="9.413038982612726"><ele>918.0</ele><time>2026-05-02T13:11:09Z</time></trkpt><trkpt lat="40.00244828435002" lon="9.41314797345158"><ele>916.0</ele><time>2026-05-02T13:11:10Z</time></trkpt><trkpt lat="40.002414725542884" lon="9.41324107459153"><ele>914.0</ele><time>2026-05-02T13:11:11Z</time></trkpt><trkpt lat="40.00240176789121" lon="9.413338167970897"><ele>911.9999999999999</ele><time>2026-05-02T13:11:12Z</time></trkpt><trkpt lat="40.002410904610464" lon="9.41343460434661"><ele>910.0</ele><time>2026-05-02T13:11:13Z</time></trkpt><trkpt lat="40.00245362393183" lon="9.413521100062571"><ele>911.6</ele><time>2026-05-02T13:11:14Z</time></trkpt><trkpt lat="40.002519864231104" lon="9.413603217411266"><ele>913.2</ele><time>2026-05-02T13:11:15Z</time></trkpt><trkpt lat="40.00260710890134" lon="9.413675122348954"><ele>914.8</ele><time>2026-05-02T13:11:16Z</time></trkpt><trkpt lat="40.002701886472884" lon="9.413733285115022"><ele>916.4</ele><time>2026-05-02T13:11:17Z</time></trkpt><trkpt lat="40.00280072940919" lon="9.413773102237439"><ele>918.0</ele><time>2026-05-02T13:11:18Z</time></trkpt><trkpt lat="40.00290505928485" lon="9.413796351433461"><ele>918.0</ele><time>2026-05-02T13:11:19Z</time></trkpt><trkpt lat="40.003004303535754" lon="9.413806035202041"><ele>918.0</ele><time>2026-05-02T13:11:20Z</time></trkpt><trkpt lat="40.003102588330236" lon="9.413810707563622"><ele>918.0</ele><time>2026-05-02T13:11:21Z</time></trkpt><trkpt lat="40.00320281109167" lon="9.413814456879331"><ele>918.0</ele><time>2026-05-02T13:11:22Z</time></trkpt><trkpt lat="40.00330179782019" lon="9.41383370419723"><ele>918.0</ele><time>2026-05-02T13:11:23Z</time></trkpt><trkpt lat="40.00339525580037" lon="9.413884832125486"><ele>916.25</ele><time>2026-05-02T13:11:24Z</time></trkpt><trkpt lat="40.003481774349666" lon="9.413968754639434"><ele>914.5</ele><time>2026-05-02T13:11:25Z</time></trkpt><trkpt lat="40.003553629774714" lon="9.414090516910411"><ele>912.75</ele><time>2026-05-02T13:11:26Z</time></trkpt><trkpt lat="40.003605644966655" lon="9.414240825268102"><ele>911.0</ele><time>2026-05-02T13:11:27Z</time></trkpt><trkpt lat="40.003644139462644" lon="9.414391954648782"><ele>911.0</ele><time>2026-05-02T13:11:28Z</time></trkpt><trkpt lat="40.003684310049564" lon="9.414540533703688"><ele>911.0</ele><time>2026-05-02T13:11:29Z</time></trkpt><trkpt lat="40.003721419493345" lon="9.414678466459844"><ele>911.0</ele><time>2026-05-02T13:11:30Z</time></trkpt><trkpt lat="40.00376058785326" lon="9.414812080138"><ele>911.0</ele><time>2026-05-02T13:11:31Z</time></trkpt><trkpt lat="40.00379642931611" lon="9.414944062634932"><ele>910.0</ele><time>2026-05-02T13:11:32Z</time></trkpt><trkpt lat="40.0038143183079" lon="9.415073594036565"><ele>908.9999999999999</ele><time>2026-05-02T13:11:33Z</time></trkpt><trkpt lat="40.003806201744226" lon="9.415196774339316"><ele>907.9999999999999</ele><time>2026-05-02T13:11:34Z</time></trkpt><trkpt lat="40.00377721242794" lon="9.415310270771089"><ele>907.0</ele><time>2026-05-02T13:11:35Z</time></trkpt><trkpt lat="40.00372138970733" lon="9.4154105752786"><ele>906.0</ele><time>2026-05-02T13:11:36Z</time></trkpt><trkpt lat="40.0036301781941" lon="9.415467396854373"><ele>906.4</ele><time>2026-05-02T13:11:37Z</time></trkpt><trkpt lat="40.00354836440995" lon="9.415554824484879"><ele>906.8</ele><time>2026-05-02T13:11:38Z</time></trkpt><trkpt lat="40.00345530946842" lon="9.415617845149438"><ele>907.1999999999999</ele><time>2026-05-02T13:11:39Z</time></trkpt><trkpt lat="40.003368275612004" lon="9.415682060033431"><ele>907.5999999999999</ele><time>2026-05-02T13:11:40Z</time></trkpt><trkpt lat="40.00329584010436" lon="9.4157577759059"><ele>908.0</ele><time>2026-05-02T13:11:41Z</time></trkpt><trkpt lat="40.0032385858043" lon="9.4158504924993"><ele>906.0</ele><time>2026-05-02T13:11:42Z</time></trkpt><trkpt lat="40.003203380879405" lon="9.415966846347835"><ele>904.0</ele><time>2026-05-02T13:11:43Z</time></trkpt><trkpt lat="40.003176342644025" lon="9.416085602287009"><ele>902.0</ele><time>2026-05-02T13:11:44Z</time></trkpt><trkpt lat="40.003211555309875" lon="9.416210203596096"><ele>900.0</ele><time>2026-05-02T13:11:45Z</time></trkpt><trkpt lat="40.00324004579392" lon="9.416330676458871"><ele>898.0</ele><time>2026-05-02T13:11:46Z</time></trkpt><trkpt lat="40.00332032126272" lon="9.4164237767304"><ele>899.25</ele><time>2026-05-02T13:11:47Z</time></trkpt><trkpt lat="40.00339279994642" lon="9.41653683604419"><ele>900.5</ele><time>2026-05-02T13:11:48Z</time></trkpt><trkpt lat="40.00346802919489" lon="9.416657312400545"><ele>901.75</ele><time>2026-05-02T13:11:49Z</time></trkpt><trkpt lat="40.00355119109922" lon="9.416783545764272"><ele>903.0</ele><time>2026-05-02T13:11:50Z</time></trkpt><trkpt lat="40.00363834391315" lon="9.416918101246372"><ele>903.0</ele><time>2026-05-02T13:11:51Z</time></trkpt><trkpt lat="40.00372544382559" lon="9.417050899407217"><ele>903.0</ele><time>2026-05-02T13:11:52Z</time></trkpt><trkpt lat="40.00380850313404" lon="9.417178189678713"><ele>903.0</ele><time>2026-05-02T13:11:53Z</time></trkpt><trkpt lat="40.00388450705368" lon="9.417307332262586"><ele>903.0</ele><time>2026-05-02T13:11:54Z</time></trkpt><trkpt lat="40.00395694230029" lon="9.417432618104517"><ele>902.2</ele><time>2026-05-02T13:11:55Z</time></trkpt><trkpt lat="40.00401839220519" lon="9.417551218862956"><ele>901.4</ele><time>2026-05-02T13:11:56Z</time></trkpt><trkpt lat="40.004063222501344" lon="9.417663631406638"><ele>900.6000000000001</ele><time>2026-05-02T13:11:57Z</time></trkpt><trkpt lat="40.00409059074687" lon="9.417785483828478"><ele>899.8000000000001</ele><time>2026-05-02T13:11:58Z</time></trkpt><trkpt lat="40.00408682494183" lon="9.417906139769253"><ele>899.0</ele><time>2026-05-02T13:11:59Z</time></trkpt><trkpt lat="40.00405519930001" lon="9.418024597142015"><ele>898.2</ele><time>2026-05-02T13:12:00Z</time></trkpt><trkpt lat="40.00402594130843" lon="9.418142083597798"><ele>897.4000000000001</ele><time>2026-05-02T13:12:01Z</time></trkpt><trkpt lat="40.00398199881204" lon="9.418262673892023"><ele>896.6</ele><time>2026-05-02T13:12:02Z</time></trkpt><trkpt lat="40.003850953831716" lon="9.418319322615456"><ele>895.8</ele><time>2026-05-02T13:12:03Z</time></trkpt><trkpt lat="40.00377245512282" lon="9.418388470800876"><ele>895.0</ele><time>2026-05-02T13:12:04Z</time></trkpt><trkpt lat="40.00369733767057" lon="9.418454173469716"><ele>895.0</ele><time>2026-05-02T13:12:05Z</time></trkpt><trkpt lat="40.00361940913254" lon="9.418512363096744"><ele>895.0</ele><time>2026-05-02T13:12:06Z</time></trkpt><trkpt lat="40.003555051446895" lon="9.418578422752145"><ele>895.0</ele><time>2026-05-02T13:12:07Z</time></trkpt><trkpt lat="40.00348849789987" lon="9.418618658338008"><ele>895.0</ele><time>2026-05-02T13:12:08Z</time></trkpt><trkpt lat="40.00346335430384" lon="9.418850957131497"><ele>895.0</ele><time>2026-05-02T13:12:10Z</time></trkpt><trkpt lat="40.00348773420839" lon="9.418972510928418"><ele>895.0</ele><time>2026-05-02T13:12:11Z</time></trkpt><trkpt lat="40.00350287102827" lon="9.419087618964344"><ele>895.0</ele><time>2026-05-02T13:12:12Z</time></trkpt><trkpt lat="40.00352535830838" lon="9.419208477290464"><ele>895.0</ele><time>2026-05-02T13:12:13Z</time></trkpt><trkpt lat="40.00355223636117" lon="9.41934161486822"><ele>895.0</ele><time>2026-05-02T13:12:14Z</time></trkpt><trkpt lat="40.00358303846031" lon="9.419485353720143"><ele>895.0</ele><time>2026-05-02T13:12:15Z</time></trkpt><trkpt lat="40.00361160245644" lon="9.41963934706833"><ele>894.5</ele><time>2026-05-02T13:12:16Z</time></trkpt><trkpt lat="40.00363793983081" lon="9.419801553166971"><ele>894.0</ele><time>2026-05-02T13:12:17Z</time></trkpt><trkpt lat="40.00366541155155" lon="9.419958249951353"><ele>893.5</ele><time>2026-05-02T13:12:18Z</time></trkpt><trkpt lat="40.00369225475714" lon="9.420099230401556"><ele>893.0</ele><time>2026-05-02T13:12:19Z</time></trkpt><trkpt lat="40.00371846210262" lon="9.420239262434363"><ele>893.0</ele><time>2026-05-02T13:12:20Z</time></trkpt><trkpt lat="40.00375741660807" lon="9.420384739274207"><ele>893.0</ele><time>2026-05-02T13:12:21Z</time></trkpt><trkpt lat="40.003812973018476" lon="9.42052690568747"><ele>893.0</ele><time>2026-05-02T13:12:22Z</time></trkpt><trkpt lat="40.00388594130683" lon="9.420663935512735"><ele>893.0</ele><time>2026-05-02T13:12:23Z</time></trkpt><trkpt lat="40.00396841057504" lon="9.420793352643377"><ele>892.25</ele><time>2026-05-02T13:12:24Z</time></trkpt><trkpt lat="40.00405139160841" lon="9.420929189501424"><ele>891.5</ele><time>2026-05-02T13:12:25Z</time></trkpt><trkpt lat="40.00412931335348" lon="9.421070014116333"><ele>890.75</ele><time>2026-05-02T13:12:26Z</time></trkpt><trkpt lat="40.00420034943218" lon="9.421214192181532"><ele>890.0</ele><time>2026-05-02T13:12:27Z</time></trkpt><trkpt lat="40.00425027438514" lon="9.421371460096484"><ele>889.0</ele><time>2026-05-02T13:12:28Z</time></trkpt><trkpt lat="40.00428922197511" lon="9.421531900123727"><ele>888.0</ele><time>2026-05-02T13:12:29Z</time></trkpt><trkpt lat="40.00431148454651" lon="9.421697288870833"><ele>887.0</ele><time>2026-05-02T13:12:30Z</time></trkpt><trkpt lat="40.00430800345872" lon="9.421873979115993"><ele>886.0</ele><time>2026-05-02T13:12:31Z</time></trkpt><trkpt lat="40.00431863759777" lon="9.422061400064655"><ele>887.25</ele><time>2026-05-02T13:12:32Z</time></trkpt><trkpt lat="40.00432783501312" lon="9.422249120080911"><ele>888.5</ele><time>2026-05-02T13:12:33Z</time></trkpt><trkpt lat="40.00433665333272" lon="9.422429452452672"><ele>889.75</ele><time>2026-05-02T13:12:34Z</time></trkpt><trkpt lat="40.004359541863884" lon="9.422589395758273"><ele>891.0</ele><time>2026-05-02T13:12:35Z</time></trkpt><trkpt lat="40.00436363197503" lon="9.42274428969327"><ele>891.0</ele><time>2026-05-02T13:12:36Z</time></trkpt><trkpt lat="40.004369639310326" lon="9.422883729773497"><ele>890.9999999999999</ele><time>2026-05-02T13:12:37Z</time></trkpt><trkpt lat="40.004377155803994" lon="9.423015563524697"><ele>890.9999999999999</ele><time>2026-05-02T13:12:38Z</time></trkpt><trkpt lat="40.00438177675184" lon="9.423140951128184"><ele>891.0</ele><time>2026-05-02T13:12:39Z</time></trkpt><trkpt lat="40.004376964872854" lon="9.423259825020788"><ele>891.0</ele><time>2026-05-02T13:12:40Z</time></trkpt><trkpt lat="40.00433983701246" lon="9.423358589522586"><ele>893.0</ele><time>2026-05-02T13:12:41Z</time></trkpt><trkpt lat="40.00428615436724" lon="9.423451799550627"><ele>895.0</ele><time>2026-05-02T13:12:42Z</time></trkpt><trkpt lat="40.00421570860186" lon="9.423503847647835"><ele>897.0</ele><time>2026-05-02T13:12:43Z</time></trkpt><trkpt lat="40.004140223410566" lon="9.423536183424764"><ele>899.0</ele><time>2026-05-02T13:12:44Z</time></trkpt><trkpt lat="40.00405777309705" lon="9.423529674904778"><ele>901.0</ele><time>2026-05-02T13:12:45Z</time></trkpt><trkpt lat="40.003969020257436" lon="9.423513936860385"><ele>903.0</ele><time>2026-05-02T13:12:46Z</time></trkpt><trkpt lat="40.00387605406318" lon="9.423487477279211"><ele>904.0</ele><time>2026-05-02T13:12:47Z</time></trkpt><trkpt lat="40.0037726936483" lon="9.423463190238726"><ele>905.0</ele><time>2026-05-02T13:12:48Z</time></trkpt><trkpt lat="40.0036644271638" lon="9.423437831578408"><ele>906.0</ele><time>2026-05-02T13:12:49Z</time></trkpt><trkpt lat="40.003550702240084" lon="9.423395913411357"><ele>907.0</ele><time>2026-05-02T13:12:50Z</time></trkpt><trkpt lat="40.00344392066624" lon="9.42339096641083"><ele>908.0</ele><time>2026-05-02T13:12:51Z</time></trkpt><trkpt lat="40.00333981160858" lon="9.42343101437909"><ele>909.0</ele><time>2026-05-02T13:12:52Z</time></trkpt><trkpt lat="40.00325269174477" lon="9.423507051629713"><ele>910.0</ele><time>2026-05-02T13:12:53Z</time></trkpt><trkpt lat="40.00320299779885" lon="9.423614195733062"><ele>911.0</ele><time>2026-05-02T13:12:54Z</time></trkpt><trkpt lat="40.00314224963789" lon="9.423730877172328"><ele>912.0</ele><time>2026-05-02T13:12:55Z</time></trkpt><trkpt lat="40.00309677208144" lon="9.423855127525265"><ele>913.0</ele><time>2026-05-02T13:12:56Z</time></trkpt><trkpt lat="40.00304985017564" lon="9.423991651924112"><ele>913.0</ele><time>2026-05-02T13:12:57Z</time></trkpt><trkpt lat="40.00306054246453" lon="9.424147385708293"><ele>913.0</ele><time>2026-05-02T13:12:58Z</time></trkpt><trkpt lat="40.00307425155238" lon="9.424293115035793"><ele>913.0</ele><time>2026-05-02T13:12:59Z</time></trkpt><trkpt lat="40.00310210021296" lon="9.424452752784847"><ele>913.0</ele><time>2026-05-02T13:13:00Z</time></trkpt><trkpt lat="40.00313345120157" lon="9.424611739542552"><ele>915.0</ele><time>2026-05-02T13:13:01Z</time></trkpt><trkpt lat="40.00316891339652" lon="9.424771455599029"><ele>917.0</ele><time>2026-05-02T13:13:02Z</time></trkpt><trkpt lat="40.00320507677734" lon="9.424937655744902"><ele>919.0</ele><time>2026-05-02T13:13:03Z</time></trkpt><trkpt lat="40.003240814855076" lon="9.425107443288432"><ele>921.0</ele><time>2026-05-02T13:13:04Z</time></trkpt><trkpt lat="40.003274950233425" lon="9.425271325982928"><ele>921.0</ele><time>2026-05-02T13:13:05Z</time></trkpt><trkpt lat="40.003296281691775" lon="9.42543461876511"><ele>921.0</ele><time>2026-05-02T13:13:06Z</time></trkpt><trkpt lat="40.00333347285072" lon="9.425596622935524"><ele>921.0</ele><time>2026-05-02T13:13:07Z</time></trkpt><trkpt lat="40.00337471551694" lon="9.425773201255007"><ele>921.0</ele><time>2026-05-02T13:13:08Z</time></trkpt><trkpt lat="40.00340894299539" lon="9.42594234784572"><ele>922.25</ele><time>2026-05-02T13:13:09Z</time></trkpt><trkpt lat="40.00344248044576" lon="9.4261072694033"><ele>923.5</ele><time>2026-05-02T13:13:10Z</time></trkpt><trkpt lat="40.00347629693535" lon="9.426274515979554"><ele>924.75</ele><time>2026-05-02T13:13:11Z</time></trkpt><trkpt lat="40.00351127879308" lon="9.42643831137527"><ele>926.0</ele><time>2026-05-02T13:13:12Z</time></trkpt><trkpt lat="40.00354174951737" lon="9.426600329125627"><ele>927.75</ele><time>2026-05-02T13:13:13Z</time></trkpt><trkpt lat="40.003574388573455" lon="9.42675679813424"><ele>929.5</ele><time>2026-05-02T13:13:14Z</time></trkpt><trkpt lat="40.00360460028221" lon="9.426917068248885"><ele>931.25</ele><time>2026-05-02T13:13:15Z</time></trkpt><trkpt lat="40.00363544012821" lon="9.427077742633234"><ele>933.0</ele><time>2026-05-02T13:13:15.999Z</time></trkpt><trkpt lat="40.00366530509392" lon="9.427235828883527"><ele>934.5</ele><time>2026-05-02T13:13:16.999Z</time></trkpt><trkpt lat="40.00369077180507" lon="9.427396857425585"><ele>936.0</ele><time>2026-05-02T13:13:17.999Z</time></trkpt><trkpt lat="40.003718142173405" lon="9.427557821393927"><ele>937.5</ele><time>2026-05-02T13:13:19Z</time></trkpt><trkpt lat="40.00374977289944" lon="9.427713551271868"><ele>939.0</ele><time>2026-05-02T13:13:20Z</time></trkpt><trkpt lat="40.00378327594661" lon="9.42787047097274"><ele>940.25</ele><time>2026-05-02T13:13:21Z</time></trkpt><trkpt lat="40.003828125236794" lon="9.428032635225064"><ele>941.5</ele><time>2026-05-02T13:13:22Z</time></trkpt><trkpt lat="40.003876788156056" lon="9.428201608043487"><ele>942.75</ele><time>2026-05-02T13:13:23Z</time></trkpt><trkpt lat="40.00393055863019" lon="9.428375734128618"><ele>944.0</ele><time>2026-05-02T13:13:24Z</time></trkpt><trkpt lat="40.003989060403065" lon="9.428552391565463"><ele>944.0</ele><time>2026-05-02T13:13:25Z</time></trkpt><trkpt lat="40.00404015786855" lon="9.428735883429177"><ele>944.0</ele><time>2026-05-02T13:13:26Z</time></trkpt><trkpt lat="40.00409955582064" lon="9.42892376421611"><ele>944.0</ele><time>2026-05-02T13:13:27Z</time></trkpt><trkpt lat="40.00414733678826" lon="9.429109467935842"><ele>941.6666666666667</ele><time>2026-05-02T13:13:28Z</time></trkpt><trkpt lat="40.00420294472261" lon="9.429294077470663"><ele>939.3333333333333</ele><time>2026-05-02T13:13:29Z</time></trkpt><trkpt lat="40.00426198600928" lon="9.429486529600323"><ele>937.0</ele><time>2026-05-02T13:13:30Z</time></trkpt><trkpt lat="40.00431961885288" lon="9.429680900413992"><ele>935.6666666666666</ele><time>2026-05-02T13:13:31Z</time></trkpt><trkpt lat="40.0043764337717" lon="9.429874368535511"><ele>934.3333333333333</ele><time>2026-05-02T13:13:32Z</time></trkpt><trkpt lat="40.00443239247131" lon="9.43005972709826"><ele>933.0</ele><time>2026-05-02T13:13:33Z</time></trkpt><trkpt lat="40.00448538429906" lon="9.430240453644899"><ele>933.0</ele><time>2026-05-02T13:13:34Z</time></trkpt><trkpt lat="40.004537856587575" lon="9.430417981170436"><ele>933.0</ele><time>2026-05-02T13:13:35Z</time></trkpt><trkpt lat="40.004589358716146" lon="9.430592117688988"><ele>933.0</ele><time>2026-05-02T13:13:36Z</time></trkpt><trkpt lat="40.00464080585639" lon="9.430768908652842"><ele>933.0</ele><time>2026-05-02T13:13:37Z</time></trkpt><trkpt lat="40.00469208298531" lon="9.430946167734227"><ele>933.0</ele><time>2026-05-02T13:13:38Z</time></trkpt><trkpt lat="40.004741780306325" lon="9.431117216822921"><ele>933.0</ele><time>2026-05-02T13:13:39Z</time></trkpt><trkpt lat="40.00479014401129" lon="9.43128167795254"><ele>933.0</ele><time>2026-05-02T13:13:40Z</time></trkpt><trkpt lat="40.00483620907494" lon="9.431444342520438"><ele>933.0</ele><time>2026-05-02T13:13:41Z</time></trkpt><trkpt lat="40.0048835190918" lon="9.431603276581653"><ele>933.0</ele><time>2026-05-02T13:13:42Z</time></trkpt><trkpt lat="40.00493214483754" lon="9.431763267930558"><ele>933.0</ele><time>2026-05-02T13:13:43Z</time></trkpt><trkpt lat="40.00498150545144" lon="9.431928873474929"><ele>933.0</ele><time>2026-05-02T13:13:44Z</time></trkpt><trkpt lat="40.0050306307142" lon="9.432092310900366"><ele>933.0</ele><time>2026-05-02T13:13:45Z</time></trkpt><trkpt lat="40.00507838093204" lon="9.432258217503176"><ele>933.0</ele><time>2026-05-02T13:13:46Z</time></trkpt><trkpt lat="40.00512991987438" lon="9.432425029757807"><ele>933.0</ele><time>2026-05-02T13:13:47Z</time></trkpt><trkpt lat="40.00517430912069" lon="9.43259155961995"><ele>933.0</ele><time>2026-05-02T13:13:48Z</time></trkpt><trkpt lat="40.005225086856356" lon="9.43275887062972"><ele>933.0</ele><time>2026-05-02T13:13:49Z</time></trkpt><trkpt lat="40.00527282440299" lon="9.43292748859669"><ele>934.0</ele><time>2026-05-02T13:13:50Z</time></trkpt><trkpt lat="40.00532137682629" lon="9.433096577899986"><ele>935.0</ele><time>2026-05-02T13:13:51Z</time></trkpt><trkpt lat="40.005370913366605" lon="9.433265478387561"><ele>936.0</ele><time>2026-05-02T13:13:52Z</time></trkpt><trkpt lat="40.005420409645204" lon="9.43343501859561"><ele>937.0</ele><time>2026-05-02T13:13:53Z</time></trkpt><trkpt lat="40.00546944862224" lon="9.433607159811293"><ele>937.0</ele><time>2026-05-02T13:13:54Z</time></trkpt><trkpt lat="40.005519194556484" lon="9.433776263427626"><ele>937.0</ele><time>2026-05-02T13:13:55Z</time></trkpt><trkpt lat="40.005571502268396" lon="9.43394393294653"><ele>937.0</ele><time>2026-05-02T13:13:56Z</time></trkpt><trkpt lat="40.00562338576544" lon="9.434111281611594"><ele>937.0</ele><time>2026-05-02T13:13:57Z</time></trkpt><trkpt lat="40.00567506285494" lon="9.434276794131618"><ele>937.75</ele><time>2026-05-02T13:13:58Z</time></trkpt><trkpt lat="40.005723849558116" lon="9.434440451109763"><ele>938.5</ele><time>2026-05-02T13:13:59Z</time></trkpt><trkpt lat="40.00577020398127" lon="9.43460146079152"><ele>939.25</ele><time>2026-05-02T13:14:00Z</time></trkpt><trkpt lat="40.00581178505115" lon="9.434764653820862"><ele>940.0</ele><time>2026-05-02T13:14:01Z</time></trkpt><trkpt lat="40.0058594794735" lon="9.43492754089321"><ele>940.0</ele><time>2026-05-02T13:14:02Z</time></trkpt><trkpt lat="40.00589932379105" lon="9.435078895072735"><ele>940.0</ele><time>2026-05-02T13:14:03Z</time></trkpt><trkpt lat="40.00594651140802" lon="9.435234377030037"><ele>940.0</ele><time>2026-05-02T13:14:04Z</time></trkpt><trkpt lat="40.00599477623092" lon="9.435388616039244"><ele>940.0</ele><time>2026-05-02T13:14:05Z</time></trkpt><trkpt lat="40.00604595396187" lon="9.435547242081157"><ele>941.25</ele><time>2026-05-02T13:14:06Z</time></trkpt><trkpt lat="40.00611465836924" lon="9.435703043005313"><ele>942.5</ele><time>2026-05-02T13:14:07Z</time></trkpt><trkpt lat="40.00620073042317" lon="9.435851472503462"><ele>943.75</ele><time>2026-05-02T13:14:08Z</time></trkpt><trkpt lat="40.00630504282158" lon="9.43599089835672"><ele>945.0</ele><time>2026-05-02T13:14:09Z</time></trkpt><trkpt lat="40.00641213795214" lon="9.43613830979637"><ele>945.0</ele><time>2026-05-02T13:14:10Z</time></trkpt><trkpt lat="40.00650692300555" lon="9.436295069717296"><ele>945.0</ele><time>2026-05-02T13:14:11Z</time></trkpt><trkpt lat="40.006589233409535" lon="9.436456337665504"><ele>945.0</ele><time>2026-05-02T13:14:12Z</time></trkpt><trkpt lat="40.006666894097314" lon="9.436614384269104"><ele>945.0</ele><time>2026-05-02T13:14:13Z</time></trkpt><trkpt lat="40.00673062599929" lon="9.43675556498488"><ele>946.75</ele><time>2026-05-02T13:14:14Z</time></trkpt><trkpt lat="40.00678930290169" lon="9.436893723919413"><ele>948.5</ele><time>2026-05-02T13:14:15Z</time></trkpt><trkpt lat="40.00685660685646" lon="9.437034703406121"><ele>950.25</ele><time>2026-05-02T13:14:16Z</time></trkpt><trkpt lat="40.00691173821281" lon="9.437173912637588"><ele>952.0</ele><time>2026-05-02T13:14:17Z</time></trkpt><trkpt lat="40.0069337392184" lon="9.43734990126642"><ele>952.5</ele><time>2026-05-02T13:14:18Z</time></trkpt><trkpt lat="40.006943166679626" lon="9.437526296170821"><ele>953.0</ele><time>2026-05-02T13:14:19Z</time></trkpt><trkpt lat="40.00695607396642" lon="9.437697014514399"><ele>953.5</ele><time>2026-05-02T13:14:20Z</time></trkpt><trkpt lat="40.00695453323765" lon="9.437867848216605"><ele>954.0</ele><time>2026-05-02T13:14:21Z</time></trkpt><trkpt lat="40.00695426086344" lon="9.438038704884095"><ele>955.25</ele><time>2026-05-02T13:14:22Z</time></trkpt><trkpt lat="40.00695763362917" lon="9.438210057841756"><ele>956.5</ele><time>2026-05-02T13:14:23Z</time></trkpt><trkpt lat="40.0069607184563" lon="9.438377855793224"><ele>957.75</ele><time>2026-05-02T13:14:24Z</time></trkpt><trkpt lat="40.00696295692384" lon="9.438540251594643"><ele>959.0</ele><time>2026-05-02T13:14:25Z</time></trkpt><trkpt lat="40.006969222200794" lon="9.43869623729886"><ele>962.0</ele><time>2026-05-02T13:14:26Z</time></trkpt><trkpt lat="40.00697082702745" lon="9.43884836483083"><ele>965.0</ele><time>2026-05-02T13:14:27Z</time></trkpt><trkpt lat="40.00700071317343" lon="9.438995299356284"><ele>968.0</ele><time>2026-05-02T13:14:28Z</time></trkpt><trkpt lat="40.00706727738301" lon="9.439133236087446"><ele>971.0</ele><time>2026-05-02T13:14:29Z</time></trkpt><trkpt lat="40.007153571412076" lon="9.439250783024807"><ele>971.0</ele><time>2026-05-02T13:14:30Z</time></trkpt><trkpt lat="40.00725702371202" lon="9.439350318089524"><ele>971.0</ele><time>2026-05-02T13:14:31Z</time></trkpt><trkpt lat="40.00735315420292" lon="9.43946227037684"><ele>971.0</ele><time>2026-05-02T13:14:32Z</time></trkpt><trkpt lat="40.007454836077464" lon="9.439572595558197"><ele>971.0</ele><time>2026-05-02T13:14:33Z</time></trkpt><trkpt lat="40.00755493555548" lon="9.439677259001785"><ele>972.0</ele><time>2026-05-02T13:14:34Z</time></trkpt><trkpt lat="40.00766201791576" lon="9.439784251800749"><ele>973.0</ele><time>2026-05-02T13:14:35Z</time></trkpt><trkpt lat="40.00776839369658" lon="9.439892763848679"><ele>974.0</ele><time>2026-05-02T13:14:36Z</time></trkpt><trkpt lat="40.007876675753465" lon="9.440002713696373"><ele>975.0</ele><time>2026-05-02T13:14:37Z</time></trkpt><trkpt lat="40.00797842977915" lon="9.440110085910156"><ele>975.0</ele><time>2026-05-02T13:14:38Z</time></trkpt><trkpt lat="40.008086786211955" lon="9.440218771073647"><ele>975.0</ele><time>2026-05-02T13:14:39Z</time></trkpt><trkpt lat="40.00819245686354" lon="9.440314268115701"><ele>975.0</ele><time>2026-05-02T13:14:40Z</time></trkpt><trkpt lat="40.00830083042257" lon="9.440424573305897"><ele>975.0</ele><time>2026-05-02T13:14:41Z</time></trkpt><trkpt lat="40.0084232276152" lon="9.440503258294498"><ele>978.25</ele><time>2026-05-02T13:14:42Z</time></trkpt><trkpt lat="40.00855454658732" lon="9.440546745671957"><ele>981.5</ele><time>2026-05-02T13:14:43Z</time></trkpt><trkpt lat="40.00868989477379" lon="9.440548401057466"><ele>984.75</ele><time>2026-05-02T13:14:44Z</time></trkpt><trkpt lat="40.00883497728127" lon="9.440567973135277"><ele>988.0</ele><time>2026-05-02T13:14:45Z</time></trkpt><trkpt lat="40.00898337344664" lon="9.440586585498297"><ele>988.0</ele><time>2026-05-02T13:14:46Z</time></trkpt><trkpt lat="40.009128154406724" lon="9.440602787339229"><ele>988.0</ele><time>2026-05-02T13:14:47Z</time></trkpt><trkpt lat="40.00927039640776" lon="9.44061531903249"><ele>988.0</ele><time>2026-05-02T13:14:48Z</time></trkpt><trkpt lat="40.00941082707497" lon="9.44062821048303"><ele>988.0</ele><time>2026-05-02T13:14:49Z</time></trkpt><trkpt lat="40.00954544100292" lon="9.440641553705115"><ele>989.25</ele><time>2026-05-02T13:14:50Z</time></trkpt><trkpt lat="40.00967688926178" lon="9.44065197253918"><ele>990.5</ele><time>2026-05-02T13:14:51Z</time></trkpt><trkpt lat="40.00981009425414" lon="9.440661098426634"><ele>991.75</ele><time>2026-05-02T13:14:52Z</time></trkpt><trkpt lat="40.009939122582104" lon="9.440676242046116"><ele>993.0</ele><time>2026-05-02T13:14:53Z</time></trkpt><trkpt lat="40.01006487437856" lon="9.440693469432073"><ele>994.75</ele><time>2026-05-02T13:14:54Z</time></trkpt><trkpt lat="40.01019383505086" lon="9.44071182331894"><ele>996.5</ele><time>2026-05-02T13:14:55Z</time></trkpt><trkpt lat="40.01032420758426" lon="9.44073192993778"><ele>998.25</ele><time>2026-05-02T13:14:56Z</time></trkpt><trkpt lat="40.01045239102685" lon="9.440762350942473"><ele>1000.0</ele><time>2026-05-02T13:14:57Z</time></trkpt><trkpt lat="40.01059117028739" lon="9.44080372821335"><ele>1000.0</ele><time>2026-05-02T13:14:58Z</time></trkpt><trkpt lat="40.010724021308484" lon="9.440855374274358"><ele>1000.0</ele><time>2026-05-02T13:14:59Z</time></trkpt><trkpt lat="40.01085259581655" lon="9.44091258994885"><ele>1000.0</ele><time>2026-05-02T13:15:00Z</time></trkpt><trkpt lat="40.01098125602152" lon="9.440950751279358"><ele>1000.0</ele><time>2026-05-02T13:15:01Z</time></trkpt><trkpt lat="40.01111412884189" lon="9.44098566641094"><ele>1000.5</ele><time>2026-05-02T13:15:02Z</time></trkpt><trkpt lat="40.01123680794599" lon="9.44100348738199"><ele>1001.0</ele><time>2026-05-02T13:15:03Z</time></trkpt><trkpt lat="40.011356071814525" lon="9.441020064000194"><ele>1001.5</ele><time>2026-05-02T13:15:04Z</time></trkpt><trkpt lat="40.011474855366465" lon="9.440981304252057"><ele>1002.0</ele><time>2026-05-02T13:15:05Z</time></trkpt><trkpt lat="40.01158356915691" lon="9.440888811586147"><ele>1001.6666666666667</ele><time>2026-05-02T13:15:06Z</time></trkpt><trkpt lat="40.011676239043176" lon="9.44074685345422"><ele>1001.3333333333334</ele><time>2026-05-02T13:15:07Z</time></trkpt><trkpt lat="40.01178285552414" lon="9.44060077480161"><ele>1001.0</ele><time>2026-05-02T13:15:08Z</time></trkpt><trkpt lat="40.01189304575979" lon="9.440457561420112"><ele>1001.0</ele><time>2026-05-02T13:15:09Z</time></trkpt><trkpt lat="40.012011847707534" lon="9.440346294907231"><ele>1001.0</ele><time>2026-05-02T13:15:10Z</time></trkpt><trkpt lat="40.012139122798594" lon="9.440255655189533"><ele>1001.0</ele><time>2026-05-02T13:15:11Z</time></trkpt><trkpt lat="40.01227443923119" lon="9.440189206854011"><ele>1001.0</ele><time>2026-05-02T13:15:12Z</time></trkpt><trkpt lat="40.012423408849976" lon="9.440151612911862"><ele>1005.6666666666667</ele><time>2026-05-02T13:15:13Z</time></trkpt><trkpt lat="40.01258158476564" lon="9.440125186623543"><ele>1010.3333333333333</ele><time>2026-05-02T13:15:14Z</time></trkpt><trkpt lat="40.012740334610776" lon="9.440098478786041"><ele>1015.0</ele><time>2026-05-02T13:15:15Z</time></trkpt><trkpt lat="40.012892614738426" lon="9.440078407717616"><ele>1015.0</ele><time>2026-05-02T13:15:16Z</time></trkpt><trkpt lat="40.01303520248557" lon="9.440071027435803"><ele>1015.0</ele><time>2026-05-02T13:15:17Z</time></trkpt><trkpt lat="40.01317327273422" lon="9.440068336851189"><ele>1015.0</ele><time>2026-05-02T13:15:18Z</time></trkpt><trkpt lat="40.013302084612924" lon="9.440071257669711"><ele>1015.0</ele><time>2026-05-02T13:15:19Z</time></trkpt><trkpt lat="40.01342420455729" lon="9.44007708734955"><ele>1018.0</ele><time>2026-05-02T13:15:20Z</time></trkpt><trkpt lat="40.013541722916415" lon="9.440083869726873"><ele>1021.0</ele><time>2026-05-02T13:15:21Z</time></trkpt><trkpt lat="40.013661266754596" lon="9.440096346039203"><ele>1024.0</ele><time>2026-05-02T13:15:22Z</time></trkpt><trkpt lat="40.01378076778923" lon="9.44011580901523"><ele>1027.0</ele><time>2026-05-02T13:15:23Z</time></trkpt><trkpt lat="40.01389154280878" lon="9.440149484355498"><ele>1027.0</ele><time>2026-05-02T13:15:24Z</time></trkpt><trkpt lat="40.01400328793142" lon="9.440186744150337"><ele>1027.0</ele><time>2026-05-02T13:15:25Z</time></trkpt><trkpt lat="40.01411243512047" lon="9.440221258602758"><ele>1027.0</ele><time>2026-05-02T13:15:26Z</time></trkpt><trkpt lat="40.01420642449102" lon="9.440253092771105"><ele>1027.0</ele><time>2026-05-02T13:15:27Z</time></trkpt><trkpt lat="40.01429267997146" lon="9.44028205754042"><ele>1027.0</ele><time>2026-05-02T13:15:28Z</time></trkpt><trkpt lat="40.01437044466844" lon="9.440314942218542"><ele>1027.2857142857142</ele><time>2026-05-02T13:15:29Z</time></trkpt><trkpt lat="40.014444804422936" lon="9.440343749044152"><ele>1027.5714285714287</ele><time>2026-05-02T13:15:30Z</time></trkpt><trkpt lat="40.01451396488099" lon="9.44036263747114"><ele>1027.857142857143</ele><time>2026-05-02T13:15:31Z</time></trkpt><trkpt lat="40.01457628388262" lon="9.440406856049222"><ele>1028.142857142857</ele><time>2026-05-02T13:15:32Z</time></trkpt><trkpt lat="40.01464487518903" lon="9.44043174359148"><ele>1028.4285714285716</ele><time>2026-05-02T13:15:33Z</time></trkpt><trkpt lat="40.0147156258454" lon="9.440457414629105"><ele>1028.7142857142858</ele><time>2026-05-02T13:15:34Z</time></trkpt><trkpt lat="40.014792767350905" lon="9.4404664480084"><ele>1029.0</ele><time>2026-05-02T13:15:35Z</time></trkpt><trkpt lat="40.014865175200086" lon="9.440504513477922"><ele>1029.6666666666667</ele><time>2026-05-02T13:15:36Z</time></trkpt><trkpt lat="40.01493221313939" lon="9.440532029183675"><ele>1030.3333333333333</ele><time>2026-05-02T13:15:37Z</time></trkpt><trkpt lat="40.014997325843055" lon="9.440552542981036"><ele>1031.0</ele><time>2026-05-02T13:15:38Z</time></trkpt><trkpt lat="40.01507385491076" lon="9.440579574289256"><ele>1031.6666666666665</ele><time>2026-05-02T13:15:39Z</time></trkpt><trkpt lat="40.0151579308153" lon="9.4406151871725"><ele>1032.3333333333333</ele><time>2026-05-02T13:15:40Z</time></trkpt><trkpt lat="40.01525347217795" lon="9.44065438191704"><ele>1033.0</ele><time>2026-05-02T13:15:41Z</time></trkpt><trkpt lat="40.01535683088343" lon="9.440693855678795"><ele>1033.0</ele><time>2026-05-02T13:15:42Z</time></trkpt><trkpt lat="40.01546793322782" lon="9.44073630966353"><ele>1033.0</ele><time>2026-05-02T13:15:43Z</time></trkpt><trkpt lat="40.015585137595686" lon="9.440776381489863"><ele>1033.0</ele><time>2026-05-02T13:15:44Z</time></trkpt><trkpt lat="40.01570345525705" lon="9.440815264840309"><ele>1033.0</ele><time>2026-05-02T13:15:45Z</time></trkpt><trkpt lat="40.015821678382096" lon="9.44084052163471"><ele>1031.75</ele><time>2026-05-02T13:15:46Z</time></trkpt><trkpt lat="40.01594697215375" lon="9.440846648146508"><ele>1030.5</ele><time>2026-05-02T13:15:47Z</time></trkpt><trkpt lat="40.016070467190495" lon="9.440835620882194"><ele>1029.25</ele><time>2026-05-02T13:15:48Z</time></trkpt><trkpt lat="40.01618922490568" lon="9.440808786329676"><ele>1028.0</ele><time>2026-05-02T13:15:49Z</time></trkpt><trkpt lat="40.01630384251547" lon="9.440773133737254"><ele>1028.0</ele><time>2026-05-02T13:15:50Z</time></trkpt><trkpt lat="40.01642121467591" lon="9.440744005626453"><ele>1028.0</ele><time>2026-05-02T13:15:51Z</time></trkpt><trkpt lat="40.01653961541124" lon="9.440712348363231"><ele>1028.0</ele><time>2026-05-02T13:15:52Z</time></trkpt><trkpt lat="40.016660797642196" lon="9.440682352313424"><ele>1028.0</ele><time>2026-05-02T13:15:53Z</time></trkpt><trkpt lat="40.01678713674838" lon="9.440649145280698"><ele>1027.75</ele><time>2026-05-02T13:15:54Z</time></trkpt><trkpt lat="40.01691522350198" lon="9.440609241504635"><ele>1027.5</ele><time>2026-05-02T13:15:55Z</time></trkpt><trkpt lat="40.01704812746804" lon="9.440566339391623"><ele>1027.25</ele><time>2026-05-02T13:15:56Z</time></trkpt><trkpt lat="40.017185550010296" lon="9.440527819475856"><ele>1027.0</ele><time>2026-05-02T13:15:57Z</time></trkpt><trkpt lat="40.01732388074264" lon="9.440488499389234"><ele>1026.25</ele><time>2026-05-02T13:15:58Z</time></trkpt><trkpt lat="40.017460184068014" lon="9.440447705046836"><ele>1025.5</ele><time>2026-05-02T13:15:59Z</time></trkpt><trkpt lat="40.01759552618004" lon="9.440407107741894"><ele>1024.75</ele><time>2026-05-02T13:16:00Z</time></trkpt><trkpt lat="40.01772728832691" lon="9.440361742873455"><ele>1024.0</ele><time>2026-05-02T13:16:01Z</time></trkpt><trkpt lat="40.0178592792547" lon="9.440316029565027"><ele>1024.0</ele><time>2026-05-02T13:16:02Z</time></trkpt><trkpt lat="40.01798980417926" lon="9.440267477548215"><ele>1024.0</ele><time>2026-05-02T13:16:03Z</time></trkpt><trkpt lat="40.01811746896756" lon="9.440217845938053"><ele>1024.0</ele><time>2026-05-02T13:16:04Z</time></trkpt><trkpt lat="40.018243500334" lon="9.440164327464247"><ele>1024.0</ele><time>2026-05-02T13:16:05Z</time></trkpt><trkpt lat="40.01836747015558" lon="9.44010371775326"><ele>1024.75</ele><time>2026-05-02T13:16:06Z</time></trkpt><trkpt lat="40.01848712400743" lon="9.44003280703738"><ele>1025.5</ele><time>2026-05-02T13:16:07Z</time></trkpt><trkpt lat="40.018604428358344" lon="9.439950473397365"><ele>1026.25</ele><time>2026-05-02T13:16:08Z</time></trkpt><trkpt lat="40.018716842484274" lon="9.439862087414648"><ele>1027.0</ele><time>2026-05-02T13:16:09Z</time></trkpt><trkpt lat="40.01883112164893" lon="9.439767849953242"><ele>1027.0</ele><time>2026-05-02T13:16:10Z</time></trkpt><trkpt lat="40.01895598119788" lon="9.439673544227542"><ele>1027.0</ele><time>2026-05-02T13:16:11Z</time></trkpt><trkpt lat="40.01908531992131" lon="9.439571032604059"><ele>1027.0</ele><time>2026-05-02T13:16:12Z</time></trkpt><trkpt lat="40.019214976714686" lon="9.439457020566183"><ele>1026.0</ele><time>2026-05-02T13:16:13Z</time></trkpt><trkpt lat="40.01933783599142" lon="9.439329518592103"><ele>1025.0</ele><time>2026-05-02T13:16:14Z</time></trkpt><trkpt lat="40.0194518701962" lon="9.43919570761675"><ele>1024.0</ele><time>2026-05-02T13:16:15Z</time></trkpt><trkpt lat="40.019560243820735" lon="9.439070331290766"><ele>1024.0</ele><time>2026-05-02T13:16:16Z</time></trkpt><trkpt lat="40.019667227153086" lon="9.438953943511034"><ele>1024.0</ele><time>2026-05-02T13:16:17Z</time></trkpt><trkpt lat="40.01976672728556" lon="9.438843113773698"><ele>1024.0</ele><time>2026-05-02T13:16:18Z</time></trkpt><trkpt lat="40.019857530879335" lon="9.438740154124288"><ele>1024.0</ele><time>2026-05-02T13:16:19Z</time></trkpt><trkpt lat="40.01994427214593" lon="9.438643648430713"><ele>1023.6</ele><time>2026-05-02T13:16:20Z</time></trkpt><trkpt lat="40.02002702710056" lon="9.4385517263809"><ele>1023.2</ele><time>2026-05-02T13:16:21Z</time></trkpt><trkpt lat="40.02010971035626" lon="9.438479103853473"><ele>1022.8000000000001</ele><time>2026-05-02T13:16:22Z</time></trkpt><trkpt lat="40.0202041386478" lon="9.43841735514147"><ele>1022.4000000000001</ele><time>2026-05-02T13:16:23Z</time></trkpt><trkpt lat="40.0203135245028" lon="9.438377805984178"><ele>1022.0</ele><time>2026-05-02T13:16:24Z</time></trkpt><trkpt lat="40.02043993137059" lon="9.43835761122299"><ele>1022.0</ele><time>2026-05-02T13:16:25Z</time></trkpt><trkpt lat="40.020570077832815" lon="9.438347055878328"><ele>1022.0</ele><time>2026-05-02T13:16:26Z</time></trkpt><trkpt lat="40.020705258431725" lon="9.438347069877016"><ele>1022.0</ele><time>2026-05-02T13:16:27Z</time></trkpt><trkpt lat="40.020847558472106" lon="9.4383448592179"><ele>1022.0</ele><time>2026-05-02T13:16:28Z</time></trkpt><trkpt lat="40.02099258974097" lon="9.438340436747751"><ele>1022.75</ele><time>2026-05-02T13:16:29Z</time></trkpt><trkpt lat="40.021134795200254" lon="9.438332731766627"><ele>1023.5</ele><time>2026-05-02T13:16:30Z</time></trkpt><trkpt lat="40.021276740666686" lon="9.438327650852036"><ele>1024.25</ele><time>2026-05-02T13:16:31Z</time></trkpt><trkpt lat="40.02141421438011" lon="9.438329768812286"><ele>1025.0</ele><time>2026-05-02T13:16:32Z</time></trkpt><trkpt lat="40.02154865013529" lon="9.438327672319266"><ele>1026.0</ele><time>2026-05-02T13:16:33Z</time></trkpt><trkpt lat="40.021680390574495" lon="9.43832135888049"><ele>1027.0</ele><time>2026-05-02T13:16:34Z</time></trkpt><trkpt lat="40.02180758620277" lon="9.438318281577727"><ele>1028.0</ele><time>2026-05-02T13:16:35Z</time></trkpt><trkpt lat="40.02193293866192" lon="9.438314759150991"><ele>1029.0</ele><time>2026-05-02T13:16:36Z</time></trkpt><trkpt lat="40.02206083423125" lon="9.438304336166299"><ele>1029.0</ele><time>2026-05-02T13:16:37Z</time></trkpt><trkpt lat="40.022187090892665" lon="9.438278426785647"><ele>1029.0</ele><time>2026-05-02T13:16:38Z</time></trkpt><trkpt lat="40.022311448522395" lon="9.438228992524971"><ele>1029.0</ele><time>2026-05-02T13:16:39Z</time></trkpt><trkpt lat="40.02243158360483" lon="9.438144998521105"><ele>1029.0</ele><time>2026-05-02T13:16:40Z</time></trkpt><trkpt lat="40.02255088027266" lon="9.438042484960446"><ele>1029.25</ele><time>2026-05-02T13:16:41Z</time></trkpt><trkpt lat="40.022672121103284" lon="9.437941415785563"><ele>1029.5</ele><time>2026-05-02T13:16:42Z</time></trkpt><trkpt lat="40.022790591749086" lon="9.437846184035543"><ele>1029.75</ele><time>2026-05-02T13:16:43Z</time></trkpt><trkpt lat="40.022900596822254" lon="9.437756124039133"><ele>1030.0</ele><time>2026-05-02T13:16:44Z</time></trkpt><trkpt lat="40.023004422941746" lon="9.437673920575559"><ele>1030.0</ele><time>2026-05-02T13:16:45Z</time></trkpt><trkpt lat="40.02310603053668" lon="9.437585621892778"><ele>1030.0</ele><time>2026-05-02T13:16:46Z</time></trkpt><trkpt lat="40.023187871790135" lon="9.437473219051194"><ele>1030.0</ele><time>2026-05-02T13:16:47Z</time></trkpt><trkpt lat="40.023244058421014" lon="9.437334229234237"><ele>1030.0</ele><time>2026-05-02T13:16:48Z</time></trkpt><trkpt lat="40.02328533115962" lon="9.43717474442791"><ele>1030.5</ele><time>2026-05-02T13:16:49Z</time></trkpt><trkpt lat="40.0233113582903" lon="9.437000611058142"><ele>1031.0</ele><time>2026-05-02T13:16:50Z</time></trkpt><trkpt lat="40.02333173477882" lon="9.436826063557918"><ele>1031.5</ele><time>2026-05-02T13:16:51Z</time></trkpt><trkpt lat="40.02335558393933" lon="9.436662954855587"><ele>1032.0</ele><time>2026-05-02T13:16:52Z</time></trkpt><trkpt lat="40.02337849494293" lon="9.436507493734974"><ele>1034.25</ele><time>2026-05-02T13:16:53Z</time></trkpt><trkpt lat="40.02340245760239" lon="9.436347120545742"><ele>1036.5</ele><time>2026-05-02T13:16:54Z</time></trkpt><trkpt lat="40.023426058422636" lon="9.43619405763516"><ele>1038.75</ele><time>2026-05-02T13:16:55Z</time></trkpt><trkpt lat="40.023447207929664" lon="9.436046828467166"><ele>1041.0</ele><time>2026-05-02T13:16:56Z</time></trkpt><trkpt lat="40.02346677173266" lon="9.435910421952002"><ele>1041.0</ele><time>2026-05-02T13:16:57Z</time></trkpt><trkpt lat="40.02348590956714" lon="9.435781730415403"><ele>1041.0</ele><time>2026-05-02T13:16:58Z</time></trkpt><trkpt lat="40.02350552186292" lon="9.435664177126322"><ele>1041.0</ele><time>2026-05-02T13:16:59Z</time></trkpt><trkpt lat="40.02352613367561" lon="9.435549953788113"><ele>1041.0</ele><time>2026-05-02T13:17:00Z</time></trkpt><trkpt lat="40.02355037940191" lon="9.435439154127732"><ele>1041.0</ele><time>2026-05-02T13:17:01Z</time></trkpt><trkpt lat="40.023583585190906" lon="9.435333481150638"><ele>1041.0</ele><time>2026-05-02T13:17:02Z</time></trkpt><trkpt lat="40.02363834720181" lon="9.435244086028886"><ele>1041.0</ele><time>2026-05-02T13:17:03Z</time></trkpt><trkpt lat="40.02368390807049" lon="9.435149141667456"><ele>1041.0</ele><time>2026-05-02T13:17:04Z</time></trkpt><trkpt lat="40.02373098749898" lon="9.435057335111422"><ele>1041.0</ele><time>2026-05-02T13:17:05Z</time></trkpt><trkpt lat="40.02377992322717" lon="9.434965634396265"><ele>1041.0</ele><time>2026-05-02T13:17:06Z</time></trkpt><trkpt lat="40.02381738083358" lon="9.434868115798656"><ele>1041.0</ele><time>2026-05-02T13:17:07Z</time></trkpt><trkpt lat="40.02386280159072" lon="9.434781011063631"><ele>1041.0</ele><time>2026-05-02T13:17:08Z</time></trkpt><trkpt lat="40.02390817444565" lon="9.434694812461398"><ele>1041.0</ele><time>2026-05-02T13:17:09Z</time></trkpt><trkpt lat="40.02395185829905" lon="9.434607010449454"><ele>1041.0</ele><time>2026-05-02T13:17:10Z</time></trkpt><trkpt lat="40.024011056302406" lon="9.434532514065559"><ele>1041.0</ele><time>2026-05-02T13:17:11Z</time></trkpt><trkpt lat="40.02402867994759" lon="9.434419899552026"><ele>1041.0</ele><time>2026-05-02T13:17:12Z</time></trkpt><trkpt lat="40.02407212949962" lon="9.434327860823096"><ele>1041.0</ele><time>2026-05-02T13:17:13Z</time></trkpt><trkpt lat="40.024115953161605" lon="9.434228413920449"><ele>1040.6666666666667</ele><time>2026-05-02T13:17:14Z</time></trkpt><trkpt lat="40.02418904623413" lon="9.434191698217273"><ele>1040.3333333333333</ele><time>2026-05-02T13:17:15Z</time></trkpt><trkpt lat="40.02424325156645" lon="9.434113638215392"><ele>1040.0</ele><time>2026-05-02T13:17:16Z</time></trkpt><trkpt lat="40.02430228289235" lon="9.43404160337306"><ele>1039.6666666666665</ele><time>2026-05-02T13:17:17Z</time></trkpt><trkpt lat="40.02436792902803" lon="9.43399477299115"><ele>1039.3333333333333</ele><time>2026-05-02T13:17:18Z</time></trkpt><trkpt lat="40.02443177853745" lon="9.433950639714551"><ele>1039.0</ele><time>2026-05-02T13:17:19Z</time></trkpt><trkpt lat="40.024500463691815" lon="9.43392925968572"><ele>1038.9999999999998</ele><time>2026-05-02T13:17:20Z</time></trkpt><trkpt lat="40.02456845387578" lon="9.433913551523505"><ele>1039.0</ele><time>2026-05-02T13:17:21Z</time></trkpt><trkpt lat="40.024635635705735" lon="9.433900971658202"><ele>1039.0</ele><time>2026-05-02T13:17:22Z</time></trkpt><trkpt lat="40.02470283461948" lon="9.433888200103018"><ele>1039.0</ele><time>2026-05-02T13:17:23Z</time></trkpt><trkpt lat="40.02476838683471" lon="9.433873244357136"><ele>1039.0</ele><time>2026-05-02T13:17:24Z</time></trkpt><trkpt lat="40.024833832149" lon="9.43385692711175"><ele>1038.9999999999998</ele><time>2026-05-02T13:17:25Z</time></trkpt><trkpt lat="40.024907611743565" lon="9.43384081698937"><ele>1039.0</ele><time>2026-05-02T13:17:26Z</time></trkpt><trkpt lat="40.0249814224584" lon="9.433825578426122"><ele>1038.8</ele><time>2026-05-02T13:17:27Z</time></trkpt><trkpt lat="40.025072790973695" lon="9.433808361022674"><ele>1038.6000000000001</ele><time>2026-05-02T13:17:28Z</time></trkpt><trkpt lat="40.025182092871916" lon="9.433783979462603"><ele>1038.4</ele><time>2026-05-02T13:17:29Z</time></trkpt><trkpt lat="40.02529032543958" lon="9.433757611072531"><ele>1038.2</ele><time>2026-05-02T13:17:30Z</time></trkpt><trkpt lat="40.02539864760987" lon="9.433732017221022"><ele>1038.0</ele><time>2026-05-02T13:17:31Z</time></trkpt><trkpt lat="40.02551801939419" lon="9.433706012989038"><ele>1038.0</ele><time>2026-05-02T13:17:32Z</time></trkpt><trkpt lat="40.025639993143315" lon="9.433681167687583"><ele>1038.0</ele><time>2026-05-02T13:17:33Z</time></trkpt><trkpt lat="40.02576085227164" lon="9.433656909966327"><ele>1038.0</ele><time>2026-05-02T13:17:34Z</time></trkpt><trkpt lat="40.02587803139951" lon="9.433630951911345"><ele>1038.0</ele><time>2026-05-02T13:17:35Z</time></trkpt><trkpt lat="40.02599399172605" lon="9.433606209746804"><ele>1035.6</ele><time>2026-05-02T13:17:36Z</time></trkpt><trkpt lat="40.02610643614592" lon="9.433580767730227"><ele>1033.1999999999998</ele><time>2026-05-02T13:17:37Z</time></trkpt><trkpt lat="40.026214521775714" lon="9.433558302836675"><ele>1030.8</ele><time>2026-05-02T13:17:38Z</time></trkpt><trkpt lat="40.02631969605395" lon="9.433535801296491"><ele>1028.3999999999999</ele><time>2026-05-02T13:17:39Z</time></trkpt><trkpt lat="40.02642863652392" lon="9.433508856210484"><ele>1026.0</ele><time>2026-05-02T13:17:40Z</time></trkpt><trkpt lat="40.02654830279162" lon="9.433488753335588"><ele>1025.25</ele><time>2026-05-02T13:17:41Z</time></trkpt><trkpt lat="40.02667310307262" lon="9.433470699548518"><ele>1024.5</ele><time>2026-05-02T13:17:42Z</time></trkpt><trkpt lat="40.02681010103208" lon="9.433457209141853"><ele>1023.75</ele><time>2026-05-02T13:17:43Z</time></trkpt><trkpt lat="40.02694681069345" lon="9.4334470217895"><ele>1023.0</ele><time>2026-05-02T13:17:44Z</time></trkpt><trkpt lat="40.02708779206003" lon="9.43343865933357"><ele>1023.0</ele><time>2026-05-02T13:17:45Z</time></trkpt><trkpt lat="40.02723469860776" lon="9.433431011478946"><ele>1023.0</ele><time>2026-05-02T13:17:46Z</time></trkpt><trkpt lat="40.027391298408794" lon="9.433419629895567"><ele>1023.0</ele><time>2026-05-02T13:17:47Z</time></trkpt><trkpt lat="40.02755700771202" lon="9.433405642672174"><ele>1022.6666666666667</ele><time>2026-05-02T13:17:48Z</time></trkpt><trkpt lat="40.027730772755426" lon="9.433391753500018"><ele>1022.3333333333334</ele><time>2026-05-02T13:17:49Z</time></trkpt><trkpt lat="40.02790378522361" lon="9.43340076804289"><ele>1022.0</ele><time>2026-05-02T13:17:50Z</time></trkpt><trkpt lat="40.02806427258064" lon="9.433371526449928"><ele>1022.0</ele><time>2026-05-02T13:17:51Z</time></trkpt><trkpt lat="40.02823578113113" lon="9.433360677853255"><ele>1022.0</ele><time>2026-05-02T13:17:52Z</time></trkpt><trkpt lat="40.02840149214942" lon="9.433347839092665"><ele>1022.0</ele><time>2026-05-02T13:17:53Z</time></trkpt><trkpt lat="40.02856381395205" lon="9.433337100786215"><ele>1021.6666666666667</ele><time>2026-05-02T13:17:54Z</time></trkpt><trkpt lat="40.028722773890806" lon="9.433327543284232"><ele>1021.3333333333333</ele><time>2026-05-02T13:17:55Z</time></trkpt><trkpt lat="40.02887714999784" lon="9.43331905001416"><ele>1021.0</ele><time>2026-05-02T13:17:56Z</time></trkpt><trkpt lat="40.02902793284687" lon="9.433309261356928"><ele>1021.5</ele><time>2026-05-02T13:17:57Z</time></trkpt><trkpt lat="40.02918071283669" lon="9.433297804118295"><ele>1022.0</ele><time>2026-05-02T13:17:58Z</time></trkpt><trkpt lat="40.029330364243116" lon="9.433287644207361"><ele>1022.5</ele><time>2026-05-02T13:17:59Z</time></trkpt><trkpt lat="40.02947391323366" lon="9.43327624605272"><ele>1023.0</ele><time>2026-05-02T13:18:00Z</time></trkpt><trkpt lat="40.029603047078865" lon="9.433268830509814"><ele>1023.0</ele><time>2026-05-02T13:18:01Z</time></trkpt><trkpt lat="40.02972521091779" lon="9.433269751444723"><ele>1023.0</ele><time>2026-05-02T13:18:02Z</time></trkpt><trkpt lat="40.02984371785867" lon="9.433294872398134"><ele>1023.0</ele><time>2026-05-02T13:18:03Z</time></trkpt><trkpt lat="40.0299544503302" lon="9.433346322993273"><ele>1023.0</ele><time>2026-05-02T13:18:04Z</time></trkpt><trkpt lat="40.030054674998844" lon="9.43341747372103"><ele>1023.25</ele><time>2026-05-02T13:18:05Z</time></trkpt><trkpt lat="40.03015193360687" lon="9.43350371210317"><ele>1023.5</ele><time>2026-05-02T13:18:06Z</time></trkpt><trkpt lat="40.030248937432155" lon="9.433594823046533"><ele>1023.75</ele><time>2026-05-02T13:18:07Z</time></trkpt><trkpt lat="40.030348286794485" lon="9.433683599256732"><ele>1024.0</ele><time>2026-05-02T13:18:08Z</time></trkpt><trkpt lat="40.030449045578315" lon="9.433771501638216"><ele>1025.25</ele><time>2026-05-02T13:18:09Z</time></trkpt><trkpt lat="40.03055069372104" lon="9.433860566882656"><ele>1026.5</ele><time>2026-05-02T13:18:10Z</time></trkpt><trkpt lat="40.03065827111857" lon="9.433953380188525"><ele>1027.75</ele><time>2026-05-02T13:18:11Z</time></trkpt><trkpt lat="40.030771250926456" lon="9.434053353822243"><ele>1029.0</ele><time>2026-05-02T13:18:12Z</time></trkpt><trkpt lat="40.03088820749576" lon="9.434152333399709"><ele>1029.0</ele><time>2026-05-02T13:18:13Z</time></trkpt><trkpt lat="40.03100465617128" lon="9.434251865562723"><ele>1029.0</ele><time>2026-05-02T13:18:14Z</time></trkpt><trkpt lat="40.03110995342566" lon="9.434353500091792"><ele>1029.0</ele><time>2026-05-02T13:18:15Z</time></trkpt><trkpt lat="40.031203032845774" lon="9.434471688201832"><ele>1029.0</ele><time>2026-05-02T13:18:16.001Z</time></trkpt><trkpt lat="40.03127464957926" lon="9.434615309667326"><ele>1031.0</ele><time>2026-05-02T13:18:17.001Z</time></trkpt><trkpt lat="40.03134023961663" lon="9.434779881854839"><ele>1033.0</ele><time>2026-05-02T13:18:18.001Z</time></trkpt><trkpt lat="40.03140558466306" lon="9.434957327671686"><ele>1035.0</ele><time>2026-05-02T13:18:19.001Z</time></trkpt><trkpt lat="40.0314722350285" lon="9.43514405008738"><ele>1035.0</ele><time>2026-05-02T13:18:20.001Z</time></trkpt><trkpt lat="40.0315395937122" lon="9.435331972188724"><ele>1035.0</ele><time>2026-05-02T13:18:21.001Z</time></trkpt><trkpt lat="40.03160805867445" lon="9.435506843377565"><ele>1035.0</ele><time>2026-05-02T13:18:22.001Z</time></trkpt><trkpt lat="40.03167414097479" lon="9.435682275453518"><ele>1032.0</ele><time>2026-05-02T13:18:23.001Z</time></trkpt><trkpt lat="40.03174085700744" lon="9.435864075240403"><ele>1029.0</ele><time>2026-05-02T13:18:24.001Z</time></trkpt><trkpt lat="40.031808000766" lon="9.436050941447304"><ele>1026.0</ele><time>2026-05-02T13:18:25.001Z</time></trkpt><trkpt lat="40.03188133703804" lon="9.436247409437069"><ele>1027.0</ele><time>2026-05-02T13:18:26.001Z</time></trkpt><trkpt lat="40.03195504392781" lon="9.436452412985608"><ele>1028.0</ele><time>2026-05-02T13:18:27.001Z</time></trkpt><trkpt lat="40.03203724528616" lon="9.436664598187237"><ele>1029.0</ele><time>2026-05-02T13:18:28.001Z</time></trkpt><trkpt lat="40.032119964750166" lon="9.43688316753846"><ele>1029.0</ele><time>2026-05-02T13:18:29.001Z</time></trkpt><trkpt lat="40.032198918257066" lon="9.43709982944277"><ele>1029.0</ele><time>2026-05-02T13:18:30.001Z</time></trkpt><trkpt lat="40.03227642833197" lon="9.437322231808444"><ele>1029.0</ele><time>2026-05-02T13:18:31.001Z</time></trkpt><trkpt lat="40.03235338977393" lon="9.437543360619788"><ele>1029.6666666666667</ele><time>2026-05-02T13:18:32.001Z</time></trkpt><trkpt lat="40.03243015437268" lon="9.437761370452316"><ele>1030.3333333333335</ele><time>2026-05-02T13:18:33.001Z</time></trkpt><trkpt lat="40.03250743507993" lon="9.437977457391025"><ele>1031.0</ele><time>2026-05-02T13:18:34.001Z</time></trkpt><trkpt lat="40.032585372650516" lon="9.438190289955092"><ele>1031.0</ele><time>2026-05-02T13:18:35.001Z</time></trkpt><trkpt lat="40.03266248259784" lon="9.438401186038618"><ele>1031.0</ele><time>2026-05-02T13:18:36.001Z</time></trkpt><trkpt lat="40.0327414157617" lon="9.438607838408458"><ele>1031.0</ele><time>2026-05-02T13:18:37.001Z</time></trkpt><trkpt lat="40.03281522962916" lon="9.438814904173782"><ele>1034.0</ele><time>2026-05-02T13:18:38.001Z</time></trkpt><trkpt lat="40.03287305122279" lon="9.43902415876073"><ele>1037.0</ele><time>2026-05-02T13:18:39.001Z</time></trkpt><trkpt lat="40.03294114556135" lon="9.43921606853353"><ele>1040.0</ele><time>2026-05-02T13:18:40.001Z</time></trkpt><trkpt lat="40.03301125490349" lon="9.439413657248295"><ele>1040.0</ele><time>2026-05-02T13:18:41.001Z</time></trkpt><trkpt lat="40.033075056683856" lon="9.439593469256488"><ele>1040.0</ele><time>2026-05-02T13:18:42.001Z</time></trkpt><trkpt lat="40.03315344395009" lon="9.439769354396589"><ele>1040.0</ele><time>2026-05-02T13:18:43.001Z</time></trkpt><trkpt lat="40.033214746227905" lon="9.439954290764925"><ele>1039.6666666666667</ele><time>2026-05-02T13:18:44.001Z</time></trkpt><trkpt lat="40.03328077444255" lon="9.440146134315874"><ele>1039.3333333333333</ele><time>2026-05-02T13:18:45.001Z</time></trkpt><trkpt lat="40.033353322157716" lon="9.440346495879277"><ele>1039.0</ele><time>2026-05-02T13:18:46.001Z</time></trkpt><trkpt lat="40.03342816167017" lon="9.440553801000299"><ele>1041.3333333333333</ele><time>2026-05-02T13:18:47.001Z</time></trkpt><trkpt lat="40.033497714518354" lon="9.44076048580842"><ele>1043.6666666666667</ele><time>2026-05-02T13:18:48.001Z</time></trkpt><trkpt lat="40.033571308180825" lon="9.44096346592966"><ele>1046.0</ele><time>2026-05-02T13:18:49.001Z</time></trkpt><trkpt lat="40.03363705312986" lon="9.441171924916725"><ele>1050.3333333333335</ele><time>2026-05-02T13:18:50.001Z</time></trkpt><trkpt lat="40.03372946531862" lon="9.441364008514073"><ele>1054.6666666666667</ele><time>2026-05-02T13:18:51.001Z</time></trkpt><trkpt lat="40.03384215135996" lon="9.441540627539664"><ele>1059.0</ele><time>2026-05-02T13:18:52.001Z</time></trkpt><trkpt lat="40.03397937096235" lon="9.441680847194736"><ele>1059.0</ele><time>2026-05-02T13:18:53.001Z</time></trkpt><trkpt lat="40.034110764330876" lon="9.44183030542764"><ele>1059.0</ele><time>2026-05-02T13:18:54.001Z</time></trkpt><trkpt lat="40.03423574406632" lon="9.44199739626722"><ele>1059.0</ele><time>2026-05-02T13:18:55.001Z</time></trkpt><trkpt lat="40.03438007066384" lon="9.442160206152645"><ele>1058.6666666666667</ele><time>2026-05-02T13:18:56.001Z</time></trkpt><trkpt lat="40.03452957232435" lon="9.44232885378766"><ele>1058.3333333333335</ele><time>2026-05-02T13:18:57.001Z</time></trkpt><trkpt lat="40.034682325676" lon="9.442501170476923"><ele>1058.0</ele><time>2026-05-02T13:18:58.001Z</time></trkpt><trkpt lat="40.03483795273077" lon="9.442677604111381"><ele>1059.6666666666667</ele><time>2026-05-02T13:18:59.001Z</time></trkpt><trkpt lat="40.03499648460105" lon="9.442857181375688"><ele>1061.3333333333333</ele><time>2026-05-02T13:19:00.001Z</time></trkpt><trkpt lat="40.03516373087995" lon="9.443018784166215"><ele>1063.0</ele><time>2026-05-02T13:19:01.001Z</time></trkpt><trkpt lat="40.03531929622064" lon="9.443195224054032"><ele>1063.0</ele><time>2026-05-02T13:19:02.001Z</time></trkpt><trkpt lat="40.035472546537825" lon="9.443369710700983"><ele>1063.0</ele><time>2026-05-02T13:19:03.001Z</time></trkpt><trkpt lat="40.035621481001314" lon="9.443540558719741"><ele>1063.0</ele><time>2026-05-02T13:19:04.001Z</time></trkpt><trkpt lat="40.03576638945373" lon="9.44370411623313"><ele>1065.6666666666665</ele><time>2026-05-02T13:19:05.001Z</time></trkpt><trkpt lat="40.03590975499511" lon="9.443863357743435"><ele>1068.3333333333333</ele><time>2026-05-02T13:19:06.001Z</time></trkpt><trkpt lat="40.03605115148325" lon="9.44402185633966"><ele>1071.0</ele><time>2026-05-02T13:19:07.001Z</time></trkpt><trkpt lat="40.03619010736543" lon="9.444185051253882"><ele>1071.0</ele><time>2026-05-02T13:19:08.001Z</time></trkpt><trkpt lat="40.03632208321671" lon="9.44435990453413"><ele>1071.0</ele><time>2026-05-02T13:19:09.001Z</time></trkpt><trkpt lat="40.03644761116398" lon="9.444539552015652"><ele>1071.0</ele><time>2026-05-02T13:19:10.001Z</time></trkpt><trkpt lat="40.0365684678792" lon="9.444722356241362"><ele>1071.0</ele><time>2026-05-02T13:19:11.001Z</time></trkpt><trkpt lat="40.03668959956828" lon="9.44490838162894"><ele>1071.0</ele><time>2026-05-02T13:19:12.001Z</time></trkpt><trkpt lat="40.03681020664414" lon="9.445100028700013"><ele>1071.0</ele><time>2026-05-02T13:19:13.001Z</time></trkpt><trkpt lat="40.0369238765207" lon="9.445291938506415"><ele>1075.6666666666667</ele><time>2026-05-02T13:19:14.001Z</time></trkpt><trkpt lat="40.03702800302121" lon="9.445490326076136"><ele>1080.3333333333335</ele><time>2026-05-02T13:19:15.001Z</time></trkpt><trkpt lat="40.03712137456412" lon="9.445699831714787"><ele>1085.0</ele><time>2026-05-02T13:19:16.001Z</time></trkpt><trkpt lat="40.03719624728774" lon="9.445920405167055"><ele>1085.0</ele><time>2026-05-02T13:19:17.001Z</time></trkpt><trkpt lat="40.037262824797956" lon="9.446152740336686"><ele>1085.0</ele><time>2026-05-02T13:19:18.001Z</time></trkpt><trkpt lat="40.03733506783041" lon="9.446391857139426"><ele>1085.0</ele><time>2026-05-02T13:19:19.001Z</time></trkpt><trkpt lat="40.037407069603894" lon="9.446635299558816"><ele>1085.6666666666667</ele><time>2026-05-02T13:19:20.001Z</time></trkpt><trkpt lat="40.037471799631135" lon="9.446871781545733"><ele>1086.3333333333333</ele><time>2026-05-02T13:19:21.001Z</time></trkpt><trkpt lat="40.03753161209688" lon="9.44710778302585"><ele>1087.0</ele><time>2026-05-02T13:19:22.001Z</time></trkpt><trkpt lat="40.03758401816449" lon="9.447339775604622"><ele>1087.0</ele><time>2026-05-02T13:19:23.001Z</time></trkpt><trkpt lat="40.03762042011701" lon="9.447573076832812"><ele>1087.0</ele><time>2026-05-02T13:19:24.001Z</time></trkpt><trkpt lat="40.03764966589968" lon="9.44780961705586"><ele>1087.0</ele><time>2026-05-02T13:19:25.001Z</time></trkpt><trkpt lat="40.03767653672205" lon="9.448040490476048"><ele>1088.3333333333333</ele><time>2026-05-02T13:19:26.001Z</time></trkpt><trkpt lat="40.03769696253619" lon="9.448266555213936"><ele>1089.6666666666667</ele><time>2026-05-02T13:19:27.001Z</time></trkpt><trkpt lat="40.037692123537774" lon="9.448489402590885"><ele>1091.0</ele><time>2026-05-02T13:19:28.001Z</time></trkpt><trkpt lat="40.03771609899774" lon="9.448701877301746"><ele>1092.0</ele><time>2026-05-02T13:19:29.001Z</time></trkpt><trkpt lat="40.0377243639062" lon="9.44890576483051"><ele>1093.0</ele><time>2026-05-02T13:19:30.001Z</time></trkpt><trkpt lat="40.03773270416741" lon="9.449102198401144"><ele>1094.0</ele><time>2026-05-02T13:19:31.001Z</time></trkpt><trkpt lat="40.03773860807036" lon="9.449292532752407"><ele>1094.0</ele><time>2026-05-02T13:19:32.001Z</time></trkpt><trkpt lat="40.03774579089764" lon="9.449478419539087"><ele>1094.0</ele><time>2026-05-02T13:19:33.001Z</time></trkpt><trkpt lat="40.03775340315288" lon="9.449662091026827"><ele>1094.0</ele><time>2026-05-02T13:19:34.001Z</time></trkpt><trkpt lat="40.037759524712065" lon="9.449845796549221"><ele>1094.0</ele><time>2026-05-02T13:19:35.001Z</time></trkpt><trkpt lat="40.037763414004594" lon="9.450031130298683"><ele>1093.75</ele><time>2026-05-02T13:19:36.001Z</time></trkpt><trkpt lat="40.03776788623025" lon="9.450215146139058"><ele>1093.5</ele><time>2026-05-02T13:19:37.001Z</time></trkpt><trkpt lat="40.037773212408396" lon="9.45039765093109"><ele>1093.25</ele><time>2026-05-02T13:19:38.001Z</time></trkpt><trkpt lat="40.03778000399915" lon="9.450577530206678"><ele>1093.0</ele><time>2026-05-02T13:19:39.001Z</time></trkpt><trkpt lat="40.03778583771728" lon="9.450746869266023"><ele>1093.0</ele><time>2026-05-02T13:19:40.001Z</time></trkpt><trkpt lat="40.03779195416742" lon="9.450904047650909"><ele>1093.0</ele><time>2026-05-02T13:19:41.001Z</time></trkpt><trkpt lat="40.03780407728832" lon="9.451056120020494"><ele>1093.0</ele><time>2026-05-02T13:19:42.001Z</time></trkpt><trkpt lat="40.03780977317695" lon="9.451201140402585"><ele>1093.0</ele><time>2026-05-02T13:19:43.001Z</time></trkpt><trkpt lat="40.03784215578268" lon="9.45133886329124"><ele>1091.0</ele><time>2026-05-02T13:19:44.001Z</time></trkpt><trkpt lat="40.03789364893114" lon="9.451463611377552"><ele>1089.0</ele><time>2026-05-02T13:19:45.001Z</time></trkpt><trkpt lat="40.03795967821067" lon="9.451575380554603"><ele>1087.0</ele><time>2026-05-02T13:19:46.001Z</time></trkpt><trkpt lat="40.038039842824304" lon="9.451667568437397"><ele>1085.0</ele><time>2026-05-02T13:19:47.001Z</time></trkpt><trkpt lat="40.038143215837614" lon="9.451719877487806"><ele>1083.0</ele><time>2026-05-02T13:19:48.001Z</time></trkpt><trkpt lat="40.038248304277566" lon="9.451770968869733"><ele>1084.75</ele><time>2026-05-02T13:19:49.001Z</time></trkpt><trkpt lat="40.03835818869994" lon="9.451815017252233"><ele>1086.5</ele><time>2026-05-02T13:19:50.001Z</time></trkpt><trkpt lat="40.038471932208374" lon="9.451863966977522"><ele>1088.25</ele><time>2026-05-02T13:19:51.001Z</time></trkpt><trkpt lat="40.038586326074665" lon="9.451923397834623"><ele>1090.0</ele><time>2026-05-02T13:19:52.001Z</time></trkpt><trkpt lat="40.03869766740373" lon="9.451988860144413"><ele>1090.0</ele><time>2026-05-02T13:19:53.001Z</time></trkpt><trkpt lat="40.03880656226779" lon="9.452063706404623"><ele>1090.0</ele><time>2026-05-02T13:19:54.001Z</time></trkpt><trkpt lat="40.03892259262719" lon="9.452146897227923"><ele>1090.0</ele><time>2026-05-02T13:19:55.001Z</time></trkpt><trkpt lat="40.0390389387263" lon="9.45223159379389"><ele>1090.0</ele><time>2026-05-02T13:19:56.001Z</time></trkpt><trkpt lat="40.03916074114674" lon="9.452332208034553"><ele>1086.6666666666665</ele><time>2026-05-02T13:19:57.001Z</time></trkpt><trkpt lat="40.03928562328478" lon="9.452440974705958"><ele>1083.3333333333333</ele><time>2026-05-02T13:19:58Z</time></trkpt><trkpt lat="40.03941226516142" lon="9.452552468256247"><ele>1080.0</ele><time>2026-05-02T13:19:59Z</time></trkpt><trkpt lat="40.03954305428928" lon="9.45265726282937"><ele>1080.0</ele><time>2026-05-02T13:20:00Z</time></trkpt><trkpt lat="40.03968663266329" lon="9.452751147690705"><ele>1080.0</ele><time>2026-05-02T13:20:01Z</time></trkpt><trkpt lat="40.03983936495676" lon="9.452834933339313"><ele>1080.0</ele><time>2026-05-02T13:20:02Z</time></trkpt><trkpt lat="40.03999289602141" lon="9.452929579236264"><ele>1076.3333333333333</ele><time>2026-05-02T13:20:03Z</time></trkpt><trkpt lat="40.04015929336183" lon="9.453008863323412"><ele>1072.6666666666665</ele><time>2026-05-02T13:20:04Z</time></trkpt><trkpt lat="40.040337960365825" lon="9.453077538459599"><ele>1069.0</ele><time>2026-05-02T13:20:05Z</time></trkpt><trkpt lat="40.04052374775014" lon="9.453132689535513"><ele>1069.0</ele><time>2026-05-02T13:20:06Z</time></trkpt><trkpt lat="40.040710258552664" lon="9.453164227855497"><ele>1069.0</ele><time>2026-05-02T13:20:07Z</time></trkpt><trkpt lat="40.04088846329459" lon="9.453226460369352"><ele>1069.0</ele><time>2026-05-02T13:20:08Z</time></trkpt><trkpt lat="40.04107307426171" lon="9.453289684365199"><ele>1072.3333333333333</ele><time>2026-05-02T13:20:09Z</time></trkpt><trkpt lat="40.04124860117184" lon="9.453356048826501"><ele>1075.6666666666667</ele><time>2026-05-02T13:20:10Z</time></trkpt><trkpt lat="40.04142163861439" lon="9.45342225026138"><ele>1079.0</ele><time>2026-05-02T13:20:11Z</time></trkpt><trkpt lat="40.041588879134736" lon="9.453487417089566"><ele>1082.6666666666667</ele><time>2026-05-02T13:20:12Z</time></trkpt><trkpt lat="40.04174726596642" lon="9.453543407162481"><ele>1086.3333333333333</ele><time>2026-05-02T13:20:13Z</time></trkpt><trkpt lat="40.04189397230409" lon="9.453617299595745"><ele>1090.0</ele><time>2026-05-02T13:20:14Z</time></trkpt><trkpt lat="40.04204075134637" lon="9.453648281158912"><ele>1090.0</ele><time>2026-05-02T13:20:15Z</time></trkpt><trkpt lat="40.042183294094066" lon="9.453700916606332"><ele>1090.0</ele><time>2026-05-02T13:20:16Z</time></trkpt><trkpt lat="40.042320821093796" lon="9.453750714034339"><ele>1090.0</ele><time>2026-05-02T13:20:17Z</time></trkpt><trkpt lat="40.042450875130214" lon="9.453798838414759"><ele>1090.0</ele><time>2026-05-02T13:20:18Z</time></trkpt><trkpt lat="40.042577064963915" lon="9.453850912959231"><ele>1085.75</ele><time>2026-05-02T13:20:19Z</time></trkpt><trkpt lat="40.04268805047748" lon="9.453908182840044"><ele>1081.5</ele><time>2026-05-02T13:20:20Z</time></trkpt><trkpt lat="40.04279577428187" lon="9.453980853234597"><ele>1077.25</ele><time>2026-05-02T13:20:21Z</time></trkpt><trkpt lat="40.0428904421437" lon="9.454069156565598"><ele>1073.0</ele><time>2026-05-02T13:20:22Z</time></trkpt><trkpt lat="40.042971403780825" lon="9.454160473842354"><ele>1073.0</ele><time>2026-05-02T13:20:23Z</time></trkpt><trkpt lat="40.04303544627132" lon="9.454247793647472"><ele>1073.0</ele><time>2026-05-02T13:20:24Z</time></trkpt><trkpt lat="40.04308137261922" lon="9.454342602754274"><ele>1073.0</ele><time>2026-05-02T13:20:25Z</time></trkpt><trkpt lat="40.04310410237145" lon="9.454446552147894"><ele>1073.0</ele><time>2026-05-02T13:20:26Z</time></trkpt><trkpt lat="40.04309895602792" lon="9.454554938852647"><ele>1073.0</ele><time>2026-05-02T13:20:27Z</time></trkpt><trkpt lat="40.043070618198435" lon="9.45466338455113"><ele>1073.0</ele><time>2026-05-02T13:20:28Z</time></trkpt><trkpt lat="40.04302520693293" lon="9.454774017113978"><ele>1071.0</ele><time>2026-05-02T13:20:29Z</time></trkpt><trkpt lat="40.04297155830852" lon="9.454896164888979"><ele>1069.0</ele><time>2026-05-02T13:20:30Z</time></trkpt><trkpt lat="40.04291337541222" lon="9.455041664350846"><ele>1067.0</ele><time>2026-05-02T13:20:31Z</time></trkpt><trkpt lat="40.042852124845744" lon="9.455203242145059"><ele>1065.0</ele><time>2026-05-02T13:20:32Z</time></trkpt><trkpt lat="40.042788460690076" lon="9.455375425141739"><ele>1068.0</ele><time>2026-05-02T13:20:33Z</time></trkpt><trkpt lat="40.042720013950415" lon="9.45555920032741"><ele>1071.0</ele><time>2026-05-02T13:20:34Z</time></trkpt><trkpt lat="40.04264439288651" lon="9.455757075760797"><ele>1074.0</ele><time>2026-05-02T13:20:35Z</time></trkpt><trkpt lat="40.04256920069047" lon="9.455955783736975"><ele>1074.0</ele><time>2026-05-02T13:20:36Z</time></trkpt><trkpt lat="40.04249120233215" lon="9.456159076397062"><ele>1074.0</ele><time>2026-05-02T13:20:37Z</time></trkpt><trkpt lat="40.042416566569734" lon="9.456366608045101"><ele>1074.0</ele><time>2026-05-02T13:20:38Z</time></trkpt><trkpt lat="40.04234203942936" lon="9.456571499647128"><ele>1072.0</ele><time>2026-05-02T13:20:39Z</time></trkpt><trkpt lat="40.04226799250473" lon="9.456787813003228"><ele>1070.0</ele><time>2026-05-02T13:20:40Z</time></trkpt><trkpt lat="40.04219593062535" lon="9.457001930295286"><ele>1068.0</ele><time>2026-05-02T13:20:41Z</time></trkpt><trkpt lat="40.042120271098405" lon="9.45722109867896"><ele>1068.0</ele><time>2026-05-02T13:20:42Z</time></trkpt><trkpt lat="40.04204294977365" lon="9.45744162698581"><ele>1068.0</ele><time>2026-05-02T13:20:43Z</time></trkpt><trkpt lat="40.04196526940601" lon="9.457660665196126"><ele>1068.0</ele><time>2026-05-02T13:20:44Z</time></trkpt><trkpt lat="40.04188688263523" lon="9.457885541514749"><ele>1070.6666666666667</ele><time>2026-05-02T13:20:45Z</time></trkpt><trkpt lat="40.04180646030037" lon="9.45811478944021"><ele>1073.3333333333335</ele><time>2026-05-02T13:20:46Z</time></trkpt><trkpt lat="40.04172798631907" lon="9.4583404645422"><ele>1076.0</ele><time>2026-05-02T13:20:47Z</time></trkpt><trkpt lat="40.04165340640971" lon="9.458556232595367"><ele>1074.3333333333335</ele><time>2026-05-02T13:20:48Z</time></trkpt><trkpt lat="40.04158038200927" lon="9.458759208399691"><ele>1072.6666666666667</ele><time>2026-05-02T13:20:49Z</time></trkpt><trkpt lat="40.041508640159364" lon="9.45895999157463"><ele>1071.0</ele><time>2026-05-02T13:20:50Z</time></trkpt><trkpt lat="40.04143814182804" lon="9.459162194681442"><ele>1071.0</ele><time>2026-05-02T13:20:51Z</time></trkpt><trkpt lat="40.04136821254485" lon="9.459359717479789"><ele>1071.0</ele><time>2026-05-02T13:20:52Z</time></trkpt><trkpt lat="40.041299039778494" lon="9.459553528507968"><ele>1071.0</ele><time>2026-05-02T13:20:53Z</time></trkpt><trkpt lat="40.041234093287834" lon="9.459743645372747"><ele>1074.0</ele><time>2026-05-02T13:20:54Z</time></trkpt><trkpt lat="40.041169223440924" lon="9.459911723859017"><ele>1077.0</ele><time>2026-05-02T13:20:55Z</time></trkpt><trkpt lat="40.04109766381811" lon="9.46007507520556"><ele>1080.0</ele><time>2026-05-02T13:20:56Z</time></trkpt><trkpt lat="40.04100279058439" lon="9.460226004050647"><ele>1083.0</ele><time>2026-05-02T13:20:57Z</time></trkpt><trkpt lat="40.04089330847886" lon="9.460365363517305"><ele>1085.3333333333333</ele><time>2026-05-02T13:20:58Z</time></trkpt><trkpt lat="40.040765892248785" lon="9.460493398261933"><ele>1087.6666666666665</ele><time>2026-05-02T13:20:59Z</time></trkpt><trkpt lat="40.040615468274446" lon="9.460585714715817"><ele>1090.0</ele><time>2026-05-02T13:21:00Z</time></trkpt><trkpt lat="40.04046931945693" lon="9.460706925305436"><ele>1090.0</ele><time>2026-05-02T13:21:01Z</time></trkpt><trkpt lat="40.040315063938806" lon="9.46080801474078"><ele>1090.0</ele><time>2026-05-02T13:21:02Z</time></trkpt><trkpt lat="40.040157673341135" lon="9.460912470042663"><ele>1090.0</ele><time>2026-05-02T13:21:03Z</time></trkpt><trkpt lat="40.04000060677399" lon="9.461019849374676"><ele>1090.6666666666665</ele><time>2026-05-02T13:21:04Z</time></trkpt><trkpt lat="40.03984147329247" lon="9.461132197754196"><ele>1091.3333333333333</ele><time>2026-05-02T13:21:05Z</time></trkpt><trkpt lat="40.039684024361954" lon="9.461241140806857"><ele>1092.0</ele><time>2026-05-02T13:21:06Z</time></trkpt><trkpt lat="40.039529755762324" lon="9.461349269016551"><ele>1092.0</ele><time>2026-05-02T13:21:07Z</time></trkpt><trkpt lat="40.03937556025497" lon="9.461460347932148"><ele>1092.0</ele><time>2026-05-02T13:21:08Z</time></trkpt><trkpt lat="40.03921666834815" lon="9.46156756606922"><ele>1092.0</ele><time>2026-05-02T13:21:09Z</time></trkpt><trkpt lat="40.03904974364535" lon="9.461658099800855"><ele>1091.3333333333333</ele><time>2026-05-02T13:21:10Z</time></trkpt><trkpt lat="40.03888883280644" lon="9.461729476519075"><ele>1090.6666666666665</ele><time>2026-05-02T13:21:11Z</time></trkpt><trkpt lat="40.03873303661903" lon="9.461771907706922"><ele>1090.0</ele><time>2026-05-02T13:21:12Z</time></trkpt><trkpt lat="40.03857706601666" lon="9.46185365343044"><ele>1090.0</ele><time>2026-05-02T13:21:13Z</time></trkpt><trkpt lat="40.0384312428659" lon="9.461974878326112"><ele>1090.0</ele><time>2026-05-02T13:21:14Z</time></trkpt><trkpt lat="40.03829882928531" lon="9.462131662061546"><ele>1090.0</ele><time>2026-05-02T13:21:15Z</time></trkpt><trkpt lat="40.03816679458139" lon="9.462305035173854"><ele>1089.0</ele><time>2026-05-02T13:21:16Z</time></trkpt><trkpt lat="40.0380296356136" lon="9.462486808361824"><ele>1088.0</ele><time>2026-05-02T13:21:17Z</time></trkpt><trkpt lat="40.03789158594964" lon="9.462673066308511"><ele>1087.0</ele><time>2026-05-02T13:21:18Z</time></trkpt><trkpt lat="40.03774475105817" lon="9.462867542841039"><ele>1089.3333333333333</ele><time>2026-05-02T13:21:19Z</time></trkpt><trkpt lat="40.037595896271945" lon="9.463067370772288"><ele>1091.6666666666667</ele><time>2026-05-02T13:21:20Z</time></trkpt><trkpt lat="40.03744550721809" lon="9.463267595844753"><ele>1094.0</ele><time>2026-05-02T13:21:21Z</time></trkpt><trkpt lat="40.037297709747776" lon="9.463464370533131"><ele>1094.0</ele><time>2026-05-02T13:21:22.001Z</time></trkpt><trkpt lat="40.03716586056381" lon="9.463665696796413"><ele>1094.0</ele><time>2026-05-02T13:21:23.001Z</time></trkpt><trkpt lat="40.03702359606164" lon="9.463846971310572"><ele>1094.0</ele><time>2026-05-02T13:21:24.001Z</time></trkpt><trkpt lat="40.03688769945727" lon="9.464026842039138"><ele>1094.3333333333335</ele><time>2026-05-02T13:21:25.001Z</time></trkpt><trkpt lat="40.036758415240755" lon="9.464209350804712"><ele>1094.6666666666667</ele><time>2026-05-02T13:21:26.001Z</time></trkpt><trkpt lat="40.03662110670949" lon="9.46438354241145"><ele>1095.0</ele><time>2026-05-02T13:21:27.001Z</time></trkpt><trkpt lat="40.0365083714674" lon="9.46458282970971"><ele>1095.6666666666667</ele><time>2026-05-02T13:21:28.001Z</time></trkpt><trkpt lat="40.03640743282996" lon="9.464796269803454"><ele>1096.3333333333335</ele><time>2026-05-02T13:21:29.001Z</time></trkpt><trkpt lat="40.036322622412506" lon="9.465029930196346"><ele>1097.0</ele><time>2026-05-02T13:21:30.001Z</time></trkpt><trkpt lat="40.03626431226223" lon="9.465275634109735"><ele>1097.6666666666667</ele><time>2026-05-02T13:21:31.001Z</time></trkpt><trkpt lat="40.03619495508032" lon="9.465514781635632"><ele>1098.3333333333333</ele><time>2026-05-02T13:21:32.001Z</time></trkpt><trkpt lat="40.036127418527784" lon="9.465753976118428"><ele>1099.0</ele><time>2026-05-02T13:21:33.001Z</time></trkpt><trkpt lat="40.0360573922171" lon="9.465985031090062"><ele>1099.0</ele><time>2026-05-02T13:21:34.001Z</time></trkpt><trkpt lat="40.03599298857067" lon="9.466214710497372"><ele>1099.0</ele><time>2026-05-02T13:21:35.001Z</time></trkpt><trkpt lat="40.035930606646275" lon="9.466432415524197"><ele>1099.0</ele><time>2026-05-02T13:21:36.001Z</time></trkpt><trkpt lat="40.03587121105165" lon="9.46664873066103"><ele>1097.3333333333333</ele><time>2026-05-02T13:21:37.001Z</time></trkpt><trkpt lat="40.03579593373707" lon="9.466851934852114"><ele>1095.6666666666667</ele><time>2026-05-02T13:21:38.001Z</time></trkpt><trkpt lat="40.035733338585274" lon="9.467071557412579"><ele>1094.0</ele><time>2026-05-02T13:21:39.001Z</time></trkpt><trkpt lat="40.0356745259771" lon="9.467278123592987"><ele>1094.0</ele><time>2026-05-02T13:21:40.001Z</time></trkpt><trkpt lat="40.03561347066432" lon="9.467492569173594"><ele>1094.0</ele><time>2026-05-02T13:21:41.001Z</time></trkpt><trkpt lat="40.03555073543708" lon="9.467711347203613"><ele>1094.0</ele><time>2026-05-02T13:21:42.001Z</time></trkpt><trkpt lat="40.03550134015492" lon="9.467938909954341"><ele>1092.3333333333335</ele><time>2026-05-02T13:21:43.001Z</time></trkpt><trkpt lat="40.035436711299596" lon="9.468161973510227"><ele>1090.6666666666667</ele><time>2026-05-02T13:21:44.001Z</time></trkpt><trkpt lat="40.035373020311674" lon="9.46838950955666"><ele>1089.0</ele><time>2026-05-02T13:21:45.001Z</time></trkpt><trkpt lat="40.03531344343549" lon="9.468619096319506"><ele>1088.6666666666667</ele><time>2026-05-02T13:21:46.001Z</time></trkpt><trkpt lat="40.03526900201479" lon="9.468856077288804"><ele>1088.3333333333335</ele><time>2026-05-02T13:21:47.001Z</time></trkpt><trkpt lat="40.035236345437454" lon="9.469095453924849"><ele>1088.0</ele><time>2026-05-02T13:21:48.001Z</time></trkpt><trkpt lat="40.03519767479724" lon="9.469327112419778"><ele>1088.0</ele><time>2026-05-02T13:21:49.001Z</time></trkpt><trkpt lat="40.035214415684514" lon="9.469568884628263"><ele>1088.0</ele><time>2026-05-02T13:21:50.001Z</time></trkpt><trkpt lat="40.035239812576926" lon="9.469808652734576"><ele>1088.0</ele><time>2026-05-02T13:21:51.001Z</time></trkpt><trkpt lat="40.03528152430724" lon="9.470056384501719"><ele>1087.3333333333335</ele><time>2026-05-02T13:21:52.001Z</time></trkpt><trkpt lat="40.03533134924556" lon="9.47030369109495"><ele>1086.6666666666667</ele><time>2026-05-02T13:21:53Z</time></trkpt><trkpt lat="40.035383850541905" lon="9.470553884277518"><ele>1086.0</ele><time>2026-05-02T13:21:54Z</time></trkpt><trkpt lat="40.03543811858122" lon="9.47081068961971"><ele>1085.6666666666667</ele><time>2026-05-02T13:21:55Z</time></trkpt><trkpt lat="40.03548752424857" lon="9.471064396382948"><ele>1085.3333333333335</ele><time>2026-05-02T13:21:56Z</time></trkpt><trkpt lat="40.03553784197243" lon="9.471319372516662"><ele>1085.0</ele><time>2026-05-02T13:21:57Z</time></trkpt><trkpt lat="40.035587947692484" lon="9.471571790577183"><ele>1085.0</ele><time>2026-05-02T13:21:58Z</time></trkpt><trkpt lat="40.035639719342186" lon="9.471822343678193"><ele>1085.0</ele><time>2026-05-02T13:21:59Z</time></trkpt><trkpt lat="40.035691070188754" lon="9.47206840998111"><ele>1085.0</ele><time>2026-05-02T13:22:00Z</time></trkpt><trkpt lat="40.03574205699818" lon="9.472308469158172"><ele>1085.6666666666667</ele><time>2026-05-02T13:22:01Z</time></trkpt><trkpt lat="40.03579647283943" lon="9.472544687388746"><ele>1086.3333333333333</ele><time>2026-05-02T13:22:02Z</time></trkpt><trkpt lat="40.03585655637282" lon="9.472778740295503"><ele>1087.0</ele><time>2026-05-02T13:22:03Z</time></trkpt><trkpt lat="40.03591926557993" lon="9.473005595964025"><ele>1087.6666666666665</ele><time>2026-05-02T13:22:04Z</time></trkpt><trkpt lat="40.035979233856374" lon="9.4732239827166"><ele>1088.3333333333333</ele><time>2026-05-02T13:22:05Z</time></trkpt><trkpt lat="40.0360323686404" lon="9.473428683456355"><ele>1089.0</ele><time>2026-05-02T13:22:06Z</time></trkpt><trkpt lat="40.03608076816234" lon="9.473617507165306"><ele>1089.5</ele><time>2026-05-02T13:22:07Z</time></trkpt><trkpt lat="40.0361243063309" lon="9.473796805917841"><ele>1090.0</ele><time>2026-05-02T13:22:08Z</time></trkpt><trkpt lat="40.03616790632447" lon="9.473974347670513"><ele>1090.5</ele><time>2026-05-02T13:22:09Z</time></trkpt><trkpt lat="40.036209999413984" lon="9.474137655922926"><ele>1091.0</ele><time>2026-05-02T13:22:10Z</time></trkpt><trkpt lat="40.03625791326725" lon="9.4743023277564"><ele>1091.0</ele><time>2026-05-02T13:22:11Z</time></trkpt><trkpt lat="40.03631059362345" lon="9.474464834963811"><ele>1091.0</ele><time>2026-05-02T13:22:12Z</time></trkpt><trkpt lat="40.03636527198711" lon="9.4746191854778"><ele>1091.0</ele><time>2026-05-02T13:22:13Z</time></trkpt><trkpt lat="40.03641397308701" lon="9.47476881006442"><ele>1091.0</ele><time>2026-05-02T13:22:14Z</time></trkpt><trkpt lat="40.036465467307515" lon="9.474923410958308"><ele>1091.5</ele><time>2026-05-02T13:22:15Z</time></trkpt><trkpt lat="40.036510098969444" lon="9.475084367044989"><ele>1092.0</ele><time>2026-05-02T13:22:16Z</time></trkpt><trkpt lat="40.03654559460549" lon="9.47525585465184"><ele>1092.5</ele><time>2026-05-02T13:22:17Z</time></trkpt><trkpt lat="40.036559118401655" lon="9.475418156891456"><ele>1093.0</ele><time>2026-05-02T13:22:18Z</time></trkpt><trkpt lat="40.036548779661025" lon="9.475574799391392"><ele>1093.25</ele><time>2026-05-02T13:22:19Z</time></trkpt><trkpt lat="40.03651875824852" lon="9.475727663903271"><ele>1093.5</ele><time>2026-05-02T13:22:20Z</time></trkpt><trkpt lat="40.03648155333241" lon="9.475881627064018"><ele>1093.75</ele><time>2026-05-02T13:22:21Z</time></trkpt><trkpt lat="40.03644606844247" lon="9.47602543908138"><ele>1094.0</ele><time>2026-05-02T13:22:22Z</time></trkpt><trkpt lat="40.03640799903104" lon="9.476167119027071"><ele>1093.4</ele><time>2026-05-02T13:22:23Z</time></trkpt><trkpt lat="40.0363695762507" lon="9.476308156173614"><ele>1092.8000000000002</ele><time>2026-05-02T13:22:24Z</time></trkpt><trkpt lat="40.03633391816163" lon="9.476444259741648"><ele>1092.1999999999998</ele><time>2026-05-02T13:22:25Z</time></trkpt><trkpt lat="40.03629865523827" lon="9.476576946027318"><ele>1091.6</ele><time>2026-05-02T13:22:26Z</time></trkpt><trkpt lat="40.03626443192818" lon="9.476703150794364"><ele>1091.0</ele><time>2026-05-02T13:22:27Z</time></trkpt><trkpt lat="40.036234677026805" lon="9.476831145453163"><ele>1091.0</ele><time>2026-05-02T13:22:28Z</time></trkpt><trkpt lat="40.03620424661942" lon="9.47695352792043"><ele>1091.0</ele><time>2026-05-02T13:22:29Z</time></trkpt><trkpt lat="40.03616056394331" lon="9.47706662154707"><ele>1091.0</ele><time>2026-05-02T13:22:30Z</time></trkpt><trkpt lat="40.03610772105966" lon="9.477170844706858"><ele>1091.0</ele><time>2026-05-02T13:22:31Z</time></trkpt><trkpt lat="40.03604646301516" lon="9.47726747134121"><ele>1091.0</ele><time>2026-05-02T13:22:32Z</time></trkpt><trkpt lat="40.03598563463337" lon="9.477365272972904"><ele>1091.1666666666667</ele><time>2026-05-02T13:22:33Z</time></trkpt><trkpt lat="40.03592789368758" lon="9.477463314582733"><ele>1091.3333333333335</ele><time>2026-05-02T13:22:34Z</time></trkpt><trkpt lat="40.03587626641656" lon="9.477565609162024"><ele>1091.5</ele><time>2026-05-02T13:22:35Z</time></trkpt><trkpt lat="40.03582648933574" lon="9.477665075241237"><ele>1091.6666666666667</ele><time>2026-05-02T13:22:36Z</time></trkpt><trkpt lat="40.03576712003159" lon="9.477747790529534"><ele>1091.8333333333333</ele><time>2026-05-02T13:22:37Z</time></trkpt><trkpt lat="40.03572273430133" lon="9.477821804767986"><ele>1092.0</ele><time>2026-05-02T13:22:38Z</time></trkpt><trkpt lat="40.03565718984965" lon="9.477934553125104"><ele>1090.3333333333333</ele><time>2026-05-02T13:22:40Z</time></trkpt><trkpt lat="40.0356057600932" lon="9.478017881244266"><ele>1088.6666666666667</ele><time>2026-05-02T13:22:42Z</time></trkpt><trkpt lat="40.03555021918903" lon="9.478075948094224"><ele>1087.0</ele><time>2026-05-02T13:22:46Z</time></trkpt><trkpt lat="40.035488026539475" lon="9.47812700494634"><ele>1085.3333333333335</ele><time>2026-05-02T13:25:07Z</time></trkpt><trkpt lat="40.03536605136291" lon="9.478205060641166"><ele>1083.6666666666667</ele><time>2026-05-02T13:25:09Z</time></trkpt><trkpt lat="40.03529329180815" lon="9.478258021702404"><ele>1082.0</ele><time>2026-05-02T13:25:10Z</time></trkpt><trkpt lat="40.035212940178624" lon="9.478343413252214"><ele>1082.0</ele><time>2026-05-02T13:25:11Z</time></trkpt><trkpt lat="40.03514641678382" lon="9.478452187134339"><ele>1082.0</ele><time>2026-05-02T13:25:12Z</time></trkpt><trkpt lat="40.035095564019976" lon="9.478571397006501"><ele>1082.0</ele><time>2026-05-02T13:25:13Z</time></trkpt><trkpt lat="40.035056873255385" lon="9.47869519347959"><ele>1082.0</ele><time>2026-05-02T13:25:14Z</time></trkpt><trkpt lat="40.0350251144423" lon="9.47882791967085"><ele>1082.0</ele><time>2026-05-02T13:25:15Z</time></trkpt><trkpt lat="40.03495003466078" lon="9.47892958408917"><ele>1081.4</ele><time>2026-05-02T13:25:16Z</time></trkpt><trkpt lat="40.034872878918215" lon="9.479029898198938"><ele>1080.8000000000002</ele><time>2026-05-02T13:25:17Z</time></trkpt><trkpt lat="40.03480023895377" lon="9.479116965016912"><ele>1080.2</ele><time>2026-05-02T13:25:18Z</time></trkpt><trkpt lat="40.0347243412334" lon="9.479209015757997"><ele>1079.6000000000001</ele><time>2026-05-02T13:25:19Z</time></trkpt><trkpt lat="40.034651512890214" lon="9.47930305129052"><ele>1079.0</ele><time>2026-05-02T13:25:20Z</time></trkpt><trkpt lat="40.03458296298479" lon="9.479402450026756"><ele>1079.0</ele><time>2026-05-02T13:25:21Z</time></trkpt><trkpt lat="40.03451805942789" lon="9.479504487360996"><ele>1079.0</ele><time>2026-05-02T13:25:22Z</time></trkpt><trkpt lat="40.03445609966049" lon="9.479600768406767"><ele>1079.0</ele><time>2026-05-02T13:25:23Z</time></trkpt><trkpt lat="40.0343921347286" lon="9.479696898758135"><ele>1079.0</ele><time>2026-05-02T13:25:24Z</time></trkpt><trkpt lat="40.0343297773642" lon="9.4797727513461"><ele>1079.0</ele><time>2026-05-02T13:25:25Z</time></trkpt><trkpt lat="40.03425819550948" lon="9.479836132059607"><ele>1079.0</ele><time>2026-05-02T13:25:26Z</time></trkpt><trkpt lat="40.03417609557925" lon="9.479870941254088"><ele>1079.0</ele><time>2026-05-02T13:25:27Z</time></trkpt><trkpt lat="40.034090467398514" lon="9.47990998459486"><ele>1079.0</ele><time>2026-05-02T13:25:28Z</time></trkpt><trkpt lat="40.034010988010444" lon="9.479946797787617"><ele>1079.0</ele><time>2026-05-02T13:25:29Z</time></trkpt><trkpt lat="40.033934386787685" lon="9.479985420749264"><ele>1079.0</ele><time>2026-05-02T13:25:30Z</time></trkpt><trkpt lat="40.03385769234981" lon="9.480032548492696"><ele>1079.0</ele><time>2026-05-02T13:25:31Z</time></trkpt><trkpt lat="40.03378455703134" lon="9.480099247053003"><ele>1079.0</ele><time>2026-05-02T13:25:32Z</time></trkpt><trkpt lat="40.03372072930296" lon="9.480169203766199"><ele>1079.0</ele><time>2026-05-02T13:25:33Z</time></trkpt><trkpt lat="40.03366367473347" lon="9.480259405889505"><ele>1079.0</ele><time>2026-05-02T13:25:34Z</time></trkpt><trkpt lat="40.03362577256989" lon="9.480370144400391"><ele>1079.0</ele><time>2026-05-02T13:25:35Z</time></trkpt><trkpt lat="40.03361126494232" lon="9.48049582082698"><ele>1079.0</ele><time>2026-05-02T13:25:36Z</time></trkpt><trkpt lat="40.03360249408403" lon="9.480628537253146"><ele>1075.8</ele><time>2026-05-02T13:25:37Z</time></trkpt><trkpt lat="40.03359452103819" lon="9.480763040889714"><ele>1072.6000000000001</ele><time>2026-05-02T13:25:38Z</time></trkpt><trkpt lat="40.03358623680907" lon="9.480902794250165"><ele>1069.4</ele><time>2026-05-02T13:25:39Z</time></trkpt><trkpt lat="40.03357758756378" lon="9.481045736223345"><ele>1066.2</ele><time>2026-05-02T13:25:40Z</time></trkpt><trkpt lat="40.03357513135132" lon="9.48118585020877"><ele>1063.0</ele><time>2026-05-02T13:25:41Z</time></trkpt><trkpt lat="40.033545749387116" lon="9.48132760178831"><ele>1063.0</ele><time>2026-05-02T13:25:42Z</time></trkpt><trkpt lat="40.033515092633685" lon="9.481456127173976"><ele>1063.0</ele><time>2026-05-02T13:25:43Z</time></trkpt><trkpt lat="40.03347410024701" lon="9.48157281338067"><ele>1063.0</ele><time>2026-05-02T13:25:44Z</time></trkpt><trkpt lat="40.03341160264495" lon="9.48167905063024"><ele>1063.0</ele><time>2026-05-02T13:25:45Z</time></trkpt><trkpt lat="40.03331897239528" lon="9.481763605169057"><ele>1063.0</ele><time>2026-05-02T13:25:46Z</time></trkpt><trkpt lat="40.03322549594661" lon="9.481863960479792"><ele>1063.0</ele><time>2026-05-02T13:25:47Z</time></trkpt><trkpt lat="40.033134749925935" lon="9.481963650161836"><ele>1063.0</ele><time>2026-05-02T13:25:48Z</time></trkpt><trkpt lat="40.03304112556411" lon="9.482063924189532"><ele>1063.0</ele><time>2026-05-02T13:25:49Z</time></trkpt><trkpt lat="40.03294433722735" lon="9.482161707604154"><ele>1063.0</ele><time>2026-05-02T13:25:50.001Z</time></trkpt><trkpt lat="40.032851387308874" lon="9.48226182657767"><ele>1058.0</ele><time>2026-05-02T13:25:51.001Z</time></trkpt><trkpt lat="40.032743404787354" lon="9.482332152600993"><ele>1053.0</ele><time>2026-05-02T13:25:52.001Z</time></trkpt><trkpt lat="40.03263025812681" lon="9.482376001104734"><ele>1048.0</ele><time>2026-05-02T13:25:53.001Z</time></trkpt><trkpt lat="40.03251346123016" lon="9.482394797259456"><ele>1043.0</ele><time>2026-05-02T13:25:54.001Z</time></trkpt><trkpt lat="40.032370893798976" lon="9.482344777056783"><ele>1043.0</ele><time>2026-05-02T13:25:55.001Z</time></trkpt><trkpt lat="40.03231207672317" lon="9.482418685420862"><ele>1043.0</ele><time>2026-05-02T13:25:56.001Z</time></trkpt><trkpt lat="40.03221962541628" lon="9.482487726643429"><ele>1043.0</ele><time>2026-05-02T13:25:57.001Z</time></trkpt><trkpt lat="40.03214420569823" lon="9.482604576356934"><ele>1043.0</ele><time>2026-05-02T13:25:58.001Z</time></trkpt><trkpt lat="40.03209669720154" lon="9.482754857404045"><ele>1043.0</ele><time>2026-05-02T13:25:59.001Z</time></trkpt><trkpt lat="40.032059196392936" lon="9.482911100954437"><ele>1037.0</ele><time>2026-05-02T13:26:00.001Z</time></trkpt><trkpt lat="40.031998907773406" lon="9.483065977017207"><ele>1031.0</ele><time>2026-05-02T13:26:01Z</time></trkpt><trkpt lat="40.03192170809786" lon="9.483206342527408"><ele>1025.0</ele><time>2026-05-02T13:26:02Z</time></trkpt><trkpt lat="40.03182954276614" lon="9.483343629558766"><ele>1019.0</ele><time>2026-05-02T13:26:03Z</time></trkpt><trkpt lat="40.031733458641966" lon="9.483476567684637"><ele>1015.3333333333334</ele><time>2026-05-02T13:26:04Z</time></trkpt><trkpt lat="40.03162930493508" lon="9.483599170728265"><ele>1011.6666666666667</ele><time>2026-05-02T13:26:05Z</time></trkpt><trkpt lat="40.03154892614464" lon="9.483762402811099"><ele>1008.0</ele><time>2026-05-02T13:26:06Z</time></trkpt><trkpt lat="40.03148664735917" lon="9.483956482594529"><ele>1006.25</ele><time>2026-05-02T13:26:07Z</time></trkpt><trkpt lat="40.031437616076595" lon="9.484141593395748"><ele>1004.5</ele><time>2026-05-02T13:26:08Z</time></trkpt><trkpt lat="40.03138073046764" lon="9.48430322665283"><ele>1002.75</ele><time>2026-05-02T13:26:09Z</time></trkpt><trkpt lat="40.03132772469938" lon="9.484444244536718"><ele>1001.0</ele><time>2026-05-02T13:26:10Z</time></trkpt><trkpt lat="40.03128821401037" lon="9.48458119741908"><ele>1000.0</ele><time>2026-05-02T13:26:11Z</time></trkpt><trkpt lat="40.031279672929685" lon="9.484721356889818"><ele>998.9999999999999</ele><time>2026-05-02T13:26:12Z</time></trkpt><trkpt lat="40.03130503502903" lon="9.484857722366643"><ele>997.9999999999999</ele><time>2026-05-02T13:26:13Z</time></trkpt><trkpt lat="40.03136550069571" lon="9.484974211551515"><ele>997.0</ele><time>2026-05-02T13:26:14Z</time></trkpt><trkpt lat="40.03144346358663" lon="9.485080034916292"><ele>996.0</ele><time>2026-05-02T13:26:15Z</time></trkpt><trkpt lat="40.0315482616457" lon="9.485165551018014"><ele>996.0</ele><time>2026-05-02T13:26:16Z</time></trkpt><trkpt lat="40.031628082267666" lon="9.485253054051997"><ele>995.9999999999999</ele><time>2026-05-02T13:26:17Z</time></trkpt><trkpt lat="40.03169355271362" lon="9.485344755118"><ele>995.9999999999999</ele><time>2026-05-02T13:26:18Z</time></trkpt><trkpt lat="40.031737431202714" lon="9.485460303208963"><ele>996.0</ele><time>2026-05-02T13:26:19Z</time></trkpt><trkpt lat="40.031754329745375" lon="9.485597996036994"><ele>996.0</ele><time>2026-05-02T13:26:20Z</time></trkpt><trkpt lat="40.03175558376526" lon="9.48574742856863"><ele>993.5999999999999</ele><time>2026-05-02T13:26:21Z</time></trkpt><trkpt lat="40.031748553751946" lon="9.485891392166995"><ele>991.1999999999999</ele><time>2026-05-02T13:26:22Z</time></trkpt><trkpt lat="40.03173727048132" lon="9.486024411391881"><ele>988.8000000000001</ele><time>2026-05-02T13:26:23Z</time></trkpt><trkpt lat="40.03171292076123" lon="9.48612691704119"><ele>986.4000000000001</ele><time>2026-05-02T13:26:24Z</time></trkpt><trkpt lat="40.031662067898644" lon="9.48620480598086"><ele>984.0</ele><time>2026-05-02T13:26:25Z</time></trkpt><trkpt lat="40.03158370196951" lon="9.486246816264739"><ele>982.4000000000001</ele><time>2026-05-02T13:26:26Z</time></trkpt><trkpt lat="40.031493979975934" lon="9.486249927903524"><ele>980.8000000000001</ele><time>2026-05-02T13:26:27Z</time></trkpt><trkpt lat="40.03140034496497" lon="9.48619592577803"><ele>979.1999999999999</ele><time>2026-05-02T13:26:28Z</time></trkpt><trkpt lat="40.03128534755198" lon="9.486144037135618"><ele>977.5999999999999</ele><time>2026-05-02T13:26:29Z</time></trkpt><trkpt lat="40.03116271146966" lon="9.486103543794954"><ele>976.0</ele><time>2026-05-02T13:26:30Z</time></trkpt><trkpt lat="40.03104418968622" lon="9.486087773301334"><ele>976.0</ele><time>2026-05-02T13:26:31Z</time></trkpt><trkpt lat="40.0309454008416" lon="9.486007822661596"><ele>975.9999999999999</ele><time>2026-05-02T13:26:32Z</time></trkpt><trkpt lat="40.03085147182902" lon="9.48592558051438"><ele>975.9999999999999</ele><time>2026-05-02T13:26:33Z</time></trkpt><trkpt lat="40.03076775953864" lon="9.485846908325048"><ele>976.0</ele><time>2026-05-02T13:26:34Z</time></trkpt><trkpt lat="40.03067804007109" lon="9.485799079468771"><ele>976.0</ele><time>2026-05-02T13:26:35Z</time></trkpt><trkpt lat="40.030567695375574" lon="9.485821527822592"><ele>977.0</ele><time>2026-05-02T13:26:36Z</time></trkpt><trkpt lat="40.030479660038296" lon="9.485876176997461"><ele>978.0</ele><time>2026-05-02T13:26:37Z</time></trkpt><trkpt lat="40.03037331655785" lon="9.48594504656153"><ele>979.0</ele><time>2026-05-02T13:26:38Z</time></trkpt><trkpt lat="40.030254266374165" lon="9.486027037599795"><ele>980.0</ele><time>2026-05-02T13:26:39Z</time></trkpt><trkpt lat="40.03012982923628" lon="9.486117277029717"><ele>980.0</ele><time>2026-05-02T13:26:40Z</time></trkpt><trkpt lat="40.03000265306614" lon="9.486214031191846"><ele>980.0</ele><time>2026-05-02T13:26:41Z</time></trkpt><trkpt lat="40.029887782268645" lon="9.486318754943433"><ele>980.0</ele><time>2026-05-02T13:26:42Z</time></trkpt><trkpt lat="40.029770399040686" lon="9.486411692118109"><ele>980.0</ele><time>2026-05-02T13:26:43Z</time></trkpt><trkpt lat="40.02966040349402" lon="9.486502734944168"><ele>976.2</ele><time>2026-05-02T13:26:44Z</time></trkpt><trkpt lat="40.02955619648414" lon="9.486590284249997"><ele>972.4</ele><time>2026-05-02T13:26:45Z</time></trkpt><trkpt lat="40.02946620930315" lon="9.486680707153408"><ele>968.5999999999999</ele><time>2026-05-02T13:26:46Z</time></trkpt><trkpt lat="40.02937964258671" lon="9.486753607577354"><ele>964.8</ele><time>2026-05-02T13:26:47Z</time></trkpt><trkpt lat="40.02929467768356" lon="9.486819035603979"><ele>961.0</ele><time>2026-05-02T13:26:48Z</time></trkpt><trkpt lat="40.02921147934858" lon="9.486867261852028"><ele>957.8333333333333</ele><time>2026-05-02T13:26:49Z</time></trkpt><trkpt lat="40.029122196141444" lon="9.486893843918294"><ele>954.6666666666666</ele><time>2026-05-02T13:26:50Z</time></trkpt><trkpt lat="40.02903542489605" lon="9.486886165265629"><ele>951.5</ele><time>2026-05-02T13:26:51Z</time></trkpt><trkpt lat="40.028953269494664" lon="9.486864119449287"><ele>948.3333333333333</ele><time>2026-05-02T13:26:52Z</time></trkpt><trkpt lat="40.02887417465431" lon="9.486860287785174"><ele>945.1666666666666</ele><time>2026-05-02T13:26:53Z</time></trkpt><trkpt lat="40.02880261951526" lon="9.48687729629721"><ele>942.0</ele><time>2026-05-02T13:26:54Z</time></trkpt><trkpt lat="40.02874485659182" lon="9.486930471113704"><ele>942.0</ele><time>2026-05-02T13:26:55Z</time></trkpt><trkpt lat="40.028698407462805" lon="9.486991873658901"><ele>942.0</ele><time>2026-05-02T13:26:56Z</time></trkpt><trkpt lat="40.0286540569766" lon="9.487115950884986"><ele>942.0</ele><time>2026-05-02T13:26:58Z</time></trkpt><trkpt lat="40.02863853680546" lon="9.487211906769677"><ele>942.0</ele><time>2026-05-02T13:27:02Z</time></trkpt><trkpt lat="40.0286977556778" lon="9.48730394422384"><ele>942.0</ele><time>2026-05-02T13:30:25.999Z</time></trkpt><trkpt lat="40.02877015751107" lon="9.487395043076194"><ele>942.0</ele><time>2026-05-02T13:30:27.999Z</time></trkpt><trkpt lat="40.02886354848493" lon="9.487433715472678"><ele>941.4000000000001</ele><time>2026-05-02T13:30:29.999Z</time></trkpt><trkpt lat="40.028963037542674" lon="9.487418775120174"><ele>940.8000000000001</ele><time>2026-05-02T13:30:31.999Z</time></trkpt><trkpt lat="40.02905396639649" lon="9.48736798529683"><ele>940.2</ele><time>2026-05-02T13:30:33.999Z</time></trkpt><trkpt lat="40.02915161401686" lon="9.487286474493839"><ele>939.6</ele><time>2026-05-02T13:30:35.999Z</time></trkpt><trkpt lat="40.02922640128843" lon="9.487231291376634"><ele>939.0</ele><time>2026-05-02T13:30:36.999Z</time></trkpt><trkpt lat="40.02930622009762" lon="9.487183556509816"><ele>939.0</ele><time>2026-05-02T13:30:37.999Z</time></trkpt><trkpt lat="40.02938562507197" lon="9.487130702961727"><ele>939.0000000000001</ele><time>2026-05-02T13:30:38.999Z</time></trkpt><trkpt lat="40.02947766906938" lon="9.48707931991963"><ele>939.0000000000001</ele><time>2026-05-02T13:30:39.999Z</time></trkpt><trkpt lat="40.029568899463186" lon="9.487029306016344"><ele>939.0</ele><time>2026-05-02T13:30:40.999Z</time></trkpt><trkpt lat="40.02965587678337" lon="9.486979708553877"><ele>939.0</ele><time>2026-05-02T13:30:41.999Z</time></trkpt><trkpt lat="40.029744582285865" lon="9.48693352811823"><ele>941.4000000000001</ele><time>2026-05-02T13:30:42.999Z</time></trkpt><trkpt lat="40.029836768277484" lon="9.486893185045265"><ele>943.8000000000001</ele><time>2026-05-02T13:30:43.999Z</time></trkpt><trkpt lat="40.02993714305152" lon="9.486857196887486"><ele>946.1999999999999</ele><time>2026-05-02T13:30:44.999Z</time></trkpt><trkpt lat="40.03003989802903" lon="9.486821129897617"><ele>948.5999999999999</ele><time>2026-05-02T13:30:46Z</time></trkpt><trkpt lat="40.03014331876927" lon="9.486787049586654"><ele>951.0</ele><time>2026-05-02T13:30:47Z</time></trkpt><trkpt lat="40.03024777156959" lon="9.486757397062417"><ele>951.0</ele><time>2026-05-02T13:30:48Z</time></trkpt><trkpt lat="40.0303546287091" lon="9.486734544637955"><ele>950.9999999999999</ele><time>2026-05-02T13:30:49Z</time></trkpt><trkpt lat="40.030461986012455" lon="9.486723907589575"><ele>950.9999999999999</ele><time>2026-05-02T13:30:50Z</time></trkpt><trkpt lat="40.030566442422895" lon="9.486724158841524"><ele>951.0</ele><time>2026-05-02T13:30:51Z</time></trkpt><trkpt lat="40.030663591501686" lon="9.486747567247377"><ele>951.0</ele><time>2026-05-02T13:30:52Z</time></trkpt><trkpt lat="40.03075241543607" lon="9.486791442951002"><ele>950.5999999999999</ele><time>2026-05-02T13:30:53Z</time></trkpt><trkpt lat="40.03083593454187" lon="9.486858256741053"><ele>950.1999999999999</ele><time>2026-05-02T13:30:54Z</time></trkpt><trkpt lat="40.030910660495245" lon="9.486938739262962"><ele>949.8000000000001</ele><time>2026-05-02T13:30:55Z</time></trkpt><trkpt lat="40.03097648987577" lon="9.487023793741514"><ele>949.4000000000001</ele><time>2026-05-02T13:30:56Z</time></trkpt><trkpt lat="40.03103993490732" lon="9.48711870082892"><ele>949.0</ele><time>2026-05-02T13:30:57Z</time></trkpt><trkpt lat="40.03110344039662" lon="9.487210266189201"><ele>943.6</ele><time>2026-05-02T13:30:58Z</time></trkpt><trkpt lat="40.03116706972503" lon="9.487294079422805"><ele>938.2</ele><time>2026-05-02T13:30:59Z</time></trkpt><trkpt lat="40.0312327382795" lon="9.487369016439759"><ele>932.8000000000001</ele><time>2026-05-02T13:31:00Z</time></trkpt><trkpt lat="40.03130635646618" lon="9.487435865756709"><ele>927.4000000000001</ele><time>2026-05-02T13:31:01Z</time></trkpt><trkpt lat="40.031392061649974" lon="9.48748736335501"><ele>922.0</ele><time>2026-05-02T13:31:02Z</time></trkpt><trkpt lat="40.031491992928146" lon="9.487530474098108"><ele>922.0</ele><time>2026-05-02T13:31:03Z</time></trkpt><trkpt lat="40.03159651793063" lon="9.487574804228192"><ele>922.0</ele><time>2026-05-02T13:31:04Z</time></trkpt><trkpt lat="40.03170296923231" lon="9.487625221525496"><ele>922.0</ele><time>2026-05-02T13:31:05Z</time></trkpt><trkpt lat="40.03180611931182" lon="9.487659163396991"><ele>922.0</ele><time>2026-05-02T13:31:06Z</time></trkpt><trkpt lat="40.03190622669908" lon="9.487684772336983"><ele>922.0</ele><time>2026-05-02T13:31:07Z</time></trkpt><trkpt lat="40.03198687740703" lon="9.48769461792268"><ele>919.2</ele><time>2026-05-02T13:31:08Z</time></trkpt><trkpt lat="40.03206755888843" lon="9.487713897071718"><ele>916.4000000000001</ele><time>2026-05-02T13:31:09Z</time></trkpt><trkpt lat="40.03213174088365" lon="9.487748464577571"><ele>913.5999999999999</ele><time>2026-05-02T13:31:10Z</time></trkpt><trkpt lat="40.032186280181335" lon="9.487809816900302"><ele>910.8</ele><time>2026-05-02T13:31:11Z</time></trkpt><trkpt lat="40.032216314544904" lon="9.487945678209345"><ele>908.0</ele><time>2026-05-02T13:31:13Z</time></trkpt><trkpt lat="40.03215955354257" lon="9.48808404259109"><ele>908.0000000000001</ele><time>2026-05-02T13:31:15Z</time></trkpt><trkpt lat="40.032097482753855" lon="9.488119513103872"><ele>908.0</ele><time>2026-05-02T13:31:16Z</time></trkpt><trkpt lat="40.03203049811432" lon="9.488136091766018"><ele>908.0</ele><time>2026-05-02T13:31:17Z</time></trkpt><trkpt lat="40.031960722265346" lon="9.488135950175904"><ele>908.0</ele><time>2026-05-02T13:31:18Z</time></trkpt><trkpt lat="40.0318748917765" lon="9.488110288987924"><ele>908.0000000000001</ele><time>2026-05-02T13:31:19Z</time></trkpt><trkpt lat="40.03178682483102" lon="9.488078529001378"><ele>908.0</ele><time>2026-05-02T13:31:20Z</time></trkpt><trkpt lat="40.031700679479044" lon="9.488016298114832"><ele>910.8</ele><time>2026-05-02T13:31:21Z</time></trkpt><trkpt lat="40.031606332967314" lon="9.487975259138269"><ele>913.5999999999999</ele><time>2026-05-02T13:31:22Z</time></trkpt><trkpt lat="40.031496928940165" lon="9.487948070078552"><ele>916.4000000000001</ele><time>2026-05-02T13:31:23Z</time></trkpt><trkpt lat="40.03139184581762" lon="9.487907983548233"><ele>919.2</ele><time>2026-05-02T13:31:24Z</time></trkpt><trkpt lat="40.03128694357981" lon="9.487862449528079"><ele>922.0</ele><time>2026-05-02T13:31:25Z</time></trkpt><trkpt lat="40.03118594368029" lon="9.487824484098473"><ele>922.0</ele><time>2026-05-02T13:31:26Z</time></trkpt><trkpt lat="40.03108863936646" lon="9.487785626005163"><ele>922.0</ele><time>2026-05-02T13:31:27Z</time></trkpt><trkpt lat="40.030990764465486" lon="9.487761329187691"><ele>922.0</ele><time>2026-05-02T13:31:28Z</time></trkpt><trkpt lat="40.03089641150114" lon="9.487743098568858"><ele>922.0</ele><time>2026-05-02T13:31:29Z</time></trkpt><trkpt lat="40.03080629934343" lon="9.487724315916669"><ele>922.0</ele><time>2026-05-02T13:31:30Z</time></trkpt><trkpt lat="40.03071732032905" lon="9.487702096033752"><ele>920.9999999999999</ele><time>2026-05-02T13:31:31Z</time></trkpt><trkpt lat="40.03063689965302" lon="9.487652309857603"><ele>920.0</ele><time>2026-05-02T13:31:32Z</time></trkpt><trkpt lat="40.030563114989626" lon="9.487581186869654"><ele>919.0</ele><time>2026-05-02T13:31:33Z</time></trkpt><trkpt lat="40.03049439858698" lon="9.487504096149882"><ele>918.0</ele><time>2026-05-02T13:31:34Z</time></trkpt><trkpt lat="40.03041973618333" lon="9.48745354159641"><ele>916.9999999999999</ele><time>2026-05-02T13:31:35Z</time></trkpt><trkpt lat="40.030350592772145" lon="9.487401956129734"><ele>916.0</ele><time>2026-05-02T13:31:36Z</time></trkpt><trkpt lat="40.03027091865162" lon="9.487396279186514"><ele>916.0</ele><time>2026-05-02T13:31:37Z</time></trkpt><trkpt lat="40.0301823680932" lon="9.487420645024518"><ele>915.9999999999999</ele><time>2026-05-02T13:31:38Z</time></trkpt><trkpt lat="40.030095389161445" lon="9.48746862990394"><ele>915.9999999999999</ele><time>2026-05-02T13:31:39Z</time></trkpt><trkpt lat="40.03000764875235" lon="9.487521981370989"><ele>916.0</ele><time>2026-05-02T13:31:40Z</time></trkpt><trkpt lat="40.029922584635045" lon="9.487607647185285"><ele>916.0</ele><time>2026-05-02T13:31:41Z</time></trkpt><trkpt lat="40.02984443320247" lon="9.487697925293729"><ele>915.0</ele><time>2026-05-02T13:31:42Z</time></trkpt><trkpt lat="40.029775702301464" lon="9.48779244995775"><ele>913.9999999999999</ele><time>2026-05-02T13:31:43Z</time></trkpt><trkpt lat="40.02971384237989" lon="9.487887834236663"><ele>912.9999999999999</ele><time>2026-05-02T13:31:44Z</time></trkpt><trkpt lat="40.02965507979521" lon="9.487985229855632"><ele>912.0</ele><time>2026-05-02T13:31:45Z</time></trkpt><trkpt lat="40.02959932338049" lon="9.488079490420962"><ele>911.0</ele><time>2026-05-02T13:31:46Z</time></trkpt><trkpt lat="40.02954651632311" lon="9.48817359844612"><ele>911.0000000000001</ele><time>2026-05-02T13:31:47Z</time></trkpt><trkpt lat="40.029493242204126" lon="9.488266108560786"><ele>911.0</ele><time>2026-05-02T13:31:48Z</time></trkpt><trkpt lat="40.02943825917595" lon="9.488353282582851"><ele>911.0</ele><time>2026-05-02T13:31:49Z</time></trkpt><trkpt lat="40.02939036204461" lon="9.488445260582303"><ele>911.0</ele><time>2026-05-02T13:31:50Z</time></trkpt><trkpt lat="40.029316731289704" lon="9.488506667023627"><ele>911.0000000000001</ele><time>2026-05-02T13:31:51Z</time></trkpt><trkpt lat="40.029229554913584" lon="9.48852933839386"><ele>911.0</ele><time>2026-05-02T13:31:52Z</time></trkpt><trkpt lat="40.02914178883842" lon="9.488565281745963"><ele>911.5999999999999</ele><time>2026-05-02T13:31:53Z</time></trkpt><trkpt lat="40.02905067924221" lon="9.488598810433109"><ele>912.1999999999999</ele><time>2026-05-02T13:31:54Z</time></trkpt><trkpt lat="40.02896074198614" lon="9.488630843718864"><ele>912.8000000000001</ele><time>2026-05-02T13:31:55Z</time></trkpt><trkpt lat="40.028869990292435" lon="9.488669573135518"><ele>913.4000000000001</ele><time>2026-05-02T13:31:56Z</time></trkpt><trkpt lat="40.028784819631134" lon="9.48873013621022"><ele>914.0</ele><time>2026-05-02T13:31:57Z</time></trkpt><trkpt lat="40.02870568030158" lon="9.488798355976991"><ele>908.4000000000001</ele><time>2026-05-02T13:31:58Z</time></trkpt><trkpt lat="40.028631854069396" lon="9.4888677362152"><ele>902.8000000000001</ele><time>2026-05-02T13:31:59Z</time></trkpt><trkpt lat="40.0285529857802" lon="9.488932328029392"><ele>897.1999999999999</ele><time>2026-05-02T13:32:00Z</time></trkpt><trkpt lat="40.02847166433738" lon="9.488979938342197"><ele>891.5999999999999</ele><time>2026-05-02T13:32:01Z</time></trkpt><trkpt lat="40.02838642787776" lon="9.489016595171266"><ele>886.0</ele><time>2026-05-02T13:32:02Z</time></trkpt><trkpt lat="40.02829693192083" lon="9.48904203258254"><ele>884.75</ele><time>2026-05-02T13:32:03Z</time></trkpt><trkpt lat="40.028206339990255" lon="9.489055204457143"><ele>883.5</ele><time>2026-05-02T13:32:04Z</time></trkpt><trkpt lat="40.02811236007817" lon="9.489073975141794"><ele>882.25</ele><time>2026-05-02T13:32:05Z</time></trkpt><trkpt lat="40.02801789551748" lon="9.489109599243164"><ele>881.0</ele><time>2026-05-02T13:32:06Z</time></trkpt><trkpt lat="40.02779373334843" lon="9.488908274495897"><ele>881.0</ele><time>2026-05-02T13:32:07Z</time></trkpt><trkpt lat="40.02773717825147" lon="9.48896607736003"><ele>880.9999999999999</ele><time>2026-05-02T13:32:07.999Z</time></trkpt><trkpt lat="40.02765144754572" lon="9.489053699530283"><ele>880.9999999999999</ele><time>2026-05-02T13:32:09.999Z</time></trkpt><trkpt lat="40.02755898594919" lon="9.48915758262243"><ele>881.0</ele><time>2026-05-02T13:32:11.999Z</time></trkpt><trkpt lat="40.02750228705141" lon="9.489289828741244"><ele>881.0</ele><time>2026-05-02T13:32:13.999Z</time></trkpt><trkpt lat="40.02751149571093" lon="9.489390572173917"><ele>881.0</ele><time>2026-05-02T13:32:15.999Z</time></trkpt><trkpt lat="40.02754846044761" lon="9.489472330136046"><ele>880.9999999999999</ele><time>2026-05-02T13:32:17.999Z</time></trkpt><trkpt lat="40.027615985641994" lon="9.489534116016861"><ele>880.9999999999999</ele><time>2026-05-02T13:32:19.999Z</time></trkpt><trkpt lat="40.027724987420555" lon="9.48953301544267"><ele>881.0</ele><time>2026-05-02T13:32:21.999Z</time></trkpt><trkpt lat="40.02784109196001" lon="9.489498764700791"><ele>881.0</ele><time>2026-05-02T13:32:23.999Z</time></trkpt><trkpt lat="40.02791202109482" lon="9.489478265801422"><ele>881.0</ele><time>2026-05-02T13:32:24.999Z</time></trkpt><trkpt lat="40.027989585306976" lon="9.489474282953848"><ele>880.9999999999999</ele><time>2026-05-02T13:32:25.999Z</time></trkpt><trkpt lat="40.02807899093929" lon="9.48947741947486"><ele>880.9999999999999</ele><time>2026-05-02T13:32:27Z</time></trkpt><trkpt lat="40.02818369727252" lon="9.489509277592397"><ele>881.0</ele><time>2026-05-02T13:32:28Z</time></trkpt><trkpt lat="40.02827870589349" lon="9.48954446344204"><ele>881.0</ele><time>2026-05-02T13:32:29Z</time></trkpt><trkpt lat="40.02837187569602" lon="9.489575360848443"><ele>882.0</ele><time>2026-05-02T13:32:30Z</time></trkpt><trkpt lat="40.02846482144837" lon="9.489591273538048"><ele>882.9999999999999</ele><time>2026-05-02T13:32:31Z</time></trkpt><trkpt lat="40.02855609447236" lon="9.489599186928675"><ele>883.9999999999999</ele><time>2026-05-02T13:32:32Z</time></trkpt><trkpt lat="40.0286473245905" lon="9.48956046806737"><ele>885.0</ele><time>2026-05-02T13:32:33Z</time></trkpt><trkpt lat="40.02873577591043" lon="9.48951101293449"><ele>886.0</ele><time>2026-05-02T13:32:34Z</time></trkpt><trkpt lat="40.028821524310445" lon="9.489461607682898"><ele>886.0</ele><time>2026-05-02T13:32:35Z</time></trkpt><trkpt lat="40.02891844996477" lon="9.489460967963856"><ele>885.9999999999999</ele><time>2026-05-02T13:32:36Z</time></trkpt><trkpt lat="40.02901161685276" lon="9.489490911366047"><ele>885.9999999999999</ele><time>2026-05-02T13:32:37Z</time></trkpt><trkpt lat="40.029111802291425" lon="9.48953247484756"><ele>886.0</ele><time>2026-05-02T13:32:38Z</time></trkpt><trkpt lat="40.02921002111393" lon="9.48956477441658"><ele>886.0</ele><time>2026-05-02T13:32:39Z</time></trkpt><trkpt lat="40.029307542368485" lon="9.48957900796508"><ele>885.0</ele><time>2026-05-02T13:32:40Z</time></trkpt><trkpt lat="40.02940398772268" lon="9.489567337227136"><ele>883.9999999999999</ele><time>2026-05-02T13:32:41Z</time></trkpt><trkpt lat="40.02950088924136" lon="9.489537934927553"><ele>882.9999999999999</ele><time>2026-05-02T13:32:42Z</time></trkpt><trkpt lat="40.029594309940116" lon="9.489489364028376"><ele>882.0</ele><time>2026-05-02T13:32:43Z</time></trkpt><trkpt lat="40.02968584497203" lon="9.489412616733869"><ele>881.0</ele><time>2026-05-02T13:32:44Z</time></trkpt><trkpt lat="40.02977345442335" lon="9.48931697820335"><ele>881.0</ele><time>2026-05-02T13:32:45Z</time></trkpt><trkpt lat="40.02985336051064" lon="9.489213394150914"><ele>880.9999999999999</ele><time>2026-05-02T13:32:46Z</time></trkpt><trkpt lat="40.02992551505819" lon="9.489112846105868"><ele>880.9999999999999</ele><time>2026-05-02T13:32:47Z</time></trkpt><trkpt lat="40.0299955269743" lon="9.489018321014543"><ele>881.0</ele><time>2026-05-02T13:32:48Z</time></trkpt><trkpt lat="40.03006197130972" lon="9.488936078042952"><ele>881.0</ele><time>2026-05-02T13:32:49Z</time></trkpt><trkpt lat="40.030130313571036" lon="9.488879189765626"><ele>877.8333333333334</ele><time>2026-05-02T13:32:50Z</time></trkpt><trkpt lat="40.030210058073976" lon="9.488846568827856"><ele>874.6666666666667</ele><time>2026-05-02T13:32:51Z</time></trkpt><trkpt lat="40.03029255387698" lon="9.488848357618984"><ele>871.5</ele><time>2026-05-02T13:32:52Z</time></trkpt><trkpt lat="40.03037044748584" lon="9.488883969216776"><ele>868.3333333333333</ele><time>2026-05-02T13:32:53Z</time></trkpt><trkpt lat="40.03043553546567" lon="9.488942209105852"><ele>865.1666666666666</ele><time>2026-05-02T13:32:54Z</time></trkpt><trkpt lat="40.030487837672" lon="9.489024358721636"><ele>862.0</ele><time>2026-05-02T13:32:55Z</time></trkpt><trkpt lat="40.03054440287821" lon="9.489124300576702"><ele>862.0</ele><time>2026-05-02T13:32:56Z</time></trkpt><trkpt lat="40.0306093472138" lon="9.489226847411764"><ele>862.0</ele><time>2026-05-02T13:32:57Z</time></trkpt><trkpt lat="40.030692111648925" lon="9.489328296916733"><ele>862.0</ele><time>2026-05-02T13:32:58Z</time></trkpt><trkpt lat="40.03078343874492" lon="9.48941158734389"><ele>862.0</ele><time>2026-05-02T13:32:59Z</time></trkpt><trkpt lat="40.03088294972629" lon="9.489482459847126"><ele>862.0</ele><time>2026-05-02T13:33:00Z</time></trkpt><trkpt lat="40.0309847306624" lon="9.489550775451256"><ele>855.8</ele><time>2026-05-02T13:33:01Z</time></trkpt><trkpt lat="40.031080060522974" lon="9.489617494198768"><ele>849.6</ele><time>2026-05-02T13:33:02Z</time></trkpt><trkpt lat="40.031170359793805" lon="9.489675737028797"><ele>843.4</ele><time>2026-05-02T13:33:03Z</time></trkpt><trkpt lat="40.031264083682274" lon="9.489711901090661"><ele>837.1999999999999</ele><time>2026-05-02T13:33:04Z</time></trkpt><trkpt lat="40.03136095793238" lon="9.48971506253265"><ele>831.0</ele><time>2026-05-02T13:33:05Z</time></trkpt><trkpt lat="40.03145977403208" lon="9.48969338942216"><ele>831.0</ele><time>2026-05-02T13:33:06Z</time></trkpt><trkpt lat="40.0315605586004" lon="9.489667535351622"><ele>831.0</ele><time>2026-05-02T13:33:07Z</time></trkpt><trkpt lat="40.03166195121617" lon="9.489660068957111"><ele>831.0</ele><time>2026-05-02T13:33:08Z</time></trkpt><trkpt lat="40.0317659242166" lon="9.48967917554958"><ele>831.0</ele><time>2026-05-02T13:33:09Z</time></trkpt><trkpt lat="40.03186799628765" lon="9.489730993580716"><ele>831.0</ele><time>2026-05-02T13:33:10Z</time></trkpt><trkpt lat="40.031967825209755" lon="9.489791457508572"><ele>833.1999999999999</ele><time>2026-05-02T13:33:11Z</time></trkpt><trkpt lat="40.03206516746898" lon="9.489852691794235"><ele>835.4</ele><time>2026-05-02T13:33:12Z</time></trkpt><trkpt lat="40.0321607380916" lon="9.489913748746323"><ele>837.6</ele><time>2026-05-02T13:33:13Z</time></trkpt><trkpt lat="40.03225684618012" lon="9.489967711422812"><ele>839.8</ele><time>2026-05-02T13:33:14Z</time></trkpt><trkpt lat="40.032355457202854" lon="9.490007936406794"><ele>842.0</ele><time>2026-05-02T13:33:15Z</time></trkpt><trkpt lat="40.03245716645845" lon="9.49002934433548"><ele>843.25</ele><time>2026-05-02T13:33:16Z</time></trkpt><trkpt lat="40.032557363185106" lon="9.490050842210705"><ele>844.5</ele><time>2026-05-02T13:33:17Z</time></trkpt><trkpt lat="40.03267068816464" lon="9.490048388005345"><ele>845.75</ele><time>2026-05-02T13:33:18Z</time></trkpt><trkpt lat="40.032782232083306" lon="9.4900175827355"><ele>847.0</ele><time>2026-05-02T13:33:19Z</time></trkpt><trkpt lat="40.032881140407476" lon="9.489891490657469"><ele>847.0</ele><time>2026-05-02T13:33:20Z</time></trkpt><trkpt lat="40.03298676206517" lon="9.489867209330379"><ele>847.0</ele><time>2026-05-02T13:33:21Z</time></trkpt><trkpt lat="40.03308250376278" lon="9.489875317749748"><ele>847.0</ele><time>2026-05-02T13:33:22Z</time></trkpt><trkpt lat="40.03318203176969" lon="9.48987395906735"><ele>847.0</ele><time>2026-05-02T13:33:23Z</time></trkpt><trkpt lat="40.033278768536654" lon="9.489902384353694"><ele>847.0</ele><time>2026-05-02T13:33:24Z</time></trkpt><trkpt lat="40.03337223080638" lon="9.489946237977371"><ele>845.4000000000001</ele><time>2026-05-02T13:33:25Z</time></trkpt><trkpt lat="40.033457118600666" lon="9.490005902374788"><ele>843.8000000000001</ele><time>2026-05-02T13:33:26Z</time></trkpt><trkpt lat="40.03353616271344" lon="9.490079322402966"><ele>842.2</ele><time>2026-05-02T13:33:27Z</time></trkpt><trkpt lat="40.033613907611446" lon="9.49015713350547"><ele>840.6</ele><time>2026-05-02T13:33:28Z</time></trkpt><trkpt lat="40.03369188611758" lon="9.490252407224254"><ele>839.0</ele><time>2026-05-02T13:33:29Z</time></trkpt><trkpt lat="40.0337677661874" lon="9.490353073571201"><ele>833.75</ele><time>2026-05-02T13:33:30Z</time></trkpt><trkpt lat="40.03384155840093" lon="9.490462039648163"><ele>828.5</ele><time>2026-05-02T13:33:31Z</time></trkpt><trkpt lat="40.033913810134344" lon="9.490581801940145"><ele>823.25</ele><time>2026-05-02T13:33:32Z</time></trkpt><trkpt lat="40.033986527059525" lon="9.490702219876376"><ele>818.0</ele><time>2026-05-02T13:33:33Z</time></trkpt><trkpt lat="40.034059072139684" lon="9.490818027715905"><ele>818.0</ele><time>2026-05-02T13:33:34Z</time></trkpt><trkpt lat="40.03412926483548" lon="9.49092446144732"><ele>818.0</ele><time>2026-05-02T13:33:35Z</time></trkpt><trkpt lat="40.03420524357539" lon="9.491022420987127"><ele>818.0</ele><time>2026-05-02T13:33:36Z</time></trkpt><trkpt lat="40.034285457449705" lon="9.49109134318244"><ele>818.0</ele><time>2026-05-02T13:33:37Z</time></trkpt><trkpt lat="40.0343560375538" lon="9.491135655798578"><ele>818.0</ele><time>2026-05-02T13:33:38Z</time></trkpt><trkpt lat="40.03440664901974" lon="9.491200389191505"><ele>817.0000000000001</ele><time>2026-05-02T13:33:39Z</time></trkpt><trkpt lat="40.03443607541912" lon="9.491282967336492"><ele>816.0</ele><time>2026-05-02T13:33:40Z</time></trkpt><trkpt lat="40.03444359589196" lon="9.491370959645709"><ele>815.0</ele><time>2026-05-02T13:33:41Z</time></trkpt><trkpt lat="40.03443161232074" lon="9.491456148767789"><ele>814.0</ele><time>2026-05-02T13:33:42Z</time></trkpt><trkpt lat="40.03439379629724" lon="9.491530249248239"><ele>813.0000000000001</ele><time>2026-05-02T13:33:43Z</time></trkpt><trkpt lat="40.03434103175003" lon="9.491582186304269"><ele>812.0</ele><time>2026-05-02T13:33:44Z</time></trkpt><trkpt lat="40.03422177657516" lon="9.491609881528856"><ele>812.0000000000001</ele><time>2026-05-02T13:33:46Z</time></trkpt><trkpt lat="40.03415580459395" lon="9.491584638678882"><ele>812.0</ele><time>2026-05-02T13:33:47Z</time></trkpt><trkpt lat="40.03409264556387" lon="9.491527046060709"><ele>812.0</ele><time>2026-05-02T13:33:48Z</time></trkpt><trkpt lat="40.034042378786204" lon="9.491430098807552"><ele>812.0</ele><time>2026-05-02T13:33:49Z</time></trkpt><trkpt lat="40.033990325037124" lon="9.491335088885648"><ele>812.0000000000001</ele><time>2026-05-02T13:33:50Z</time></trkpt><trkpt lat="40.03392290098435" lon="9.491250614458028"><ele>812.0</ele><time>2026-05-02T13:33:51Z</time></trkpt><trkpt lat="40.033829168324374" lon="9.491181343348496"><ele>813.2</ele><time>2026-05-02T13:33:52Z</time></trkpt><trkpt lat="40.03374392245961" lon="9.491114844197828"><ele>814.4000000000001</ele><time>2026-05-02T13:33:53Z</time></trkpt><trkpt lat="40.03365651882887" lon="9.49106775063644"><ele>815.5999999999999</ele><time>2026-05-02T13:33:54Z</time></trkpt><trkpt lat="40.0335820257592" lon="9.491008848795111"><ele>816.8</ele><time>2026-05-02T13:33:55Z</time></trkpt><trkpt lat="40.03351705089734" lon="9.49093184815904"><ele>818.0</ele><time>2026-05-02T13:33:56Z</time></trkpt><trkpt lat="40.0334363892222" lon="9.49089332347062"><ele>818.0</ele><time>2026-05-02T13:33:57Z</time></trkpt><trkpt lat="40.03334585746904" lon="9.490881298416792"><ele>818.0</ele><time>2026-05-02T13:33:58Z</time></trkpt><trkpt lat="40.03325454871719" lon="9.490905642003863"><ele>818.0</ele><time>2026-05-02T13:33:59Z</time></trkpt><trkpt lat="40.033172107999995" lon="9.490963768663116"><ele>818.0</ele><time>2026-05-02T13:34:00Z</time></trkpt><trkpt lat="40.03310734900988" lon="9.491053773850732"><ele>818.0</ele><time>2026-05-02T13:34:01Z</time></trkpt><trkpt lat="40.0330664354409" lon="9.491165450715568"><ele>815.5000000000001</ele><time>2026-05-02T13:34:02Z</time></trkpt><trkpt lat="40.03304294742029" lon="9.491270699227417"><ele>813.0</ele><time>2026-05-02T13:34:03.001Z</time></trkpt><trkpt lat="40.033036447761525" lon="9.491384844598217"><ele>810.5</ele><time>2026-05-02T13:34:04.001Z</time></trkpt><trkpt lat="40.03299832736197" lon="9.491486238034357"><ele>808.0</ele><time>2026-05-02T13:34:05.001Z</time></trkpt><trkpt lat="40.03297634093119" lon="9.491592070139717"><ele>805.5000000000001</ele><time>2026-05-02T13:34:06.001Z</time></trkpt><trkpt lat="40.03296734402382" lon="9.491704663757494"><ele>803.0</ele><time>2026-05-02T13:34:07.001Z</time></trkpt><trkpt lat="40.0329235424906" lon="9.491800839856722"><ele>803.0000000000001</ele><time>2026-05-02T13:34:08.001Z</time></trkpt><trkpt lat="40.03288451147512" lon="9.491902051384626"><ele>803.0</ele><time>2026-05-02T13:34:09.001Z</time></trkpt><trkpt lat="40.03284663600643" lon="9.491998255264933"><ele>803.0</ele><time>2026-05-02T13:34:10.001Z</time></trkpt><trkpt lat="40.03278649833597" lon="9.492072341210523"><ele>803.0</ele><time>2026-05-02T13:34:11.001Z</time></trkpt><trkpt lat="40.032715282743354" lon="9.492128594454897"><ele>803.0000000000001</ele><time>2026-05-02T13:34:12.001Z</time></trkpt><trkpt lat="40.0326337091439" lon="9.49214629008491"><ele>803.0</ele><time>2026-05-02T13:34:13.001Z</time></trkpt><trkpt lat="40.03255302580633" lon="9.492165890282159"><ele>801.0000000000001</ele><time>2026-05-02T13:34:14.001Z</time></trkpt><trkpt lat="40.032473777723276" lon="9.492165828560418"><ele>799.0</ele><time>2026-05-02T13:34:15.001Z</time></trkpt><trkpt lat="40.03239939290864" lon="9.492148291553914"><ele>797.0</ele><time>2026-05-02T13:34:16.001Z</time></trkpt><trkpt lat="40.03231939661494" lon="9.492118651975538"><ele>795.0</ele><time>2026-05-02T13:34:17.001Z</time></trkpt><trkpt lat="40.03224570427065" lon="9.4920661236509"><ele>793.0000000000001</ele><time>2026-05-02T13:34:18.001Z</time></trkpt><trkpt lat="40.03217021243666" lon="9.492012795098379"><ele>791.0</ele><time>2026-05-02T13:34:19.001Z</time></trkpt><trkpt lat="40.03209331660825" lon="9.491956501680766"><ele>791.0</ele><time>2026-05-02T13:34:20.001Z</time></trkpt><trkpt lat="40.03201297275259" lon="9.491897684052434"><ele>791.0</ele><time>2026-05-02T13:34:21.001Z</time></trkpt><trkpt lat="40.03192972123105" lon="9.491842511167315"><ele>791.0</ele><time>2026-05-02T13:34:22.001Z</time></trkpt><trkpt lat="40.031841135472" lon="9.491805784230879"><ele>791.0</ele><time>2026-05-02T13:34:23.001Z</time></trkpt><trkpt lat="40.03174952055726" lon="9.491793832712874"><ele>791.0</ele><time>2026-05-02T13:34:24.001Z</time></trkpt><trkpt lat="40.03165140589575" lon="9.491835611003985"><ele>789.0000000000001</ele><time>2026-05-02T13:34:25.001Z</time></trkpt><trkpt lat="40.03157011307001" lon="9.491925309121408"><ele>787.0</ele><time>2026-05-02T13:34:26.001Z</time></trkpt><trkpt lat="40.031529963858844" lon="9.49202718243262"><ele>785.0</ele><time>2026-05-02T13:34:27.001Z</time></trkpt><trkpt lat="40.03147303395968" lon="9.492107173502822"><ele>783.0</ele><time>2026-05-02T13:34:28.001Z</time></trkpt><trkpt lat="40.031408490854375" lon="9.49217669278913"><ele>781.0000000000001</ele><time>2026-05-02T13:34:29.001Z</time></trkpt><trkpt lat="40.03133351080981" lon="9.492220766835151"><ele>779.0</ele><time>2026-05-02T13:34:30.001Z</time></trkpt><trkpt lat="40.03124928573469" lon="9.492220037475196"><ele>779.0000000000001</ele><time>2026-05-02T13:34:31.001Z</time></trkpt><trkpt lat="40.03116963945607" lon="9.492177759439889"><ele>779.0</ele><time>2026-05-02T13:34:32.001Z</time></trkpt><trkpt lat="40.03110407623644" lon="9.492107116311784"><ele>779.0</ele><time>2026-05-02T13:34:33.001Z</time></trkpt><trkpt lat="40.031035026172944" lon="9.492070214296238"><ele>779.0</ele><time>2026-05-02T13:34:34.001Z</time></trkpt><trkpt lat="40.03096185077563" lon="9.492065866874762"><ele>779.0000000000001</ele><time>2026-05-02T13:34:35Z</time></trkpt><trkpt lat="40.030900145088786" lon="9.492087264059126"><ele>779.0</ele><time>2026-05-02T13:34:36Z</time></trkpt><trkpt lat="40.03084426850075" lon="9.492138780461602"><ele>776.1666666666667</ele><time>2026-05-02T13:34:37Z</time></trkpt><trkpt lat="40.03077335039214" lon="9.49228302401462"><ele>773.3333333333334</ele><time>2026-05-02T13:34:39Z</time></trkpt><trkpt lat="40.030780414327275" lon="9.49238033814606"><ele>770.5</ele><time>2026-05-02T13:34:40Z</time></trkpt><trkpt lat="40.03078522952087" lon="9.492476320150809"><ele>767.6666666666667</ele><time>2026-05-02T13:34:41Z</time></trkpt><trkpt lat="40.03082068653268" lon="9.492554044933165"><ele>764.8333333333334</ele><time>2026-05-02T13:34:42Z</time></trkpt><trkpt lat="40.03087104807836" lon="9.492619939230426"><ele>762.0</ele><time>2026-05-02T13:34:43Z</time></trkpt><trkpt lat="40.03093316280166" lon="9.492661258694977"><ele>761.8333333333334</ele><time>2026-05-02T13:34:44Z</time></trkpt><trkpt lat="40.03100843812285" lon="9.492677413290837"><ele>761.6666666666666</ele><time>2026-05-02T13:34:45Z</time></trkpt><trkpt lat="40.03110069679175" lon="9.4926743323384"><ele>761.5</ele><time>2026-05-02T13:34:46.001Z</time></trkpt><trkpt lat="40.03119241473767" lon="9.492667768721837"><ele>761.3333333333333</ele><time>2026-05-02T13:34:47.001Z</time></trkpt><trkpt lat="40.03128268622632" lon="9.492661843572673"><ele>761.1666666666666</ele><time>2026-05-02T13:34:48.001Z</time></trkpt><trkpt lat="40.03137488250774" lon="9.492655642241575"><ele>761.0</ele><time>2026-05-02T13:34:49.001Z</time></trkpt><trkpt lat="40.03147288938795" lon="9.492652693841285"><ele>761.0</ele><time>2026-05-02T13:34:50.001Z</time></trkpt><trkpt lat="40.031578231051164" lon="9.49267514773845"><ele>761.0</ele><time>2026-05-02T13:34:51.001Z</time></trkpt><trkpt lat="40.03167888011778" lon="9.492717846163902"><ele>761.0</ele><time>2026-05-02T13:34:52.001Z</time></trkpt><trkpt lat="40.0317616630934" lon="9.492798405450207"><ele>761.0</ele><time>2026-05-02T13:34:53.001Z</time></trkpt><trkpt lat="40.03184002333595" lon="9.49291553727221"><ele>761.0</ele><time>2026-05-02T13:34:54.001Z</time></trkpt><trkpt lat="40.031919466099616" lon="9.493020375062883"><ele>756.25</ele><time>2026-05-02T13:34:55.001Z</time></trkpt><trkpt lat="40.03200799263173" lon="9.493105180723354"><ele>751.5</ele><time>2026-05-02T13:34:56.001Z</time></trkpt><trkpt lat="40.03210523145633" lon="9.49319306106361"><ele>746.75</ele><time>2026-05-02T13:34:57.001Z</time></trkpt><trkpt lat="40.03220423855149" lon="9.493274928693502"><ele>742.0</ele><time>2026-05-02T13:34:58.001Z</time></trkpt><trkpt lat="40.032306511950765" lon="9.493339024948344"><ele>742.0</ele><time>2026-05-02T13:34:59.001Z</time></trkpt><trkpt lat="40.032416743509465" lon="9.493384352523357"><ele>742.0</ele><time>2026-05-02T13:35:00.001Z</time></trkpt><trkpt lat="40.03253142582972" lon="9.493435031734938"><ele>742.0</ele><time>2026-05-02T13:35:01.001Z</time></trkpt><trkpt lat="40.03265471949181" lon="9.493413277717623"><ele>742.0</ele><time>2026-05-02T13:35:02.001Z</time></trkpt><trkpt lat="40.03277441197147" lon="9.493410942769865"><ele>744.4000000000001</ele><time>2026-05-02T13:35:03.001Z</time></trkpt><trkpt lat="40.032888332451776" lon="9.49338432708137"><ele>746.8000000000001</ele><time>2026-05-02T13:35:04.001Z</time></trkpt><trkpt lat="40.032997815785784" lon="9.49335076765988"><ele>749.2</ele><time>2026-05-02T13:35:05.001Z</time></trkpt><trkpt lat="40.03310195579882" lon="9.493365415548686"><ele>751.6</ele><time>2026-05-02T13:35:06.001Z</time></trkpt><trkpt lat="40.033199961602456" lon="9.49341511238205"><ele>754.0</ele><time>2026-05-02T13:35:07.001Z</time></trkpt><trkpt lat="40.03328605024488" lon="9.493495113025917"><ele>755.5</ele><time>2026-05-02T13:35:08.001Z</time></trkpt><trkpt lat="40.03336571586273" lon="9.493603329974846"><ele>757.0</ele><time>2026-05-02T13:35:09.001Z</time></trkpt><trkpt lat="40.033449258313716" lon="9.493729662223908"><ele>758.5</ele><time>2026-05-02T13:35:10.001Z</time></trkpt><trkpt lat="40.0335357000369" lon="9.493861255824985"><ele>760.0</ele><time>2026-05-02T13:35:11.001Z</time></trkpt><trkpt lat="40.03361966085266" lon="9.493988259952253"><ele>752.75</ele><time>2026-05-02T13:35:12.001Z</time></trkpt><trkpt lat="40.033704479047714" lon="9.494114292761509"><ele>745.5</ele><time>2026-05-02T13:35:13.001Z</time></trkpt><trkpt lat="40.03378923991847" lon="9.494239049854807"><ele>738.25</ele><time>2026-05-02T13:35:14.001Z</time></trkpt><trkpt lat="40.03387398291015" lon="9.494364703072288"><ele>731.0</ele><time>2026-05-02T13:35:15.001Z</time></trkpt><trkpt lat="40.033957488220686" lon="9.494494723501258"><ele>730.75</ele><time>2026-05-02T13:35:16.001Z</time></trkpt><trkpt lat="40.03404199520124" lon="9.494618851507651"><ele>730.5</ele><time>2026-05-02T13:35:17.001Z</time></trkpt><trkpt lat="40.03413079963575" lon="9.494746169638223"><ele>730.25</ele><time>2026-05-02T13:35:18.001Z</time></trkpt><trkpt lat="40.034220895689245" lon="9.494870788276732"><ele>730.0</ele><time>2026-05-02T13:35:19.001Z</time></trkpt><trkpt lat="40.03430861787589" lon="9.49499896649491"><ele>730.0</ele><time>2026-05-02T13:35:20.001Z</time></trkpt><trkpt lat="40.034390965673566" lon="9.495121109302517"><ele>730.0</ele><time>2026-05-02T13:35:21.001Z</time></trkpt><trkpt lat="40.03447075287946" lon="9.495242128289775"><ele>730.0</ele><time>2026-05-02T13:35:22.001Z</time></trkpt><trkpt lat="40.03454750384221" lon="9.495353179148044"><ele>730.0</ele><time>2026-05-02T13:35:23.001Z</time></trkpt><trkpt lat="40.034626773223636" lon="9.49545432188348"><ele>728.0</ele><time>2026-05-02T13:35:24.001Z</time></trkpt><trkpt lat="40.03471897540145" lon="9.495528683037408"><ele>726.0</ele><time>2026-05-02T13:35:25.001Z</time></trkpt><trkpt lat="40.0348107966737" lon="9.495601413566261"><ele>724.0</ele><time>2026-05-02T13:35:26.001Z</time></trkpt><trkpt lat="40.034919831131766" lon="9.495622494051444"><ele>722.0</ele><time>2026-05-02T13:35:27.001Z</time></trkpt><trkpt lat="40.03502883712566" lon="9.495645490339056"><ele>720.0</ele><time>2026-05-02T13:35:28.001Z</time></trkpt><trkpt lat="40.03514383159125" lon="9.495644215805571"><ele>720.0</ele><time>2026-05-02T13:35:29.001Z</time></trkpt><trkpt lat="40.03525568007826" lon="9.495670512389255"><ele>720.0</ele><time>2026-05-02T13:35:30.001Z</time></trkpt><trkpt lat="40.035365303514354" lon="9.495692177064841"><ele>720.0</ele><time>2026-05-02T13:35:31.001Z</time></trkpt><trkpt lat="40.03547727788609" lon="9.495712852560837"><ele>720.0</ele><time>2026-05-02T13:35:32.001Z</time></trkpt><trkpt lat="40.03558840938791" lon="9.495733475708596"><ele>720.0</ele><time>2026-05-02T13:35:33.001Z</time></trkpt><trkpt lat="40.03569916397142" lon="9.495755156950642"><ele>720.0</ele><time>2026-05-02T13:35:34.001Z</time></trkpt><trkpt lat="40.035803843305025" lon="9.495769392536872"><ele>720.0</ele><time>2026-05-02T13:35:35.001Z</time></trkpt><trkpt lat="40.035889774728155" lon="9.495754680859806"><ele>720.0</ele><time>2026-05-02T13:35:36.001Z</time></trkpt><trkpt lat="40.03596779991381" lon="9.495707609032513"><ele>720.0</ele><time>2026-05-02T13:35:37.001Z</time></trkpt><trkpt lat="40.03603283899908" lon="9.495651969398379"><ele>719.1666666666666</ele><time>2026-05-02T13:35:38.001Z</time></trkpt><trkpt lat="40.036071223888506" lon="9.495574204224626"><ele>718.3333333333334</ele><time>2026-05-02T13:35:39.001Z</time></trkpt><trkpt lat="40.036094934686695" lon="9.495488202820772"><ele>717.5</ele><time>2026-05-02T13:35:40.001Z</time></trkpt><trkpt lat="40.03610579178911" lon="9.495389291493032"><ele>716.6666666666667</ele><time>2026-05-02T13:35:41.001Z</time></trkpt><trkpt lat="40.03608451938794" lon="9.49527251888492"><ele>715.8333333333334</ele><time>2026-05-02T13:35:42.001Z</time></trkpt><trkpt lat="40.03606114910017" lon="9.495148227905327"><ele>715.0</ele><time>2026-05-02T13:35:43.001Z</time></trkpt><trkpt lat="40.036024844748944" lon="9.495011388493413"><ele>715.0</ele><time>2026-05-02T13:35:44.001Z</time></trkpt><trkpt lat="40.03598697122821" lon="9.494862266212007"><ele>715.0</ele><time>2026-05-02T13:35:45.001Z</time></trkpt><trkpt lat="40.035943728926355" lon="9.494713444445809"><ele>715.0</ele><time>2026-05-02T13:35:46.001Z</time></trkpt><trkpt lat="40.03589925372238" lon="9.494561093860492"><ele>715.0</ele><time>2026-05-02T13:35:47.001Z</time></trkpt><trkpt lat="40.0358524679646" lon="9.494401015141847"><ele>729.3333333333334</ele><time>2026-05-02T13:35:48.001Z</time></trkpt><trkpt lat="40.035651499898606" lon="9.494198906948446"><ele>743.6666666666666</ele><time>2026-05-02T13:35:49.001Z</time></trkpt><trkpt lat="40.035667609765284" lon="9.494056471262"><ele>758.0</ele><time>2026-05-02T13:35:50.001Z</time></trkpt><trkpt lat="40.0356871025278" lon="9.493920673901174"><ele>758.0</ele><time>2026-05-02T13:35:51.001Z</time></trkpt><trkpt lat="40.03570851486203" lon="9.493786395970625"><ele>758.0</ele><time>2026-05-02T13:35:52.001Z</time></trkpt><trkpt lat="40.03570832599533" lon="9.493648794941922"><ele>758.0</ele><time>2026-05-02T13:35:53.001Z</time></trkpt><trkpt lat="40.03573713101716" lon="9.493524270681485"><ele>758.0</ele><time>2026-05-02T13:35:54.001Z</time></trkpt><trkpt lat="40.03579463353547" lon="9.493415900106074"><ele>758.0</ele><time>2026-05-02T13:35:55.001Z</time></trkpt><trkpt lat="40.035869520116236" lon="9.493311023524875"><ele>750.5999999999999</ele><time>2026-05-02T13:35:56.001Z</time></trkpt><trkpt lat="40.035930025210796" lon="9.493207374717896"><ele>743.1999999999999</ele><time>2026-05-02T13:35:57.001Z</time></trkpt><trkpt lat="40.035969078039635" lon="9.49310025533741"><ele>735.8</ele><time>2026-05-02T13:35:58.001Z</time></trkpt><trkpt lat="40.036009847245296" lon="9.492992966142934"><ele>728.4</ele><time>2026-05-02T13:35:59.001Z</time></trkpt><trkpt lat="40.03602765774018" lon="9.492868026558154"><ele>721.0</ele><time>2026-05-02T13:36:00.001Z</time></trkpt><trkpt lat="40.035955004112225" lon="9.492716632298663"><ele>721.0</ele><time>2026-05-02T13:36:01.001Z</time></trkpt><trkpt lat="40.035945530840415" lon="9.492585803215972"><ele>721.0</ele><time>2026-05-02T13:36:02.001Z</time></trkpt><trkpt lat="40.035957965875916" lon="9.49245419836087"><ele>721.0</ele><time>2026-05-02T13:36:03.001Z</time></trkpt><trkpt lat="40.03599282436844" lon="9.4923343758499"><ele>721.0</ele><time>2026-05-02T13:36:04.001Z</time></trkpt><trkpt lat="40.03605072548384" lon="9.492227177430829"><ele>721.0</ele><time>2026-05-02T13:36:05.001Z</time></trkpt><trkpt lat="40.036128041765295" lon="9.492124180485465"><ele>726.75</ele><time>2026-05-02T13:36:06.001Z</time></trkpt><trkpt lat="40.03621132113444" lon="9.492042287960155"><ele>732.5</ele><time>2026-05-02T13:36:07.001Z</time></trkpt><trkpt lat="40.03631422548751" lon="9.491980633105896"><ele>738.25</ele><time>2026-05-02T13:36:08.001Z</time></trkpt><trkpt lat="40.036428464916405" lon="9.491938613237187"><ele>744.0</ele><time>2026-05-02T13:36:09.001Z</time></trkpt><trkpt lat="40.03655517610906" lon="9.491908466208804"><ele>734.5</ele><time>2026-05-02T13:36:10.001Z</time></trkpt><trkpt lat="40.036680239472844" lon="9.49187938445527"><ele>725.0</ele><time>2026-05-02T13:36:11.001Z</time></trkpt><trkpt lat="40.03680123804494" lon="9.491850441027438"><ele>715.5</ele><time>2026-05-02T13:36:12.001Z</time></trkpt><trkpt lat="40.03691956091725" lon="9.491823789591226"><ele>706.0</ele><time>2026-05-02T13:36:13.001Z</time></trkpt><trkpt lat="40.03703218335489" lon="9.4917956719689"><ele>706.0</ele><time>2026-05-02T13:36:14.001Z</time></trkpt><trkpt lat="40.03713623253967" lon="9.491756111317576"><ele>706.0</ele><time>2026-05-02T13:36:15.001Z</time></trkpt><trkpt lat="40.03722294311787" lon="9.491689438865336"><ele>706.0</ele><time>2026-05-02T13:36:16.001Z</time></trkpt><trkpt lat="40.037285491515554" lon="9.491591077725486"><ele>706.0</ele><time>2026-05-02T13:36:17.001Z</time></trkpt><trkpt lat="40.037334832522255" lon="9.491470196512807"><ele>706.0</ele><time>2026-05-02T13:36:18.001Z</time></trkpt><trkpt lat="40.037385940841226" lon="9.491355953922946"><ele>706.0</ele><time>2026-05-02T13:36:19.001Z</time></trkpt><trkpt lat="40.037449978357415" lon="9.491260374369592"><ele>706.0</ele><time>2026-05-02T13:36:20.001Z</time></trkpt><trkpt lat="40.03752967185371" lon="9.491186076790289"><ele>706.0</ele><time>2026-05-02T13:36:21.001Z</time></trkpt><trkpt lat="40.03761797293476" lon="9.491143746273432"><ele>706.0</ele><time>2026-05-02T13:36:22.001Z</time></trkpt><trkpt lat="40.037712943292306" lon="9.491142084617486"><ele>706.0</ele><time>2026-05-02T13:36:23.001Z</time></trkpt><trkpt lat="40.03780727659309" lon="9.491182178324962"><ele>704.0</ele><time>2026-05-02T13:36:24.001Z</time></trkpt><trkpt lat="40.03790194787842" lon="9.491251551876193"><ele>702.0</ele><time>2026-05-02T13:36:25.001Z</time></trkpt><trkpt lat="40.037999752178365" lon="9.49134218878095"><ele>700.0</ele><time>2026-05-02T13:36:26.001Z</time></trkpt><trkpt lat="40.03809330352865" lon="9.491428716518929"><ele>698.0</ele><time>2026-05-02T13:36:27.001Z</time></trkpt><trkpt lat="40.03818872075231" lon="9.491513528332831"><ele>695.5999999999999</ele><time>2026-05-02T13:36:28.001Z</time></trkpt><trkpt lat="40.038284070147185" lon="9.491595392570778"><ele>693.1999999999999</ele><time>2026-05-02T13:36:29.001Z</time></trkpt><trkpt lat="40.03836995552691" lon="9.491674442806824"><ele>690.8</ele><time>2026-05-02T13:36:30.001Z</time></trkpt><trkpt lat="40.038452484150355" lon="9.491746748253531"><ele>688.4</ele><time>2026-05-02T13:36:31.001Z</time></trkpt><trkpt lat="40.03852722916153" lon="9.491803758980444"><ele>686.0</ele><time>2026-05-02T13:36:32.001Z</time></trkpt><trkpt lat="40.03859923460173" lon="9.491834067592269"><ele>686.0</ele><time>2026-05-02T13:36:33.001Z</time></trkpt><trkpt lat="40.03868244371054" lon="9.491864828302031"><ele>686.0</ele><time>2026-05-02T13:36:34.001Z</time></trkpt><trkpt lat="40.03876598682794" lon="9.49183839416264"><ele>686.0</ele><time>2026-05-02T13:36:35.001Z</time></trkpt><trkpt lat="40.03883763898001" lon="9.491781302192242"><ele>686.0</ele><time>2026-05-02T13:36:36.001Z</time></trkpt><trkpt lat="40.038911673924" lon="9.491709688385543"><ele>686.0</ele><time>2026-05-02T13:36:37.001Z</time></trkpt><trkpt lat="40.0389754522352" lon="9.491637616626345"><ele>686.0</ele><time>2026-05-02T13:36:38.001Z</time></trkpt><trkpt lat="40.03903567357968" lon="9.491572633333552"><ele>686.0</ele><time>2026-05-02T13:36:39.001Z</time></trkpt><trkpt lat="40.03907715583309" lon="9.491502474512302"><ele>686.0</ele><time>2026-05-02T13:36:40.001Z</time></trkpt><trkpt lat="40.03913533551938" lon="9.491464691911272"><ele>686.0</ele><time>2026-05-02T13:36:41.001Z</time></trkpt><trkpt lat="40.0392075996165" lon="9.49145023285724"><ele>686.0</ele><time>2026-05-02T13:36:42.001Z</time></trkpt><trkpt lat="40.03932017690939" lon="9.491472238960714"><ele>686.0</ele><time>2026-05-02T13:36:44.001Z</time></trkpt><trkpt lat="40.03941233606165" lon="9.491554706055917"><ele>686.0</ele><time>2026-05-02T13:36:46.001Z</time></trkpt><trkpt lat="40.039448045660606" lon="9.491631839899032"><ele>687.3333333333333</ele><time>2026-05-02T13:36:47.001Z</time></trkpt><trkpt lat="40.03947142772881" lon="9.491731195499387"><ele>688.6666666666666</ele><time>2026-05-02T13:36:48.001Z</time></trkpt><trkpt lat="40.03952127911218" lon="9.49181969076067"><ele>690.0</ele><time>2026-05-02T13:36:49.001Z</time></trkpt><trkpt lat="40.03955145296121" lon="9.491910398738028"><ele>691.3333333333334</ele><time>2026-05-02T13:36:50.001Z</time></trkpt><trkpt lat="40.039584187290735" lon="9.49200002001126"><ele>692.6666666666667</ele><time>2026-05-02T13:36:51.001Z</time></trkpt><trkpt lat="40.039622112007336" lon="9.49209169747873"><ele>694.0</ele><time>2026-05-02T13:36:52.001Z</time></trkpt><trkpt lat="40.03966237566719" lon="9.492191055605582"><ele>690.4000000000001</ele><time>2026-05-02T13:36:53.001Z</time></trkpt><trkpt lat="40.0397140289293" lon="9.49229033363109"><ele>686.8</ele><time>2026-05-02T13:36:54.001Z</time></trkpt><trkpt lat="40.03977155455838" lon="9.492387715467665"><ele>683.2</ele><time>2026-05-02T13:36:55.001Z</time></trkpt><trkpt lat="40.03983864646912" lon="9.492480291149581"><ele>679.5999999999999</ele><time>2026-05-02T13:36:56.001Z</time></trkpt><trkpt lat="40.039889714780614" lon="9.492578998989885"><ele>676.0</ele><time>2026-05-02T13:36:57.001Z</time></trkpt><trkpt lat="40.03995118916934" lon="9.492659295054985"><ele>675.1999999999999</ele><time>2026-05-02T13:36:58.001Z</time></trkpt><trkpt lat="40.040018980182516" lon="9.492743537253501"><ele>674.4</ele><time>2026-05-02T13:36:59.001Z</time></trkpt><trkpt lat="40.04008570900055" lon="9.492835013760432"><ele>673.6</ele><time>2026-05-02T13:37:00.001Z</time></trkpt><trkpt lat="40.04016628793208" lon="9.492907134774573"><ele>672.8</ele><time>2026-05-02T13:37:01.001Z</time></trkpt><trkpt lat="40.04023852178701" lon="9.49298869256846"><ele>672.0</ele><time>2026-05-02T13:37:02.001Z</time></trkpt><trkpt lat="40.040325090252104" lon="9.493047995151175"><ele>672.0</ele><time>2026-05-02T13:37:03.001Z</time></trkpt><trkpt lat="40.04039534888899" lon="9.493117295191979"><ele>672.0</ele><time>2026-05-02T13:37:04.001Z</time></trkpt><trkpt lat="40.04049296274678" lon="9.493163201189132"><ele>672.0</ele><time>2026-05-02T13:37:05.001Z</time></trkpt><trkpt lat="40.04066319721999" lon="9.4930291429201"><ele>672.0</ele><time>2026-05-02T13:37:06.001Z</time></trkpt><trkpt lat="40.04073954599556" lon="9.493073351994946"><ele>675.6666666666666</ele><time>2026-05-02T13:37:07.001Z</time></trkpt><trkpt lat="40.04080861128782" lon="9.493139552156272"><ele>679.3333333333334</ele><time>2026-05-02T13:37:08.001Z</time></trkpt><trkpt lat="40.04087188822658" lon="9.493223513967283"><ele>683.0</ele><time>2026-05-02T13:37:09.001Z</time></trkpt><trkpt lat="40.040931945896546" lon="9.493311751887267"><ele>686.6666666666667</ele><time>2026-05-02T13:37:10.001Z</time></trkpt><trkpt lat="40.04096623883127" lon="9.493409057205337"><ele>690.3333333333334</ele><time>2026-05-02T13:37:11.001Z</time></trkpt><trkpt lat="40.04101606464355" lon="9.49348660842097"><ele>694.0</ele><time>2026-05-02T13:37:12.001Z</time></trkpt><trkpt lat="40.041039312617585" lon="9.493578616861686"><ele>694.0</ele><time>2026-05-02T13:37:13.001Z</time></trkpt><trkpt lat="40.04104963854686" lon="9.493679296317564"><ele>694.0</ele><time>2026-05-02T13:37:14.001Z</time></trkpt><trkpt lat="40.04103587915317" lon="9.493786419821333"><ele>694.0</ele><time>2026-05-02T13:37:15.001Z</time></trkpt><trkpt lat="40.04098852828933" lon="9.493895605769543"><ele>694.0</ele><time>2026-05-02T13:37:16.001Z</time></trkpt><trkpt lat="40.04097819613135" lon="9.494015808277046"><ele>694.0</ele><time>2026-05-02T13:37:17.001Z</time></trkpt><trkpt lat="40.040973108520134" lon="9.494131440478725"><ele>694.0</ele><time>2026-05-02T13:37:18.001Z</time></trkpt><trkpt lat="40.040987729728315" lon="9.494238587483245"><ele>692.3333333333334</ele><time>2026-05-02T13:37:19.001Z</time></trkpt><trkpt lat="40.0409766236765" lon="9.494345704265518"><ele>690.6666666666667</ele><time>2026-05-02T13:37:20.001Z</time></trkpt><trkpt lat="40.04099816242095" lon="9.49444705950453"><ele>689.0</ele><time>2026-05-02T13:37:21.001Z</time></trkpt><trkpt lat="40.041020363989176" lon="9.494555130889957"><ele>687.3333333333334</ele><time>2026-05-02T13:37:22.001Z</time></trkpt><trkpt lat="40.04104405748618" lon="9.494658402231476"><ele>685.6666666666666</ele><time>2026-05-02T13:37:23.001Z</time></trkpt><trkpt lat="40.041070343949556" lon="9.494759068483337"><ele>684.0</ele><time>2026-05-02T13:37:24.001Z</time></trkpt><trkpt lat="40.041100773221835" lon="9.494856125411307"><ele>682.9999999999999</ele><time>2026-05-02T13:37:25.001Z</time></trkpt><trkpt lat="40.04110121866255" lon="9.49494769550591"><ele>682.0</ele><time>2026-05-02T13:37:26.001Z</time></trkpt><trkpt lat="40.04111205695326" lon="9.4950376144203"><ele>681.0</ele><time>2026-05-02T13:37:27.001Z</time></trkpt><trkpt lat="40.04113315046652" lon="9.495130204907472"><ele>680.0</ele><time>2026-05-02T13:37:28.001Z</time></trkpt><trkpt lat="40.04116238743536" lon="9.495209363916484"><ele>679.0</ele><time>2026-05-02T13:37:29.001Z</time></trkpt><trkpt lat="40.04119347897946" lon="9.495290586850054"><ele>677.9999999999999</ele><time>2026-05-02T13:37:30.001Z</time></trkpt><trkpt lat="40.041223799700354" lon="9.495374027602718"><ele>677.0</ele><time>2026-05-02T13:37:31.001Z</time></trkpt><trkpt lat="40.041252818170925" lon="9.495456941529035"><ele>675.1666666666666</ele><time>2026-05-02T13:37:32.001Z</time></trkpt><trkpt lat="40.0412703308711" lon="9.495538135011556"><ele>673.3333333333333</ele><time>2026-05-02T13:37:33.001Z</time></trkpt><trkpt lat="40.04128949029607" lon="9.495639972793816"><ele>671.5</ele><time>2026-05-02T13:37:34.001Z</time></trkpt><trkpt lat="40.041304742926634" lon="9.495726806974183"><ele>669.6666666666666</ele><time>2026-05-02T13:37:35.001Z</time></trkpt><trkpt lat="40.04131949825445" lon="9.495810809981846"><ele>667.8333333333334</ele><time>2026-05-02T13:37:36.001Z</time></trkpt><trkpt lat="40.041364588789484" lon="9.495958879357786"><ele>666.0</ele><time>2026-05-02T13:37:38.001Z</time></trkpt><trkpt lat="40.04137405297718" lon="9.496108977447046"><ele>666.0</ele><time>2026-05-02T13:37:40.001Z</time></trkpt><trkpt lat="40.04138718552757" lon="9.496197193471335"><ele>666.0</ele><time>2026-05-02T13:37:41.001Z</time></trkpt><trkpt lat="40.041362694094076" lon="9.496285876816849"><ele>666.0</ele><time>2026-05-02T13:37:43.001Z</time></trkpt><trkpt lat="40.041354609538935" lon="9.496371688450301"><ele>666.0</ele><time>2026-05-02T13:37:46.001Z</time></trkpt><trkpt lat="40.04134515804934" lon="9.496459812332986"><ele>666.0</ele><time>2026-05-02T13:38:18.001Z</time></trkpt><trkpt lat="40.041329487439356" lon="9.496558193914458"><ele>666.0</ele><time>2026-05-02T13:38:33.001Z</time></trkpt><trkpt lat="40.041309756910216" lon="9.496639300338249"><ele>666.0</ele><time>2026-05-02T13:38:42.001Z</time></trkpt><trkpt lat="40.041290407669344" lon="9.496719958098058"><ele>666.1428571428572</ele><time>2026-05-02T13:38:48.001Z</time></trkpt><trkpt lat="40.0412769967673" lon="9.496813833619102"><ele>666.2857142857142</ele><time>2026-05-02T13:38:56.001Z</time></trkpt><trkpt lat="40.04127432828921" lon="9.496912744898202"><ele>666.4285714285714</ele><time>2026-05-02T13:39:15.001Z</time></trkpt><trkpt lat="40.04127095530092" lon="9.496829066300993"><ele>666.5714285714287</ele><time>2026-05-02T13:41:49Z</time></trkpt><trkpt lat="40.04128595548639" lon="9.496736599654856"><ele>666.7142857142858</ele><time>2026-05-02T13:42:02Z</time></trkpt><trkpt lat="40.04130552704271" lon="9.496656688071585"><ele>666.8571428571429</ele><time>2026-05-02T13:42:08Z</time></trkpt><trkpt lat="40.041325066739" lon="9.496576366089103"><ele>667.0</ele><time>2026-05-02T13:42:19Z</time></trkpt><trkpt lat="40.04134100058339" lon="9.496494085902532"><ele>667.0</ele><time>2026-05-02T13:42:30Z</time></trkpt><trkpt lat="40.04135228016253" lon="9.496397767672004"><ele>667.0</ele><time>2026-05-02T13:45:46.999Z</time></trkpt><trkpt lat="40.041342450298266" lon="9.496481741329111"><ele>667.0</ele><time>2026-05-02T13:46:49.022Z</time></trkpt><trkpt lat="40.04131073835592" lon="9.496645450235501"><ele>667.0</ele><time>2026-05-02T13:46:59.999Z</time></trkpt><trkpt lat="40.04132182589222" lon="9.496390766108291"><ele>667.0</ele><time>2026-05-02T13:49:57Z</time></trkpt><trkpt lat="40.041307518216776" lon="9.496305209748389"><ele>667.0</ele><time>2026-05-02T13:50:07.001Z</time></trkpt><trkpt lat="40.04137685608274" lon="9.49633334075331"><ele>667.0</ele><time>2026-05-02T13:57:19Z</time></trkpt><trkpt lat="40.04138220767851" lon="9.496423213764682"><ele>667.0</ele><time>2026-05-02T13:57:27Z</time></trkpt><trkpt lat="40.04141862981067" lon="9.496493102821018"><ele>667.0</ele><time>2026-05-02T13:58:56Z</time></trkpt><trkpt lat="40.041323874642536" lon="9.49659251021555"><ele>667.0</ele><time>2026-05-02T13:58:58Z</time></trkpt><trkpt lat="40.04128866159356" lon="9.49671327044931"><ele>667.0</ele><time>2026-05-02T13:59:00Z</time></trkpt><trkpt lat="40.0412741209513" lon="9.49683862623788"><ele>667.0</ele><time>2026-05-02T13:59:02Z</time></trkpt><trkpt lat="40.041276931894885" lon="9.496977336107939"><ele>667.0</ele><time>2026-05-02T13:59:04Z</time></trkpt><trkpt lat="40.04136260707861" lon="9.49707004235579"><ele>667.0</ele><time>2026-05-02T13:59:05Z</time></trkpt><trkpt lat="40.041403771672314" lon="9.497188618171219"><ele>667.0</ele><time>2026-05-02T13:59:08Z</time></trkpt><trkpt lat="40.041389244683316" lon="9.497321189023582"><ele>666.6</ele><time>2026-05-02T13:59:10Z</time></trkpt><trkpt lat="40.0413232825195" lon="9.497468232365083"><ele>666.2</ele><time>2026-05-02T13:59:12Z</time></trkpt><trkpt lat="40.041287760839545" lon="9.497546057826579"><ele>665.8</ele><time>2026-05-02T13:59:13Z</time></trkpt><trkpt lat="40.04125479191868" lon="9.4976261907489"><ele>665.4</ele><time>2026-05-02T13:59:14Z</time></trkpt><trkpt lat="40.04121439966679" lon="9.497786193975966"><ele>665.0</ele><time>2026-05-02T13:59:16Z</time></trkpt><trkpt lat="40.04122655792541" lon="9.49790085959848"><ele>662.8333333333333</ele><time>2026-05-02T13:59:17Z</time></trkpt><trkpt lat="40.041250076859185" lon="9.498008185663007"><ele>660.6666666666666</ele><time>2026-05-02T13:59:18Z</time></trkpt><trkpt lat="40.041267637264454" lon="9.498102687399284"><ele>658.5</ele><time>2026-05-02T13:59:19Z</time></trkpt><trkpt lat="40.04130159847371" lon="9.498177680621708"><ele>656.3333333333334</ele><time>2026-05-02T13:59:20Z</time></trkpt><trkpt lat="40.04135938181221" lon="9.498267102181732"><ele>654.1666666666667</ele><time>2026-05-02T13:59:22Z</time></trkpt><trkpt lat="40.04144434871029" lon="9.498249396569516"><ele>652.0</ele><time>2026-05-02T13:59:24Z</time></trkpt><trkpt lat="40.041528278766094" lon="9.498147967981092"><ele>652.0</ele><time>2026-05-02T13:59:26Z</time></trkpt><trkpt lat="40.04156219772542" lon="9.49805703914955"><ele>652.0</ele><time>2026-05-02T13:59:27Z</time></trkpt><trkpt lat="40.04158104350753" lon="9.497970573460803"><ele>652.0</ele><time>2026-05-02T13:59:28Z</time></trkpt><trkpt lat="40.04161443738955" lon="9.49788911192103"><ele>652.0</ele><time>2026-05-02T13:59:29Z</time></trkpt><trkpt lat="40.04164734572286" lon="9.497814568406941"><ele>652.0</ele><time>2026-05-02T13:59:30Z</time></trkpt><trkpt lat="40.041717809068864" lon="9.497711312458078"><ele>652.0</ele><time>2026-05-02T13:59:32Z</time></trkpt><trkpt lat="40.041817837667026" lon="9.497704459131405"><ele>659.0</ele><time>2026-05-02T13:59:34Z</time></trkpt><trkpt lat="40.04192595302553" lon="9.497707637201941"><ele>666.0</ele><time>2026-05-02T13:59:36Z</time></trkpt><trkpt lat="40.04204902849154" lon="9.497720666780005"><ele>673.0</ele><time>2026-05-02T13:59:38Z</time></trkpt><trkpt lat="40.042169985286165" lon="9.497738827894587"><ele>680.0</ele><time>2026-05-02T13:59:40Z</time></trkpt><trkpt lat="40.042273250123415" lon="9.497764601073595"><ele>680.0</ele><time>2026-05-02T13:59:42Z</time></trkpt><trkpt lat="40.04235763706021" lon="9.497826263249127"><ele>680.0</ele><time>2026-05-02T13:59:44Z</time></trkpt><trkpt lat="40.04244168675701" lon="9.497932815495766"><ele>680.0</ele><time>2026-05-02T13:59:46Z</time></trkpt><trkpt lat="40.04250573608783" lon="9.497987226171633"><ele>680.0</ele><time>2026-05-02T13:59:47Z</time></trkpt><trkpt lat="40.042571307423025" lon="9.49804205901311"><ele>680.0</ele><time>2026-05-02T13:59:48Z</time></trkpt><trkpt lat="40.04264398305401" lon="9.498094104046471"><ele>674.6666666666666</ele><time>2026-05-02T13:59:49Z</time></trkpt><trkpt lat="40.042716554788036" lon="9.498142539083245"><ele>669.3333333333333</ele><time>2026-05-02T13:59:50Z</time></trkpt><trkpt lat="40.04278828877006" lon="9.498187629984702"><ele>664.0</ele><time>2026-05-02T13:59:51Z</time></trkpt><trkpt lat="40.04286303003856" lon="9.498230367503623"><ele>658.6666666666666</ele><time>2026-05-02T13:59:52Z</time></trkpt><trkpt lat="40.042940878657916" lon="9.498266363236674"><ele>653.3333333333334</ele><time>2026-05-02T13:59:53Z</time></trkpt><trkpt lat="40.04302085951775" lon="9.498294600634866"><ele>648.0</ele><time>2026-05-02T13:59:54Z</time></trkpt><trkpt lat="40.04310483118918" lon="9.498317185098916"><ele>648.0</ele><time>2026-05-02T13:59:55Z</time></trkpt><trkpt lat="40.04318694001773" lon="9.498334256090292"><ele>648.0</ele><time>2026-05-02T13:59:56Z</time></trkpt><trkpt lat="40.043264468797005" lon="9.498346148294486"><ele>648.0</ele><time>2026-05-02T13:59:57Z</time></trkpt><trkpt lat="40.043337609077014" lon="9.498353733761197"><ele>648.0</ele><time>2026-05-02T13:59:58Z</time></trkpt><trkpt lat="40.043409503415695" lon="9.498360584718505"><ele>648.0</ele><time>2026-05-02T13:59:59Z</time></trkpt><trkpt lat="40.04348618312637" lon="9.498341610254592"><ele>648.0</ele><time>2026-05-02T14:00:00Z</time></trkpt><trkpt lat="40.043560063851494" lon="9.498362257198906"><ele>648.1666666666666</ele><time>2026-05-02T14:00:01Z</time></trkpt><trkpt lat="40.04363471209254" lon="9.498361328568363"><ele>648.3333333333334</ele><time>2026-05-02T14:00:02Z</time></trkpt><trkpt lat="40.04370678723262" lon="9.498360258841137"><ele>648.5</ele><time>2026-05-02T14:00:03Z</time></trkpt><trkpt lat="40.04377860737086" lon="9.498353360755683"><ele>648.6666666666667</ele><time>2026-05-02T14:00:04Z</time></trkpt><trkpt lat="40.04385419426742" lon="9.498337802486468"><ele>648.8333333333334</ele><time>2026-05-02T14:00:05Z</time></trkpt><trkpt lat="40.043932069672806" lon="9.498309888934774"><ele>649.0</ele><time>2026-05-02T14:00:06Z</time></trkpt><trkpt lat="40.044006215131" lon="9.498268037785154"><ele>649.0</ele><time>2026-05-02T14:00:07Z</time></trkpt><trkpt lat="40.04407285969088" lon="9.49822052835126"><ele>649.0</ele><time>2026-05-02T14:00:08Z</time></trkpt><trkpt lat="40.04413525362454" lon="9.498171405746954"><ele>649.0</ele><time>2026-05-02T14:00:09Z</time></trkpt><trkpt lat="40.04419541561688" lon="9.498125020276218"><ele>649.0</ele><time>2026-05-02T14:00:10Z</time></trkpt><trkpt lat="40.04425268433545" lon="9.498082115847188"><ele>649.0</ele><time>2026-05-02T14:00:11Z</time></trkpt><trkpt lat="40.04430921868046" lon="9.498039761593109"><ele>649.0</ele><time>2026-05-02T14:00:12Z</time></trkpt><trkpt lat="40.04441303507285" lon="9.497975623203919"><ele>646.5</ele><time>2026-05-02T14:00:14Z</time></trkpt><trkpt lat="40.044478287940066" lon="9.497944873550288"><ele>644.0</ele><time>2026-05-02T14:00:16Z</time></trkpt><trkpt lat="40.0445713297916" lon="9.497910022037892"><ele>641.5</ele><time>2026-05-02T14:00:19Z</time></trkpt><trkpt lat="40.04465549861446" lon="9.497890129188953"><ele>639.0</ele><time>2026-05-02T14:00:22Z</time></trkpt><trkpt lat="40.044743650082225" lon="9.497870694712002"><ele>636.5</ele><time>2026-05-02T14:00:26Z</time></trkpt><trkpt lat="40.04481376322915" lon="9.497847211918167"><ele>634.0</ele><time>2026-05-02T14:00:30Z</time></trkpt><trkpt lat="40.04486950454637" lon="9.497803188960962"><ele>635.4285714285714</ele><time>2026-05-02T14:00:37Z</time></trkpt><trkpt lat="40.04492442253327" lon="9.49776134249108"><ele>636.8571428571429</ele><time>2026-05-02T14:00:40Z</time></trkpt><trkpt lat="40.04498706404596" lon="9.497727471086813"><ele>638.2857142857142</ele><time>2026-05-02T14:00:45Z</time></trkpt><trkpt lat="40.045050787854535" lon="9.497731200244585"><ele>639.7142857142858</ele><time>2026-05-02T14:01:09Z</time></trkpt><trkpt lat="40.04511159383267" lon="9.497764271034356"><ele>641.1428571428571</ele><time>2026-05-02T14:01:16Z</time></trkpt><trkpt lat="40.045162004936486" lon="9.497826664533632"><ele>642.5714285714286</ele><time>2026-05-02T14:01:33Z</time></trkpt><trkpt lat="40.04517164873824" lon="9.497919005363402"><ele>644.0</ele><time>2026-05-02T14:01:38Z</time></trkpt><trkpt lat="40.04515592104315" lon="9.498005846134058"><ele>644.0</ele><time>2026-05-02T14:01:48Z</time></trkpt><trkpt lat="40.04512508590439" lon="9.498085459580256"><ele>644.0</ele><time>2026-05-02T14:01:56Z</time></trkpt><trkpt lat="40.04508970048728" lon="9.498158871487025"><ele>644.0</ele><time>2026-05-02T14:02:04Z</time></trkpt><trkpt lat="40.045050334922095" lon="9.498232331021043"><ele>644.0</ele><time>2026-05-02T14:02:13Z</time></trkpt><trkpt lat="40.04500747995027" lon="9.49829876335111"><ele>644.0</ele><time>2026-05-02T14:02:26Z</time></trkpt><trkpt lat="40.04496182400595" lon="9.498361108884716"><ele>644.0</ele><time>2026-05-02T14:02:38.001Z</time></trkpt><trkpt lat="40.04491329633766" lon="9.49841693396578"><ele>644.0</ele><time>2026-05-02T14:02:44.001Z</time></trkpt><trkpt lat="40.04485902832099" lon="9.498469770870289"><ele>642.5714285714286</ele><time>2026-05-02T14:02:50Z</time></trkpt><trkpt lat="40.044803575451034" lon="9.498522086048895"><ele>641.1428571428571</ele><time>2026-05-02T14:02:58Z</time></trkpt><trkpt lat="40.04474545771603" lon="9.498578455844843"><ele>639.7142857142858</ele><time>2026-05-02T14:03:06Z</time></trkpt><trkpt lat="40.04469207520849" lon="9.498641180496609"><ele>638.2857142857142</ele><time>2026-05-02T14:03:13Z</time></trkpt><trkpt lat="40.04464638512491" lon="9.498706246693311"><ele>636.8571428571429</ele><time>2026-05-02T14:03:21Z</time></trkpt><trkpt lat="40.04460180497445" lon="9.498778193647464"><ele>635.4285714285714</ele><time>2026-05-02T14:03:36Z</time></trkpt><trkpt lat="40.044560380660236" lon="9.49885015783935"><ele>634.0</ele><time>2026-05-02T14:03:43Z</time></trkpt><trkpt lat="40.04451998735941" lon="9.498923215728889"><ele>632.0</ele><time>2026-05-02T14:03:51Z</time></trkpt><trkpt lat="40.044475446424855" lon="9.499005934795925"><ele>630.0</ele><time>2026-05-02T14:04:24Z</time></trkpt><trkpt lat="40.0444326978282" lon="9.49908736949468"><ele>628.0</ele><time>2026-05-02T14:04:29Z</time></trkpt><trkpt lat="40.04439275373685" lon="9.499161192009966"><ele>626.0</ele><time>2026-05-02T14:04:34Z</time></trkpt><trkpt lat="40.04435540623807" lon="9.499227926565728"><ele>624.0</ele><time>2026-05-02T14:04:38Z</time></trkpt><trkpt lat="40.044315069137944" lon="9.499300003104006"><ele>622.0</ele><time>2026-05-02T14:04:43Z</time></trkpt><trkpt lat="40.04427122307056" lon="9.499376015254118"><ele>620.0</ele><time>2026-05-02T14:04:47Z</time></trkpt><trkpt lat="40.044227947324146" lon="9.499443720955846"><ele>620.0</ele><time>2026-05-02T14:05:10Z</time></trkpt><trkpt lat="40.044149288194184" lon="9.499565205374182"><ele>620.0</ele><time>2026-05-02T14:07:03Z</time></trkpt><trkpt lat="40.04409384703899" lon="9.499655905474262"><ele>620.0</ele><time>2026-05-02T14:13:07.999Z</time></trkpt><trkpt lat="40.04404290270504" lon="9.49975753752246"><ele>620.0</ele><time>2026-05-02T14:14:32Z</time></trkpt><trkpt lat="40.04401868278439" lon="9.499835958794103"><ele>620.0</ele><time>2026-05-02T14:14:34Z</time></trkpt><trkpt lat="40.044014310043565" lon="9.499939941762113"><ele>620.0</ele><time>2026-05-02T14:14:37Z</time></trkpt><trkpt lat="40.04407767513687" lon="9.500003066136646"><ele>619.8333333333333</ele><time>2026-05-02T14:14:41Z</time></trkpt><trkpt lat="40.04411453598834" lon="9.500096144052199"><ele>619.6666666666666</ele><time>2026-05-02T14:14:45Z</time></trkpt><trkpt lat="40.04415622926567" lon="9.50019769482008"><ele>619.5</ele><time>2026-05-02T14:14:48Z</time></trkpt><trkpt lat="40.0441954115551" lon="9.500295034437581"><ele>619.3333333333334</ele><time>2026-05-02T14:14:52Z</time></trkpt><trkpt lat="40.04422664661554" lon="9.50038559922988"><ele>619.1666666666667</ele><time>2026-05-02T14:14:54Z</time></trkpt><trkpt lat="40.04422150128403" lon="9.500496853915728"><ele>619.0</ele><time>2026-05-02T14:14:56Z</time></trkpt><trkpt lat="40.04419713649705" lon="9.500574407865397"><ele>613.7142857142857</ele><time>2026-05-02T14:14:58Z</time></trkpt><trkpt lat="40.04412827755433" lon="9.500589196038684"><ele>608.4285714285714</ele><time>2026-05-02T14:15:00Z</time></trkpt><trkpt lat="40.0440752350984" lon="9.500694404807774"><ele>603.1428571428571</ele><time>2026-05-02T14:15:02Z</time></trkpt><trkpt lat="40.044037032567886" lon="9.500770062422317"><ele>597.8571428571429</ele><time>2026-05-02T14:15:03Z</time></trkpt><trkpt lat="40.04399925742296" lon="9.500843280702705"><ele>592.5714285714286</ele><time>2026-05-02T14:15:04Z</time></trkpt><trkpt lat="40.04395864930645" lon="9.500919521568093"><ele>587.2857142857142</ele><time>2026-05-02T14:15:05Z</time></trkpt><trkpt lat="40.043916772355814" lon="9.500991316935755"><ele>582.0</ele><time>2026-05-02T14:15:06Z</time></trkpt><trkpt lat="40.04386170230112" lon="9.501074447304704"><ele>582.0</ele><time>2026-05-02T14:15:07Z</time></trkpt><trkpt lat="40.0438007434753" lon="9.50116800913929"><ele>582.0</ele><time>2026-05-02T14:15:08Z</time></trkpt><trkpt lat="40.04373582638058" lon="9.501277768046275"><ele>582.0</ele><time>2026-05-02T14:15:09Z</time></trkpt><trkpt lat="40.04368141158901" lon="9.501406240105986"><ele>582.0</ele><time>2026-05-02T14:15:10Z</time></trkpt><trkpt lat="40.04363626874155" lon="9.501556420854724"><ele>582.0</ele><time>2026-05-02T14:15:11Z</time></trkpt><trkpt lat="40.04357040180854" lon="9.501701039015865"><ele>582.6</ele><time>2026-05-02T14:15:12Z</time></trkpt><trkpt lat="40.04348247038752" lon="9.501802585449704"><ele>583.2</ele><time>2026-05-02T14:15:13.001Z</time></trkpt><trkpt lat="40.04339382537679" lon="9.501914058160086"><ele>583.8</ele><time>2026-05-02T14:15:13.999Z</time></trkpt><trkpt lat="40.043305356822636" lon="9.502020480517112"><ele>584.4</ele><time>2026-05-02T14:15:14.999Z</time></trkpt><trkpt lat="40.04325695113294" lon="9.502078724800569"><ele>585.0</ele><time>2026-05-02T14:15:15.999Z</time></trkpt><trkpt lat="40.043189105710915" lon="9.50216035987135"><ele>585.0</ele><time>2026-05-02T14:15:16.999Z</time></trkpt><trkpt lat="40.04309900192493" lon="9.502268676086063"><ele>585.0</ele><time>2026-05-02T14:15:17.999Z</time></trkpt><trkpt lat="40.043009229283655" lon="9.50237535969815"><ele>585.0</ele><time>2026-05-02T14:15:18.999Z</time></trkpt><trkpt lat="40.042921944055685" lon="9.502488242281256"><ele>585.0</ele><time>2026-05-02T14:15:19.999Z</time></trkpt><trkpt lat="40.04280896266911" lon="9.502561090701882"><ele>585.0</ele><time>2026-05-02T14:15:20.999Z</time></trkpt><trkpt lat="40.042686704242676" lon="9.50257020179459"><ele>585.0</ele><time>2026-05-02T14:15:21.999Z</time></trkpt><trkpt lat="40.04256218511848" lon="9.502590830363523"><ele>585.0</ele><time>2026-05-02T14:15:22.999Z</time></trkpt><trkpt lat="40.04244566080342" lon="9.502636452048156"><ele>585.0</ele><time>2026-05-02T14:15:23.999Z</time></trkpt><trkpt lat="40.042331969929684" lon="9.50266082640421"><ele>585.75</ele><time>2026-05-02T14:15:24.999Z</time></trkpt><trkpt lat="40.042222574627964" lon="9.502729246502149"><ele>586.5</ele><time>2026-05-02T14:15:25.999Z</time></trkpt><trkpt lat="40.04212281249549" lon="9.502841364398165"><ele>587.25</ele><time>2026-05-02T14:15:26.999Z</time></trkpt><trkpt lat="40.04203781947514" lon="9.502973558846389"><ele>588.0</ele><time>2026-05-02T14:15:27.999Z</time></trkpt><trkpt lat="40.041917743585834" lon="9.503079482147298"><ele>588.0</ele><time>2026-05-02T14:15:28.999Z</time></trkpt><trkpt lat="40.04178285743703" lon="9.503166659514248"><ele>588.0</ele><time>2026-05-02T14:15:29.999Z</time></trkpt><trkpt lat="40.04164254456704" lon="9.50323054288428"><ele>588.0</ele><time>2026-05-02T14:15:30.999Z</time></trkpt><trkpt lat="40.04151049829987" lon="9.503259266503957"><ele>588.0</ele><time>2026-05-02T14:15:31.999Z</time></trkpt><trkpt lat="40.041387042442054" lon="9.50328369428763"><ele>578.5</ele><time>2026-05-02T14:15:32.999Z</time></trkpt><trkpt lat="40.041273460492356" lon="9.503313265268062"><ele>569.0</ele><time>2026-05-02T14:15:33.999Z</time></trkpt><trkpt lat="40.04116566391288" lon="9.503368332052897"><ele>559.5</ele><time>2026-05-02T14:15:34.999Z</time></trkpt><trkpt lat="40.04107586809904" lon="9.503461997762788"><ele>550.0</ele><time>2026-05-02T14:15:35.999Z</time></trkpt><trkpt lat="40.04100516577173" lon="9.503584047387916"><ele>550.0</ele><time>2026-05-02T14:15:36.999Z</time></trkpt><trkpt lat="40.040928931721936" lon="9.50371782466482"><ele>550.0</ele><time>2026-05-02T14:15:37.999Z</time></trkpt><trkpt lat="40.04086425953259" lon="9.503882830519537"><ele>550.0</ele><time>2026-05-02T14:15:38.999Z</time></trkpt><trkpt lat="40.04081629110506" lon="9.504061972661194"><ele>550.0</ele><time>2026-05-02T14:15:39.999Z</time></trkpt><trkpt lat="40.04077094728909" lon="9.504250370563666"><ele>548.25</ele><time>2026-05-02T14:15:40.999Z</time></trkpt><trkpt lat="40.04068060324925" lon="9.504410400570613"><ele>546.5</ele><time>2026-05-02T14:15:41.999Z</time></trkpt><trkpt lat="40.040613371359484" lon="9.504580668483325"><ele>544.75</ele><time>2026-05-02T14:15:42.999Z</time></trkpt><trkpt lat="40.04056513328322" lon="9.504754680795587"><ele>543.0</ele><time>2026-05-02T14:15:43.999Z</time></trkpt><trkpt lat="40.04051679379666" lon="9.504921711260321"><ele>543.0</ele><time>2026-05-02T14:15:44.999Z</time></trkpt><trkpt lat="40.04040968438527" lon="9.505046033816086"><ele>543.0</ele><time>2026-05-02T14:15:45.999Z</time></trkpt><trkpt lat="40.040300402464105" lon="9.505190111324454"><ele>543.0</ele><time>2026-05-02T14:15:46.999Z</time></trkpt><trkpt lat="40.04023445476174" lon="9.505335185309189"><ele>543.0</ele><time>2026-05-02T14:15:48Z</time></trkpt><trkpt lat="40.04017098005635" lon="9.505472407186538"><ele>542.5</ele><time>2026-05-02T14:15:49Z</time></trkpt><trkpt lat="40.04006242979093" lon="9.5055569457731"><ele>542.0</ele><time>2026-05-02T14:15:50Z</time></trkpt><trkpt lat="40.03993981480166" lon="9.50559215886677"><ele>541.5</ele><time>2026-05-02T14:15:51Z</time></trkpt><trkpt lat="40.03980935764481" lon="9.505592942744418"><ele>541.0</ele><time>2026-05-02T14:15:52Z</time></trkpt><trkpt lat="40.03969885366564" lon="9.505649807368712"><ele>541.0</ele><time>2026-05-02T14:15:53Z</time></trkpt><trkpt lat="40.039601157092754" lon="9.50575273939818"><ele>541.0</ele><time>2026-05-02T14:15:54Z</time></trkpt><trkpt lat="40.03950631954475" lon="9.505859782293776"><ele>541.0</ele><time>2026-05-02T14:15:55Z</time></trkpt><trkpt lat="40.03942060715548" lon="9.50597582108974"><ele>541.0</ele><time>2026-05-02T14:15:56Z</time></trkpt><trkpt lat="40.039308177264665" lon="9.506037000609016"><ele>541.0</ele><time>2026-05-02T14:15:57Z</time></trkpt><trkpt lat="40.039165715044334" lon="9.506074829496109"><ele>541.0</ele><time>2026-05-02T14:15:58Z</time></trkpt><trkpt lat="40.03901766706558" lon="9.5060743939475"><ele>541.0</ele><time>2026-05-02T14:15:59Z</time></trkpt><trkpt lat="40.03884915109372" lon="9.50612779925256"><ele>536.75</ele><time>2026-05-02T14:16:00Z</time></trkpt><trkpt lat="40.038694655411575" lon="9.506171002667024"><ele>532.5</ele><time>2026-05-02T14:16:01Z</time></trkpt><trkpt lat="40.03854833627301" lon="9.506205862144915"><ele>528.25</ele><time>2026-05-02T14:16:02Z</time></trkpt><trkpt lat="40.038407917494354" lon="9.5062056185744"><ele>524.0</ele><time>2026-05-02T14:16:03Z</time></trkpt><trkpt lat="40.03827875046966" lon="9.506177712824307"><ele>526.75</ele><time>2026-05-02T14:16:04Z</time></trkpt><trkpt lat="40.0381537050621" lon="9.50616595370395"><ele>529.5</ele><time>2026-05-02T14:16:05Z</time></trkpt><trkpt lat="40.038030140083066" lon="9.506198310799732"><ele>532.25</ele><time>2026-05-02T14:16:06Z</time></trkpt><trkpt lat="40.03789672756008" lon="9.506238626510248"><ele>535.0</ele><time>2026-05-02T14:16:07Z</time></trkpt><trkpt lat="40.03775655250791" lon="9.506330699586194"><ele>535.0</ele><time>2026-05-02T14:16:08Z</time></trkpt><trkpt lat="40.03759636306849" lon="9.5063822163924"><ele>535.0</ele><time>2026-05-02T14:16:09Z</time></trkpt><trkpt lat="40.03742222051445" lon="9.506426211384813"><ele>535.0</ele><time>2026-05-02T14:16:10Z</time></trkpt><trkpt lat="40.037239265202494" lon="9.50647542579918"><ele>531.0</ele><time>2026-05-02T14:16:11Z</time></trkpt><trkpt lat="40.037057780741364" lon="9.506525327065914"><ele>527.0</ele><time>2026-05-02T14:16:12Z</time></trkpt><trkpt lat="40.03688496327264" lon="9.506574040246429"><ele>523.0</ele><time>2026-05-02T14:16:13Z</time></trkpt><trkpt lat="40.03671341487237" lon="9.506622366732623"><ele>518.0</ele><time>2026-05-02T14:16:14Z</time></trkpt><trkpt lat="40.036542368663866" lon="9.506665104783664"><ele>513.0</ele><time>2026-05-02T14:16:15Z</time></trkpt><trkpt lat="40.03637353354633" lon="9.506712383718536"><ele>508.0</ele><time>2026-05-02T14:16:16Z</time></trkpt><trkpt lat="40.03620487809795" lon="9.506760091302182"><ele>508.0</ele><time>2026-05-02T14:16:17Z</time></trkpt><trkpt lat="40.036033959753055" lon="9.506782014794073"><ele>508.0</ele><time>2026-05-02T14:16:18Z</time></trkpt><trkpt lat="40.035865810976944" lon="9.506819664467804"><ele>508.0</ele><time>2026-05-02T14:16:19Z</time></trkpt><trkpt lat="40.03570130217929" lon="9.506856174532077"><ele>503.33333333333337</ele><time>2026-05-02T14:16:20Z</time></trkpt><trkpt lat="40.03554615972802" lon="9.506911104272834"><ele>498.66666666666663</ele><time>2026-05-02T14:16:21Z</time></trkpt><trkpt lat="40.035391876975446" lon="9.506937950241053"><ele>494.0</ele><time>2026-05-02T14:16:22Z</time></trkpt><trkpt lat="40.0352484981505" lon="9.50695044844398"><ele>494.0</ele><time>2026-05-02T14:16:23Z</time></trkpt><trkpt lat="40.03511186931006" lon="9.506936496686741"><ele>494.0</ele><time>2026-05-02T14:16:24Z</time></trkpt><trkpt lat="40.034982134247734" lon="9.506899887972464"><ele>494.0</ele><time>2026-05-02T14:16:25Z</time></trkpt><trkpt lat="40.03485444388575" lon="9.506883625519361"><ele>494.0</ele><time>2026-05-02T14:16:26Z</time></trkpt><trkpt lat="40.03472890461207" lon="9.506877385631837"><ele>493.0</ele><time>2026-05-02T14:16:27Z</time></trkpt><trkpt lat="40.03460590346948" lon="9.506931778230252"><ele>492.0</ele><time>2026-05-02T14:16:28Z</time></trkpt><trkpt lat="40.0344934921195" lon="9.507010864445096"><ele>491.0</ele><time>2026-05-02T14:16:29Z</time></trkpt><trkpt lat="40.03439998359039" lon="9.507103676064531"><ele>490.0</ele><time>2026-05-02T14:16:30Z</time></trkpt><trkpt lat="40.03433592790399" lon="9.50724402305291"><ele>490.0</ele><time>2026-05-02T14:16:31Z</time></trkpt><trkpt lat="40.03431211832022" lon="9.507401988282735"><ele>490.0</ele><time>2026-05-02T14:16:32Z</time></trkpt><trkpt lat="40.03429722519486" lon="9.507561515616997"><ele>490.0</ele><time>2026-05-02T14:16:33Z</time></trkpt><trkpt lat="40.03422422941946" lon="9.507692318024919"><ele>490.0</ele><time>2026-05-02T14:16:34Z</time></trkpt><trkpt lat="40.03413423422315" lon="9.507819931840148"><ele>491.33333333333337</ele><time>2026-05-02T14:16:35Z</time></trkpt><trkpt lat="40.034032140244044" lon="9.507953101429422"><ele>492.66666666666663</ele><time>2026-05-02T14:16:36Z</time></trkpt><trkpt lat="40.03388528549707" lon="9.50805355968574"><ele>494.0</ele><time>2026-05-02T14:16:37Z</time></trkpt><trkpt lat="40.03373656407528" lon="9.50813315786449"><ele>494.0</ele><time>2026-05-02T14:16:38Z</time></trkpt><trkpt lat="40.03354563335291" lon="9.508106618897028"><ele>494.0</ele><time>2026-05-02T14:16:39Z</time></trkpt><trkpt lat="40.03336612223138" lon="9.508056932348213"><ele>494.0</ele><time>2026-05-02T14:16:40Z</time></trkpt><trkpt lat="40.03319971030434" lon="9.508033048674465"><ele>487.6</ele><time>2026-05-02T14:16:41Z</time></trkpt><trkpt lat="40.03305569757597" lon="9.50801280588205"><ele>481.2</ele><time>2026-05-02T14:16:42Z</time></trkpt><trkpt lat="40.032954140854244" lon="9.508020875183103"><ele>474.80000000000007</ele><time>2026-05-02T14:16:43Z</time></trkpt><trkpt lat="40.03284793081212" lon="9.508034489303174"><ele>468.40000000000003</ele><time>2026-05-02T14:16:44Z</time></trkpt><trkpt lat="40.03276762017951" lon="9.508063931161145"><ele>462.0</ele><time>2026-05-02T14:16:45Z</time></trkpt><trkpt lat="40.032703621459675" lon="9.508146387611498"><ele>462.0</ele><time>2026-05-02T14:16:46Z</time></trkpt><trkpt lat="40.03267633320442" lon="9.508296413597556"><ele>462.0</ele><time>2026-05-02T14:16:47Z</time></trkpt><trkpt lat="40.032691928450184" lon="9.508444076646759"><ele>462.0</ele><time>2026-05-02T14:16:48Z</time></trkpt><trkpt lat="40.032680545174664" lon="9.508647814292774"><ele>462.0</ele><time>2026-05-02T14:16:49Z</time></trkpt><trkpt lat="40.03270004605538" lon="9.508872436473949"><ele>462.66666666666663</ele><time>2026-05-02T14:16:50Z</time></trkpt><trkpt lat="40.03268851426049" lon="9.50910652813868"><ele>463.3333333333333</ele><time>2026-05-02T14:16:51Z</time></trkpt><trkpt lat="40.032644983241006" lon="9.509324433961748"><ele>464.0</ele><time>2026-05-02T14:16:52Z</time></trkpt><trkpt lat="40.032617050470364" lon="9.509532316153095"><ele>467.66666666666663</ele><time>2026-05-02T14:16:53Z</time></trkpt><trkpt lat="40.03258571539073" lon="9.509753304163546"><ele>471.33333333333337</ele><time>2026-05-02T14:16:54Z</time></trkpt><trkpt lat="40.032534258203675" lon="9.509967896680234"><ele>475.0</ele><time>2026-05-02T14:16:55Z</time></trkpt><trkpt lat="40.03246677913734" lon="9.510158085729802"><ele>472.5</ele><time>2026-05-02T14:16:56Z</time></trkpt><trkpt lat="40.03239813230058" lon="9.510316153998428"><ele>470.0</ele><time>2026-05-02T14:16:57Z</time></trkpt><trkpt lat="40.032316521014295" lon="9.510425832184481"><ele>467.5</ele><time>2026-05-02T14:16:58Z</time></trkpt><trkpt lat="40.03220548898751" lon="9.510518458608932"><ele>465.0</ele><time>2026-05-02T14:16:59Z</time></trkpt><trkpt lat="40.03206434269622" lon="9.51061128284535"><ele>465.0</ele><time>2026-05-02T14:17:00Z</time></trkpt><trkpt lat="40.031903914064905" lon="9.51073622569237"><ele>465.0</ele><time>2026-05-02T14:17:01Z</time></trkpt><trkpt lat="40.031754660318306" lon="9.510902963322971"><ele>465.0</ele><time>2026-05-02T14:17:02Z</time></trkpt><trkpt lat="40.03160483981247" lon="9.511077629822523"><ele>464.33333333333337</ele><time>2026-05-02T14:17:03Z</time></trkpt><trkpt lat="40.03146474344029" lon="9.511240963215931"><ele>463.6666666666667</ele><time>2026-05-02T14:17:04Z</time></trkpt><trkpt lat="40.03133280904852" lon="9.511394781924604"><ele>463.0</ele><time>2026-05-02T14:17:05Z</time></trkpt><trkpt lat="40.03121940742898" lon="9.511550790164257"><ele>463.0</ele><time>2026-05-02T14:17:06.001Z</time></trkpt><trkpt lat="40.031087426697404" lon="9.511669103056994"><ele>463.0</ele><time>2026-05-02T14:17:07.001Z</time></trkpt><trkpt lat="40.03093459475892" lon="9.511750717252212"><ele>463.0</ele><time>2026-05-02T14:17:08.001Z</time></trkpt><trkpt lat="40.03075671907431" lon="9.511809843986697"><ele>455.6666666666667</ele><time>2026-05-02T14:17:09.001Z</time></trkpt><trkpt lat="40.03057328632723" lon="9.511864366839692"><ele>448.33333333333337</ele><time>2026-05-02T14:17:10.001Z</time></trkpt><trkpt lat="40.030382590695815" lon="9.511931753596892"><ele>441.0</ele><time>2026-05-02T14:17:11.001Z</time></trkpt><trkpt lat="40.03019810050989" lon="9.512006540373365"><ele>441.0</ele><time>2026-05-02T14:17:12.001Z</time></trkpt><trkpt lat="40.03002692915947" lon="9.512072912929266"><ele>441.0</ele><time>2026-05-02T14:17:13.001Z</time></trkpt><trkpt lat="40.029855809368726" lon="9.512117738830183"><ele>441.0</ele><time>2026-05-02T14:17:14.001Z</time></trkpt><trkpt lat="40.02968608743174" lon="9.512143227911869"><ele>451.66666666666663</ele><time>2026-05-02T14:17:15.001Z</time></trkpt><trkpt lat="40.029520845471744" lon="9.512158260815834"><ele>462.3333333333333</ele><time>2026-05-02T14:17:16.001Z</time></trkpt><trkpt lat="40.02936501667469" lon="9.512163342855363"><ele>473.0</ele><time>2026-05-02T14:17:17.001Z</time></trkpt><trkpt lat="40.02922382147538" lon="9.512157695713276"><ele>474.0</ele><time>2026-05-02T14:17:18.001Z</time></trkpt><trkpt lat="40.029104444984746" lon="9.512146699973476"><ele>475.0</ele><time>2026-05-02T14:17:19.001Z</time></trkpt><trkpt lat="40.028995615282966" lon="9.512097440836282"><ele>476.0</ele><time>2026-05-02T14:17:19.999Z</time></trkpt><trkpt lat="40.02889317723401" lon="9.512055630870274"><ele>477.0</ele><time>2026-05-02T14:17:20.999Z</time></trkpt><trkpt lat="40.028786377218864" lon="9.512020758042848"><ele>464.33333333333337</ele><time>2026-05-02T14:17:21.999Z</time></trkpt><trkpt lat="40.028726319453575" lon="9.511687481270476"><ele>451.6666666666667</ele><time>2026-05-02T14:17:22.999Z</time></trkpt><trkpt lat="40.02860345975603" lon="9.511611190972596"><ele>439.0</ele><time>2026-05-02T14:17:23.999Z</time></trkpt><trkpt lat="40.02847488510783" lon="9.51154444407202"><ele>439.0</ele><time>2026-05-02T14:17:24.999Z</time></trkpt><trkpt lat="40.02834499360079" lon="9.51150935476172"><ele>439.0</ele><time>2026-05-02T14:17:25.999Z</time></trkpt><trkpt lat="40.02821506322937" lon="9.51152330873423"><ele>439.0</ele><time>2026-05-02T14:17:26.999Z</time></trkpt><trkpt lat="40.02808210636886" lon="9.51156722156625"><ele>439.0</ele><time>2026-05-02T14:17:27.999Z</time></trkpt><trkpt lat="40.027939354527504" lon="9.511643076024248"><ele>432.6666666666667</ele><time>2026-05-02T14:17:28.999Z</time></trkpt><trkpt lat="40.0277859923567" lon="9.511729410948755"><ele>426.33333333333337</ele><time>2026-05-02T14:17:29.999Z</time></trkpt><trkpt lat="40.02762101310121" lon="9.511792511806739"><ele>420.0</ele><time>2026-05-02T14:17:30.999Z</time></trkpt><trkpt lat="40.02744774294695" lon="9.511836741176376"><ele>412.66666666666663</ele><time>2026-05-02T14:17:31.999Z</time></trkpt><trkpt lat="40.02726540985328" lon="9.511858119946845"><ele>405.3333333333333</ele><time>2026-05-02T14:17:32.999Z</time></trkpt><trkpt lat="40.027091755582" lon="9.511882808032189"><ele>398.0</ele><time>2026-05-02T14:17:34Z</time></trkpt><trkpt lat="40.026932230505416" lon="9.51191287266704"><ele>398.0</ele><time>2026-05-02T14:17:35Z</time></trkpt><trkpt lat="40.02678749560037" lon="9.51194453606844"><ele>398.0</ele><time>2026-05-02T14:17:36Z</time></trkpt><trkpt lat="40.026653182174215" lon="9.511975360561543"><ele>398.0</ele><time>2026-05-02T14:17:37Z</time></trkpt><trkpt lat="40.02653750451117" lon="9.512021277680281"><ele>398.0</ele><time>2026-05-02T14:17:38Z</time></trkpt><trkpt lat="40.02644561841985" lon="9.512111377015527"><ele>394.5</ele><time>2026-05-02T14:17:39Z</time></trkpt><trkpt lat="40.026374200558614" lon="9.512251031470703"><ele>391.0</ele><time>2026-05-02T14:17:40Z</time></trkpt><trkpt lat="40.026307257461106" lon="9.512415721591154"><ele>387.5</ele><time>2026-05-02T14:17:41Z</time></trkpt><trkpt lat="40.0262216512973" lon="9.512589129394552"><ele>384.0</ele><time>2026-05-02T14:17:42Z</time></trkpt><trkpt lat="40.026153461623636" lon="9.512764221196493"><ele>385.25</ele><time>2026-05-02T14:17:43Z</time></trkpt><trkpt lat="40.02609735563034" lon="9.512930822943549"><ele>386.5</ele><time>2026-05-02T14:17:44Z</time></trkpt><trkpt lat="40.02606213356423" lon="9.513103483365237"><ele>387.75</ele><time>2026-05-02T14:17:45Z</time></trkpt><trkpt lat="40.026053592572936" lon="9.513282118908563"><ele>389.0</ele><time>2026-05-02T14:17:46Z</time></trkpt><trkpt lat="40.02607084811727" lon="9.513445906637115"><ele>389.0</ele><time>2026-05-02T14:17:47Z</time></trkpt><trkpt lat="40.02611818837547" lon="9.513562796519876"><ele>389.0</ele><time>2026-05-02T14:17:48Z</time></trkpt><trkpt lat="40.02617243019385" lon="9.513648123954367"><ele>389.0</ele><time>2026-05-02T14:17:49Z</time></trkpt><trkpt lat="40.026248351593146" lon="9.513708310788164"><ele>389.0</ele><time>2026-05-02T14:17:50Z</time></trkpt><trkpt lat="40.02633567984964" lon="9.513738763768432"><ele>389.0</ele><time>2026-05-02T14:17:51Z</time></trkpt><trkpt lat="40.0264394378837" lon="9.513771347556334"><ele>389.66666666666663</ele><time>2026-05-02T14:17:52Z</time></trkpt><trkpt lat="40.02655583407423" lon="9.513818678324936"><ele>390.33333333333337</ele><time>2026-05-02T14:17:53Z</time></trkpt><trkpt lat="40.02667407526172" lon="9.513879432189272"><ele>391.0</ele><time>2026-05-02T14:17:54Z</time></trkpt><trkpt lat="40.02699279996091" lon="9.51371736170369"><ele>391.0</ele><time>2026-05-02T14:17:55Z</time></trkpt><trkpt lat="40.02708057855824" lon="9.514050438638465"><ele>391.0</ele><time>2026-05-02T14:17:57Z</time></trkpt><trkpt lat="40.027213655067584" lon="9.514108238096808"><ele>391.0</ele><time>2026-05-02T14:17:58Z</time></trkpt><trkpt lat="40.02733913078911" lon="9.514180845991898"><ele>391.0</ele><time>2026-05-02T14:17:59Z</time></trkpt><trkpt lat="40.02743276520672" lon="9.514310675412506"><ele>391.0</ele><time>2026-05-02T14:18:00Z</time></trkpt><trkpt lat="40.02752687744066" lon="9.514456003518738"><ele>391.0</ele><time>2026-05-02T14:18:01Z</time></trkpt><trkpt lat="40.02762422404015" lon="9.514540146386766"><ele>391.0</ele><time>2026-05-02T14:18:02Z</time></trkpt><trkpt lat="40.02771820943353" lon="9.514588047850184"><ele>389.8</ele><time>2026-05-02T14:18:03Z</time></trkpt><trkpt lat="40.0277723948162" lon="9.514668942585255"><ele>388.6</ele><time>2026-05-02T14:18:04Z</time></trkpt><trkpt lat="40.027783128156265" lon="9.514772100348605"><ele>387.4</ele><time>2026-05-02T14:18:05Z</time></trkpt><trkpt lat="40.02775129433952" lon="9.514880580887793"><ele>386.2</ele><time>2026-05-02T14:18:06Z</time></trkpt><trkpt lat="40.02765920326483" lon="9.514968108512413"><ele>385.0</ele><time>2026-05-02T14:18:07Z</time></trkpt><trkpt lat="40.027568987558155" lon="9.515098290932864"><ele>376.0</ele><time>2026-05-02T14:18:08Z</time></trkpt><trkpt lat="40.02746759185154" lon="9.515273746569271"><ele>367.0</ele><time>2026-05-02T14:18:09Z</time></trkpt><trkpt lat="40.02737055240362" lon="9.515447517744407"><ele>358.0</ele><time>2026-05-02T14:18:10Z</time></trkpt><trkpt lat="40.02726901872917" lon="9.515643630210365"><ele>356.0</ele><time>2026-05-02T14:18:11Z</time></trkpt><trkpt lat="40.0271791675542" lon="9.515820683332745"><ele>354.0</ele><time>2026-05-02T14:18:12Z</time></trkpt><trkpt lat="40.02709369909821" lon="9.515992457446236"><ele>352.0</ele><time>2026-05-02T14:18:13Z</time></trkpt><trkpt lat="40.02700507236018" lon="9.5161805986789"><ele>354.66666666666663</ele><time>2026-05-02T14:18:14Z</time></trkpt><trkpt lat="40.0269787339097" lon="9.516423314206632"><ele>357.3333333333333</ele><time>2026-05-02T14:18:15Z</time></trkpt><trkpt lat="40.026907009151444" lon="9.5166657672882"><ele>360.0</ele><time>2026-05-02T14:18:16Z</time></trkpt><trkpt lat="40.02684133451238" lon="9.516920951972242"><ele>362.3333333333333</ele><time>2026-05-02T14:18:17Z</time></trkpt><trkpt lat="40.026775185684144" lon="9.517168146724975"><ele>364.66666666666663</ele><time>2026-05-02T14:18:18Z</time></trkpt><trkpt lat="40.02670849117002" lon="9.517415330328701"><ele>367.0</ele><time>2026-05-02T14:18:19Z</time></trkpt><trkpt lat="40.026641556824266" lon="9.517646738019266"><ele>356.66666666666663</ele><time>2026-05-02T14:18:20Z</time></trkpt><trkpt lat="40.026566783413735" lon="9.51786201469081"><ele>346.3333333333333</ele><time>2026-05-02T14:18:21Z</time></trkpt><trkpt lat="40.026492101866474" lon="9.518067644812486"><ele>336.0</ele><time>2026-05-02T14:18:22Z</time></trkpt><trkpt lat="40.02641409165612" lon="9.518258666169684"><ele>336.0</ele><time>2026-05-02T14:18:23Z</time></trkpt><trkpt lat="40.02634142233685" lon="9.51843457615174"><ele>336.0</ele><time>2026-05-02T14:18:24Z</time></trkpt><trkpt lat="40.02620388064258" lon="9.518573371001256"><ele>336.0</ele><time>2026-05-02T14:18:25Z</time></trkpt><trkpt lat="40.02606536971318" lon="9.518700019021855"><ele>341.6666666666667</ele><time>2026-05-02T14:18:26Z</time></trkpt><trkpt lat="40.025920739066855" lon="9.51883283427829"><ele>347.33333333333337</ele><time>2026-05-02T14:18:27.001Z</time></trkpt><trkpt lat="40.0257827735421" lon="9.518968619094675"><ele>353.0</ele><time>2026-05-02T14:18:28.001Z</time></trkpt><trkpt lat="40.02566755997414" lon="9.519137206006173"><ele>342.75</ele><time>2026-05-02T14:18:29.001Z</time></trkpt><trkpt lat="40.025577354979355" lon="9.519264033189947"><ele>332.5</ele><time>2026-05-02T14:18:30.001Z</time></trkpt><trkpt lat="40.02546383089993" lon="9.519396443953378"><ele>322.25</ele><time>2026-05-02T14:18:31.001Z</time></trkpt><trkpt lat="40.025401280501484" lon="9.519500118072509"><ele>312.0</ele><time>2026-05-02T14:18:32.001Z</time></trkpt><trkpt lat="40.02535816146521" lon="9.51965219538851"><ele>311.25</ele><time>2026-05-02T14:18:33.001Z</time></trkpt><trkpt lat="40.025354787785105" lon="9.519809958161039"><ele>310.5</ele><time>2026-05-02T14:18:34.001Z</time></trkpt><trkpt lat="40.02539448252073" lon="9.519954560202699"><ele>309.75</ele><time>2026-05-02T14:18:35.001Z</time></trkpt><trkpt lat="40.02544912322988" lon="9.520085139178876"><ele>309.0</ele><time>2026-05-02T14:18:36.001Z</time></trkpt><trkpt lat="40.02551431603168" lon="9.520215695827654"><ele>309.0</ele><time>2026-05-02T14:18:37.001Z</time></trkpt><trkpt lat="40.02560952760854" lon="9.520258272700634"><ele>309.0</ele><time>2026-05-02T14:18:38.001Z</time></trkpt><trkpt lat="40.02570221323375" lon="9.52026053955136"><ele>309.0</ele><time>2026-05-02T14:18:39.001Z</time></trkpt><trkpt lat="40.025787160185025" lon="9.520240593954892"><ele>309.0</ele><time>2026-05-02T14:18:40.001Z</time></trkpt><trkpt lat="40.02586163621677" lon="9.52020996268573"><ele>309.0</ele><time>2026-05-02T14:18:41.001Z</time></trkpt><trkpt lat="40.025931200832204" lon="9.52017984288002"><ele>309.0</ele><time>2026-05-02T14:18:42.001Z</time></trkpt><trkpt lat="40.025991432618014" lon="9.520147254626503"><ele>314.6666666666667</ele><time>2026-05-02T14:18:43.001Z</time></trkpt><trkpt lat="40.02610178760476" lon="9.52006706555631"><ele>320.3333333333333</ele><time>2026-05-02T14:18:45.001Z</time></trkpt><trkpt lat="40.02616497092521" lon="9.520042064599897"><ele>326.0</ele><time>2026-05-02T14:18:46.001Z</time></trkpt><trkpt lat="40.0262346559317" lon="9.520008105268243"><ele>331.66666666666663</ele><time>2026-05-02T14:18:47.001Z</time></trkpt><trkpt lat="40.02630259519912" lon="9.51997408885187"><ele>337.3333333333333</ele><time>2026-05-02T14:18:48.001Z</time></trkpt><trkpt lat="40.02637221656212" lon="9.519919900111468"><ele>343.0</ele><time>2026-05-02T14:18:49.001Z</time></trkpt><trkpt lat="40.02644742889889" lon="9.51985148657745"><ele>343.0</ele><time>2026-05-02T14:18:50.001Z</time></trkpt><trkpt lat="40.02651712857871" lon="9.519770008549362"><ele>343.0</ele><time>2026-05-02T14:18:51.001Z</time></trkpt><trkpt lat="40.026583888870974" lon="9.519694725882118"><ele>343.0</ele><time>2026-05-02T14:18:52.001Z</time></trkpt><trkpt lat="40.02665154930889" lon="9.519658949513438"><ele>343.0</ele><time>2026-05-02T14:18:53.001Z</time></trkpt><trkpt lat="40.02672881597511" lon="9.519673665060509"><ele>343.0</ele><time>2026-05-02T14:18:54.001Z</time></trkpt><trkpt lat="40.02677503636784" lon="9.519733797675709"><ele>343.0</ele><time>2026-05-02T14:18:55.001Z</time></trkpt><trkpt lat="40.02681736638152" lon="9.519796192196214"><ele>343.0</ele><time>2026-05-02T14:18:56.001Z</time></trkpt><trkpt lat="40.02681680770668" lon="9.519880745776348"><ele>343.0</ele><time>2026-05-02T14:18:57.001Z</time></trkpt><trkpt lat="40.02678588549405" lon="9.519973893084778"><ele>343.0</ele><time>2026-05-02T14:18:58.001Z</time></trkpt><trkpt lat="40.02670641946021" lon="9.520044942939737"><ele>343.0</ele><time>2026-05-02T14:18:59.001Z</time></trkpt><trkpt lat="40.02662706806424" lon="9.520148050347355"><ele>343.0</ele><time>2026-05-02T14:19:00.001Z</time></trkpt><trkpt lat="40.026552486954365" lon="9.520264452465899"><ele>343.0</ele><time>2026-05-02T14:19:01.001Z</time></trkpt><trkpt lat="40.026459616476934" lon="9.52038524532778"><ele>343.0</ele><time>2026-05-02T14:19:02.001Z</time></trkpt><trkpt lat="40.026367313394594" lon="9.52051291130389"><ele>343.0</ele><time>2026-05-02T14:19:03.001Z</time></trkpt><trkpt lat="40.02626640511852" lon="9.520617843573033"><ele>343.0</ele><time>2026-05-02T14:19:04.001Z</time></trkpt><trkpt lat="40.0261801719634" lon="9.520744393407806"><ele>339.25</ele><time>2026-05-02T14:19:05.001Z</time></trkpt><trkpt lat="40.02607053683709" lon="9.520846515256268"><ele>335.5</ele><time>2026-05-02T14:19:06.001Z</time></trkpt><trkpt lat="40.025940078776415" lon="9.52093357481154"><ele>331.75</ele><time>2026-05-02T14:19:07.001Z</time></trkpt><trkpt lat="40.02580329463891" lon="9.52100721515737"><ele>328.0</ele><time>2026-05-02T14:19:08.001Z</time></trkpt><trkpt lat="40.02567901178601" lon="9.52108123466156"><ele>322.75</ele><time>2026-05-02T14:19:09.001Z</time></trkpt><trkpt lat="40.02556561211328" lon="9.521136528655576"><ele>317.5</ele><time>2026-05-02T14:19:10.001Z</time></trkpt><trkpt lat="40.02545545516898" lon="9.521160392964026"><ele>312.25</ele><time>2026-05-02T14:19:11.001Z</time></trkpt><trkpt lat="40.02534521048175" lon="9.521140184146969"><ele>307.0</ele><time>2026-05-02T14:19:12.001Z</time></trkpt><trkpt lat="40.02523743402459" lon="9.521082124960197"><ele>307.0</ele><time>2026-05-02T14:19:13.001Z</time></trkpt><trkpt lat="40.02512039648514" lon="9.52101174591457"><ele>307.0</ele><time>2026-05-02T14:19:14.001Z</time></trkpt><trkpt lat="40.02501566035265" lon="9.52094989859026"><ele>307.0</ele><time>2026-05-02T14:19:15.001Z</time></trkpt><trkpt lat="40.02491179825055" lon="9.520934573609113"><ele>307.0</ele><time>2026-05-02T14:19:16.001Z</time></trkpt><trkpt lat="40.02482465545059" lon="9.520959901598673"><ele>307.0</ele><time>2026-05-02T14:19:17.001Z</time></trkpt><trkpt lat="40.024731940505546" lon="9.520988114826322"><ele>303.6</ele><time>2026-05-02T14:19:18.001Z</time></trkpt><trkpt lat="40.02466246269475" lon="9.52107272397686"><ele>300.2</ele><time>2026-05-02T14:19:19.001Z</time></trkpt><trkpt lat="40.02464359802945" lon="9.521202498000793"><ele>296.8</ele><time>2026-05-02T14:19:20.001Z</time></trkpt><trkpt lat="40.02465953136532" lon="9.521334778168814"><ele>293.4</ele><time>2026-05-02T14:19:21.001Z</time></trkpt><trkpt lat="40.02462883257263" lon="9.521468360315607"><ele>290.0</ele><time>2026-05-02T14:19:22.001Z</time></trkpt><trkpt lat="40.02456243103035" lon="9.521584915455072"><ele>290.0</ele><time>2026-05-02T14:19:23.001Z</time></trkpt><trkpt lat="40.02447309097435" lon="9.521680841252202"><ele>290.0</ele><time>2026-05-02T14:19:24.001Z</time></trkpt><trkpt lat="40.02434446669062" lon="9.521756394569364"><ele>290.0</ele><time>2026-05-02T14:19:25.001Z</time></trkpt><trkpt lat="40.02425399712547" lon="9.521899412103247"><ele>290.0</ele><time>2026-05-02T14:19:26.001Z</time></trkpt><trkpt lat="40.02413857852504" lon="9.522038762694025"><ele>282.5</ele><time>2026-05-02T14:19:27.001Z</time></trkpt><trkpt lat="40.02404667704332" lon="9.52217599341269"><ele>275.0</ele><time>2026-05-02T14:19:28.001Z</time></trkpt><trkpt lat="40.02397355733115" lon="9.522309181721626"><ele>267.5</ele><time>2026-05-02T14:19:29.001Z</time></trkpt><trkpt lat="40.023903778529764" lon="9.522414726976523"><ele>260.0</ele><time>2026-05-02T14:19:30.001Z</time></trkpt><trkpt lat="40.023844486808265" lon="9.522509114060847"><ele>260.0</ele><time>2026-05-02T14:19:31.001Z</time></trkpt><trkpt lat="40.02383248756153" lon="9.522628112036625"><ele>260.0</ele><time>2026-05-02T14:19:32.001Z</time></trkpt><trkpt lat="40.02387938708779" lon="9.522748543683974"><ele>260.0</ele><time>2026-05-02T14:19:33.001Z</time></trkpt><trkpt lat="40.02396965742916" lon="9.522822026346192"><ele>260.0</ele><time>2026-05-02T14:19:34.001Z</time></trkpt><trkpt lat="40.024070557969594" lon="9.522845974121331"><ele>260.0</ele><time>2026-05-02T14:19:35.001Z</time></trkpt><trkpt lat="40.02415774289336" lon="9.522877564708383"><ele>267.0</ele><time>2026-05-02T14:19:36.001Z</time></trkpt><trkpt lat="40.02424076118201" lon="9.522919766273647"><ele>274.0</ele><time>2026-05-02T14:19:37.001Z</time></trkpt><trkpt lat="40.024286427485755" lon="9.523012957589653"><ele>281.0</ele><time>2026-05-02T14:19:38.001Z</time></trkpt><trkpt lat="40.024305877561915" lon="9.5231260691427"><ele>288.0</ele><time>2026-05-02T14:19:39.001Z</time></trkpt><trkpt lat="40.02427205136218" lon="9.523259642987783"><ele>295.0</ele><time>2026-05-02T14:19:40.001Z</time></trkpt><trkpt lat="40.02424829438691" lon="9.523384333467252"><ele>295.0</ele><time>2026-05-02T14:19:41.001Z</time></trkpt><trkpt lat="40.02420271882075" lon="9.523520819266924"><ele>295.0</ele><time>2026-05-02T14:19:42.001Z</time></trkpt><trkpt lat="40.024120783862365" lon="9.52365242763843"><ele>295.0</ele><time>2026-05-02T14:19:43.001Z</time></trkpt><trkpt lat="40.02404768617899" lon="9.523771598264297"><ele>295.0</ele><time>2026-05-02T14:19:44.001Z</time></trkpt><trkpt lat="40.02395697149167" lon="9.523904333537994"><ele>288.25</ele><time>2026-05-02T14:19:45.001Z</time></trkpt><trkpt lat="40.02384525457291" lon="9.52402306228259"><ele>281.5</ele><time>2026-05-02T14:19:46.001Z</time></trkpt><trkpt lat="40.02372179961753" lon="9.524097804391031"><ele>274.75</ele><time>2026-05-02T14:19:47.001Z</time></trkpt><trkpt lat="40.023575674560284" lon="9.524159876036283"><ele>268.0</ele><time>2026-05-02T14:19:48.001Z</time></trkpt><trkpt lat="40.0234353001122" lon="9.524214470167447"><ele>268.0</ele><time>2026-05-02T14:19:49.001Z</time></trkpt><trkpt lat="40.02331515542761" lon="9.52429683539777"><ele>268.0</ele><time>2026-05-02T14:19:50.001Z</time></trkpt><trkpt lat="40.023226630572054" lon="9.524382472525494"><ele>268.0</ele><time>2026-05-02T14:19:51.001Z</time></trkpt><trkpt lat="40.02315049660299" lon="9.524469571086058"><ele>268.0</ele><time>2026-05-02T14:19:52.001Z</time></trkpt><trkpt lat="40.02309031859812" lon="9.524563907485211"><ele>268.0</ele><time>2026-05-02T14:19:53.001Z</time></trkpt><trkpt lat="40.023061682056166" lon="9.524677577582077"><ele>264.6</ele><time>2026-05-02T14:19:54.001Z</time></trkpt><trkpt lat="40.02307907561254" lon="9.524796640982943"><ele>261.20000000000005</ele><time>2026-05-02T14:19:55.001Z</time></trkpt><trkpt lat="40.02316948329813" lon="9.52489031236772"><ele>257.8</ele><time>2026-05-02T14:19:56.001Z</time></trkpt><trkpt lat="40.023229498104776" lon="9.525007195651423"><ele>254.4</ele><time>2026-05-02T14:19:57.001Z</time></trkpt><trkpt lat="40.02324907159247" lon="9.525148982819942"><ele>251.0</ele><time>2026-05-02T14:19:58.001Z</time></trkpt><trkpt lat="40.02319639852504" lon="9.525295689030296"><ele>247.75</ele><time>2026-05-02T14:19:59.001Z</time></trkpt><trkpt lat="40.023179758190736" lon="9.525473113366337"><ele>244.5</ele><time>2026-05-02T14:20:00.001Z</time></trkpt><trkpt lat="40.02320534344547" lon="9.525652432645671"><ele>241.25</ele><time>2026-05-02T14:20:01.001Z</time></trkpt><trkpt lat="40.023240042768734" lon="9.52580949746397"><ele>238.0</ele><time>2026-05-02T14:20:02.001Z</time></trkpt><trkpt lat="40.02324600379997" lon="9.526028182683204"><ele>238.0</ele><time>2026-05-02T14:20:03.001Z</time></trkpt><trkpt lat="40.02324488744372" lon="9.526225725900579"><ele>238.0</ele><time>2026-05-02T14:20:04.001Z</time></trkpt><trkpt lat="40.02324336822376" lon="9.52640958718399"><ele>238.0</ele><time>2026-05-02T14:20:05.001Z</time></trkpt><trkpt lat="40.02322906082892" lon="9.526563362822825"><ele>238.0</ele><time>2026-05-02T14:20:06.001Z</time></trkpt><trkpt lat="40.0231784439643" lon="9.526692439123641"><ele>238.25</ele><time>2026-05-02T14:20:07.001Z</time></trkpt><trkpt lat="40.023084672851" lon="9.526746421246498"><ele>238.5</ele><time>2026-05-02T14:20:08.001Z</time></trkpt><trkpt lat="40.022979240092326" lon="9.526830701473362"><ele>238.75</ele><time>2026-05-02T14:20:09.001Z</time></trkpt><trkpt lat="40.02285191783886" lon="9.526957634664575"><ele>239.0</ele><time>2026-05-02T14:20:10.001Z</time></trkpt><trkpt lat="40.02273436624299" lon="9.527102659814725"><ele>239.0</ele><time>2026-05-02T14:20:11.001Z</time></trkpt><trkpt lat="40.02261767423289" lon="9.527255041175042"><ele>239.0</ele><time>2026-05-02T14:20:12.001Z</time></trkpt><trkpt lat="40.02250503190811" lon="9.527419467672539"><ele>239.0</ele><time>2026-05-02T14:20:13.001Z</time></trkpt><trkpt lat="40.02240850904399" lon="9.527568278750513"><ele>233.0</ele><time>2026-05-02T14:20:14.001Z</time></trkpt><trkpt lat="40.022328864836965" lon="9.527701784963215"><ele>226.99999999999997</ele><time>2026-05-02T14:20:15.001Z</time></trkpt><trkpt lat="40.02228093717962" lon="9.52782525358075"><ele>221.0</ele><time>2026-05-02T14:20:16.001Z</time></trkpt><trkpt lat="40.022249106124804" lon="9.52791950830016"><ele>215.0</ele><time>2026-05-02T14:20:17.001Z</time></trkpt><trkpt lat="40.0222473765501" lon="9.528011272173824"><ele>209.0</ele><time>2026-05-02T14:20:18.001Z</time></trkpt><trkpt lat="40.02232023484573" lon="9.528098579398517"><ele>209.0</ele><time>2026-05-02T14:20:19.001Z</time></trkpt><trkpt lat="40.02241601480593" lon="9.528160007998467"><ele>209.0</ele><time>2026-05-02T14:20:20.001Z</time></trkpt><trkpt lat="40.0225283484324" lon="9.52813411774605"><ele>209.0</ele><time>2026-05-02T14:20:21.001Z</time></trkpt><trkpt lat="40.022657042040656" lon="9.528118491070291"><ele>209.0</ele><time>2026-05-02T14:20:22.001Z</time></trkpt><trkpt lat="40.02279727286383" lon="9.52807143705776"><ele>213.75</ele><time>2026-05-02T14:20:23.001Z</time></trkpt><trkpt lat="40.022974026894715" lon="9.52804394532683"><ele>218.5</ele><time>2026-05-02T14:20:24.001Z</time></trkpt><trkpt lat="40.02310917140853" lon="9.528078076689544"><ele>223.25</ele><time>2026-05-02T14:20:25.001Z</time></trkpt><trkpt lat="40.02323658745013" lon="9.528111135020506"><ele>228.0</ele><time>2026-05-02T14:20:26.001Z</time></trkpt><trkpt lat="40.023349261139884" lon="9.52814401505659"><ele>229.0</ele><time>2026-05-02T14:20:27.001Z</time></trkpt><trkpt lat="40.02343935274365" lon="9.528182161269976"><ele>230.0</ele><time>2026-05-02T14:20:28.001Z</time></trkpt><trkpt lat="40.02350210138945" lon="9.528249004201552"><ele>231.0</ele><time>2026-05-02T14:20:29.001Z</time></trkpt><trkpt lat="40.02353466684497" lon="9.528342466332404"><ele>232.0</ele><time>2026-05-02T14:20:30.001Z</time></trkpt><trkpt lat="40.02353638834997" lon="9.528448756006528"><ele>233.0</ele><time>2026-05-02T14:20:31.001Z</time></trkpt><trkpt lat="40.02345558173966" lon="9.52855647135313"><ele>233.0</ele><time>2026-05-02T14:20:32.001Z</time></trkpt><trkpt lat="40.023402967176914" lon="9.528711441310055"><ele>233.0</ele><time>2026-05-02T14:20:33.001Z</time></trkpt><trkpt lat="40.02335495677269" lon="9.528833791632316"><ele>233.0</ele><time>2026-05-02T14:20:34.001Z</time></trkpt><trkpt lat="40.02330992658267" lon="9.528948546793918"><ele>233.0</ele><time>2026-05-02T14:20:35.001Z</time></trkpt><trkpt lat="40.02332515722434" lon="9.529082143544723"><ele>233.0</ele><time>2026-05-02T14:20:36.001Z</time></trkpt><trkpt lat="40.02338108835956" lon="9.529192310316196"><ele>229.0</ele><time>2026-05-02T14:20:37.001Z</time></trkpt><trkpt lat="40.023485224704785" lon="9.529237258974835"><ele>225.0</ele><time>2026-05-02T14:20:38.001Z</time></trkpt><trkpt lat="40.023596553612215" lon="9.5292637234283"><ele>221.0</ele><time>2026-05-02T14:20:39.001Z</time></trkpt><trkpt lat="40.02373310203944" lon="9.529265819609666"><ele>217.0</ele><time>2026-05-02T14:20:40.001Z</time></trkpt><trkpt lat="40.02386310056414" lon="9.529313513256886"><ele>217.0</ele><time>2026-05-02T14:20:41.001Z</time></trkpt><trkpt lat="40.02396209664064" lon="9.529414814422593"><ele>217.0</ele><time>2026-05-02T14:20:42.001Z</time></trkpt><trkpt lat="40.024064368971665" lon="9.529507510992108"><ele>217.0</ele><time>2026-05-02T14:20:43.001Z</time></trkpt><trkpt lat="40.024179312624774" lon="9.529553553882748"><ele>217.0</ele><time>2026-05-02T14:20:44.001Z</time></trkpt><trkpt lat="40.02429041963638" lon="9.529567533822608"><ele>219.5</ele><time>2026-05-02T14:20:45.001Z</time></trkpt><trkpt lat="40.02440587899722" lon="9.529530708495187"><ele>222.0</ele><time>2026-05-02T14:20:46.001Z</time></trkpt><trkpt lat="40.02453026349672" lon="9.529452095561393"><ele>224.5</ele><time>2026-05-02T14:20:47.001Z</time></trkpt><trkpt lat="40.024636576601374" lon="9.52937460359889"><ele>227.0</ele><time>2026-05-02T14:20:48.001Z</time></trkpt><trkpt lat="40.0247282384631" lon="9.52933573286143"><ele>227.00000000000003</ele><time>2026-05-02T14:20:49.001Z</time></trkpt><trkpt lat="40.02481356168495" lon="9.529333366638278"><ele>227.0</ele><time>2026-05-02T14:20:50.001Z</time></trkpt><trkpt lat="40.02487420358708" lon="9.52937932399132"><ele>227.0</ele><time>2026-05-02T14:20:51.001Z</time></trkpt><trkpt lat="40.024887739820954" lon="9.529475013001528"><ele>227.0</ele><time>2026-05-02T14:20:52.001Z</time></trkpt><trkpt lat="40.024849544396936" lon="9.529625315738933"><ele>227.00000000000003</ele><time>2026-05-02T14:20:54.001Z</time></trkpt><trkpt lat="40.02477004774567" lon="9.529670563621066"><ele>227.0</ele><time>2026-05-02T14:20:55.001Z</time></trkpt><trkpt lat="40.024672506065066" lon="9.529719349590598"><ele>220.0</ele><time>2026-05-02T14:20:56.001Z</time></trkpt><trkpt lat="40.02455114259351" lon="9.529762227702758"><ele>213.0</ele><time>2026-05-02T14:20:57.001Z</time></trkpt><trkpt lat="40.02441261442647" lon="9.529812172707615"><ele>206.0</ele><time>2026-05-02T14:20:58.001Z</time></trkpt><trkpt lat="40.02426902972972" lon="9.52986343993082"><ele>199.0</ele><time>2026-05-02T14:20:59.001Z</time></trkpt><trkpt lat="40.024128903154875" lon="9.52989584600003"><ele>198.5</ele><time>2026-05-02T14:21:00.001Z</time></trkpt><trkpt lat="40.02398517839449" lon="9.52988535804881"><ele>198.0</ele><time>2026-05-02T14:21:01.001Z</time></trkpt><trkpt lat="40.02386088675057" lon="9.529861221066906"><ele>197.5</ele><time>2026-05-02T14:21:02.001Z</time></trkpt><trkpt lat="40.02374987764371" lon="9.529856288051269"><ele>197.0</ele><time>2026-05-02T14:21:03.001Z</time></trkpt><trkpt lat="40.02365151550019" lon="9.52989952341785"><ele>197.0</ele><time>2026-05-02T14:21:04.001Z</time></trkpt><trkpt lat="40.02357291442801" lon="9.529989300527994"><ele>197.0</ele><time>2026-05-02T14:21:05.001Z</time></trkpt><trkpt lat="40.023508193160744" lon="9.530128196931715"><ele>197.0</ele><time>2026-05-02T14:21:06.001Z</time></trkpt><trkpt lat="40.023415060689786" lon="9.530276260749995"><ele>197.0</ele><time>2026-05-02T14:21:07.001Z</time></trkpt><trkpt lat="40.02333599105218" lon="9.530431684585121"><ele>192.6</ele><time>2026-05-02T14:21:08.001Z</time></trkpt><trkpt lat="40.02326350524596" lon="9.530575074742158"><ele>188.2</ele><time>2026-05-02T14:21:09.001Z</time></trkpt><trkpt lat="40.02319728480997" lon="9.53069496143462"><ele>183.8</ele><time>2026-05-02T14:21:10.001Z</time></trkpt><trkpt lat="40.023153184062245" lon="9.530793021527288"><ele>179.4</ele><time>2026-05-02T14:21:11.001Z</time></trkpt><trkpt lat="40.023066885435526" lon="9.530812899612506"><ele>175.0</ele><time>2026-05-02T14:21:12.001Z</time></trkpt><trkpt lat="40.02297604740536" lon="9.530761441971352"><ele>175.0</ele><time>2026-05-02T14:21:13.001Z</time></trkpt><trkpt lat="40.022873971475875" lon="9.530667756242591"><ele>175.0</ele><time>2026-05-02T14:21:14.001Z</time></trkpt><trkpt lat="40.02277341279965" lon="9.530563782051004"><ele>175.0</ele><time>2026-05-02T14:21:15.001Z</time></trkpt><trkpt lat="40.022694769908725" lon="9.530456308742822"><ele>175.0</ele><time>2026-05-02T14:21:16.001Z</time></trkpt><trkpt lat="40.022648115773436" lon="9.53033064919123"><ele>176.8</ele><time>2026-05-02T14:21:17.001Z</time></trkpt><trkpt lat="40.02263489613982" lon="9.530178907408866"><ele>178.6</ele><time>2026-05-02T14:21:18.001Z</time></trkpt><trkpt lat="40.022639758724814" lon="9.53004351952006"><ele>180.39999999999998</ele><time>2026-05-02T14:21:19.001Z</time></trkpt><trkpt lat="40.02261282028398" lon="9.529938473264181"><ele>182.2</ele><time>2026-05-02T14:21:20.001Z</time></trkpt><trkpt lat="40.022557013537266" lon="9.529878823955139"><ele>184.0</ele><time>2026-05-02T14:21:21.001Z</time></trkpt><trkpt lat="40.0224835345697" lon="9.529872231652597"><ele>182.39999999999998</ele><time>2026-05-02T14:21:22.001Z</time></trkpt><trkpt lat="40.02239840122275" lon="9.529881988913417"><ele>180.8</ele><time>2026-05-02T14:21:23.002Z</time></trkpt><trkpt lat="40.022324906558445" lon="9.529987251257912"><ele>179.2</ele><time>2026-05-02T14:21:24.002Z</time></trkpt><trkpt lat="40.02227792421022" lon="9.530137673083397"><ele>177.60000000000002</ele><time>2026-05-02T14:21:25.002Z</time></trkpt><trkpt lat="40.02220245425593" lon="9.530274231750267"><ele>176.0</ele><time>2026-05-02T14:21:26.002Z</time></trkpt><trkpt lat="40.02215871778623" lon="9.530433872857904"><ele>174.75</ele><time>2026-05-02T14:21:27.002Z</time></trkpt><trkpt lat="40.022162350535716" lon="9.530603166840555"><ele>173.5</ele><time>2026-05-02T14:21:28.002Z</time></trkpt><trkpt lat="40.02217331820196" lon="9.530763345440574"><ele>172.25</ele><time>2026-05-02T14:21:29.002Z</time></trkpt><trkpt lat="40.02217537163955" lon="9.530913677647149"><ele>171.0</ele><time>2026-05-02T14:21:30.002Z</time></trkpt><trkpt lat="40.02215143052367" lon="9.53104878622041"><ele>171.0</ele><time>2026-05-02T14:21:31.002Z</time></trkpt><trkpt lat="40.022081831252116" lon="9.531160159085358"><ele>171.0</ele><time>2026-05-02T14:21:32.002Z</time></trkpt><trkpt lat="40.02198776053889" lon="9.5312667825338"><ele>171.0</ele><time>2026-05-02T14:21:33.002Z</time></trkpt><trkpt lat="40.02189197475221" lon="9.531373403049704"><ele>171.0</ele><time>2026-05-02T14:21:34.002Z</time></trkpt><trkpt lat="40.02181061932597" lon="9.53148414381798"><ele>170.0</ele><time>2026-05-02T14:21:35.002Z</time></trkpt><trkpt lat="40.0217135424041" lon="9.531562244027265"><ele>169.0</ele><time>2026-05-02T14:21:36.002Z</time></trkpt><trkpt lat="40.02159895693501" lon="9.531593411326877"><ele>168.0</ele><time>2026-05-02T14:21:37.002Z</time></trkpt><trkpt lat="40.02150481613678" lon="9.531648518568396"><ele>167.0</ele><time>2026-05-02T14:21:38.002Z</time></trkpt><trkpt lat="40.021423893772045" lon="9.531713626177988"><ele>166.0</ele><time>2026-05-02T14:21:39.001Z</time></trkpt><trkpt lat="40.02136891273397" lon="9.53182442116"><ele>163.4</ele><time>2026-05-02T14:21:40.001Z</time></trkpt><trkpt lat="40.02133852302513" lon="9.531957436731885"><ele>160.8</ele><time>2026-05-02T14:21:41.001Z</time></trkpt><trkpt lat="40.02134446680856" lon="9.532108919085033"><ele>158.20000000000002</ele><time>2026-05-02T14:21:42.001Z</time></trkpt><trkpt lat="40.02136203392706" lon="9.532245920815663"><ele>155.60000000000002</ele><time>2026-05-02T14:21:43.001Z</time></trkpt><trkpt lat="40.02138347281678" lon="9.5323795828098"><ele>153.0</ele><time>2026-05-02T14:21:44.001Z</time></trkpt><trkpt lat="40.021415499037786" lon="9.532508985313477"><ele>153.0</ele><time>2026-05-02T14:21:45.001Z</time></trkpt><trkpt lat="40.02145424907686" lon="9.532628565626199"><ele>153.0</ele><time>2026-05-02T14:21:46.001Z</time></trkpt><trkpt lat="40.02152633027005" lon="9.532726821145898"><ele>153.0</ele><time>2026-05-02T14:21:47.001Z</time></trkpt><trkpt lat="40.02161945558378" lon="9.532778539209938"><ele>153.0</ele><time>2026-05-02T14:21:48.001Z</time></trkpt><trkpt lat="40.02167733542187" lon="9.53286355084093"><ele>153.0</ele><time>2026-05-02T14:21:49.001Z</time></trkpt><trkpt lat="40.02173110442409" lon="9.532972838865298"><ele>153.0</ele><time>2026-05-02T14:21:51.001Z</time></trkpt><trkpt lat="40.02171175547109" lon="9.533090608211078"><ele>153.0</ele><time>2026-05-02T14:21:53.001Z</time></trkpt><trkpt lat="40.021612099282315" lon="9.533144404719739"><ele>153.0</ele><time>2026-05-02T14:21:55.001Z</time></trkpt><trkpt lat="40.02151227845198" lon="9.533073365918645"><ele>153.0</ele><time>2026-05-02T14:21:57.001Z</time></trkpt><trkpt lat="40.021469954905506" lon="9.532985946937844"><ele>153.0</ele><time>2026-05-02T14:21:58.001Z</time></trkpt><trkpt lat="40.02142701565421" lon="9.53286740928367"><ele>152.0</ele><time>2026-05-02T14:21:59.001Z</time></trkpt><trkpt lat="40.021387346767106" lon="9.53273559229625"><ele>151.0</ele><time>2026-05-02T14:22:00.001Z</time></trkpt><trkpt lat="40.021340576029516" lon="9.532590656426573"><ele>150.0</ele><time>2026-05-02T14:22:01.001Z</time></trkpt><trkpt lat="40.021280845070734" lon="9.532435644907226"><ele>149.0</ele><time>2026-05-02T14:22:02.001Z</time></trkpt><trkpt lat="40.021214538307866" lon="9.532266935134574"><ele>149.0</ele><time>2026-05-02T14:22:03.001Z</time></trkpt><trkpt lat="40.02114483964297" lon="9.532095213366397"><ele>149.0</ele><time>2026-05-02T14:22:04.001Z</time></trkpt><trkpt lat="40.02107922081236" lon="9.531925042868583"><ele>149.0</ele><time>2026-05-02T14:22:05.001Z</time></trkpt><trkpt lat="40.02101484265302" lon="9.53174807071328"><ele>149.0</ele><time>2026-05-02T14:22:06.001Z</time></trkpt><trkpt lat="40.02095606749224" lon="9.531567263394413"><ele>150.33333333333331</ele><time>2026-05-02T14:22:07.001Z</time></trkpt><trkpt lat="40.02091366434177" lon="9.531382650753397"><ele>151.66666666666666</ele><time>2026-05-02T14:22:08.001Z</time></trkpt><trkpt lat="40.020875719380115" lon="9.531206069144954"><ele>153.0</ele><time>2026-05-02T14:22:09.001Z</time></trkpt><trkpt lat="40.02092244394013" lon="9.530655054919942"><ele>153.75</ele><time>2026-05-02T14:22:10.001Z</time></trkpt><trkpt lat="40.020818763359" lon="9.530896583928554"><ele>154.5</ele><time>2026-05-02T14:22:11.001Z</time></trkpt><trkpt lat="40.020789168493344" lon="9.53076514501959"><ele>155.25</ele><time>2026-05-02T14:22:12.001Z</time></trkpt><trkpt lat="40.02074595378139" lon="9.530656069336118"><ele>156.0</ele><time>2026-05-02T14:22:13.001Z</time></trkpt><trkpt lat="40.02067748483919" lon="9.5305768683882"><ele>157.8</ele><time>2026-05-02T14:22:14.001Z</time></trkpt><trkpt lat="40.020595772596" lon="9.53054484486518"><ele>159.6</ele><time>2026-05-02T14:22:15.001Z</time></trkpt><trkpt lat="40.02050088400267" lon="9.53054129559145"><ele>161.4</ele><time>2026-05-02T14:22:16.001Z</time></trkpt><trkpt lat="40.020390625154164" lon="9.530545098273196"><ele>163.2</ele><time>2026-05-02T14:22:17.001Z</time></trkpt><trkpt lat="40.02028822997701" lon="9.530563406625978"><ele>165.0</ele><time>2026-05-02T14:22:18.001Z</time></trkpt><trkpt lat="40.020209902055726" lon="9.530623784512857"><ele>165.0</ele><time>2026-05-02T14:22:19.001Z</time></trkpt><trkpt lat="40.020157545858176" lon="9.530726019974487"><ele>165.0</ele><time>2026-05-02T14:22:20.001Z</time></trkpt><trkpt lat="40.02013481401373" lon="9.530859059919996"><ele>165.0</ele><time>2026-05-02T14:22:21.001Z</time></trkpt><trkpt lat="40.020135439499555" lon="9.531029078937353"><ele>165.0</ele><time>2026-05-02T14:22:22.001Z</time></trkpt><trkpt lat="40.02013592374872" lon="9.531215826224921"><ele>164.33333333333334</ele><time>2026-05-02T14:22:23.001Z</time></trkpt><trkpt lat="40.020117657097465" lon="9.53141246237552"><ele>163.66666666666669</ele><time>2026-05-02T14:22:24.001Z</time></trkpt><trkpt lat="40.02010814907835" lon="9.531633321839179"><ele>163.0</ele><time>2026-05-02T14:22:25.001Z</time></trkpt><trkpt lat="40.02009699324279" lon="9.53187772781569"><ele>161.66666666666669</ele><time>2026-05-02T14:22:26.001Z</time></trkpt><trkpt lat="40.020085391150964" lon="9.53213191054683"><ele>160.33333333333334</ele><time>2026-05-02T14:22:27.001Z</time></trkpt><trkpt lat="40.02007326489912" lon="9.532397576749052"><ele>159.0</ele><time>2026-05-02T14:22:28.001Z</time></trkpt><trkpt lat="40.02006034579309" lon="9.532658167129286"><ele>159.0</ele><time>2026-05-02T14:22:29.001Z</time></trkpt><trkpt lat="40.020047513789876" lon="9.53291259083548"><ele>159.0</ele><time>2026-05-02T14:22:30.001Z</time></trkpt><trkpt lat="40.02003614880263" lon="9.53313792760259"><ele>159.0</ele><time>2026-05-02T14:22:31.001Z</time></trkpt><trkpt lat="40.02002330466286" lon="9.533351654779194"><ele>159.0</ele><time>2026-05-02T14:22:32.001Z</time></trkpt><trkpt lat="40.0199901420981" lon="9.533558698854467"><ele>159.0</ele><time>2026-05-02T14:22:33.001Z</time></trkpt><trkpt lat="40.019942202462495" lon="9.533773011155457"><ele>159.0</ele><time>2026-05-02T14:22:34.001Z</time></trkpt><trkpt lat="40.01987423426814" lon="9.533974531580808"><ele>163.33333333333334</ele><time>2026-05-02T14:22:35.001Z</time></trkpt><trkpt lat="40.019798989114484" lon="9.53417656438015"><ele>167.66666666666669</ele><time>2026-05-02T14:22:36.001Z</time></trkpt><trkpt lat="40.01970242004854" lon="9.534372665351802"><ele>172.0</ele><time>2026-05-02T14:22:37.001Z</time></trkpt><trkpt lat="40.01958930506037" lon="9.534562229665067"><ele>172.0</ele><time>2026-05-02T14:22:38.001Z</time></trkpt><trkpt lat="40.01946732482323" lon="9.534718860085496"><ele>172.0</ele><time>2026-05-02T14:22:39.001Z</time></trkpt><trkpt lat="40.01936514756678" lon="9.534882207055052"><ele>172.0</ele><time>2026-05-02T14:22:40.001Z</time></trkpt><trkpt lat="40.01927426805485" lon="9.535027492677733"><ele>172.0</ele><time>2026-05-02T14:22:41.001Z</time></trkpt><trkpt lat="40.019202965777396" lon="9.535177777760467"><ele>172.0</ele><time>2026-05-02T14:22:42.001Z</time></trkpt><trkpt lat="40.01911200360909" lon="9.53528174069397"><ele>172.0</ele><time>2026-05-02T14:22:43.001Z</time></trkpt><trkpt lat="40.019012198439086" lon="9.535351005689542"><ele>172.0</ele><time>2026-05-02T14:22:44.001Z</time></trkpt><trkpt lat="40.01890528982407" lon="9.535373903569802"><ele>171.2</ele><time>2026-05-02T14:22:45.001Z</time></trkpt><trkpt lat="40.01879529070083" lon="9.535351300198311"><ele>170.39999999999998</ele><time>2026-05-02T14:22:46.001Z</time></trkpt><trkpt lat="40.018697855822566" lon="9.535315867505384"><ele>169.60000000000002</ele><time>2026-05-02T14:22:47.001Z</time></trkpt><trkpt lat="40.01859881844965" lon="9.53527848270191"><ele>168.8</ele><time>2026-05-02T14:22:48.001Z</time></trkpt><trkpt lat="40.01849902445818" lon="9.535309887291016"><ele>168.0</ele><time>2026-05-02T14:22:49.001Z</time></trkpt><trkpt lat="40.01841270113312" lon="9.535406971631609"><ele>168.0</ele><time>2026-05-02T14:22:50.001Z</time></trkpt><trkpt lat="40.01835041179135" lon="9.535516484215645"><ele>168.0</ele><time>2026-05-02T14:22:51.001Z</time></trkpt><trkpt lat="40.01831951691824" lon="9.535689186602507"><ele>168.0</ele><time>2026-05-02T14:22:52.001Z</time></trkpt><trkpt lat="40.01825896654567" lon="9.535812536211088"><ele>168.0</ele><time>2026-05-02T14:22:53.001Z</time></trkpt><trkpt lat="40.0181706664467" lon="9.535875314802201"><ele>172.75</ele><time>2026-05-02T14:22:54.001Z</time></trkpt><trkpt lat="40.01806476865356" lon="9.535912954729628"><ele>177.5</ele><time>2026-05-02T14:22:55.001Z</time></trkpt><trkpt lat="40.01793385939695" lon="9.535939883741706"><ele>182.25</ele><time>2026-05-02T14:22:56.001Z</time></trkpt><trkpt lat="40.01779387354135" lon="9.535975168901679"><ele>187.0</ele><time>2026-05-02T14:22:57.001Z</time></trkpt><trkpt lat="40.01764343708662" lon="9.536006730516169"><ele>187.0</ele><time>2026-05-02T14:22:58.001Z</time></trkpt><trkpt lat="40.0174962080833" lon="9.536090745803135"><ele>187.0</ele><time>2026-05-02T14:22:59.001Z</time></trkpt><trkpt lat="40.017359827155396" lon="9.53621006845724"><ele>187.0</ele><time>2026-05-02T14:23:00.001Z</time></trkpt><trkpt lat="40.0172125483672" lon="9.536313038544858"><ele>188.0</ele><time>2026-05-02T14:23:01.001Z</time></trkpt><trkpt lat="40.017056216418375" lon="9.536408268726044"><ele>189.0</ele><time>2026-05-02T14:23:02.001Z</time></trkpt><trkpt lat="40.01691998266566" lon="9.536562208210244"><ele>190.0</ele><time>2026-05-02T14:23:03.001Z</time></trkpt><trkpt lat="40.016812417335174" lon="9.536728014679143"><ele>190.0</ele><time>2026-05-02T14:23:04.001Z</time></trkpt><trkpt lat="40.01671051299421" lon="9.53688518000696"><ele>190.0</ele><time>2026-05-02T14:23:05.001Z</time></trkpt><trkpt lat="40.01661243062723" lon="9.537020282957753"><ele>190.0</ele><time>2026-05-02T14:23:06.001Z</time></trkpt><trkpt lat="40.016492579623076" lon="9.537099089207981"><ele>190.0</ele><time>2026-05-02T14:23:07.001Z</time></trkpt><trkpt lat="40.01637420559543" lon="9.537133809668292"><ele>189.25</ele><time>2026-05-02T14:23:08.001Z</time></trkpt><trkpt lat="40.0162500500674" lon="9.537130762997931"><ele>188.5</ele><time>2026-05-02T14:23:09.001Z</time></trkpt><trkpt lat="40.01611987263432" lon="9.53709018921237"><ele>187.75</ele><time>2026-05-02T14:23:10.001Z</time></trkpt><trkpt lat="40.015991046049116" lon="9.537023406378275"><ele>187.0</ele><time>2026-05-02T14:23:11.001Z</time></trkpt><trkpt lat="40.01586383584617" lon="9.536925450991852"><ele>183.33333333333334</ele><time>2026-05-02T14:23:12.001Z</time></trkpt><trkpt lat="40.015736600662635" lon="9.536805284873983"><ele>179.66666666666666</ele><time>2026-05-02T14:23:13.001Z</time></trkpt><trkpt lat="40.015605826916726" lon="9.536685600156725"><ele>176.0</ele><time>2026-05-02T14:23:14.001Z</time></trkpt><trkpt lat="40.015470425375604" lon="9.536582325383772"><ele>176.0</ele><time>2026-05-02T14:23:15.001Z</time></trkpt><trkpt lat="40.015343764955915" lon="9.536490846307712"><ele>176.0</ele><time>2026-05-02T14:23:16.001Z</time></trkpt><trkpt lat="40.01521875401563" lon="9.536415557370011"><ele>176.0</ele><time>2026-05-02T14:23:17.001Z</time></trkpt><trkpt lat="40.01511143728764" lon="9.536366110273546"><ele>176.0</ele><time>2026-05-02T14:23:18.001Z</time></trkpt><trkpt lat="40.014990046765334" lon="9.536308178722988"><ele>174.25</ele><time>2026-05-02T14:23:19.001Z</time></trkpt><trkpt lat="40.014843283237276" lon="9.536337609759826"><ele>172.5</ele><time>2026-05-02T14:23:20.001Z</time></trkpt><trkpt lat="40.014715523151075" lon="9.536383575221645"><ele>170.75</ele><time>2026-05-02T14:23:21.001Z</time></trkpt><trkpt lat="40.01459482276933" lon="9.536418729443268"><ele>169.0</ele><time>2026-05-02T14:23:22.001Z</time></trkpt><trkpt lat="40.01447674399628" lon="9.53640414395293"><ele>169.0</ele><time>2026-05-02T14:23:23.001Z</time></trkpt><trkpt lat="40.01435645120482" lon="9.53638673223916"><ele>169.0</ele><time>2026-05-02T14:23:24.001Z</time></trkpt><trkpt lat="40.0142474960004" lon="9.536308505005781"><ele>169.0</ele><time>2026-05-02T14:23:25.001Z</time></trkpt><trkpt lat="40.0141736883157" lon="9.536201127985418"><ele>169.0</ele><time>2026-05-02T14:23:26.001Z</time></trkpt><trkpt lat="40.014181221926044" lon="9.536060553298338"><ele>170.16666666666669</ele><time>2026-05-02T14:23:27.001Z</time></trkpt><trkpt lat="40.0141951998566" lon="9.535962981450426"><ele>171.33333333333334</ele><time>2026-05-02T14:23:28.001Z</time></trkpt><trkpt lat="40.014247523230694" lon="9.535855855367268"><ele>172.5</ele><time>2026-05-02T14:23:29.001Z</time></trkpt><trkpt lat="40.01429210348476" lon="9.535734757293948"><ele>173.66666666666666</ele><time>2026-05-02T14:23:30.001Z</time></trkpt><trkpt lat="40.01431682456399" lon="9.535640171250341"><ele>174.83333333333331</ele><time>2026-05-02T14:23:31.001Z</time></trkpt><trkpt lat="40.014307519109884" lon="9.53555500775371"><ele>176.0</ele><time>2026-05-02T14:23:32.001Z</time></trkpt><trkpt lat="40.01427423245574" lon="9.535474545607629"><ele>176.0</ele><time>2026-05-02T14:23:33.001Z</time></trkpt><trkpt lat="40.01419821074845" lon="9.535401367900533"><ele>176.0</ele><time>2026-05-02T14:23:34.001Z</time></trkpt><trkpt lat="40.01407435661348" lon="9.535462119017007"><ele>176.0</ele><time>2026-05-02T14:23:35.001Z</time></trkpt><trkpt lat="40.013967155526714" lon="9.535520538203299"><ele>176.0</ele><time>2026-05-02T14:23:36.001Z</time></trkpt><trkpt lat="40.013862918184344" lon="9.535590767171621"><ele>176.0</ele><time>2026-05-02T14:23:37.001Z</time></trkpt><trkpt lat="40.013737043067" lon="9.535674717829487"><ele>176.0</ele><time>2026-05-02T14:23:38.002Z</time></trkpt><trkpt lat="40.01358180801583" lon="9.535739607988221"><ele>176.0</ele><time>2026-05-02T14:23:39.002Z</time></trkpt><trkpt lat="40.013460569659955" lon="9.535861439822972"><ele>176.0</ele><time>2026-05-02T14:23:40.002Z</time></trkpt><trkpt lat="40.01335235256978" lon="9.53598015672664"><ele>176.0</ele><time>2026-05-02T14:23:41.002Z</time></trkpt><trkpt lat="40.013260970265954" lon="9.536132803540776"><ele>176.0</ele><time>2026-05-02T14:23:42.002Z</time></trkpt><trkpt lat="40.013187203383545" lon="9.536267837812822"><ele>176.0</ele><time>2026-05-02T14:23:43.002Z</time></trkpt><trkpt lat="40.01310908829359" lon="9.536365406472045"><ele>172.0</ele><time>2026-05-02T14:23:44.001Z</time></trkpt><trkpt lat="40.01302006697749" lon="9.53643347135751"><ele>168.0</ele><time>2026-05-02T14:23:45.001Z</time></trkpt><trkpt lat="40.01290641673936" lon="9.536443282806175"><ele>164.0</ele><time>2026-05-02T14:23:46.001Z</time></trkpt><trkpt lat="40.012789044967455" lon="9.536400492128601"><ele>160.0</ele><time>2026-05-02T14:23:47.001Z</time></trkpt><trkpt lat="40.01267305812217" lon="9.536320958135676"><ele>160.0</ele><time>2026-05-02T14:23:48.001Z</time></trkpt><trkpt lat="40.012566732215454" lon="9.536221669095198"><ele>160.0</ele><time>2026-05-02T14:23:49.001Z</time></trkpt><trkpt lat="40.01247427058333" lon="9.536128669454987"><ele>160.0</ele><time>2026-05-02T14:23:50.001Z</time></trkpt><trkpt lat="40.012362227504035" lon="9.53609878737461"><ele>160.0</ele><time>2026-05-02T14:23:51.001Z</time></trkpt><trkpt lat="40.012233653778125" lon="9.536130870734361"><ele>159.75</ele><time>2026-05-02T14:23:52.001Z</time></trkpt><trkpt lat="40.01209518087301" lon="9.536174962835814"><ele>159.5</ele><time>2026-05-02T14:23:53.001Z</time></trkpt><trkpt lat="40.01195595367699" lon="9.536219889501623"><ele>159.25</ele><time>2026-05-02T14:23:54.001Z</time></trkpt><trkpt lat="40.01184245774464" lon="9.536264339018553"><ele>159.0</ele><time>2026-05-02T14:23:55.001Z</time></trkpt><trkpt lat="40.011755693366375" lon="9.536309308226938"><ele>159.0</ele><time>2026-05-02T14:23:56.001Z</time></trkpt><trkpt lat="40.01168244994326" lon="9.536379587365024"><ele>159.0</ele><time>2026-05-02T14:23:57.001Z</time></trkpt><trkpt lat="40.01161975421904" lon="9.53652224204913"><ele>159.0</ele><time>2026-05-02T14:23:58.001Z</time></trkpt><trkpt lat="40.01160650488973" lon="9.536678636850557"><ele>159.0</ele><time>2026-05-02T14:23:59.001Z</time></trkpt><trkpt lat="40.01159957892196" lon="9.536929863665817"><ele>162.5</ele><time>2026-05-02T14:24:00.001Z</time></trkpt><trkpt lat="40.01167556454011" lon="9.53711401951469"><ele>166.0</ele><time>2026-05-02T14:24:01.001Z</time></trkpt><trkpt lat="40.011793443758364" lon="9.53724863124241"><ele>169.5</ele><time>2026-05-02T14:24:02.001Z</time></trkpt><trkpt lat="40.01172129547796" lon="9.537232480066349"><ele>173.0</ele><time>2026-05-02T14:24:03.001Z</time></trkpt><trkpt lat="40.01182748823541" lon="9.537292783082913"><ele>173.0</ele><time>2026-05-02T14:24:04.001Z</time></trkpt><trkpt lat="40.01195180182857" lon="9.537363793306312"><ele>173.0</ele><time>2026-05-02T14:24:05.001Z</time></trkpt><trkpt lat="40.01212180642816" lon="9.537369195026981"><ele>173.0</ele><time>2026-05-02T14:24:06.001Z</time></trkpt><trkpt lat="40.012265822920746" lon="9.537402902804658"><ele>173.0</ele><time>2026-05-02T14:24:07.001Z</time></trkpt><trkpt lat="40.01239603015489" lon="9.537445772889672"><ele>173.0</ele><time>2026-05-02T14:24:08.001Z</time></trkpt><trkpt lat="40.012515876142345" lon="9.537497412127502"><ele>173.0</ele><time>2026-05-02T14:24:09.001Z</time></trkpt><trkpt lat="40.01262797860792" lon="9.537566612647264"><ele>173.0</ele><time>2026-05-02T14:24:10.001Z</time></trkpt><trkpt lat="40.01271733160167" lon="9.537682938701954"><ele>170.25</ele><time>2026-05-02T14:24:11.001Z</time></trkpt><trkpt lat="40.01279890238389" lon="9.537814852338293"><ele>167.5</ele><time>2026-05-02T14:24:12.001Z</time></trkpt><trkpt lat="40.012860407169605" lon="9.537985843973031"><ele>164.75</ele><time>2026-05-02T14:24:13.001Z</time></trkpt><trkpt lat="40.01293935537096" lon="9.538177269715405"><ele>162.0</ele><time>2026-05-02T14:24:14.001Z</time></trkpt><trkpt lat="40.01302594265064" lon="9.538340912163548"><ele>162.0</ele><time>2026-05-02T14:24:15.001Z</time></trkpt><trkpt lat="40.01310476473197" lon="9.538482347294652"><ele>162.0</ele><time>2026-05-02T14:24:16.001Z</time></trkpt><trkpt lat="40.01320744027401" lon="9.538581942028852"><ele>162.0</ele><time>2026-05-02T14:24:17.001Z</time></trkpt><trkpt lat="40.013346403433715" lon="9.538645320341185"><ele>162.0</ele><time>2026-05-02T14:24:18.001Z</time></trkpt><trkpt lat="40.013507748858395" lon="9.538679056591562"><ele>159.0</ele><time>2026-05-02T14:24:19.001Z</time></trkpt><trkpt lat="40.013679662649494" lon="9.538698593163813"><ele>156.0</ele><time>2026-05-02T14:24:20.001Z</time></trkpt><trkpt lat="40.01386687583564" lon="9.538720644150489"><ele>153.0</ele><time>2026-05-02T14:24:21.001Z</time></trkpt><trkpt lat="40.01406474352934" lon="9.538759214217327"><ele>158.33333333333334</ele><time>2026-05-02T14:24:22.001Z</time></trkpt><trkpt lat="40.01425960073649" lon="9.538797693760756"><ele>163.66666666666669</ele><time>2026-05-02T14:24:23.001Z</time></trkpt><trkpt lat="40.01443055580579" lon="9.53883190795262"><ele>169.0</ele><time>2026-05-02T14:24:24.001Z</time></trkpt><trkpt lat="40.014586597356356" lon="9.538864603450964"><ele>169.0</ele><time>2026-05-02T14:24:25.001Z</time></trkpt><trkpt lat="40.0147388263846" lon="9.53891189606208"><ele>169.0</ele><time>2026-05-02T14:24:26.001Z</time></trkpt><trkpt lat="40.014864832400065" lon="9.539015713339731"><ele>169.0</ele><time>2026-05-02T14:24:27.001Z</time></trkpt><trkpt lat="40.014983898795656" lon="9.539109764119175"><ele>169.0</ele><time>2026-05-02T14:24:28.001Z</time></trkpt><trkpt lat="40.015083018668456" lon="9.539206105826688"><ele>167.39999999999998</ele><time>2026-05-02T14:24:29.001Z</time></trkpt><trkpt lat="40.01514339495084" lon="9.539313110546901"><ele>165.8</ele><time>2026-05-02T14:24:30.001Z</time></trkpt><trkpt lat="40.015169545048266" lon="9.539428771152785"><ele>164.2</ele><time>2026-05-02T14:24:31.001Z</time></trkpt><trkpt lat="40.01515591939002" lon="9.539545279834913"><ele>162.60000000000002</ele><time>2026-05-02T14:24:32.001Z</time></trkpt><trkpt lat="40.015141438032416" lon="9.539701130969787"><ele>161.0</ele><time>2026-05-02T14:24:33.001Z</time></trkpt><trkpt lat="40.01511932384144" lon="9.539875171102736"><ele>161.0</ele><time>2026-05-02T14:24:34.001Z</time></trkpt><trkpt lat="40.0150751432931" lon="9.540027784393244"><ele>161.0</ele><time>2026-05-02T14:24:35.001Z</time></trkpt><trkpt lat="40.01501527532387" lon="9.540137348899195"><ele>161.0</ele><time>2026-05-02T14:24:36.001Z</time></trkpt><trkpt lat="40.014945117816566" lon="9.540264763401385"><ele>161.0</ele><time>2026-05-02T14:24:37.001Z</time></trkpt><trkpt lat="40.014881186038366" lon="9.540416147079847"><ele>170.0</ele><time>2026-05-02T14:24:38.001Z</time></trkpt><trkpt lat="40.01483097614934" lon="9.54058535787513"><ele>179.0</ele><time>2026-05-02T14:24:39.001Z</time></trkpt><trkpt lat="40.01478294830369" lon="9.540764713804236"><ele>188.0</ele><time>2026-05-02T14:24:40.001Z</time></trkpt><trkpt lat="40.01475197981495" lon="9.540926537130087"><ele>197.0</ele><time>2026-05-02T14:24:41.001Z</time></trkpt><trkpt lat="40.014757122565435" lon="9.541083595914229"><ele>197.75</ele><time>2026-05-02T14:24:42.001Z</time></trkpt><trkpt lat="40.014810042697235" lon="9.54123905961898"><ele>198.5</ele><time>2026-05-02T14:24:43.001Z</time></trkpt><trkpt lat="40.014881405802555" lon="9.541400028056321"><ele>199.25</ele><time>2026-05-02T14:24:44.001Z</time></trkpt><trkpt lat="40.01497111453458" lon="9.54156881308278"><ele>200.0</ele><time>2026-05-02T14:24:45.001Z</time></trkpt><trkpt lat="40.015047477737745" lon="9.54177014340311"><ele>186.66666666666669</ele><time>2026-05-02T14:24:46.001Z</time></trkpt><trkpt lat="40.015104942437766" lon="9.541997593957033"><ele>173.33333333333334</ele><time>2026-05-02T14:24:47.001Z</time></trkpt><trkpt lat="40.01512520035788" lon="9.542232285036114"><ele>160.0</ele><time>2026-05-02T14:24:48.001Z</time></trkpt><trkpt lat="40.01514866445263" lon="9.542429616436127"><ele>160.0</ele><time>2026-05-02T14:24:49.001Z</time></trkpt><trkpt lat="40.01515127790365" lon="9.542614597520615"><ele>160.0</ele><time>2026-05-02T14:24:50.001Z</time></trkpt><trkpt lat="40.01513146600736" lon="9.542793870549218"><ele>160.0</ele><time>2026-05-02T14:24:51.001Z</time></trkpt><trkpt lat="40.01509571763561" lon="9.542982474542331"><ele>160.0</ele><time>2026-05-02T14:24:52.001Z</time></trkpt><trkpt lat="40.014993182809924" lon="9.54313453769349"><ele>169.0</ele><time>2026-05-02T14:24:53.001Z</time></trkpt><trkpt lat="40.014885274795745" lon="9.54330619908054"><ele>178.0</ele><time>2026-05-02T14:24:54.001Z</time></trkpt><trkpt lat="40.01477480766582" lon="9.543507035375185"><ele>187.0</ele><time>2026-05-02T14:24:55.001Z</time></trkpt><trkpt lat="40.014661153318336" lon="9.543649432623475"><ele>181.75</ele><time>2026-05-02T14:24:56.001Z</time></trkpt><trkpt lat="40.014575642748596" lon="9.543793599526547"><ele>176.5</ele><time>2026-05-02T14:24:57.001Z</time></trkpt><trkpt lat="40.014532599105095" lon="9.543961287223302"><ele>171.25</ele><time>2026-05-02T14:24:58.001Z</time></trkpt><trkpt lat="40.014549007025145" lon="9.54414565499697"><ele>166.0</ele><time>2026-05-02T14:24:59.001Z</time></trkpt><trkpt lat="40.014540722305185" lon="9.544336902707691"><ele>166.0</ele><time>2026-05-02T14:25:00.001Z</time></trkpt><trkpt lat="40.014550408941446" lon="9.54449436681326"><ele>166.0</ele><time>2026-05-02T14:25:01.001Z</time></trkpt><trkpt lat="40.0145215086145" lon="9.544608080868622"><ele>166.0</ele><time>2026-05-02T14:25:02.001Z</time></trkpt><trkpt lat="40.01446120404705" lon="9.544690427489623"><ele>166.0</ele><time>2026-05-02T14:25:03.001Z</time></trkpt><trkpt lat="40.014383835305374" lon="9.5447322325735"><ele>166.0</ele><time>2026-05-02T14:25:04.001Z</time></trkpt><trkpt lat="40.01428151297299" lon="9.544710015193871"><ele>163.25</ele><time>2026-05-02T14:25:05.001Z</time></trkpt><trkpt lat="40.01415606635206" lon="9.544721753672471"><ele>160.5</ele><time>2026-05-02T14:25:06.001Z</time></trkpt><trkpt lat="40.01402418726723" lon="9.544754872072245"><ele>157.75</ele><time>2026-05-02T14:25:07.001Z</time></trkpt><trkpt lat="40.01389127956165" lon="9.54485775443528"><ele>155.0</ele><time>2026-05-02T14:25:08.001Z</time></trkpt><trkpt lat="40.01373576526943" lon="9.544951130022685"><ele>155.0</ele><time>2026-05-02T14:25:09.001Z</time></trkpt><trkpt lat="40.01357087890265" lon="9.545072510061686"><ele>155.0</ele><time>2026-05-02T14:25:10.001Z</time></trkpt><trkpt lat="40.01339415102124" lon="9.545181915365324"><ele>155.0</ele><time>2026-05-02T14:25:11.001Z</time></trkpt><trkpt lat="40.01320669627306" lon="9.545290503626875"><ele>152.0</ele><time>2026-05-02T14:25:12.001Z</time></trkpt><trkpt lat="40.013005663860476" lon="9.545406957118026"><ele>149.0</ele><time>2026-05-02T14:25:13.001Z</time></trkpt><trkpt lat="40.01279952189567" lon="9.545526370456184"><ele>146.0</ele><time>2026-05-02T14:25:14.001Z</time></trkpt><trkpt lat="40.01261109704934" lon="9.545635520619195"><ele>147.66666666666666</ele><time>2026-05-02T14:25:15.001Z</time></trkpt><trkpt lat="40.01243625539432" lon="9.545759930122232"><ele>149.33333333333334</ele><time>2026-05-02T14:25:16.001Z</time></trkpt><trkpt lat="40.012259122373386" lon="9.545848452405686"><ele>151.0</ele><time>2026-05-02T14:25:17.001Z</time></trkpt><trkpt lat="40.01210728634436" lon="9.545971031447388"><ele>151.0</ele><time>2026-05-02T14:25:18.001Z</time></trkpt><trkpt lat="40.011970303832456" lon="9.54608874799418"><ele>151.0</ele><time>2026-05-02T14:25:19.001Z</time></trkpt><trkpt lat="40.011842492739774" lon="9.546171364913672"><ele>151.0</ele><time>2026-05-02T14:25:20.001Z</time></trkpt><trkpt lat="40.01170653773212" lon="9.546234707145256"><ele>148.5</ele><time>2026-05-02T14:25:21.001Z</time></trkpt><trkpt lat="40.01156023605837" lon="9.546245936209765"><ele>146.0</ele><time>2026-05-02T14:25:22.001Z</time></trkpt><trkpt lat="40.01141526483196" lon="9.546232090298151"><ele>143.5</ele><time>2026-05-02T14:25:23.001Z</time></trkpt><trkpt lat="40.01128419205725" lon="9.546270502353703"><ele>141.0</ele><time>2026-05-02T14:25:24.001Z</time></trkpt><trkpt lat="40.0111577449927" lon="9.546367200872405"><ele>141.0</ele><time>2026-05-02T14:25:25.001Z</time></trkpt><trkpt lat="40.011041447314064" lon="9.546480171838983"><ele>141.0</ele><time>2026-05-02T14:25:26.001Z</time></trkpt><trkpt lat="40.010924791260905" lon="9.546600518951939"><ele>141.0</ele><time>2026-05-02T14:25:27.001Z</time></trkpt><trkpt lat="40.01080594739203" lon="9.546723306385255"><ele>141.0</ele><time>2026-05-02T14:25:28.001Z</time></trkpt><trkpt lat="40.010679608462" lon="9.546853560523573"><ele>141.0</ele><time>2026-05-02T14:25:29.001Z</time></trkpt><trkpt lat="40.01055886635742" lon="9.546979020999805"><ele>141.0</ele><time>2026-05-02T14:25:30.001Z</time></trkpt><trkpt lat="40.0104437667193" lon="9.547100180191558"><ele>141.0</ele><time>2026-05-02T14:25:31.001Z</time></trkpt><trkpt lat="40.010330002718895" lon="9.54723729678101"><ele>141.0</ele><time>2026-05-02T14:25:32.001Z</time></trkpt><trkpt lat="40.010225923036565" lon="9.54739602012018"><ele>141.0</ele><time>2026-05-02T14:25:33.001Z</time></trkpt><trkpt lat="40.01013175594217" lon="9.547573443433008"><ele>141.0</ele><time>2026-05-02T14:25:34.001Z</time></trkpt><trkpt lat="40.01004267586156" lon="9.547757079536533"><ele>144.66666666666666</ele><time>2026-05-02T14:25:35.001Z</time></trkpt><trkpt lat="40.009947183941414" lon="9.54795393363726"><ele>148.33333333333331</ele><time>2026-05-02T14:25:36.001Z</time></trkpt><trkpt lat="40.00985287548761" lon="9.548142762007831"><ele>152.0</ele><time>2026-05-02T14:25:37.001Z</time></trkpt><trkpt lat="40.00975714998609" lon="9.548333813544849"><ele>152.0</ele><time>2026-05-02T14:25:38.001Z</time></trkpt><trkpt lat="40.009660697862344" lon="9.548534808835063"><ele>152.0</ele><time>2026-05-02T14:25:39.001Z</time></trkpt><trkpt lat="40.009573932834385" lon="9.548742107422374"><ele>152.0</ele><time>2026-05-02T14:25:40.001Z</time></trkpt><trkpt lat="40.0094909356947" lon="9.548951976258307"><ele>148.66666666666666</ele><time>2026-05-02T14:25:41.001Z</time></trkpt><trkpt lat="40.009418926989504" lon="9.549152512881289"><ele>145.33333333333334</ele><time>2026-05-02T14:25:42.001Z</time></trkpt><trkpt lat="40.00935055643048" lon="9.54934603653887"><ele>142.0</ele><time>2026-05-02T14:25:43.001Z</time></trkpt><trkpt lat="40.009285091995764" lon="9.54953239124202"><ele>141.5</ele><time>2026-05-02T14:25:44.001Z</time></trkpt><trkpt lat="40.00922562258961" lon="9.549702099708009"><ele>141.0</ele><time>2026-05-02T14:25:45.001Z</time></trkpt><trkpt lat="40.00916698517916" lon="9.54986943402663"><ele>140.5</ele><time>2026-05-02T14:25:46.001Z</time></trkpt><trkpt lat="40.00911314061594" lon="9.550023091142705"><ele>140.0</ele><time>2026-05-02T14:25:47.001Z</time></trkpt><trkpt lat="40.009062230204776" lon="9.550166282640845"><ele>140.0</ele><time>2026-05-02T14:25:48.001Z</time></trkpt><trkpt lat="40.009008477312854" lon="9.550294348211656"><ele>140.0</ele><time>2026-05-02T14:25:49.001Z</time></trkpt><trkpt lat="40.008894483200365" lon="9.550431746875002"><ele>140.0</ele><time>2026-05-02T14:25:50.001Z</time></trkpt><trkpt lat="40.00879104890766" lon="9.550457347512678"><ele>140.0</ele><time>2026-05-02T14:25:51.001Z</time></trkpt><trkpt lat="40.00871372320343" lon="9.550489258728645"><ele>137.6</ele><time>2026-05-02T14:25:52.001Z</time></trkpt><trkpt lat="40.00860314269974" lon="9.55054927152626"><ele>135.2</ele><time>2026-05-02T14:25:53.001Z</time></trkpt><trkpt lat="40.0085128831555" lon="9.550629995887524"><ele>132.8</ele><time>2026-05-02T14:25:54.001Z</time></trkpt><trkpt lat="40.008471015667524" lon="9.5507672695925"><ele>130.4</ele><time>2026-05-02T14:25:55.001Z</time></trkpt><trkpt lat="40.008454410100896" lon="9.550896307313753"><ele>128.0</ele><time>2026-05-02T14:25:56.001Z</time></trkpt><trkpt lat="40.008488027829934" lon="9.551024022750168"><ele>128.0</ele><time>2026-05-02T14:25:57.001Z</time></trkpt><trkpt lat="40.00855323338092" lon="9.551132786752554"><ele>128.0</ele><time>2026-05-02T14:25:58.001Z</time></trkpt><trkpt lat="40.008659678932894" lon="9.551198635065406"><ele>128.0</ele><time>2026-05-02T14:25:59.001Z</time></trkpt><trkpt lat="40.008786935239925" lon="9.551261932607831"><ele>128.0</ele><time>2026-05-02T14:26:00.001Z</time></trkpt><trkpt lat="40.0089297590105" lon="9.551329094850079"><ele>125.75</ele><time>2026-05-02T14:26:01.001Z</time></trkpt><trkpt lat="40.009065986343465" lon="9.55140694406196"><ele>123.5</ele><time>2026-05-02T14:26:02.001Z</time></trkpt><trkpt lat="40.00918494581644" lon="9.551493048069728"><ele>121.25</ele><time>2026-05-02T14:26:03.001Z</time></trkpt><trkpt lat="40.00927232223505" lon="9.551607608263367"><ele>119.0</ele><time>2026-05-02T14:26:04.001Z</time></trkpt><trkpt lat="40.00929611725928" lon="9.551758578284621"><ele>119.0</ele><time>2026-05-02T14:26:05.001Z</time></trkpt><trkpt lat="40.009306644206454" lon="9.551922755702545"><ele>119.0</ele><time>2026-05-02T14:26:06.001Z</time></trkpt><trkpt lat="40.00932183839609" lon="9.5521145164884"><ele>119.0</ele><time>2026-05-02T14:26:07.001Z</time></trkpt><trkpt lat="40.00935407811024" lon="9.552324706736888"><ele>119.0</ele><time>2026-05-02T14:26:08.001Z</time></trkpt><trkpt lat="40.00936976928697" lon="9.55253363601781"><ele>118.75</ele><time>2026-05-02T14:26:09.001Z</time></trkpt><trkpt lat="40.009375655091034" lon="9.55272764112437"><ele>118.5</ele><time>2026-05-02T14:26:10.001Z</time></trkpt><trkpt lat="40.009333552896905" lon="9.552900479636012"><ele>118.25</ele><time>2026-05-02T14:26:11.001Z</time></trkpt><trkpt lat="40.0092738178001" lon="9.553079243695752"><ele>118.0</ele><time>2026-05-02T14:26:12.001Z</time></trkpt><trkpt lat="40.0092020689453" lon="9.553280063022838"><ele>119.0</ele><time>2026-05-02T14:26:13.001Z</time></trkpt><trkpt lat="40.00912672890583" lon="9.553497111461205"><ele>120.0</ele><time>2026-05-02T14:26:14.001Z</time></trkpt><trkpt lat="40.00904916337009" lon="9.553719766920223"><ele>121.0</ele><time>2026-05-02T14:26:15.001Z</time></trkpt><trkpt lat="40.008966979557485" lon="9.553955998070442"><ele>121.0</ele><time>2026-05-02T14:26:16.001Z</time></trkpt><trkpt lat="40.0088844187502" lon="9.554194826189033"><ele>121.0</ele><time>2026-05-02T14:26:17.001Z</time></trkpt><trkpt lat="40.008800167220336" lon="9.55443900099474"><ele>121.0</ele><time>2026-05-02T14:26:18.001Z</time></trkpt><trkpt lat="40.00871858878062" lon="9.554676539173768"><ele>119.66666666666667</ele><time>2026-05-02T14:26:19.001Z</time></trkpt><trkpt lat="40.00865498502649" lon="9.554911375843435"><ele>118.33333333333334</ele><time>2026-05-02T14:26:20.001Z</time></trkpt><trkpt lat="40.008565219994544" lon="9.555127792865395"><ele>117.0</ele><time>2026-05-02T14:26:21.001Z</time></trkpt><trkpt lat="40.00851328765858" lon="9.555372046227296"><ele>116.0</ele><time>2026-05-02T14:26:22.001Z</time></trkpt><trkpt lat="40.008484040286866" lon="9.555614787759087"><ele>115.0</ele><time>2026-05-02T14:26:23.001Z</time></trkpt><trkpt lat="40.008459525816654" lon="9.555854373326111"><ele>114.0</ele><time>2026-05-02T14:26:24.001Z</time></trkpt><trkpt lat="40.00843515248542" lon="9.556086924701292"><ele>113.0</ele><time>2026-05-02T14:26:25.001Z</time></trkpt><trkpt lat="40.00841308419378" lon="9.556295176079319"><ele>112.0</ele><time>2026-05-02T14:26:26.001Z</time></trkpt><trkpt lat="40.00839307938586" lon="9.556483955517624"><ele>111.0</ele><time>2026-05-02T14:26:27.001Z</time></trkpt><trkpt lat="40.008360444670345" lon="9.556676870781068"><ele>120.66666666666666</ele><time>2026-05-02T14:26:28.001Z</time></trkpt><trkpt lat="40.008266677103656" lon="9.556853397097727"><ele>130.33333333333331</ele><time>2026-05-02T14:26:29.001Z</time></trkpt><trkpt lat="40.00817690933242" lon="9.557045098663382"><ele>140.0</ele><time>2026-05-02T14:26:30.001Z</time></trkpt><trkpt lat="40.008103860613964" lon="9.557240261445854"><ele>140.0</ele><time>2026-05-02T14:26:31.001Z</time></trkpt><trkpt lat="40.00801375921046" lon="9.557410388112464"><ele>140.0</ele><time>2026-05-02T14:26:32.001Z</time></trkpt><trkpt lat="40.007970307751506" lon="9.55760121048376"><ele>140.0</ele><time>2026-05-02T14:26:33.001Z</time></trkpt><trkpt lat="40.00794949441958" lon="9.557821984729586"><ele>135.33333333333331</ele><time>2026-05-02T14:26:34.001Z</time></trkpt><trkpt lat="40.00792853339065" lon="9.558051729787769"><ele>130.66666666666666</ele><time>2026-05-02T14:26:35.001Z</time></trkpt><trkpt lat="40.00790750748576" lon="9.558281752290167"><ele>126.0</ele><time>2026-05-02T14:26:36.001Z</time></trkpt><trkpt lat="40.007885659618424" lon="9.558520637741259"><ele>122.0</ele><time>2026-05-02T14:26:37.001Z</time></trkpt><trkpt lat="40.007863823189005" lon="9.558759398306476"><ele>118.0</ele><time>2026-05-02T14:26:38.001Z</time></trkpt><trkpt lat="40.00784113417924" lon="9.559007778793084"><ele>114.0</ele><time>2026-05-02T14:26:39.001Z</time></trkpt><trkpt lat="40.007820711734055" lon="9.55924241010173"><ele>114.0</ele><time>2026-05-02T14:26:40.001Z</time></trkpt><trkpt lat="40.00780027501162" lon="9.559477468546518"><ele>114.0</ele><time>2026-05-02T14:26:41.001Z</time></trkpt><trkpt lat="40.007794142096216" lon="9.559715293453758"><ele>114.0</ele><time>2026-05-02T14:26:42.001Z</time></trkpt><trkpt lat="40.00780557010801" lon="9.559957632795355"><ele>111.0</ele><time>2026-05-02T14:26:43.001Z</time></trkpt><trkpt lat="40.00782445226861" lon="9.560183350290497"><ele>108.0</ele><time>2026-05-02T14:26:44.001Z</time></trkpt><trkpt lat="40.007842119333006" lon="9.560403163320753"><ele>105.0</ele><time>2026-05-02T14:26:45.001Z</time></trkpt><trkpt lat="40.00785491461115" lon="9.560612263821845"><ele>104.66666666666666</ele><time>2026-05-02T14:26:46.001Z</time></trkpt><trkpt lat="40.00784309439127" lon="9.560822596722879"><ele>104.33333333333333</ele><time>2026-05-02T14:26:47.001Z</time></trkpt><trkpt lat="40.00780813118217" lon="9.56103592246597"><ele>104.0</ele><time>2026-05-02T14:26:48.001Z</time></trkpt><trkpt lat="40.00776767964844" lon="9.561253461572115"><ele>104.0</ele><time>2026-05-02T14:26:49.001Z</time></trkpt><trkpt lat="40.00774320416115" lon="9.561482226890814"><ele>104.0</ele><time>2026-05-02T14:26:50.001Z</time></trkpt><trkpt lat="40.0076906346825" lon="9.561685818593647"><ele>104.0</ele><time>2026-05-02T14:26:51.001Z</time></trkpt><trkpt lat="40.00765313900046" lon="9.56189508276575"><ele>104.0</ele><time>2026-05-02T14:26:52.001Z</time></trkpt><trkpt lat="40.007615884580865" lon="9.562103000442827"><ele>104.0</ele><time>2026-05-02T14:26:53.001Z</time></trkpt><trkpt lat="40.00757854569307" lon="9.562311389544963"><ele>104.0</ele><time>2026-05-02T14:26:54.001Z</time></trkpt><trkpt lat="40.00754124724555" lon="9.562519552939573"><ele>104.0</ele><time>2026-05-02T14:26:55.001Z</time></trkpt><trkpt lat="40.007504120227225" lon="9.562726759593803"><ele>104.0</ele><time>2026-05-02T14:26:56.001Z</time></trkpt><trkpt lat="40.00746728337587" lon="9.562932402683051"><ele>104.0</ele><time>2026-05-02T14:26:57.001Z</time></trkpt><trkpt lat="40.00742933651683" lon="9.56314537717782"><ele>111.33333333333333</ele><time>2026-05-02T14:26:58.001Z</time></trkpt><trkpt lat="40.0073936466069" lon="9.563345684691674"><ele>118.66666666666666</ele><time>2026-05-02T14:26:59.001Z</time></trkpt><trkpt lat="40.00735242722693" lon="9.563577026019617"><ele>126.0</ele><time>2026-05-02T14:27:00.001Z</time></trkpt><trkpt lat="40.0073079222675" lon="9.563826807467583"><ele>126.0</ele><time>2026-05-02T14:27:01.001Z</time></trkpt><trkpt lat="40.00726413813043" lon="9.564072402624797"><ele>126.0</ele><time>2026-05-02T14:27:02Z</time></trkpt><trkpt lat="40.00722168249874" lon="9.564310306290578"><ele>126.0</ele><time>2026-05-02T14:27:03Z</time></trkpt><trkpt lat="40.00718220705694" lon="9.564528439528042"><ele>122.0</ele><time>2026-05-02T14:27:04Z</time></trkpt><trkpt lat="40.00713541075853" lon="9.564751070734541"><ele>118.0</ele><time>2026-05-02T14:27:05Z</time></trkpt><trkpt lat="40.00702663860491" lon="9.56494205295202"><ele>114.0</ele><time>2026-05-02T14:27:06Z</time></trkpt><trkpt lat="40.006916597445034" lon="9.565143740114241"><ele>114.0</ele><time>2026-05-02T14:27:07Z</time></trkpt><trkpt lat="40.00682140233835" lon="9.565357233661064"><ele>114.0</ele><time>2026-05-02T14:27:08Z</time></trkpt><trkpt lat="40.006697821041854" lon="9.56554973304847"><ele>114.0</ele><time>2026-05-02T14:27:09Z</time></trkpt><trkpt lat="40.00659084314219" lon="9.565754401630803"><ele>114.33333333333334</ele><time>2026-05-02T14:27:10Z</time></trkpt><trkpt lat="40.006509863330685" lon="9.565958278653698"><ele>114.66666666666667</ele><time>2026-05-02T14:27:11Z</time></trkpt><trkpt lat="40.00645146743162" lon="9.566170076330291"><ele>115.0</ele><time>2026-05-02T14:27:12Z</time></trkpt><trkpt lat="40.00636446374619" lon="9.566358100813302"><ele>113.0</ele><time>2026-05-02T14:27:13Z</time></trkpt><trkpt lat="40.00629554878692" lon="9.566545666484597"><ele>111.0</ele><time>2026-05-02T14:27:14Z</time></trkpt><trkpt lat="40.0062258085077" lon="9.566736099833598"><ele>109.0</ele><time>2026-05-02T14:27:15Z</time></trkpt><trkpt lat="40.006156136127274" lon="9.56692672344014"><ele>108.33333333333334</ele><time>2026-05-02T14:27:16Z</time></trkpt><trkpt lat="40.0060870568321" lon="9.567115724362171"><ele>107.66666666666666</ele><time>2026-05-02T14:27:17Z</time></trkpt><trkpt lat="40.00602017885898" lon="9.567298702466244"><ele>107.0</ele><time>2026-05-02T14:27:18Z</time></trkpt><trkpt lat="40.00595680965684" lon="9.567471752441552"><ele>107.0</ele><time>2026-05-02T14:27:19Z</time></trkpt><trkpt lat="40.005904862892365" lon="9.567645407465765"><ele>107.0</ele><time>2026-05-02T14:27:20Z</time></trkpt><trkpt lat="40.005827445259754" lon="9.567805017369587"><ele>107.0</ele><time>2026-05-02T14:27:21Z</time></trkpt><trkpt lat="40.005737679084284" lon="9.567954619401858"><ele>107.0</ele><time>2026-05-02T14:27:22Z</time></trkpt><trkpt lat="40.00563185190474" lon="9.568092805964124"><ele>107.0</ele><time>2026-05-02T14:27:23Z</time></trkpt><trkpt lat="40.005516437327074" lon="9.568225457363425"><ele>107.0</ele><time>2026-05-02T14:27:24Z</time></trkpt><trkpt lat="40.00539268214989" lon="9.568354080652144"><ele>107.0</ele><time>2026-05-02T14:27:25Z</time></trkpt><trkpt lat="40.00526057778571" lon="9.568489564735438"><ele>107.0</ele><time>2026-05-02T14:27:26Z</time></trkpt><trkpt lat="40.0051334258993" lon="9.56862672732328"><ele>107.0</ele><time>2026-05-02T14:27:27Z</time></trkpt><trkpt lat="40.00501164225529" lon="9.568769886010731"><ele>107.0</ele><time>2026-05-02T14:27:28Z</time></trkpt><trkpt lat="40.004887855408235" lon="9.568932243138041"><ele>106.33333333333333</ele><time>2026-05-02T14:27:29Z</time></trkpt><trkpt lat="40.004749195282216" lon="9.569088887923755"><ele>105.66666666666666</ele><time>2026-05-02T14:27:30Z</time></trkpt><trkpt lat="40.004623753986095" lon="9.56929777525598"><ele>105.0</ele><time>2026-05-02T14:27:31Z</time></trkpt><trkpt lat="40.00449513722962" lon="9.569520078207237"><ele>103.0</ele><time>2026-05-02T14:27:32Z</time></trkpt><trkpt lat="40.00435594593679" lon="9.569761525548667"><ele>101.0</ele><time>2026-05-02T14:27:33Z</time></trkpt><trkpt lat="40.00420721550864" lon="9.57001951981308"><ele>103.0</ele><time>2026-05-02T14:27:34Z</time></trkpt><trkpt lat="40.00405313242536" lon="9.570286799084245"><ele>105.0</ele><time>2026-05-02T14:27:35Z</time></trkpt><trkpt lat="40.00390365767473" lon="9.57054608448704"><ele>105.0</ele><time>2026-05-02T14:27:36Z</time></trkpt><trkpt lat="40.003755768999" lon="9.570802618630047"><ele>105.0</ele><time>2026-05-02T14:27:37Z</time></trkpt><trkpt lat="40.00360863958045" lon="9.571057693841418"><ele>105.5</ele><time>2026-05-02T14:27:38Z</time></trkpt><trkpt lat="40.003459313101985" lon="9.571316333277972"><ele>106.0</ele><time>2026-05-02T14:27:39Z</time></trkpt><trkpt lat="40.003300438592404" lon="9.571591372251188"><ele>106.0</ele><time>2026-05-02T14:27:40Z</time></trkpt><trkpt lat="40.00317205801288" lon="9.571896934678493"><ele>106.0</ele><time>2026-05-02T14:27:41Z</time></trkpt><trkpt lat="40.003013671734465" lon="9.572154840259307"><ele>105.0</ele><time>2026-05-02T14:27:42Z</time></trkpt><trkpt lat="40.00286186136808" lon="9.572403899331743"><ele>104.0</ele><time>2026-05-02T14:27:43Z</time></trkpt><trkpt lat="40.00271838387829" lon="9.572646127629959"><ele>104.33333333333333</ele><time>2026-05-02T14:27:44Z</time></trkpt><trkpt lat="40.00256529413147" lon="9.572864896379953"><ele>104.66666666666666</ele><time>2026-05-02T14:27:45Z</time></trkpt><trkpt lat="40.002437027043705" lon="9.573088159270187"><ele>105.0</ele><time>2026-05-02T14:27:46Z</time></trkpt><trkpt lat="40.002313200702645" lon="9.573303511031028"><ele>105.0</ele><time>2026-05-02T14:27:47Z</time></trkpt><trkpt lat="40.00219185113246" lon="9.573514466009225"><ele>105.0</ele><time>2026-05-02T14:27:48Z</time></trkpt><trkpt lat="40.00208071401372" lon="9.5737327524746"><ele>105.0</ele><time>2026-05-02T14:27:49Z</time></trkpt><trkpt lat="40.00198188629566" lon="9.573959888569286"><ele>105.0</ele><time>2026-05-02T14:27:50.001Z</time></trkpt><trkpt lat="40.00187955161794" lon="9.574196589182534"><ele>105.0</ele><time>2026-05-02T14:27:51.001Z</time></trkpt><trkpt lat="40.001772671623996" lon="9.574446780477412"><ele>105.0</ele><time>2026-05-02T14:27:52.001Z</time></trkpt><trkpt lat="40.001661704510695" lon="9.574706628485096"><ele>102.5</ele><time>2026-05-02T14:27:53.001Z</time></trkpt><trkpt lat="40.001547675646634" lon="9.574972023720447"><ele>100.0</ele><time>2026-05-02T14:27:54.001Z</time></trkpt><trkpt lat="40.00143247090659" lon="9.575238911315962"><ele>98.5</ele><time>2026-05-02T14:27:55.001Z</time></trkpt><trkpt lat="40.00131837005233" lon="9.575503241576937"><ele>97.0</ele><time>2026-05-02T14:27:56.001Z</time></trkpt><trkpt lat="40.00120920725352" lon="9.575756131928186"><ele>97.0</ele><time>2026-05-02T14:27:57.001Z</time></trkpt><trkpt lat="40.00110679636663" lon="9.57599272332885"><ele>97.0</ele><time>2026-05-02T14:27:58.001Z</time></trkpt><trkpt lat="40.001005438942556" lon="9.576226920810589"><ele>97.0</ele><time>2026-05-02T14:27:59.001Z</time></trkpt><trkpt lat="40.000918823692245" lon="9.576465317197313"><ele>95.33333333333334</ele><time>2026-05-02T14:28:00.001Z</time></trkpt><trkpt lat="40.00081149812747" lon="9.576712418264055"><ele>93.66666666666667</ele><time>2026-05-02T14:28:01.001Z</time></trkpt><trkpt lat="40.00070825045052" lon="9.5769583779064"><ele>92.0</ele><time>2026-05-02T14:28:02.001Z</time></trkpt><trkpt lat="40.000595851972584" lon="9.577169910823477"><ele>91.66666666666667</ele><time>2026-05-02T14:28:03.001Z</time></trkpt><trkpt lat="40.00050473828809" lon="9.577398548104481"><ele>91.33333333333333</ele><time>2026-05-02T14:28:04.001Z</time></trkpt><trkpt lat="40.00042940558401" lon="9.57765353959744"><ele>91.0</ele><time>2026-05-02T14:28:05.001Z</time></trkpt><trkpt lat="40.000357418373675" lon="9.577929508841102"><ele>89.5</ele><time>2026-05-02T14:28:06.001Z</time></trkpt><trkpt lat="40.000282280140596" lon="9.578216236100825"><ele>88.0</ele><time>2026-05-02T14:28:07.001Z</time></trkpt><trkpt lat="40.000205950577524" lon="9.578505504185122"><ele>87.0</ele><time>2026-05-02T14:28:08.001Z</time></trkpt><trkpt lat="40.000129609049225" lon="9.578794817553135"><ele>86.0</ele><time>2026-05-02T14:28:09.001Z</time></trkpt><trkpt lat="40.00005110150066" lon="9.579092338572023"><ele>86.0</ele><time>2026-05-02T14:28:10.001Z</time></trkpt><trkpt lat="39.99997244566282" lon="9.579388803968934"><ele>86.0</ele><time>2026-05-02T14:28:11.001Z</time></trkpt><trkpt lat="39.999894105566916" lon="9.579684444588823"><ele>85.33333333333334</ele><time>2026-05-02T14:28:12.001Z</time></trkpt><trkpt lat="39.999820041494125" lon="9.579963948743552"><ele>84.66666666666667</ele><time>2026-05-02T14:28:13.001Z</time></trkpt><trkpt lat="39.99974905849708" lon="9.580239512026212"><ele>84.0</ele><time>2026-05-02T14:28:14Z</time></trkpt><trkpt lat="39.999680340968986" lon="9.580502437684597"><ele>83.66666666666667</ele><time>2026-05-02T14:28:15Z</time></trkpt><trkpt lat="39.99960660133907" lon="9.58078436681979"><ele>83.33333333333334</ele><time>2026-05-02T14:28:16Z</time></trkpt><trkpt lat="39.9995351419662" lon="9.581054714595727"><ele>83.0</ele><time>2026-05-02T14:28:17Z</time></trkpt><trkpt lat="39.99946125775343" lon="9.581331730649996"><ele>82.5</ele><time>2026-05-02T14:28:18Z</time></trkpt><trkpt lat="39.999384476006256" lon="9.58162092142073"><ele>82.0</ele><time>2026-05-02T14:28:19Z</time></trkpt><trkpt lat="39.99930639956716" lon="9.58191910261697"><ele>81.0</ele><time>2026-05-02T14:28:20Z</time></trkpt><trkpt lat="39.99922319635649" lon="9.582232784148927"><ele>80.0</ele><time>2026-05-02T14:28:21Z</time></trkpt><trkpt lat="39.9991341073196" lon="9.582566656136013"><ele>81.5</ele><time>2026-05-02T14:28:22Z</time></trkpt><trkpt lat="39.99904492401034" lon="9.5829051785221"><ele>83.0</ele><time>2026-05-02T14:28:23Z</time></trkpt><trkpt lat="39.99896060705232" lon="9.583224531298114"><ele>83.0</ele><time>2026-05-02T14:28:24Z</time></trkpt><trkpt lat="39.998885804613785" lon="9.583506818071863"><ele>83.0</ele><time>2026-05-02T14:28:25Z</time></trkpt><trkpt lat="39.99881144010582" lon="9.583788228195885"><ele>83.0</ele><time>2026-05-02T14:28:26Z</time></trkpt><trkpt lat="39.998739719856275" lon="9.584052123332606"><ele>83.0</ele><time>2026-05-02T14:28:27Z</time></trkpt><trkpt lat="39.99867441391095" lon="9.58429950280083"><ele>83.0</ele><time>2026-05-02T14:28:28Z</time></trkpt><trkpt lat="39.99861317579852" lon="9.584531473279853"><ele>83.0</ele><time>2026-05-02T14:28:29Z</time></trkpt><trkpt lat="39.99856808046466" lon="9.58475681367714"><ele>83.0</ele><time>2026-05-02T14:28:30Z</time></trkpt><trkpt lat="39.99848637673531" lon="9.584962483028695"><ele>83.0</ele><time>2026-05-02T14:28:31Z</time></trkpt><trkpt lat="39.99839499638284" lon="9.585154023356742"><ele>84.66666666666667</ele><time>2026-05-02T14:28:32Z</time></trkpt><trkpt lat="39.998284950646955" lon="9.58535635716203"><ele>86.33333333333333</ele><time>2026-05-02T14:28:33Z</time></trkpt><trkpt lat="39.99815461321569" lon="9.585605057172524"><ele>88.0</ele><time>2026-05-02T14:28:34Z</time></trkpt><trkpt lat="39.99802276441702" lon="9.585821098712627"><ele>88.0</ele><time>2026-05-02T14:28:35Z</time></trkpt><trkpt lat="39.99789234588338" lon="9.586033791656298"><ele>88.0</ele><time>2026-05-02T14:28:36Z</time></trkpt><trkpt lat="39.99776557390454" lon="9.586254538155437"><ele>88.0</ele><time>2026-05-02T14:28:37Z</time></trkpt><trkpt lat="39.997626388344536" lon="9.58647236331863"><ele>87.66666666666666</ele><time>2026-05-02T14:28:38Z</time></trkpt><trkpt lat="39.99750925122389" lon="9.586716667287764"><ele>87.33333333333333</ele><time>2026-05-02T14:28:39Z</time></trkpt><trkpt lat="39.997405159215525" lon="9.58698112778582"><ele>87.0</ele><time>2026-05-02T14:28:40Z</time></trkpt><trkpt lat="39.997287083744254" lon="9.587233622394598"><ele>87.0</ele><time>2026-05-02T14:28:41Z</time></trkpt><trkpt lat="39.99717250569678" lon="9.587476375334067"><ele>87.0</ele><time>2026-05-02T14:28:42Z</time></trkpt><trkpt lat="39.99706624332991" lon="9.587705663335989"><ele>87.0</ele><time>2026-05-02T14:28:43Z</time></trkpt><trkpt lat="39.99696224116455" lon="9.587920937402115"><ele>86.33333333333333</ele><time>2026-05-02T14:28:44Z</time></trkpt><trkpt lat="39.99684723531083" lon="9.58811442505425"><ele>85.66666666666666</ele><time>2026-05-02T14:28:45Z</time></trkpt><trkpt lat="39.996718751285854" lon="9.58830330614765"><ele>85.0</ele><time>2026-05-02T14:28:46Z</time></trkpt><trkpt lat="39.99657678055447" lon="9.588486477734882"><ele>86.0</ele><time>2026-05-02T14:28:47Z</time></trkpt><trkpt lat="39.99641880443855" lon="9.588644630643012"><ele>87.0</ele><time>2026-05-02T14:28:48Z</time></trkpt><trkpt lat="39.99626682140683" lon="9.588821178808445"><ele>88.0</ele><time>2026-05-02T14:28:49Z</time></trkpt><trkpt lat="39.99611298266676" lon="9.588999882576752"><ele>88.0</ele><time>2026-05-02T14:28:50Z</time></trkpt><trkpt lat="39.99597281963026" lon="9.589193191626238"><ele>88.0</ele><time>2026-05-02T14:28:51Z</time></trkpt><trkpt lat="39.99582219220987" lon="9.589365052023481"><ele>88.0</ele><time>2026-05-02T14:28:52Z</time></trkpt><trkpt lat="39.995670800413784" lon="9.589538007805826"><ele>89.0</ele><time>2026-05-02T14:28:53Z</time></trkpt><trkpt lat="39.99552177421005" lon="9.589712430708854"><ele>90.0</ele><time>2026-05-02T14:28:54Z</time></trkpt><trkpt lat="39.99536501536003" lon="9.589876160400328"><ele>91.0</ele><time>2026-05-02T14:28:55Z</time></trkpt><trkpt lat="39.995224134159166" lon="9.590062353721901"><ele>91.0</ele><time>2026-05-02T14:28:56Z</time></trkpt><trkpt lat="39.99509065896247" lon="9.590271928955735"><ele>91.0</ele><time>2026-05-02T14:28:57Z</time></trkpt><trkpt lat="39.99496150217556" lon="9.59050211778065"><ele>91.0</ele><time>2026-05-02T14:28:58Z</time></trkpt><trkpt lat="39.99484204913918" lon="9.590739356397714"><ele>91.0</ele><time>2026-05-02T14:28:59Z</time></trkpt><trkpt lat="39.99472866809942" lon="9.590972581102546"><ele>91.0</ele><time>2026-05-02T14:29:00Z</time></trkpt><trkpt lat="39.99461902111771" lon="9.591200894085643"><ele>91.0</ele><time>2026-05-02T14:29:01Z</time></trkpt><trkpt lat="39.99451433742978" lon="9.591433448327548"><ele>90.0</ele><time>2026-05-02T14:29:02Z</time></trkpt><trkpt lat="39.994428271467235" lon="9.591684064212027"><ele>89.0</ele><time>2026-05-02T14:29:03Z</time></trkpt><trkpt lat="39.99435284133843" lon="9.591951802351106"><ele>88.0</ele><time>2026-05-02T14:29:04Z</time></trkpt><trkpt lat="39.994276498475344" lon="9.592225250234103"><ele>88.0</ele><time>2026-05-02T14:29:05Z</time></trkpt><trkpt lat="39.99420041061858" lon="9.592497492921524"><ele>88.0</ele><time>2026-05-02T14:29:06Z</time></trkpt><trkpt lat="39.994125450877185" lon="9.5927579111221"><ele>88.0</ele><time>2026-05-02T14:29:07Z</time></trkpt><trkpt lat="39.9940559250093" lon="9.59300277294692"><ele>88.33333333333333</ele><time>2026-05-02T14:29:08Z</time></trkpt><trkpt lat="39.99399456234755" lon="9.593237193787008"><ele>88.66666666666667</ele><time>2026-05-02T14:29:09Z</time></trkpt><trkpt lat="39.9939501775258" lon="9.59346204718326"><ele>89.0</ele><time>2026-05-02T14:29:10Z</time></trkpt><trkpt lat="39.99392820648248" lon="9.593695819288872"><ele>89.0</ele><time>2026-05-02T14:29:11Z</time></trkpt><trkpt lat="39.99392090241311" lon="9.593945795079787"><ele>89.0</ele><time>2026-05-02T14:29:12Z</time></trkpt><trkpt lat="39.99392053635997" lon="9.594196371935379"><ele>89.0</ele><time>2026-05-02T14:29:13Z</time></trkpt><trkpt lat="39.99391777912667" lon="9.594449723809543"><ele>88.66666666666667</ele><time>2026-05-02T14:29:14Z</time></trkpt><trkpt lat="39.99393245410256" lon="9.594720237836402"><ele>88.33333333333333</ele><time>2026-05-02T14:29:15Z</time></trkpt><trkpt lat="39.99391528089206" lon="9.595005719179877"><ele>88.0</ele><time>2026-05-02T14:29:16Z</time></trkpt><trkpt lat="39.99391452054247" lon="9.595300024716975"><ele>87.33333333333333</ele><time>2026-05-02T14:29:17Z</time></trkpt><trkpt lat="39.99391309215041" lon="9.595599022435161"><ele>86.66666666666667</ele><time>2026-05-02T14:29:18Z</time></trkpt><trkpt lat="39.99391158560385" lon="9.595883167394993"><ele>86.0</ele><time>2026-05-02T14:29:19Z</time></trkpt><trkpt lat="39.99391017579178" lon="9.596149067538827"><ele>86.33333333333334</ele><time>2026-05-02T14:29:20Z</time></trkpt><trkpt lat="39.99390882926426" lon="9.596403031868265"><ele>86.66666666666667</ele><time>2026-05-02T14:29:21Z</time></trkpt><trkpt lat="39.99390651871219" lon="9.596646066355508"><ele>87.0</ele><time>2026-05-02T14:29:22Z</time></trkpt><trkpt lat="39.993907625690824" lon="9.596871745732711"><ele>88.0</ele><time>2026-05-02T14:29:23Z</time></trkpt><trkpt lat="39.99386614082614" lon="9.597086221070963"><ele>89.0</ele><time>2026-05-02T14:29:24Z</time></trkpt><trkpt lat="39.99380059735818" lon="9.597300264598928"><ele>90.0</ele><time>2026-05-02T14:29:25Z</time></trkpt><trkpt lat="39.99370986154231" lon="9.597505520750861"><ele>90.0</ele><time>2026-05-02T14:29:26Z</time></trkpt><trkpt lat="39.99361920631054" lon="9.597731060629606"><ele>90.0</ele><time>2026-05-02T14:29:27Z</time></trkpt><trkpt lat="39.99352584785487" lon="9.597969594076151"><ele>90.0</ele><time>2026-05-02T14:29:28Z</time></trkpt><trkpt lat="39.99342821026921" lon="9.598216716625624"><ele>87.0</ele><time>2026-05-02T14:29:29Z</time></trkpt><trkpt lat="39.99333635237909" lon="9.598448655142576"><ele>84.0</ele><time>2026-05-02T14:29:30Z</time></trkpt><trkpt lat="39.993248433188235" lon="9.598673964493479"><ele>81.0</ele><time>2026-05-02T14:29:31Z</time></trkpt><trkpt lat="39.99316222182968" lon="9.598895746346535"><ele>80.33333333333333</ele><time>2026-05-02T14:29:32Z</time></trkpt><trkpt lat="39.993080840556026" lon="9.599105102630373"><ele>79.66666666666666</ele><time>2026-05-02T14:29:33Z</time></trkpt><trkpt lat="39.993004334426786" lon="9.599301917427676"><ele>79.0</ele><time>2026-05-02T14:29:34Z</time></trkpt><trkpt lat="39.99293273185045" lon="9.599489672407417"><ele>79.33333333333333</ele><time>2026-05-02T14:29:35Z</time></trkpt><trkpt lat="39.99287556037721" lon="9.599678697344944"><ele>79.66666666666667</ele><time>2026-05-02T14:29:36Z</time></trkpt><trkpt lat="39.99283718425686" lon="9.59989504300848"><ele>80.0</ele><time>2026-05-02T14:29:37Z</time></trkpt><trkpt lat="39.99283671094948" lon="9.600125792269736"><ele>77.66666666666667</ele><time>2026-05-02T14:29:38Z</time></trkpt><trkpt lat="39.992844893811665" lon="9.600360003789323"><ele>75.33333333333333</ele><time>2026-05-02T14:29:39Z</time></trkpt><trkpt lat="39.99285748361353" lon="9.600608043105863"><ele>73.0</ele><time>2026-05-02T14:29:40Z</time></trkpt><trkpt lat="39.99287626117985" lon="9.600846795775887"><ele>73.0</ele><time>2026-05-02T14:29:41Z</time></trkpt><trkpt lat="39.99289587714853" lon="9.601081500754969"><ele>73.0</ele><time>2026-05-02T14:29:42Z</time></trkpt><trkpt lat="39.99291554067565" lon="9.601316774762175"><ele>73.0</ele><time>2026-05-02T14:29:43Z</time></trkpt><trkpt lat="39.99293503561997" lon="9.601550031662393"><ele>71.0</ele><time>2026-05-02T14:29:44Z</time></trkpt><trkpt lat="39.992954269579954" lon="9.601779362979473"><ele>69.0</ele><time>2026-05-02T14:29:45Z</time></trkpt><trkpt lat="39.99297272536206" lon="9.601998502105257"><ele>67.0</ele><time>2026-05-02T14:29:46Z</time></trkpt><trkpt lat="39.99300666113634" lon="9.602211150513638"><ele>66.33333333333333</ele><time>2026-05-02T14:29:47Z</time></trkpt><trkpt lat="39.993024954657166" lon="9.602423850709904"><ele>65.66666666666667</ele><time>2026-05-02T14:29:48Z</time></trkpt><trkpt lat="39.99304573280872" lon="9.602635365702819"><ele>65.0</ele><time>2026-05-02T14:29:49Z</time></trkpt><trkpt lat="39.99304762226091" lon="9.602847291577278"><ele>64.66666666666667</ele><time>2026-05-02T14:29:50Z</time></trkpt><trkpt lat="39.99306574714403" lon="9.603057180828888"><ele>64.33333333333333</ele><time>2026-05-02T14:29:51Z</time></trkpt><trkpt lat="39.99308402189486" lon="9.60326880558115"><ele>64.0</ele><time>2026-05-02T14:29:52Z</time></trkpt><trkpt lat="39.99311728310283" lon="9.603477676464896"><ele>63.666666666666664</ele><time>2026-05-02T14:29:53Z</time></trkpt><trkpt lat="39.993134931792085" lon="9.603685928206776"><ele>63.33333333333333</ele><time>2026-05-02T14:29:54Z</time></trkpt><trkpt lat="39.99315277897897" lon="9.603887584027307"><ele>63.0</ele><time>2026-05-02T14:29:55Z</time></trkpt><trkpt lat="39.993168753371975" lon="9.60408562860512"><ele>63.0</ele><time>2026-05-02T14:29:56Z</time></trkpt><trkpt lat="39.99316928997767" lon="9.60427981169267"><ele>63.0</ele><time>2026-05-02T14:29:57Z</time></trkpt><trkpt lat="39.99318505532108" lon="9.604469229476138"><ele>63.0</ele><time>2026-05-02T14:29:58Z</time></trkpt><trkpt lat="39.99320082943075" lon="9.604658593603933"><ele>63.0</ele><time>2026-05-02T14:29:59Z</time></trkpt><trkpt lat="39.99321694242476" lon="9.604847250223958"><ele>62.5</ele><time>2026-05-02T14:30:00Z</time></trkpt><trkpt lat="39.99323295963332" lon="9.605034785336496"><ele>62.0</ele><time>2026-05-02T14:30:01Z</time></trkpt><trkpt lat="39.99324880819156" lon="9.605220345829787"><ele>61.5</ele><time>2026-05-02T14:30:02Z</time></trkpt><trkpt lat="39.99326384369239" lon="9.605396386769076"><ele>61.0</ele><time>2026-05-02T14:30:03Z</time></trkpt><trkpt lat="39.99327795195501" lon="9.605561571263426"><ele>60.5</ele><time>2026-05-02T14:30:04Z</time></trkpt><trkpt lat="39.99329150275311" lon="9.605720228766888"><ele>60.0</ele><time>2026-05-02T14:30:05Z</time></trkpt><trkpt lat="39.99330422463085" lon="9.60586929583012"><ele>59.5</ele><time>2026-05-02T14:30:06Z</time></trkpt><trkpt lat="39.99331628376064" lon="9.60601168748678"><ele>59.0</ele><time>2026-05-02T14:30:07Z</time></trkpt><trkpt lat="39.993328426746544" lon="9.606155069295717"><ele>58.5</ele><time>2026-05-02T14:30:08Z</time></trkpt><trkpt lat="39.99334071374315" lon="9.606300151550133"><ele>58.0</ele><time>2026-05-02T14:30:09Z</time></trkpt><trkpt lat="39.993352818383215" lon="9.606443080576714"><ele>57.5</ele><time>2026-05-02T14:30:10Z</time></trkpt><trkpt lat="39.993365377273214" lon="9.60659137329211"><ele>57.0</ele><time>2026-05-02T14:30:11Z</time></trkpt><trkpt lat="39.99337978435916" lon="9.606747193669925"><ele>57.0</ele><time>2026-05-02T14:30:12Z</time></trkpt><trkpt lat="39.99339274008217" lon="9.60689703145035"><ele>57.0</ele><time>2026-05-02T14:30:13Z</time></trkpt><trkpt lat="39.993394668831364" lon="9.607032572304066"><ele>57.0</ele><time>2026-05-02T14:30:14Z</time></trkpt><trkpt lat="39.993376746657106" lon="9.607155294710662"><ele>57.0</ele><time>2026-05-02T14:30:15Z</time></trkpt><trkpt lat="39.993344616532234" lon="9.607279623762588"><ele>57.0</ele><time>2026-05-02T14:30:16Z</time></trkpt><trkpt lat="39.99327294678853" lon="9.60740189860192"><ele>57.0</ele><time>2026-05-02T14:30:17Z</time></trkpt><trkpt lat="39.9931913534981" lon="9.607531947072408"><ele>57.0</ele><time>2026-05-02T14:30:18Z</time></trkpt><trkpt lat="39.99310362638233" lon="9.607670234926655"><ele>57.0</ele><time>2026-05-02T14:30:19Z</time></trkpt><trkpt lat="39.99301197613854" lon="9.607820686966445"><ele>57.0</ele><time>2026-05-02T14:30:20Z</time></trkpt><trkpt lat="39.992915232630345" lon="9.60797424812719"><ele>57.0</ele><time>2026-05-02T14:30:21Z</time></trkpt><trkpt lat="39.992810291298134" lon="9.608137871241233"><ele>57.0</ele><time>2026-05-02T14:30:22Z</time></trkpt><trkpt lat="39.99270942170981" lon="9.608293615588837"><ele>57.0</ele><time>2026-05-02T14:30:23Z</time></trkpt><trkpt lat="39.992610717522965" lon="9.608453019232542"><ele>57.0</ele><time>2026-05-02T14:30:24Z</time></trkpt><trkpt lat="39.99251380298318" lon="9.608614190284712"><ele>57.0</ele><time>2026-05-02T14:30:25Z</time></trkpt><trkpt lat="39.99241710551597" lon="9.60877879203176"><ele>57.0</ele><time>2026-05-02T14:30:26Z</time></trkpt><trkpt lat="39.99231817880832" lon="9.608944292344134"><ele>57.33333333333333</ele><time>2026-05-02T14:30:27Z</time></trkpt><trkpt lat="39.99221683306454" lon="9.609109445906032"><ele>57.666666666666664</ele><time>2026-05-02T14:30:28Z</time></trkpt><trkpt lat="39.992112528860105" lon="9.609276875551476"><ele>58.0</ele><time>2026-05-02T14:30:29Z</time></trkpt><trkpt lat="39.99200784677018" lon="9.60944545775628"><ele>60.33333333333333</ele><time>2026-05-02T14:30:30Z</time></trkpt><trkpt lat="39.991908044207165" lon="9.60961226696839"><ele>62.66666666666667</ele><time>2026-05-02T14:30:31Z</time></trkpt><trkpt lat="39.991806943527024" lon="9.60977812200541"><ele>65.0</ele><time>2026-05-02T14:30:32Z</time></trkpt><trkpt lat="39.991704170306676" lon="9.60994457840541"><ele>65.0</ele><time>2026-05-02T14:30:33Z</time></trkpt><trkpt lat="39.99160097701213" lon="9.61011352497525"><ele>65.0</ele><time>2026-05-02T14:30:34Z</time></trkpt><trkpt lat="39.99149857549972" lon="9.610282227837411"><ele>65.0</ele><time>2026-05-02T14:30:35Z</time></trkpt><trkpt lat="39.99139610079402" lon="9.610448734703644"><ele>66.0</ele><time>2026-05-02T14:30:36Z</time></trkpt><trkpt lat="39.99127994810753" lon="9.61059271336727"><ele>67.0</ele><time>2026-05-02T14:30:37Z</time></trkpt><trkpt lat="39.99116663257091" lon="9.610755981985765"><ele>68.0</ele><time>2026-05-02T14:30:38Z</time></trkpt><trkpt lat="39.991050459245976" lon="9.610916302312514"><ele>68.0</ele><time>2026-05-02T14:30:39Z</time></trkpt><trkpt lat="39.99093370809241" lon="9.611073700698556"><ele>68.0</ele><time>2026-05-02T14:30:40Z</time></trkpt><trkpt lat="39.99081536438453" lon="9.611231452763658"><ele>68.0</ele><time>2026-05-02T14:30:41Z</time></trkpt><trkpt lat="39.99069455585337" lon="9.611392490435636"><ele>65.33333333333334</ele><time>2026-05-02T14:30:42Z</time></trkpt><trkpt lat="39.99056802241411" lon="9.611561159406548"><ele>62.66666666666667</ele><time>2026-05-02T14:30:43Z</time></trkpt><trkpt lat="39.99044095998792" lon="9.611730533514667"><ele>60.0</ele><time>2026-05-02T14:30:44Z</time></trkpt><trkpt lat="39.990317095814575" lon="9.611896536801057"><ele>58.0</ele><time>2026-05-02T14:30:45Z</time></trkpt><trkpt lat="39.99019073069753" lon="9.612066183676214"><ele>56.0</ele><time>2026-05-02T14:30:46Z</time></trkpt><trkpt lat="39.99006561772665" lon="9.612234212719082"><ele>54.0</ele><time>2026-05-02T14:30:47Z</time></trkpt><trkpt lat="39.98994238572051" lon="9.61240587030073"><ele>54.0</ele><time>2026-05-02T14:30:48Z</time></trkpt><trkpt lat="39.989824582309616" lon="9.61258674055192"><ele>54.0</ele><time>2026-05-02T14:30:49Z</time></trkpt><trkpt lat="39.989724966234824" lon="9.612791472600568"><ele>54.0</ele><time>2026-05-02T14:30:50Z</time></trkpt><trkpt lat="39.98964790410183" lon="9.613013766637286"><ele>53.66666666666667</ele><time>2026-05-02T14:30:51Z</time></trkpt><trkpt lat="39.989575343339965" lon="9.61323961820446"><ele>53.333333333333336</ele><time>2026-05-02T14:30:52Z</time></trkpt><trkpt lat="39.98950275633867" lon="9.61346610880467"><ele>53.0</ele><time>2026-05-02T14:30:53Z</time></trkpt><trkpt lat="39.98943023861662" lon="9.613687686249886"><ele>52.66666666666667</ele><time>2026-05-02T14:30:54Z</time></trkpt><trkpt lat="39.989359181275496" lon="9.61390529164611"><ele>52.33333333333333</ele><time>2026-05-02T14:30:55Z</time></trkpt><trkpt lat="39.989287391574585" lon="9.614125139818464"><ele>52.0</ele><time>2026-05-02T14:30:56Z</time></trkpt><trkpt lat="39.98921639289822" lon="9.614342565568583"><ele>52.666666666666664</ele><time>2026-05-02T14:30:57Z</time></trkpt><trkpt lat="39.98914577688445" lon="9.614559566321919"><ele>53.33333333333333</ele><time>2026-05-02T14:30:58Z</time></trkpt><trkpt lat="39.98907559518991" lon="9.61477519071001"><ele>54.0</ele><time>2026-05-02T14:30:59Z</time></trkpt><trkpt lat="39.98900539168715" lon="9.614990882101731"><ele>54.0</ele><time>2026-05-02T14:31:00Z</time></trkpt><trkpt lat="39.988935323012946" lon="9.615206159248594"><ele>54.0</ele><time>2026-05-02T14:31:01Z</time></trkpt><trkpt lat="39.988865222320676" lon="9.615422903225802"><ele>54.0</ele><time>2026-05-02T14:31:02Z</time></trkpt><trkpt lat="39.98879662054325" lon="9.61563534036802"><ele>53.0</ele><time>2026-05-02T14:31:03Z</time></trkpt><trkpt lat="39.988727782729974" lon="9.615848508434913"><ele>52.0</ele><time>2026-05-02T14:31:04Z</time></trkpt><trkpt lat="39.98865853778793" lon="9.616062937246461"><ele>51.0</ele><time>2026-05-02T14:31:05Z</time></trkpt><trkpt lat="39.98858919765817" lon="9.616277660823283"><ele>50.33333333333333</ele><time>2026-05-02T14:31:06Z</time></trkpt><trkpt lat="39.98852061359077" lon="9.616490043123884"><ele>49.666666666666664</ele><time>2026-05-02T14:31:07Z</time></trkpt><trkpt lat="39.988464348072974" lon="9.616711354507705"><ele>49.0</ele><time>2026-05-02T14:31:08Z</time></trkpt><trkpt lat="39.988392181284546" lon="9.61691932680236"><ele>49.666666666666664</ele><time>2026-05-02T14:31:09Z</time></trkpt><trkpt lat="39.988324516092426" lon="9.6171274169998"><ele>50.33333333333333</ele><time>2026-05-02T14:31:10Z</time></trkpt><trkpt lat="39.98825244044104" lon="9.617333029833267"><ele>51.0</ele><time>2026-05-02T14:31:11Z</time></trkpt><trkpt lat="39.98817429622113" lon="9.617534232860187"><ele>51.0</ele><time>2026-05-02T14:31:12Z</time></trkpt><trkpt lat="39.98808488169541" lon="9.617725748542687"><ele>51.0</ele><time>2026-05-02T14:31:13Z</time></trkpt><trkpt lat="39.98798969022169" lon="9.617906542206956"><ele>51.0</ele><time>2026-05-02T14:31:14Z</time></trkpt><trkpt lat="39.98789477434191" lon="9.61807928345591"><ele>50.25</ele><time>2026-05-02T14:31:15Z</time></trkpt><trkpt lat="39.98780622501738" lon="9.618242934222712"><ele>49.5</ele><time>2026-05-02T14:31:16Z</time></trkpt><trkpt lat="39.987723053679964" lon="9.618399913752919"><ele>48.75</ele><time>2026-05-02T14:31:17Z</time></trkpt><trkpt lat="39.98763642449667" lon="9.618558877773179"><ele>48.0</ele><time>2026-05-02T14:31:18Z</time></trkpt><trkpt lat="39.98754969187121" lon="9.618719145703052"><ele>47.666666666666664</ele><time>2026-05-02T14:31:19Z</time></trkpt><trkpt lat="39.98746310171678" lon="9.618881005852222"><ele>47.33333333333333</ele><time>2026-05-02T14:31:20Z</time></trkpt><trkpt lat="39.987375198484315" lon="9.619046827852411"><ele>47.0</ele><time>2026-05-02T14:31:21Z</time></trkpt><trkpt lat="39.98728612846174" lon="9.61921618901027"><ele>47.0</ele><time>2026-05-02T14:31:22Z</time></trkpt><trkpt lat="39.987197004347216" lon="9.619385829853988"><ele>47.0</ele><time>2026-05-02T14:31:23Z</time></trkpt><trkpt lat="39.98710545989629" lon="9.619555951178132"><ele>47.0</ele><time>2026-05-02T14:31:24Z</time></trkpt><trkpt lat="39.987014428214486" lon="9.619722857413324"><ele>46.25</ele><time>2026-05-02T14:31:25Z</time></trkpt><trkpt lat="39.98692634860439" lon="9.61988432970543"><ele>45.5</ele><time>2026-05-02T14:31:26Z</time></trkpt><trkpt lat="39.98684169511608" lon="9.620036943909218"><ele>44.75</ele><time>2026-05-02T14:31:27Z</time></trkpt><trkpt lat="39.98676041290083" lon="9.620184959142138"><ele>44.0</ele><time>2026-05-02T14:31:28Z</time></trkpt><trkpt lat="39.98668194853415" lon="9.62033581701505"><ele>44.5</ele><time>2026-05-02T14:31:29Z</time></trkpt><trkpt lat="39.98660407629185" lon="9.62048252331898"><ele>45.0</ele><time>2026-05-02T14:31:30Z</time></trkpt><trkpt lat="39.986506574900744" lon="9.620624373714966"><ele>45.5</ele><time>2026-05-02T14:31:31Z</time></trkpt><trkpt lat="39.98643112457696" lon="9.620794760046024"><ele>46.0</ele><time>2026-05-02T14:31:32Z</time></trkpt><trkpt lat="39.98632806467876" lon="9.620949485460692"><ele>46.0</ele><time>2026-05-02T14:31:33Z</time></trkpt><trkpt lat="39.98623533580748" lon="9.621118367916752"><ele>46.0</ele><time>2026-05-02T14:31:34Z</time></trkpt><trkpt lat="39.98614147352982" lon="9.621289314589518"><ele>46.0</ele><time>2026-05-02T14:31:35Z</time></trkpt><trkpt lat="39.98604722377686" lon="9.621460966953778"><ele>45.333333333333336</ele><time>2026-05-02T14:31:36Z</time></trkpt><trkpt lat="39.98595252262045" lon="9.62163344143743"><ele>44.666666666666664</ele><time>2026-05-02T14:31:37Z</time></trkpt><trkpt lat="39.98585521681376" lon="9.621811607642583"><ele>44.0</ele><time>2026-05-02T14:31:38Z</time></trkpt><trkpt lat="39.98575333961238" lon="9.621998429728107"><ele>43.666666666666664</ele><time>2026-05-02T14:31:39Z</time></trkpt><trkpt lat="39.98564931689343" lon="9.62218918625909"><ele>43.333333333333336</ele><time>2026-05-02T14:31:40Z</time></trkpt><trkpt lat="39.98555054587862" lon="9.622396845364648"><ele>43.0</ele><time>2026-05-02T14:31:41Z</time></trkpt><trkpt lat="39.98544000885717" lon="9.622601284517565"><ele>43.0</ele><time>2026-05-02T14:31:42Z</time></trkpt><trkpt lat="39.985327183690906" lon="9.622810541403643"><ele>43.0</ele><time>2026-05-02T14:31:43Z</time></trkpt><trkpt lat="39.985212650853114" lon="9.62302257052758"><ele>43.0</ele><time>2026-05-02T14:31:44Z</time></trkpt><trkpt lat="39.98508705750048" lon="9.62321974461582"><ele>42.66666666666667</ele><time>2026-05-02T14:31:45Z</time></trkpt><trkpt lat="39.984971578030375" lon="9.62343133111361"><ele>42.333333333333336</ele><time>2026-05-02T14:31:46Z</time></trkpt><trkpt lat="39.98485559210807" lon="9.62364384555572"><ele>42.0</ele><time>2026-05-02T14:31:47Z</time></trkpt><trkpt lat="39.984741524668074" lon="9.623853985064581"><ele>41.0</ele><time>2026-05-02T14:31:48Z</time></trkpt><trkpt lat="39.984629497215465" lon="9.624061811413378"><ele>40.0</ele><time>2026-05-02T14:31:49Z</time></trkpt><trkpt lat="39.984515536109186" lon="9.624269344552241"><ele>39.0</ele><time>2026-05-02T14:31:50Z</time></trkpt><trkpt lat="39.984404776344476" lon="9.624475535319904"><ele>38.666666666666664</ele><time>2026-05-02T14:31:51Z</time></trkpt><trkpt lat="39.984294062877034" lon="9.62468123975366"><ele>38.33333333333333</ele><time>2026-05-02T14:31:52Z</time></trkpt><trkpt lat="39.98418543105283" lon="9.624881046203718"><ele>38.0</ele><time>2026-05-02T14:31:53Z</time></trkpt><trkpt lat="39.984080096243375" lon="9.62507293546985"><ele>39.33333333333333</ele><time>2026-05-02T14:31:54Z</time></trkpt><trkpt lat="39.98397720441749" lon="9.625262755677397"><ele>40.666666666666664</ele><time>2026-05-02T14:31:55Z</time></trkpt><trkpt lat="39.98387617628982" lon="9.625449925049393"><ele>42.0</ele><time>2026-05-02T14:31:56Z</time></trkpt><trkpt lat="39.98377788161633" lon="9.625639536290121"><ele>42.0</ele><time>2026-05-02T14:31:57Z</time></trkpt><trkpt lat="39.98368493407353" lon="9.62583289574108"><ele>42.0</ele><time>2026-05-02T14:31:58Z</time></trkpt><trkpt lat="39.9835994517718" lon="9.626039072773308"><ele>42.0</ele><time>2026-05-02T14:31:59Z</time></trkpt><trkpt lat="39.983515367244316" lon="9.62624484182968"><ele>42.0</ele><time>2026-05-02T14:32:00Z</time></trkpt><trkpt lat="39.983424498982174" lon="9.626452420324197"><ele>42.0</ele><time>2026-05-02T14:32:01Z</time></trkpt><trkpt lat="39.983315910417836" lon="9.626650608973943"><ele>42.0</ele><time>2026-05-02T14:32:02Z</time></trkpt><trkpt lat="39.98319843833635" lon="9.626848888919561"><ele>41.333333333333336</ele><time>2026-05-02T14:32:03Z</time></trkpt><trkpt lat="39.98307822696931" lon="9.627048154685301"><ele>40.66666666666667</ele><time>2026-05-02T14:32:04Z</time></trkpt><trkpt lat="39.98295643482298" lon="9.627250040796586"><ele>40.0</ele><time>2026-05-02T14:32:05Z</time></trkpt><trkpt lat="39.98283395878173" lon="9.62745306055297"><ele>40.0</ele><time>2026-05-02T14:32:06Z</time></trkpt><trkpt lat="39.98271275256672" lon="9.627653975410281"><ele>40.0</ele><time>2026-05-02T14:32:07Z</time></trkpt><trkpt lat="39.982590448833626" lon="9.627856710072056"><ele>40.0</ele><time>2026-05-02T14:32:08Z</time></trkpt><trkpt lat="39.982466118246194" lon="9.628063567261725"><ele>39.333333333333336</ele><time>2026-05-02T14:32:09Z</time></trkpt><trkpt lat="39.98234326339382" lon="9.628267931113863"><ele>38.666666666666664</ele><time>2026-05-02T14:32:10Z</time></trkpt><trkpt lat="39.98221991560856" lon="9.62847311493848"><ele>38.0</ele><time>2026-05-02T14:32:11Z</time></trkpt><trkpt lat="39.982097552739994" lon="9.628678681646468"><ele>38.0</ele><time>2026-05-02T14:32:12Z</time></trkpt><trkpt lat="39.98197677420797" lon="9.628881848040914"><ele>38.0</ele><time>2026-05-02T14:32:13Z</time></trkpt><trkpt lat="39.98185717509949" lon="9.629083030465583"><ele>38.0</ele><time>2026-05-02T14:32:14Z</time></trkpt><trkpt lat="39.98174066001033" lon="9.629279025166854"><ele>39.0</ele><time>2026-05-02T14:32:15Z</time></trkpt><trkpt lat="39.981625319353576" lon="9.629470374223652"><ele>40.0</ele><time>2026-05-02T14:32:16Z</time></trkpt><trkpt lat="39.981511523834655" lon="9.629657943662725"><ele>41.0</ele><time>2026-05-02T14:32:17Z</time></trkpt><trkpt lat="39.98139735434781" lon="9.629846129511693"><ele>41.0</ele><time>2026-05-02T14:32:18Z</time></trkpt><trkpt lat="39.981281395371745" lon="9.63003894202519"><ele>41.0</ele><time>2026-05-02T14:32:19Z</time></trkpt><trkpt lat="39.98116819181538" lon="9.630229515547784"><ele>41.0</ele><time>2026-05-02T14:32:20Z</time></trkpt><trkpt lat="39.9810559184562" lon="9.63041852312167"><ele>40.666666666666664</ele><time>2026-05-02T14:32:21Z</time></trkpt><trkpt lat="39.980944151723314" lon="9.63060667781016"><ele>40.333333333333336</ele><time>2026-05-02T14:32:22Z</time></trkpt><trkpt lat="39.98083307097095" lon="9.63079367767951"><ele>40.0</ele><time>2026-05-02T14:32:23Z</time></trkpt><trkpt lat="39.98072196072071" lon="9.630979527720037"><ele>39.333333333333336</ele><time>2026-05-02T14:32:24Z</time></trkpt><trkpt lat="39.980609772761966" lon="9.631165908025263"><ele>38.666666666666664</ele><time>2026-05-02T14:32:25Z</time></trkpt><trkpt lat="39.980497436129916" lon="9.63135253532467"><ele>38.0</ele><time>2026-05-02T14:32:26Z</time></trkpt><trkpt lat="39.98038355196592" lon="9.631542620850034"><ele>38.0</ele><time>2026-05-02T14:32:27Z</time></trkpt><trkpt lat="39.98026921023225" lon="9.631734670930033"><ele>38.0</ele><time>2026-05-02T14:32:28Z</time></trkpt><trkpt lat="39.980169980789505" lon="9.63193425807391"><ele>38.0</ele><time>2026-05-02T14:32:29Z</time></trkpt><trkpt lat="39.980047273365265" lon="9.632107086156614"><ele>39.666666666666664</ele><time>2026-05-02T14:32:30Z</time></trkpt><trkpt lat="39.97993472668173" lon="9.632294128513989"><ele>41.333333333333336</ele><time>2026-05-02T14:32:31Z</time></trkpt><trkpt lat="39.979823039192844" lon="9.632479607559988"><ele>43.0</ele><time>2026-05-02T14:32:32Z</time></trkpt><trkpt lat="39.979713080328835" lon="9.632662215884853"><ele>43.0</ele><time>2026-05-02T14:32:33Z</time></trkpt><trkpt lat="39.97960327306015" lon="9.63284457245585"><ele>43.0</ele><time>2026-05-02T14:32:34Z</time></trkpt><trkpt lat="39.97949418805413" lon="9.633025729566674"><ele>43.0</ele><time>2026-05-02T14:32:35Z</time></trkpt><trkpt lat="39.97938772190772" lon="9.633200731243397"><ele>43.0</ele><time>2026-05-02T14:32:36Z</time></trkpt><trkpt lat="39.97928307454504" lon="9.633373540595985"><ele>43.0</ele><time>2026-05-02T14:32:37Z</time></trkpt><trkpt lat="39.979179798058816" lon="9.633546149286632"><ele>43.0</ele><time>2026-05-02T14:32:38Z</time></trkpt><trkpt lat="39.979079198391105" lon="9.633714284138087"><ele>44.333333333333336</ele><time>2026-05-02T14:32:39Z</time></trkpt><trkpt lat="39.97897733119898" lon="9.633884537436476"><ele>45.666666666666664</ele><time>2026-05-02T14:32:40Z</time></trkpt><trkpt lat="39.97887743590998" lon="9.63405149504256"><ele>47.0</ele><time>2026-05-02T14:32:41Z</time></trkpt><trkpt lat="39.978777233572195" lon="9.634219038283295"><ele>47.0</ele><time>2026-05-02T14:32:42Z</time></trkpt><trkpt lat="39.97863638413044" lon="9.634454567958102"><ele>47.0</ele><time>2026-05-02T14:32:43Z</time></trkpt><trkpt lat="39.97853411572507" lon="9.634623019827018"><ele>47.0</ele><time>2026-05-02T14:32:44Z</time></trkpt><trkpt lat="39.97843531339415" lon="9.634783859970337"><ele>46.33333333333333</ele><time>2026-05-02T14:32:45Z</time></trkpt><trkpt lat="39.9783315592092" lon="9.634941068213259"><ele>45.666666666666664</ele><time>2026-05-02T14:32:46Z</time></trkpt><trkpt lat="39.9782203974321" lon="9.63509702572784"><ele>45.0</ele><time>2026-05-02T14:32:47Z</time></trkpt><trkpt lat="39.97808669283043" lon="9.635246679865674"><ele>44.333333333333336</ele><time>2026-05-02T14:32:48Z</time></trkpt><trkpt lat="39.9779436229308" lon="9.635384127226795"><ele>43.66666666666667</ele><time>2026-05-02T14:32:49Z</time></trkpt><trkpt lat="39.977791956478065" lon="9.635524921803789"><ele>43.0</ele><time>2026-05-02T14:32:50Z</time></trkpt><trkpt lat="39.97763131582876" lon="9.63567404731202"><ele>42.0</ele><time>2026-05-02T14:32:51Z</time></trkpt><trkpt lat="39.97746759442737" lon="9.635827242652585"><ele>41.0</ele><time>2026-05-02T14:32:52Z</time></trkpt><trkpt lat="39.97730203355856" lon="9.635983749354203"><ele>40.0</ele><time>2026-05-02T14:32:53Z</time></trkpt><trkpt lat="39.977135437668906" lon="9.636137777298385"><ele>38.66666666666667</ele><time>2026-05-02T14:32:54Z</time></trkpt><trkpt lat="39.976982975653044" lon="9.636308001420504"><ele>37.333333333333336</ele><time>2026-05-02T14:32:55Z</time></trkpt><trkpt lat="39.9768156946685" lon="9.636460026205839"><ele>36.0</ele><time>2026-05-02T14:32:56Z</time></trkpt><trkpt lat="39.976648343121646" lon="9.636614798555387"><ele>36.0</ele><time>2026-05-02T14:32:57Z</time></trkpt><trkpt lat="39.97648854594798" lon="9.63676408656119"><ele>36.0</ele><time>2026-05-02T14:32:58Z</time></trkpt><trkpt lat="39.97632855219602" lon="9.636893335884674"><ele>36.0</ele><time>2026-05-02T14:32:59Z</time></trkpt><trkpt lat="39.9761827647669" lon="9.63702943346049"><ele>35.666666666666664</ele><time>2026-05-02T14:33:00Z</time></trkpt><trkpt lat="39.976041669882385" lon="9.637161149174966"><ele>35.33333333333333</ele><time>2026-05-02T14:33:01Z</time></trkpt><trkpt lat="39.9759093514278" lon="9.637284671865388"><ele>35.0</ele><time>2026-05-02T14:33:02Z</time></trkpt><trkpt lat="39.975775508518865" lon="9.637409617674052"><ele>34.0</ele><time>2026-05-02T14:33:03Z</time></trkpt><trkpt lat="39.97565312315879" lon="9.63754998040762"><ele>33.0</ele><time>2026-05-02T14:33:04Z</time></trkpt><trkpt lat="39.97551259938861" lon="9.63765671740825"><ele>32.0</ele><time>2026-05-02T14:33:05Z</time></trkpt><trkpt lat="39.97538074935704" lon="9.637777737375359"><ele>31.666666666666664</ele><time>2026-05-02T14:33:06Z</time></trkpt><trkpt lat="39.97524097912755" lon="9.637935712274114"><ele>31.333333333333336</ele><time>2026-05-02T14:33:07Z</time></trkpt><trkpt lat="39.97509862759845" lon="9.638062888581283"><ele>31.0</ele><time>2026-05-02T14:33:08Z</time></trkpt><trkpt lat="39.97496091499823" lon="9.63819883592338"><ele>31.666666666666668</ele><time>2026-05-02T14:33:09Z</time></trkpt><trkpt lat="39.9748206644312" lon="9.638332436537908"><ele>32.333333333333336</ele><time>2026-05-02T14:33:10Z</time></trkpt><trkpt lat="39.97467146658551" lon="9.638464742477936"><ele>33.0</ele><time>2026-05-02T14:33:11Z</time></trkpt><trkpt lat="39.97453566049195" lon="9.638593809449253"><ele>32.333333333333336</ele><time>2026-05-02T14:33:12Z</time></trkpt><trkpt lat="39.97438798617974" lon="9.638722004809026"><ele>31.666666666666668</ele><time>2026-05-02T14:33:13Z</time></trkpt><trkpt lat="39.974236141713014" lon="9.638861175898398"><ele>31.0</ele><time>2026-05-02T14:33:14Z</time></trkpt><trkpt lat="39.97408297687971" lon="9.639003823400264"><ele>31.0</ele><time>2026-05-02T14:33:15Z</time></trkpt><trkpt lat="39.973923444308085" lon="9.6391505690263"><ele>31.0</ele><time>2026-05-02T14:33:16Z</time></trkpt><trkpt lat="39.973763197373785" lon="9.639297779917408"><ele>31.0</ele><time>2026-05-02T14:33:17Z</time></trkpt><trkpt lat="39.97360215669517" lon="9.639452508304654"><ele>30.333333333333336</ele><time>2026-05-02T14:33:18Z</time></trkpt><trkpt lat="39.97343963407483" lon="9.639609149838948"><ele>29.666666666666664</ele><time>2026-05-02T14:33:19Z</time></trkpt><trkpt lat="39.97329719269281" lon="9.63974267237492"><ele>29.0</ele><time>2026-05-02T14:33:20Z</time></trkpt><trkpt lat="39.97310392548004" lon="9.639925673839691"><ele>28.666666666666664</ele><time>2026-05-02T14:33:21Z</time></trkpt><trkpt lat="39.972931927054404" lon="9.64008793367653"><ele>28.333333333333336</ele><time>2026-05-02T14:33:22Z</time></trkpt><trkpt lat="39.97275123314204" lon="9.64025636837862"><ele>28.0</ele><time>2026-05-02T14:33:23Z</time></trkpt><trkpt lat="39.97257440434718" lon="9.640420648588751"><ele>27.0</ele><time>2026-05-02T14:33:24Z</time></trkpt><trkpt lat="39.972399989211816" lon="9.64058036954315"><ele>26.0</ele><time>2026-05-02T14:33:25Z</time></trkpt><trkpt lat="39.97221551671922" lon="9.640727732263986"><ele>25.0</ele><time>2026-05-02T14:33:26Z</time></trkpt><trkpt lat="39.972041298869364" lon="9.64089169391699"><ele>25.0</ele><time>2026-05-02T14:33:27Z</time></trkpt><trkpt lat="39.97186170054915" lon="9.641060516659092"><ele>25.0</ele><time>2026-05-02T14:33:28Z</time></trkpt><trkpt lat="39.97169690232771" lon="9.641234806130832"><ele>25.0</ele><time>2026-05-02T14:33:29Z</time></trkpt><trkpt lat="39.971509123413334" lon="9.641390871196156"><ele>23.666666666666668</ele><time>2026-05-02T14:33:30Z</time></trkpt><trkpt lat="39.97134001920738" lon="9.64157320006646"><ele>22.333333333333336</ele><time>2026-05-02T14:33:31Z</time></trkpt><trkpt lat="39.971161906116386" lon="9.641738588042088"><ele>21.0</ele><time>2026-05-02T14:33:32Z</time></trkpt><trkpt lat="39.9709797431779" lon="9.641883914460498"><ele>20.0</ele><time>2026-05-02T14:33:33Z</time></trkpt><trkpt lat="39.970809635479824" lon="9.642042672149175"><ele>19.0</ele><time>2026-05-02T14:33:34Z</time></trkpt><trkpt lat="39.9706406289364" lon="9.642199044379868"><ele>18.0</ele><time>2026-05-02T14:33:35Z</time></trkpt><trkpt lat="39.970486577062715" lon="9.642367290070082"><ele>18.0</ele><time>2026-05-02T14:33:36Z</time></trkpt><trkpt lat="39.97032043566181" lon="9.64252187896425"><ele>18.0</ele><time>2026-05-02T14:33:37Z</time></trkpt><trkpt lat="39.97015611490712" lon="9.64267686221867"><ele>18.0</ele><time>2026-05-02T14:33:38Z</time></trkpt><trkpt lat="39.96999163348089" lon="9.642832069752588"><ele>17.333333333333332</ele><time>2026-05-02T14:33:39Z</time></trkpt><trkpt lat="39.969832820295395" lon="9.642978371666715"><ele>16.666666666666664</ele><time>2026-05-02T14:33:40Z</time></trkpt><trkpt lat="39.96967724200087" lon="9.643121366355775"><ele>16.0</ele><time>2026-05-02T14:33:41Z</time></trkpt><trkpt lat="39.96952309082506" lon="9.643272819897382"><ele>16.0</ele><time>2026-05-02T14:33:42Z</time></trkpt><trkpt lat="39.969379681829174" lon="9.643379066584254"><ele>16.0</ele><time>2026-05-02T14:33:43Z</time></trkpt><trkpt lat="39.96926603172062" lon="9.64350816834668"><ele>16.0</ele><time>2026-05-02T14:33:44Z</time></trkpt><trkpt lat="39.96913801518344" lon="9.64361974678071"><ele>15.666666666666666</ele><time>2026-05-02T14:33:45Z</time></trkpt><trkpt lat="39.96902245391425" lon="9.643742012917627"><ele>15.333333333333332</ele><time>2026-05-02T14:33:46Z</time></trkpt><trkpt lat="39.96890709137984" lon="9.64387024618207"><ele>15.0</ele><time>2026-05-02T14:33:47Z</time></trkpt><trkpt lat="39.96880383415383" lon="9.644044162277215"><ele>15.0</ele><time>2026-05-02T14:33:48Z</time></trkpt><trkpt lat="39.968715437957464" lon="9.644232488470676"><ele>15.0</ele><time>2026-05-02T14:33:49Z</time></trkpt><trkpt lat="39.96865107912687" lon="9.644459405828686"><ele>15.0</ele><time>2026-05-02T14:33:50Z</time></trkpt><trkpt lat="39.96858883089601" lon="9.644700937191741"><ele>15.333333333333332</ele><time>2026-05-02T14:33:51Z</time></trkpt><trkpt lat="39.968536468388166" lon="9.644932773566925"><ele>15.666666666666666</ele><time>2026-05-02T14:33:52Z</time></trkpt><trkpt lat="39.96847106622718" lon="9.645218335167018"><ele>16.0</ele><time>2026-05-02T14:33:53Z</time></trkpt><trkpt lat="39.968407350273516" lon="9.645500110007216"><ele>15.5</ele><time>2026-05-02T14:33:54Z</time></trkpt><trkpt lat="39.968341257670474" lon="9.645788322019355"><ele>15.0</ele><time>2026-05-02T14:33:55Z</time></trkpt><trkpt lat="39.968268576576214" lon="9.6460929051441"><ele>14.0</ele><time>2026-05-02T14:33:56Z</time></trkpt><trkpt lat="39.96819654773764" lon="9.646408250069342"><ele>13.0</ele><time>2026-05-02T14:33:57Z</time></trkpt><trkpt lat="39.9681257410395" lon="9.646718244421393"><ele>13.0</ele><time>2026-05-02T14:33:58Z</time></trkpt><trkpt lat="39.96805673738828" lon="9.64701615160786"><ele>13.0</ele><time>2026-05-02T14:33:59Z</time></trkpt><trkpt lat="39.96798706270789" lon="9.64731230231667"><ele>13.0</ele><time>2026-05-02T14:34:00Z</time></trkpt><trkpt lat="39.96791685348689" lon="9.647610725019208"><ele>13.0</ele><time>2026-05-02T14:34:01Z</time></trkpt><trkpt lat="39.967851277419676" lon="9.647889169171428"><ele>13.333333333333332</ele><time>2026-05-02T14:34:02Z</time></trkpt><trkpt lat="39.96778864221386" lon="9.648154885252177"><ele>13.666666666666668</ele><time>2026-05-02T14:34:03Z</time></trkpt><trkpt lat="39.967728083654805" lon="9.648411791623564"><ele>14.0</ele><time>2026-05-02T14:34:04Z</time></trkpt><trkpt lat="39.96766902475157" lon="9.648670441002727"><ele>14.333333333333334</ele><time>2026-05-02T14:34:05Z</time></trkpt><trkpt lat="39.96762052200877" lon="9.648933588252133"><ele>14.666666666666668</ele><time>2026-05-02T14:34:06Z</time></trkpt><trkpt lat="39.96759575018279" lon="9.649211967679397"><ele>15.0</ele><time>2026-05-02T14:34:07Z</time></trkpt><trkpt lat="39.96758223802255" lon="9.64948686303769"><ele>15.333333333333332</ele><time>2026-05-02T14:34:08Z</time></trkpt><trkpt lat="39.96756928736434" lon="9.649768417030739"><ele>15.666666666666666</ele><time>2026-05-02T14:34:09Z</time></trkpt><trkpt lat="39.967556323946276" lon="9.650047504194438"><ele>16.0</ele><time>2026-05-02T14:34:10Z</time></trkpt><trkpt lat="39.967543426757615" lon="9.650331034269485"><ele>16.333333333333332</ele><time>2026-05-02T14:34:11Z</time></trkpt><trkpt lat="39.967531704864506" lon="9.65060265537402"><ele>16.666666666666668</ele><time>2026-05-02T14:34:12Z</time></trkpt><trkpt lat="39.96752077622031" lon="9.65086019254791"><ele>17.0</ele><time>2026-05-02T14:34:13Z</time></trkpt><trkpt lat="39.96751015177238" lon="9.651110561253699"><ele>16.666666666666668</ele><time>2026-05-02T14:34:14Z</time></trkpt><trkpt lat="39.967499882547386" lon="9.651352459073882"><ele>16.333333333333332</ele><time>2026-05-02T14:34:15Z</time></trkpt><trkpt lat="39.96750318753478" lon="9.651589572905506"><ele>16.0</ele><time>2026-05-02T14:34:16Z</time></trkpt><trkpt lat="39.96749446174488" lon="9.651819494376992"><ele>15.666666666666666</ele><time>2026-05-02T14:34:17Z</time></trkpt><trkpt lat="39.96748042445298" lon="9.652043810740867"><ele>15.333333333333332</ele><time>2026-05-02T14:34:18Z</time></trkpt><trkpt lat="39.967495377283946" lon="9.65227390903458"><ele>15.0</ele><time>2026-05-02T14:34:19Z</time></trkpt><trkpt lat="39.967540944370434" lon="9.652518871361288"><ele>15.333333333333332</ele><time>2026-05-02T14:34:20Z</time></trkpt><trkpt lat="39.96761560756733" lon="9.652767891870322"><ele>15.666666666666666</ele><time>2026-05-02T14:34:21Z</time></trkpt><trkpt lat="39.96767755889934" lon="9.65303020288539"><ele>16.0</ele><time>2026-05-02T14:34:22Z</time></trkpt><trkpt lat="39.96773745506784" lon="9.653289777474562"><ele>16.0</ele><time>2026-05-02T14:34:23Z</time></trkpt><trkpt lat="39.96779519711101" lon="9.653538175744888"><ele>16.0</ele><time>2026-05-02T14:34:24Z</time></trkpt><trkpt lat="39.96785026729024" lon="9.653775895151616"><ele>16.0</ele><time>2026-05-02T14:34:25Z</time></trkpt><trkpt lat="39.96790420808187" lon="9.654005914112577"><ele>16.0</ele><time>2026-05-02T14:34:26Z</time></trkpt><trkpt lat="39.967959810847695" lon="9.654225434081987"><ele>16.0</ele><time>2026-05-02T14:34:27Z</time></trkpt><trkpt lat="39.968011056950445" lon="9.65444595765996"><ele>16.0</ele><time>2026-05-02T14:34:28Z</time></trkpt><trkpt lat="39.96805743081694" lon="9.654663311972966"><ele>15.333333333333332</ele><time>2026-05-02T14:34:29Z</time></trkpt><trkpt lat="39.96810450449835" lon="9.654871796242004"><ele>14.666666666666668</ele><time>2026-05-02T14:34:30Z</time></trkpt><trkpt lat="39.96815833394194" lon="9.655082357159834"><ele>14.0</ele><time>2026-05-02T14:34:31Z</time></trkpt><trkpt lat="39.96819142903495" lon="9.655298244472412"><ele>14.0</ele><time>2026-05-02T14:34:32Z</time></trkpt><trkpt lat="39.968237836869484" lon="9.655506425360944"><ele>14.0</ele><time>2026-05-02T14:34:33Z</time></trkpt><trkpt lat="39.96828389962915" lon="9.655703644810949"><ele>14.0</ele><time>2026-05-02T14:34:34Z</time></trkpt><trkpt lat="39.96834156927438" lon="9.65588761167474"><ele>14.25</ele><time>2026-05-02T14:34:35Z</time></trkpt><trkpt lat="39.96838307961856" lon="9.656056121220741"><ele>14.5</ele><time>2026-05-02T14:34:36Z</time></trkpt><trkpt lat="39.96842020396817" lon="9.65621701231356"><ele>14.75</ele><time>2026-05-02T14:34:37Z</time></trkpt><trkpt lat="39.96843978161735" lon="9.65637105979965"><ele>15.0</ele><time>2026-05-02T14:34:38Z</time></trkpt><trkpt lat="39.96847200237136" lon="9.656509014116885"><ele>15.0</ele><time>2026-05-02T14:34:39Z</time></trkpt><trkpt lat="39.96850284225798" lon="9.656641004031377"><ele>15.0</ele><time>2026-05-02T14:34:40Z</time></trkpt><trkpt lat="39.968532591406934" lon="9.656767869137227"><ele>15.0</ele><time>2026-05-02T14:34:41Z</time></trkpt><trkpt lat="39.968562709058524" lon="9.656896307611554"><ele>15.0</ele><time>2026-05-02T14:34:42Z</time></trkpt><trkpt lat="39.96859110161942" lon="9.657020272661448"><ele>15.0</ele><time>2026-05-02T14:34:43Z</time></trkpt><trkpt lat="39.96861783470278" lon="9.657140121648801"><ele>14.8</ele><time>2026-05-02T14:34:44Z</time></trkpt><trkpt lat="39.96864437797655" lon="9.657261077234162"><ele>14.6</ele><time>2026-05-02T14:34:45Z</time></trkpt><trkpt lat="39.96867176660654" lon="9.657386506572607"><ele>14.399999999999999</ele><time>2026-05-02T14:34:46Z</time></trkpt><trkpt lat="39.96870175271755" lon="9.657516354916858"><ele>14.2</ele><time>2026-05-02T14:34:47Z</time></trkpt><trkpt lat="39.96873163123319" lon="9.657647306777134"><ele>14.0</ele><time>2026-05-02T14:34:48Z</time></trkpt><trkpt lat="39.96877433048738" lon="9.657771682451973"><ele>13.6</ele><time>2026-05-02T14:34:49Z</time></trkpt><trkpt lat="39.968800424377065" lon="9.65789933692671"><ele>13.2</ele><time>2026-05-02T14:34:50Z</time></trkpt><trkpt lat="39.96883270500546" lon="9.658034354294195"><ele>12.799999999999999</ele><time>2026-05-02T14:34:51Z</time></trkpt><trkpt lat="39.96886176309245" lon="9.658166719727177"><ele>12.399999999999999</ele><time>2026-05-02T14:34:52Z</time></trkpt><trkpt lat="39.968895066814014" lon="9.658300060962828"><ele>12.0</ele><time>2026-05-02T14:34:53Z</time></trkpt><trkpt lat="39.96892519849406" lon="9.65843638767523"><ele>12.0</ele><time>2026-05-02T14:34:54Z</time></trkpt><trkpt lat="39.96895595303558" lon="9.658564310469917"><ele>12.0</ele><time>2026-05-02T14:34:55Z</time></trkpt><trkpt lat="39.96898493765554" lon="9.658692418957138"><ele>12.0</ele><time>2026-05-02T14:34:56Z</time></trkpt><trkpt lat="39.96901277499893" lon="9.658817987810874"><ele>12.0</ele><time>2026-05-02T14:34:57Z</time></trkpt><trkpt lat="39.9690440489416" lon="9.65895355519027"><ele>12.0</ele><time>2026-05-02T14:34:58Z</time></trkpt><trkpt lat="39.969082765756475" lon="9.6590910652624"><ele>11.8</ele><time>2026-05-02T14:34:59Z</time></trkpt><trkpt lat="39.96910216739624" lon="9.659227906474921"><ele>11.6</ele><time>2026-05-02T14:35:00Z</time></trkpt><trkpt lat="39.969131836464" lon="9.6593589337281"><ele>11.4</ele><time>2026-05-02T14:35:01Z</time></trkpt><trkpt lat="39.969162252641006" lon="9.65949326043256"><ele>11.200000000000001</ele><time>2026-05-02T14:35:02Z</time></trkpt><trkpt lat="39.96919124537194" lon="9.659619377015458"><ele>11.0</ele><time>2026-05-02T14:35:03Z</time></trkpt><trkpt lat="39.96922009939725" lon="9.659744426636944"><ele>11.4</ele><time>2026-05-02T14:35:04Z</time></trkpt><trkpt lat="39.96926107821836" lon="9.65985896153096"><ele>11.8</ele><time>2026-05-02T14:35:05Z</time></trkpt><trkpt lat="39.96929028558227" lon="9.659977131185572"><ele>12.200000000000001</ele><time>2026-05-02T14:35:06Z</time></trkpt><trkpt lat="39.96931243470867" lon="9.660091246030914"><ele>12.600000000000001</ele><time>2026-05-02T14:35:07Z</time></trkpt><trkpt lat="39.96933916004677" lon="9.660203521000478"><ele>13.0</ele><time>2026-05-02T14:35:08Z</time></trkpt><trkpt lat="39.96936694477569" lon="9.660312896603127"><ele>12.999999999999998</ele><time>2026-05-02T14:35:09Z</time></trkpt><trkpt lat="39.969389322471265" lon="9.660419915218183"><ele>13.0</ele><time>2026-05-02T14:35:10Z</time></trkpt><trkpt lat="39.9694149596738" lon="9.660524170513943"><ele>13.0</ele><time>2026-05-02T14:35:11Z</time></trkpt><trkpt lat="39.9694425017666" lon="9.660632916339349"><ele>13.0</ele><time>2026-05-02T14:35:12Z</time></trkpt><trkpt lat="39.96945938620397" lon="9.660728725901825"><ele>12.999999999999998</ele><time>2026-05-02T14:35:13Z</time></trkpt><trkpt lat="39.96947769195734" lon="9.660821121095951"><ele>13.0</ele><time>2026-05-02T14:35:14Z</time></trkpt><trkpt lat="39.96947965872013" lon="9.660960382328652"><ele>12.999999999999998</ele><time>2026-05-02T14:35:16Z</time></trkpt><trkpt lat="39.969447972776514" lon="9.661043786248433"><ele>13.0</ele><time>2026-05-02T14:35:31Z</time></trkpt><trkpt lat="39.96953871437532" lon="9.661170986325939"><ele>13.0</ele><time>2026-05-02T14:35:33Z</time></trkpt><trkpt lat="39.9696036926891" lon="9.661223238782634"><ele>13.0</ele><time>2026-05-02T14:35:34Z</time></trkpt><trkpt lat="39.969661712421896" lon="9.661270739674915"><ele>12.999999999999998</ele><time>2026-05-02T14:35:35Z</time></trkpt><trkpt lat="39.96973748095354" lon="9.661325027764574"><ele>13.0</ele><time>2026-05-02T14:35:36Z</time></trkpt><trkpt lat="39.96981842382151" lon="9.661381457554468"><ele>12.833333333333332</ele><time>2026-05-02T14:35:37Z</time></trkpt><trkpt lat="39.96989803415699" lon="9.66143372734613"><ele>12.666666666666666</ele><time>2026-05-02T14:35:38Z</time></trkpt><trkpt lat="39.969968579017724" lon="9.661482010874558"><ele>12.5</ele><time>2026-05-02T14:35:39Z</time></trkpt><trkpt lat="39.97004667225842" lon="9.661525003619097"><ele>12.333333333333332</ele><time>2026-05-02T14:35:40Z</time></trkpt><trkpt lat="39.970112756131904" lon="9.661580221913054"><ele>12.166666666666666</ele><time>2026-05-02T14:35:41Z</time></trkpt><trkpt lat="39.970159455204275" lon="9.661644956313234"><ele>12.0</ele><time>2026-05-02T14:35:42Z</time></trkpt><trkpt lat="39.970201739716344" lon="9.661717277285774"><ele>13.0</ele><time>2026-05-02T14:35:43Z</time></trkpt><trkpt lat="39.970225205678794" lon="9.661814985328444"><ele>14.0</ele><time>2026-05-02T14:35:44Z</time></trkpt><trkpt lat="39.97023865794758" lon="9.661929584244545"><ele>15.0</ele><time>2026-05-02T14:35:45Z</time></trkpt><trkpt lat="39.970245280865875" lon="9.662054280402486"><ele>16.0</ele><time>2026-05-02T14:35:46Z</time></trkpt><trkpt lat="39.970252395186144" lon="9.66218707549247"><ele>17.0</ele><time>2026-05-02T14:35:47Z</time></trkpt><trkpt lat="39.970263683376494" lon="9.662326738434565"><ele>17.0</ele><time>2026-05-02T14:35:48Z</time></trkpt><trkpt lat="39.97026471690182" lon="9.662460264272305"><ele>17.0</ele><time>2026-05-02T14:35:49Z</time></trkpt><trkpt lat="39.97028471524497" lon="9.662585682684036"><ele>17.0</ele><time>2026-05-02T14:35:50Z</time></trkpt><trkpt lat="39.97031733104238" lon="9.662705254158814"><ele>17.0</ele><time>2026-05-02T14:35:51Z</time></trkpt><trkpt lat="39.97036529375319" lon="9.662824972462422"><ele>17.0</ele><time>2026-05-02T14:35:52Z</time></trkpt><trkpt lat="39.97042499549839" lon="9.662943313297255"><ele>17.0</ele><time>2026-05-02T14:35:53Z</time></trkpt><trkpt lat="39.970493368691756" lon="9.663045373709114"><ele>17.0</ele><time>2026-05-02T14:35:54Z</time></trkpt><trkpt lat="39.9705691776271" lon="9.663144941809714"><ele>17.0</ele><time>2026-05-02T14:35:55Z</time></trkpt><trkpt lat="39.97065102368213" lon="9.663242777065049"><ele>17.0</ele><time>2026-05-02T14:35:56Z</time></trkpt><trkpt lat="39.97073278813007" lon="9.663337855582744"><ele>17.0</ele><time>2026-05-02T14:35:56.999Z</time></trkpt><trkpt lat="39.970813462293364" lon="9.663430898693264"><ele>16.4</ele><time>2026-05-02T14:35:57.999Z</time></trkpt><trkpt lat="39.97088948604125" lon="9.663519838005275"><ele>15.799999999999999</ele><time>2026-05-02T14:35:58.999Z</time></trkpt><trkpt lat="39.97096263672291" lon="9.663609963908812"><ele>15.2</ele><time>2026-05-02T14:35:59.999Z</time></trkpt><trkpt lat="39.971033172652476" lon="9.66369742648374"><ele>14.6</ele><time>2026-05-02T14:36:00.999Z</time></trkpt><trkpt lat="39.97111130883564" lon="9.663768269558387"><ele>14.0</ele><time>2026-05-02T14:36:01.999Z</time></trkpt><trkpt lat="39.971176910661505" lon="9.663853646136168"><ele>13.799999999999999</ele><time>2026-05-02T14:36:02.999Z</time></trkpt><trkpt lat="39.971247800420564" lon="9.663932021105586"><ele>13.599999999999998</ele><time>2026-05-02T14:36:03.999Z</time></trkpt><trkpt lat="39.9713230625456" lon="9.664000930552579"><ele>13.4</ele><time>2026-05-02T14:36:04.999Z</time></trkpt><trkpt lat="39.9714064859034" lon="9.664057172413298"><ele>13.2</ele><time>2026-05-02T14:36:05.999Z</time></trkpt><trkpt lat="39.97149574346892" lon="9.664097251296019"><ele>13.0</ele><time>2026-05-02T14:36:06.999Z</time></trkpt><trkpt lat="39.97159161862769" lon="9.664121200283263"><ele>11.6</ele><time>2026-05-02T14:36:07.999Z</time></trkpt><trkpt lat="39.97169547620049" lon="9.664114869286047"><ele>10.200000000000001</ele><time>2026-05-02T14:36:08.999Z</time></trkpt><trkpt lat="39.971805038487375" lon="9.66409319305018"><ele>8.8</ele><time>2026-05-02T14:36:09.999Z</time></trkpt><trkpt lat="39.97191282205778" lon="9.664055584899367"><ele>7.4</ele><time>2026-05-02T14:36:10.999Z</time></trkpt><trkpt lat="39.97202428927817" lon="9.664010241896554"><ele>6.0</ele><time>2026-05-02T14:36:11.999Z</time></trkpt><trkpt lat="39.97214289306796" lon="9.663963931436635"><ele>6.0</ele><time>2026-05-02T14:36:12.999Z</time></trkpt><trkpt lat="39.972270575729475" lon="9.663916301733748"><ele>6.0</ele><time>2026-05-02T14:36:13.999Z</time></trkpt><trkpt lat="39.97238944140103" lon="9.663874091610428"><ele>6.0</ele><time>2026-05-02T14:36:14.999Z</time></trkpt><trkpt lat="39.972509990153725" lon="9.663823809274191"><ele>6.0</ele><time>2026-05-02T14:36:15.999Z</time></trkpt><trkpt lat="39.97263475962485" lon="9.663769771059783"><ele>6.25</ele><time>2026-05-02T14:36:16.999Z</time></trkpt><trkpt lat="39.9727605154429" lon="9.663717977017901"><ele>6.5</ele><time>2026-05-02T14:36:17.999Z</time></trkpt><trkpt lat="39.972886518408515" lon="9.663666747330355"><ele>6.75</ele><time>2026-05-02T14:36:18.999Z</time></trkpt><trkpt lat="39.973014143193986" lon="9.663622379000351"><ele>7.0</ele><time>2026-05-02T14:36:19.999Z</time></trkpt><trkpt lat="39.973145392222605" lon="9.663579625950655"><ele>7.0</ele><time>2026-05-02T14:36:20.999Z</time></trkpt><trkpt lat="39.973279947122535" lon="9.663544414972263"><ele>7.0</ele><time>2026-05-02T14:36:21.999Z</time></trkpt><trkpt lat="39.97341922181445" lon="9.663519739223664"><ele>7.0</ele><time>2026-05-02T14:36:22.999Z</time></trkpt><trkpt lat="39.97356342240072" lon="9.663506354447208"><ele>7.0</ele><time>2026-05-02T14:36:23.999Z</time></trkpt><trkpt lat="39.9737078273876" lon="9.663501354558457"><ele>7.0</ele><time>2026-05-02T14:36:24.999Z</time></trkpt><trkpt lat="39.973852584824634" lon="9.663513100748839"><ele>7.0</ele><time>2026-05-02T14:36:25.999Z</time></trkpt><trkpt lat="39.97399337992765" lon="9.663535276001626"><ele>7.0</ele><time>2026-05-02T14:36:26.999Z</time></trkpt><trkpt lat="39.97413165928161" lon="9.663566425305817"><ele>7.0</ele><time>2026-05-02T14:36:27.999Z</time></trkpt><trkpt lat="39.97427159054798" lon="9.663600998953598"><ele>7.0</ele><time>2026-05-02T14:36:28.999Z</time></trkpt><trkpt lat="39.97440670529748" lon="9.663647859600234"><ele>7.0</ele><time>2026-05-02T14:36:29.999Z</time></trkpt><trkpt lat="39.974533196121385" lon="9.663706904082467"><ele>7.0</ele><time>2026-05-02T14:36:30.999Z</time></trkpt><trkpt lat="39.974654024874575" lon="9.66377467249809"><ele>7.0</ele><time>2026-05-02T14:36:31.999Z</time></trkpt><trkpt lat="39.974773847278456" lon="9.663850508730617"><ele>7.0</ele><time>2026-05-02T14:36:32.999Z</time></trkpt><trkpt lat="39.97488616670544" lon="9.663934129227899"><ele>7.0</ele><time>2026-05-02T14:36:33.999Z</time></trkpt><trkpt lat="39.97499343030036" lon="9.664021524371798"><ele>7.0</ele><time>2026-05-02T14:36:34.999Z</time></trkpt><trkpt lat="39.975102100623566" lon="9.664115162770111"><ele>7.0</ele><time>2026-05-02T14:36:36Z</time></trkpt><trkpt lat="39.97521298809033" lon="9.664213633222422"><ele>7.25</ele><time>2026-05-02T14:36:37Z</time></trkpt><trkpt lat="39.975326686241196" lon="9.664317108274401"><ele>7.5</ele><time>2026-05-02T14:36:38Z</time></trkpt><trkpt lat="39.97544056835997" lon="9.664420657704868"><ele>7.75</ele><time>2026-05-02T14:36:39Z</time></trkpt><trkpt lat="39.97555182064587" lon="9.664520972549568"><ele>8.0</ele><time>2026-05-02T14:36:40Z</time></trkpt><trkpt lat="39.975657120250645" lon="9.664616983475975"><ele>8.200000000000001</ele><time>2026-05-02T14:36:41Z</time></trkpt><trkpt lat="39.97575931266594" lon="9.66470557543759"><ele>8.4</ele><time>2026-05-02T14:36:42Z</time></trkpt><trkpt lat="39.97584876255176" lon="9.66478061203501"><ele>8.600000000000001</ele><time>2026-05-02T14:36:43Z</time></trkpt><trkpt lat="39.975924123780985" lon="9.664851248189862"><ele>8.8</ele><time>2026-05-02T14:36:44Z</time></trkpt><trkpt lat="39.975981921603996" lon="9.66492434710836"><ele>9.0</ele><time>2026-05-02T14:36:45Z</time></trkpt><trkpt lat="39.97602059440782" lon="9.665008333895255"><ele>9.4</ele><time>2026-05-02T14:36:46Z</time></trkpt><trkpt lat="39.97603479286736" lon="9.665097217161764"><ele>9.8</ele><time>2026-05-02T14:36:47Z</time></trkpt><trkpt lat="39.97603035568923" lon="9.665200662014048"><ele>10.200000000000001</ele><time>2026-05-02T14:36:48Z</time></trkpt><trkpt lat="39.97602764354368" lon="9.66531906453147"><ele>10.600000000000001</ele><time>2026-05-02T14:36:49Z</time></trkpt><trkpt lat="39.976017807708224" lon="9.66545586380532"><ele>11.0</ele><time>2026-05-02T14:36:50Z</time></trkpt><trkpt lat="39.97604071364143" lon="9.665597166502593"><ele>11.0</ele><time>2026-05-02T14:36:51Z</time></trkpt><trkpt lat="39.97608552651829" lon="9.665717472500855"><ele>11.0</ele><time>2026-05-02T14:36:52Z</time></trkpt><trkpt lat="39.97615429788119" lon="9.665829129319478"><ele>11.0</ele><time>2026-05-02T14:36:53Z</time></trkpt><trkpt lat="39.97624250249422" lon="9.665912794781526"><ele>11.0</ele><time>2026-05-02T14:36:54Z</time></trkpt><trkpt lat="39.97635023430875" lon="9.665968163891996"><ele>11.0</ele><time>2026-05-02T14:36:55Z</time></trkpt><trkpt lat="39.976464983347526" lon="9.665975793371643"><ele>11.0</ele><time>2026-05-02T14:36:56Z</time></trkpt><trkpt lat="39.97658606008806" lon="9.665989036473906"><ele>11.0</ele><time>2026-05-02T14:36:57Z</time></trkpt><trkpt lat="39.97670676409726" lon="9.665996126583684"><ele>11.0</ele><time>2026-05-02T14:36:58Z</time></trkpt><trkpt lat="39.97682653358444" lon="9.66599838734729"><ele>11.0</ele><time>2026-05-02T14:36:59Z</time></trkpt><trkpt lat="39.9769461819946" lon="9.666004310730827"><ele>11.25</ele><time>2026-05-02T14:37:00Z</time></trkpt><trkpt lat="39.9770685727479" lon="9.666014739356829"><ele>11.5</ele><time>2026-05-02T14:37:01Z</time></trkpt><trkpt lat="39.97718982703541" lon="9.666022247791044"><ele>11.75</ele><time>2026-05-02T14:37:02Z</time></trkpt><trkpt lat="39.97730898525175" lon="9.66602394069587"><ele>12.0</ele><time>2026-05-02T14:37:03Z</time></trkpt><trkpt lat="39.977427557971794" lon="9.666029235412777"><ele>12.0</ele><time>2026-05-02T14:37:04Z</time></trkpt><trkpt lat="39.97754783588523" lon="9.666039870146303"><ele>12.0</ele><time>2026-05-02T14:37:05Z</time></trkpt><trkpt lat="39.977660993662944" lon="9.666060608522475"><ele>12.0</ele><time>2026-05-02T14:37:06Z</time></trkpt><trkpt lat="39.97776882214156" lon="9.666099861245973"><ele>12.0</ele><time>2026-05-02T14:37:07Z</time></trkpt><trkpt lat="39.9778701750111" lon="9.666157536014387"><ele>12.2</ele><time>2026-05-02T14:37:08Z</time></trkpt><trkpt lat="39.97796435198162" lon="9.666230887865881"><ele>12.399999999999999</ele><time>2026-05-02T14:37:09Z</time></trkpt><trkpt lat="39.97804707479861" lon="9.666318812875963"><ele>12.600000000000001</ele><time>2026-05-02T14:37:10Z</time></trkpt><trkpt lat="39.97812041143541" lon="9.666416149041128"><ele>12.8</ele><time>2026-05-02T14:37:11Z</time></trkpt><trkpt lat="39.978182379078525" lon="9.666521341796535"><ele>13.0</ele><time>2026-05-02T14:37:12Z</time></trkpt><trkpt lat="39.97824578379965" lon="9.666641257453039"><ele>13.0</ele><time>2026-05-02T14:37:13Z</time></trkpt><trkpt lat="39.97830814469691" lon="9.666763573727216"><ele>13.0</ele><time>2026-05-02T14:37:14Z</time></trkpt><trkpt lat="39.978374335062334" lon="9.66688591583892"><ele>13.0</ele><time>2026-05-02T14:37:15Z</time></trkpt><trkpt lat="39.978440631430985" lon="9.667009422956435"><ele>13.0</ele><time>2026-05-02T14:37:16Z</time></trkpt><trkpt lat="39.978506650504904" lon="9.667132325343355"><ele>12.8</ele><time>2026-05-02T14:37:17Z</time></trkpt><trkpt lat="39.9785724443188" lon="9.667256372995876"><ele>12.600000000000001</ele><time>2026-05-02T14:37:18Z</time></trkpt><trkpt lat="39.978635769605006" lon="9.667379316494713"><ele>12.399999999999999</ele><time>2026-05-02T14:37:19Z</time></trkpt><trkpt lat="39.97869819782254" lon="9.667497505821224"><ele>12.2</ele><time>2026-05-02T14:37:20Z</time></trkpt><trkpt lat="39.978759997408716" lon="9.6676145276564"><ele>12.0</ele><time>2026-05-02T14:37:21Z</time></trkpt><trkpt lat="39.97881945361708" lon="9.667728967762274"><ele>12.399999999999999</ele><time>2026-05-02T14:37:22Z</time></trkpt><trkpt lat="39.978874974523485" lon="9.667846313259943"><ele>12.799999999999999</ele><time>2026-05-02T14:37:23Z</time></trkpt><trkpt lat="39.978933756153836" lon="9.667959759350003"><ele>13.2</ele><time>2026-05-02T14:37:24Z</time></trkpt><trkpt lat="39.9789839828192" lon="9.668088382966305"><ele>13.6</ele><time>2026-05-02T14:37:25Z</time></trkpt><trkpt lat="39.97903972593975" lon="9.668204513501463"><ele>14.0</ele><time>2026-05-02T14:37:26Z</time></trkpt><trkpt lat="39.979106485481246" lon="9.668309926724493"><ele>14.0</ele><time>2026-05-02T14:37:27Z</time></trkpt><trkpt lat="39.97914811048628" lon="9.668437018222296"><ele>13.999999999999998</ele><time>2026-05-02T14:37:28Z</time></trkpt><trkpt lat="39.979169782118646" lon="9.66856916894382"><ele>13.999999999999998</ele><time>2026-05-02T14:37:29Z</time></trkpt><trkpt lat="39.97918812119266" lon="9.668694050031604"><ele>14.0</ele><time>2026-05-02T14:37:30Z</time></trkpt><trkpt lat="39.97917856458563" lon="9.668815840733883"><ele>14.0</ele><time>2026-05-02T14:37:31Z</time></trkpt><trkpt lat="39.9791860597596" lon="9.668929707853671"><ele>13.799999999999999</ele><time>2026-05-02T14:37:32Z</time></trkpt><trkpt lat="39.97915087509421" lon="9.669037450556871"><ele>13.599999999999998</ele><time>2026-05-02T14:37:33Z</time></trkpt><trkpt lat="39.97913737186038" lon="9.669161600537794"><ele>13.4</ele><time>2026-05-02T14:37:34Z</time></trkpt><trkpt lat="39.979100927412944" lon="9.669276700989894"><ele>13.2</ele><time>2026-05-02T14:37:35Z</time></trkpt><trkpt lat="39.979059799979325" lon="9.669392561411183"><ele>13.0</ele><time>2026-05-02T14:37:36Z</time></trkpt><trkpt lat="39.979023458624546" lon="9.669509121779429"><ele>12.5</ele><time>2026-05-02T14:37:37Z</time></trkpt><trkpt lat="39.97896604076065" lon="9.669624841765549"><ele>12.0</ele><time>2026-05-02T14:37:38Z</time></trkpt><trkpt lat="39.97891730484889" lon="9.669758714731069"><ele>11.5</ele><time>2026-05-02T14:37:39Z</time></trkpt><trkpt lat="39.97886733067767" lon="9.669907496094911"><ele>11.0</ele><time>2026-05-02T14:37:40Z</time></trkpt><trkpt lat="39.97880698729383" lon="9.670060499679954"><ele>11.0</ele><time>2026-05-02T14:37:41Z</time></trkpt><trkpt lat="39.97875092441078" lon="9.670226136530491"><ele>11.0</ele><time>2026-05-02T14:37:42Z</time></trkpt><trkpt lat="39.978700027622956" lon="9.670381560219651"><ele>11.0</ele><time>2026-05-02T14:37:43Z</time></trkpt><trkpt lat="39.97863255675648" lon="9.670520031384225"><ele>11.0</ele><time>2026-05-02T14:37:44Z</time></trkpt><trkpt lat="39.978591029810936" lon="9.670671374775566"><ele>10.0</ele><time>2026-05-02T14:37:45Z</time></trkpt><trkpt lat="39.97853486395765" lon="9.6708218383055"><ele>9.0</ele><time>2026-05-02T14:37:46Z</time></trkpt><trkpt lat="39.9784682551573" lon="9.67096210842576"><ele>8.0</ele><time>2026-05-02T14:37:47Z</time></trkpt><trkpt lat="39.97842404237549" lon="9.671124116116857"><ele>7.0</ele><time>2026-05-02T14:37:48Z</time></trkpt><trkpt lat="39.97836768927038" lon="9.671278117562261"><ele>7.25</ele><time>2026-05-02T14:37:49Z</time></trkpt><trkpt lat="39.97830420466988" lon="9.671429595420813"><ele>7.5</ele><time>2026-05-02T14:37:50Z</time></trkpt><trkpt lat="39.978244158339464" lon="9.67158035483168"><ele>7.75</ele><time>2026-05-02T14:37:51Z</time></trkpt><trkpt lat="39.97818513943894" lon="9.671738983457043"><ele>8.0</ele><time>2026-05-02T14:37:52Z</time></trkpt><trkpt lat="39.97813020903183" lon="9.671892292106545"><ele>7.5</ele><time>2026-05-02T14:37:53Z</time></trkpt><trkpt lat="39.97807464735403" lon="9.672042846417"><ele>7.0</ele><time>2026-05-02T14:37:54Z</time></trkpt><trkpt lat="39.97803196565916" lon="9.672191703551047"><ele>6.5</ele><time>2026-05-02T14:37:55Z</time></trkpt><trkpt lat="39.97799640399279" lon="9.672334320909824"><ele>6.0</ele><time>2026-05-02T14:37:56Z</time></trkpt><trkpt lat="39.97798451722924" lon="9.672496004059276"><ele>6.0</ele><time>2026-05-02T14:37:57Z</time></trkpt><trkpt lat="39.97797324245274" lon="9.672656175358192"><ele>6.0</ele><time>2026-05-02T14:37:58Z</time></trkpt><trkpt lat="39.97797116450177" lon="9.67281285167722"><ele>6.0</ele><time>2026-05-02T14:37:59Z</time></trkpt><trkpt lat="39.977976903541" lon="9.672964004585586"><ele>6.0</ele><time>2026-05-02T14:38:00Z</time></trkpt><trkpt lat="39.97799992067323" lon="9.67311155909828"><ele>5.75</ele><time>2026-05-02T14:38:01Z</time></trkpt><trkpt lat="39.978041481017996" lon="9.673255134587894"><ele>5.5</ele><time>2026-05-02T14:38:02Z</time></trkpt><trkpt lat="39.97810119687034" lon="9.673389874407185"><ele>5.25</ele><time>2026-05-02T14:38:03Z</time></trkpt><trkpt lat="39.97817815128487" lon="9.673516998991074"><ele>5.0</ele><time>2026-05-02T14:38:04Z</time></trkpt><trkpt lat="39.97827397179452" lon="9.673631624437068"><ele>4.25</ele><time>2026-05-02T14:38:05Z</time></trkpt><trkpt lat="39.978384063092314" lon="9.673720718526885"><ele>3.5</ele><time>2026-05-02T14:38:06Z</time></trkpt><trkpt lat="39.978513041944126" lon="9.67378377240191"><ele>2.75</ele><time>2026-05-02T14:38:07Z</time></trkpt><trkpt lat="39.978654805612415" lon="9.673855801750761"><ele>2.0</ele><time>2026-05-02T14:38:08Z</time></trkpt><trkpt lat="39.97878691574775" lon="9.673926025584167"><ele>2.0</ele><time>2026-05-02T14:38:09Z</time></trkpt><trkpt lat="39.978919131372805" lon="9.67401227094774"><ele>2.0</ele><time>2026-05-02T14:38:10Z</time></trkpt><trkpt lat="39.97904873092289" lon="9.674119513095446"><ele>2.0</ele><time>2026-05-02T14:38:11Z</time></trkpt><trkpt lat="39.97917756699925" lon="9.67423998277626"><ele>2.0</ele><time>2026-05-02T14:38:12Z</time></trkpt><trkpt lat="39.97930286915444" lon="9.674363276835651"><ele>2.0</ele><time>2026-05-02T14:38:13Z</time></trkpt><trkpt lat="39.9794298042323" lon="9.674504621204811"><ele>2.0</ele><time>2026-05-02T14:38:14Z</time></trkpt><trkpt lat="39.97955512960422" lon="9.674645836890697"><ele>2.6666666666666665</ele><time>2026-05-02T14:38:15Z</time></trkpt><trkpt lat="39.97967655784032" lon="9.674786625581817"><ele>3.333333333333333</ele><time>2026-05-02T14:38:16Z</time></trkpt><trkpt lat="39.979797054185156" lon="9.674926723457721"><ele>4.0</ele><time>2026-05-02T14:38:17Z</time></trkpt><trkpt lat="39.97991987063088" lon="9.675060013600175"><ele>4.666666666666666</ele><time>2026-05-02T14:38:18Z</time></trkpt><trkpt lat="39.98003674759127" lon="9.67520332069526"><ele>5.333333333333333</ele><time>2026-05-02T14:38:19Z</time></trkpt><trkpt lat="39.980154531471484" lon="9.675344437087896"><ele>6.0</ele><time>2026-05-02T14:38:19.998Z</time></trkpt><trkpt lat="39.98027133672373" lon="9.675476991309992"><ele>6.0</ele><time>2026-05-02T14:38:20.998Z</time></trkpt><trkpt lat="39.98038651481877" lon="9.675613552977852"><ele>6.0</ele><time>2026-05-02T14:38:21.998Z</time></trkpt><trkpt lat="39.98049286861366" lon="9.675744701529975"><ele>6.0</ele><time>2026-05-02T14:38:22.998Z</time></trkpt><trkpt lat="39.98060293711391" lon="9.67587597812512"><ele>6.0</ele><time>2026-05-02T14:38:23.998Z</time></trkpt><trkpt lat="39.98072462535865" lon="9.675997236372883"><ele>6.0</ele><time>2026-05-02T14:38:24.998Z</time></trkpt><trkpt lat="39.9808270156327" lon="9.676132542902788"><ele>6.0</ele><time>2026-05-02T14:38:25.999Z</time></trkpt><trkpt lat="39.980912007112515" lon="9.676283480060023"><ele>6.0</ele><time>2026-05-02T14:38:26.999Z</time></trkpt><trkpt lat="39.98099107277416" lon="9.676434504871354"><ele>6.5</ele><time>2026-05-02T14:38:27.999Z</time></trkpt><trkpt lat="39.98107364524476" lon="9.676584219777842"><ele>7.0</ele><time>2026-05-02T14:38:28.999Z</time></trkpt><trkpt lat="39.98114227661919" lon="9.676742571319032"><ele>7.5</ele><time>2026-05-02T14:38:29.999Z</time></trkpt><trkpt lat="39.981194341575865" lon="9.676918248459423"><ele>8.0</ele><time>2026-05-02T14:38:30.999Z</time></trkpt><trkpt lat="39.9812413836206" lon="9.677109416709646"><ele>8.666666666666666</ele><time>2026-05-02T14:38:31.999Z</time></trkpt><trkpt lat="39.98128334839313" lon="9.677304925423519"><ele>9.333333333333334</ele><time>2026-05-02T14:38:32.999Z</time></trkpt><trkpt lat="39.98132529478255" lon="9.677505419223221"><ele>10.0</ele><time>2026-05-02T14:38:33.999Z</time></trkpt><trkpt lat="39.98137000919099" lon="9.677711596756236"><ele>9.333333333333334</ele><time>2026-05-02T14:38:34.999Z</time></trkpt><trkpt lat="39.98142618060576" lon="9.677904443565394"><ele>8.666666666666666</ele><time>2026-05-02T14:38:35.999Z</time></trkpt><trkpt lat="39.981506939482976" lon="9.67809732725121"><ele>8.0</ele><time>2026-05-02T14:38:36.999Z</time></trkpt><trkpt lat="39.981517524303605" lon="9.678272431079602"><ele>8.0</ele><time>2026-05-02T14:38:37.999Z</time></trkpt><trkpt lat="39.98154551577157" lon="9.678449774721178"><ele>8.0</ele><time>2026-05-02T14:38:38.999Z</time></trkpt><trkpt lat="39.98154288315861" lon="9.678623674668327"><ele>8.0</ele><time>2026-05-02T14:38:39.999Z</time></trkpt><trkpt lat="39.981515550180106" lon="9.678810221323252"><ele>8.0</ele><time>2026-05-02T14:38:40.999Z</time></trkpt><trkpt lat="39.981477886908245" lon="9.678998938521378"><ele>8.666666666666666</ele><time>2026-05-02T14:38:41.999Z</time></trkpt><trkpt lat="39.98143215737017" lon="9.679185624255322"><ele>9.333333333333334</ele><time>2026-05-02T14:38:42.999Z</time></trkpt><trkpt lat="39.98137664243957" lon="9.679370524998355"><ele>10.0</ele><time>2026-05-02T14:38:43.999Z</time></trkpt><trkpt lat="39.98132485394578" lon="9.679553730930529"><ele>10.25</ele><time>2026-05-02T14:38:44.999Z</time></trkpt><trkpt lat="39.981276412437786" lon="9.679728650442563"><ele>10.5</ele><time>2026-05-02T14:38:45.999Z</time></trkpt><trkpt lat="39.981253502927586" lon="9.679909158623762"><ele>10.75</ele><time>2026-05-02T14:38:46.999Z</time></trkpt><trkpt lat="39.981248377329344" lon="9.680100749494176"><ele>11.0</ele><time>2026-05-02T14:38:47.999Z</time></trkpt><trkpt lat="39.98125758306319" lon="9.68027933981865"><ele>9.5</ele><time>2026-05-02T14:38:48.999Z</time></trkpt><trkpt lat="39.98128166320968" lon="9.680449338135075"><ele>8.0</ele><time>2026-05-02T14:38:49.999Z</time></trkpt><trkpt lat="39.98131735699328" lon="9.68061058808864"><ele>6.5</ele><time>2026-05-02T14:38:50.999Z</time></trkpt><trkpt lat="39.9813664747414" lon="9.680771464605009"><ele>5.0</ele><time>2026-05-02T14:38:51.999Z</time></trkpt><trkpt lat="39.981433420154154" lon="9.68092950704606"><ele>5.0</ele><time>2026-05-02T14:38:52.999Z</time></trkpt><trkpt lat="39.98150170318634" lon="9.681085368906814"><ele>5.0</ele><time>2026-05-02T14:38:53.999Z</time></trkpt><trkpt lat="39.981564174707536" lon="9.68123402948091"><ele>5.0</ele><time>2026-05-02T14:38:54.999Z</time></trkpt><trkpt lat="39.98162397253061" lon="9.681375821927434"><ele>5.0</ele><time>2026-05-02T14:38:55.999Z</time></trkpt><trkpt lat="39.98168401483296" lon="9.681508895486443"><ele>5.4</ele><time>2026-05-02T14:38:56.999Z</time></trkpt><trkpt lat="39.981737305018925" lon="9.681632041058624"><ele>5.8</ele><time>2026-05-02T14:38:57.999Z</time></trkpt><trkpt lat="39.98178476250346" lon="9.681739800812078"><ele>6.199999999999999</ele><time>2026-05-02T14:38:58.999Z</time></trkpt><trkpt lat="39.98182151060776" lon="9.68183003365302"><ele>6.6</ele><time>2026-05-02T14:38:59.999Z</time></trkpt><trkpt lat="39.98183331547598" lon="9.681959057315542"><ele>7.0</ele><time>2026-05-02T14:39:01.999Z</time></trkpt><trkpt lat="39.98179303256916" lon="9.68203130893861"><ele>7.199999999999999</ele><time>2026-05-02T14:39:02.999Z</time></trkpt><trkpt lat="39.981689342676916" lon="9.682137686146838"><ele>7.3999999999999995</ele><time>2026-05-02T14:39:04.999Z</time></trkpt><trkpt lat="39.981630340603296" lon="9.68221229952967"><ele>7.6000000000000005</ele><time>2026-05-02T14:39:05.999Z</time></trkpt><trkpt lat="39.98156829040773" lon="9.682290767396507"><ele>7.800000000000001</ele><time>2026-05-02T14:39:06.999Z</time></trkpt><trkpt lat="39.981500980387324" lon="9.682375886841578"><ele>8.0</ele><time>2026-05-02T14:39:07.999Z</time></trkpt><trkpt lat="39.981444215792735" lon="9.682475615987338"><ele>7.6000000000000005</ele><time>2026-05-02T14:39:08.999Z</time></trkpt><trkpt lat="39.98137520896333" lon="9.682551827864426"><ele>7.200000000000001</ele><time>2026-05-02T14:39:09.999Z</time></trkpt><trkpt lat="39.98130499742159" lon="9.682639831106693"><ele>6.8</ele><time>2026-05-02T14:39:10.999Z</time></trkpt><trkpt lat="39.98124288378423" lon="9.682720649249328"><ele>6.4</ele><time>2026-05-02T14:39:11.999Z</time></trkpt><trkpt lat="39.981189055719554" lon="9.682793542773297"><ele>6.0</ele><time>2026-05-02T14:39:12.999Z</time></trkpt><trkpt lat="39.98113262686779" lon="9.682925706059375"><ele>5.833333333333333</ele><time>2026-05-02T14:39:15Z</time></trkpt><trkpt lat="39.981124710010604" lon="9.683075447768008"><ele>5.666666666666667</ele><time>2026-05-02T14:39:17Z</time></trkpt><trkpt lat="39.9810995858291" lon="9.68323571776175"><ele>5.5</ele><time>2026-05-02T14:39:19Z</time></trkpt><trkpt lat="39.981092749072985" lon="9.683321904148004"><ele>5.333333333333334</ele><time>2026-05-02T14:39:20Z</time></trkpt><trkpt lat="39.98108544087908" lon="9.683409751581483"><ele>5.166666666666667</ele><time>2026-05-02T14:39:21Z</time></trkpt><trkpt lat="39.98107668870787" lon="9.683504624057731"><ele>5.0</ele><time>2026-05-02T14:39:22Z</time></trkpt><trkpt lat="39.98107725672691" lon="9.68361137052036"><ele>4.833333333333334</ele><time>2026-05-02T14:39:23Z</time></trkpt><trkpt lat="39.981065322572306" lon="9.6837149260284"><ele>4.666666666666667</ele><time>2026-05-02T14:39:24Z</time></trkpt><trkpt lat="39.98105184875689" lon="9.68380907637614"><ele>4.5</ele><time>2026-05-02T14:39:25Z</time></trkpt><trkpt lat="39.98104235597326" lon="9.683897910347392"><ele>4.333333333333333</ele><time>2026-05-02T14:39:26Z</time></trkpt><trkpt lat="39.98103734907733" lon="9.683988733614855"><ele>4.166666666666666</ele><time>2026-05-02T14:39:27Z</time></trkpt><trkpt lat="39.981034448317246" lon="9.684126715716515"><ele>4.0</ele><time>2026-05-02T14:39:29Z</time></trkpt><trkpt lat="39.98101128964634" lon="9.684209599935759"><ele>3.9999999999999996</ele><time>2026-05-02T14:39:32Z</time></trkpt><trkpt lat="39.98096382885733" lon="9.684071126262273"><ele>4.0</ele><time>2026-05-02T14:41:23.999Z</time></trkpt><trkpt lat="39.98100686902406" lon="9.683982303835979"><ele>4.0</ele><time>2026-05-02T14:41:27Z</time></trkpt><trkpt lat="39.98102393985238" lon="9.683858543001106"><ele>4.0</ele><time>2026-05-02T14:41:29Z</time></trkpt><trkpt lat="39.98102968883051" lon="9.683776058043877"><ele>3.9999999999999996</ele><time>2026-05-02T14:41:30Z</time></trkpt><trkpt lat="39.981033904653884" lon="9.683685290447167"><ele>4.0</ele><time>2026-05-02T14:41:31Z</time></trkpt><trkpt lat="39.98103710693325" lon="9.683599190082724"><ele>4.142857142857142</ele><time>2026-05-02T14:41:32Z</time></trkpt><trkpt lat="39.98103916166073" lon="9.683516252219404"><ele>4.285714285714286</ele><time>2026-05-02T14:41:33Z</time></trkpt><trkpt lat="39.981041270637476" lon="9.683430539048922"><ele>4.428571428571429</ele><time>2026-05-02T14:41:34Z</time></trkpt><trkpt lat="39.98104456566935" lon="9.683296622142395"><ele>4.571428571428571</ele><time>2026-05-02T14:41:36Z</time></trkpt><trkpt lat="39.98103228541611" lon="9.68320249829169"><ele>4.714285714285714</ele><time>2026-05-02T14:41:39Z</time></trkpt><trkpt lat="39.98097288800131" lon="9.683158688336354"><ele>4.857142857142857</ele><time>2026-05-02T14:41:42Z</time></trkpt><trkpt lat="39.98090916564583" lon="9.683119683682474"><ele>5.0</ele><time>2026-05-02T14:41:47Z</time></trkpt><trkpt lat="39.980858444600344" lon="9.683058008204094"><ele>5.0</ele><time>2026-05-02T14:41:51Z</time></trkpt><trkpt lat="39.980817779073966" lon="9.682990541705719"><ele>5.0</ele><time>2026-05-02T14:41:54Z</time></trkpt><trkpt lat="39.98083031777147" lon="9.683079502286574"><ele>5.0</ele><time>2026-05-02T14:44:05.001Z</time></trkpt><trkpt lat="39.98089364571096" lon="9.683118223852007"><ele>5.0</ele><time>2026-05-02T14:44:10.001Z</time></trkpt><trkpt lat="39.980927433101634" lon="9.683196972727615"><ele>5.0</ele><time>2026-05-02T14:44:17.001Z</time></trkpt><trkpt lat="39.98093126815529" lon="9.683279176792501"><ele>5.0</ele><time>2026-05-02T14:44:22.001Z</time></trkpt><trkpt lat="39.98085953244253" lon="9.68332919694834"><ele>5.0</ele><time>2026-05-02T14:44:55Z</time></trkpt><trkpt lat="39.98089816587954" lon="9.683405893403517"><ele>5.0</ele><time>2026-05-02T14:45:14Z</time></trkpt><trkpt lat="39.98084813870813" lon="9.683317141313761"><ele>5.0</ele><time>2026-05-02T14:45:44.001Z</time></trkpt><trkpt lat="39.98092191421803" lon="9.683307697703771"><ele>5.0</ele><time>2026-05-02T14:47:16.001Z</time></trkpt><trkpt lat="39.9809011662307" lon="9.683225685563965"><ele>5.0</ele><time>2026-05-02T14:47:24.001Z</time></trkpt><trkpt lat="39.980849879441564" lon="9.683149954473796"><ele>5.0</ele><time>2026-05-02T14:47:29.001Z</time></trkpt><trkpt lat="39.98081789688838" lon="9.683059965137568"><ele>5.0</ele><time>2026-05-02T14:47:34.001Z</time></trkpt><trkpt lat="39.98074504390377" lon="9.683042038054138"><ele>5.142857142857142</ele><time>2026-05-02T14:48:04.001Z</time></trkpt><trkpt lat="39.98068343006398" lon="9.68300031685089"><ele>5.285714285714286</ele><time>2026-05-02T14:48:09.001Z</time></trkpt><trkpt lat="39.98065732724687" lon="9.682923710292519"><ele>5.428571428571429</ele><time>2026-05-02T14:48:14.001Z</time></trkpt><trkpt lat="39.98068902004518" lon="9.682848614265252"><ele>5.571428571428571</ele><time>2026-05-02T14:48:19.001Z</time></trkpt><trkpt lat="39.980714152671744" lon="9.682764487324034"><ele>5.714285714285714</ele><time>2026-05-02T14:48:25.001Z</time></trkpt><trkpt lat="39.98075465350215" lon="9.682684624250644"><ele>5.857142857142857</ele><time>2026-05-02T14:48:30.001Z</time></trkpt><trkpt lat="39.98081210721158" lon="9.682650876034112"><ele>6.0</ele><time>2026-05-02T14:48:44.001Z</time></trkpt><trkpt lat="39.98088805216704" lon="9.682652810986053"><ele>6.0</ele><time>2026-05-02T14:54:46Z</time></trkpt><trkpt lat="39.98083226627386" lon="9.682611803830255"><ele>6.0</ele><time>2026-05-02T14:58:56Z</time></trkpt></trkseg></trk></gpx>